<?xml version="1.0" encoding="UTF-8" standalone="no" ?>
<gpx xmlns="http://www.topografix.com/GPX/1/1" xmlns:xsi="http://www.w3.org/2001/XMLSchema-instance" xsi:schemaLocation="http://www.topografix.com/GPX/1/1 http://www.topografix.com/GPX/1/1/gpx.xsd" version="1.1" creator="VisuGPX - https://www.visugpx.com">
  <metadata>
    <name>Les Templiers 2010</name>
    <desc><![CDATA[Parcours des Templiers 2010]]></desc>
  </metadata>
  <trk>
    <name><![CDATA[Les Templiers]]></name>
    <cmt><![CDATA[123éme]]></cmt>
    <trkseg>
      <trkpt lat="44.10118" lon="3.08345">
        <ele>360.7</ele>
        <time>2010-10-24T04:16:54Z</time>
      </trkpt>
      <trkpt lat="44.10121" lon="3.08346">
        <ele>370.39999389648</ele>
        <time>2010-10-24T04:16:59Z</time>
      </trkpt>
      <trkpt lat="44.10133" lon="3.08341">
        <ele>370.20001220703</ele>
        <time>2010-10-24T04:17:08Z</time>
      </trkpt>
      <trkpt lat="44.10138" lon="3.0834">
        <ele>370.39999389648</ele>
        <time>2010-10-24T04:17:10Z</time>
      </trkpt>
      <trkpt lat="44.10154" lon="3.08335">
        <ele>371.20001220703</ele>
        <time>2010-10-24T04:17:19Z</time>
      </trkpt>
      <trkpt lat="44.10156" lon="3.08336">
        <ele>371.20001220703</ele>
        <time>2010-10-24T04:17:20Z</time>
      </trkpt>
      <trkpt lat="44.10162" lon="3.08345">
        <ele>371.39999389648</ele>
        <time>2010-10-24T04:17:23Z</time>
      </trkpt>
      <trkpt lat="44.10163" lon="3.0836">
        <ele>371.20001220703</ele>
        <time>2010-10-24T04:17:27Z</time>
      </trkpt>
      <trkpt lat="44.10168" lon="3.08385">
        <ele>371.20001220703</ele>
        <time>2010-10-24T04:17:34Z</time>
      </trkpt>
      <trkpt lat="44.1017" lon="3.08411">
        <ele>371.20001220703</ele>
        <time>2010-10-24T04:17:41Z</time>
      </trkpt>
      <trkpt lat="44.10173" lon="3.08438">
        <ele>370.79998779297</ele>
        <time>2010-10-24T04:17:49Z</time>
      </trkpt>
      <trkpt lat="44.10176" lon="3.08463">
        <ele>370.60000610352</ele>
        <time>2010-10-24T04:17:56Z</time>
      </trkpt>
      <trkpt lat="44.10178" lon="3.08489">
        <ele>370.39999389648</ele>
        <time>2010-10-24T04:18:03Z</time>
      </trkpt>
      <trkpt lat="44.10181" lon="3.08517">
        <ele>370.20001220703</ele>
        <time>2010-10-24T04:18:10Z</time>
      </trkpt>
      <trkpt lat="44.10186" lon="3.0854">
        <ele>370.20001220703</ele>
        <time>2010-10-24T04:18:16Z</time>
      </trkpt>
      <trkpt lat="44.10194" lon="3.08566">
        <ele>370.20001220703</ele>
        <time>2010-10-24T04:18:23Z</time>
      </trkpt>
      <trkpt lat="44.10196" lon="3.08591">
        <ele>370.39999389648</ele>
        <time>2010-10-24T04:18:29Z</time>
      </trkpt>
      <trkpt lat="44.10199" lon="3.08617">
        <ele>370.60000610352</ele>
        <time>2010-10-24T04:18:35Z</time>
      </trkpt>
      <trkpt lat="44.10201" lon="3.08645">
        <ele>371</ele>
        <time>2010-10-24T04:18:42Z</time>
      </trkpt>
      <trkpt lat="44.10205" lon="3.08674">
        <ele>370.79998779297</ele>
        <time>2010-10-24T04:18:49Z</time>
      </trkpt>
      <trkpt lat="44.10207" lon="3.08702">
        <ele>370.60000610352</ele>
        <time>2010-10-24T04:18:56Z</time>
      </trkpt>
      <trkpt lat="44.10218" lon="3.08725">
        <ele>370.20001220703</ele>
        <time>2010-10-24T04:19:03Z</time>
      </trkpt>
      <trkpt lat="44.10234" lon="3.08742">
        <ele>369.79998779297</ele>
        <time>2010-10-24T04:19:10Z</time>
      </trkpt>
      <trkpt lat="44.10249" lon="3.08756">
        <ele>369.60000610352</ele>
        <time>2010-10-24T04:19:16Z</time>
      </trkpt>
      <trkpt lat="44.10264" lon="3.08775">
        <ele>369.20001220703</ele>
        <time>2010-10-24T04:19:22Z</time>
      </trkpt>
      <trkpt lat="44.10276" lon="3.08795">
        <ele>369.20001220703</ele>
        <time>2010-10-24T04:19:28Z</time>
      </trkpt>
      <trkpt lat="44.10288" lon="3.08819">
        <ele>369</ele>
        <time>2010-10-24T04:19:35Z</time>
      </trkpt>
      <trkpt lat="44.10299" lon="3.0884">
        <ele>369</ele>
        <time>2010-10-24T04:19:41Z</time>
      </trkpt>
      <trkpt lat="44.10306" lon="3.08851">
        <ele>369</ele>
        <time>2010-10-24T04:19:44Z</time>
      </trkpt>
      <trkpt lat="44.1031" lon="3.08863">
        <ele>369</ele>
        <time>2010-10-24T04:19:47Z</time>
      </trkpt>
      <trkpt lat="44.10315" lon="3.0889">
        <ele>369.20001220703</ele>
        <time>2010-10-24T04:19:53Z</time>
      </trkpt>
      <trkpt lat="44.10322" lon="3.08915">
        <ele>369.39999389648</ele>
        <time>2010-10-24T04:20:00Z</time>
      </trkpt>
      <trkpt lat="44.10339" lon="3.08924">
        <ele>369.39999389648</ele>
        <time>2010-10-24T04:20:07Z</time>
      </trkpt>
      <trkpt lat="44.10355" lon="3.08936">
        <ele>369.20001220703</ele>
        <time>2010-10-24T04:20:13Z</time>
      </trkpt>
      <trkpt lat="44.10358" lon="3.08944">
        <ele>369.20001220703</ele>
        <time>2010-10-24T04:20:15Z</time>
      </trkpt>
      <trkpt lat="44.10357" lon="3.0896">
        <ele>369</ele>
        <time>2010-10-24T04:20:19Z</time>
      </trkpt>
      <trkpt lat="44.10351" lon="3.08988">
        <ele>368.79998779297</ele>
        <time>2010-10-24T04:20:26Z</time>
      </trkpt>
      <trkpt lat="44.10346" lon="3.09016">
        <ele>369</ele>
        <time>2010-10-24T04:20:33Z</time>
      </trkpt>
      <trkpt lat="44.10347" lon="3.09041">
        <ele>369.20001220703</ele>
        <time>2010-10-24T04:20:39Z</time>
      </trkpt>
      <trkpt lat="44.10346" lon="3.09068">
        <ele>369.60000610352</ele>
        <time>2010-10-24T04:20:46Z</time>
      </trkpt>
      <trkpt lat="44.10346" lon="3.09094">
        <ele>370</ele>
        <time>2010-10-24T04:20:53Z</time>
      </trkpt>
      <trkpt lat="44.10345" lon="3.09121">
        <ele>370.20001220703</ele>
        <time>2010-10-24T04:21:00Z</time>
      </trkpt>
      <trkpt lat="44.10344" lon="3.09149">
        <ele>370</ele>
        <time>2010-10-24T04:21:07Z</time>
      </trkpt>
      <trkpt lat="44.1034" lon="3.09176">
        <ele>370</ele>
        <time>2010-10-24T04:21:14Z</time>
      </trkpt>
      <trkpt lat="44.1034" lon="3.09193">
        <ele>370</ele>
        <time>2010-10-24T04:21:19Z</time>
      </trkpt>
      <trkpt lat="44.10338" lon="3.09201">
        <ele>370.20001220703</ele>
        <time>2010-10-24T04:21:21Z</time>
      </trkpt>
      <trkpt lat="44.1033" lon="3.09217">
        <ele>370.60000610352</ele>
        <time>2010-10-24T04:21:26Z</time>
      </trkpt>
      <trkpt lat="44.10329" lon="3.09224">
        <ele>370.79998779297</ele>
        <time>2010-10-24T04:21:28Z</time>
      </trkpt>
      <trkpt lat="44.10323" lon="3.09251">
        <ele>371.79998779297</ele>
        <time>2010-10-24T04:21:35Z</time>
      </trkpt>
      <trkpt lat="44.1032" lon="3.09277">
        <ele>372.79998779297</ele>
        <time>2010-10-24T04:21:42Z</time>
      </trkpt>
      <trkpt lat="44.10317" lon="3.09303">
        <ele>373.79998779297</ele>
        <time>2010-10-24T04:21:49Z</time>
      </trkpt>
      <trkpt lat="44.10314" lon="3.0932">
        <ele>374.60000610352</ele>
        <time>2010-10-24T04:21:54Z</time>
      </trkpt>
      <trkpt lat="44.10315" lon="3.09331">
        <ele>375</ele>
        <time>2010-10-24T04:21:57Z</time>
      </trkpt>
      <trkpt lat="44.10316" lon="3.09358">
        <ele>376.39999389648</ele>
        <time>2010-10-24T04:22:04Z</time>
      </trkpt>
      <trkpt lat="44.10318" lon="3.09378">
        <ele>377.20001220703</ele>
        <time>2010-10-24T04:22:09Z</time>
      </trkpt>
      <trkpt lat="44.10318" lon="3.09385">
        <ele>377.39999389648</ele>
        <time>2010-10-24T04:22:11Z</time>
      </trkpt>
      <trkpt lat="44.10316" lon="3.09411">
        <ele>378</ele>
        <time>2010-10-24T04:22:18Z</time>
      </trkpt>
      <trkpt lat="44.10315" lon="3.09427">
        <ele>378.60000610352</ele>
        <time>2010-10-24T04:22:22Z</time>
      </trkpt>
      <trkpt lat="44.10312" lon="3.09437">
        <ele>379.20001220703</ele>
        <time>2010-10-24T04:22:25Z</time>
      </trkpt>
      <trkpt lat="44.10303" lon="3.09462">
        <ele>381</ele>
        <time>2010-10-24T04:22:33Z</time>
      </trkpt>
      <trkpt lat="44.10303" lon="3.0947">
        <ele>381.60000610352</ele>
        <time>2010-10-24T04:22:35Z</time>
      </trkpt>
      <trkpt lat="44.10301" lon="3.09488">
        <ele>383</ele>
        <time>2010-10-24T04:22:40Z</time>
      </trkpt>
      <trkpt lat="44.10299" lon="3.09516">
        <ele>385</ele>
        <time>2010-10-24T04:22:47Z</time>
      </trkpt>
      <trkpt lat="44.10304" lon="3.09527">
        <ele>386.39999389648</ele>
        <time>2010-10-24T04:22:52Z</time>
      </trkpt>
      <trkpt lat="44.10312" lon="3.09521">
        <ele>387.20001220703</ele>
        <time>2010-10-24T04:22:56Z</time>
      </trkpt>
      <trkpt lat="44.10316" lon="3.0951">
        <ele>388</ele>
        <time>2010-10-24T04:22:59Z</time>
      </trkpt>
      <trkpt lat="44.1032" lon="3.09497">
        <ele>388.79998779297</ele>
        <time>2010-10-24T04:23:03Z</time>
      </trkpt>
      <trkpt lat="44.10333" lon="3.09476">
        <ele>390.60000610352</ele>
        <time>2010-10-24T04:23:10Z</time>
      </trkpt>
      <trkpt lat="44.10349" lon="3.09464">
        <ele>392.39999389648</ele>
        <time>2010-10-24T04:23:17Z</time>
      </trkpt>
      <trkpt lat="44.10361" lon="3.09445">
        <ele>394.39999389648</ele>
        <time>2010-10-24T04:23:25Z</time>
      </trkpt>
      <trkpt lat="44.1037" lon="3.09423">
        <ele>396</ele>
        <time>2010-10-24T04:23:31Z</time>
      </trkpt>
      <trkpt lat="44.10377" lon="3.09399">
        <ele>397.39999389648</ele>
        <time>2010-10-24T04:23:37Z</time>
      </trkpt>
      <trkpt lat="44.10384" lon="3.09375">
        <ele>398.20001220703</ele>
        <time>2010-10-24T04:23:43Z</time>
      </trkpt>
      <trkpt lat="44.10389" lon="3.09348">
        <ele>399.20001220703</ele>
        <time>2010-10-24T04:23:50Z</time>
      </trkpt>
      <trkpt lat="44.1039" lon="3.0934">
        <ele>399.60000610352</ele>
        <time>2010-10-24T04:23:52Z</time>
      </trkpt>
      <trkpt lat="44.10397" lon="3.09321">
        <ele>400.20001220703</ele>
        <time>2010-10-24T04:23:57Z</time>
      </trkpt>
      <trkpt lat="44.10404" lon="3.09304">
        <ele>401</ele>
        <time>2010-10-24T04:24:02Z</time>
      </trkpt>
      <trkpt lat="44.10407" lon="3.09298">
        <ele>401</ele>
        <time>2010-10-24T04:24:04Z</time>
      </trkpt>
      <trkpt lat="44.10419" lon="3.09276">
        <ele>401.79998779297</ele>
        <time>2010-10-24T04:24:11Z</time>
      </trkpt>
      <trkpt lat="44.10433" lon="3.09258">
        <ele>402.20001220703</ele>
        <time>2010-10-24T04:24:18Z</time>
      </trkpt>
      <trkpt lat="44.10447" lon="3.09238">
        <ele>402.39999389648</ele>
        <time>2010-10-24T04:24:25Z</time>
      </trkpt>
      <trkpt lat="44.10456" lon="3.09223">
        <ele>402.39999389648</ele>
        <time>2010-10-24T04:24:30Z</time>
      </trkpt>
      <trkpt lat="44.1046" lon="3.09217">
        <ele>402.60000610352</ele>
        <time>2010-10-24T04:24:32Z</time>
      </trkpt>
      <trkpt lat="44.10463" lon="3.09211">
        <ele>402.60000610352</ele>
        <time>2010-10-24T04:24:34Z</time>
      </trkpt>
      <trkpt lat="44.1047" lon="3.09193">
        <ele>402.79998779297</ele>
        <time>2010-10-24T04:24:39Z</time>
      </trkpt>
      <trkpt lat="44.10476" lon="3.09169">
        <ele>403</ele>
        <time>2010-10-24T04:24:45Z</time>
      </trkpt>
      <trkpt lat="44.10483" lon="3.09146">
        <ele>403.39999389648</ele>
        <time>2010-10-24T04:24:51Z</time>
      </trkpt>
      <trkpt lat="44.10492" lon="3.09124">
        <ele>404</ele>
        <time>2010-10-24T04:24:57Z</time>
      </trkpt>
      <trkpt lat="44.10504" lon="3.09103">
        <ele>404.79998779297</ele>
        <time>2010-10-24T04:25:04Z</time>
      </trkpt>
      <trkpt lat="44.10521" lon="3.09085">
        <ele>405.39999389648</ele>
        <time>2010-10-24T04:25:11Z</time>
      </trkpt>
      <trkpt lat="44.10538" lon="3.09074">
        <ele>406.60000610352</ele>
        <time>2010-10-24T04:25:18Z</time>
      </trkpt>
      <trkpt lat="44.10558" lon="3.09069">
        <ele>407.79998779297</ele>
        <time>2010-10-24T04:25:25Z</time>
      </trkpt>
      <trkpt lat="44.10577" lon="3.09067">
        <ele>408.79998779297</ele>
        <time>2010-10-24T04:25:31Z</time>
      </trkpt>
      <trkpt lat="44.10597" lon="3.0907">
        <ele>409.79998779297</ele>
        <time>2010-10-24T04:25:38Z</time>
      </trkpt>
      <trkpt lat="44.10614" lon="3.09078">
        <ele>410.79998779297</ele>
        <time>2010-10-24T04:25:44Z</time>
      </trkpt>
      <trkpt lat="44.10634" lon="3.09085">
        <ele>412</ele>
        <time>2010-10-24T04:25:51Z</time>
      </trkpt>
      <trkpt lat="44.10653" lon="3.09089">
        <ele>413.20001220703</ele>
        <time>2010-10-24T04:25:58Z</time>
      </trkpt>
      <trkpt lat="44.10672" lon="3.09092">
        <ele>414.60000610352</ele>
        <time>2010-10-24T04:26:05Z</time>
      </trkpt>
      <trkpt lat="44.10691" lon="3.09096">
        <ele>416</ele>
        <time>2010-10-24T04:26:12Z</time>
      </trkpt>
      <trkpt lat="44.10709" lon="3.09102">
        <ele>417.20001220703</ele>
        <time>2010-10-24T04:26:19Z</time>
      </trkpt>
      <trkpt lat="44.10729" lon="3.09106">
        <ele>418.20001220703</ele>
        <time>2010-10-24T04:26:26Z</time>
      </trkpt>
      <trkpt lat="44.10747" lon="3.09106">
        <ele>419.20001220703</ele>
        <time>2010-10-24T04:26:32Z</time>
      </trkpt>
      <trkpt lat="44.10767" lon="3.09103">
        <ele>420.60000610352</ele>
        <time>2010-10-24T04:26:39Z</time>
      </trkpt>
      <trkpt lat="44.10788" lon="3.09101">
        <ele>422.20001220703</ele>
        <time>2010-10-24T04:26:46Z</time>
      </trkpt>
      <trkpt lat="44.10808" lon="3.091">
        <ele>423.39999389648</ele>
        <time>2010-10-24T04:26:53Z</time>
      </trkpt>
      <trkpt lat="44.10828" lon="3.091">
        <ele>424.79998779297</ele>
        <time>2010-10-24T04:27:00Z</time>
      </trkpt>
      <trkpt lat="44.10848" lon="3.09101">
        <ele>425.79998779297</ele>
        <time>2010-10-24T04:27:07Z</time>
      </trkpt>
      <trkpt lat="44.10868" lon="3.09102">
        <ele>426.79998779297</ele>
        <time>2010-10-24T04:27:14Z</time>
      </trkpt>
      <trkpt lat="44.10886" lon="3.09103">
        <ele>428</ele>
        <time>2010-10-24T04:27:21Z</time>
      </trkpt>
      <trkpt lat="44.10906" lon="3.09104">
        <ele>429</ele>
        <time>2010-10-24T04:27:28Z</time>
      </trkpt>
      <trkpt lat="44.10926" lon="3.09107">
        <ele>429.60000610352</ele>
        <time>2010-10-24T04:27:35Z</time>
      </trkpt>
      <trkpt lat="44.10945" lon="3.09105">
        <ele>430.20001220703</ele>
        <time>2010-10-24T04:27:42Z</time>
      </trkpt>
      <trkpt lat="44.10965" lon="3.09106">
        <ele>431</ele>
        <time>2010-10-24T04:27:49Z</time>
      </trkpt>
      <trkpt lat="44.10986" lon="3.09103">
        <ele>431.79998779297</ele>
        <time>2010-10-24T04:27:56Z</time>
      </trkpt>
      <trkpt lat="44.11005" lon="3.09103">
        <ele>432.60000610352</ele>
        <time>2010-10-24T04:28:03Z</time>
      </trkpt>
      <trkpt lat="44.11023" lon="3.0911">
        <ele>433.20001220703</ele>
        <time>2010-10-24T04:28:09Z</time>
      </trkpt>
      <trkpt lat="44.1104" lon="3.09117">
        <ele>434</ele>
        <time>2010-10-24T04:28:16Z</time>
      </trkpt>
      <trkpt lat="44.11058" lon="3.09126">
        <ele>435.20001220703</ele>
        <time>2010-10-24T04:28:23Z</time>
      </trkpt>
      <trkpt lat="44.11074" lon="3.09139">
        <ele>436.39999389648</ele>
        <time>2010-10-24T04:28:29Z</time>
      </trkpt>
      <trkpt lat="44.1109" lon="3.09152">
        <ele>437.60000610352</ele>
        <time>2010-10-24T04:28:36Z</time>
      </trkpt>
      <trkpt lat="44.11106" lon="3.09162">
        <ele>439</ele>
        <time>2010-10-24T04:28:43Z</time>
      </trkpt>
      <trkpt lat="44.11125" lon="3.09168">
        <ele>440.39999389648</ele>
        <time>2010-10-24T04:28:50Z</time>
      </trkpt>
      <trkpt lat="44.11144" lon="3.09172">
        <ele>442</ele>
        <time>2010-10-24T04:28:57Z</time>
      </trkpt>
      <trkpt lat="44.11164" lon="3.09173">
        <ele>443.60000610352</ele>
        <time>2010-10-24T04:29:04Z</time>
      </trkpt>
      <trkpt lat="44.11183" lon="3.09175">
        <ele>445.20001220703</ele>
        <time>2010-10-24T04:29:11Z</time>
      </trkpt>
      <trkpt lat="44.112" lon="3.09185">
        <ele>446.79998779297</ele>
        <time>2010-10-24T04:29:18Z</time>
      </trkpt>
      <trkpt lat="44.11207" lon="3.09208">
        <ele>448</ele>
        <time>2010-10-24T04:29:25Z</time>
      </trkpt>
      <trkpt lat="44.11219" lon="3.09227">
        <ele>449.60000610352</ele>
        <time>2010-10-24T04:29:33Z</time>
      </trkpt>
      <trkpt lat="44.11236" lon="3.0924">
        <ele>451.79998779297</ele>
        <time>2010-10-24T04:29:41Z</time>
      </trkpt>
      <trkpt lat="44.11254" lon="3.09254">
        <ele>454.20001220703</ele>
        <time>2010-10-24T04:29:49Z</time>
      </trkpt>
      <trkpt lat="44.11272" lon="3.09261">
        <ele>456.39999389648</ele>
        <time>2010-10-24T04:29:56Z</time>
      </trkpt>
      <trkpt lat="44.1129" lon="3.0927">
        <ele>459.39999389648</ele>
        <time>2010-10-24T04:30:04Z</time>
      </trkpt>
      <trkpt lat="44.11308" lon="3.09278">
        <ele>462.39999389648</ele>
        <time>2010-10-24T04:30:12Z</time>
      </trkpt>
      <trkpt lat="44.11328" lon="3.09282">
        <ele>465.79998779297</ele>
        <time>2010-10-24T04:30:21Z</time>
      </trkpt>
      <trkpt lat="44.11345" lon="3.09293">
        <ele>469</ele>
        <time>2010-10-24T04:30:30Z</time>
      </trkpt>
      <trkpt lat="44.11361" lon="3.09305">
        <ele>472.20001220703</ele>
        <time>2010-10-24T04:30:39Z</time>
      </trkpt>
      <trkpt lat="44.11377" lon="3.09322">
        <ele>475.20001220703</ele>
        <time>2010-10-24T04:30:49Z</time>
      </trkpt>
      <trkpt lat="44.11393" lon="3.09336">
        <ele>477.60000610352</ele>
        <time>2010-10-24T04:30:58Z</time>
      </trkpt>
      <trkpt lat="44.11409" lon="3.09349">
        <ele>480</ele>
        <time>2010-10-24T04:31:07Z</time>
      </trkpt>
      <trkpt lat="44.11428" lon="3.09361">
        <ele>481.60000610352</ele>
        <time>2010-10-24T04:31:14Z</time>
      </trkpt>
      <trkpt lat="44.11445" lon="3.09369">
        <ele>482.79998779297</ele>
        <time>2010-10-24T04:31:22Z</time>
      </trkpt>
      <trkpt lat="44.11463" lon="3.09377">
        <ele>484.20001220703</ele>
        <time>2010-10-24T04:31:29Z</time>
      </trkpt>
      <trkpt lat="44.11481" lon="3.09385">
        <ele>485.60000610352</ele>
        <time>2010-10-24T04:31:37Z</time>
      </trkpt>
      <trkpt lat="44.11499" lon="3.0939">
        <ele>486.79998779297</ele>
        <time>2010-10-24T04:31:44Z</time>
      </trkpt>
      <trkpt lat="44.11517" lon="3.09397">
        <ele>488.39999389648</ele>
        <time>2010-10-24T04:31:51Z</time>
      </trkpt>
      <trkpt lat="44.11536" lon="3.09406">
        <ele>490</ele>
        <time>2010-10-24T04:31:59Z</time>
      </trkpt>
      <trkpt lat="44.11553" lon="3.09415">
        <ele>491.60000610352</ele>
        <time>2010-10-24T04:32:06Z</time>
      </trkpt>
      <trkpt lat="44.11571" lon="3.09428">
        <ele>493.20001220703</ele>
        <time>2010-10-24T04:32:14Z</time>
      </trkpt>
      <trkpt lat="44.11588" lon="3.09443">
        <ele>495</ele>
        <time>2010-10-24T04:32:22Z</time>
      </trkpt>
      <trkpt lat="44.11605" lon="3.09458">
        <ele>497</ele>
        <time>2010-10-24T04:32:30Z</time>
      </trkpt>
      <trkpt lat="44.11623" lon="3.09473">
        <ele>499</ele>
        <time>2010-10-24T04:32:38Z</time>
      </trkpt>
      <trkpt lat="44.11641" lon="3.09486">
        <ele>501</ele>
        <time>2010-10-24T04:32:46Z</time>
      </trkpt>
      <trkpt lat="44.11658" lon="3.09496">
        <ele>502.79998779297</ele>
        <time>2010-10-24T04:32:53Z</time>
      </trkpt>
      <trkpt lat="44.11674" lon="3.09509">
        <ele>504.39999389648</ele>
        <time>2010-10-24T04:33:00Z</time>
      </trkpt>
      <trkpt lat="44.11691" lon="3.09525">
        <ele>506.20001220703</ele>
        <time>2010-10-24T04:33:08Z</time>
      </trkpt>
      <trkpt lat="44.11706" lon="3.0954">
        <ele>508</ele>
        <time>2010-10-24T04:33:15Z</time>
      </trkpt>
      <trkpt lat="44.1172" lon="3.09557">
        <ele>509.60000610352</ele>
        <time>2010-10-24T04:33:22Z</time>
      </trkpt>
      <trkpt lat="44.11732" lon="3.09575">
        <ele>511.20001220703</ele>
        <time>2010-10-24T04:33:29Z</time>
      </trkpt>
      <trkpt lat="44.11744" lon="3.09597">
        <ele>513.20001220703</ele>
        <time>2010-10-24T04:33:37Z</time>
      </trkpt>
      <trkpt lat="44.11749" lon="3.09618">
        <ele>514.40002441406</ele>
        <time>2010-10-24T04:33:43Z</time>
      </trkpt>
      <trkpt lat="44.11747" lon="3.09621">
        <ele>514.59997558594</ele>
        <time>2010-10-24T04:33:44Z</time>
      </trkpt>
      <trkpt lat="44.11729" lon="3.09622">
        <ele>515.59997558594</ele>
        <time>2010-10-24T04:33:50Z</time>
      </trkpt>
      <trkpt lat="44.1171" lon="3.09614">
        <ele>516.59997558594</ele>
        <time>2010-10-24T04:33:57Z</time>
      </trkpt>
      <trkpt lat="44.11692" lon="3.0962">
        <ele>518</ele>
        <time>2010-10-24T04:34:04Z</time>
      </trkpt>
      <trkpt lat="44.11686" lon="3.09647">
        <ele>519.40002441406</ele>
        <time>2010-10-24T04:34:11Z</time>
      </trkpt>
      <trkpt lat="44.11689" lon="3.09674">
        <ele>520.79998779297</ele>
        <time>2010-10-24T04:34:18Z</time>
      </trkpt>
      <trkpt lat="44.11699" lon="3.09698">
        <ele>521.59997558594</ele>
        <time>2010-10-24T04:34:25Z</time>
      </trkpt>
      <trkpt lat="44.11709" lon="3.0972">
        <ele>522</ele>
        <time>2010-10-24T04:34:31Z</time>
      </trkpt>
      <trkpt lat="44.1172" lon="3.09746">
        <ele>522</ele>
        <time>2010-10-24T04:34:38Z</time>
      </trkpt>
      <trkpt lat="44.11729" lon="3.09767">
        <ele>522</ele>
        <time>2010-10-24T04:34:44Z</time>
      </trkpt>
      <trkpt lat="44.11734" lon="3.09792">
        <ele>521.79998779297</ele>
        <time>2010-10-24T04:34:50Z</time>
      </trkpt>
      <trkpt lat="44.11737" lon="3.09818">
        <ele>521.79998779297</ele>
        <time>2010-10-24T04:34:56Z</time>
      </trkpt>
      <trkpt lat="44.11739" lon="3.09843">
        <ele>521.79998779297</ele>
        <time>2010-10-24T04:35:02Z</time>
      </trkpt>
      <trkpt lat="44.11742" lon="3.09871">
        <ele>521.79998779297</ele>
        <time>2010-10-24T04:35:09Z</time>
      </trkpt>
      <trkpt lat="44.11748" lon="3.09896">
        <ele>522.40002441406</ele>
        <time>2010-10-24T04:35:16Z</time>
      </trkpt>
      <trkpt lat="44.11763" lon="3.09916">
        <ele>523.20001220703</ele>
        <time>2010-10-24T04:35:23Z</time>
      </trkpt>
      <trkpt lat="44.11781" lon="3.09928">
        <ele>523.59997558594</ele>
        <time>2010-10-24T04:35:30Z</time>
      </trkpt>
      <trkpt lat="44.118" lon="3.09939">
        <ele>524</ele>
        <time>2010-10-24T04:35:37Z</time>
      </trkpt>
      <trkpt lat="44.11818" lon="3.09951">
        <ele>524</ele>
        <time>2010-10-24T04:35:44Z</time>
      </trkpt>
      <trkpt lat="44.11835" lon="3.0996">
        <ele>524</ele>
        <time>2010-10-24T04:35:50Z</time>
      </trkpt>
      <trkpt lat="44.11851" lon="3.09972">
        <ele>524</ele>
        <time>2010-10-24T04:35:56Z</time>
      </trkpt>
      <trkpt lat="44.11866" lon="3.09986">
        <ele>524</ele>
        <time>2010-10-24T04:36:02Z</time>
      </trkpt>
      <trkpt lat="44.11882" lon="3.1">
        <ele>524</ele>
        <time>2010-10-24T04:36:08Z</time>
      </trkpt>
      <trkpt lat="44.11899" lon="3.10012">
        <ele>524</ele>
        <time>2010-10-24T04:36:14Z</time>
      </trkpt>
      <trkpt lat="44.11916" lon="3.10015">
        <ele>524</ele>
        <time>2010-10-24T04:36:20Z</time>
      </trkpt>
      <trkpt lat="44.11931" lon="3.09997">
        <ele>524</ele>
        <time>2010-10-24T04:36:26Z</time>
      </trkpt>
      <trkpt lat="44.11946" lon="3.09979">
        <ele>524</ele>
        <time>2010-10-24T04:36:32Z</time>
      </trkpt>
      <trkpt lat="44.11961" lon="3.09961">
        <ele>523.79998779297</ele>
        <time>2010-10-24T04:36:38Z</time>
      </trkpt>
      <trkpt lat="44.11979" lon="3.09949">
        <ele>523.59997558594</ele>
        <time>2010-10-24T04:36:44Z</time>
      </trkpt>
      <trkpt lat="44.11999" lon="3.09951">
        <ele>523.20001220703</ele>
        <time>2010-10-24T04:36:50Z</time>
      </trkpt>
      <trkpt lat="44.12017" lon="3.09961">
        <ele>523</ele>
        <time>2010-10-24T04:36:56Z</time>
      </trkpt>
      <trkpt lat="44.12034" lon="3.09975">
        <ele>522.59997558594</ele>
        <time>2010-10-24T04:37:02Z</time>
      </trkpt>
      <trkpt lat="44.12049" lon="3.09989">
        <ele>522.40002441406</ele>
        <time>2010-10-24T04:37:08Z</time>
      </trkpt>
      <trkpt lat="44.12065" lon="3.10005">
        <ele>522.20001220703</ele>
        <time>2010-10-24T04:37:14Z</time>
      </trkpt>
      <trkpt lat="44.1208" lon="3.10022">
        <ele>521.79998779297</ele>
        <time>2010-10-24T04:37:20Z</time>
      </trkpt>
      <trkpt lat="44.12094" lon="3.10041">
        <ele>521.59997558594</ele>
        <time>2010-10-24T04:37:26Z</time>
      </trkpt>
      <trkpt lat="44.12108" lon="3.1006">
        <ele>521.20001220703</ele>
        <time>2010-10-24T04:37:32Z</time>
      </trkpt>
      <trkpt lat="44.12122" lon="3.10077">
        <ele>520.79998779297</ele>
        <time>2010-10-24T04:37:38Z</time>
      </trkpt>
      <trkpt lat="44.12139" lon="3.10086">
        <ele>520.40002441406</ele>
        <time>2010-10-24T04:37:44Z</time>
      </trkpt>
      <trkpt lat="44.12156" lon="3.101">
        <ele>519.79998779297</ele>
        <time>2010-10-24T04:37:50Z</time>
      </trkpt>
      <trkpt lat="44.12174" lon="3.10107">
        <ele>519</ele>
        <time>2010-10-24T04:37:56Z</time>
      </trkpt>
      <trkpt lat="44.12183" lon="3.10111">
        <ele>518.59997558594</ele>
        <time>2010-10-24T04:37:59Z</time>
      </trkpt>
      <trkpt lat="44.12187" lon="3.10123">
        <ele>518.20001220703</ele>
        <time>2010-10-24T04:38:02Z</time>
      </trkpt>
      <trkpt lat="44.12185" lon="3.10151">
        <ele>517.20001220703</ele>
        <time>2010-10-24T04:38:08Z</time>
      </trkpt>
      <trkpt lat="44.12183" lon="3.10176">
        <ele>516.40002441406</ele>
        <time>2010-10-24T04:38:13Z</time>
      </trkpt>
      <trkpt lat="44.12174" lon="3.10194">
        <ele>515.59997558594</ele>
        <time>2010-10-24T04:38:18Z</time>
      </trkpt>
      <trkpt lat="44.12172" lon="3.10197">
        <ele>515.59997558594</ele>
        <time>2010-10-24T04:38:19Z</time>
      </trkpt>
      <trkpt lat="44.12162" lon="3.10219">
        <ele>514.79998779297</ele>
        <time>2010-10-24T04:38:25Z</time>
      </trkpt>
      <trkpt lat="44.12155" lon="3.10242">
        <ele>514.40002441406</ele>
        <time>2010-10-24T04:38:31Z</time>
      </trkpt>
      <trkpt lat="44.12151" lon="3.10269">
        <ele>514</ele>
        <time>2010-10-24T04:38:38Z</time>
      </trkpt>
      <trkpt lat="44.12153" lon="3.10296">
        <ele>513.59997558594</ele>
        <time>2010-10-24T04:38:45Z</time>
      </trkpt>
      <trkpt lat="44.12164" lon="3.10315">
        <ele>513.20001220703</ele>
        <time>2010-10-24T04:38:51Z</time>
      </trkpt>
      <trkpt lat="44.12179" lon="3.1033">
        <ele>512.79998779297</ele>
        <time>2010-10-24T04:38:57Z</time>
      </trkpt>
      <trkpt lat="44.12193" lon="3.10347">
        <ele>512.20001220703</ele>
        <time>2010-10-24T04:39:03Z</time>
      </trkpt>
      <trkpt lat="44.12205" lon="3.1037">
        <ele>511.60000610352</ele>
        <time>2010-10-24T04:39:10Z</time>
      </trkpt>
      <trkpt lat="44.12218" lon="3.10389">
        <ele>511</ele>
        <time>2010-10-24T04:39:16Z</time>
      </trkpt>
      <trkpt lat="44.12233" lon="3.10406">
        <ele>510.39999389648</ele>
        <time>2010-10-24T04:39:22Z</time>
      </trkpt>
      <trkpt lat="44.1225" lon="3.1042">
        <ele>509.79998779297</ele>
        <time>2010-10-24T04:39:28Z</time>
      </trkpt>
      <trkpt lat="44.12268" lon="3.10433">
        <ele>508.79998779297</ele>
        <time>2010-10-24T04:39:34Z</time>
      </trkpt>
      <trkpt lat="44.12286" lon="3.10443">
        <ele>507.79998779297</ele>
        <time>2010-10-24T04:39:40Z</time>
      </trkpt>
      <trkpt lat="44.12305" lon="3.10455">
        <ele>506.60000610352</ele>
        <time>2010-10-24T04:39:46Z</time>
      </trkpt>
      <trkpt lat="44.12321" lon="3.10471">
        <ele>505.60000610352</ele>
        <time>2010-10-24T04:39:52Z</time>
      </trkpt>
      <trkpt lat="44.12336" lon="3.10489">
        <ele>504.39999389648</ele>
        <time>2010-10-24T04:39:58Z</time>
      </trkpt>
      <trkpt lat="44.1235" lon="3.10503">
        <ele>503.39999389648</ele>
        <time>2010-10-24T04:40:03Z</time>
      </trkpt>
      <trkpt lat="44.12368" lon="3.10515">
        <ele>502.39999389648</ele>
        <time>2010-10-24T04:40:08Z</time>
      </trkpt>
      <trkpt lat="44.12385" lon="3.10525">
        <ele>501.20001220703</ele>
        <time>2010-10-24T04:40:13Z</time>
      </trkpt>
      <trkpt lat="44.12404" lon="3.10535">
        <ele>499.79998779297</ele>
        <time>2010-10-24T04:40:19Z</time>
      </trkpt>
      <trkpt lat="44.12423" lon="3.10543">
        <ele>498.39999389648</ele>
        <time>2010-10-24T04:40:25Z</time>
      </trkpt>
      <trkpt lat="44.12444" lon="3.10549">
        <ele>496.79998779297</ele>
        <time>2010-10-24T04:40:32Z</time>
      </trkpt>
      <trkpt lat="44.12465" lon="3.10548">
        <ele>495.39999389648</ele>
        <time>2010-10-24T04:40:41Z</time>
      </trkpt>
      <trkpt lat="44.12482" lon="3.10543">
        <ele>494.60000610352</ele>
        <time>2010-10-24T04:40:46Z</time>
      </trkpt>
      <trkpt lat="44.12502" lon="3.10536">
        <ele>493.79998779297</ele>
        <time>2010-10-24T04:40:53Z</time>
      </trkpt>
      <trkpt lat="44.1252" lon="3.10524">
        <ele>493</ele>
        <time>2010-10-24T04:41:01Z</time>
      </trkpt>
      <trkpt lat="44.12533" lon="3.10502">
        <ele>492.60000610352</ele>
        <time>2010-10-24T04:41:07Z</time>
      </trkpt>
      <trkpt lat="44.12542" lon="3.1048">
        <ele>492</ele>
        <time>2010-10-24T04:41:13Z</time>
      </trkpt>
      <trkpt lat="44.12552" lon="3.10457">
        <ele>491.60000610352</ele>
        <time>2010-10-24T04:41:19Z</time>
      </trkpt>
      <trkpt lat="44.12562" lon="3.10435">
        <ele>491.20001220703</ele>
        <time>2010-10-24T04:41:25Z</time>
      </trkpt>
      <trkpt lat="44.12575" lon="3.10417">
        <ele>490.79998779297</ele>
        <time>2010-10-24T04:41:31Z</time>
      </trkpt>
      <trkpt lat="44.12592" lon="3.10406">
        <ele>490.39999389648</ele>
        <time>2010-10-24T04:41:37Z</time>
      </trkpt>
      <trkpt lat="44.12611" lon="3.10406">
        <ele>489.79998779297</ele>
        <time>2010-10-24T04:41:43Z</time>
      </trkpt>
      <trkpt lat="44.12629" lon="3.10405">
        <ele>489.20001220703</ele>
        <time>2010-10-24T04:41:49Z</time>
      </trkpt>
      <trkpt lat="44.1265" lon="3.10406">
        <ele>488.39999389648</ele>
        <time>2010-10-24T04:41:56Z</time>
      </trkpt>
      <trkpt lat="44.12671" lon="3.10412">
        <ele>487.60000610352</ele>
        <time>2010-10-24T04:42:01Z</time>
      </trkpt>
      <trkpt lat="44.1269" lon="3.10417">
        <ele>486.39999389648</ele>
        <time>2010-10-24T04:42:07Z</time>
      </trkpt>
      <trkpt lat="44.1271" lon="3.10423">
        <ele>485.20001220703</ele>
        <time>2010-10-24T04:42:13Z</time>
      </trkpt>
      <trkpt lat="44.1272" lon="3.10445">
        <ele>483.79998779297</ele>
        <time>2010-10-24T04:42:18Z</time>
      </trkpt>
      <trkpt lat="44.12727" lon="3.1047">
        <ele>482.20001220703</ele>
        <time>2010-10-24T04:42:24Z</time>
      </trkpt>
      <trkpt lat="44.12741" lon="3.10488">
        <ele>480.39999389648</ele>
        <time>2010-10-24T04:42:30Z</time>
      </trkpt>
      <trkpt lat="44.12752" lon="3.10492">
        <ele>479.20001220703</ele>
        <time>2010-10-24T04:42:34Z</time>
      </trkpt>
      <trkpt lat="44.12758" lon="3.10486">
        <ele>478.60000610352</ele>
        <time>2010-10-24T04:42:36Z</time>
      </trkpt>
      <trkpt lat="44.12755" lon="3.1046">
        <ele>476.60000610352</ele>
        <time>2010-10-24T04:42:42Z</time>
      </trkpt>
      <trkpt lat="44.12748" lon="3.10434">
        <ele>474.79998779297</ele>
        <time>2010-10-24T04:42:49Z</time>
      </trkpt>
      <trkpt lat="44.12747" lon="3.10405">
        <ele>472.79998779297</ele>
        <time>2010-10-24T04:42:54Z</time>
      </trkpt>
      <trkpt lat="44.12738" lon="3.1038">
        <ele>470.79998779297</ele>
        <time>2010-10-24T04:43:00Z</time>
      </trkpt>
      <trkpt lat="44.12727" lon="3.10358">
        <ele>469</ele>
        <time>2010-10-24T04:43:06Z</time>
      </trkpt>
      <trkpt lat="44.12713" lon="3.10339">
        <ele>467.20001220703</ele>
        <time>2010-10-24T04:43:12Z</time>
      </trkpt>
      <trkpt lat="44.12724" lon="3.10334">
        <ele>465.39999389648</ele>
        <time>2010-10-24T04:43:18Z</time>
      </trkpt>
      <trkpt lat="44.1273" lon="3.10345">
        <ele>464.39999389648</ele>
        <time>2010-10-24T04:43:21Z</time>
      </trkpt>
      <trkpt lat="44.12736" lon="3.10355">
        <ele>463.60000610352</ele>
        <time>2010-10-24T04:43:25Z</time>
      </trkpt>
      <trkpt lat="44.12747" lon="3.10376">
        <ele>461.79998779297</ele>
        <time>2010-10-24T04:43:30Z</time>
      </trkpt>
      <trkpt lat="44.12766" lon="3.10381">
        <ele>460</ele>
        <time>2010-10-24T04:43:36Z</time>
      </trkpt>
      <trkpt lat="44.12778" lon="3.10363">
        <ele>458.39999389648</ele>
        <time>2010-10-24T04:43:41Z</time>
      </trkpt>
      <trkpt lat="44.1279" lon="3.10342">
        <ele>457</ele>
        <time>2010-10-24T04:43:47Z</time>
      </trkpt>
      <trkpt lat="44.12805" lon="3.10324">
        <ele>455.20001220703</ele>
        <time>2010-10-24T04:43:52Z</time>
      </trkpt>
      <trkpt lat="44.12822" lon="3.10309">
        <ele>453.60000610352</ele>
        <time>2010-10-24T04:43:59Z</time>
      </trkpt>
      <trkpt lat="44.1284" lon="3.10298">
        <ele>452</ele>
        <time>2010-10-24T04:44:06Z</time>
      </trkpt>
      <trkpt lat="44.12853" lon="3.10279">
        <ele>450.60000610352</ele>
        <time>2010-10-24T04:44:12Z</time>
      </trkpt>
      <trkpt lat="44.12867" lon="3.10258">
        <ele>449.20001220703</ele>
        <time>2010-10-24T04:44:19Z</time>
      </trkpt>
      <trkpt lat="44.12885" lon="3.10247">
        <ele>447.79998779297</ele>
        <time>2010-10-24T04:44:25Z</time>
      </trkpt>
      <trkpt lat="44.12905" lon="3.1024">
        <ele>446.20001220703</ele>
        <time>2010-10-24T04:44:31Z</time>
      </trkpt>
      <trkpt lat="44.12923" lon="3.10241">
        <ele>444.60000610352</ele>
        <time>2010-10-24T04:44:37Z</time>
      </trkpt>
      <trkpt lat="44.12943" lon="3.10245">
        <ele>443</ele>
        <time>2010-10-24T04:44:43Z</time>
      </trkpt>
      <trkpt lat="44.12962" lon="3.10245">
        <ele>441.39999389648</ele>
        <time>2010-10-24T04:44:49Z</time>
      </trkpt>
      <trkpt lat="44.12967" lon="3.10239">
        <ele>440.79998779297</ele>
        <time>2010-10-24T04:44:51Z</time>
      </trkpt>
      <trkpt lat="44.12961" lon="3.10226">
        <ele>439.60000610352</ele>
        <time>2010-10-24T04:44:55Z</time>
      </trkpt>
      <trkpt lat="44.12954" lon="3.10221">
        <ele>438.79998779297</ele>
        <time>2010-10-24T04:44:57Z</time>
      </trkpt>
      <trkpt lat="44.12944" lon="3.10214">
        <ele>438</ele>
        <time>2010-10-24T04:45:00Z</time>
      </trkpt>
      <trkpt lat="44.12931" lon="3.10196">
        <ele>436.39999389648</ele>
        <time>2010-10-24T04:45:05Z</time>
      </trkpt>
      <trkpt lat="44.12918" lon="3.10173">
        <ele>434.79998779297</ele>
        <time>2010-10-24T04:45:11Z</time>
      </trkpt>
      <trkpt lat="44.12906" lon="3.10149">
        <ele>433</ele>
        <time>2010-10-24T04:45:17Z</time>
      </trkpt>
      <trkpt lat="44.12894" lon="3.10127">
        <ele>431.39999389648</ele>
        <time>2010-10-24T04:45:23Z</time>
      </trkpt>
      <trkpt lat="44.12896" lon="3.101">
        <ele>429.79998779297</ele>
        <time>2010-10-24T04:45:29Z</time>
      </trkpt>
      <trkpt lat="44.12915" lon="3.10085">
        <ele>428</ele>
        <time>2010-10-24T04:45:35Z</time>
      </trkpt>
      <trkpt lat="44.12931" lon="3.10075">
        <ele>426.39999389648</ele>
        <time>2010-10-24T04:45:40Z</time>
      </trkpt>
      <trkpt lat="44.12946" lon="3.10057">
        <ele>424.60000610352</ele>
        <time>2010-10-24T04:45:46Z</time>
      </trkpt>
      <trkpt lat="44.12945" lon="3.10034">
        <ele>423</ele>
        <time>2010-10-24T04:45:51Z</time>
      </trkpt>
      <trkpt lat="44.12926" lon="3.10022">
        <ele>421</ele>
        <time>2010-10-24T04:45:57Z</time>
      </trkpt>
      <trkpt lat="44.12907" lon="3.10027">
        <ele>419.20001220703</ele>
        <time>2010-10-24T04:46:03Z</time>
      </trkpt>
      <trkpt lat="44.12888" lon="3.10033">
        <ele>417.20001220703</ele>
        <time>2010-10-24T04:46:09Z</time>
      </trkpt>
      <trkpt lat="44.12869" lon="3.10042">
        <ele>415.39999389648</ele>
        <time>2010-10-24T04:46:15Z</time>
      </trkpt>
      <trkpt lat="44.12849" lon="3.10044">
        <ele>413.60000610352</ele>
        <time>2010-10-24T04:46:21Z</time>
      </trkpt>
      <trkpt lat="44.12829" lon="3.10049">
        <ele>411.79998779297</ele>
        <time>2010-10-24T04:46:27Z</time>
      </trkpt>
      <trkpt lat="44.12809" lon="3.10055">
        <ele>410</ele>
        <time>2010-10-24T04:46:33Z</time>
      </trkpt>
      <trkpt lat="44.1279" lon="3.10063">
        <ele>408.20001220703</ele>
        <time>2010-10-24T04:46:39Z</time>
      </trkpt>
      <trkpt lat="44.12787" lon="3.10064">
        <ele>407.79998779297</ele>
        <time>2010-10-24T04:46:40Z</time>
      </trkpt>
      <trkpt lat="44.12783" lon="3.10053">
        <ele>405.79998779297</ele>
        <time>2010-10-24T04:46:46Z</time>
      </trkpt>
      <trkpt lat="44.12789" lon="3.1005">
        <ele>405.20001220703</ele>
        <time>2010-10-24T04:46:48Z</time>
      </trkpt>
      <trkpt lat="44.12802" lon="3.10045">
        <ele>403.79998779297</ele>
        <time>2010-10-24T04:46:52Z</time>
      </trkpt>
      <trkpt lat="44.12821" lon="3.1004">
        <ele>402</ele>
        <time>2010-10-24T04:46:58Z</time>
      </trkpt>
      <trkpt lat="44.1284" lon="3.10036">
        <ele>400</ele>
        <time>2010-10-24T04:47:04Z</time>
      </trkpt>
      <trkpt lat="44.12859" lon="3.10027">
        <ele>398.39999389648</ele>
        <time>2010-10-24T04:47:10Z</time>
      </trkpt>
      <trkpt lat="44.12877" lon="3.10017">
        <ele>396.79998779297</ele>
        <time>2010-10-24T04:47:16Z</time>
      </trkpt>
      <trkpt lat="44.12897" lon="3.10011">
        <ele>395.20001220703</ele>
        <time>2010-10-24T04:47:23Z</time>
      </trkpt>
      <trkpt lat="44.12915" lon="3.1">
        <ele>394</ele>
        <time>2010-10-24T04:47:29Z</time>
      </trkpt>
      <trkpt lat="44.12936" lon="3.09997">
        <ele>392.79998779297</ele>
        <time>2010-10-24T04:47:36Z</time>
      </trkpt>
      <trkpt lat="44.12953" lon="3.09989">
        <ele>391.60000610352</ele>
        <time>2010-10-24T04:47:42Z</time>
      </trkpt>
      <trkpt lat="44.12972" lon="3.09986">
        <ele>390.60000610352</ele>
        <time>2010-10-24T04:47:48Z</time>
      </trkpt>
      <trkpt lat="44.12993" lon="3.09984">
        <ele>389.79998779297</ele>
        <time>2010-10-24T04:47:54Z</time>
      </trkpt>
      <trkpt lat="44.13013" lon="3.09985">
        <ele>389</ele>
        <time>2010-10-24T04:48:00Z</time>
      </trkpt>
      <trkpt lat="44.13034" lon="3.09985">
        <ele>388</ele>
        <time>2010-10-24T04:48:07Z</time>
      </trkpt>
      <trkpt lat="44.13052" lon="3.09985">
        <ele>387.39999389648</ele>
        <time>2010-10-24T04:48:13Z</time>
      </trkpt>
      <trkpt lat="44.13073" lon="3.09986">
        <ele>386.60000610352</ele>
        <time>2010-10-24T04:48:19Z</time>
      </trkpt>
      <trkpt lat="44.13091" lon="3.09988">
        <ele>386</ele>
        <time>2010-10-24T04:48:25Z</time>
      </trkpt>
      <trkpt lat="44.13111" lon="3.0999">
        <ele>385.39999389648</ele>
        <time>2010-10-24T04:48:31Z</time>
      </trkpt>
      <trkpt lat="44.1313" lon="3.09992">
        <ele>385</ele>
        <time>2010-10-24T04:48:37Z</time>
      </trkpt>
      <trkpt lat="44.13149" lon="3.10001">
        <ele>384.39999389648</ele>
        <time>2010-10-24T04:48:43Z</time>
      </trkpt>
      <trkpt lat="44.13166" lon="3.1001">
        <ele>384</ele>
        <time>2010-10-24T04:48:49Z</time>
      </trkpt>
      <trkpt lat="44.13184" lon="3.10017">
        <ele>383.60000610352</ele>
        <time>2010-10-24T04:48:55Z</time>
      </trkpt>
      <trkpt lat="44.13202" lon="3.10028">
        <ele>383.39999389648</ele>
        <time>2010-10-24T04:49:02Z</time>
      </trkpt>
      <trkpt lat="44.13221" lon="3.10039">
        <ele>383.20001220703</ele>
        <time>2010-10-24T04:49:09Z</time>
      </trkpt>
      <trkpt lat="44.13238" lon="3.10054">
        <ele>383</ele>
        <time>2010-10-24T04:49:16Z</time>
      </trkpt>
      <trkpt lat="44.13253" lon="3.10071">
        <ele>382.79998779297</ele>
        <time>2010-10-24T04:49:23Z</time>
      </trkpt>
      <trkpt lat="44.13269" lon="3.10088">
        <ele>382.79998779297</ele>
        <time>2010-10-24T04:49:30Z</time>
      </trkpt>
      <trkpt lat="44.13283" lon="3.10103">
        <ele>382.79998779297</ele>
        <time>2010-10-24T04:49:37Z</time>
      </trkpt>
      <trkpt lat="44.13298" lon="3.10119">
        <ele>383.20001220703</ele>
        <time>2010-10-24T04:49:44Z</time>
      </trkpt>
      <trkpt lat="44.13314" lon="3.10133">
        <ele>383.79998779297</ele>
        <time>2010-10-24T04:49:51Z</time>
      </trkpt>
      <trkpt lat="44.1333" lon="3.10148">
        <ele>384.60000610352</ele>
        <time>2010-10-24T04:49:59Z</time>
      </trkpt>
      <trkpt lat="44.13346" lon="3.10161">
        <ele>385.39999389648</ele>
        <time>2010-10-24T04:50:06Z</time>
      </trkpt>
      <trkpt lat="44.13361" lon="3.10174">
        <ele>386.39999389648</ele>
        <time>2010-10-24T04:50:13Z</time>
      </trkpt>
      <trkpt lat="44.13377" lon="3.10187">
        <ele>387.39999389648</ele>
        <time>2010-10-24T04:50:20Z</time>
      </trkpt>
      <trkpt lat="44.13392" lon="3.10204">
        <ele>388.79998779297</ele>
        <time>2010-10-24T04:50:28Z</time>
      </trkpt>
      <trkpt lat="44.13408" lon="3.10222">
        <ele>390</ele>
        <time>2010-10-24T04:50:36Z</time>
      </trkpt>
      <trkpt lat="44.1342" lon="3.10241">
        <ele>391.60000610352</ele>
        <time>2010-10-24T04:50:44Z</time>
      </trkpt>
      <trkpt lat="44.13435" lon="3.1026">
        <ele>393.39999389648</ele>
        <time>2010-10-24T04:50:52Z</time>
      </trkpt>
      <trkpt lat="44.13452" lon="3.10275">
        <ele>395.20001220703</ele>
        <time>2010-10-24T04:51:00Z</time>
      </trkpt>
      <trkpt lat="44.1347" lon="3.10281">
        <ele>397</ele>
        <time>2010-10-24T04:51:07Z</time>
      </trkpt>
      <trkpt lat="44.13488" lon="3.10288">
        <ele>399</ele>
        <time>2010-10-24T04:51:14Z</time>
      </trkpt>
      <trkpt lat="44.13507" lon="3.10296">
        <ele>400.60000610352</ele>
        <time>2010-10-24T04:51:21Z</time>
      </trkpt>
      <trkpt lat="44.13525" lon="3.103">
        <ele>402.20001220703</ele>
        <time>2010-10-24T04:51:28Z</time>
      </trkpt>
      <trkpt lat="44.13544" lon="3.10306">
        <ele>403.39999389648</ele>
        <time>2010-10-24T04:51:35Z</time>
      </trkpt>
      <trkpt lat="44.13564" lon="3.10314">
        <ele>405</ele>
        <time>2010-10-24T04:51:43Z</time>
      </trkpt>
      <trkpt lat="44.13583" lon="3.10322">
        <ele>406.60000610352</ele>
        <time>2010-10-24T04:51:51Z</time>
      </trkpt>
      <trkpt lat="44.13603" lon="3.10332">
        <ele>408.20001220703</ele>
        <time>2010-10-24T04:51:59Z</time>
      </trkpt>
      <trkpt lat="44.13621" lon="3.10343">
        <ele>409.60000610352</ele>
        <time>2010-10-24T04:52:07Z</time>
      </trkpt>
      <trkpt lat="44.13638" lon="3.10352">
        <ele>411.20001220703</ele>
        <time>2010-10-24T04:52:14Z</time>
      </trkpt>
      <trkpt lat="44.13657" lon="3.1036">
        <ele>413</ele>
        <time>2010-10-24T04:52:22Z</time>
      </trkpt>
      <trkpt lat="44.13675" lon="3.10365">
        <ele>414.79998779297</ele>
        <time>2010-10-24T04:52:29Z</time>
      </trkpt>
      <trkpt lat="44.13693" lon="3.10372">
        <ele>416.39999389648</ele>
        <time>2010-10-24T04:52:36Z</time>
      </trkpt>
      <trkpt lat="44.13712" lon="3.10377">
        <ele>418.20001220703</ele>
        <time>2010-10-24T04:52:43Z</time>
      </trkpt>
      <trkpt lat="44.1373" lon="3.10384">
        <ele>419.79998779297</ele>
        <time>2010-10-24T04:52:50Z</time>
      </trkpt>
      <trkpt lat="44.13749" lon="3.10391">
        <ele>421.20001220703</ele>
        <time>2010-10-24T04:52:57Z</time>
      </trkpt>
      <trkpt lat="44.13768" lon="3.10399">
        <ele>422.39999389648</ele>
        <time>2010-10-24T04:53:04Z</time>
      </trkpt>
      <trkpt lat="44.13787" lon="3.10409">
        <ele>424.20001220703</ele>
        <time>2010-10-24T04:53:12Z</time>
      </trkpt>
      <trkpt lat="44.13803" lon="3.10418">
        <ele>426</ele>
        <time>2010-10-24T04:53:19Z</time>
      </trkpt>
      <trkpt lat="44.13822" lon="3.10429">
        <ele>428</ele>
        <time>2010-10-24T04:53:27Z</time>
      </trkpt>
      <trkpt lat="44.13839" lon="3.10439">
        <ele>429.39999389648</ele>
        <time>2010-10-24T04:53:34Z</time>
      </trkpt>
      <trkpt lat="44.13857" lon="3.10448">
        <ele>430.39999389648</ele>
        <time>2010-10-24T04:53:41Z</time>
      </trkpt>
      <trkpt lat="44.13874" lon="3.10455">
        <ele>431</ele>
        <time>2010-10-24T04:53:48Z</time>
      </trkpt>
      <trkpt lat="44.13894" lon="3.10461">
        <ele>432.20001220703</ele>
        <time>2010-10-24T04:53:56Z</time>
      </trkpt>
      <trkpt lat="44.13911" lon="3.10468">
        <ele>433</ele>
        <time>2010-10-24T04:54:03Z</time>
      </trkpt>
      <trkpt lat="44.13929" lon="3.10472">
        <ele>433.79998779297</ele>
        <time>2010-10-24T04:54:10Z</time>
      </trkpt>
      <trkpt lat="44.13948" lon="3.10474">
        <ele>434.39999389648</ele>
        <time>2010-10-24T04:54:17Z</time>
      </trkpt>
      <trkpt lat="44.13966" lon="3.10482">
        <ele>435.20001220703</ele>
        <time>2010-10-24T04:54:24Z</time>
      </trkpt>
      <trkpt lat="44.13984" lon="3.10492">
        <ele>436.39999389648</ele>
        <time>2010-10-24T04:54:32Z</time>
      </trkpt>
      <trkpt lat="44.14004" lon="3.10499">
        <ele>437.79998779297</ele>
        <time>2010-10-24T04:54:40Z</time>
      </trkpt>
      <trkpt lat="44.14022" lon="3.10507">
        <ele>438.79998779297</ele>
        <time>2010-10-24T04:54:47Z</time>
      </trkpt>
      <trkpt lat="44.14038" lon="3.10518">
        <ele>440</ele>
        <time>2010-10-24T04:54:54Z</time>
      </trkpt>
      <trkpt lat="44.14052" lon="3.10534">
        <ele>441</ele>
        <time>2010-10-24T04:55:01Z</time>
      </trkpt>
      <trkpt lat="44.1406" lon="3.10556">
        <ele>442</ele>
        <time>2010-10-24T04:55:08Z</time>
      </trkpt>
      <trkpt lat="44.14062" lon="3.10581">
        <ele>443.20001220703</ele>
        <time>2010-10-24T04:55:15Z</time>
      </trkpt>
      <trkpt lat="44.14058" lon="3.10605">
        <ele>445</ele>
        <time>2010-10-24T04:55:22Z</time>
      </trkpt>
      <trkpt lat="44.14049" lon="3.10627">
        <ele>446.79998779297</ele>
        <time>2010-10-24T04:55:29Z</time>
      </trkpt>
      <trkpt lat="44.14037" lon="3.10646">
        <ele>448.60000610352</ele>
        <time>2010-10-24T04:55:36Z</time>
      </trkpt>
      <trkpt lat="44.14021" lon="3.10662">
        <ele>450.60000610352</ele>
        <time>2010-10-24T04:55:44Z</time>
      </trkpt>
      <trkpt lat="44.14004" lon="3.10675">
        <ele>452.39999389648</ele>
        <time>2010-10-24T04:55:52Z</time>
      </trkpt>
      <trkpt lat="44.13984" lon="3.10676">
        <ele>454.39999389648</ele>
        <time>2010-10-24T04:56:01Z</time>
      </trkpt>
      <trkpt lat="44.13966" lon="3.10663">
        <ele>456.60000610352</ele>
        <time>2010-10-24T04:56:10Z</time>
      </trkpt>
      <trkpt lat="44.1396" lon="3.10651">
        <ele>458</ele>
        <time>2010-10-24T04:56:15Z</time>
      </trkpt>
      <trkpt lat="44.1396" lon="3.10642">
        <ele>458.79998779297</ele>
        <time>2010-10-24T04:56:18Z</time>
      </trkpt>
      <trkpt lat="44.13961" lon="3.10615">
        <ele>461</ele>
        <time>2010-10-24T04:56:26Z</time>
      </trkpt>
      <trkpt lat="44.13961" lon="3.10596">
        <ele>463</ele>
        <time>2010-10-24T04:56:33Z</time>
      </trkpt>
      <trkpt lat="44.13958" lon="3.10592">
        <ele>463.79998779297</ele>
        <time>2010-10-24T04:56:35Z</time>
      </trkpt>
      <trkpt lat="44.13945" lon="3.10592">
        <ele>465.79998779297</ele>
        <time>2010-10-24T04:56:41Z</time>
      </trkpt>
      <trkpt lat="44.13938" lon="3.10592">
        <ele>466.79998779297</ele>
        <time>2010-10-24T04:56:44Z</time>
      </trkpt>
      <trkpt lat="44.1392" lon="3.10593">
        <ele>469.20001220703</ele>
        <time>2010-10-24T04:56:51Z</time>
      </trkpt>
      <trkpt lat="44.13901" lon="3.10599">
        <ele>471.20001220703</ele>
        <time>2010-10-24T04:56:58Z</time>
      </trkpt>
      <trkpt lat="44.13887" lon="3.10615">
        <ele>472.39999389648</ele>
        <time>2010-10-24T04:57:04Z</time>
      </trkpt>
      <trkpt lat="44.13874" lon="3.10633">
        <ele>473.79998779297</ele>
        <time>2010-10-24T04:57:10Z</time>
      </trkpt>
      <trkpt lat="44.13861" lon="3.10655">
        <ele>474.79998779297</ele>
        <time>2010-10-24T04:57:17Z</time>
      </trkpt>
      <trkpt lat="44.1385" lon="3.10678">
        <ele>475.60000610352</ele>
        <time>2010-10-24T04:57:24Z</time>
      </trkpt>
      <trkpt lat="44.1384" lon="3.10699">
        <ele>476.60000610352</ele>
        <time>2010-10-24T04:57:31Z</time>
      </trkpt>
      <trkpt lat="44.13832" lon="3.10724">
        <ele>478</ele>
        <time>2010-10-24T04:57:40Z</time>
      </trkpt>
      <trkpt lat="44.13825" lon="3.10749">
        <ele>480.60000610352</ele>
        <time>2010-10-24T04:57:50Z</time>
      </trkpt>
      <trkpt lat="44.13822" lon="3.10774">
        <ele>483.60000610352</ele>
        <time>2010-10-24T04:58:03Z</time>
      </trkpt>
      <trkpt lat="44.13821" lon="3.10799">
        <ele>487</ele>
        <time>2010-10-24T04:58:18Z</time>
      </trkpt>
      <trkpt lat="44.13828" lon="3.10823">
        <ele>489.79998779297</ele>
        <time>2010-10-24T04:58:31Z</time>
      </trkpt>
      <trkpt lat="44.13834" lon="3.10848">
        <ele>492.39999389648</ele>
        <time>2010-10-24T04:58:40Z</time>
      </trkpt>
      <trkpt lat="44.13849" lon="3.10867">
        <ele>494.60000610352</ele>
        <time>2010-10-24T04:58:48Z</time>
      </trkpt>
      <trkpt lat="44.1386" lon="3.10887">
        <ele>496.39999389648</ele>
        <time>2010-10-24T04:58:55Z</time>
      </trkpt>
      <trkpt lat="44.13868" lon="3.10911">
        <ele>498.79998779297</ele>
        <time>2010-10-24T04:59:04Z</time>
      </trkpt>
      <trkpt lat="44.13876" lon="3.10935">
        <ele>501.60000610352</ele>
        <time>2010-10-24T04:59:13Z</time>
      </trkpt>
      <trkpt lat="44.13887" lon="3.10957">
        <ele>504</ele>
        <time>2010-10-24T04:59:21Z</time>
      </trkpt>
      <trkpt lat="44.13898" lon="3.10977">
        <ele>505.79998779297</ele>
        <time>2010-10-24T04:59:28Z</time>
      </trkpt>
      <trkpt lat="44.13905" lon="3.11004">
        <ele>508.20001220703</ele>
        <time>2010-10-24T04:59:37Z</time>
      </trkpt>
      <trkpt lat="44.13907" lon="3.11029">
        <ele>511</ele>
        <time>2010-10-24T04:59:46Z</time>
      </trkpt>
      <trkpt lat="44.13905" lon="3.11048">
        <ele>513.79998779297</ele>
        <time>2010-10-24T04:59:57Z</time>
      </trkpt>
      <trkpt lat="44.13906" lon="3.11055">
        <ele>514.79998779297</ele>
        <time>2010-10-24T05:00:01Z</time>
      </trkpt>
      <trkpt lat="44.13905" lon="3.11057">
        <ele>515.20001220703</ele>
        <time>2010-10-24T05:00:03Z</time>
      </trkpt>
      <trkpt lat="44.13906" lon="3.11074">
        <ele>517</ele>
        <time>2010-10-24T05:00:15Z</time>
      </trkpt>
      <trkpt lat="44.13907" lon="3.1108">
        <ele>517.59997558594</ele>
        <time>2010-10-24T05:00:19Z</time>
      </trkpt>
      <trkpt lat="44.13908" lon="3.1108">
        <ele>518</ele>
        <time>2010-10-24T05:00:20Z</time>
      </trkpt>
      <trkpt lat="44.13914" lon="3.11089">
        <ele>519.79998779297</ele>
        <time>2010-10-24T05:00:27Z</time>
      </trkpt>
      <trkpt lat="44.13917" lon="3.11094">
        <ele>521.79998779297</ele>
        <time>2010-10-24T05:00:31Z</time>
      </trkpt>
      <trkpt lat="44.13922" lon="3.11103">
        <ele>524.79998779297</ele>
        <time>2010-10-24T05:00:38Z</time>
      </trkpt>
      <trkpt lat="44.13923" lon="3.11108">
        <ele>525.59997558594</ele>
        <time>2010-10-24T05:00:41Z</time>
      </trkpt>
      <trkpt lat="44.13925" lon="3.11112">
        <ele>526.79998779297</ele>
        <time>2010-10-24T05:00:44Z</time>
      </trkpt>
      <trkpt lat="44.13929" lon="3.11119">
        <ele>529</ele>
        <time>2010-10-24T05:00:50Z</time>
      </trkpt>
      <trkpt lat="44.13933" lon="3.11125">
        <ele>530.40002441406</ele>
        <time>2010-10-24T05:00:54Z</time>
      </trkpt>
      <trkpt lat="44.13943" lon="3.11145">
        <ele>535</ele>
        <time>2010-10-24T05:01:09Z</time>
      </trkpt>
      <trkpt lat="44.1395" lon="3.11167">
        <ele>537.79998779297</ele>
        <time>2010-10-24T05:01:24Z</time>
      </trkpt>
      <trkpt lat="44.13951" lon="3.1117">
        <ele>538</ele>
        <time>2010-10-24T05:01:26Z</time>
      </trkpt>
      <trkpt lat="44.13951" lon="3.11173">
        <ele>538.40002441406</ele>
        <time>2010-10-24T05:01:28Z</time>
      </trkpt>
      <trkpt lat="44.1395" lon="3.11177">
        <ele>539</ele>
        <time>2010-10-24T05:01:32Z</time>
      </trkpt>
      <trkpt lat="44.13948" lon="3.11181">
        <ele>540.20001220703</ele>
        <time>2010-10-24T05:01:36Z</time>
      </trkpt>
      <trkpt lat="44.13951" lon="3.11196">
        <ele>541.59997558594</ele>
        <time>2010-10-24T05:01:44Z</time>
      </trkpt>
      <trkpt lat="44.13951" lon="3.11198">
        <ele>541.59997558594</ele>
        <time>2010-10-24T05:01:45Z</time>
      </trkpt>
      <trkpt lat="44.13952" lon="3.11201">
        <ele>542</ele>
        <time>2010-10-24T05:01:47Z</time>
      </trkpt>
      <trkpt lat="44.13953" lon="3.11208">
        <ele>543</ele>
        <time>2010-10-24T05:01:51Z</time>
      </trkpt>
      <trkpt lat="44.13945" lon="3.11203">
        <ele>544.40002441406</ele>
        <time>2010-10-24T05:01:58Z</time>
      </trkpt>
      <trkpt lat="44.13942" lon="3.112">
        <ele>545</ele>
        <time>2010-10-24T05:02:00Z</time>
      </trkpt>
      <trkpt lat="44.13929" lon="3.11189">
        <ele>548.79998779297</ele>
        <time>2010-10-24T05:02:12Z</time>
      </trkpt>
      <trkpt lat="44.13929" lon="3.11189">
        <ele>549.20001220703</ele>
        <time>2010-10-24T05:02:13Z</time>
      </trkpt>
      <trkpt lat="44.13917" lon="3.11184">
        <ele>551.79998779297</ele>
        <time>2010-10-24T05:02:26Z</time>
      </trkpt>
      <trkpt lat="44.13913" lon="3.1118">
        <ele>552.79998779297</ele>
        <time>2010-10-24T05:02:30Z</time>
      </trkpt>
      <trkpt lat="44.13903" lon="3.11175">
        <ele>556</ele>
        <time>2010-10-24T05:02:40Z</time>
      </trkpt>
      <trkpt lat="44.13896" lon="3.11173">
        <ele>557.79998779297</ele>
        <time>2010-10-24T05:02:45Z</time>
      </trkpt>
      <trkpt lat="44.13893" lon="3.11172">
        <ele>559</ele>
        <time>2010-10-24T05:02:49Z</time>
      </trkpt>
      <trkpt lat="44.13892" lon="3.11172">
        <ele>559.40002441406</ele>
        <time>2010-10-24T05:02:50Z</time>
      </trkpt>
      <trkpt lat="44.13887" lon="3.11169">
        <ele>561</ele>
        <time>2010-10-24T05:02:55Z</time>
      </trkpt>
      <trkpt lat="44.13878" lon="3.11164">
        <ele>562.59997558594</ele>
        <time>2010-10-24T05:03:02Z</time>
      </trkpt>
      <trkpt lat="44.13868" lon="3.11159">
        <ele>564.79998779297</ele>
        <time>2010-10-24T05:03:11Z</time>
      </trkpt>
      <trkpt lat="44.13866" lon="3.11159">
        <ele>565</ele>
        <time>2010-10-24T05:03:13Z</time>
      </trkpt>
      <trkpt lat="44.13861" lon="3.11152">
        <ele>566.79998779297</ele>
        <time>2010-10-24T05:03:18Z</time>
      </trkpt>
      <trkpt lat="44.13858" lon="3.11148">
        <ele>568.20001220703</ele>
        <time>2010-10-24T05:03:22Z</time>
      </trkpt>
      <trkpt lat="44.13844" lon="3.11143">
        <ele>574</ele>
        <time>2010-10-24T05:03:40Z</time>
      </trkpt>
      <trkpt lat="44.13831" lon="3.11137">
        <ele>579</ele>
        <time>2010-10-24T05:03:56Z</time>
      </trkpt>
      <trkpt lat="44.13827" lon="3.11135">
        <ele>580.59997558594</ele>
        <time>2010-10-24T05:04:00Z</time>
      </trkpt>
      <trkpt lat="44.1382" lon="3.11131">
        <ele>584.20001220703</ele>
        <time>2010-10-24T05:04:09Z</time>
      </trkpt>
      <trkpt lat="44.13815" lon="3.11131">
        <ele>586</ele>
        <time>2010-10-24T05:04:14Z</time>
      </trkpt>
      <trkpt lat="44.13814" lon="3.1113">
        <ele>586.40002441406</ele>
        <time>2010-10-24T05:04:15Z</time>
      </trkpt>
      <trkpt lat="44.13811" lon="3.11126">
        <ele>587.59997558594</ele>
        <time>2010-10-24T05:04:18Z</time>
      </trkpt>
      <trkpt lat="44.13807" lon="3.11123">
        <ele>589.20001220703</ele>
        <time>2010-10-24T05:04:22Z</time>
      </trkpt>
      <trkpt lat="44.13803" lon="3.11122">
        <ele>590.40002441406</ele>
        <time>2010-10-24T05:04:26Z</time>
      </trkpt>
      <trkpt lat="44.13802" lon="3.11121">
        <ele>590.79998779297</ele>
        <time>2010-10-24T05:04:27Z</time>
      </trkpt>
      <trkpt lat="44.13794" lon="3.1112">
        <ele>593</ele>
        <time>2010-10-24T05:04:35Z</time>
      </trkpt>
      <trkpt lat="44.13792" lon="3.11118">
        <ele>593.79998779297</ele>
        <time>2010-10-24T05:04:38Z</time>
      </trkpt>
      <trkpt lat="44.13791" lon="3.11118">
        <ele>594.59997558594</ele>
        <time>2010-10-24T05:04:40Z</time>
      </trkpt>
      <trkpt lat="44.13786" lon="3.11113">
        <ele>596.79998779297</ele>
        <time>2010-10-24T05:04:46Z</time>
      </trkpt>
      <trkpt lat="44.13779" lon="3.11106">
        <ele>599.40002441406</ele>
        <time>2010-10-24T05:04:54Z</time>
      </trkpt>
      <trkpt lat="44.13769" lon="3.11099">
        <ele>602.79998779297</ele>
        <time>2010-10-24T05:05:04Z</time>
      </trkpt>
      <trkpt lat="44.13761" lon="3.11097">
        <ele>604.59997558594</ele>
        <time>2010-10-24T05:05:10Z</time>
      </trkpt>
      <trkpt lat="44.1375" lon="3.11095">
        <ele>607.59997558594</ele>
        <time>2010-10-24T05:05:21Z</time>
      </trkpt>
      <trkpt lat="44.13745" lon="3.11096">
        <ele>608.40002441406</ele>
        <time>2010-10-24T05:05:25Z</time>
      </trkpt>
      <trkpt lat="44.13744" lon="3.11096">
        <ele>608.59997558594</ele>
        <time>2010-10-24T05:05:26Z</time>
      </trkpt>
      <trkpt lat="44.13742" lon="3.11097">
        <ele>608.79998779297</ele>
        <time>2010-10-24T05:05:27Z</time>
      </trkpt>
      <trkpt lat="44.13737" lon="3.11098">
        <ele>609.59997558594</ele>
        <time>2010-10-24T05:05:32Z</time>
      </trkpt>
      <trkpt lat="44.1373" lon="3.111">
        <ele>611</ele>
        <time>2010-10-24T05:05:40Z</time>
      </trkpt>
      <trkpt lat="44.13725" lon="3.11102">
        <ele>612.20001220703</ele>
        <time>2010-10-24T05:05:45Z</time>
      </trkpt>
      <trkpt lat="44.1372" lon="3.11103">
        <ele>613.79998779297</ele>
        <time>2010-10-24T05:05:50Z</time>
      </trkpt>
      <trkpt lat="44.13716" lon="3.11104">
        <ele>615</ele>
        <time>2010-10-24T05:05:53Z</time>
      </trkpt>
      <trkpt lat="44.13713" lon="3.11105">
        <ele>616.59997558594</ele>
        <time>2010-10-24T05:05:57Z</time>
      </trkpt>
      <trkpt lat="44.13707" lon="3.11107">
        <ele>618.40002441406</ele>
        <time>2010-10-24T05:06:03Z</time>
      </trkpt>
      <trkpt lat="44.13707" lon="3.11108">
        <ele>618.40002441406</ele>
        <time>2010-10-24T05:06:04Z</time>
      </trkpt>
      <trkpt lat="44.137" lon="3.11112">
        <ele>620.20001220703</ele>
        <time>2010-10-24T05:06:09Z</time>
      </trkpt>
      <trkpt lat="44.13691" lon="3.11112">
        <ele>623.20001220703</ele>
        <time>2010-10-24T05:06:16Z</time>
      </trkpt>
      <trkpt lat="44.13689" lon="3.11112">
        <ele>624</ele>
        <time>2010-10-24T05:06:18Z</time>
      </trkpt>
      <trkpt lat="44.13688" lon="3.11113">
        <ele>624.20001220703</ele>
        <time>2010-10-24T05:06:19Z</time>
      </trkpt>
      <trkpt lat="44.13683" lon="3.11116">
        <ele>625.79998779297</ele>
        <time>2010-10-24T05:06:25Z</time>
      </trkpt>
      <trkpt lat="44.13681" lon="3.11116">
        <ele>626.20001220703</ele>
        <time>2010-10-24T05:06:27Z</time>
      </trkpt>
      <trkpt lat="44.1367" lon="3.11121">
        <ele>628.79998779297</ele>
        <time>2010-10-24T05:06:40Z</time>
      </trkpt>
      <trkpt lat="44.13669" lon="3.11123">
        <ele>629.20001220703</ele>
        <time>2010-10-24T05:06:42Z</time>
      </trkpt>
      <trkpt lat="44.13659" lon="3.11131">
        <ele>631</ele>
        <time>2010-10-24T05:06:52Z</time>
      </trkpt>
      <trkpt lat="44.13654" lon="3.11134">
        <ele>631.79998779297</ele>
        <time>2010-10-24T05:06:57Z</time>
      </trkpt>
      <trkpt lat="44.13636" lon="3.11144">
        <ele>637.20001220703</ele>
        <time>2010-10-24T05:07:17Z</time>
      </trkpt>
      <trkpt lat="44.13635" lon="3.11145">
        <ele>637.79998779297</ele>
        <time>2010-10-24T05:07:18Z</time>
      </trkpt>
      <trkpt lat="44.13632" lon="3.11146">
        <ele>638.79998779297</ele>
        <time>2010-10-24T05:07:21Z</time>
      </trkpt>
      <trkpt lat="44.13628" lon="3.11147">
        <ele>640.59997558594</ele>
        <time>2010-10-24T05:07:25Z</time>
      </trkpt>
      <trkpt lat="44.13618" lon="3.11143">
        <ele>646.20001220703</ele>
        <time>2010-10-24T05:07:36Z</time>
      </trkpt>
      <trkpt lat="44.13615" lon="3.11143">
        <ele>647.79998779297</ele>
        <time>2010-10-24T05:07:39Z</time>
      </trkpt>
      <trkpt lat="44.13599" lon="3.11142">
        <ele>658.20001220703</ele>
        <time>2010-10-24T05:07:55Z</time>
      </trkpt>
      <trkpt lat="44.13581" lon="3.11151">
        <ele>669.59997558594</ele>
        <time>2010-10-24T05:08:15Z</time>
      </trkpt>
      <trkpt lat="44.13571" lon="3.1116">
        <ele>674.40002441406</ele>
        <time>2010-10-24T05:08:28Z</time>
      </trkpt>
      <trkpt lat="44.13568" lon="3.11163">
        <ele>676</ele>
        <time>2010-10-24T05:08:32Z</time>
      </trkpt>
      <trkpt lat="44.13565" lon="3.11166">
        <ele>677</ele>
        <time>2010-10-24T05:08:35Z</time>
      </trkpt>
      <trkpt lat="44.13565" lon="3.11166">
        <ele>677.40002441406</ele>
        <time>2010-10-24T05:08:36Z</time>
      </trkpt>
      <trkpt lat="44.13558" lon="3.11169">
        <ele>680.59997558594</ele>
        <time>2010-10-24T05:08:46Z</time>
      </trkpt>
      <trkpt lat="44.13547" lon="3.11173">
        <ele>685</ele>
        <time>2010-10-24T05:08:59Z</time>
      </trkpt>
      <trkpt lat="44.13529" lon="3.11179">
        <ele>693.40002441406</ele>
        <time>2010-10-24T05:09:21Z</time>
      </trkpt>
      <trkpt lat="44.13527" lon="3.11181">
        <ele>694.59997558594</ele>
        <time>2010-10-24T05:09:24Z</time>
      </trkpt>
      <trkpt lat="44.13525" lon="3.11181">
        <ele>695.79998779297</ele>
        <time>2010-10-24T05:09:27Z</time>
      </trkpt>
      <trkpt lat="44.13515" lon="3.1118">
        <ele>699.59997558594</ele>
        <time>2010-10-24T05:09:37Z</time>
      </trkpt>
      <trkpt lat="44.13512" lon="3.11182">
        <ele>701.20001220703</ele>
        <time>2010-10-24T05:09:41Z</time>
      </trkpt>
      <trkpt lat="44.13511" lon="3.11183">
        <ele>701.59997558594</ele>
        <time>2010-10-24T05:09:42Z</time>
      </trkpt>
      <trkpt lat="44.13511" lon="3.11185">
        <ele>702.40002441406</ele>
        <time>2010-10-24T05:09:44Z</time>
      </trkpt>
      <trkpt lat="44.13503" lon="3.11183">
        <ele>704.79998779297</ele>
        <time>2010-10-24T05:09:50Z</time>
      </trkpt>
      <trkpt lat="44.13496" lon="3.11185">
        <ele>706.59997558594</ele>
        <time>2010-10-24T05:09:55Z</time>
      </trkpt>
      <trkpt lat="44.13495" lon="3.11186">
        <ele>706.79998779297</ele>
        <time>2010-10-24T05:09:56Z</time>
      </trkpt>
      <trkpt lat="44.13489" lon="3.11188">
        <ele>708.20001220703</ele>
        <time>2010-10-24T05:10:01Z</time>
      </trkpt>
      <trkpt lat="44.13478" lon="3.11192">
        <ele>711.59997558594</ele>
        <time>2010-10-24T05:10:15Z</time>
      </trkpt>
      <trkpt lat="44.13468" lon="3.11203">
        <ele>714.40002441406</ele>
        <time>2010-10-24T05:10:28Z</time>
      </trkpt>
      <trkpt lat="44.13465" lon="3.1121">
        <ele>714</ele>
        <time>2010-10-24T05:10:30Z</time>
      </trkpt>
      <trkpt lat="44.13463" lon="3.11215">
        <ele>714</ele>
        <time>2010-10-24T05:10:34Z</time>
      </trkpt>
      <trkpt lat="44.13457" lon="3.1122">
        <ele>714</ele>
        <time>2010-10-24T05:10:42Z</time>
      </trkpt>
      <trkpt lat="44.13454" lon="3.11224">
        <ele>714</ele>
        <time>2010-10-24T05:10:47Z</time>
      </trkpt>
      <trkpt lat="44.13452" lon="3.11226">
        <ele>714</ele>
        <time>2010-10-24T05:10:50Z</time>
      </trkpt>
      <trkpt lat="44.13449" lon="3.11228">
        <ele>714</ele>
        <time>2010-10-24T05:10:53Z</time>
      </trkpt>
      <trkpt lat="44.13444" lon="3.1123">
        <ele>714.40002441406</ele>
        <time>2010-10-24T05:10:57Z</time>
      </trkpt>
      <trkpt lat="44.13435" lon="3.11234">
        <ele>714.79998779297</ele>
        <time>2010-10-24T05:11:05Z</time>
      </trkpt>
      <trkpt lat="44.13428" lon="3.11238">
        <ele>715.20001220703</ele>
        <time>2010-10-24T05:11:11Z</time>
      </trkpt>
      <trkpt lat="44.13423" lon="3.11239">
        <ele>715.20001220703</ele>
        <time>2010-10-24T05:11:15Z</time>
      </trkpt>
      <trkpt lat="44.13422" lon="3.1124">
        <ele>715.20001220703</ele>
        <time>2010-10-24T05:11:16Z</time>
      </trkpt>
      <trkpt lat="44.13418" lon="3.11243">
        <ele>715.79998779297</ele>
        <time>2010-10-24T05:11:21Z</time>
      </trkpt>
      <trkpt lat="44.13416" lon="3.11255">
        <ele>718.59997558594</ele>
        <time>2010-10-24T05:11:36Z</time>
      </trkpt>
      <trkpt lat="44.13417" lon="3.11255">
        <ele>719</ele>
        <time>2010-10-24T05:11:37Z</time>
      </trkpt>
      <trkpt lat="44.13435" lon="3.11258">
        <ele>721.59997558594</ele>
        <time>2010-10-24T05:11:46Z</time>
      </trkpt>
      <trkpt lat="44.13437" lon="3.11259">
        <ele>722</ele>
        <time>2010-10-24T05:11:47Z</time>
      </trkpt>
      <trkpt lat="44.13432" lon="3.1127">
        <ele>724.20001220703</ele>
        <time>2010-10-24T05:11:53Z</time>
      </trkpt>
      <trkpt lat="44.13429" lon="3.11273">
        <ele>724.79998779297</ele>
        <time>2010-10-24T05:11:55Z</time>
      </trkpt>
      <trkpt lat="44.13427" lon="3.11274">
        <ele>725</ele>
        <time>2010-10-24T05:11:56Z</time>
      </trkpt>
      <trkpt lat="44.13421" lon="3.11276">
        <ele>726.40002441406</ele>
        <time>2010-10-24T05:12:00Z</time>
      </trkpt>
      <trkpt lat="44.13411" lon="3.11279">
        <ele>729.20001220703</ele>
        <time>2010-10-24T05:12:08Z</time>
      </trkpt>
      <trkpt lat="44.13409" lon="3.1128">
        <ele>730.20001220703</ele>
        <time>2010-10-24T05:12:11Z</time>
      </trkpt>
      <trkpt lat="44.13395" lon="3.11286">
        <ele>735.20001220703</ele>
        <time>2010-10-24T05:12:26Z</time>
      </trkpt>
      <trkpt lat="44.13393" lon="3.11288">
        <ele>735.40002441406</ele>
        <time>2010-10-24T05:12:28Z</time>
      </trkpt>
      <trkpt lat="44.13387" lon="3.11293">
        <ele>737.40002441406</ele>
        <time>2010-10-24T05:12:35Z</time>
      </trkpt>
      <trkpt lat="44.13379" lon="3.11299">
        <ele>739.20001220703</ele>
        <time>2010-10-24T05:12:45Z</time>
      </trkpt>
      <trkpt lat="44.13378" lon="3.113">
        <ele>739.40002441406</ele>
        <time>2010-10-24T05:12:46Z</time>
      </trkpt>
      <trkpt lat="44.13368" lon="3.11309">
        <ele>741.20001220703</ele>
        <time>2010-10-24T05:12:59Z</time>
      </trkpt>
      <trkpt lat="44.13373" lon="3.11314">
        <ele>744</ele>
        <time>2010-10-24T05:13:08Z</time>
      </trkpt>
      <trkpt lat="44.1339" lon="3.11323">
        <ele>748.79998779297</ele>
        <time>2010-10-24T05:13:24Z</time>
      </trkpt>
      <trkpt lat="44.13407" lon="3.11335">
        <ele>756</ele>
        <time>2010-10-24T05:13:43Z</time>
      </trkpt>
      <trkpt lat="44.13422" lon="3.11347">
        <ele>760.40002441406</ele>
        <time>2010-10-24T05:13:58Z</time>
      </trkpt>
      <trkpt lat="44.13423" lon="3.11347">
        <ele>760.79998779297</ele>
        <time>2010-10-24T05:13:59Z</time>
      </trkpt>
      <trkpt lat="44.1343" lon="3.11351">
        <ele>762.20001220703</ele>
        <time>2010-10-24T05:14:05Z</time>
      </trkpt>
      <trkpt lat="44.13441" lon="3.11354">
        <ele>764.59997558594</ele>
        <time>2010-10-24T05:14:13Z</time>
      </trkpt>
      <trkpt lat="44.13457" lon="3.11366">
        <ele>769.40002441406</ele>
        <time>2010-10-24T05:14:28Z</time>
      </trkpt>
      <trkpt lat="44.13475" lon="3.11375">
        <ele>773.79998779297</ele>
        <time>2010-10-24T05:14:41Z</time>
      </trkpt>
      <trkpt lat="44.13476" lon="3.11375">
        <ele>774.20001220703</ele>
        <time>2010-10-24T05:14:42Z</time>
      </trkpt>
      <trkpt lat="44.13491" lon="3.11384">
        <ele>777.79998779297</ele>
        <time>2010-10-24T05:14:55Z</time>
      </trkpt>
      <trkpt lat="44.13508" lon="3.11396">
        <ele>781.40002441406</ele>
        <time>2010-10-24T05:15:11Z</time>
      </trkpt>
      <trkpt lat="44.13523" lon="3.11411">
        <ele>784.59997558594</ele>
        <time>2010-10-24T05:15:27Z</time>
      </trkpt>
      <trkpt lat="44.1354" lon="3.11422">
        <ele>788.59997558594</ele>
        <time>2010-10-24T05:15:42Z</time>
      </trkpt>
      <trkpt lat="44.13549" lon="3.11434">
        <ele>792</ele>
        <time>2010-10-24T05:15:54Z</time>
      </trkpt>
      <trkpt lat="44.13552" lon="3.1144">
        <ele>793.40002441406</ele>
        <time>2010-10-24T05:15:59Z</time>
      </trkpt>
      <trkpt lat="44.13557" lon="3.11447">
        <ele>795.79998779297</ele>
        <time>2010-10-24T05:16:06Z</time>
      </trkpt>
      <trkpt lat="44.13565" lon="3.11458">
        <ele>799.20001220703</ele>
        <time>2010-10-24T05:16:17Z</time>
      </trkpt>
      <trkpt lat="44.13576" lon="3.11477">
        <ele>804</ele>
        <time>2010-10-24T05:16:34Z</time>
      </trkpt>
      <trkpt lat="44.13588" lon="3.11499">
        <ele>808.40002441406</ele>
        <time>2010-10-24T05:16:48Z</time>
      </trkpt>
      <trkpt lat="44.1359" lon="3.11511">
        <ele>810.20001220703</ele>
        <time>2010-10-24T05:16:53Z</time>
      </trkpt>
      <trkpt lat="44.13584" lon="3.11518">
        <ele>811.79998779297</ele>
        <time>2010-10-24T05:16:58Z</time>
      </trkpt>
      <trkpt lat="44.13582" lon="3.11519">
        <ele>812.59997558594</ele>
        <time>2010-10-24T05:17:00Z</time>
      </trkpt>
      <trkpt lat="44.1357" lon="3.11535">
        <ele>816.59997558594</ele>
        <time>2010-10-24T05:17:15Z</time>
      </trkpt>
      <trkpt lat="44.13564" lon="3.1155">
        <ele>818.79998779297</ele>
        <time>2010-10-24T05:17:24Z</time>
      </trkpt>
      <trkpt lat="44.1356" lon="3.11555">
        <ele>820</ele>
        <time>2010-10-24T05:17:28Z</time>
      </trkpt>
      <trkpt lat="44.13556" lon="3.11581">
        <ele>823</ele>
        <time>2010-10-24T05:17:39Z</time>
      </trkpt>
      <trkpt lat="44.13554" lon="3.11606">
        <ele>825.59997558594</ele>
        <time>2010-10-24T05:17:47Z</time>
      </trkpt>
      <trkpt lat="44.13552" lon="3.11632">
        <ele>827.40002441406</ele>
        <time>2010-10-24T05:17:54Z</time>
      </trkpt>
      <trkpt lat="44.13552" lon="3.11658">
        <ele>829.20001220703</ele>
        <time>2010-10-24T05:18:01Z</time>
      </trkpt>
      <trkpt lat="44.13554" lon="3.11686">
        <ele>830.59997558594</ele>
        <time>2010-10-24T05:18:09Z</time>
      </trkpt>
      <trkpt lat="44.13558" lon="3.11713">
        <ele>832.40002441406</ele>
        <time>2010-10-24T05:18:17Z</time>
      </trkpt>
      <trkpt lat="44.13555" lon="3.11738">
        <ele>834.20001220703</ele>
        <time>2010-10-24T05:18:25Z</time>
      </trkpt>
      <trkpt lat="44.13546" lon="3.11763">
        <ele>835.79998779297</ele>
        <time>2010-10-24T05:18:32Z</time>
      </trkpt>
      <trkpt lat="44.1354" lon="3.11788">
        <ele>837.40002441406</ele>
        <time>2010-10-24T05:18:39Z</time>
      </trkpt>
      <trkpt lat="44.13535" lon="3.11812">
        <ele>838.20001220703</ele>
        <time>2010-10-24T05:18:46Z</time>
      </trkpt>
      <trkpt lat="44.13527" lon="3.11835">
        <ele>838.59997558594</ele>
        <time>2010-10-24T05:18:52Z</time>
      </trkpt>
      <trkpt lat="44.13518" lon="3.11857">
        <ele>839</ele>
        <time>2010-10-24T05:18:58Z</time>
      </trkpt>
      <trkpt lat="44.1351" lon="3.1188">
        <ele>839</ele>
        <time>2010-10-24T05:19:04Z</time>
      </trkpt>
      <trkpt lat="44.135" lon="3.11905">
        <ele>838.79998779297</ele>
        <time>2010-10-24T05:19:12Z</time>
      </trkpt>
      <trkpt lat="44.13492" lon="3.11931">
        <ele>838.40002441406</ele>
        <time>2010-10-24T05:19:19Z</time>
      </trkpt>
      <trkpt lat="44.13486" lon="3.11956">
        <ele>837.79998779297</ele>
        <time>2010-10-24T05:19:26Z</time>
      </trkpt>
      <trkpt lat="44.13479" lon="3.11983">
        <ele>837</ele>
        <time>2010-10-24T05:19:32Z</time>
      </trkpt>
      <trkpt lat="44.13473" lon="3.12007">
        <ele>836.59997558594</ele>
        <time>2010-10-24T05:19:37Z</time>
      </trkpt>
      <trkpt lat="44.13465" lon="3.12031">
        <ele>836</ele>
        <time>2010-10-24T05:19:42Z</time>
      </trkpt>
      <trkpt lat="44.13457" lon="3.12054">
        <ele>835.59997558594</ele>
        <time>2010-10-24T05:19:48Z</time>
      </trkpt>
      <trkpt lat="44.13447" lon="3.12079">
        <ele>835</ele>
        <time>2010-10-24T05:19:55Z</time>
      </trkpt>
      <trkpt lat="44.13434" lon="3.12097">
        <ele>834.40002441406</ele>
        <time>2010-10-24T05:20:02Z</time>
      </trkpt>
      <trkpt lat="44.13419" lon="3.12112">
        <ele>834</ele>
        <time>2010-10-24T05:20:10Z</time>
      </trkpt>
      <trkpt lat="44.13404" lon="3.12127">
        <ele>833.59997558594</ele>
        <time>2010-10-24T05:20:19Z</time>
      </trkpt>
      <trkpt lat="44.1339" lon="3.12146">
        <ele>834</ele>
        <time>2010-10-24T05:20:28Z</time>
      </trkpt>
      <trkpt lat="44.13376" lon="3.12164">
        <ele>835.59997558594</ele>
        <time>2010-10-24T05:20:37Z</time>
      </trkpt>
      <trkpt lat="44.13361" lon="3.12178">
        <ele>837.59997558594</ele>
        <time>2010-10-24T05:20:46Z</time>
      </trkpt>
      <trkpt lat="44.1336" lon="3.12179">
        <ele>837.79998779297</ele>
        <time>2010-10-24T05:20:47Z</time>
      </trkpt>
      <trkpt lat="44.13351" lon="3.1219">
        <ele>839</ele>
        <time>2010-10-24T05:20:53Z</time>
      </trkpt>
      <trkpt lat="44.13349" lon="3.12196">
        <ele>839.59997558594</ele>
        <time>2010-10-24T05:20:55Z</time>
      </trkpt>
      <trkpt lat="44.13349" lon="3.12199">
        <ele>839.79998779297</ele>
        <time>2010-10-24T05:20:56Z</time>
      </trkpt>
      <trkpt lat="44.13357" lon="3.1221">
        <ele>841</ele>
        <time>2010-10-24T05:21:01Z</time>
      </trkpt>
      <trkpt lat="44.13363" lon="3.12213">
        <ele>841.59997558594</ele>
        <time>2010-10-24T05:21:03Z</time>
      </trkpt>
      <trkpt lat="44.13378" lon="3.12225">
        <ele>842.79998779297</ele>
        <time>2010-10-24T05:21:10Z</time>
      </trkpt>
      <trkpt lat="44.13396" lon="3.12238">
        <ele>843.79998779297</ele>
        <time>2010-10-24T05:21:17Z</time>
      </trkpt>
      <trkpt lat="44.13413" lon="3.12249">
        <ele>844.40002441406</ele>
        <time>2010-10-24T05:21:23Z</time>
      </trkpt>
      <trkpt lat="44.1343" lon="3.12259">
        <ele>844.59997558594</ele>
        <time>2010-10-24T05:21:29Z</time>
      </trkpt>
      <trkpt lat="44.13447" lon="3.12272">
        <ele>844.59997558594</ele>
        <time>2010-10-24T05:21:35Z</time>
      </trkpt>
      <trkpt lat="44.13459" lon="3.12294">
        <ele>844.40002441406</ele>
        <time>2010-10-24T05:21:41Z</time>
      </trkpt>
      <trkpt lat="44.13458" lon="3.1232">
        <ele>844</ele>
        <time>2010-10-24T05:21:47Z</time>
      </trkpt>
      <trkpt lat="44.13448" lon="3.12342">
        <ele>843.79998779297</ele>
        <time>2010-10-24T05:21:53Z</time>
      </trkpt>
      <trkpt lat="44.1344" lon="3.12365">
        <ele>843.59997558594</ele>
        <time>2010-10-24T05:21:59Z</time>
      </trkpt>
      <trkpt lat="44.13446" lon="3.12389">
        <ele>843.40002441406</ele>
        <time>2010-10-24T05:22:06Z</time>
      </trkpt>
      <trkpt lat="44.13454" lon="3.12414">
        <ele>843.20001220703</ele>
        <time>2010-10-24T05:22:13Z</time>
      </trkpt>
      <trkpt lat="44.13452" lon="3.12442">
        <ele>843.20001220703</ele>
        <time>2010-10-24T05:22:20Z</time>
      </trkpt>
      <trkpt lat="44.13449" lon="3.12468">
        <ele>843.40002441406</ele>
        <time>2010-10-24T05:22:27Z</time>
      </trkpt>
      <trkpt lat="44.13445" lon="3.12494">
        <ele>843.59997558594</ele>
        <time>2010-10-24T05:22:34Z</time>
      </trkpt>
      <trkpt lat="44.13443" lon="3.12521">
        <ele>844</ele>
        <time>2010-10-24T05:22:41Z</time>
      </trkpt>
      <trkpt lat="44.13445" lon="3.12547">
        <ele>844.59997558594</ele>
        <time>2010-10-24T05:22:48Z</time>
      </trkpt>
      <trkpt lat="44.1345" lon="3.12573">
        <ele>845.20001220703</ele>
        <time>2010-10-24T05:22:55Z</time>
      </trkpt>
      <trkpt lat="44.13456" lon="3.12597">
        <ele>845.79998779297</ele>
        <time>2010-10-24T05:23:02Z</time>
      </trkpt>
      <trkpt lat="44.13466" lon="3.12618">
        <ele>846.40002441406</ele>
        <time>2010-10-24T05:23:09Z</time>
      </trkpt>
      <trkpt lat="44.13481" lon="3.12635">
        <ele>847</ele>
        <time>2010-10-24T05:23:16Z</time>
      </trkpt>
      <trkpt lat="44.13498" lon="3.1265">
        <ele>848</ele>
        <time>2010-10-24T05:23:24Z</time>
      </trkpt>
      <trkpt lat="44.13512" lon="3.12668">
        <ele>848.79998779297</ele>
        <time>2010-10-24T05:23:31Z</time>
      </trkpt>
      <trkpt lat="44.13525" lon="3.12688">
        <ele>849.79998779297</ele>
        <time>2010-10-24T05:23:38Z</time>
      </trkpt>
      <trkpt lat="44.1354" lon="3.12708">
        <ele>850.40002441406</ele>
        <time>2010-10-24T05:23:45Z</time>
      </trkpt>
      <trkpt lat="44.13555" lon="3.12726">
        <ele>850.79998779297</ele>
        <time>2010-10-24T05:23:52Z</time>
      </trkpt>
      <trkpt lat="44.13573" lon="3.12739">
        <ele>851.20001220703</ele>
        <time>2010-10-24T05:23:59Z</time>
      </trkpt>
      <trkpt lat="44.13591" lon="3.12749">
        <ele>851.59997558594</ele>
        <time>2010-10-24T05:24:05Z</time>
      </trkpt>
      <trkpt lat="44.1361" lon="3.12755">
        <ele>851.59997558594</ele>
        <time>2010-10-24T05:24:11Z</time>
      </trkpt>
      <trkpt lat="44.13629" lon="3.12758">
        <ele>851.79998779297</ele>
        <time>2010-10-24T05:24:17Z</time>
      </trkpt>
      <trkpt lat="44.13649" lon="3.1276">
        <ele>852</ele>
        <time>2010-10-24T05:24:23Z</time>
      </trkpt>
      <trkpt lat="44.13668" lon="3.12762">
        <ele>852.40002441406</ele>
        <time>2010-10-24T05:24:29Z</time>
      </trkpt>
      <trkpt lat="44.13688" lon="3.12768">
        <ele>852.59997558594</ele>
        <time>2010-10-24T05:24:35Z</time>
      </trkpt>
      <trkpt lat="44.13707" lon="3.1277">
        <ele>853.20001220703</ele>
        <time>2010-10-24T05:24:41Z</time>
      </trkpt>
      <trkpt lat="44.13728" lon="3.12771">
        <ele>853.20001220703</ele>
        <time>2010-10-24T05:24:47Z</time>
      </trkpt>
      <trkpt lat="44.13748" lon="3.12778">
        <ele>853.20001220703</ele>
        <time>2010-10-24T05:24:53Z</time>
      </trkpt>
      <trkpt lat="44.13767" lon="3.1279">
        <ele>852.79998779297</ele>
        <time>2010-10-24T05:24:59Z</time>
      </trkpt>
      <trkpt lat="44.13783" lon="3.12805">
        <ele>852.40002441406</ele>
        <time>2010-10-24T05:25:05Z</time>
      </trkpt>
      <trkpt lat="44.138" lon="3.12821">
        <ele>852</ele>
        <time>2010-10-24T05:25:11Z</time>
      </trkpt>
      <trkpt lat="44.13818" lon="3.12835">
        <ele>851.40002441406</ele>
        <time>2010-10-24T05:25:17Z</time>
      </trkpt>
      <trkpt lat="44.13835" lon="3.12849">
        <ele>850.59997558594</ele>
        <time>2010-10-24T05:25:23Z</time>
      </trkpt>
      <trkpt lat="44.13851" lon="3.12866">
        <ele>849.79998779297</ele>
        <time>2010-10-24T05:25:29Z</time>
      </trkpt>
      <trkpt lat="44.13861" lon="3.1289">
        <ele>849</ele>
        <time>2010-10-24T05:25:35Z</time>
      </trkpt>
      <trkpt lat="44.13876" lon="3.12907">
        <ele>848.20001220703</ele>
        <time>2010-10-24T05:25:42Z</time>
      </trkpt>
      <trkpt lat="44.13878" lon="3.12908">
        <ele>848</ele>
        <time>2010-10-24T05:25:43Z</time>
      </trkpt>
      <trkpt lat="44.13893" lon="3.129">
        <ele>847.20001220703</ele>
        <time>2010-10-24T05:25:49Z</time>
      </trkpt>
      <trkpt lat="44.13912" lon="3.12904">
        <ele>846.59997558594</ele>
        <time>2010-10-24T05:25:56Z</time>
      </trkpt>
      <trkpt lat="44.13923" lon="3.12928">
        <ele>845.79998779297</ele>
        <time>2010-10-24T05:26:03Z</time>
      </trkpt>
      <trkpt lat="44.13932" lon="3.12949">
        <ele>845.20001220703</ele>
        <time>2010-10-24T05:26:10Z</time>
      </trkpt>
      <trkpt lat="44.13933" lon="3.12952">
        <ele>845</ele>
        <time>2010-10-24T05:26:11Z</time>
      </trkpt>
      <trkpt lat="44.1394" lon="3.12974">
        <ele>844.20001220703</ele>
        <time>2010-10-24T05:26:19Z</time>
      </trkpt>
      <trkpt lat="44.1395" lon="3.12998">
        <ele>843.79998779297</ele>
        <time>2010-10-24T05:26:26Z</time>
      </trkpt>
      <trkpt lat="44.13958" lon="3.13022">
        <ele>843.40002441406</ele>
        <time>2010-10-24T05:26:34Z</time>
      </trkpt>
      <trkpt lat="44.13964" lon="3.13048">
        <ele>843.40002441406</ele>
        <time>2010-10-24T05:26:42Z</time>
      </trkpt>
      <trkpt lat="44.13969" lon="3.13071">
        <ele>844</ele>
        <time>2010-10-24T05:26:49Z</time>
      </trkpt>
      <trkpt lat="44.1397" lon="3.13074">
        <ele>844</ele>
        <time>2010-10-24T05:26:50Z</time>
      </trkpt>
      <trkpt lat="44.13973" lon="3.13097">
        <ele>844.59997558594</ele>
        <time>2010-10-24T05:26:57Z</time>
      </trkpt>
      <trkpt lat="44.13974" lon="3.131">
        <ele>844.40002441406</ele>
        <time>2010-10-24T05:26:58Z</time>
      </trkpt>
      <trkpt lat="44.13978" lon="3.13119">
        <ele>844.40002441406</ele>
        <time>2010-10-24T05:27:04Z</time>
      </trkpt>
      <trkpt lat="44.13979" lon="3.13123">
        <ele>844.40002441406</ele>
        <time>2010-10-24T05:27:05Z</time>
      </trkpt>
      <trkpt lat="44.13983" lon="3.13148">
        <ele>844.40002441406</ele>
        <time>2010-10-24T05:27:12Z</time>
      </trkpt>
      <trkpt lat="44.13985" lon="3.13174">
        <ele>844.20001220703</ele>
        <time>2010-10-24T05:27:18Z</time>
      </trkpt>
      <trkpt lat="44.13986" lon="3.13201">
        <ele>844</ele>
        <time>2010-10-24T05:27:24Z</time>
      </trkpt>
      <trkpt lat="44.13991" lon="3.13226">
        <ele>843.59997558594</ele>
        <time>2010-10-24T05:27:30Z</time>
      </trkpt>
      <trkpt lat="44.13996" lon="3.13252">
        <ele>843.40002441406</ele>
        <time>2010-10-24T05:27:37Z</time>
      </trkpt>
      <trkpt lat="44.14005" lon="3.13273">
        <ele>843</ele>
        <time>2010-10-24T05:27:43Z</time>
      </trkpt>
      <trkpt lat="44.14012" lon="3.13299">
        <ele>842.59997558594</ele>
        <time>2010-10-24T05:27:50Z</time>
      </trkpt>
      <trkpt lat="44.1402" lon="3.13321">
        <ele>842</ele>
        <time>2010-10-24T05:27:55Z</time>
      </trkpt>
      <trkpt lat="44.1403" lon="3.13344">
        <ele>841.59997558594</ele>
        <time>2010-10-24T05:28:01Z</time>
      </trkpt>
      <trkpt lat="44.14037" lon="3.13367">
        <ele>841.20001220703</ele>
        <time>2010-10-24T05:28:07Z</time>
      </trkpt>
      <trkpt lat="44.14046" lon="3.13391">
        <ele>840.79998779297</ele>
        <time>2010-10-24T05:28:13Z</time>
      </trkpt>
      <trkpt lat="44.14055" lon="3.13413">
        <ele>840.40002441406</ele>
        <time>2010-10-24T05:28:19Z</time>
      </trkpt>
      <trkpt lat="44.14068" lon="3.13435">
        <ele>840</ele>
        <time>2010-10-24T05:28:26Z</time>
      </trkpt>
      <trkpt lat="44.14086" lon="3.1345">
        <ele>839.40002441406</ele>
        <time>2010-10-24T05:28:33Z</time>
      </trkpt>
      <trkpt lat="44.14102" lon="3.13465">
        <ele>838.79998779297</ele>
        <time>2010-10-24T05:28:40Z</time>
      </trkpt>
      <trkpt lat="44.14118" lon="3.1348">
        <ele>838.20001220703</ele>
        <time>2010-10-24T05:28:47Z</time>
      </trkpt>
      <trkpt lat="44.14138" lon="3.13488">
        <ele>837.59997558594</ele>
        <time>2010-10-24T05:28:53Z</time>
      </trkpt>
      <trkpt lat="44.14157" lon="3.13495">
        <ele>836.59997558594</ele>
        <time>2010-10-24T05:29:00Z</time>
      </trkpt>
      <trkpt lat="44.14159" lon="3.13496">
        <ele>836.40002441406</ele>
        <time>2010-10-24T05:29:01Z</time>
      </trkpt>
      <trkpt lat="44.14176" lon="3.13499">
        <ele>835.79998779297</ele>
        <time>2010-10-24T05:29:07Z</time>
      </trkpt>
      <trkpt lat="44.14194" lon="3.13505">
        <ele>834.79998779297</ele>
        <time>2010-10-24T05:29:13Z</time>
      </trkpt>
      <trkpt lat="44.14204" lon="3.13508">
        <ele>834.40002441406</ele>
        <time>2010-10-24T05:29:16Z</time>
      </trkpt>
      <trkpt lat="44.1421" lon="3.13518">
        <ele>834</ele>
        <time>2010-10-24T05:29:19Z</time>
      </trkpt>
      <trkpt lat="44.14208" lon="3.1353">
        <ele>833.59997558594</ele>
        <time>2010-10-24T05:29:22Z</time>
      </trkpt>
      <trkpt lat="44.14204" lon="3.13543">
        <ele>833.40002441406</ele>
        <time>2010-10-24T05:29:25Z</time>
      </trkpt>
      <trkpt lat="44.14196" lon="3.13567">
        <ele>832.59997558594</ele>
        <time>2010-10-24T05:29:31Z</time>
      </trkpt>
      <trkpt lat="44.1418" lon="3.13584">
        <ele>832</ele>
        <time>2010-10-24T05:29:37Z</time>
      </trkpt>
      <trkpt lat="44.14167" lon="3.136">
        <ele>831.20001220703</ele>
        <time>2010-10-24T05:29:43Z</time>
      </trkpt>
      <trkpt lat="44.14155" lon="3.13622">
        <ele>830.20001220703</ele>
        <time>2010-10-24T05:29:49Z</time>
      </trkpt>
      <trkpt lat="44.14143" lon="3.13643">
        <ele>829.40002441406</ele>
        <time>2010-10-24T05:29:55Z</time>
      </trkpt>
      <trkpt lat="44.14137" lon="3.13669">
        <ele>828.79998779297</ele>
        <time>2010-10-24T05:30:01Z</time>
      </trkpt>
      <trkpt lat="44.14138" lon="3.13694">
        <ele>828</ele>
        <time>2010-10-24T05:30:07Z</time>
      </trkpt>
      <trkpt lat="44.14138" lon="3.13722">
        <ele>827</ele>
        <time>2010-10-24T05:30:15Z</time>
      </trkpt>
      <trkpt lat="44.14138" lon="3.13751">
        <ele>826.59997558594</ele>
        <time>2010-10-24T05:30:21Z</time>
      </trkpt>
      <trkpt lat="44.14135" lon="3.1378">
        <ele>825.79998779297</ele>
        <time>2010-10-24T05:30:27Z</time>
      </trkpt>
      <trkpt lat="44.14133" lon="3.13806">
        <ele>825.20001220703</ele>
        <time>2010-10-24T05:30:33Z</time>
      </trkpt>
      <trkpt lat="44.14133" lon="3.13832">
        <ele>824.59997558594</ele>
        <time>2010-10-24T05:30:39Z</time>
      </trkpt>
      <trkpt lat="44.1414" lon="3.13857">
        <ele>824.20001220703</ele>
        <time>2010-10-24T05:30:45Z</time>
      </trkpt>
      <trkpt lat="44.14151" lon="3.13877">
        <ele>823.59997558594</ele>
        <time>2010-10-24T05:30:51Z</time>
      </trkpt>
      <trkpt lat="44.14157" lon="3.1389">
        <ele>823.20001220703</ele>
        <time>2010-10-24T05:30:55Z</time>
      </trkpt>
      <trkpt lat="44.14162" lon="3.13901">
        <ele>823.20001220703</ele>
        <time>2010-10-24T05:30:58Z</time>
      </trkpt>
      <trkpt lat="44.14167" lon="3.13925">
        <ele>822.79998779297</ele>
        <time>2010-10-24T05:31:04Z</time>
      </trkpt>
      <trkpt lat="44.14168" lon="3.13953">
        <ele>822.59997558594</ele>
        <time>2010-10-24T05:31:11Z</time>
      </trkpt>
      <trkpt lat="44.14167" lon="3.1398">
        <ele>822.40002441406</ele>
        <time>2010-10-24T05:31:18Z</time>
      </trkpt>
      <trkpt lat="44.14169" lon="3.14008">
        <ele>822.20001220703</ele>
        <time>2010-10-24T05:31:25Z</time>
      </trkpt>
      <trkpt lat="44.14171" lon="3.14035">
        <ele>822.59997558594</ele>
        <time>2010-10-24T05:31:32Z</time>
      </trkpt>
      <trkpt lat="44.14176" lon="3.14062">
        <ele>823</ele>
        <time>2010-10-24T05:31:40Z</time>
      </trkpt>
      <trkpt lat="44.14186" lon="3.14085">
        <ele>823.40002441406</ele>
        <time>2010-10-24T05:31:48Z</time>
      </trkpt>
      <trkpt lat="44.14193" lon="3.14111">
        <ele>824</ele>
        <time>2010-10-24T05:31:56Z</time>
      </trkpt>
      <trkpt lat="44.14195" lon="3.14139">
        <ele>825</ele>
        <time>2010-10-24T05:32:03Z</time>
      </trkpt>
      <trkpt lat="44.14196" lon="3.14167">
        <ele>826.20001220703</ele>
        <time>2010-10-24T05:32:10Z</time>
      </trkpt>
      <trkpt lat="44.14198" lon="3.14191">
        <ele>827.20001220703</ele>
        <time>2010-10-24T05:32:16Z</time>
      </trkpt>
      <trkpt lat="44.14197" lon="3.14195">
        <ele>827.40002441406</ele>
        <time>2010-10-24T05:32:17Z</time>
      </trkpt>
      <trkpt lat="44.14201" lon="3.14221">
        <ele>828.40002441406</ele>
        <time>2010-10-24T05:32:24Z</time>
      </trkpt>
      <trkpt lat="44.14217" lon="3.14233">
        <ele>829.20001220703</ele>
        <time>2010-10-24T05:32:31Z</time>
      </trkpt>
      <trkpt lat="44.14236" lon="3.1424">
        <ele>830</ele>
        <time>2010-10-24T05:32:38Z</time>
      </trkpt>
      <trkpt lat="44.14256" lon="3.14249">
        <ele>830.59997558594</ele>
        <time>2010-10-24T05:32:45Z</time>
      </trkpt>
      <trkpt lat="44.14273" lon="3.14262">
        <ele>831.20001220703</ele>
        <time>2010-10-24T05:32:52Z</time>
      </trkpt>
      <trkpt lat="44.14289" lon="3.14278">
        <ele>831.79998779297</ele>
        <time>2010-10-24T05:32:59Z</time>
      </trkpt>
      <trkpt lat="44.14302" lon="3.14299">
        <ele>832.40002441406</ele>
        <time>2010-10-24T05:33:06Z</time>
      </trkpt>
      <trkpt lat="44.14317" lon="3.14319">
        <ele>833</ele>
        <time>2010-10-24T05:33:13Z</time>
      </trkpt>
      <trkpt lat="44.14336" lon="3.14331">
        <ele>832.79998779297</ele>
        <time>2010-10-24T05:33:19Z</time>
      </trkpt>
      <trkpt lat="44.14355" lon="3.14336">
        <ele>832.59997558594</ele>
        <time>2010-10-24T05:33:25Z</time>
      </trkpt>
      <trkpt lat="44.14376" lon="3.14339">
        <ele>832.40002441406</ele>
        <time>2010-10-24T05:33:31Z</time>
      </trkpt>
      <trkpt lat="44.14395" lon="3.14341">
        <ele>832.40002441406</ele>
        <time>2010-10-24T05:33:37Z</time>
      </trkpt>
      <trkpt lat="44.14415" lon="3.14344">
        <ele>832.20001220703</ele>
        <time>2010-10-24T05:33:44Z</time>
      </trkpt>
      <trkpt lat="44.14435" lon="3.1435">
        <ele>832.20001220703</ele>
        <time>2010-10-24T05:33:51Z</time>
      </trkpt>
      <trkpt lat="44.14454" lon="3.14358">
        <ele>832.20001220703</ele>
        <time>2010-10-24T05:33:57Z</time>
      </trkpt>
      <trkpt lat="44.14468" lon="3.14374">
        <ele>832.20001220703</ele>
        <time>2010-10-24T05:34:03Z</time>
      </trkpt>
      <trkpt lat="44.14482" lon="3.14394">
        <ele>832.20001220703</ele>
        <time>2010-10-24T05:34:10Z</time>
      </trkpt>
      <trkpt lat="44.14496" lon="3.14413">
        <ele>832</ele>
        <time>2010-10-24T05:34:16Z</time>
      </trkpt>
      <trkpt lat="44.14511" lon="3.14434">
        <ele>832</ele>
        <time>2010-10-24T05:34:23Z</time>
      </trkpt>
      <trkpt lat="44.14524" lon="3.14452">
        <ele>832.20001220703</ele>
        <time>2010-10-24T05:34:30Z</time>
      </trkpt>
      <trkpt lat="44.14542" lon="3.14463">
        <ele>832.40002441406</ele>
        <time>2010-10-24T05:34:36Z</time>
      </trkpt>
      <trkpt lat="44.14562" lon="3.14469">
        <ele>832.79998779297</ele>
        <time>2010-10-24T05:34:43Z</time>
      </trkpt>
      <trkpt lat="44.14581" lon="3.14469">
        <ele>833.40002441406</ele>
        <time>2010-10-24T05:34:50Z</time>
      </trkpt>
      <trkpt lat="44.14598" lon="3.14463">
        <ele>834.59997558594</ele>
        <time>2010-10-24T05:34:57Z</time>
      </trkpt>
      <trkpt lat="44.14617" lon="3.14459">
        <ele>836.20001220703</ele>
        <time>2010-10-24T05:35:04Z</time>
      </trkpt>
      <trkpt lat="44.14634" lon="3.14466">
        <ele>837.59997558594</ele>
        <time>2010-10-24T05:35:10Z</time>
      </trkpt>
      <trkpt lat="44.14654" lon="3.14473">
        <ele>839.20001220703</ele>
        <time>2010-10-24T05:35:17Z</time>
      </trkpt>
      <trkpt lat="44.14673" lon="3.14478">
        <ele>840.59997558594</ele>
        <time>2010-10-24T05:35:24Z</time>
      </trkpt>
      <trkpt lat="44.14689" lon="3.14488">
        <ele>841.79998779297</ele>
        <time>2010-10-24T05:35:31Z</time>
      </trkpt>
      <trkpt lat="44.14709" lon="3.14495">
        <ele>843.59997558594</ele>
        <time>2010-10-24T05:35:39Z</time>
      </trkpt>
      <trkpt lat="44.14726" lon="3.14503">
        <ele>844.59997558594</ele>
        <time>2010-10-24T05:35:46Z</time>
      </trkpt>
      <trkpt lat="44.14742" lon="3.14517">
        <ele>844.79998779297</ele>
        <time>2010-10-24T05:35:52Z</time>
      </trkpt>
      <trkpt lat="44.14757" lon="3.14535">
        <ele>844.79998779297</ele>
        <time>2010-10-24T05:35:58Z</time>
      </trkpt>
      <trkpt lat="44.1477" lon="3.14552">
        <ele>844.59997558594</ele>
        <time>2010-10-24T05:36:04Z</time>
      </trkpt>
      <trkpt lat="44.14784" lon="3.14571">
        <ele>844.59997558594</ele>
        <time>2010-10-24T05:36:11Z</time>
      </trkpt>
      <trkpt lat="44.14799" lon="3.14586">
        <ele>844.59997558594</ele>
        <time>2010-10-24T05:36:18Z</time>
      </trkpt>
      <trkpt lat="44.14811" lon="3.14608">
        <ele>844.59997558594</ele>
        <time>2010-10-24T05:36:25Z</time>
      </trkpt>
      <trkpt lat="44.14824" lon="3.14629">
        <ele>844.40002441406</ele>
        <time>2010-10-24T05:36:33Z</time>
      </trkpt>
      <trkpt lat="44.14835" lon="3.14651">
        <ele>844.20001220703</ele>
        <time>2010-10-24T05:36:39Z</time>
      </trkpt>
      <trkpt lat="44.14845" lon="3.14674">
        <ele>843.79998779297</ele>
        <time>2010-10-24T05:36:46Z</time>
      </trkpt>
      <trkpt lat="44.14854" lon="3.14696">
        <ele>843.40002441406</ele>
        <time>2010-10-24T05:36:53Z</time>
      </trkpt>
      <trkpt lat="44.14862" lon="3.14719">
        <ele>843</ele>
        <time>2010-10-24T05:37:00Z</time>
      </trkpt>
      <trkpt lat="44.14872" lon="3.14743">
        <ele>842.79998779297</ele>
        <time>2010-10-24T05:37:07Z</time>
      </trkpt>
      <trkpt lat="44.14881" lon="3.14765">
        <ele>842.59997558594</ele>
        <time>2010-10-24T05:37:13Z</time>
      </trkpt>
      <trkpt lat="44.14893" lon="3.14785">
        <ele>842.40002441406</ele>
        <time>2010-10-24T05:37:19Z</time>
      </trkpt>
      <trkpt lat="44.14904" lon="3.14806">
        <ele>842</ele>
        <time>2010-10-24T05:37:25Z</time>
      </trkpt>
      <trkpt lat="44.14915" lon="3.14826">
        <ele>841.79998779297</ele>
        <time>2010-10-24T05:37:31Z</time>
      </trkpt>
      <trkpt lat="44.14929" lon="3.14844">
        <ele>841.79998779297</ele>
        <time>2010-10-24T05:37:37Z</time>
      </trkpt>
      <trkpt lat="44.14944" lon="3.14863">
        <ele>841.79998779297</ele>
        <time>2010-10-24T05:37:43Z</time>
      </trkpt>
      <trkpt lat="44.1495" lon="3.14877">
        <ele>841.59997558594</ele>
        <time>2010-10-24T05:37:47Z</time>
      </trkpt>
      <trkpt lat="44.14954" lon="3.14888">
        <ele>841.59997558594</ele>
        <time>2010-10-24T05:37:50Z</time>
      </trkpt>
      <trkpt lat="44.14967" lon="3.14893">
        <ele>841.79998779297</ele>
        <time>2010-10-24T05:37:55Z</time>
      </trkpt>
      <trkpt lat="44.1497" lon="3.14893">
        <ele>841.79998779297</ele>
        <time>2010-10-24T05:37:56Z</time>
      </trkpt>
      <trkpt lat="44.14975" lon="3.14894">
        <ele>842</ele>
        <time>2010-10-24T05:37:58Z</time>
      </trkpt>
      <trkpt lat="44.14989" lon="3.14885">
        <ele>842.59997558594</ele>
        <time>2010-10-24T05:38:03Z</time>
      </trkpt>
      <trkpt lat="44.15002" lon="3.14888">
        <ele>843.20001220703</ele>
        <time>2010-10-24T05:38:07Z</time>
      </trkpt>
      <trkpt lat="44.15007" lon="3.14894">
        <ele>843.20001220703</ele>
        <time>2010-10-24T05:38:09Z</time>
      </trkpt>
      <trkpt lat="44.15019" lon="3.14916">
        <ele>843.20001220703</ele>
        <time>2010-10-24T05:38:16Z</time>
      </trkpt>
      <trkpt lat="44.15032" lon="3.14938">
        <ele>843</ele>
        <time>2010-10-24T05:38:23Z</time>
      </trkpt>
      <trkpt lat="44.15046" lon="3.14955">
        <ele>843</ele>
        <time>2010-10-24T05:38:30Z</time>
      </trkpt>
      <trkpt lat="44.15066" lon="3.14952">
        <ele>843.59997558594</ele>
        <time>2010-10-24T05:38:37Z</time>
      </trkpt>
      <trkpt lat="44.15086" lon="3.14945">
        <ele>844.79998779297</ele>
        <time>2010-10-24T05:38:44Z</time>
      </trkpt>
      <trkpt lat="44.15106" lon="3.14939">
        <ele>846.40002441406</ele>
        <time>2010-10-24T05:38:51Z</time>
      </trkpt>
      <trkpt lat="44.15124" lon="3.1493">
        <ele>848</ele>
        <time>2010-10-24T05:38:57Z</time>
      </trkpt>
      <trkpt lat="44.15142" lon="3.14934">
        <ele>848.79998779297</ele>
        <time>2010-10-24T05:39:03Z</time>
      </trkpt>
      <trkpt lat="44.15146" lon="3.14942">
        <ele>848.79998779297</ele>
        <time>2010-10-24T05:39:05Z</time>
      </trkpt>
      <trkpt lat="44.15151" lon="3.14959">
        <ele>848.79998779297</ele>
        <time>2010-10-24T05:39:09Z</time>
      </trkpt>
      <trkpt lat="44.15157" lon="3.14969">
        <ele>848.59997558594</ele>
        <time>2010-10-24T05:39:12Z</time>
      </trkpt>
      <trkpt lat="44.15164" lon="3.1498">
        <ele>848.40002441406</ele>
        <time>2010-10-24T05:39:15Z</time>
      </trkpt>
      <trkpt lat="44.15181" lon="3.14995">
        <ele>848</ele>
        <time>2010-10-24T05:39:21Z</time>
      </trkpt>
      <trkpt lat="44.15198" lon="3.15008">
        <ele>847.59997558594</ele>
        <time>2010-10-24T05:39:27Z</time>
      </trkpt>
      <trkpt lat="44.15216" lon="3.15024">
        <ele>847.20001220703</ele>
        <time>2010-10-24T05:39:34Z</time>
      </trkpt>
      <trkpt lat="44.15234" lon="3.15034">
        <ele>846.79998779297</ele>
        <time>2010-10-24T05:39:40Z</time>
      </trkpt>
      <trkpt lat="44.15251" lon="3.15041">
        <ele>846.59997558594</ele>
        <time>2010-10-24T05:39:46Z</time>
      </trkpt>
      <trkpt lat="44.15269" lon="3.1505">
        <ele>846.20001220703</ele>
        <time>2010-10-24T05:39:52Z</time>
      </trkpt>
      <trkpt lat="44.15287" lon="3.15057">
        <ele>846.20001220703</ele>
        <time>2010-10-24T05:39:58Z</time>
      </trkpt>
      <trkpt lat="44.15305" lon="3.15063">
        <ele>846</ele>
        <time>2010-10-24T05:40:04Z</time>
      </trkpt>
      <trkpt lat="44.15324" lon="3.15074">
        <ele>845.79998779297</ele>
        <time>2010-10-24T05:40:11Z</time>
      </trkpt>
      <trkpt lat="44.15344" lon="3.15082">
        <ele>845.59997558594</ele>
        <time>2010-10-24T05:40:18Z</time>
      </trkpt>
      <trkpt lat="44.15362" lon="3.15083">
        <ele>845.59997558594</ele>
        <time>2010-10-24T05:40:24Z</time>
      </trkpt>
      <trkpt lat="44.15382" lon="3.15092">
        <ele>845.59997558594</ele>
        <time>2010-10-24T05:40:32Z</time>
      </trkpt>
      <trkpt lat="44.154" lon="3.15102">
        <ele>846.20001220703</ele>
        <time>2010-10-24T05:40:40Z</time>
      </trkpt>
      <trkpt lat="44.15417" lon="3.15115">
        <ele>847.59997558594</ele>
        <time>2010-10-24T05:40:49Z</time>
      </trkpt>
      <trkpt lat="44.15435" lon="3.15121">
        <ele>848.79998779297</ele>
        <time>2010-10-24T05:40:56Z</time>
      </trkpt>
      <trkpt lat="44.15453" lon="3.15125">
        <ele>849.40002441406</ele>
        <time>2010-10-24T05:41:02Z</time>
      </trkpt>
      <trkpt lat="44.15467" lon="3.15105">
        <ele>849.79998779297</ele>
        <time>2010-10-24T05:41:09Z</time>
      </trkpt>
      <trkpt lat="44.15484" lon="3.15087">
        <ele>849.59997558594</ele>
        <time>2010-10-24T05:41:16Z</time>
      </trkpt>
      <trkpt lat="44.15499" lon="3.15071">
        <ele>849.59997558594</ele>
        <time>2010-10-24T05:41:22Z</time>
      </trkpt>
      <trkpt lat="44.15517" lon="3.15062">
        <ele>849.20001220703</ele>
        <time>2010-10-24T05:41:28Z</time>
      </trkpt>
      <trkpt lat="44.15536" lon="3.15058">
        <ele>849</ele>
        <time>2010-10-24T05:41:34Z</time>
      </trkpt>
      <trkpt lat="44.15549" lon="3.15079">
        <ele>848.59997558594</ele>
        <time>2010-10-24T05:41:40Z</time>
      </trkpt>
      <trkpt lat="44.15559" lon="3.151">
        <ele>848</ele>
        <time>2010-10-24T05:41:46Z</time>
      </trkpt>
      <trkpt lat="44.15575" lon="3.15114">
        <ele>847.20001220703</ele>
        <time>2010-10-24T05:41:52Z</time>
      </trkpt>
      <trkpt lat="44.15591" lon="3.15132">
        <ele>846.40002441406</ele>
        <time>2010-10-24T05:41:58Z</time>
      </trkpt>
      <trkpt lat="44.15609" lon="3.15144">
        <ele>845.40002441406</ele>
        <time>2010-10-24T05:42:04Z</time>
      </trkpt>
      <trkpt lat="44.15625" lon="3.1516">
        <ele>844.20001220703</ele>
        <time>2010-10-24T05:42:11Z</time>
      </trkpt>
      <trkpt lat="44.15639" lon="3.15178">
        <ele>843</ele>
        <time>2010-10-24T05:42:17Z</time>
      </trkpt>
      <trkpt lat="44.15654" lon="3.15196">
        <ele>841.79998779297</ele>
        <time>2010-10-24T05:42:23Z</time>
      </trkpt>
      <trkpt lat="44.15665" lon="3.15216">
        <ele>840.79998779297</ele>
        <time>2010-10-24T05:42:28Z</time>
      </trkpt>
      <trkpt lat="44.15675" lon="3.15239">
        <ele>839.59997558594</ele>
        <time>2010-10-24T05:42:34Z</time>
      </trkpt>
      <trkpt lat="44.15687" lon="3.1526">
        <ele>838.40002441406</ele>
        <time>2010-10-24T05:42:40Z</time>
      </trkpt>
      <trkpt lat="44.15703" lon="3.15277">
        <ele>837.40002441406</ele>
        <time>2010-10-24T05:42:46Z</time>
      </trkpt>
      <trkpt lat="44.15717" lon="3.15298">
        <ele>835.79998779297</ele>
        <time>2010-10-24T05:42:53Z</time>
      </trkpt>
      <trkpt lat="44.15728" lon="3.15319">
        <ele>834.59997558594</ele>
        <time>2010-10-24T05:42:59Z</time>
      </trkpt>
      <trkpt lat="44.15738" lon="3.15338">
        <ele>833.40002441406</ele>
        <time>2010-10-24T05:43:05Z</time>
      </trkpt>
      <trkpt lat="44.15748" lon="3.15361">
        <ele>832.20001220703</ele>
        <time>2010-10-24T05:43:12Z</time>
      </trkpt>
      <trkpt lat="44.15757" lon="3.15382">
        <ele>831</ele>
        <time>2010-10-24T05:43:19Z</time>
      </trkpt>
      <trkpt lat="44.15769" lon="3.15406">
        <ele>830.40002441406</ele>
        <time>2010-10-24T05:43:27Z</time>
      </trkpt>
      <trkpt lat="44.15787" lon="3.15416">
        <ele>830.20001220703</ele>
        <time>2010-10-24T05:43:35Z</time>
      </trkpt>
      <trkpt lat="44.15805" lon="3.15426">
        <ele>831</ele>
        <time>2010-10-24T05:43:44Z</time>
      </trkpt>
      <trkpt lat="44.15822" lon="3.15442">
        <ele>832.59997558594</ele>
        <time>2010-10-24T05:43:53Z</time>
      </trkpt>
      <trkpt lat="44.15833" lon="3.15463">
        <ele>833.79998779297</ele>
        <time>2010-10-24T05:44:00Z</time>
      </trkpt>
      <trkpt lat="44.15844" lon="3.15486">
        <ele>835</ele>
        <time>2010-10-24T05:44:08Z</time>
      </trkpt>
      <trkpt lat="44.15853" lon="3.15509">
        <ele>835.59997558594</ele>
        <time>2010-10-24T05:44:15Z</time>
      </trkpt>
      <trkpt lat="44.15863" lon="3.15531">
        <ele>835.79998779297</ele>
        <time>2010-10-24T05:44:22Z</time>
      </trkpt>
      <trkpt lat="44.15866" lon="3.15557">
        <ele>836.20001220703</ele>
        <time>2010-10-24T05:44:30Z</time>
      </trkpt>
      <trkpt lat="44.15866" lon="3.15583">
        <ele>837.59997558594</ele>
        <time>2010-10-24T05:44:37Z</time>
      </trkpt>
      <trkpt lat="44.15866" lon="3.15609">
        <ele>839.20001220703</ele>
        <time>2010-10-24T05:44:43Z</time>
      </trkpt>
      <trkpt lat="44.15862" lon="3.15636">
        <ele>840.59997558594</ele>
        <time>2010-10-24T05:44:49Z</time>
      </trkpt>
      <trkpt lat="44.15855" lon="3.15661">
        <ele>841.40002441406</ele>
        <time>2010-10-24T05:44:55Z</time>
      </trkpt>
      <trkpt lat="44.15845" lon="3.15681">
        <ele>841.79998779297</ele>
        <time>2010-10-24T05:45:00Z</time>
      </trkpt>
      <trkpt lat="44.15835" lon="3.15706">
        <ele>841.59997558594</ele>
        <time>2010-10-24T05:45:06Z</time>
      </trkpt>
      <trkpt lat="44.15826" lon="3.1573">
        <ele>841.40002441406</ele>
        <time>2010-10-24T05:45:12Z</time>
      </trkpt>
      <trkpt lat="44.15816" lon="3.15754">
        <ele>841.20001220703</ele>
        <time>2010-10-24T05:45:18Z</time>
      </trkpt>
      <trkpt lat="44.1581" lon="3.15781">
        <ele>840.79998779297</ele>
        <time>2010-10-24T05:45:24Z</time>
      </trkpt>
      <trkpt lat="44.15815" lon="3.15806">
        <ele>840.40002441406</ele>
        <time>2010-10-24T05:45:30Z</time>
      </trkpt>
      <trkpt lat="44.15826" lon="3.15831">
        <ele>840</ele>
        <time>2010-10-24T05:45:36Z</time>
      </trkpt>
      <trkpt lat="44.15837" lon="3.15853">
        <ele>839.59997558594</ele>
        <time>2010-10-24T05:45:42Z</time>
      </trkpt>
      <trkpt lat="44.15852" lon="3.15871">
        <ele>839</ele>
        <time>2010-10-24T05:45:48Z</time>
      </trkpt>
      <trkpt lat="44.15867" lon="3.1589">
        <ele>838.40002441406</ele>
        <time>2010-10-24T05:45:54Z</time>
      </trkpt>
      <trkpt lat="44.15882" lon="3.15905">
        <ele>837.79998779297</ele>
        <time>2010-10-24T05:46:00Z</time>
      </trkpt>
      <trkpt lat="44.15898" lon="3.15917">
        <ele>837.20001220703</ele>
        <time>2010-10-24T05:46:06Z</time>
      </trkpt>
      <trkpt lat="44.15917" lon="3.15916">
        <ele>837</ele>
        <time>2010-10-24T05:46:12Z</time>
      </trkpt>
      <trkpt lat="44.15935" lon="3.15905">
        <ele>836.79998779297</ele>
        <time>2010-10-24T05:46:18Z</time>
      </trkpt>
      <trkpt lat="44.15954" lon="3.15895">
        <ele>836.79998779297</ele>
        <time>2010-10-24T05:46:25Z</time>
      </trkpt>
      <trkpt lat="44.15973" lon="3.15883">
        <ele>837</ele>
        <time>2010-10-24T05:46:32Z</time>
      </trkpt>
      <trkpt lat="44.15992" lon="3.15872">
        <ele>837.40002441406</ele>
        <time>2010-10-24T05:46:39Z</time>
      </trkpt>
      <trkpt lat="44.16008" lon="3.15863">
        <ele>838</ele>
        <time>2010-10-24T05:46:45Z</time>
      </trkpt>
      <trkpt lat="44.16026" lon="3.15853">
        <ele>838.79998779297</ele>
        <time>2010-10-24T05:46:51Z</time>
      </trkpt>
      <trkpt lat="44.16044" lon="3.15846">
        <ele>839.40002441406</ele>
        <time>2010-10-24T05:46:57Z</time>
      </trkpt>
      <trkpt lat="44.16063" lon="3.15839">
        <ele>840</ele>
        <time>2010-10-24T05:47:03Z</time>
      </trkpt>
      <trkpt lat="44.16081" lon="3.15837">
        <ele>840.20001220703</ele>
        <time>2010-10-24T05:47:09Z</time>
      </trkpt>
      <trkpt lat="44.16098" lon="3.15846">
        <ele>840.20001220703</ele>
        <time>2010-10-24T05:47:15Z</time>
      </trkpt>
      <trkpt lat="44.16113" lon="3.15863">
        <ele>840</ele>
        <time>2010-10-24T05:47:21Z</time>
      </trkpt>
      <trkpt lat="44.16129" lon="3.15876">
        <ele>839.79998779297</ele>
        <time>2010-10-24T05:47:27Z</time>
      </trkpt>
      <trkpt lat="44.16144" lon="3.15891">
        <ele>839.59997558594</ele>
        <time>2010-10-24T05:47:33Z</time>
      </trkpt>
      <trkpt lat="44.16161" lon="3.15906">
        <ele>839.20001220703</ele>
        <time>2010-10-24T05:47:39Z</time>
      </trkpt>
      <trkpt lat="44.16179" lon="3.15919">
        <ele>839</ele>
        <time>2010-10-24T05:47:45Z</time>
      </trkpt>
      <trkpt lat="44.16196" lon="3.15934">
        <ele>839</ele>
        <time>2010-10-24T05:47:51Z</time>
      </trkpt>
      <trkpt lat="44.16208" lon="3.15953">
        <ele>838.79998779297</ele>
        <time>2010-10-24T05:47:57Z</time>
      </trkpt>
      <trkpt lat="44.16222" lon="3.15969">
        <ele>838.40002441406</ele>
        <time>2010-10-24T05:48:03Z</time>
      </trkpt>
      <trkpt lat="44.16238" lon="3.15983">
        <ele>838.20001220703</ele>
        <time>2010-10-24T05:48:09Z</time>
      </trkpt>
      <trkpt lat="44.16253" lon="3.15998">
        <ele>838.20001220703</ele>
        <time>2010-10-24T05:48:15Z</time>
      </trkpt>
      <trkpt lat="44.16268" lon="3.16013">
        <ele>837.79998779297</ele>
        <time>2010-10-24T05:48:21Z</time>
      </trkpt>
      <trkpt lat="44.16285" lon="3.16025">
        <ele>837.59997558594</ele>
        <time>2010-10-24T05:48:27Z</time>
      </trkpt>
      <trkpt lat="44.16302" lon="3.16037">
        <ele>837.20001220703</ele>
        <time>2010-10-24T05:48:33Z</time>
      </trkpt>
      <trkpt lat="44.16319" lon="3.16048">
        <ele>836.79998779297</ele>
        <time>2010-10-24T05:48:39Z</time>
      </trkpt>
      <trkpt lat="44.16337" lon="3.16061">
        <ele>836.40002441406</ele>
        <time>2010-10-24T05:48:46Z</time>
      </trkpt>
      <trkpt lat="44.16353" lon="3.16073">
        <ele>836.20001220703</ele>
        <time>2010-10-24T05:48:53Z</time>
      </trkpt>
      <trkpt lat="44.1637" lon="3.16084">
        <ele>836</ele>
        <time>2010-10-24T05:49:00Z</time>
      </trkpt>
      <trkpt lat="44.16388" lon="3.16091">
        <ele>836.20001220703</ele>
        <time>2010-10-24T05:49:07Z</time>
      </trkpt>
      <trkpt lat="44.16407" lon="3.16094">
        <ele>836.40002441406</ele>
        <time>2010-10-24T05:49:13Z</time>
      </trkpt>
      <trkpt lat="44.16425" lon="3.16103">
        <ele>836.59997558594</ele>
        <time>2010-10-24T05:49:19Z</time>
      </trkpt>
      <trkpt lat="44.16446" lon="3.16107">
        <ele>836.79998779297</ele>
        <time>2010-10-24T05:49:26Z</time>
      </trkpt>
      <trkpt lat="44.16465" lon="3.16106">
        <ele>837.20001220703</ele>
        <time>2010-10-24T05:49:32Z</time>
      </trkpt>
      <trkpt lat="44.16483" lon="3.16104">
        <ele>837.79998779297</ele>
        <time>2010-10-24T05:49:38Z</time>
      </trkpt>
      <trkpt lat="44.16497" lon="3.16096">
        <ele>838.40002441406</ele>
        <time>2010-10-24T05:49:43Z</time>
      </trkpt>
      <trkpt lat="44.165" lon="3.16095">
        <ele>838.59997558594</ele>
        <time>2010-10-24T05:49:44Z</time>
      </trkpt>
      <trkpt lat="44.16515" lon="3.16101">
        <ele>839.20001220703</ele>
        <time>2010-10-24T05:49:49Z</time>
      </trkpt>
      <trkpt lat="44.16519" lon="3.16105">
        <ele>839.40002441406</ele>
        <time>2010-10-24T05:49:51Z</time>
      </trkpt>
      <trkpt lat="44.16524" lon="3.16109">
        <ele>839.79998779297</ele>
        <time>2010-10-24T05:49:53Z</time>
      </trkpt>
      <trkpt lat="44.16536" lon="3.16117">
        <ele>840.20001220703</ele>
        <time>2010-10-24T05:49:58Z</time>
      </trkpt>
      <trkpt lat="44.16555" lon="3.1612">
        <ele>840.79998779297</ele>
        <time>2010-10-24T05:50:05Z</time>
      </trkpt>
      <trkpt lat="44.16575" lon="3.16115">
        <ele>841.40002441406</ele>
        <time>2010-10-24T05:50:12Z</time>
      </trkpt>
      <trkpt lat="44.16594" lon="3.16109">
        <ele>842</ele>
        <time>2010-10-24T05:50:18Z</time>
      </trkpt>
      <trkpt lat="44.1661" lon="3.16094">
        <ele>842</ele>
        <time>2010-10-24T05:50:24Z</time>
      </trkpt>
      <trkpt lat="44.16622" lon="3.16073">
        <ele>842</ele>
        <time>2010-10-24T05:50:30Z</time>
      </trkpt>
      <trkpt lat="44.16634" lon="3.16053">
        <ele>842</ele>
        <time>2010-10-24T05:50:36Z</time>
      </trkpt>
      <trkpt lat="44.16633" lon="3.16028">
        <ele>841.59997558594</ele>
        <time>2010-10-24T05:50:42Z</time>
      </trkpt>
      <trkpt lat="44.16629" lon="3.16006">
        <ele>841.40002441406</ele>
        <time>2010-10-24T05:50:47Z</time>
      </trkpt>
      <trkpt lat="44.16631" lon="3.16002">
        <ele>841.40002441406</ele>
        <time>2010-10-24T05:50:48Z</time>
      </trkpt>
      <trkpt lat="44.16643" lon="3.1598">
        <ele>841</ele>
        <time>2010-10-24T05:50:54Z</time>
      </trkpt>
      <trkpt lat="44.16653" lon="3.15955">
        <ele>840.59997558594</ele>
        <time>2010-10-24T05:51:00Z</time>
      </trkpt>
      <trkpt lat="44.16656" lon="3.15931">
        <ele>840.20001220703</ele>
        <time>2010-10-24T05:51:05Z</time>
      </trkpt>
      <trkpt lat="44.16666" lon="3.15909">
        <ele>840</ele>
        <time>2010-10-24T05:51:10Z</time>
      </trkpt>
      <trkpt lat="44.16682" lon="3.15894">
        <ele>839.59997558594</ele>
        <time>2010-10-24T05:51:16Z</time>
      </trkpt>
      <trkpt lat="44.16702" lon="3.15899">
        <ele>839</ele>
        <time>2010-10-24T05:51:22Z</time>
      </trkpt>
      <trkpt lat="44.1672" lon="3.15904">
        <ele>838.59997558594</ele>
        <time>2010-10-24T05:51:27Z</time>
      </trkpt>
      <trkpt lat="44.1674" lon="3.15908">
        <ele>838.20001220703</ele>
        <time>2010-10-24T05:51:33Z</time>
      </trkpt>
      <trkpt lat="44.16759" lon="3.15912">
        <ele>837.59997558594</ele>
        <time>2010-10-24T05:51:39Z</time>
      </trkpt>
      <trkpt lat="44.16777" lon="3.15918">
        <ele>837</ele>
        <time>2010-10-24T05:51:45Z</time>
      </trkpt>
      <trkpt lat="44.16797" lon="3.15923">
        <ele>836.20001220703</ele>
        <time>2010-10-24T05:51:52Z</time>
      </trkpt>
      <trkpt lat="44.16814" lon="3.15928">
        <ele>835.79998779297</ele>
        <time>2010-10-24T05:51:58Z</time>
      </trkpt>
      <trkpt lat="44.16832" lon="3.15929">
        <ele>835.59997558594</ele>
        <time>2010-10-24T05:52:04Z</time>
      </trkpt>
      <trkpt lat="44.16853" lon="3.15927">
        <ele>835.20001220703</ele>
        <time>2010-10-24T05:52:11Z</time>
      </trkpt>
      <trkpt lat="44.16871" lon="3.15924">
        <ele>835</ele>
        <time>2010-10-24T05:52:17Z</time>
      </trkpt>
      <trkpt lat="44.16888" lon="3.15916">
        <ele>835</ele>
        <time>2010-10-24T05:52:23Z</time>
      </trkpt>
      <trkpt lat="44.16907" lon="3.15904">
        <ele>835.40002441406</ele>
        <time>2010-10-24T05:52:30Z</time>
      </trkpt>
      <trkpt lat="44.16925" lon="3.15893">
        <ele>835.79998779297</ele>
        <time>2010-10-24T05:52:37Z</time>
      </trkpt>
      <trkpt lat="44.16928" lon="3.15893">
        <ele>835.79998779297</ele>
        <time>2010-10-24T05:52:38Z</time>
      </trkpt>
      <trkpt lat="44.16945" lon="3.1589">
        <ele>836.20001220703</ele>
        <time>2010-10-24T05:52:44Z</time>
      </trkpt>
      <trkpt lat="44.16965" lon="3.15885">
        <ele>836.40002441406</ele>
        <time>2010-10-24T05:52:51Z</time>
      </trkpt>
      <trkpt lat="44.16982" lon="3.15879">
        <ele>836.40002441406</ele>
        <time>2010-10-24T05:52:57Z</time>
      </trkpt>
      <trkpt lat="44.17001" lon="3.15872">
        <ele>836.59997558594</ele>
        <time>2010-10-24T05:53:03Z</time>
      </trkpt>
      <trkpt lat="44.17019" lon="3.15864">
        <ele>836.79998779297</ele>
        <time>2010-10-24T05:53:09Z</time>
      </trkpt>
      <trkpt lat="44.17036" lon="3.15855">
        <ele>837.20001220703</ele>
        <time>2010-10-24T05:53:15Z</time>
      </trkpt>
      <trkpt lat="44.17054" lon="3.1585">
        <ele>837.59997558594</ele>
        <time>2010-10-24T05:53:21Z</time>
      </trkpt>
      <trkpt lat="44.17072" lon="3.15848">
        <ele>838.20001220703</ele>
        <time>2010-10-24T05:53:27Z</time>
      </trkpt>
      <trkpt lat="44.17093" lon="3.15848">
        <ele>839</ele>
        <time>2010-10-24T05:53:34Z</time>
      </trkpt>
      <trkpt lat="44.17112" lon="3.15853">
        <ele>839.59997558594</ele>
        <time>2010-10-24T05:53:41Z</time>
      </trkpt>
      <trkpt lat="44.17132" lon="3.15859">
        <ele>840</ele>
        <time>2010-10-24T05:53:48Z</time>
      </trkpt>
      <trkpt lat="44.17151" lon="3.15858">
        <ele>840.59997558594</ele>
        <time>2010-10-24T05:53:55Z</time>
      </trkpt>
      <trkpt lat="44.17169" lon="3.15848">
        <ele>841.20001220703</ele>
        <time>2010-10-24T05:54:02Z</time>
      </trkpt>
      <trkpt lat="44.17185" lon="3.15834">
        <ele>842.40002441406</ele>
        <time>2010-10-24T05:54:09Z</time>
      </trkpt>
      <trkpt lat="44.172" lon="3.15819">
        <ele>843.59997558594</ele>
        <time>2010-10-24T05:54:16Z</time>
      </trkpt>
      <trkpt lat="44.17213" lon="3.158">
        <ele>845</ele>
        <time>2010-10-24T05:54:23Z</time>
      </trkpt>
      <trkpt lat="44.17225" lon="3.15779">
        <ele>846.40002441406</ele>
        <time>2010-10-24T05:54:30Z</time>
      </trkpt>
      <trkpt lat="44.17239" lon="3.15757">
        <ele>847.59997558594</ele>
        <time>2010-10-24T05:54:38Z</time>
      </trkpt>
      <trkpt lat="44.17249" lon="3.15736">
        <ele>848.79998779297</ele>
        <time>2010-10-24T05:54:45Z</time>
      </trkpt>
      <trkpt lat="44.17257" lon="3.15712">
        <ele>849.79998779297</ele>
        <time>2010-10-24T05:54:52Z</time>
      </trkpt>
      <trkpt lat="44.17269" lon="3.15692">
        <ele>850.79998779297</ele>
        <time>2010-10-24T05:54:59Z</time>
      </trkpt>
      <trkpt lat="44.17287" lon="3.15697">
        <ele>851.79998779297</ele>
        <time>2010-10-24T05:55:06Z</time>
      </trkpt>
      <trkpt lat="44.17305" lon="3.15702">
        <ele>852.59997558594</ele>
        <time>2010-10-24T05:55:13Z</time>
      </trkpt>
      <trkpt lat="44.17324" lon="3.15704">
        <ele>853.40002441406</ele>
        <time>2010-10-24T05:55:20Z</time>
      </trkpt>
      <trkpt lat="44.17343" lon="3.15703">
        <ele>854.20001220703</ele>
        <time>2010-10-24T05:55:26Z</time>
      </trkpt>
      <trkpt lat="44.17362" lon="3.15704">
        <ele>854.79998779297</ele>
        <time>2010-10-24T05:55:32Z</time>
      </trkpt>
      <trkpt lat="44.17381" lon="3.15706">
        <ele>855.20001220703</ele>
        <time>2010-10-24T05:55:38Z</time>
      </trkpt>
      <trkpt lat="44.174" lon="3.15709">
        <ele>855.40002441406</ele>
        <time>2010-10-24T05:55:44Z</time>
      </trkpt>
      <trkpt lat="44.17417" lon="3.15716">
        <ele>855.20001220703</ele>
        <time>2010-10-24T05:55:50Z</time>
      </trkpt>
      <trkpt lat="44.17422" lon="3.15723">
        <ele>855.20001220703</ele>
        <time>2010-10-24T05:55:52Z</time>
      </trkpt>
      <trkpt lat="44.17422" lon="3.15742">
        <ele>855.20001220703</ele>
        <time>2010-10-24T05:55:56Z</time>
      </trkpt>
      <trkpt lat="44.17422" lon="3.15756">
        <ele>855.20001220703</ele>
        <time>2010-10-24T05:55:59Z</time>
      </trkpt>
      <trkpt lat="44.17422" lon="3.1577">
        <ele>855</ele>
        <time>2010-10-24T05:56:02Z</time>
      </trkpt>
      <trkpt lat="44.17423" lon="3.15799">
        <ele>855</ele>
        <time>2010-10-24T05:56:08Z</time>
      </trkpt>
      <trkpt lat="44.17422" lon="3.15826">
        <ele>854.79998779297</ele>
        <time>2010-10-24T05:56:14Z</time>
      </trkpt>
      <trkpt lat="44.17418" lon="3.15854">
        <ele>854.59997558594</ele>
        <time>2010-10-24T05:56:20Z</time>
      </trkpt>
      <trkpt lat="44.17418" lon="3.15878">
        <ele>854.20001220703</ele>
        <time>2010-10-24T05:56:25Z</time>
      </trkpt>
      <trkpt lat="44.17418" lon="3.15907">
        <ele>853.79998779297</ele>
        <time>2010-10-24T05:56:31Z</time>
      </trkpt>
      <trkpt lat="44.17417" lon="3.15934">
        <ele>853.40002441406</ele>
        <time>2010-10-24T05:56:37Z</time>
      </trkpt>
      <trkpt lat="44.17415" lon="3.15961">
        <ele>853</ele>
        <time>2010-10-24T05:56:43Z</time>
      </trkpt>
      <trkpt lat="44.17416" lon="3.15989">
        <ele>852.59997558594</ele>
        <time>2010-10-24T05:56:49Z</time>
      </trkpt>
      <trkpt lat="44.17416" lon="3.16015">
        <ele>852</ele>
        <time>2010-10-24T05:56:54Z</time>
      </trkpt>
      <trkpt lat="44.1742" lon="3.16042">
        <ele>851.40002441406</ele>
        <time>2010-10-24T05:57:00Z</time>
      </trkpt>
      <trkpt lat="44.17424" lon="3.16071">
        <ele>850.40002441406</ele>
        <time>2010-10-24T05:57:07Z</time>
      </trkpt>
      <trkpt lat="44.17425" lon="3.16098">
        <ele>849.59997558594</ele>
        <time>2010-10-24T05:57:13Z</time>
      </trkpt>
      <trkpt lat="44.17425" lon="3.16123">
        <ele>848.79998779297</ele>
        <time>2010-10-24T05:57:18Z</time>
      </trkpt>
      <trkpt lat="44.17422" lon="3.16152">
        <ele>848</ele>
        <time>2010-10-24T05:57:24Z</time>
      </trkpt>
      <trkpt lat="44.17417" lon="3.16179">
        <ele>847.20001220703</ele>
        <time>2010-10-24T05:57:30Z</time>
      </trkpt>
      <trkpt lat="44.17416" lon="3.16208">
        <ele>846.20001220703</ele>
        <time>2010-10-24T05:57:36Z</time>
      </trkpt>
      <trkpt lat="44.1742" lon="3.16232">
        <ele>845.40002441406</ele>
        <time>2010-10-24T05:57:41Z</time>
      </trkpt>
      <trkpt lat="44.17423" lon="3.1626">
        <ele>844.59997558594</ele>
        <time>2010-10-24T05:57:47Z</time>
      </trkpt>
      <trkpt lat="44.17426" lon="3.16286">
        <ele>844</ele>
        <time>2010-10-24T05:57:53Z</time>
      </trkpt>
      <trkpt lat="44.17433" lon="3.16312">
        <ele>843.20001220703</ele>
        <time>2010-10-24T05:57:59Z</time>
      </trkpt>
      <trkpt lat="44.17441" lon="3.16337">
        <ele>842.59997558594</ele>
        <time>2010-10-24T05:58:05Z</time>
      </trkpt>
      <trkpt lat="44.17451" lon="3.16361">
        <ele>842</ele>
        <time>2010-10-24T05:58:11Z</time>
      </trkpt>
      <trkpt lat="44.17463" lon="3.16383">
        <ele>841.20001220703</ele>
        <time>2010-10-24T05:58:17Z</time>
      </trkpt>
      <trkpt lat="44.17476" lon="3.16403">
        <ele>840.40002441406</ele>
        <time>2010-10-24T05:58:23Z</time>
      </trkpt>
      <trkpt lat="44.1749" lon="3.16422">
        <ele>839.59997558594</ele>
        <time>2010-10-24T05:58:29Z</time>
      </trkpt>
      <trkpt lat="44.17506" lon="3.16441">
        <ele>838.59997558594</ele>
        <time>2010-10-24T05:58:35Z</time>
      </trkpt>
      <trkpt lat="44.17519" lon="3.16459">
        <ele>837.79998779297</ele>
        <time>2010-10-24T05:58:40Z</time>
      </trkpt>
      <trkpt lat="44.17533" lon="3.16481">
        <ele>836.59997558594</ele>
        <time>2010-10-24T05:58:46Z</time>
      </trkpt>
      <trkpt lat="44.17548" lon="3.165">
        <ele>835.59997558594</ele>
        <time>2010-10-24T05:58:52Z</time>
      </trkpt>
      <trkpt lat="44.17562" lon="3.1652">
        <ele>834.40002441406</ele>
        <time>2010-10-24T05:58:58Z</time>
      </trkpt>
      <trkpt lat="44.1758" lon="3.16537">
        <ele>833.20001220703</ele>
        <time>2010-10-24T05:59:04Z</time>
      </trkpt>
      <trkpt lat="44.17597" lon="3.16549">
        <ele>832.20001220703</ele>
        <time>2010-10-24T05:59:10Z</time>
      </trkpt>
      <trkpt lat="44.17618" lon="3.16552">
        <ele>831</ele>
        <time>2010-10-24T05:59:16Z</time>
      </trkpt>
      <trkpt lat="44.17638" lon="3.16553">
        <ele>830</ele>
        <time>2010-10-24T05:59:22Z</time>
      </trkpt>
      <trkpt lat="44.17658" lon="3.1656">
        <ele>829.20001220703</ele>
        <time>2010-10-24T05:59:28Z</time>
      </trkpt>
      <trkpt lat="44.17677" lon="3.16564">
        <ele>828.20001220703</ele>
        <time>2010-10-24T05:59:34Z</time>
      </trkpt>
      <trkpt lat="44.17697" lon="3.16563">
        <ele>827.40002441406</ele>
        <time>2010-10-24T05:59:40Z</time>
      </trkpt>
      <trkpt lat="44.17716" lon="3.1656">
        <ele>826.59997558594</ele>
        <time>2010-10-24T05:59:46Z</time>
      </trkpt>
      <trkpt lat="44.17733" lon="3.16559">
        <ele>826</ele>
        <time>2010-10-24T05:59:51Z</time>
      </trkpt>
      <trkpt lat="44.17752" lon="3.16554">
        <ele>825.40002441406</ele>
        <time>2010-10-24T05:59:56Z</time>
      </trkpt>
      <trkpt lat="44.17768" lon="3.16541">
        <ele>824.59997558594</ele>
        <time>2010-10-24T06:00:01Z</time>
      </trkpt>
      <trkpt lat="44.17782" lon="3.16522">
        <ele>823.59997558594</ele>
        <time>2010-10-24T06:00:07Z</time>
      </trkpt>
      <trkpt lat="44.17799" lon="3.16505">
        <ele>822.40002441406</ele>
        <time>2010-10-24T06:00:13Z</time>
      </trkpt>
      <trkpt lat="44.17819" lon="3.16503">
        <ele>821.40002441406</ele>
        <time>2010-10-24T06:00:19Z</time>
      </trkpt>
      <trkpt lat="44.17832" lon="3.16523">
        <ele>820.40002441406</ele>
        <time>2010-10-24T06:00:25Z</time>
      </trkpt>
      <trkpt lat="44.17842" lon="3.16544">
        <ele>819.59997558594</ele>
        <time>2010-10-24T06:00:30Z</time>
      </trkpt>
      <trkpt lat="44.17854" lon="3.16568">
        <ele>818.40002441406</ele>
        <time>2010-10-24T06:00:36Z</time>
      </trkpt>
      <trkpt lat="44.17864" lon="3.16594">
        <ele>817.40002441406</ele>
        <time>2010-10-24T06:00:42Z</time>
      </trkpt>
      <trkpt lat="44.1787" lon="3.16617">
        <ele>816.59997558594</ele>
        <time>2010-10-24T06:00:47Z</time>
      </trkpt>
      <trkpt lat="44.17872" lon="3.16643">
        <ele>815.59997558594</ele>
        <time>2010-10-24T06:00:52Z</time>
      </trkpt>
      <trkpt lat="44.17877" lon="3.16669">
        <ele>814.40002441406</ele>
        <time>2010-10-24T06:00:58Z</time>
      </trkpt>
      <trkpt lat="44.17881" lon="3.16696">
        <ele>813.40002441406</ele>
        <time>2010-10-24T06:01:04Z</time>
      </trkpt>
      <trkpt lat="44.17884" lon="3.16725">
        <ele>812.20001220703</ele>
        <time>2010-10-24T06:01:10Z</time>
      </trkpt>
      <trkpt lat="44.17894" lon="3.16746">
        <ele>811.40002441406</ele>
        <time>2010-10-24T06:01:15Z</time>
      </trkpt>
      <trkpt lat="44.17905" lon="3.16771">
        <ele>810.40002441406</ele>
        <time>2010-10-24T06:01:21Z</time>
      </trkpt>
      <trkpt lat="44.17916" lon="3.16794">
        <ele>809.59997558594</ele>
        <time>2010-10-24T06:01:27Z</time>
      </trkpt>
      <trkpt lat="44.17928" lon="3.16817">
        <ele>809</ele>
        <time>2010-10-24T06:01:33Z</time>
      </trkpt>
      <trkpt lat="44.17938" lon="3.1684">
        <ele>808.40002441406</ele>
        <time>2010-10-24T06:01:39Z</time>
      </trkpt>
      <trkpt lat="44.1795" lon="3.16861">
        <ele>807.79998779297</ele>
        <time>2010-10-24T06:01:45Z</time>
      </trkpt>
      <trkpt lat="44.17967" lon="3.16877">
        <ele>807.40002441406</ele>
        <time>2010-10-24T06:01:51Z</time>
      </trkpt>
      <trkpt lat="44.17981" lon="3.16898">
        <ele>807</ele>
        <time>2010-10-24T06:01:57Z</time>
      </trkpt>
      <trkpt lat="44.17992" lon="3.1692">
        <ele>806.40002441406</ele>
        <time>2010-10-24T06:02:03Z</time>
      </trkpt>
      <trkpt lat="44.18006" lon="3.1694">
        <ele>806</ele>
        <time>2010-10-24T06:02:09Z</time>
      </trkpt>
      <trkpt lat="44.18025" lon="3.16951">
        <ele>805.40002441406</ele>
        <time>2010-10-24T06:02:15Z</time>
      </trkpt>
      <trkpt lat="44.18043" lon="3.16962">
        <ele>805</ele>
        <time>2010-10-24T06:02:21Z</time>
      </trkpt>
      <trkpt lat="44.18061" lon="3.16972">
        <ele>804.40002441406</ele>
        <time>2010-10-24T06:02:27Z</time>
      </trkpt>
      <trkpt lat="44.18079" lon="3.16979">
        <ele>803.79998779297</ele>
        <time>2010-10-24T06:02:33Z</time>
      </trkpt>
      <trkpt lat="44.18098" lon="3.1698">
        <ele>803.40002441406</ele>
        <time>2010-10-24T06:02:39Z</time>
      </trkpt>
      <trkpt lat="44.18114" lon="3.16992">
        <ele>803</ele>
        <time>2010-10-24T06:02:45Z</time>
      </trkpt>
      <trkpt lat="44.18131" lon="3.17005">
        <ele>802.79998779297</ele>
        <time>2010-10-24T06:02:51Z</time>
      </trkpt>
      <trkpt lat="44.18151" lon="3.17014">
        <ele>802.20001220703</ele>
        <time>2010-10-24T06:02:57Z</time>
      </trkpt>
      <trkpt lat="44.18171" lon="3.17021">
        <ele>801.59997558594</ele>
        <time>2010-10-24T06:03:03Z</time>
      </trkpt>
      <trkpt lat="44.1819" lon="3.17027">
        <ele>801.20001220703</ele>
        <time>2010-10-24T06:03:09Z</time>
      </trkpt>
      <trkpt lat="44.18208" lon="3.17038">
        <ele>800.59997558594</ele>
        <time>2010-10-24T06:03:15Z</time>
      </trkpt>
      <trkpt lat="44.18226" lon="3.17052">
        <ele>799.79998779297</ele>
        <time>2010-10-24T06:03:21Z</time>
      </trkpt>
      <trkpt lat="44.18244" lon="3.17063">
        <ele>799</ele>
        <time>2010-10-24T06:03:27Z</time>
      </trkpt>
      <trkpt lat="44.18254" lon="3.17084">
        <ele>798</ele>
        <time>2010-10-24T06:03:33Z</time>
      </trkpt>
      <trkpt lat="44.18267" lon="3.17107">
        <ele>797</ele>
        <time>2010-10-24T06:03:39Z</time>
      </trkpt>
      <trkpt lat="44.18283" lon="3.17122">
        <ele>796.40002441406</ele>
        <time>2010-10-24T06:03:45Z</time>
      </trkpt>
      <trkpt lat="44.183" lon="3.17136">
        <ele>795.59997558594</ele>
        <time>2010-10-24T06:03:51Z</time>
      </trkpt>
      <trkpt lat="44.18319" lon="3.17147">
        <ele>794.79998779297</ele>
        <time>2010-10-24T06:03:57Z</time>
      </trkpt>
      <trkpt lat="44.18339" lon="3.17154">
        <ele>794</ele>
        <time>2010-10-24T06:04:03Z</time>
      </trkpt>
      <trkpt lat="44.18359" lon="3.17156">
        <ele>793.40002441406</ele>
        <time>2010-10-24T06:04:09Z</time>
      </trkpt>
      <trkpt lat="44.18379" lon="3.17155">
        <ele>792.79998779297</ele>
        <time>2010-10-24T06:04:15Z</time>
      </trkpt>
      <trkpt lat="44.18398" lon="3.17151">
        <ele>792.40002441406</ele>
        <time>2010-10-24T06:04:21Z</time>
      </trkpt>
      <trkpt lat="44.18416" lon="3.17148">
        <ele>792</ele>
        <time>2010-10-24T06:04:27Z</time>
      </trkpt>
      <trkpt lat="44.18427" lon="3.17159">
        <ele>791.79998779297</ele>
        <time>2010-10-24T06:04:31Z</time>
      </trkpt>
      <trkpt lat="44.18425" lon="3.17168">
        <ele>791.59997558594</ele>
        <time>2010-10-24T06:04:33Z</time>
      </trkpt>
      <trkpt lat="44.18423" lon="3.17175">
        <ele>791.40002441406</ele>
        <time>2010-10-24T06:04:35Z</time>
      </trkpt>
      <trkpt lat="44.18418" lon="3.17192">
        <ele>791</ele>
        <time>2010-10-24T06:04:39Z</time>
      </trkpt>
      <trkpt lat="44.18412" lon="3.17218">
        <ele>790.59997558594</ele>
        <time>2010-10-24T06:04:45Z</time>
      </trkpt>
      <trkpt lat="44.18403" lon="3.17245">
        <ele>790.20001220703</ele>
        <time>2010-10-24T06:04:51Z</time>
      </trkpt>
      <trkpt lat="44.18397" lon="3.1727">
        <ele>789.79998779297</ele>
        <time>2010-10-24T06:04:57Z</time>
      </trkpt>
      <trkpt lat="44.18393" lon="3.17297">
        <ele>789.59997558594</ele>
        <time>2010-10-24T06:05:03Z</time>
      </trkpt>
      <trkpt lat="44.18387" lon="3.17323">
        <ele>789.20001220703</ele>
        <time>2010-10-24T06:05:09Z</time>
      </trkpt>
      <trkpt lat="44.18384" lon="3.1735">
        <ele>789</ele>
        <time>2010-10-24T06:05:15Z</time>
      </trkpt>
      <trkpt lat="44.18381" lon="3.17377">
        <ele>788.79998779297</ele>
        <time>2010-10-24T06:05:21Z</time>
      </trkpt>
      <trkpt lat="44.18386" lon="3.17404">
        <ele>788.40002441406</ele>
        <time>2010-10-24T06:05:27Z</time>
      </trkpt>
      <trkpt lat="44.18403" lon="3.17416">
        <ele>788.20001220703</ele>
        <time>2010-10-24T06:05:33Z</time>
      </trkpt>
      <trkpt lat="44.18423" lon="3.17414">
        <ele>787.79998779297</ele>
        <time>2010-10-24T06:05:39Z</time>
      </trkpt>
      <trkpt lat="44.18442" lon="3.17407">
        <ele>787.59997558594</ele>
        <time>2010-10-24T06:05:45Z</time>
      </trkpt>
      <trkpt lat="44.18455" lon="3.17422">
        <ele>787.40002441406</ele>
        <time>2010-10-24T06:05:50Z</time>
      </trkpt>
      <trkpt lat="44.18456" lon="3.1745">
        <ele>787.20001220703</ele>
        <time>2010-10-24T06:05:56Z</time>
      </trkpt>
      <trkpt lat="44.18456" lon="3.17476">
        <ele>786.79998779297</ele>
        <time>2010-10-24T06:06:02Z</time>
      </trkpt>
      <trkpt lat="44.18462" lon="3.17502">
        <ele>786.40002441406</ele>
        <time>2010-10-24T06:06:08Z</time>
      </trkpt>
      <trkpt lat="44.18477" lon="3.17523">
        <ele>786</ele>
        <time>2010-10-24T06:06:14Z</time>
      </trkpt>
      <trkpt lat="44.18496" lon="3.17529">
        <ele>785.59997558594</ele>
        <time>2010-10-24T06:06:20Z</time>
      </trkpt>
      <trkpt lat="44.18517" lon="3.17531">
        <ele>785</ele>
        <time>2010-10-24T06:06:26Z</time>
      </trkpt>
      <trkpt lat="44.18532" lon="3.17542">
        <ele>784.40002441406</ele>
        <time>2010-10-24T06:06:31Z</time>
      </trkpt>
      <trkpt lat="44.1854" lon="3.17567">
        <ele>783.79998779297</ele>
        <time>2010-10-24T06:06:37Z</time>
      </trkpt>
      <trkpt lat="44.18549" lon="3.1759">
        <ele>783</ele>
        <time>2010-10-24T06:06:43Z</time>
      </trkpt>
      <trkpt lat="44.18567" lon="3.17596">
        <ele>782.20001220703</ele>
        <time>2010-10-24T06:06:49Z</time>
      </trkpt>
      <trkpt lat="44.18582" lon="3.17614">
        <ele>781.59997558594</ele>
        <time>2010-10-24T06:06:55Z</time>
      </trkpt>
      <trkpt lat="44.1858" lon="3.17632">
        <ele>781</ele>
        <time>2010-10-24T06:06:59Z</time>
      </trkpt>
      <trkpt lat="44.18578" lon="3.1764">
        <ele>780.79998779297</ele>
        <time>2010-10-24T06:07:01Z</time>
      </trkpt>
      <trkpt lat="44.18579" lon="3.17668">
        <ele>780.20001220703</ele>
        <time>2010-10-24T06:07:07Z</time>
      </trkpt>
      <trkpt lat="44.18589" lon="3.17693">
        <ele>779.59997558594</ele>
        <time>2010-10-24T06:07:13Z</time>
      </trkpt>
      <trkpt lat="44.186" lon="3.17715">
        <ele>778.79998779297</ele>
        <time>2010-10-24T06:07:19Z</time>
      </trkpt>
      <trkpt lat="44.18608" lon="3.17739">
        <ele>778.20001220703</ele>
        <time>2010-10-24T06:07:25Z</time>
      </trkpt>
      <trkpt lat="44.18607" lon="3.17765">
        <ele>777.59997558594</ele>
        <time>2010-10-24T06:07:31Z</time>
      </trkpt>
      <trkpt lat="44.18609" lon="3.1779">
        <ele>776.79998779297</ele>
        <time>2010-10-24T06:07:37Z</time>
      </trkpt>
      <trkpt lat="44.18615" lon="3.17818">
        <ele>776</ele>
        <time>2010-10-24T06:07:43Z</time>
      </trkpt>
      <trkpt lat="44.18623" lon="3.17844">
        <ele>775.40002441406</ele>
        <time>2010-10-24T06:07:49Z</time>
      </trkpt>
      <trkpt lat="44.18625" lon="3.1787">
        <ele>774.59997558594</ele>
        <time>2010-10-24T06:07:55Z</time>
      </trkpt>
      <trkpt lat="44.18612" lon="3.17893">
        <ele>773.59997558594</ele>
        <time>2010-10-24T06:08:02Z</time>
      </trkpt>
      <trkpt lat="44.18606" lon="3.17918">
        <ele>772.79998779297</ele>
        <time>2010-10-24T06:08:08Z</time>
      </trkpt>
      <trkpt lat="44.18602" lon="3.17942">
        <ele>772.20001220703</ele>
        <time>2010-10-24T06:08:13Z</time>
      </trkpt>
      <trkpt lat="44.1859" lon="3.17964">
        <ele>771.20001220703</ele>
        <time>2010-10-24T06:08:19Z</time>
      </trkpt>
      <trkpt lat="44.18584" lon="3.17991">
        <ele>770</ele>
        <time>2010-10-24T06:08:25Z</time>
      </trkpt>
      <trkpt lat="44.18578" lon="3.18017">
        <ele>768.79998779297</ele>
        <time>2010-10-24T06:08:31Z</time>
      </trkpt>
      <trkpt lat="44.18567" lon="3.18037">
        <ele>767.59997558594</ele>
        <time>2010-10-24T06:08:37Z</time>
      </trkpt>
      <trkpt lat="44.18568" lon="3.18062">
        <ele>766.59997558594</ele>
        <time>2010-10-24T06:08:42Z</time>
      </trkpt>
      <trkpt lat="44.18586" lon="3.18072">
        <ele>765.59997558594</ele>
        <time>2010-10-24T06:08:48Z</time>
      </trkpt>
      <trkpt lat="44.18605" lon="3.18074">
        <ele>764.79998779297</ele>
        <time>2010-10-24T06:08:54Z</time>
      </trkpt>
      <trkpt lat="44.18622" lon="3.18063">
        <ele>764.20001220703</ele>
        <time>2010-10-24T06:09:00Z</time>
      </trkpt>
      <trkpt lat="44.18639" lon="3.18051">
        <ele>763.59997558594</ele>
        <time>2010-10-24T06:09:06Z</time>
      </trkpt>
      <trkpt lat="44.18655" lon="3.1806">
        <ele>763.20001220703</ele>
        <time>2010-10-24T06:09:12Z</time>
      </trkpt>
      <trkpt lat="44.18665" lon="3.18084">
        <ele>762.79998779297</ele>
        <time>2010-10-24T06:09:18Z</time>
      </trkpt>
      <trkpt lat="44.1867" lon="3.1811">
        <ele>762.59997558594</ele>
        <time>2010-10-24T06:09:24Z</time>
      </trkpt>
      <trkpt lat="44.18666" lon="3.18137">
        <ele>762.20001220703</ele>
        <time>2010-10-24T06:09:30Z</time>
      </trkpt>
      <trkpt lat="44.18655" lon="3.18158">
        <ele>761.79998779297</ele>
        <time>2010-10-24T06:09:36Z</time>
      </trkpt>
      <trkpt lat="44.18641" lon="3.18175">
        <ele>761.40002441406</ele>
        <time>2010-10-24T06:09:42Z</time>
      </trkpt>
      <trkpt lat="44.18627" lon="3.18195">
        <ele>761</ele>
        <time>2010-10-24T06:09:48Z</time>
      </trkpt>
      <trkpt lat="44.18616" lon="3.18214">
        <ele>760.59997558594</ele>
        <time>2010-10-24T06:09:53Z</time>
      </trkpt>
      <trkpt lat="44.18603" lon="3.18236">
        <ele>760.20001220703</ele>
        <time>2010-10-24T06:09:59Z</time>
      </trkpt>
      <trkpt lat="44.1859" lon="3.18255">
        <ele>759.59997558594</ele>
        <time>2010-10-24T06:10:05Z</time>
      </trkpt>
      <trkpt lat="44.18572" lon="3.18269">
        <ele>759.20001220703</ele>
        <time>2010-10-24T06:10:11Z</time>
      </trkpt>
      <trkpt lat="44.18554" lon="3.18284">
        <ele>758.59997558594</ele>
        <time>2010-10-24T06:10:17Z</time>
      </trkpt>
      <trkpt lat="44.18538" lon="3.18294">
        <ele>758</ele>
        <time>2010-10-24T06:10:22Z</time>
      </trkpt>
      <trkpt lat="44.18519" lon="3.18305">
        <ele>757.40002441406</ele>
        <time>2010-10-24T06:10:28Z</time>
      </trkpt>
      <trkpt lat="44.18507" lon="3.18324">
        <ele>756.40002441406</ele>
        <time>2010-10-24T06:10:34Z</time>
      </trkpt>
      <trkpt lat="44.18504" lon="3.1833">
        <ele>756.20001220703</ele>
        <time>2010-10-24T06:10:36Z</time>
      </trkpt>
      <trkpt lat="44.18491" lon="3.18338">
        <ele>755.40002441406</ele>
        <time>2010-10-24T06:10:40Z</time>
      </trkpt>
      <trkpt lat="44.18473" lon="3.18353">
        <ele>754.40002441406</ele>
        <time>2010-10-24T06:10:46Z</time>
      </trkpt>
      <trkpt lat="44.18464" lon="3.18361">
        <ele>753.79998779297</ele>
        <time>2010-10-24T06:10:49Z</time>
      </trkpt>
      <trkpt lat="44.18457" lon="3.18366">
        <ele>753.59997558594</ele>
        <time>2010-10-24T06:10:51Z</time>
      </trkpt>
      <trkpt lat="44.18444" lon="3.18384">
        <ele>752.40002441406</ele>
        <time>2010-10-24T06:10:56Z</time>
      </trkpt>
      <trkpt lat="44.18437" lon="3.1841">
        <ele>751.20001220703</ele>
        <time>2010-10-24T06:11:02Z</time>
      </trkpt>
      <trkpt lat="44.18425" lon="3.18434">
        <ele>749.79998779297</ele>
        <time>2010-10-24T06:11:08Z</time>
      </trkpt>
      <trkpt lat="44.18409" lon="3.18452">
        <ele>748.40002441406</ele>
        <time>2010-10-24T06:11:14Z</time>
      </trkpt>
      <trkpt lat="44.18397" lon="3.1847">
        <ele>747.40002441406</ele>
        <time>2010-10-24T06:11:19Z</time>
      </trkpt>
      <trkpt lat="44.18389" lon="3.18483">
        <ele>746.40002441406</ele>
        <time>2010-10-24T06:11:23Z</time>
      </trkpt>
      <trkpt lat="44.18389" lon="3.18494">
        <ele>746</ele>
        <time>2010-10-24T06:11:25Z</time>
      </trkpt>
      <trkpt lat="44.18388" lon="3.18517">
        <ele>745</ele>
        <time>2010-10-24T06:11:29Z</time>
      </trkpt>
      <trkpt lat="44.18388" lon="3.18522">
        <ele>744.79998779297</ele>
        <time>2010-10-24T06:11:30Z</time>
      </trkpt>
      <trkpt lat="44.1838" lon="3.18548">
        <ele>743.59997558594</ele>
        <time>2010-10-24T06:11:36Z</time>
      </trkpt>
      <trkpt lat="44.18372" lon="3.1857">
        <ele>742.59997558594</ele>
        <time>2010-10-24T06:11:42Z</time>
      </trkpt>
      <trkpt lat="44.1836" lon="3.18592">
        <ele>741.40002441406</ele>
        <time>2010-10-24T06:11:49Z</time>
      </trkpt>
      <trkpt lat="44.18355" lon="3.18602">
        <ele>740.79998779297</ele>
        <time>2010-10-24T06:11:52Z</time>
      </trkpt>
      <trkpt lat="44.18346" lon="3.18607">
        <ele>740.20001220703</ele>
        <time>2010-10-24T06:11:55Z</time>
      </trkpt>
      <trkpt lat="44.18325" lon="3.18617">
        <ele>739.40002441406</ele>
        <time>2010-10-24T06:12:01Z</time>
      </trkpt>
      <trkpt lat="44.18311" lon="3.18637">
        <ele>738.40002441406</ele>
        <time>2010-10-24T06:12:07Z</time>
      </trkpt>
      <trkpt lat="44.18296" lon="3.18655">
        <ele>737.40002441406</ele>
        <time>2010-10-24T06:12:13Z</time>
      </trkpt>
      <trkpt lat="44.18279" lon="3.18672">
        <ele>736.59997558594</ele>
        <time>2010-10-24T06:12:19Z</time>
      </trkpt>
      <trkpt lat="44.18262" lon="3.18689">
        <ele>735.59997558594</ele>
        <time>2010-10-24T06:12:25Z</time>
      </trkpt>
      <trkpt lat="44.18247" lon="3.18704">
        <ele>734.59997558594</ele>
        <time>2010-10-24T06:12:31Z</time>
      </trkpt>
      <trkpt lat="44.18232" lon="3.18722">
        <ele>733.59997558594</ele>
        <time>2010-10-24T06:12:37Z</time>
      </trkpt>
      <trkpt lat="44.18218" lon="3.18743">
        <ele>732.79998779297</ele>
        <time>2010-10-24T06:12:43Z</time>
      </trkpt>
      <trkpt lat="44.18208" lon="3.18766">
        <ele>731.59997558594</ele>
        <time>2010-10-24T06:12:50Z</time>
      </trkpt>
      <trkpt lat="44.18198" lon="3.18782">
        <ele>730.59997558594</ele>
        <time>2010-10-24T06:12:55Z</time>
      </trkpt>
      <trkpt lat="44.18198" lon="3.18787">
        <ele>730.40002441406</ele>
        <time>2010-10-24T06:12:56Z</time>
      </trkpt>
      <trkpt lat="44.18206" lon="3.18812">
        <ele>729.20001220703</ele>
        <time>2010-10-24T06:13:02Z</time>
      </trkpt>
      <trkpt lat="44.18207" lon="3.18822">
        <ele>728.79998779297</ele>
        <time>2010-10-24T06:13:04Z</time>
      </trkpt>
      <trkpt lat="44.18206" lon="3.18823">
        <ele>728.59997558594</ele>
        <time>2010-10-24T06:13:05Z</time>
      </trkpt>
      <trkpt lat="44.18196" lon="3.18826">
        <ele>728</ele>
        <time>2010-10-24T06:13:08Z</time>
      </trkpt>
      <trkpt lat="44.18177" lon="3.18831">
        <ele>727.20001220703</ele>
        <time>2010-10-24T06:13:14Z</time>
      </trkpt>
      <trkpt lat="44.18166" lon="3.18845">
        <ele>726.40002441406</ele>
        <time>2010-10-24T06:13:20Z</time>
      </trkpt>
      <trkpt lat="44.18164" lon="3.18849">
        <ele>726.20001220703</ele>
        <time>2010-10-24T06:13:21Z</time>
      </trkpt>
      <trkpt lat="44.18156" lon="3.18873">
        <ele>725.59997558594</ele>
        <time>2010-10-24T06:13:28Z</time>
      </trkpt>
      <trkpt lat="44.18152" lon="3.18884">
        <ele>725.40002441406</ele>
        <time>2010-10-24T06:13:31Z</time>
      </trkpt>
      <trkpt lat="44.18144" lon="3.18891">
        <ele>725</ele>
        <time>2010-10-24T06:13:34Z</time>
      </trkpt>
      <trkpt lat="44.18126" lon="3.18903">
        <ele>724.40002441406</ele>
        <time>2010-10-24T06:13:40Z</time>
      </trkpt>
      <trkpt lat="44.18108" lon="3.18916">
        <ele>723.59997558594</ele>
        <time>2010-10-24T06:13:46Z</time>
      </trkpt>
      <trkpt lat="44.1809" lon="3.18926">
        <ele>722.79998779297</ele>
        <time>2010-10-24T06:13:52Z</time>
      </trkpt>
      <trkpt lat="44.18074" lon="3.18941">
        <ele>722</ele>
        <time>2010-10-24T06:13:58Z</time>
      </trkpt>
      <trkpt lat="44.18059" lon="3.18958">
        <ele>721.20001220703</ele>
        <time>2010-10-24T06:14:04Z</time>
      </trkpt>
      <trkpt lat="44.18045" lon="3.18976">
        <ele>720.20001220703</ele>
        <time>2010-10-24T06:14:10Z</time>
      </trkpt>
      <trkpt lat="44.18035" lon="3.18997">
        <ele>719.20001220703</ele>
        <time>2010-10-24T06:14:16Z</time>
      </trkpt>
      <trkpt lat="44.18032" lon="3.19025">
        <ele>718</ele>
        <time>2010-10-24T06:14:22Z</time>
      </trkpt>
      <trkpt lat="44.18031" lon="3.19052">
        <ele>717</ele>
        <time>2010-10-24T06:14:28Z</time>
      </trkpt>
      <trkpt lat="44.18027" lon="3.19078">
        <ele>716.20001220703</ele>
        <time>2010-10-24T06:14:34Z</time>
      </trkpt>
      <trkpt lat="44.18023" lon="3.19103">
        <ele>715.20001220703</ele>
        <time>2010-10-24T06:14:40Z</time>
      </trkpt>
      <trkpt lat="44.18016" lon="3.19128">
        <ele>714.20001220703</ele>
        <time>2010-10-24T06:14:46Z</time>
      </trkpt>
      <trkpt lat="44.18005" lon="3.19148">
        <ele>713</ele>
        <time>2010-10-24T06:14:52Z</time>
      </trkpt>
      <trkpt lat="44.17998" lon="3.19173">
        <ele>711.79998779297</ele>
        <time>2010-10-24T06:14:58Z</time>
      </trkpt>
      <trkpt lat="44.17999" lon="3.192">
        <ele>710.40002441406</ele>
        <time>2010-10-24T06:15:05Z</time>
      </trkpt>
      <trkpt lat="44.18002" lon="3.19226">
        <ele>709</ele>
        <time>2010-10-24T06:15:11Z</time>
      </trkpt>
      <trkpt lat="44.18007" lon="3.19255">
        <ele>707.59997558594</ele>
        <time>2010-10-24T06:15:17Z</time>
      </trkpt>
      <trkpt lat="44.18015" lon="3.1928">
        <ele>705.79998779297</ele>
        <time>2010-10-24T06:15:24Z</time>
      </trkpt>
      <trkpt lat="44.18027" lon="3.19299">
        <ele>704.20001220703</ele>
        <time>2010-10-24T06:15:30Z</time>
      </trkpt>
      <trkpt lat="44.18038" lon="3.19318">
        <ele>702.40002441406</ele>
        <time>2010-10-24T06:15:36Z</time>
      </trkpt>
      <trkpt lat="44.18047" lon="3.19342">
        <ele>700.59997558594</ele>
        <time>2010-10-24T06:15:43Z</time>
      </trkpt>
      <trkpt lat="44.18038" lon="3.19361">
        <ele>699.40002441406</ele>
        <time>2010-10-24T06:15:48Z</time>
      </trkpt>
      <trkpt lat="44.18037" lon="3.19364">
        <ele>699.20001220703</ele>
        <time>2010-10-24T06:15:49Z</time>
      </trkpt>
      <trkpt lat="44.18028" lon="3.19387">
        <ele>696.79998779297</ele>
        <time>2010-10-24T06:15:57Z</time>
      </trkpt>
      <trkpt lat="44.18029" lon="3.19409">
        <ele>694.40002441406</ele>
        <time>2010-10-24T06:16:04Z</time>
      </trkpt>
      <trkpt lat="44.18048" lon="3.19416">
        <ele>692.59997558594</ele>
        <time>2010-10-24T06:16:09Z</time>
      </trkpt>
      <trkpt lat="44.18061" lon="3.19436">
        <ele>690.59997558594</ele>
        <time>2010-10-24T06:16:15Z</time>
      </trkpt>
      <trkpt lat="44.18077" lon="3.19454">
        <ele>688.40002441406</ele>
        <time>2010-10-24T06:16:21Z</time>
      </trkpt>
      <trkpt lat="44.18079" lon="3.19456">
        <ele>688.20001220703</ele>
        <time>2010-10-24T06:16:22Z</time>
      </trkpt>
      <trkpt lat="44.1809" lon="3.19469">
        <ele>686.20001220703</ele>
        <time>2010-10-24T06:16:27Z</time>
      </trkpt>
      <trkpt lat="44.18092" lon="3.19472">
        <ele>685.79998779297</ele>
        <time>2010-10-24T06:16:28Z</time>
      </trkpt>
      <trkpt lat="44.18095" lon="3.19488">
        <ele>684.79998779297</ele>
        <time>2010-10-24T06:16:31Z</time>
      </trkpt>
      <trkpt lat="44.18095" lon="3.19498">
        <ele>684</ele>
        <time>2010-10-24T06:16:33Z</time>
      </trkpt>
      <trkpt lat="44.18097" lon="3.19523">
        <ele>682</ele>
        <time>2010-10-24T06:16:39Z</time>
      </trkpt>
      <trkpt lat="44.18098" lon="3.19532">
        <ele>681.20001220703</ele>
        <time>2010-10-24T06:16:41Z</time>
      </trkpt>
      <trkpt lat="44.18101" lon="3.19547">
        <ele>679.59997558594</ele>
        <time>2010-10-24T06:16:46Z</time>
      </trkpt>
      <trkpt lat="44.18099" lon="3.19546">
        <ele>679.20001220703</ele>
        <time>2010-10-24T06:16:47Z</time>
      </trkpt>
      <trkpt lat="44.18088" lon="3.19529">
        <ele>677.59997558594</ele>
        <time>2010-10-24T06:16:52Z</time>
      </trkpt>
      <trkpt lat="44.18076" lon="3.19512">
        <ele>675.79998779297</ele>
        <time>2010-10-24T06:16:57Z</time>
      </trkpt>
      <trkpt lat="44.18074" lon="3.19508">
        <ele>675.40002441406</ele>
        <time>2010-10-24T06:16:58Z</time>
      </trkpt>
      <trkpt lat="44.18061" lon="3.19491">
        <ele>673.79998779297</ele>
        <time>2010-10-24T06:17:03Z</time>
      </trkpt>
      <trkpt lat="44.18044" lon="3.19475">
        <ele>671.79998779297</ele>
        <time>2010-10-24T06:17:09Z</time>
      </trkpt>
      <trkpt lat="44.18027" lon="3.19463">
        <ele>669.59997558594</ele>
        <time>2010-10-24T06:17:15Z</time>
      </trkpt>
      <trkpt lat="44.18009" lon="3.19457">
        <ele>667.20001220703</ele>
        <time>2010-10-24T06:17:21Z</time>
      </trkpt>
      <trkpt lat="44.1799" lon="3.19461">
        <ele>664.59997558594</ele>
        <time>2010-10-24T06:17:27Z</time>
      </trkpt>
      <trkpt lat="44.17976" lon="3.19474">
        <ele>662</ele>
        <time>2010-10-24T06:17:33Z</time>
      </trkpt>
      <trkpt lat="44.17978" lon="3.19478">
        <ele>661.20001220703</ele>
        <time>2010-10-24T06:17:35Z</time>
      </trkpt>
      <trkpt lat="44.17978" lon="3.19485">
        <ele>660.40002441406</ele>
        <time>2010-10-24T06:17:37Z</time>
      </trkpt>
      <trkpt lat="44.17981" lon="3.19492">
        <ele>659.40002441406</ele>
        <time>2010-10-24T06:17:40Z</time>
      </trkpt>
      <trkpt lat="44.17979" lon="3.19503">
        <ele>658.40002441406</ele>
        <time>2010-10-24T06:17:43Z</time>
      </trkpt>
      <trkpt lat="44.17989" lon="3.19521">
        <ele>656</ele>
        <time>2010-10-24T06:17:49Z</time>
      </trkpt>
      <trkpt lat="44.17992" lon="3.19523">
        <ele>655.59997558594</ele>
        <time>2010-10-24T06:17:50Z</time>
      </trkpt>
      <trkpt lat="44.18012" lon="3.19536">
        <ele>653.20001220703</ele>
        <time>2010-10-24T06:17:57Z</time>
      </trkpt>
      <trkpt lat="44.18026" lon="3.19557">
        <ele>650.59997558594</ele>
        <time>2010-10-24T06:18:04Z</time>
      </trkpt>
      <trkpt lat="44.18034" lon="3.19583">
        <ele>647.20001220703</ele>
        <time>2010-10-24T06:18:13Z</time>
      </trkpt>
      <trkpt lat="44.18034" lon="3.19608">
        <ele>644.20001220703</ele>
        <time>2010-10-24T06:18:20Z</time>
      </trkpt>
      <trkpt lat="44.18034" lon="3.19619">
        <ele>643</ele>
        <time>2010-10-24T06:18:23Z</time>
      </trkpt>
      <trkpt lat="44.18034" lon="3.19636">
        <ele>641.20001220703</ele>
        <time>2010-10-24T06:18:27Z</time>
      </trkpt>
      <trkpt lat="44.18035" lon="3.19635">
        <ele>640.20001220703</ele>
        <time>2010-10-24T06:18:29Z</time>
      </trkpt>
      <trkpt lat="44.18039" lon="3.19632">
        <ele>640</ele>
        <time>2010-10-24T06:18:30Z</time>
      </trkpt>
      <trkpt lat="44.1805" lon="3.1962">
        <ele>638.20001220703</ele>
        <time>2010-10-24T06:18:34Z</time>
      </trkpt>
      <trkpt lat="44.1806" lon="3.19638">
        <ele>635.40002441406</ele>
        <time>2010-10-24T06:18:41Z</time>
      </trkpt>
      <trkpt lat="44.18071" lon="3.19663">
        <ele>632.79998779297</ele>
        <time>2010-10-24T06:18:48Z</time>
      </trkpt>
      <trkpt lat="44.18082" lon="3.19675">
        <ele>631.20001220703</ele>
        <time>2010-10-24T06:18:52Z</time>
      </trkpt>
      <trkpt lat="44.18085" lon="3.19679">
        <ele>630.79998779297</ele>
        <time>2010-10-24T06:18:53Z</time>
      </trkpt>
      <trkpt lat="44.18102" lon="3.19691">
        <ele>628.79998779297</ele>
        <time>2010-10-24T06:18:58Z</time>
      </trkpt>
      <trkpt lat="44.18114" lon="3.19711">
        <ele>626.40002441406</ele>
        <time>2010-10-24T06:19:04Z</time>
      </trkpt>
      <trkpt lat="44.18129" lon="3.19726">
        <ele>624.20001220703</ele>
        <time>2010-10-24T06:19:10Z</time>
      </trkpt>
      <trkpt lat="44.18147" lon="3.19735">
        <ele>621.79998779297</ele>
        <time>2010-10-24T06:19:16Z</time>
      </trkpt>
      <trkpt lat="44.18166" lon="3.19743">
        <ele>619.59997558594</ele>
        <time>2010-10-24T06:19:22Z</time>
      </trkpt>
      <trkpt lat="44.18188" lon="3.19749">
        <ele>616.79998779297</ele>
        <time>2010-10-24T06:19:30Z</time>
      </trkpt>
      <trkpt lat="44.18205" lon="3.19758">
        <ele>614.79998779297</ele>
        <time>2010-10-24T06:19:35Z</time>
      </trkpt>
      <trkpt lat="44.18218" lon="3.19776">
        <ele>612.40002441406</ele>
        <time>2010-10-24T06:19:41Z</time>
      </trkpt>
      <trkpt lat="44.18221" lon="3.19778">
        <ele>612</ele>
        <time>2010-10-24T06:19:42Z</time>
      </trkpt>
      <trkpt lat="44.18229" lon="3.19786">
        <ele>610.20001220703</ele>
        <time>2010-10-24T06:19:46Z</time>
      </trkpt>
      <trkpt lat="44.18229" lon="3.19788">
        <ele>609.79998779297</ele>
        <time>2010-10-24T06:19:47Z</time>
      </trkpt>
      <trkpt lat="44.18222" lon="3.19788">
        <ele>609</ele>
        <time>2010-10-24T06:19:49Z</time>
      </trkpt>
      <trkpt lat="44.18202" lon="3.1979">
        <ele>606</ele>
        <time>2010-10-24T06:19:55Z</time>
      </trkpt>
      <trkpt lat="44.18197" lon="3.19791">
        <ele>605</ele>
        <time>2010-10-24T06:19:57Z</time>
      </trkpt>
      <trkpt lat="44.18201" lon="3.19792">
        <ele>603.40002441406</ele>
        <time>2010-10-24T06:20:00Z</time>
      </trkpt>
      <trkpt lat="44.18209" lon="3.19798">
        <ele>601.59997558594</ele>
        <time>2010-10-24T06:20:03Z</time>
      </trkpt>
      <trkpt lat="44.18207" lon="3.19802">
        <ele>600.59997558594</ele>
        <time>2010-10-24T06:20:05Z</time>
      </trkpt>
      <trkpt lat="44.18202" lon="3.19815">
        <ele>599</ele>
        <time>2010-10-24T06:20:08Z</time>
      </trkpt>
      <trkpt lat="44.18202" lon="3.19821">
        <ele>598.40002441406</ele>
        <time>2010-10-24T06:20:09Z</time>
      </trkpt>
      <trkpt lat="44.18213" lon="3.19844">
        <ele>596.40002441406</ele>
        <time>2010-10-24T06:20:14Z</time>
      </trkpt>
      <trkpt lat="44.1823" lon="3.19854">
        <ele>593.59997558594</ele>
        <time>2010-10-24T06:20:20Z</time>
      </trkpt>
      <trkpt lat="44.18245" lon="3.19867">
        <ele>591.59997558594</ele>
        <time>2010-10-24T06:20:25Z</time>
      </trkpt>
      <trkpt lat="44.18258" lon="3.19882">
        <ele>589.40002441406</ele>
        <time>2010-10-24T06:20:30Z</time>
      </trkpt>
      <trkpt lat="44.18258" lon="3.19887">
        <ele>589</ele>
        <time>2010-10-24T06:20:31Z</time>
      </trkpt>
      <trkpt lat="44.18267" lon="3.1991">
        <ele>586.20001220703</ele>
        <time>2010-10-24T06:20:37Z</time>
      </trkpt>
      <trkpt lat="44.18286" lon="3.19918">
        <ele>584</ele>
        <time>2010-10-24T06:20:42Z</time>
      </trkpt>
      <trkpt lat="44.18298" lon="3.19929">
        <ele>581.79998779297</ele>
        <time>2010-10-24T06:20:47Z</time>
      </trkpt>
      <trkpt lat="44.18303" lon="3.19931">
        <ele>581.40002441406</ele>
        <time>2010-10-24T06:20:48Z</time>
      </trkpt>
      <trkpt lat="44.18319" lon="3.19949">
        <ele>578.59997558594</ele>
        <time>2010-10-24T06:20:54Z</time>
      </trkpt>
      <trkpt lat="44.18326" lon="3.19957">
        <ele>577.40002441406</ele>
        <time>2010-10-24T06:20:57Z</time>
      </trkpt>
      <trkpt lat="44.18336" lon="3.19961">
        <ele>576.20001220703</ele>
        <time>2010-10-24T06:21:00Z</time>
      </trkpt>
      <trkpt lat="44.18355" lon="3.19964">
        <ele>573</ele>
        <time>2010-10-24T06:21:07Z</time>
      </trkpt>
      <trkpt lat="44.18357" lon="3.19964">
        <ele>572.59997558594</ele>
        <time>2010-10-24T06:21:08Z</time>
      </trkpt>
      <trkpt lat="44.18372" lon="3.19955">
        <ele>569.59997558594</ele>
        <time>2010-10-24T06:21:15Z</time>
      </trkpt>
      <trkpt lat="44.18388" lon="3.19949">
        <ele>567.59997558594</ele>
        <time>2010-10-24T06:21:20Z</time>
      </trkpt>
      <trkpt lat="44.18393" lon="3.19949">
        <ele>567.20001220703</ele>
        <time>2010-10-24T06:21:21Z</time>
      </trkpt>
      <trkpt lat="44.18399" lon="3.19952">
        <ele>566.40002441406</ele>
        <time>2010-10-24T06:21:23Z</time>
      </trkpt>
      <trkpt lat="44.18406" lon="3.19965">
        <ele>564.59997558594</ele>
        <time>2010-10-24T06:21:27Z</time>
      </trkpt>
      <trkpt lat="44.18413" lon="3.19989">
        <ele>561.79998779297</ele>
        <time>2010-10-24T06:21:33Z</time>
      </trkpt>
      <trkpt lat="44.18419" lon="3.20013">
        <ele>559</ele>
        <time>2010-10-24T06:21:39Z</time>
      </trkpt>
      <trkpt lat="44.18431" lon="3.20034">
        <ele>556</ele>
        <time>2010-10-24T06:21:45Z</time>
      </trkpt>
      <trkpt lat="44.18439" lon="3.20045">
        <ele>554</ele>
        <time>2010-10-24T06:21:49Z</time>
      </trkpt>
      <trkpt lat="44.1843" lon="3.20046">
        <ele>552.59997558594</ele>
        <time>2010-10-24T06:21:52Z</time>
      </trkpt>
      <trkpt lat="44.18421" lon="3.2004">
        <ele>551</ele>
        <time>2010-10-24T06:21:55Z</time>
      </trkpt>
      <trkpt lat="44.18414" lon="3.20033">
        <ele>549.59997558594</ele>
        <time>2010-10-24T06:21:58Z</time>
      </trkpt>
      <trkpt lat="44.18409" lon="3.20033">
        <ele>548.79998779297</ele>
        <time>2010-10-24T06:22:00Z</time>
      </trkpt>
      <trkpt lat="44.18405" lon="3.20053">
        <ele>547</ele>
        <time>2010-10-24T06:22:05Z</time>
      </trkpt>
      <trkpt lat="44.18412" lon="3.20075">
        <ele>545.40002441406</ele>
        <time>2010-10-24T06:22:10Z</time>
      </trkpt>
      <trkpt lat="44.18419" lon="3.20102">
        <ele>543.20001220703</ele>
        <time>2010-10-24T06:22:17Z</time>
      </trkpt>
      <trkpt lat="44.1842" lon="3.20114">
        <ele>541.40002441406</ele>
        <time>2010-10-24T06:22:21Z</time>
      </trkpt>
      <trkpt lat="44.18426" lon="3.20125">
        <ele>539.79998779297</ele>
        <time>2010-10-24T06:22:25Z</time>
      </trkpt>
      <trkpt lat="44.18433" lon="3.2014">
        <ele>537.40002441406</ele>
        <time>2010-10-24T06:22:30Z</time>
      </trkpt>
      <trkpt lat="44.18438" lon="3.20145">
        <ele>536.40002441406</ele>
        <time>2010-10-24T06:22:32Z</time>
      </trkpt>
      <trkpt lat="44.18448" lon="3.20168">
        <ele>533</ele>
        <time>2010-10-24T06:22:39Z</time>
      </trkpt>
      <trkpt lat="44.18459" lon="3.2019">
        <ele>529.79998779297</ele>
        <time>2010-10-24T06:22:45Z</time>
      </trkpt>
      <trkpt lat="44.18469" lon="3.20211">
        <ele>526.59997558594</ele>
        <time>2010-10-24T06:22:51Z</time>
      </trkpt>
      <trkpt lat="44.18485" lon="3.20228">
        <ele>523.40002441406</ele>
        <time>2010-10-24T06:22:57Z</time>
      </trkpt>
      <trkpt lat="44.18499" lon="3.20246">
        <ele>520.79998779297</ele>
        <time>2010-10-24T06:23:02Z</time>
      </trkpt>
      <trkpt lat="44.18513" lon="3.20267">
        <ele>517.59997558594</ele>
        <time>2010-10-24T06:23:08Z</time>
      </trkpt>
      <trkpt lat="44.18532" lon="3.2028">
        <ele>515.59997558594</ele>
        <time>2010-10-24T06:23:13Z</time>
      </trkpt>
      <trkpt lat="44.18546" lon="3.203">
        <ele>512.79998779297</ele>
        <time>2010-10-24T06:23:19Z</time>
      </trkpt>
      <trkpt lat="44.1856" lon="3.2032">
        <ele>510.20001220703</ele>
        <time>2010-10-24T06:23:25Z</time>
      </trkpt>
      <trkpt lat="44.18575" lon="3.2034">
        <ele>507.79998779297</ele>
        <time>2010-10-24T06:23:31Z</time>
      </trkpt>
      <trkpt lat="44.18589" lon="3.20359">
        <ele>505.39999389648</ele>
        <time>2010-10-24T06:23:37Z</time>
      </trkpt>
      <trkpt lat="44.18605" lon="3.20377">
        <ele>503</ele>
        <time>2010-10-24T06:23:43Z</time>
      </trkpt>
      <trkpt lat="44.1862" lon="3.20395">
        <ele>500.79998779297</ele>
        <time>2010-10-24T06:23:49Z</time>
      </trkpt>
      <trkpt lat="44.18636" lon="3.20414">
        <ele>498.39999389648</ele>
        <time>2010-10-24T06:23:55Z</time>
      </trkpt>
      <trkpt lat="44.1865" lon="3.20434">
        <ele>496.20001220703</ele>
        <time>2010-10-24T06:24:01Z</time>
      </trkpt>
      <trkpt lat="44.1866" lon="3.20454">
        <ele>494.39999389648</ele>
        <time>2010-10-24T06:24:06Z</time>
      </trkpt>
      <trkpt lat="44.18673" lon="3.20477">
        <ele>492.20001220703</ele>
        <time>2010-10-24T06:24:12Z</time>
      </trkpt>
      <trkpt lat="44.1869" lon="3.20491">
        <ele>489.79998779297</ele>
        <time>2010-10-24T06:24:18Z</time>
      </trkpt>
      <trkpt lat="44.18708" lon="3.20502">
        <ele>487.60000610352</ele>
        <time>2010-10-24T06:24:24Z</time>
      </trkpt>
      <trkpt lat="44.18727" lon="3.2051">
        <ele>485.60000610352</ele>
        <time>2010-10-24T06:24:30Z</time>
      </trkpt>
      <trkpt lat="44.18747" lon="3.20516">
        <ele>483.39999389648</ele>
        <time>2010-10-24T06:24:36Z</time>
      </trkpt>
      <trkpt lat="44.18766" lon="3.20522">
        <ele>481.39999389648</ele>
        <time>2010-10-24T06:24:42Z</time>
      </trkpt>
      <trkpt lat="44.18784" lon="3.2053">
        <ele>479.39999389648</ele>
        <time>2010-10-24T06:24:48Z</time>
      </trkpt>
      <trkpt lat="44.18803" lon="3.20544">
        <ele>477.39999389648</ele>
        <time>2010-10-24T06:24:54Z</time>
      </trkpt>
      <trkpt lat="44.18816" lon="3.20564">
        <ele>475.20001220703</ele>
        <time>2010-10-24T06:25:00Z</time>
      </trkpt>
      <trkpt lat="44.18828" lon="3.20583">
        <ele>473.39999389648</ele>
        <time>2010-10-24T06:25:05Z</time>
      </trkpt>
      <trkpt lat="44.1884" lon="3.20602">
        <ele>471.79998779297</ele>
        <time>2010-10-24T06:25:10Z</time>
      </trkpt>
      <trkpt lat="44.18851" lon="3.20621">
        <ele>470.39999389648</ele>
        <time>2010-10-24T06:25:15Z</time>
      </trkpt>
      <trkpt lat="44.1886" lon="3.20647">
        <ele>468.60000610352</ele>
        <time>2010-10-24T06:25:21Z</time>
      </trkpt>
      <trkpt lat="44.18865" lon="3.20676">
        <ele>466.79998779297</ele>
        <time>2010-10-24T06:25:27Z</time>
      </trkpt>
      <trkpt lat="44.18856" lon="3.20701">
        <ele>465.39999389648</ele>
        <time>2010-10-24T06:25:32Z</time>
      </trkpt>
      <trkpt lat="44.18853" lon="3.20706">
        <ele>465</ele>
        <time>2010-10-24T06:25:33Z</time>
      </trkpt>
      <trkpt lat="44.18847" lon="3.20725">
        <ele>464</ele>
        <time>2010-10-24T06:25:37Z</time>
      </trkpt>
      <trkpt lat="44.18836" lon="3.20734">
        <ele>463</ele>
        <time>2010-10-24T06:25:40Z</time>
      </trkpt>
      <trkpt lat="44.1883" lon="3.2074">
        <ele>462.39999389648</ele>
        <time>2010-10-24T06:25:42Z</time>
      </trkpt>
      <trkpt lat="44.18814" lon="3.20754">
        <ele>461</ele>
        <time>2010-10-24T06:25:47Z</time>
      </trkpt>
      <trkpt lat="44.18801" lon="3.20771">
        <ele>459.39999389648</ele>
        <time>2010-10-24T06:25:52Z</time>
      </trkpt>
      <trkpt lat="44.18797" lon="3.20795">
        <ele>458</ele>
        <time>2010-10-24T06:25:57Z</time>
      </trkpt>
      <trkpt lat="44.18805" lon="3.20823">
        <ele>456.20001220703</ele>
        <time>2010-10-24T06:26:03Z</time>
      </trkpt>
      <trkpt lat="44.18806" lon="3.2085">
        <ele>453.39999389648</ele>
        <time>2010-10-24T06:26:12Z</time>
      </trkpt>
      <trkpt lat="44.18813" lon="3.20868">
        <ele>451.20001220703</ele>
        <time>2010-10-24T06:26:19Z</time>
      </trkpt>
      <trkpt lat="44.18817" lon="3.20872">
        <ele>442.79998779297</ele>
        <time>2010-10-24T06:26:52Z</time>
      </trkpt>
      <trkpt lat="44.18818" lon="3.20873">
        <ele>442.60000610352</ele>
        <time>2010-10-24T06:26:53Z</time>
      </trkpt>
      <trkpt lat="44.18818" lon="3.20892">
        <ele>439.79998779297</ele>
        <time>2010-10-24T06:27:08Z</time>
      </trkpt>
      <trkpt lat="44.18819" lon="3.20896">
        <ele>437.79998779297</ele>
        <time>2010-10-24T06:27:20Z</time>
      </trkpt>
      <trkpt lat="44.18819" lon="3.20898">
        <ele>437.60000610352</ele>
        <time>2010-10-24T06:27:21Z</time>
      </trkpt>
      <trkpt lat="44.18816" lon="3.20916">
        <ele>436.60000610352</ele>
        <time>2010-10-24T06:27:26Z</time>
      </trkpt>
      <trkpt lat="44.18816" lon="3.2092">
        <ele>436.60000610352</ele>
        <time>2010-10-24T06:27:27Z</time>
      </trkpt>
      <trkpt lat="44.1882" lon="3.20947">
        <ele>435.39999389648</ele>
        <time>2010-10-24T06:27:33Z</time>
      </trkpt>
      <trkpt lat="44.18826" lon="3.2097">
        <ele>434.60000610352</ele>
        <time>2010-10-24T06:27:38Z</time>
      </trkpt>
      <trkpt lat="44.1884" lon="3.2099">
        <ele>433.39999389648</ele>
        <time>2010-10-24T06:27:44Z</time>
      </trkpt>
      <trkpt lat="44.18858" lon="3.21005">
        <ele>432.20001220703</ele>
        <time>2010-10-24T06:27:50Z</time>
      </trkpt>
      <trkpt lat="44.18873" lon="3.21018">
        <ele>431.20001220703</ele>
        <time>2010-10-24T06:27:55Z</time>
      </trkpt>
      <trkpt lat="44.18888" lon="3.21036">
        <ele>430</ele>
        <time>2010-10-24T06:28:01Z</time>
      </trkpt>
      <trkpt lat="44.18905" lon="3.21052">
        <ele>429</ele>
        <time>2010-10-24T06:28:07Z</time>
      </trkpt>
      <trkpt lat="44.18921" lon="3.21064">
        <ele>428.20001220703</ele>
        <time>2010-10-24T06:28:12Z</time>
      </trkpt>
      <trkpt lat="44.18939" lon="3.21076">
        <ele>427.20001220703</ele>
        <time>2010-10-24T06:28:18Z</time>
      </trkpt>
      <trkpt lat="44.18953" lon="3.21097">
        <ele>426</ele>
        <time>2010-10-24T06:28:24Z</time>
      </trkpt>
      <trkpt lat="44.18954" lon="3.21124">
        <ele>424.39999389648</ele>
        <time>2010-10-24T06:28:35Z</time>
      </trkpt>
      <trkpt lat="44.18944" lon="3.21122">
        <ele>423.39999389648</ele>
        <time>2010-10-24T06:28:41Z</time>
      </trkpt>
      <trkpt lat="44.18941" lon="3.21124">
        <ele>422.79998779297</ele>
        <time>2010-10-24T06:28:46Z</time>
      </trkpt>
      <trkpt lat="44.18938" lon="3.21137">
        <ele>422.20001220703</ele>
        <time>2010-10-24T06:28:52Z</time>
      </trkpt>
      <trkpt lat="44.18935" lon="3.21142">
        <ele>421.79998779297</ele>
        <time>2010-10-24T06:28:56Z</time>
      </trkpt>
      <trkpt lat="44.18932" lon="3.21142">
        <ele>421.60000610352</ele>
        <time>2010-10-24T06:28:58Z</time>
      </trkpt>
      <trkpt lat="44.1893" lon="3.21142">
        <ele>421.60000610352</ele>
        <time>2010-10-24T06:28:59Z</time>
      </trkpt>
      <trkpt lat="44.1892" lon="3.21144">
        <ele>421.39999389648</ele>
        <time>2010-10-24T06:29:04Z</time>
      </trkpt>
      <trkpt lat="44.18919" lon="3.21144">
        <ele>421.39999389648</ele>
        <time>2010-10-24T06:29:05Z</time>
      </trkpt>
      <trkpt lat="44.18913" lon="3.21146">
        <ele>421.20001220703</ele>
        <time>2010-10-24T06:29:08Z</time>
      </trkpt>
      <trkpt lat="44.18906" lon="3.2115">
        <ele>421.20001220703</ele>
        <time>2010-10-24T06:29:13Z</time>
      </trkpt>
      <trkpt lat="44.18902" lon="3.21152">
        <ele>421</ele>
        <time>2010-10-24T06:29:16Z</time>
      </trkpt>
      <trkpt lat="44.18896" lon="3.21155">
        <ele>421</ele>
        <time>2010-10-24T06:29:20Z</time>
      </trkpt>
      <trkpt lat="44.18892" lon="3.21179">
        <ele>421.79998779297</ele>
        <time>2010-10-24T06:29:32Z</time>
      </trkpt>
      <trkpt lat="44.18887" lon="3.21188">
        <ele>422.60000610352</ele>
        <time>2010-10-24T06:29:46Z</time>
      </trkpt>
      <trkpt lat="44.1888" lon="3.21193">
        <ele>424.39999389648</ele>
        <time>2010-10-24T06:29:56Z</time>
      </trkpt>
      <trkpt lat="44.18872" lon="3.21216">
        <ele>426.39999389648</ele>
        <time>2010-10-24T06:30:04Z</time>
      </trkpt>
      <trkpt lat="44.18859" lon="3.21235">
        <ele>428.79998779297</ele>
        <time>2010-10-24T06:30:12Z</time>
      </trkpt>
      <trkpt lat="44.18859" lon="3.2124">
        <ele>429.60000610352</ele>
        <time>2010-10-24T06:30:14Z</time>
      </trkpt>
      <trkpt lat="44.18865" lon="3.21257">
        <ele>431.20001220703</ele>
        <time>2010-10-24T06:30:19Z</time>
      </trkpt>
      <trkpt lat="44.18876" lon="3.21281">
        <ele>432.79998779297</ele>
        <time>2010-10-24T06:30:25Z</time>
      </trkpt>
      <trkpt lat="44.18874" lon="3.21308">
        <ele>434</ele>
        <time>2010-10-24T06:30:31Z</time>
      </trkpt>
      <trkpt lat="44.18874" lon="3.21331">
        <ele>434.60000610352</ele>
        <time>2010-10-24T06:30:36Z</time>
      </trkpt>
      <trkpt lat="44.18875" lon="3.21335">
        <ele>434.60000610352</ele>
        <time>2010-10-24T06:30:37Z</time>
      </trkpt>
      <trkpt lat="44.18886" lon="3.21355">
        <ele>434.60000610352</ele>
        <time>2010-10-24T06:30:42Z</time>
      </trkpt>
      <trkpt lat="44.18903" lon="3.21371">
        <ele>434.39999389648</ele>
        <time>2010-10-24T06:30:48Z</time>
      </trkpt>
      <trkpt lat="44.18922" lon="3.21386">
        <ele>434.20001220703</ele>
        <time>2010-10-24T06:30:54Z</time>
      </trkpt>
      <trkpt lat="44.18936" lon="3.21405">
        <ele>433.79998779297</ele>
        <time>2010-10-24T06:30:59Z</time>
      </trkpt>
      <trkpt lat="44.18942" lon="3.21434">
        <ele>433.20001220703</ele>
        <time>2010-10-24T06:31:05Z</time>
      </trkpt>
      <trkpt lat="44.18945" lon="3.21463">
        <ele>432.79998779297</ele>
        <time>2010-10-24T06:31:11Z</time>
      </trkpt>
      <trkpt lat="44.18948" lon="3.21489">
        <ele>432</ele>
        <time>2010-10-24T06:31:17Z</time>
      </trkpt>
      <trkpt lat="44.18953" lon="3.21512">
        <ele>431.39999389648</ele>
        <time>2010-10-24T06:31:22Z</time>
      </trkpt>
      <trkpt lat="44.18961" lon="3.2154">
        <ele>430.79998779297</ele>
        <time>2010-10-24T06:31:28Z</time>
      </trkpt>
      <trkpt lat="44.18969" lon="3.21567">
        <ele>430.20001220703</ele>
        <time>2010-10-24T06:31:34Z</time>
      </trkpt>
      <trkpt lat="44.18975" lon="3.21593">
        <ele>429.60000610352</ele>
        <time>2010-10-24T06:31:40Z</time>
      </trkpt>
      <trkpt lat="44.18986" lon="3.21614">
        <ele>429</ele>
        <time>2010-10-24T06:31:45Z</time>
      </trkpt>
      <trkpt lat="44.18995" lon="3.21636">
        <ele>428.39999389648</ele>
        <time>2010-10-24T06:31:50Z</time>
      </trkpt>
      <trkpt lat="44.19004" lon="3.2166">
        <ele>427.79998779297</ele>
        <time>2010-10-24T06:31:56Z</time>
      </trkpt>
      <trkpt lat="44.19016" lon="3.21681">
        <ele>427.20001220703</ele>
        <time>2010-10-24T06:32:02Z</time>
      </trkpt>
      <trkpt lat="44.19028" lon="3.21704">
        <ele>426.60000610352</ele>
        <time>2010-10-24T06:32:08Z</time>
      </trkpt>
      <trkpt lat="44.19039" lon="3.21729">
        <ele>426</ele>
        <time>2010-10-24T06:32:14Z</time>
      </trkpt>
      <trkpt lat="44.1905" lon="3.21753">
        <ele>425.39999389648</ele>
        <time>2010-10-24T06:32:20Z</time>
      </trkpt>
      <trkpt lat="44.19058" lon="3.21779">
        <ele>424.79998779297</ele>
        <time>2010-10-24T06:32:26Z</time>
      </trkpt>
      <trkpt lat="44.19062" lon="3.21805">
        <ele>424.20001220703</ele>
        <time>2010-10-24T06:32:32Z</time>
      </trkpt>
      <trkpt lat="44.19064" lon="3.21834">
        <ele>424</ele>
        <time>2010-10-24T06:32:39Z</time>
      </trkpt>
      <trkpt lat="44.19069" lon="3.2186">
        <ele>423.79998779297</ele>
        <time>2010-10-24T06:32:45Z</time>
      </trkpt>
      <trkpt lat="44.19071" lon="3.21887">
        <ele>423.79998779297</ele>
        <time>2010-10-24T06:32:51Z</time>
      </trkpt>
      <trkpt lat="44.19072" lon="3.21919">
        <ele>423.60000610352</ele>
        <time>2010-10-24T06:32:57Z</time>
      </trkpt>
      <trkpt lat="44.1907" lon="3.21946">
        <ele>423.60000610352</ele>
        <time>2010-10-24T06:33:03Z</time>
      </trkpt>
      <trkpt lat="44.19072" lon="3.21976">
        <ele>423.39999389648</ele>
        <time>2010-10-24T06:33:09Z</time>
      </trkpt>
      <trkpt lat="44.19077" lon="3.22002">
        <ele>423.39999389648</ele>
        <time>2010-10-24T06:33:14Z</time>
      </trkpt>
      <trkpt lat="44.19077" lon="3.22028">
        <ele>423</ele>
        <time>2010-10-24T06:33:20Z</time>
      </trkpt>
      <trkpt lat="44.19074" lon="3.22056">
        <ele>422.60000610352</ele>
        <time>2010-10-24T06:33:26Z</time>
      </trkpt>
      <trkpt lat="44.19073" lon="3.22082">
        <ele>422</ele>
        <time>2010-10-24T06:33:32Z</time>
      </trkpt>
      <trkpt lat="44.19075" lon="3.22109">
        <ele>421.20001220703</ele>
        <time>2010-10-24T06:33:38Z</time>
      </trkpt>
      <trkpt lat="44.19078" lon="3.22138">
        <ele>420.60000610352</ele>
        <time>2010-10-24T06:33:44Z</time>
      </trkpt>
      <trkpt lat="44.19079" lon="3.22166">
        <ele>420</ele>
        <time>2010-10-24T06:33:50Z</time>
      </trkpt>
      <trkpt lat="44.19078" lon="3.22193">
        <ele>419.60000610352</ele>
        <time>2010-10-24T06:33:56Z</time>
      </trkpt>
      <trkpt lat="44.19079" lon="3.22222">
        <ele>419</ele>
        <time>2010-10-24T06:34:03Z</time>
      </trkpt>
      <trkpt lat="44.19083" lon="3.22247">
        <ele>418.79998779297</ele>
        <time>2010-10-24T06:34:09Z</time>
      </trkpt>
      <trkpt lat="44.19083" lon="3.22274">
        <ele>418.79998779297</ele>
        <time>2010-10-24T06:34:15Z</time>
      </trkpt>
      <trkpt lat="44.19082" lon="3.22299">
        <ele>418.79998779297</ele>
        <time>2010-10-24T06:34:20Z</time>
      </trkpt>
      <trkpt lat="44.19081" lon="3.22325">
        <ele>418.79998779297</ele>
        <time>2010-10-24T06:34:26Z</time>
      </trkpt>
      <trkpt lat="44.19076" lon="3.2235">
        <ele>419.20001220703</ele>
        <time>2010-10-24T06:34:32Z</time>
      </trkpt>
      <trkpt lat="44.19075" lon="3.2236">
        <ele>419.39999389648</ele>
        <time>2010-10-24T06:34:35Z</time>
      </trkpt>
      <trkpt lat="44.19072" lon="3.22376">
        <ele>419.79998779297</ele>
        <time>2010-10-24T06:34:40Z</time>
      </trkpt>
      <trkpt lat="44.1907" lon="3.22404">
        <ele>420.39999389648</ele>
        <time>2010-10-24T06:34:46Z</time>
      </trkpt>
      <trkpt lat="44.19075" lon="3.22429">
        <ele>420.60000610352</ele>
        <time>2010-10-24T06:34:52Z</time>
      </trkpt>
      <trkpt lat="44.1908" lon="3.22454">
        <ele>421.39999389648</ele>
        <time>2010-10-24T06:34:58Z</time>
      </trkpt>
      <trkpt lat="44.19081" lon="3.22482">
        <ele>421.60000610352</ele>
        <time>2010-10-24T06:35:05Z</time>
      </trkpt>
      <trkpt lat="44.19088" lon="3.22506">
        <ele>421.39999389648</ele>
        <time>2010-10-24T06:35:11Z</time>
      </trkpt>
      <trkpt lat="44.19082" lon="3.22533">
        <ele>421.79998779297</ele>
        <time>2010-10-24T06:35:18Z</time>
      </trkpt>
      <trkpt lat="44.19075" lon="3.22557">
        <ele>422.39999389648</ele>
        <time>2010-10-24T06:35:24Z</time>
      </trkpt>
      <trkpt lat="44.19066" lon="3.22577">
        <ele>424</ele>
        <time>2010-10-24T06:35:29Z</time>
      </trkpt>
      <trkpt lat="44.19062" lon="3.22582">
        <ele>424.20001220703</ele>
        <time>2010-10-24T06:35:31Z</time>
      </trkpt>
      <trkpt lat="44.19051" lon="3.22596">
        <ele>425.20001220703</ele>
        <time>2010-10-24T06:35:36Z</time>
      </trkpt>
      <trkpt lat="44.19047" lon="3.226">
        <ele>425.79998779297</ele>
        <time>2010-10-24T06:35:38Z</time>
      </trkpt>
      <trkpt lat="44.1903" lon="3.22616">
        <ele>427.79998779297</ele>
        <time>2010-10-24T06:35:45Z</time>
      </trkpt>
      <trkpt lat="44.19018" lon="3.22639">
        <ele>430.60000610352</ele>
        <time>2010-10-24T06:35:53Z</time>
      </trkpt>
      <trkpt lat="44.19009" lon="3.22664">
        <ele>434.39999389648</ele>
        <time>2010-10-24T06:36:01Z</time>
      </trkpt>
      <trkpt lat="44.19001" lon="3.2269">
        <ele>437.79998779297</ele>
        <time>2010-10-24T06:36:09Z</time>
      </trkpt>
      <trkpt lat="44.18994" lon="3.22718">
        <ele>440.79998779297</ele>
        <time>2010-10-24T06:36:17Z</time>
      </trkpt>
      <trkpt lat="44.18988" lon="3.22741">
        <ele>442.79998779297</ele>
        <time>2010-10-24T06:36:25Z</time>
      </trkpt>
      <trkpt lat="44.18987" lon="3.22743">
        <ele>442.79998779297</ele>
        <time>2010-10-24T06:36:26Z</time>
      </trkpt>
      <trkpt lat="44.18984" lon="3.22769">
        <ele>443.79998779297</ele>
        <time>2010-10-24T06:36:34Z</time>
      </trkpt>
      <trkpt lat="44.18976" lon="3.22793">
        <ele>444.20001220703</ele>
        <time>2010-10-24T06:36:42Z</time>
      </trkpt>
      <trkpt lat="44.1898" lon="3.2282">
        <ele>444.39999389648</ele>
        <time>2010-10-24T06:36:49Z</time>
      </trkpt>
      <trkpt lat="44.18978" lon="3.22849">
        <ele>444.20001220703</ele>
        <time>2010-10-24T06:36:56Z</time>
      </trkpt>
      <trkpt lat="44.1898" lon="3.22875">
        <ele>444</ele>
        <time>2010-10-24T06:37:02Z</time>
      </trkpt>
      <trkpt lat="44.18985" lon="3.22903">
        <ele>444.20001220703</ele>
        <time>2010-10-24T06:37:08Z</time>
      </trkpt>
      <trkpt lat="44.18979" lon="3.22931">
        <ele>444</ele>
        <time>2010-10-24T06:37:15Z</time>
      </trkpt>
      <trkpt lat="44.18977" lon="3.22957">
        <ele>444.79998779297</ele>
        <time>2010-10-24T06:37:22Z</time>
      </trkpt>
      <trkpt lat="44.18977" lon="3.22985">
        <ele>445.39999389648</ele>
        <time>2010-10-24T06:37:29Z</time>
      </trkpt>
      <trkpt lat="44.18975" lon="3.23011">
        <ele>446</ele>
        <time>2010-10-24T06:37:35Z</time>
      </trkpt>
      <trkpt lat="44.18973" lon="3.23038">
        <ele>445.79998779297</ele>
        <time>2010-10-24T06:37:41Z</time>
      </trkpt>
      <trkpt lat="44.18968" lon="3.23066">
        <ele>446</ele>
        <time>2010-10-24T06:37:48Z</time>
      </trkpt>
      <trkpt lat="44.18968" lon="3.23093">
        <ele>446.20001220703</ele>
        <time>2010-10-24T06:37:55Z</time>
      </trkpt>
      <trkpt lat="44.18969" lon="3.231">
        <ele>446.60000610352</ele>
        <time>2010-10-24T06:37:57Z</time>
      </trkpt>
      <trkpt lat="44.18962" lon="3.23117">
        <ele>447.79998779297</ele>
        <time>2010-10-24T06:38:03Z</time>
      </trkpt>
      <trkpt lat="44.18952" lon="3.23142">
        <ele>449.39999389648</ele>
        <time>2010-10-24T06:38:11Z</time>
      </trkpt>
      <trkpt lat="44.18945" lon="3.23169">
        <ele>450</ele>
        <time>2010-10-24T06:38:18Z</time>
      </trkpt>
      <trkpt lat="44.18948" lon="3.23195">
        <ele>450</ele>
        <time>2010-10-24T06:38:24Z</time>
      </trkpt>
      <trkpt lat="44.18953" lon="3.23225">
        <ele>449.60000610352</ele>
        <time>2010-10-24T06:38:30Z</time>
      </trkpt>
      <trkpt lat="44.18952" lon="3.23251">
        <ele>449.39999389648</ele>
        <time>2010-10-24T06:38:36Z</time>
      </trkpt>
      <trkpt lat="44.18956" lon="3.23278">
        <ele>449</ele>
        <time>2010-10-24T06:38:42Z</time>
      </trkpt>
      <trkpt lat="44.1896" lon="3.23303">
        <ele>448.60000610352</ele>
        <time>2010-10-24T06:38:48Z</time>
      </trkpt>
      <trkpt lat="44.18959" lon="3.23329">
        <ele>448.39999389648</ele>
        <time>2010-10-24T06:38:55Z</time>
      </trkpt>
      <trkpt lat="44.18956" lon="3.23357">
        <ele>448.39999389648</ele>
        <time>2010-10-24T06:39:02Z</time>
      </trkpt>
      <trkpt lat="44.1896" lon="3.23383">
        <ele>448.60000610352</ele>
        <time>2010-10-24T06:39:08Z</time>
      </trkpt>
      <trkpt lat="44.18961" lon="3.2341">
        <ele>450</ele>
        <time>2010-10-24T06:39:15Z</time>
      </trkpt>
      <trkpt lat="44.18959" lon="3.23427">
        <ele>452</ele>
        <time>2010-10-24T06:39:21Z</time>
      </trkpt>
      <trkpt lat="44.18961" lon="3.23435">
        <ele>452.60000610352</ele>
        <time>2010-10-24T06:39:23Z</time>
      </trkpt>
      <trkpt lat="44.18963" lon="3.23461">
        <ele>454.60000610352</ele>
        <time>2010-10-24T06:39:30Z</time>
      </trkpt>
      <trkpt lat="44.18963" lon="3.2349">
        <ele>455.60000610352</ele>
        <time>2010-10-24T06:39:37Z</time>
      </trkpt>
      <trkpt lat="44.18963" lon="3.23516">
        <ele>455.79998779297</ele>
        <time>2010-10-24T06:39:43Z</time>
      </trkpt>
      <trkpt lat="44.18962" lon="3.23545">
        <ele>455.79998779297</ele>
        <time>2010-10-24T06:39:50Z</time>
      </trkpt>
      <trkpt lat="44.18959" lon="3.23572">
        <ele>455.60000610352</ele>
        <time>2010-10-24T06:39:57Z</time>
      </trkpt>
      <trkpt lat="44.18963" lon="3.23599">
        <ele>455.39999389648</ele>
        <time>2010-10-24T06:40:04Z</time>
      </trkpt>
      <trkpt lat="44.18964" lon="3.23626">
        <ele>455.79998779297</ele>
        <time>2010-10-24T06:40:11Z</time>
      </trkpt>
      <trkpt lat="44.18969" lon="3.23653">
        <ele>456.39999389648</ele>
        <time>2010-10-24T06:40:18Z</time>
      </trkpt>
      <trkpt lat="44.18977" lon="3.23678">
        <ele>457</ele>
        <time>2010-10-24T06:40:24Z</time>
      </trkpt>
      <trkpt lat="44.18982" lon="3.23705">
        <ele>457.39999389648</ele>
        <time>2010-10-24T06:40:30Z</time>
      </trkpt>
      <trkpt lat="44.18982" lon="3.23708">
        <ele>457.60000610352</ele>
        <time>2010-10-24T06:40:31Z</time>
      </trkpt>
      <trkpt lat="44.18984" lon="3.23731">
        <ele>457.79998779297</ele>
        <time>2010-10-24T06:40:37Z</time>
      </trkpt>
      <trkpt lat="44.18989" lon="3.23759">
        <ele>457.79998779297</ele>
        <time>2010-10-24T06:40:44Z</time>
      </trkpt>
      <trkpt lat="44.18994" lon="3.23785">
        <ele>458</ele>
        <time>2010-10-24T06:40:51Z</time>
      </trkpt>
      <trkpt lat="44.18999" lon="3.23811">
        <ele>458.39999389648</ele>
        <time>2010-10-24T06:40:58Z</time>
      </trkpt>
      <trkpt lat="44.19003" lon="3.23839">
        <ele>459.20001220703</ele>
        <time>2010-10-24T06:41:06Z</time>
      </trkpt>
      <trkpt lat="44.19004" lon="3.23867">
        <ele>460.20001220703</ele>
        <time>2010-10-24T06:41:14Z</time>
      </trkpt>
      <trkpt lat="44.19004" lon="3.23894">
        <ele>461.60000610352</ele>
        <time>2010-10-24T06:41:21Z</time>
      </trkpt>
      <trkpt lat="44.18999" lon="3.23919">
        <ele>462.60000610352</ele>
        <time>2010-10-24T06:41:28Z</time>
      </trkpt>
      <trkpt lat="44.18995" lon="3.23944">
        <ele>463</ele>
        <time>2010-10-24T06:41:34Z</time>
      </trkpt>
      <trkpt lat="44.18993" lon="3.23958">
        <ele>463.20001220703</ele>
        <time>2010-10-24T06:41:38Z</time>
      </trkpt>
      <trkpt lat="44.18998" lon="3.23964">
        <ele>464</ele>
        <time>2010-10-24T06:41:43Z</time>
      </trkpt>
      <trkpt lat="44.19006" lon="3.23968">
        <ele>464.60000610352</ele>
        <time>2010-10-24T06:41:47Z</time>
      </trkpt>
      <trkpt lat="44.19015" lon="3.23972">
        <ele>465.20001220703</ele>
        <time>2010-10-24T06:41:51Z</time>
      </trkpt>
      <trkpt lat="44.19025" lon="3.23993">
        <ele>466.39999389648</ele>
        <time>2010-10-24T06:41:59Z</time>
      </trkpt>
      <trkpt lat="44.19032" lon="3.24019">
        <ele>467.60000610352</ele>
        <time>2010-10-24T06:42:06Z</time>
      </trkpt>
      <trkpt lat="44.19033" lon="3.24044">
        <ele>469.79998779297</ele>
        <time>2010-10-24T06:42:18Z</time>
      </trkpt>
      <trkpt lat="44.19034" lon="3.24046">
        <ele>470</ele>
        <time>2010-10-24T06:42:19Z</time>
      </trkpt>
      <trkpt lat="44.19035" lon="3.2405">
        <ele>471</ele>
        <time>2010-10-24T06:42:23Z</time>
      </trkpt>
      <trkpt lat="44.19033" lon="3.24066">
        <ele>472.79998779297</ele>
        <time>2010-10-24T06:42:34Z</time>
      </trkpt>
      <trkpt lat="44.19033" lon="3.2407">
        <ele>473</ele>
        <time>2010-10-24T06:42:37Z</time>
      </trkpt>
      <trkpt lat="44.19033" lon="3.24072">
        <ele>473.20001220703</ele>
        <time>2010-10-24T06:42:38Z</time>
      </trkpt>
      <trkpt lat="44.19032" lon="3.24075">
        <ele>473.39999389648</ele>
        <time>2010-10-24T06:42:40Z</time>
      </trkpt>
      <trkpt lat="44.19034" lon="3.24081">
        <ele>474.60000610352</ele>
        <time>2010-10-24T06:42:45Z</time>
      </trkpt>
      <trkpt lat="44.19034" lon="3.24094">
        <ele>475.79998779297</ele>
        <time>2010-10-24T06:42:52Z</time>
      </trkpt>
      <trkpt lat="44.19034" lon="3.24097">
        <ele>476.20001220703</ele>
        <time>2010-10-24T06:42:54Z</time>
      </trkpt>
      <trkpt lat="44.19036" lon="3.24112">
        <ele>478.79998779297</ele>
        <time>2010-10-24T06:43:05Z</time>
      </trkpt>
      <trkpt lat="44.1904" lon="3.24122">
        <ele>480</ele>
        <time>2010-10-24T06:43:10Z</time>
      </trkpt>
      <trkpt lat="44.19048" lon="3.24143">
        <ele>482.39999389648</ele>
        <time>2010-10-24T06:43:19Z</time>
      </trkpt>
      <trkpt lat="44.19049" lon="3.24146">
        <ele>483</ele>
        <time>2010-10-24T06:43:21Z</time>
      </trkpt>
      <trkpt lat="44.19051" lon="3.24149">
        <ele>483.79998779297</ele>
        <time>2010-10-24T06:43:23Z</time>
      </trkpt>
      <trkpt lat="44.19053" lon="3.24157">
        <ele>485</ele>
        <time>2010-10-24T06:43:28Z</time>
      </trkpt>
      <trkpt lat="44.19054" lon="3.24171">
        <ele>487.20001220703</ele>
        <time>2010-10-24T06:43:36Z</time>
      </trkpt>
      <trkpt lat="44.19053" lon="3.24197">
        <ele>490.79998779297</ele>
        <time>2010-10-24T06:43:52Z</time>
      </trkpt>
      <trkpt lat="44.19054" lon="3.24207">
        <ele>493.39999389648</ele>
        <time>2010-10-24T06:44:00Z</time>
      </trkpt>
      <trkpt lat="44.19054" lon="3.24211">
        <ele>494.60000610352</ele>
        <time>2010-10-24T06:44:04Z</time>
      </trkpt>
      <trkpt lat="44.19057" lon="3.24217">
        <ele>496.39999389648</ele>
        <time>2010-10-24T06:44:09Z</time>
      </trkpt>
      <trkpt lat="44.19057" lon="3.24218">
        <ele>496.79998779297</ele>
        <time>2010-10-24T06:44:10Z</time>
      </trkpt>
      <trkpt lat="44.19056" lon="3.24221">
        <ele>497.20001220703</ele>
        <time>2010-10-24T06:44:12Z</time>
      </trkpt>
      <trkpt lat="44.19055" lon="3.24222">
        <ele>497.39999389648</ele>
        <time>2010-10-24T06:44:13Z</time>
      </trkpt>
      <trkpt lat="44.19055" lon="3.24227">
        <ele>498.39999389648</ele>
        <time>2010-10-24T06:44:16Z</time>
      </trkpt>
      <trkpt lat="44.19056" lon="3.2424">
        <ele>501.39999389648</ele>
        <time>2010-10-24T06:44:26Z</time>
      </trkpt>
      <trkpt lat="44.19055" lon="3.24249">
        <ele>503.20001220703</ele>
        <time>2010-10-24T06:44:33Z</time>
      </trkpt>
      <trkpt lat="44.19056" lon="3.24254">
        <ele>504.20001220703</ele>
        <time>2010-10-24T06:44:37Z</time>
      </trkpt>
      <trkpt lat="44.19058" lon="3.24267">
        <ele>507.60000610352</ele>
        <time>2010-10-24T06:44:48Z</time>
      </trkpt>
      <trkpt lat="44.19059" lon="3.2427">
        <ele>508.39999389648</ele>
        <time>2010-10-24T06:44:50Z</time>
      </trkpt>
      <trkpt lat="44.19061" lon="3.24275">
        <ele>510</ele>
        <time>2010-10-24T06:44:54Z</time>
      </trkpt>
      <trkpt lat="44.19063" lon="3.24288">
        <ele>513.79998779297</ele>
        <time>2010-10-24T06:45:05Z</time>
      </trkpt>
      <trkpt lat="44.19064" lon="3.24301">
        <ele>517</ele>
        <time>2010-10-24T06:45:15Z</time>
      </trkpt>
      <trkpt lat="44.19062" lon="3.24304">
        <ele>517.59997558594</ele>
        <time>2010-10-24T06:45:17Z</time>
      </trkpt>
      <trkpt lat="44.19063" lon="3.24323">
        <ele>520.79998779297</ele>
        <time>2010-10-24T06:45:29Z</time>
      </trkpt>
      <trkpt lat="44.19063" lon="3.24327">
        <ele>521.20001220703</ele>
        <time>2010-10-24T06:45:31Z</time>
      </trkpt>
      <trkpt lat="44.19064" lon="3.24336">
        <ele>522.40002441406</ele>
        <time>2010-10-24T06:45:37Z</time>
      </trkpt>
      <trkpt lat="44.19065" lon="3.24348">
        <ele>524.20001220703</ele>
        <time>2010-10-24T06:45:45Z</time>
      </trkpt>
      <trkpt lat="44.19067" lon="3.24353">
        <ele>525</ele>
        <time>2010-10-24T06:45:48Z</time>
      </trkpt>
      <trkpt lat="44.19067" lon="3.2436">
        <ele>526.59997558594</ele>
        <time>2010-10-24T06:45:53Z</time>
      </trkpt>
      <trkpt lat="44.1907" lon="3.24367">
        <ele>528.20001220703</ele>
        <time>2010-10-24T06:45:58Z</time>
      </trkpt>
      <trkpt lat="44.19072" lon="3.24373">
        <ele>529.40002441406</ele>
        <time>2010-10-24T06:46:02Z</time>
      </trkpt>
      <trkpt lat="44.19073" lon="3.24378">
        <ele>530.59997558594</ele>
        <time>2010-10-24T06:46:05Z</time>
      </trkpt>
      <trkpt lat="44.19077" lon="3.24392">
        <ele>534.79998779297</ele>
        <time>2010-10-24T06:46:16Z</time>
      </trkpt>
      <trkpt lat="44.1908" lon="3.24402">
        <ele>537.20001220703</ele>
        <time>2010-10-24T06:46:23Z</time>
      </trkpt>
      <trkpt lat="44.1908" lon="3.24403">
        <ele>537.40002441406</ele>
        <time>2010-10-24T06:46:24Z</time>
      </trkpt>
      <trkpt lat="44.19085" lon="3.24409">
        <ele>539.20001220703</ele>
        <time>2010-10-24T06:46:29Z</time>
      </trkpt>
      <trkpt lat="44.19093" lon="3.24421">
        <ele>541.59997558594</ele>
        <time>2010-10-24T06:46:37Z</time>
      </trkpt>
      <trkpt lat="44.19093" lon="3.24424">
        <ele>541.79998779297</ele>
        <time>2010-10-24T06:46:38Z</time>
      </trkpt>
      <trkpt lat="44.19091" lon="3.24428">
        <ele>542.79998779297</ele>
        <time>2010-10-24T06:46:42Z</time>
      </trkpt>
      <trkpt lat="44.19089" lon="3.24427">
        <ele>543</ele>
        <time>2010-10-24T06:46:44Z</time>
      </trkpt>
      <trkpt lat="44.19085" lon="3.24425">
        <ele>543.79998779297</ele>
        <time>2010-10-24T06:46:48Z</time>
      </trkpt>
      <trkpt lat="44.19084" lon="3.24424">
        <ele>544</ele>
        <time>2010-10-24T06:46:50Z</time>
      </trkpt>
      <trkpt lat="44.19078" lon="3.24422">
        <ele>544.59997558594</ele>
        <time>2010-10-24T06:46:54Z</time>
      </trkpt>
      <trkpt lat="44.19073" lon="3.2442">
        <ele>545.40002441406</ele>
        <time>2010-10-24T06:46:58Z</time>
      </trkpt>
      <trkpt lat="44.1906" lon="3.24416">
        <ele>547.20001220703</ele>
        <time>2010-10-24T06:47:11Z</time>
      </trkpt>
      <trkpt lat="44.19054" lon="3.24412">
        <ele>548.20001220703</ele>
        <time>2010-10-24T06:47:16Z</time>
      </trkpt>
      <trkpt lat="44.19059" lon="3.24426">
        <ele>551</ele>
        <time>2010-10-24T06:47:29Z</time>
      </trkpt>
      <trkpt lat="44.19063" lon="3.24431">
        <ele>552.40002441406</ele>
        <time>2010-10-24T06:47:33Z</time>
      </trkpt>
      <trkpt lat="44.19064" lon="3.24437">
        <ele>553.79998779297</ele>
        <time>2010-10-24T06:47:37Z</time>
      </trkpt>
      <trkpt lat="44.19067" lon="3.2445">
        <ele>556.20001220703</ele>
        <time>2010-10-24T06:47:45Z</time>
      </trkpt>
      <trkpt lat="44.19059" lon="3.24455">
        <ele>559.59997558594</ele>
        <time>2010-10-24T06:47:56Z</time>
      </trkpt>
      <trkpt lat="44.19055" lon="3.24452">
        <ele>562.20001220703</ele>
        <time>2010-10-24T06:48:05Z</time>
      </trkpt>
      <trkpt lat="44.19048" lon="3.24448">
        <ele>564.20001220703</ele>
        <time>2010-10-24T06:48:12Z</time>
      </trkpt>
      <trkpt lat="44.19046" lon="3.24446">
        <ele>565</ele>
        <time>2010-10-24T06:48:15Z</time>
      </trkpt>
      <trkpt lat="44.19041" lon="3.24444">
        <ele>566</ele>
        <time>2010-10-24T06:48:19Z</time>
      </trkpt>
      <trkpt lat="44.19039" lon="3.24441">
        <ele>567</ele>
        <time>2010-10-24T06:48:22Z</time>
      </trkpt>
      <trkpt lat="44.19027" lon="3.24431">
        <ele>570.59997558594</ele>
        <time>2010-10-24T06:48:34Z</time>
      </trkpt>
      <trkpt lat="44.19024" lon="3.24426">
        <ele>572.20001220703</ele>
        <time>2010-10-24T06:48:39Z</time>
      </trkpt>
      <trkpt lat="44.19019" lon="3.2442">
        <ele>573.40002441406</ele>
        <time>2010-10-24T06:48:43Z</time>
      </trkpt>
      <trkpt lat="44.19015" lon="3.24416">
        <ele>574.20001220703</ele>
        <time>2010-10-24T06:48:45Z</time>
      </trkpt>
      <trkpt lat="44.19011" lon="3.24406">
        <ele>576.20001220703</ele>
        <time>2010-10-24T06:48:49Z</time>
      </trkpt>
      <trkpt lat="44.19008" lon="3.24398">
        <ele>577.40002441406</ele>
        <time>2010-10-24T06:48:52Z</time>
      </trkpt>
      <trkpt lat="44.19001" lon="3.24386">
        <ele>580.40002441406</ele>
        <time>2010-10-24T06:48:58Z</time>
      </trkpt>
      <trkpt lat="44.19" lon="3.24385">
        <ele>580.79998779297</ele>
        <time>2010-10-24T06:48:59Z</time>
      </trkpt>
      <trkpt lat="44.19001" lon="3.24388">
        <ele>581.59997558594</ele>
        <time>2010-10-24T06:49:01Z</time>
      </trkpt>
      <trkpt lat="44.19001" lon="3.24394">
        <ele>583.79998779297</ele>
        <time>2010-10-24T06:49:07Z</time>
      </trkpt>
      <trkpt lat="44.18998" lon="3.24398">
        <ele>585.40002441406</ele>
        <time>2010-10-24T06:49:12Z</time>
      </trkpt>
      <trkpt lat="44.18998" lon="3.244">
        <ele>586</ele>
        <time>2010-10-24T06:49:14Z</time>
      </trkpt>
      <trkpt lat="44.18999" lon="3.24412">
        <ele>588.59997558594</ele>
        <time>2010-10-24T06:49:22Z</time>
      </trkpt>
      <trkpt lat="44.18999" lon="3.24421">
        <ele>590.40002441406</ele>
        <time>2010-10-24T06:49:30Z</time>
      </trkpt>
      <trkpt lat="44.18999" lon="3.24426">
        <ele>591.59997558594</ele>
        <time>2010-10-24T06:49:34Z</time>
      </trkpt>
      <trkpt lat="44.19002" lon="3.24437">
        <ele>593</ele>
        <time>2010-10-24T06:49:39Z</time>
      </trkpt>
      <trkpt lat="44.19003" lon="3.24453">
        <ele>595.59997558594</ele>
        <time>2010-10-24T06:49:47Z</time>
      </trkpt>
      <trkpt lat="44.19004" lon="3.24456">
        <ele>596.20001220703</ele>
        <time>2010-10-24T06:49:49Z</time>
      </trkpt>
      <trkpt lat="44.19005" lon="3.24462">
        <ele>597.20001220703</ele>
        <time>2010-10-24T06:49:53Z</time>
      </trkpt>
      <trkpt lat="44.19004" lon="3.24463">
        <ele>597.59997558594</ele>
        <time>2010-10-24T06:49:54Z</time>
      </trkpt>
      <trkpt lat="44.19003" lon="3.24463">
        <ele>598</ele>
        <time>2010-10-24T06:49:56Z</time>
      </trkpt>
      <trkpt lat="44.19002" lon="3.24461">
        <ele>598.59997558594</ele>
        <time>2010-10-24T06:49:58Z</time>
      </trkpt>
      <trkpt lat="44.18999" lon="3.24457">
        <ele>599.79998779297</ele>
        <time>2010-10-24T06:50:03Z</time>
      </trkpt>
      <trkpt lat="44.18997" lon="3.24456">
        <ele>600.20001220703</ele>
        <time>2010-10-24T06:50:04Z</time>
      </trkpt>
      <trkpt lat="44.18994" lon="3.24453">
        <ele>601</ele>
        <time>2010-10-24T06:50:08Z</time>
      </trkpt>
      <trkpt lat="44.18993" lon="3.24448">
        <ele>602.59997558594</ele>
        <time>2010-10-24T06:50:12Z</time>
      </trkpt>
      <trkpt lat="44.18993" lon="3.24446">
        <ele>603</ele>
        <time>2010-10-24T06:50:13Z</time>
      </trkpt>
      <trkpt lat="44.1898" lon="3.24439">
        <ele>610.40002441406</ele>
        <time>2010-10-24T06:50:34Z</time>
      </trkpt>
      <trkpt lat="44.18981" lon="3.24443">
        <ele>612</ele>
        <time>2010-10-24T06:50:38Z</time>
      </trkpt>
      <trkpt lat="44.1898" lon="3.24445">
        <ele>612.40002441406</ele>
        <time>2010-10-24T06:50:39Z</time>
      </trkpt>
      <trkpt lat="44.18978" lon="3.24455">
        <ele>615.79998779297</ele>
        <time>2010-10-24T06:50:49Z</time>
      </trkpt>
      <trkpt lat="44.18975" lon="3.24461">
        <ele>617.20001220703</ele>
        <time>2010-10-24T06:50:55Z</time>
      </trkpt>
      <trkpt lat="44.18977" lon="3.24463">
        <ele>618.20001220703</ele>
        <time>2010-10-24T06:50:58Z</time>
      </trkpt>
      <trkpt lat="44.18978" lon="3.24469">
        <ele>619</ele>
        <time>2010-10-24T06:51:02Z</time>
      </trkpt>
      <trkpt lat="44.18976" lon="3.24469">
        <ele>620.20001220703</ele>
        <time>2010-10-24T06:51:06Z</time>
      </trkpt>
      <trkpt lat="44.18973" lon="3.24469">
        <ele>621</ele>
        <time>2010-10-24T06:51:09Z</time>
      </trkpt>
      <trkpt lat="44.18977" lon="3.2447">
        <ele>625.20001220703</ele>
        <time>2010-10-24T06:51:20Z</time>
      </trkpt>
      <trkpt lat="44.18979" lon="3.24475">
        <ele>626.79998779297</ele>
        <time>2010-10-24T06:51:23Z</time>
      </trkpt>
      <trkpt lat="44.18981" lon="3.24483">
        <ele>629</ele>
        <time>2010-10-24T06:51:28Z</time>
      </trkpt>
      <trkpt lat="44.18977" lon="3.24491">
        <ele>631</ele>
        <time>2010-10-24T06:51:35Z</time>
      </trkpt>
      <trkpt lat="44.18975" lon="3.24498">
        <ele>632.20001220703</ele>
        <time>2010-10-24T06:51:40Z</time>
      </trkpt>
      <trkpt lat="44.18972" lon="3.24507">
        <ele>633.40002441406</ele>
        <time>2010-10-24T06:51:46Z</time>
      </trkpt>
      <trkpt lat="44.1897" lon="3.24519">
        <ele>634.20001220703</ele>
        <time>2010-10-24T06:51:53Z</time>
      </trkpt>
      <trkpt lat="44.1897" lon="3.24526">
        <ele>634.79998779297</ele>
        <time>2010-10-24T06:51:57Z</time>
      </trkpt>
      <trkpt lat="44.18971" lon="3.24533">
        <ele>635.40002441406</ele>
        <time>2010-10-24T06:52:01Z</time>
      </trkpt>
      <trkpt lat="44.1897" lon="3.24536">
        <ele>636</ele>
        <time>2010-10-24T06:52:04Z</time>
      </trkpt>
      <trkpt lat="44.18972" lon="3.24553">
        <ele>637</ele>
        <time>2010-10-24T06:52:11Z</time>
      </trkpt>
      <trkpt lat="44.18972" lon="3.24558">
        <ele>637.40002441406</ele>
        <time>2010-10-24T06:52:14Z</time>
      </trkpt>
      <trkpt lat="44.18971" lon="3.2456">
        <ele>637.79998779297</ele>
        <time>2010-10-24T06:52:16Z</time>
      </trkpt>
      <trkpt lat="44.18968" lon="3.24583">
        <ele>640.40002441406</ele>
        <time>2010-10-24T06:52:30Z</time>
      </trkpt>
      <trkpt lat="44.18968" lon="3.2459">
        <ele>641.59997558594</ele>
        <time>2010-10-24T06:52:34Z</time>
      </trkpt>
      <trkpt lat="44.1897" lon="3.24595">
        <ele>642.40002441406</ele>
        <time>2010-10-24T06:52:37Z</time>
      </trkpt>
      <trkpt lat="44.18969" lon="3.24597">
        <ele>644</ele>
        <time>2010-10-24T06:52:41Z</time>
      </trkpt>
      <trkpt lat="44.18966" lon="3.24588">
        <ele>646.40002441406</ele>
        <time>2010-10-24T06:52:48Z</time>
      </trkpt>
      <trkpt lat="44.18964" lon="3.24581">
        <ele>648.40002441406</ele>
        <time>2010-10-24T06:52:53Z</time>
      </trkpt>
      <trkpt lat="44.18957" lon="3.24566">
        <ele>651.59997558594</ele>
        <time>2010-10-24T06:53:05Z</time>
      </trkpt>
      <trkpt lat="44.18948" lon="3.24545">
        <ele>655</ele>
        <time>2010-10-24T06:53:23Z</time>
      </trkpt>
      <trkpt lat="44.18944" lon="3.24539">
        <ele>656</ele>
        <time>2010-10-24T06:53:30Z</time>
      </trkpt>
      <trkpt lat="44.1894" lon="3.24544">
        <ele>657</ele>
        <time>2010-10-24T06:53:36Z</time>
      </trkpt>
      <trkpt lat="44.18937" lon="3.24541">
        <ele>657.79998779297</ele>
        <time>2010-10-24T06:53:40Z</time>
      </trkpt>
      <trkpt lat="44.18936" lon="3.24537">
        <ele>658.59997558594</ele>
        <time>2010-10-24T06:53:44Z</time>
      </trkpt>
      <trkpt lat="44.18937" lon="3.2454">
        <ele>660.20001220703</ele>
        <time>2010-10-24T06:53:49Z</time>
      </trkpt>
      <trkpt lat="44.1894" lon="3.24563">
        <ele>662.59997558594</ele>
        <time>2010-10-24T06:53:57Z</time>
      </trkpt>
      <trkpt lat="44.18939" lon="3.24589">
        <ele>667.20001220703</ele>
        <time>2010-10-24T06:54:08Z</time>
      </trkpt>
      <trkpt lat="44.1894" lon="3.24592">
        <ele>669.40002441406</ele>
        <time>2010-10-24T06:54:13Z</time>
      </trkpt>
      <trkpt lat="44.18938" lon="3.24594">
        <ele>670.59997558594</ele>
        <time>2010-10-24T06:54:16Z</time>
      </trkpt>
      <trkpt lat="44.18937" lon="3.24593">
        <ele>672.40002441406</ele>
        <time>2010-10-24T06:54:20Z</time>
      </trkpt>
      <trkpt lat="44.18931" lon="3.24587">
        <ele>680.59997558594</ele>
        <time>2010-10-24T06:54:42Z</time>
      </trkpt>
      <trkpt lat="44.18926" lon="3.24596">
        <ele>682</ele>
        <time>2010-10-24T06:54:50Z</time>
      </trkpt>
      <trkpt lat="44.18925" lon="3.24597">
        <ele>682.79998779297</ele>
        <time>2010-10-24T06:54:52Z</time>
      </trkpt>
      <trkpt lat="44.18921" lon="3.24592">
        <ele>685</ele>
        <time>2010-10-24T06:55:03Z</time>
      </trkpt>
      <trkpt lat="44.1892" lon="3.24577">
        <ele>689.20001220703</ele>
        <time>2010-10-24T06:55:18Z</time>
      </trkpt>
      <trkpt lat="44.18919" lon="3.24576">
        <ele>689.40002441406</ele>
        <time>2010-10-24T06:55:19Z</time>
      </trkpt>
      <trkpt lat="44.18915" lon="3.2457">
        <ele>690.59997558594</ele>
        <time>2010-10-24T06:55:23Z</time>
      </trkpt>
      <trkpt lat="44.18904" lon="3.24563">
        <ele>692.20001220703</ele>
        <time>2010-10-24T06:55:32Z</time>
      </trkpt>
      <trkpt lat="44.18902" lon="3.24562">
        <ele>692.79998779297</ele>
        <time>2010-10-24T06:55:34Z</time>
      </trkpt>
      <trkpt lat="44.18894" lon="3.24559">
        <ele>694</ele>
        <time>2010-10-24T06:55:45Z</time>
      </trkpt>
      <trkpt lat="44.18891" lon="3.24557">
        <ele>694.40002441406</ele>
        <time>2010-10-24T06:55:48Z</time>
      </trkpt>
      <trkpt lat="44.18888" lon="3.24554">
        <ele>694.79998779297</ele>
        <time>2010-10-24T06:55:51Z</time>
      </trkpt>
      <trkpt lat="44.18887" lon="3.24552">
        <ele>695.20001220703</ele>
        <time>2010-10-24T06:55:53Z</time>
      </trkpt>
      <trkpt lat="44.18882" lon="3.24546">
        <ele>696.40002441406</ele>
        <time>2010-10-24T06:55:58Z</time>
      </trkpt>
      <trkpt lat="44.1888" lon="3.24542">
        <ele>697.40002441406</ele>
        <time>2010-10-24T06:56:02Z</time>
      </trkpt>
      <trkpt lat="44.18876" lon="3.24534">
        <ele>698.79998779297</ele>
        <time>2010-10-24T06:56:06Z</time>
      </trkpt>
      <trkpt lat="44.18872" lon="3.24523">
        <ele>700.59997558594</ele>
        <time>2010-10-24T06:56:11Z</time>
      </trkpt>
      <trkpt lat="44.18868" lon="3.24511">
        <ele>702.59997558594</ele>
        <time>2010-10-24T06:56:16Z</time>
      </trkpt>
      <trkpt lat="44.18862" lon="3.2449">
        <ele>706</ele>
        <time>2010-10-24T06:56:29Z</time>
      </trkpt>
      <trkpt lat="44.18861" lon="3.24486">
        <ele>706.79998779297</ele>
        <time>2010-10-24T06:56:31Z</time>
      </trkpt>
      <trkpt lat="44.1886" lon="3.2448">
        <ele>707.40002441406</ele>
        <time>2010-10-24T06:56:35Z</time>
      </trkpt>
      <trkpt lat="44.18857" lon="3.24478">
        <ele>708.59997558594</ele>
        <time>2010-10-24T06:56:40Z</time>
      </trkpt>
      <trkpt lat="44.18848" lon="3.24487">
        <ele>709.79998779297</ele>
        <time>2010-10-24T06:56:45Z</time>
      </trkpt>
      <trkpt lat="44.18842" lon="3.2449">
        <ele>710.20001220703</ele>
        <time>2010-10-24T06:56:47Z</time>
      </trkpt>
      <trkpt lat="44.18829" lon="3.24497">
        <ele>711.20001220703</ele>
        <time>2010-10-24T06:56:52Z</time>
      </trkpt>
      <trkpt lat="44.18812" lon="3.24509">
        <ele>711.79998779297</ele>
        <time>2010-10-24T06:56:59Z</time>
      </trkpt>
      <trkpt lat="44.18794" lon="3.24518">
        <ele>712.59997558594</ele>
        <time>2010-10-24T06:57:05Z</time>
      </trkpt>
      <trkpt lat="44.18792" lon="3.24526">
        <ele>712.20001220703</ele>
        <time>2010-10-24T06:57:08Z</time>
      </trkpt>
      <trkpt lat="44.18781" lon="3.24536">
        <ele>712.20001220703</ele>
        <time>2010-10-24T06:57:13Z</time>
      </trkpt>
      <trkpt lat="44.18772" lon="3.24561">
        <ele>712.79998779297</ele>
        <time>2010-10-24T06:57:23Z</time>
      </trkpt>
      <trkpt lat="44.18767" lon="3.24567">
        <ele>713</ele>
        <time>2010-10-24T06:57:26Z</time>
      </trkpt>
      <trkpt lat="44.18764" lon="3.24576">
        <ele>713.20001220703</ele>
        <time>2010-10-24T06:57:30Z</time>
      </trkpt>
      <trkpt lat="44.18758" lon="3.24583">
        <ele>713.59997558594</ele>
        <time>2010-10-24T06:57:33Z</time>
      </trkpt>
      <trkpt lat="44.18744" lon="3.24597">
        <ele>714.79998779297</ele>
        <time>2010-10-24T06:57:39Z</time>
      </trkpt>
      <trkpt lat="44.18732" lon="3.24617">
        <ele>716.59997558594</ele>
        <time>2010-10-24T06:57:48Z</time>
      </trkpt>
      <trkpt lat="44.18731" lon="3.24617">
        <ele>717</ele>
        <time>2010-10-24T06:57:50Z</time>
      </trkpt>
      <trkpt lat="44.18725" lon="3.24624">
        <ele>718.20001220703</ele>
        <time>2010-10-24T06:57:55Z</time>
      </trkpt>
      <trkpt lat="44.18724" lon="3.24629">
        <ele>719.20001220703</ele>
        <time>2010-10-24T06:57:58Z</time>
      </trkpt>
      <trkpt lat="44.18724" lon="3.2464">
        <ele>720.40002441406</ele>
        <time>2010-10-24T06:58:02Z</time>
      </trkpt>
      <trkpt lat="44.18712" lon="3.24635">
        <ele>723</ele>
        <time>2010-10-24T06:58:09Z</time>
      </trkpt>
      <trkpt lat="44.18713" lon="3.24632">
        <ele>723.40002441406</ele>
        <time>2010-10-24T06:58:10Z</time>
      </trkpt>
      <trkpt lat="44.18717" lon="3.24609">
        <ele>726.20001220703</ele>
        <time>2010-10-24T06:58:20Z</time>
      </trkpt>
      <trkpt lat="44.18717" lon="3.24608">
        <ele>726.40002441406</ele>
        <time>2010-10-24T06:58:21Z</time>
      </trkpt>
      <trkpt lat="44.18723" lon="3.24587">
        <ele>728.79998779297</ele>
        <time>2010-10-24T06:58:29Z</time>
      </trkpt>
      <trkpt lat="44.18724" lon="3.24584">
        <ele>729.20001220703</ele>
        <time>2010-10-24T06:58:30Z</time>
      </trkpt>
      <trkpt lat="44.18734" lon="3.24561">
        <ele>731.79998779297</ele>
        <time>2010-10-24T06:58:38Z</time>
      </trkpt>
      <trkpt lat="44.18737" lon="3.24554">
        <ele>732.79998779297</ele>
        <time>2010-10-24T06:58:41Z</time>
      </trkpt>
      <trkpt lat="44.18736" lon="3.24547">
        <ele>733.40002441406</ele>
        <time>2010-10-24T06:58:43Z</time>
      </trkpt>
      <trkpt lat="44.18734" lon="3.24535">
        <ele>734.20001220703</ele>
        <time>2010-10-24T06:58:46Z</time>
      </trkpt>
      <trkpt lat="44.18734" lon="3.24527">
        <ele>734.79998779297</ele>
        <time>2010-10-24T06:58:48Z</time>
      </trkpt>
      <trkpt lat="44.18735" lon="3.24514">
        <ele>735.79998779297</ele>
        <time>2010-10-24T06:58:52Z</time>
      </trkpt>
      <trkpt lat="44.18736" lon="3.24508">
        <ele>736.59997558594</ele>
        <time>2010-10-24T06:58:54Z</time>
      </trkpt>
      <trkpt lat="44.18737" lon="3.24501">
        <ele>737.20001220703</ele>
        <time>2010-10-24T06:58:56Z</time>
      </trkpt>
      <trkpt lat="44.18742" lon="3.24483">
        <ele>738.79998779297</ele>
        <time>2010-10-24T06:59:02Z</time>
      </trkpt>
      <trkpt lat="44.18753" lon="3.2446">
        <ele>740.59997558594</ele>
        <time>2010-10-24T06:59:09Z</time>
      </trkpt>
      <trkpt lat="44.18756" lon="3.24435">
        <ele>742.79998779297</ele>
        <time>2010-10-24T06:59:18Z</time>
      </trkpt>
      <trkpt lat="44.18754" lon="3.24433">
        <ele>743</ele>
        <time>2010-10-24T06:59:19Z</time>
      </trkpt>
      <trkpt lat="44.18746" lon="3.24451">
        <ele>745.79998779297</ele>
        <time>2010-10-24T06:59:31Z</time>
      </trkpt>
      <trkpt lat="44.18734" lon="3.24471">
        <ele>747.20001220703</ele>
        <time>2010-10-24T06:59:40Z</time>
      </trkpt>
      <trkpt lat="44.18732" lon="3.24479">
        <ele>747.79998779297</ele>
        <time>2010-10-24T06:59:43Z</time>
      </trkpt>
      <trkpt lat="44.18724" lon="3.24494">
        <ele>749.59997558594</ele>
        <time>2010-10-24T06:59:49Z</time>
      </trkpt>
      <trkpt lat="44.18717" lon="3.24521">
        <ele>752.59997558594</ele>
        <time>2010-10-24T07:00:00Z</time>
      </trkpt>
      <trkpt lat="44.18704" lon="3.2454">
        <ele>755.20001220703</ele>
        <time>2010-10-24T07:00:10Z</time>
      </trkpt>
      <trkpt lat="44.187" lon="3.24551">
        <ele>756.20001220703</ele>
        <time>2010-10-24T07:00:15Z</time>
      </trkpt>
      <trkpt lat="44.18698" lon="3.24557">
        <ele>757</ele>
        <time>2010-10-24T07:00:19Z</time>
      </trkpt>
      <trkpt lat="44.18696" lon="3.24554">
        <ele>757.20001220703</ele>
        <time>2010-10-24T07:00:20Z</time>
      </trkpt>
      <trkpt lat="44.18693" lon="3.24528">
        <ele>758.40002441406</ele>
        <time>2010-10-24T07:00:30Z</time>
      </trkpt>
      <trkpt lat="44.18696" lon="3.24503">
        <ele>759.79998779297</ele>
        <time>2010-10-24T07:00:42Z</time>
      </trkpt>
      <trkpt lat="44.187" lon="3.24495">
        <ele>760.59997558594</ele>
        <time>2010-10-24T07:00:46Z</time>
      </trkpt>
      <trkpt lat="44.18704" lon="3.24478">
        <ele>762</ele>
        <time>2010-10-24T07:00:53Z</time>
      </trkpt>
      <trkpt lat="44.18704" lon="3.24476">
        <ele>762</ele>
        <time>2010-10-24T07:00:54Z</time>
      </trkpt>
      <trkpt lat="44.18703" lon="3.24467">
        <ele>762.59997558594</ele>
        <time>2010-10-24T07:00:59Z</time>
      </trkpt>
      <trkpt lat="44.18704" lon="3.24462">
        <ele>762.79998779297</ele>
        <time>2010-10-24T07:01:01Z</time>
      </trkpt>
      <trkpt lat="44.18708" lon="3.24453">
        <ele>763.40002441406</ele>
        <time>2010-10-24T07:01:05Z</time>
      </trkpt>
      <trkpt lat="44.18708" lon="3.24447">
        <ele>763.79998779297</ele>
        <time>2010-10-24T07:01:08Z</time>
      </trkpt>
      <trkpt lat="44.18708" lon="3.24436">
        <ele>764.79998779297</ele>
        <time>2010-10-24T07:01:14Z</time>
      </trkpt>
      <trkpt lat="44.18708" lon="3.24436">
        <ele>765</ele>
        <time>2010-10-24T07:01:15Z</time>
      </trkpt>
      <trkpt lat="44.18703" lon="3.24442">
        <ele>766.40002441406</ele>
        <time>2010-10-24T07:01:20Z</time>
      </trkpt>
      <trkpt lat="44.18701" lon="3.24445">
        <ele>767.20001220703</ele>
        <time>2010-10-24T07:01:22Z</time>
      </trkpt>
      <trkpt lat="44.18698" lon="3.2445">
        <ele>768.40002441406</ele>
        <time>2010-10-24T07:01:26Z</time>
      </trkpt>
      <trkpt lat="44.18691" lon="3.24462">
        <ele>771</ele>
        <time>2010-10-24T07:01:34Z</time>
      </trkpt>
      <trkpt lat="44.18679" lon="3.24482">
        <ele>774.40002441406</ele>
        <time>2010-10-24T07:01:46Z</time>
      </trkpt>
      <trkpt lat="44.18666" lon="3.245">
        <ele>776.79998779297</ele>
        <time>2010-10-24T07:01:57Z</time>
      </trkpt>
      <trkpt lat="44.18657" lon="3.24524">
        <ele>779.59997558594</ele>
        <time>2010-10-24T07:02:08Z</time>
      </trkpt>
      <trkpt lat="44.18653" lon="3.24537">
        <ele>781.79998779297</ele>
        <time>2010-10-24T07:02:14Z</time>
      </trkpt>
      <trkpt lat="44.1865" lon="3.24526">
        <ele>783</ele>
        <time>2010-10-24T07:02:19Z</time>
      </trkpt>
      <trkpt lat="44.18653" lon="3.24517">
        <ele>783.59997558594</ele>
        <time>2010-10-24T07:02:23Z</time>
      </trkpt>
      <trkpt lat="44.18655" lon="3.24504">
        <ele>784.40002441406</ele>
        <time>2010-10-24T07:02:30Z</time>
      </trkpt>
      <trkpt lat="44.18655" lon="3.24503">
        <ele>784.20001220703</ele>
        <time>2010-10-24T07:02:31Z</time>
      </trkpt>
      <trkpt lat="44.18657" lon="3.24499">
        <ele>784.40002441406</ele>
        <time>2010-10-24T07:02:33Z</time>
      </trkpt>
      <trkpt lat="44.18657" lon="3.24478">
        <ele>785</ele>
        <time>2010-10-24T07:02:41Z</time>
      </trkpt>
      <trkpt lat="44.18657" lon="3.24476">
        <ele>785.20001220703</ele>
        <time>2010-10-24T07:02:42Z</time>
      </trkpt>
      <trkpt lat="44.18657" lon="3.24457">
        <ele>786.40002441406</ele>
        <time>2010-10-24T07:02:50Z</time>
      </trkpt>
      <trkpt lat="44.18658" lon="3.2445">
        <ele>787</ele>
        <time>2010-10-24T07:02:53Z</time>
      </trkpt>
      <trkpt lat="44.18657" lon="3.24439">
        <ele>788</ele>
        <time>2010-10-24T07:02:58Z</time>
      </trkpt>
      <trkpt lat="44.18659" lon="3.24431">
        <ele>788.79998779297</ele>
        <time>2010-10-24T07:03:02Z</time>
      </trkpt>
      <trkpt lat="44.18662" lon="3.24426">
        <ele>789.79998779297</ele>
        <time>2010-10-24T07:03:05Z</time>
      </trkpt>
      <trkpt lat="44.18663" lon="3.24422">
        <ele>790.20001220703</ele>
        <time>2010-10-24T07:03:07Z</time>
      </trkpt>
      <trkpt lat="44.18654" lon="3.24424">
        <ele>794.40002441406</ele>
        <time>2010-10-24T07:03:18Z</time>
      </trkpt>
      <trkpt lat="44.18644" lon="3.24443">
        <ele>798</ele>
        <time>2010-10-24T07:03:28Z</time>
      </trkpt>
      <trkpt lat="44.18638" lon="3.24454">
        <ele>800</ele>
        <time>2010-10-24T07:03:33Z</time>
      </trkpt>
      <trkpt lat="44.18636" lon="3.24467">
        <ele>802.20001220703</ele>
        <time>2010-10-24T07:03:38Z</time>
      </trkpt>
      <trkpt lat="44.18635" lon="3.2447">
        <ele>802.79998779297</ele>
        <time>2010-10-24T07:03:40Z</time>
      </trkpt>
      <trkpt lat="44.18633" lon="3.24478">
        <ele>804</ele>
        <time>2010-10-24T07:03:43Z</time>
      </trkpt>
      <trkpt lat="44.18628" lon="3.24479">
        <ele>806.59997558594</ele>
        <time>2010-10-24T07:03:50Z</time>
      </trkpt>
      <trkpt lat="44.18627" lon="3.24461">
        <ele>808.20001220703</ele>
        <time>2010-10-24T07:03:57Z</time>
      </trkpt>
      <trkpt lat="44.18627" lon="3.24453">
        <ele>808.79998779297</ele>
        <time>2010-10-24T07:04:00Z</time>
      </trkpt>
      <trkpt lat="44.18623" lon="3.24431">
        <ele>810.40002441406</ele>
        <time>2010-10-24T07:04:10Z</time>
      </trkpt>
      <trkpt lat="44.18622" lon="3.2443">
        <ele>810.59997558594</ele>
        <time>2010-10-24T07:04:11Z</time>
      </trkpt>
      <trkpt lat="44.18604" lon="3.24428">
        <ele>812.59997558594</ele>
        <time>2010-10-24T07:04:20Z</time>
      </trkpt>
      <trkpt lat="44.18609" lon="3.24445">
        <ele>815.20001220703</ele>
        <time>2010-10-24T07:04:31Z</time>
      </trkpt>
      <trkpt lat="44.1859" lon="3.24439">
        <ele>817.40002441406</ele>
        <time>2010-10-24T07:04:40Z</time>
      </trkpt>
      <trkpt lat="44.18575" lon="3.24446">
        <ele>819.20001220703</ele>
        <time>2010-10-24T07:04:50Z</time>
      </trkpt>
      <trkpt lat="44.18576" lon="3.24447">
        <ele>819.40002441406</ele>
        <time>2010-10-24T07:04:51Z</time>
      </trkpt>
      <trkpt lat="44.18584" lon="3.24453">
        <ele>820</ele>
        <time>2010-10-24T07:04:55Z</time>
      </trkpt>
      <trkpt lat="44.18587" lon="3.24456">
        <ele>820.40002441406</ele>
        <time>2010-10-24T07:04:57Z</time>
      </trkpt>
      <trkpt lat="44.18587" lon="3.24465">
        <ele>821</ele>
        <time>2010-10-24T07:05:01Z</time>
      </trkpt>
      <trkpt lat="44.1858" lon="3.24479">
        <ele>822.20001220703</ele>
        <time>2010-10-24T07:05:08Z</time>
      </trkpt>
      <trkpt lat="44.18579" lon="3.24488">
        <ele>823</ele>
        <time>2010-10-24T07:05:11Z</time>
      </trkpt>
      <trkpt lat="44.18573" lon="3.2451">
        <ele>824.79998779297</ele>
        <time>2010-10-24T07:05:19Z</time>
      </trkpt>
      <trkpt lat="44.18571" lon="3.24513">
        <ele>825</ele>
        <time>2010-10-24T07:05:20Z</time>
      </trkpt>
      <trkpt lat="44.18562" lon="3.24536">
        <ele>827.40002441406</ele>
        <time>2010-10-24T07:05:30Z</time>
      </trkpt>
      <trkpt lat="44.18551" lon="3.24556">
        <ele>829.59997558594</ele>
        <time>2010-10-24T07:05:37Z</time>
      </trkpt>
      <trkpt lat="44.18551" lon="3.2456">
        <ele>830</ele>
        <time>2010-10-24T07:05:38Z</time>
      </trkpt>
      <trkpt lat="44.1854" lon="3.24578">
        <ele>832.79998779297</ele>
        <time>2010-10-24T07:05:47Z</time>
      </trkpt>
      <trkpt lat="44.18526" lon="3.24596">
        <ele>835.79998779297</ele>
        <time>2010-10-24T07:05:58Z</time>
      </trkpt>
      <trkpt lat="44.18518" lon="3.24605">
        <ele>837.59997558594</ele>
        <time>2010-10-24T07:06:04Z</time>
      </trkpt>
      <trkpt lat="44.18516" lon="3.24607">
        <ele>838.20001220703</ele>
        <time>2010-10-24T07:06:06Z</time>
      </trkpt>
      <trkpt lat="44.18511" lon="3.24613">
        <ele>839.40002441406</ele>
        <time>2010-10-24T07:06:09Z</time>
      </trkpt>
      <trkpt lat="44.18495" lon="3.24626">
        <ele>842.59997558594</ele>
        <time>2010-10-24T07:06:19Z</time>
      </trkpt>
      <trkpt lat="44.18494" lon="3.24627">
        <ele>843</ele>
        <time>2010-10-24T07:06:20Z</time>
      </trkpt>
      <trkpt lat="44.18481" lon="3.2464">
        <ele>845.59997558594</ele>
        <time>2010-10-24T07:06:28Z</time>
      </trkpt>
      <trkpt lat="44.18478" lon="3.24641">
        <ele>846</ele>
        <time>2010-10-24T07:06:29Z</time>
      </trkpt>
      <trkpt lat="44.1847" lon="3.24648">
        <ele>847.40002441406</ele>
        <time>2010-10-24T07:06:34Z</time>
      </trkpt>
      <trkpt lat="44.18461" lon="3.24657">
        <ele>848.79998779297</ele>
        <time>2010-10-24T07:06:39Z</time>
      </trkpt>
      <trkpt lat="44.18449" lon="3.24656">
        <ele>850</ele>
        <time>2010-10-24T07:06:44Z</time>
      </trkpt>
      <trkpt lat="44.18443" lon="3.24658">
        <ele>850.59997558594</ele>
        <time>2010-10-24T07:06:47Z</time>
      </trkpt>
      <trkpt lat="44.18425" lon="3.24668">
        <ele>851.40002441406</ele>
        <time>2010-10-24T07:06:56Z</time>
      </trkpt>
      <trkpt lat="44.18416" lon="3.2467">
        <ele>851.59997558594</ele>
        <time>2010-10-24T07:06:59Z</time>
      </trkpt>
      <trkpt lat="44.18406" lon="3.24676">
        <ele>851.79998779297</ele>
        <time>2010-10-24T07:07:03Z</time>
      </trkpt>
      <trkpt lat="44.18387" lon="3.24675">
        <ele>852.59997558594</ele>
        <time>2010-10-24T07:07:09Z</time>
      </trkpt>
      <trkpt lat="44.1837" lon="3.2467">
        <ele>853.79998779297</ele>
        <time>2010-10-24T07:07:18Z</time>
      </trkpt>
      <trkpt lat="44.1837" lon="3.24668">
        <ele>854</ele>
        <time>2010-10-24T07:07:19Z</time>
      </trkpt>
      <trkpt lat="44.18359" lon="3.24657">
        <ele>855.79998779297</ele>
        <time>2010-10-24T07:07:29Z</time>
      </trkpt>
      <trkpt lat="44.18357" lon="3.24657">
        <ele>856</ele>
        <time>2010-10-24T07:07:30Z</time>
      </trkpt>
      <trkpt lat="44.18349" lon="3.24656">
        <ele>857</ele>
        <time>2010-10-24T07:07:33Z</time>
      </trkpt>
      <trkpt lat="44.18346" lon="3.24656">
        <ele>857.59997558594</ele>
        <time>2010-10-24T07:07:35Z</time>
      </trkpt>
      <trkpt lat="44.18337" lon="3.24653">
        <ele>858.79998779297</ele>
        <time>2010-10-24T07:07:40Z</time>
      </trkpt>
      <trkpt lat="44.18332" lon="3.24653">
        <ele>859.20001220703</ele>
        <time>2010-10-24T07:07:43Z</time>
      </trkpt>
      <trkpt lat="44.18325" lon="3.24671">
        <ele>860.40002441406</ele>
        <time>2010-10-24T07:07:57Z</time>
      </trkpt>
      <trkpt lat="44.18309" lon="3.24682">
        <ele>861.59997558594</ele>
        <time>2010-10-24T07:08:08Z</time>
      </trkpt>
      <trkpt lat="44.18294" lon="3.24684">
        <ele>863</ele>
        <time>2010-10-24T07:08:16Z</time>
      </trkpt>
      <trkpt lat="44.18291" lon="3.24686">
        <ele>863.40002441406</ele>
        <time>2010-10-24T07:08:18Z</time>
      </trkpt>
      <trkpt lat="44.18282" lon="3.247">
        <ele>864.79998779297</ele>
        <time>2010-10-24T07:08:25Z</time>
      </trkpt>
      <trkpt lat="44.18278" lon="3.24704">
        <ele>865.40002441406</ele>
        <time>2010-10-24T07:08:28Z</time>
      </trkpt>
      <trkpt lat="44.18259" lon="3.24705">
        <ele>868.20001220703</ele>
        <time>2010-10-24T07:08:37Z</time>
      </trkpt>
      <trkpt lat="44.18241" lon="3.24711">
        <ele>872.20001220703</ele>
        <time>2010-10-24T07:08:48Z</time>
      </trkpt>
      <trkpt lat="44.18225" lon="3.24724">
        <ele>875.79998779297</ele>
        <time>2010-10-24T07:08:59Z</time>
      </trkpt>
      <trkpt lat="44.1821" lon="3.2474">
        <ele>878.59997558594</ele>
        <time>2010-10-24T07:09:10Z</time>
      </trkpt>
      <trkpt lat="44.18205" lon="3.24749">
        <ele>879.59997558594</ele>
        <time>2010-10-24T07:09:14Z</time>
      </trkpt>
      <trkpt lat="44.182" lon="3.24762">
        <ele>880.40002441406</ele>
        <time>2010-10-24T07:09:20Z</time>
      </trkpt>
      <trkpt lat="44.18187" lon="3.2478">
        <ele>884.20001220703</ele>
        <time>2010-10-24T07:09:34Z</time>
      </trkpt>
      <trkpt lat="44.18185" lon="3.24781">
        <ele>884.40002441406</ele>
        <time>2010-10-24T07:09:35Z</time>
      </trkpt>
      <trkpt lat="44.18181" lon="3.24785">
        <ele>885.79998779297</ele>
        <time>2010-10-24T07:09:39Z</time>
      </trkpt>
      <trkpt lat="44.18173" lon="3.24798">
        <ele>888</ele>
        <time>2010-10-24T07:09:48Z</time>
      </trkpt>
      <trkpt lat="44.18164" lon="3.24813">
        <ele>890.20001220703</ele>
        <time>2010-10-24T07:09:58Z</time>
      </trkpt>
      <trkpt lat="44.1816" lon="3.24815">
        <ele>890.79998779297</ele>
        <time>2010-10-24T07:10:01Z</time>
      </trkpt>
      <trkpt lat="44.18159" lon="3.24816">
        <ele>890.79998779297</ele>
        <time>2010-10-24T07:10:02Z</time>
      </trkpt>
      <trkpt lat="44.18143" lon="3.24828">
        <ele>894</ele>
        <time>2010-10-24T07:10:14Z</time>
      </trkpt>
      <trkpt lat="44.18139" lon="3.24832">
        <ele>895.20001220703</ele>
        <time>2010-10-24T07:10:18Z</time>
      </trkpt>
      <trkpt lat="44.18133" lon="3.2484">
        <ele>896.79998779297</ele>
        <time>2010-10-24T07:10:24Z</time>
      </trkpt>
      <trkpt lat="44.18129" lon="3.24844">
        <ele>897.79998779297</ele>
        <time>2010-10-24T07:10:28Z</time>
      </trkpt>
      <trkpt lat="44.18121" lon="3.24851">
        <ele>899.79998779297</ele>
        <time>2010-10-24T07:10:36Z</time>
      </trkpt>
      <trkpt lat="44.18114" lon="3.2486">
        <ele>901.20001220703</ele>
        <time>2010-10-24T07:10:43Z</time>
      </trkpt>
      <trkpt lat="44.18112" lon="3.24862">
        <ele>901.59997558594</ele>
        <time>2010-10-24T07:10:44Z</time>
      </trkpt>
      <trkpt lat="44.18095" lon="3.24871">
        <ele>903.20001220703</ele>
        <time>2010-10-24T07:10:51Z</time>
      </trkpt>
      <trkpt lat="44.18077" lon="3.24877">
        <ele>904.79998779297</ele>
        <time>2010-10-24T07:10:58Z</time>
      </trkpt>
      <trkpt lat="44.18074" lon="3.24878">
        <ele>905</ele>
        <time>2010-10-24T07:10:59Z</time>
      </trkpt>
      <trkpt lat="44.18058" lon="3.2488">
        <ele>906.59997558594</ele>
        <time>2010-10-24T07:11:04Z</time>
      </trkpt>
      <trkpt lat="44.18039" lon="3.24881">
        <ele>908</ele>
        <time>2010-10-24T07:11:10Z</time>
      </trkpt>
      <trkpt lat="44.18021" lon="3.24886">
        <ele>908.40002441406</ele>
        <time>2010-10-24T07:11:16Z</time>
      </trkpt>
      <trkpt lat="44.18002" lon="3.24888">
        <ele>908.59997558594</ele>
        <time>2010-10-24T07:11:23Z</time>
      </trkpt>
      <trkpt lat="44.17995" lon="3.24889">
        <ele>908.79998779297</ele>
        <time>2010-10-24T07:11:26Z</time>
      </trkpt>
      <trkpt lat="44.17984" lon="3.24898">
        <ele>909.20001220703</ele>
        <time>2010-10-24T07:11:31Z</time>
      </trkpt>
      <trkpt lat="44.17965" lon="3.24904">
        <ele>910.20001220703</ele>
        <time>2010-10-24T07:11:37Z</time>
      </trkpt>
      <trkpt lat="44.17946" lon="3.24901">
        <ele>910.40002441406</ele>
        <time>2010-10-24T07:11:42Z</time>
      </trkpt>
      <trkpt lat="44.17929" lon="3.24888">
        <ele>910.40002441406</ele>
        <time>2010-10-24T07:11:48Z</time>
      </trkpt>
      <trkpt lat="44.17912" lon="3.24877">
        <ele>910.40002441406</ele>
        <time>2010-10-24T07:11:54Z</time>
      </trkpt>
      <trkpt lat="44.17893" lon="3.24872">
        <ele>911</ele>
        <time>2010-10-24T07:11:59Z</time>
      </trkpt>
      <trkpt lat="44.17871" lon="3.24875">
        <ele>910.79998779297</ele>
        <time>2010-10-24T07:12:05Z</time>
      </trkpt>
      <trkpt lat="44.17849" lon="3.24878">
        <ele>910.59997558594</ele>
        <time>2010-10-24T07:12:11Z</time>
      </trkpt>
      <trkpt lat="44.1783" lon="3.24872">
        <ele>910.40002441406</ele>
        <time>2010-10-24T07:12:18Z</time>
      </trkpt>
      <trkpt lat="44.17809" lon="3.24871">
        <ele>909.79998779297</ele>
        <time>2010-10-24T07:12:24Z</time>
      </trkpt>
      <trkpt lat="44.17788" lon="3.24872">
        <ele>909</ele>
        <time>2010-10-24T07:12:31Z</time>
      </trkpt>
      <trkpt lat="44.17767" lon="3.24875">
        <ele>908</ele>
        <time>2010-10-24T07:12:38Z</time>
      </trkpt>
      <trkpt lat="44.17748" lon="3.24875">
        <ele>907</ele>
        <time>2010-10-24T07:12:44Z</time>
      </trkpt>
      <trkpt lat="44.17728" lon="3.24878">
        <ele>905.79998779297</ele>
        <time>2010-10-24T07:12:50Z</time>
      </trkpt>
      <trkpt lat="44.1771" lon="3.24881">
        <ele>904.59997558594</ele>
        <time>2010-10-24T07:12:56Z</time>
      </trkpt>
      <trkpt lat="44.1769" lon="3.24874">
        <ele>903.59997558594</ele>
        <time>2010-10-24T07:13:02Z</time>
      </trkpt>
      <trkpt lat="44.17672" lon="3.24866">
        <ele>902.59997558594</ele>
        <time>2010-10-24T07:13:08Z</time>
      </trkpt>
      <trkpt lat="44.17654" lon="3.24855">
        <ele>901.79998779297</ele>
        <time>2010-10-24T07:13:14Z</time>
      </trkpt>
      <trkpt lat="44.17641" lon="3.24837">
        <ele>901</ele>
        <time>2010-10-24T07:13:20Z</time>
      </trkpt>
      <trkpt lat="44.17638" lon="3.24819">
        <ele>900.40002441406</ele>
        <time>2010-10-24T07:13:24Z</time>
      </trkpt>
      <trkpt lat="44.17638" lon="3.2481">
        <ele>900.20001220703</ele>
        <time>2010-10-24T07:13:26Z</time>
      </trkpt>
      <trkpt lat="44.17639" lon="3.24782">
        <ele>899.20001220703</ele>
        <time>2010-10-24T07:13:32Z</time>
      </trkpt>
      <trkpt lat="44.17629" lon="3.24762">
        <ele>898.59997558594</ele>
        <time>2010-10-24T07:13:38Z</time>
      </trkpt>
      <trkpt lat="44.17612" lon="3.24746">
        <ele>898</ele>
        <time>2010-10-24T07:13:44Z</time>
      </trkpt>
      <trkpt lat="44.17596" lon="3.24735">
        <ele>897.79998779297</ele>
        <time>2010-10-24T07:13:49Z</time>
      </trkpt>
      <trkpt lat="44.17578" lon="3.24726">
        <ele>897.59997558594</ele>
        <time>2010-10-24T07:13:55Z</time>
      </trkpt>
      <trkpt lat="44.17571" lon="3.24725">
        <ele>897.20001220703</ele>
        <time>2010-10-24T07:13:59Z</time>
      </trkpt>
      <trkpt lat="44.17559" lon="3.24718">
        <ele>896.59997558594</ele>
        <time>2010-10-24T07:14:04Z</time>
      </trkpt>
      <trkpt lat="44.17556" lon="3.24716">
        <ele>896.59997558594</ele>
        <time>2010-10-24T07:14:05Z</time>
      </trkpt>
      <trkpt lat="44.17542" lon="3.24707">
        <ele>895.79998779297</ele>
        <time>2010-10-24T07:14:10Z</time>
      </trkpt>
      <trkpt lat="44.17524" lon="3.24703">
        <ele>895</ele>
        <time>2010-10-24T07:14:16Z</time>
      </trkpt>
      <trkpt lat="44.17504" lon="3.24709">
        <ele>894.20001220703</ele>
        <time>2010-10-24T07:14:22Z</time>
      </trkpt>
      <trkpt lat="44.17488" lon="3.24722">
        <ele>893.59997558594</ele>
        <time>2010-10-24T07:14:28Z</time>
      </trkpt>
      <trkpt lat="44.17472" lon="3.24739">
        <ele>893</ele>
        <time>2010-10-24T07:14:34Z</time>
      </trkpt>
      <trkpt lat="44.17455" lon="3.24752">
        <ele>892.40002441406</ele>
        <time>2010-10-24T07:14:40Z</time>
      </trkpt>
      <trkpt lat="44.17437" lon="3.24761">
        <ele>892</ele>
        <time>2010-10-24T07:14:46Z</time>
      </trkpt>
      <trkpt lat="44.17418" lon="3.2476">
        <ele>891.40002441406</ele>
        <time>2010-10-24T07:14:52Z</time>
      </trkpt>
      <trkpt lat="44.174" lon="3.24754">
        <ele>890.79998779297</ele>
        <time>2010-10-24T07:14:58Z</time>
      </trkpt>
      <trkpt lat="44.17383" lon="3.24744">
        <ele>890</ele>
        <time>2010-10-24T07:15:04Z</time>
      </trkpt>
      <trkpt lat="44.17365" lon="3.24735">
        <ele>889</ele>
        <time>2010-10-24T07:15:10Z</time>
      </trkpt>
      <trkpt lat="44.17348" lon="3.24724">
        <ele>888</ele>
        <time>2010-10-24T07:15:16Z</time>
      </trkpt>
      <trkpt lat="44.17331" lon="3.24713">
        <ele>887</ele>
        <time>2010-10-24T07:15:22Z</time>
      </trkpt>
      <trkpt lat="44.17313" lon="3.24703">
        <ele>886.20001220703</ele>
        <time>2010-10-24T07:15:28Z</time>
      </trkpt>
      <trkpt lat="44.17295" lon="3.24691">
        <ele>885</ele>
        <time>2010-10-24T07:15:35Z</time>
      </trkpt>
      <trkpt lat="44.17279" lon="3.24678">
        <ele>884.20001220703</ele>
        <time>2010-10-24T07:15:41Z</time>
      </trkpt>
      <trkpt lat="44.17263" lon="3.24666">
        <ele>883.40002441406</ele>
        <time>2010-10-24T07:15:47Z</time>
      </trkpt>
      <trkpt lat="44.17257" lon="3.24669">
        <ele>883</ele>
        <time>2010-10-24T07:15:49Z</time>
      </trkpt>
      <trkpt lat="44.17252" lon="3.24687">
        <ele>882.40002441406</ele>
        <time>2010-10-24T07:15:53Z</time>
      </trkpt>
      <trkpt lat="44.17255" lon="3.24714">
        <ele>881.20001220703</ele>
        <time>2010-10-24T07:16:00Z</time>
      </trkpt>
      <trkpt lat="44.17265" lon="3.24738">
        <ele>880.20001220703</ele>
        <time>2010-10-24T07:16:06Z</time>
      </trkpt>
      <trkpt lat="44.17269" lon="3.24764">
        <ele>879.20001220703</ele>
        <time>2010-10-24T07:16:12Z</time>
      </trkpt>
      <trkpt lat="44.17264" lon="3.2479">
        <ele>878.40002441406</ele>
        <time>2010-10-24T07:16:18Z</time>
      </trkpt>
      <trkpt lat="44.17253" lon="3.24811">
        <ele>877.59997558594</ele>
        <time>2010-10-24T07:16:25Z</time>
      </trkpt>
      <trkpt lat="44.17232" lon="3.24816">
        <ele>877.20001220703</ele>
        <time>2010-10-24T07:16:32Z</time>
      </trkpt>
      <trkpt lat="44.17217" lon="3.24829">
        <ele>876.79998779297</ele>
        <time>2010-10-24T07:16:38Z</time>
      </trkpt>
      <trkpt lat="44.17206" lon="3.24849">
        <ele>876.20001220703</ele>
        <time>2010-10-24T07:16:44Z</time>
      </trkpt>
      <trkpt lat="44.17191" lon="3.24865">
        <ele>875.59997558594</ele>
        <time>2010-10-24T07:16:50Z</time>
      </trkpt>
      <trkpt lat="44.17181" lon="3.24887">
        <ele>875</ele>
        <time>2010-10-24T07:16:57Z</time>
      </trkpt>
      <trkpt lat="44.17172" lon="3.24906">
        <ele>874.59997558594</ele>
        <time>2010-10-24T07:17:03Z</time>
      </trkpt>
      <trkpt lat="44.17169" lon="3.24907">
        <ele>874.59997558594</ele>
        <time>2010-10-24T07:17:04Z</time>
      </trkpt>
      <trkpt lat="44.17151" lon="3.249">
        <ele>874.59997558594</ele>
        <time>2010-10-24T07:17:11Z</time>
      </trkpt>
      <trkpt lat="44.17143" lon="3.24896">
        <ele>875</ele>
        <time>2010-10-24T07:17:14Z</time>
      </trkpt>
      <trkpt lat="44.17131" lon="3.24887">
        <ele>875.59997558594</ele>
        <time>2010-10-24T07:17:18Z</time>
      </trkpt>
      <trkpt lat="44.17117" lon="3.24867">
        <ele>876.40002441406</ele>
        <time>2010-10-24T07:17:24Z</time>
      </trkpt>
      <trkpt lat="44.17104" lon="3.24851">
        <ele>877.40002441406</ele>
        <time>2010-10-24T07:17:31Z</time>
      </trkpt>
      <trkpt lat="44.17086" lon="3.24845">
        <ele>877.79998779297</ele>
        <time>2010-10-24T07:17:38Z</time>
      </trkpt>
      <trkpt lat="44.17067" lon="3.24846">
        <ele>878.59997558594</ele>
        <time>2010-10-24T07:17:47Z</time>
      </trkpt>
      <trkpt lat="44.17047" lon="3.24848">
        <ele>879.59997558594</ele>
        <time>2010-10-24T07:17:55Z</time>
      </trkpt>
      <trkpt lat="44.17026" lon="3.24844">
        <ele>880.59997558594</ele>
        <time>2010-10-24T07:18:03Z</time>
      </trkpt>
      <trkpt lat="44.17008" lon="3.24847">
        <ele>881.40002441406</ele>
        <time>2010-10-24T07:18:11Z</time>
      </trkpt>
      <trkpt lat="44.17002" lon="3.24863">
        <ele>881.59997558594</ele>
        <time>2010-10-24T07:18:16Z</time>
      </trkpt>
      <trkpt lat="44.16998" lon="3.24872">
        <ele>881.59997558594</ele>
        <time>2010-10-24T07:18:19Z</time>
      </trkpt>
      <trkpt lat="44.16987" lon="3.24897">
        <ele>881.59997558594</ele>
        <time>2010-10-24T07:18:27Z</time>
      </trkpt>
      <trkpt lat="44.16967" lon="3.24894">
        <ele>882</ele>
        <time>2010-10-24T07:18:33Z</time>
      </trkpt>
      <trkpt lat="44.16948" lon="3.24893">
        <ele>881.79998779297</ele>
        <time>2010-10-24T07:18:41Z</time>
      </trkpt>
      <trkpt lat="44.1693" lon="3.2489">
        <ele>881.20001220703</ele>
        <time>2010-10-24T07:18:48Z</time>
      </trkpt>
      <trkpt lat="44.16914" lon="3.24875">
        <ele>881</ele>
        <time>2010-10-24T07:18:54Z</time>
      </trkpt>
      <trkpt lat="44.16898" lon="3.24857">
        <ele>880.79998779297</ele>
        <time>2010-10-24T07:19:01Z</time>
      </trkpt>
      <trkpt lat="44.16885" lon="3.2484">
        <ele>880.40002441406</ele>
        <time>2010-10-24T07:19:08Z</time>
      </trkpt>
      <trkpt lat="44.16868" lon="3.24824">
        <ele>880</ele>
        <time>2010-10-24T07:19:14Z</time>
      </trkpt>
      <trkpt lat="44.1685" lon="3.24813">
        <ele>879.59997558594</ele>
        <time>2010-10-24T07:19:20Z</time>
      </trkpt>
      <trkpt lat="44.16829" lon="3.24811">
        <ele>879</ele>
        <time>2010-10-24T07:19:26Z</time>
      </trkpt>
      <trkpt lat="44.16818" lon="3.24788">
        <ele>878.40002441406</ele>
        <time>2010-10-24T07:19:32Z</time>
      </trkpt>
      <trkpt lat="44.16809" lon="3.24764">
        <ele>877.79998779297</ele>
        <time>2010-10-24T07:19:38Z</time>
      </trkpt>
      <trkpt lat="44.16802" lon="3.2474">
        <ele>877</ele>
        <time>2010-10-24T07:19:44Z</time>
      </trkpt>
      <trkpt lat="44.16798" lon="3.24714">
        <ele>876.20001220703</ele>
        <time>2010-10-24T07:19:50Z</time>
      </trkpt>
      <trkpt lat="44.16798" lon="3.24687">
        <ele>875.79998779297</ele>
        <time>2010-10-24T07:19:56Z</time>
      </trkpt>
      <trkpt lat="44.16802" lon="3.24659">
        <ele>874.79998779297</ele>
        <time>2010-10-24T07:20:03Z</time>
      </trkpt>
      <trkpt lat="44.168" lon="3.24634">
        <ele>873.79998779297</ele>
        <time>2010-10-24T07:20:09Z</time>
      </trkpt>
      <trkpt lat="44.16789" lon="3.24612">
        <ele>873.20001220703</ele>
        <time>2010-10-24T07:20:15Z</time>
      </trkpt>
      <trkpt lat="44.1678" lon="3.24586">
        <ele>872.40002441406</ele>
        <time>2010-10-24T07:20:22Z</time>
      </trkpt>
      <trkpt lat="44.16774" lon="3.2456">
        <ele>871.40002441406</ele>
        <time>2010-10-24T07:20:28Z</time>
      </trkpt>
      <trkpt lat="44.16768" lon="3.24535">
        <ele>870.59997558594</ele>
        <time>2010-10-24T07:20:34Z</time>
      </trkpt>
      <trkpt lat="44.16763" lon="3.2451">
        <ele>869.79998779297</ele>
        <time>2010-10-24T07:20:40Z</time>
      </trkpt>
      <trkpt lat="44.16761" lon="3.24484">
        <ele>869</ele>
        <time>2010-10-24T07:20:46Z</time>
      </trkpt>
      <trkpt lat="44.16756" lon="3.2446">
        <ele>868.20001220703</ele>
        <time>2010-10-24T07:20:52Z</time>
      </trkpt>
      <trkpt lat="44.16751" lon="3.24434">
        <ele>867.20001220703</ele>
        <time>2010-10-24T07:21:00Z</time>
      </trkpt>
      <trkpt lat="44.1675" lon="3.24428">
        <ele>866.79998779297</ele>
        <time>2010-10-24T07:21:02Z</time>
      </trkpt>
      <trkpt lat="44.16745" lon="3.2441">
        <ele>866.20001220703</ele>
        <time>2010-10-24T07:21:07Z</time>
      </trkpt>
      <trkpt lat="44.16732" lon="3.24391">
        <ele>865.20001220703</ele>
        <time>2010-10-24T07:21:15Z</time>
      </trkpt>
      <trkpt lat="44.16714" lon="3.24379">
        <ele>864.40002441406</ele>
        <time>2010-10-24T07:21:21Z</time>
      </trkpt>
      <trkpt lat="44.16704" lon="3.24356">
        <ele>863.20001220703</ele>
        <time>2010-10-24T07:21:28Z</time>
      </trkpt>
      <trkpt lat="44.16708" lon="3.24342">
        <ele>862.59997558594</ele>
        <time>2010-10-24T07:21:31Z</time>
      </trkpt>
      <trkpt lat="44.16712" lon="3.2433">
        <ele>862</ele>
        <time>2010-10-24T07:21:34Z</time>
      </trkpt>
      <trkpt lat="44.16715" lon="3.24301">
        <ele>860.59997558594</ele>
        <time>2010-10-24T07:21:40Z</time>
      </trkpt>
      <trkpt lat="44.16723" lon="3.24278">
        <ele>859</ele>
        <time>2010-10-24T07:21:46Z</time>
      </trkpt>
      <trkpt lat="44.16723" lon="3.24262">
        <ele>858</ele>
        <time>2010-10-24T07:21:50Z</time>
      </trkpt>
      <trkpt lat="44.16718" lon="3.24257">
        <ele>857.40002441406</ele>
        <time>2010-10-24T07:21:52Z</time>
      </trkpt>
      <trkpt lat="44.1671" lon="3.24255">
        <ele>856.59997558594</ele>
        <time>2010-10-24T07:21:55Z</time>
      </trkpt>
      <trkpt lat="44.167" lon="3.24254">
        <ele>855.79998779297</ele>
        <time>2010-10-24T07:21:58Z</time>
      </trkpt>
      <trkpt lat="44.16697" lon="3.24253">
        <ele>855.40002441406</ele>
        <time>2010-10-24T07:21:59Z</time>
      </trkpt>
      <trkpt lat="44.16698" lon="3.24232">
        <ele>853.59997558594</ele>
        <time>2010-10-24T07:22:05Z</time>
      </trkpt>
      <trkpt lat="44.16701" lon="3.24216">
        <ele>852.20001220703</ele>
        <time>2010-10-24T07:22:09Z</time>
      </trkpt>
      <trkpt lat="44.16698" lon="3.24212">
        <ele>851.40002441406</ele>
        <time>2010-10-24T07:22:11Z</time>
      </trkpt>
      <trkpt lat="44.16695" lon="3.24212">
        <ele>851.20001220703</ele>
        <time>2010-10-24T07:22:12Z</time>
      </trkpt>
      <trkpt lat="44.16679" lon="3.24225">
        <ele>849.20001220703</ele>
        <time>2010-10-24T07:22:18Z</time>
      </trkpt>
      <trkpt lat="44.16676" lon="3.24229">
        <ele>848.79998779297</ele>
        <time>2010-10-24T07:22:19Z</time>
      </trkpt>
      <trkpt lat="44.16671" lon="3.24233">
        <ele>848.20001220703</ele>
        <time>2010-10-24T07:22:21Z</time>
      </trkpt>
      <trkpt lat="44.1666" lon="3.24232">
        <ele>847.20001220703</ele>
        <time>2010-10-24T07:22:24Z</time>
      </trkpt>
      <trkpt lat="44.16652" lon="3.24232">
        <ele>846.59997558594</ele>
        <time>2010-10-24T07:22:26Z</time>
      </trkpt>
      <trkpt lat="44.16644" lon="3.24224">
        <ele>845.79998779297</ele>
        <time>2010-10-24T07:22:29Z</time>
      </trkpt>
      <trkpt lat="44.16643" lon="3.24203">
        <ele>844.40002441406</ele>
        <time>2010-10-24T07:22:34Z</time>
      </trkpt>
      <trkpt lat="44.16644" lon="3.242">
        <ele>844.20001220703</ele>
        <time>2010-10-24T07:22:35Z</time>
      </trkpt>
      <trkpt lat="44.16652" lon="3.24181">
        <ele>842.40002441406</ele>
        <time>2010-10-24T07:22:41Z</time>
      </trkpt>
      <trkpt lat="44.16653" lon="3.24178">
        <ele>842.20001220703</ele>
        <time>2010-10-24T07:22:42Z</time>
      </trkpt>
      <trkpt lat="44.16661" lon="3.24164">
        <ele>841</ele>
        <time>2010-10-24T07:22:46Z</time>
      </trkpt>
      <trkpt lat="44.16662" lon="3.24162">
        <ele>840.59997558594</ele>
        <time>2010-10-24T07:22:47Z</time>
      </trkpt>
      <trkpt lat="44.16663" lon="3.24155">
        <ele>840</ele>
        <time>2010-10-24T07:22:49Z</time>
      </trkpt>
      <trkpt lat="44.16669" lon="3.24137">
        <ele>838.40002441406</ele>
        <time>2010-10-24T07:22:54Z</time>
      </trkpt>
      <trkpt lat="44.16673" lon="3.24132">
        <ele>837.79998779297</ele>
        <time>2010-10-24T07:22:56Z</time>
      </trkpt>
      <trkpt lat="44.16679" lon="3.24121">
        <ele>836.20001220703</ele>
        <time>2010-10-24T07:23:01Z</time>
      </trkpt>
      <trkpt lat="44.16689" lon="3.24123">
        <ele>835</ele>
        <time>2010-10-24T07:23:05Z</time>
      </trkpt>
      <trkpt lat="44.16704" lon="3.24128">
        <ele>833.40002441406</ele>
        <time>2010-10-24T07:23:11Z</time>
      </trkpt>
      <trkpt lat="44.16707" lon="3.24129">
        <ele>833</ele>
        <time>2010-10-24T07:23:12Z</time>
      </trkpt>
      <trkpt lat="44.16714" lon="3.24134">
        <ele>832</ele>
        <time>2010-10-24T07:23:16Z</time>
      </trkpt>
      <trkpt lat="44.16715" lon="3.24124">
        <ele>830.20001220703</ele>
        <time>2010-10-24T07:23:22Z</time>
      </trkpt>
      <trkpt lat="44.16708" lon="3.24103">
        <ele>828.40002441406</ele>
        <time>2010-10-24T07:23:28Z</time>
      </trkpt>
      <trkpt lat="44.16706" lon="3.241">
        <ele>828</ele>
        <time>2010-10-24T07:23:29Z</time>
      </trkpt>
      <trkpt lat="44.16701" lon="3.24094">
        <ele>827.40002441406</ele>
        <time>2010-10-24T07:23:31Z</time>
      </trkpt>
      <trkpt lat="44.16689" lon="3.24087">
        <ele>826.40002441406</ele>
        <time>2010-10-24T07:23:34Z</time>
      </trkpt>
      <trkpt lat="44.16685" lon="3.24082">
        <ele>825.40002441406</ele>
        <time>2010-10-24T07:23:37Z</time>
      </trkpt>
      <trkpt lat="44.16677" lon="3.24067">
        <ele>823.40002441406</ele>
        <time>2010-10-24T07:23:43Z</time>
      </trkpt>
      <trkpt lat="44.16667" lon="3.24055">
        <ele>822.40002441406</ele>
        <time>2010-10-24T07:23:47Z</time>
      </trkpt>
      <trkpt lat="44.16664" lon="3.24048">
        <ele>821.79998779297</ele>
        <time>2010-10-24T07:23:49Z</time>
      </trkpt>
      <trkpt lat="44.16665" lon="3.24024">
        <ele>820</ele>
        <time>2010-10-24T07:23:55Z</time>
      </trkpt>
      <trkpt lat="44.16668" lon="3.23997">
        <ele>818.20001220703</ele>
        <time>2010-10-24T07:24:01Z</time>
      </trkpt>
      <trkpt lat="44.16669" lon="3.23972">
        <ele>816.40002441406</ele>
        <time>2010-10-24T07:24:07Z</time>
      </trkpt>
      <trkpt lat="44.16666" lon="3.23954">
        <ele>815.20001220703</ele>
        <time>2010-10-24T07:24:12Z</time>
      </trkpt>
      <trkpt lat="44.16667" lon="3.23946">
        <ele>814.79998779297</ele>
        <time>2010-10-24T07:24:14Z</time>
      </trkpt>
      <trkpt lat="44.16667" lon="3.23922">
        <ele>813.20001220703</ele>
        <time>2010-10-24T07:24:20Z</time>
      </trkpt>
      <trkpt lat="44.16666" lon="3.23918">
        <ele>813</ele>
        <time>2010-10-24T07:24:21Z</time>
      </trkpt>
      <trkpt lat="44.16653" lon="3.23898">
        <ele>811.20001220703</ele>
        <time>2010-10-24T07:24:28Z</time>
      </trkpt>
      <trkpt lat="44.16642" lon="3.23873">
        <ele>809.79998779297</ele>
        <time>2010-10-24T07:24:34Z</time>
      </trkpt>
      <trkpt lat="44.16634" lon="3.2385">
        <ele>808.59997558594</ele>
        <time>2010-10-24T07:24:39Z</time>
      </trkpt>
      <trkpt lat="44.16629" lon="3.23832">
        <ele>807.79998779297</ele>
        <time>2010-10-24T07:24:43Z</time>
      </trkpt>
      <trkpt lat="44.16628" lon="3.23822">
        <ele>807.40002441406</ele>
        <time>2010-10-24T07:24:45Z</time>
      </trkpt>
      <trkpt lat="44.16633" lon="3.23795">
        <ele>806</ele>
        <time>2010-10-24T07:24:51Z</time>
      </trkpt>
      <trkpt lat="44.16628" lon="3.23772">
        <ele>804.59997558594</ele>
        <time>2010-10-24T07:24:57Z</time>
      </trkpt>
      <trkpt lat="44.16626" lon="3.23769">
        <ele>804</ele>
        <time>2010-10-24T07:24:59Z</time>
      </trkpt>
      <trkpt lat="44.16626" lon="3.23769">
        <ele>803.40002441406</ele>
        <time>2010-10-24T07:25:02Z</time>
      </trkpt>
      <trkpt lat="44.16617" lon="3.23755">
        <ele>802.20001220703</ele>
        <time>2010-10-24T07:25:07Z</time>
      </trkpt>
      <trkpt lat="44.166" lon="3.23744">
        <ele>801.20001220703</ele>
        <time>2010-10-24T07:25:13Z</time>
      </trkpt>
      <trkpt lat="44.1658" lon="3.23739">
        <ele>800.40002441406</ele>
        <time>2010-10-24T07:25:19Z</time>
      </trkpt>
      <trkpt lat="44.16562" lon="3.23746">
        <ele>799.59997558594</ele>
        <time>2010-10-24T07:25:26Z</time>
      </trkpt>
      <trkpt lat="44.16547" lon="3.23763">
        <ele>798.79998779297</ele>
        <time>2010-10-24T07:25:33Z</time>
      </trkpt>
      <trkpt lat="44.16534" lon="3.23784">
        <ele>798</ele>
        <time>2010-10-24T07:25:41Z</time>
      </trkpt>
      <trkpt lat="44.16519" lon="3.23799">
        <ele>797.40002441406</ele>
        <time>2010-10-24T07:25:48Z</time>
      </trkpt>
      <trkpt lat="44.16505" lon="3.23817">
        <ele>796.79998779297</ele>
        <time>2010-10-24T07:25:55Z</time>
      </trkpt>
      <trkpt lat="44.16492" lon="3.23839">
        <ele>796.20001220703</ele>
        <time>2010-10-24T07:26:04Z</time>
      </trkpt>
      <trkpt lat="44.16485" lon="3.23859">
        <ele>796</ele>
        <time>2010-10-24T07:26:11Z</time>
      </trkpt>
      <trkpt lat="44.16483" lon="3.2386">
        <ele>796</ele>
        <time>2010-10-24T07:26:12Z</time>
      </trkpt>
      <trkpt lat="44.16473" lon="3.23857">
        <ele>796</ele>
        <time>2010-10-24T07:26:16Z</time>
      </trkpt>
      <trkpt lat="44.16463" lon="3.23853">
        <ele>796.20001220703</ele>
        <time>2010-10-24T07:26:19Z</time>
      </trkpt>
      <trkpt lat="44.16446" lon="3.23866">
        <ele>796.20001220703</ele>
        <time>2010-10-24T07:26:28Z</time>
      </trkpt>
      <trkpt lat="44.16428" lon="3.23871">
        <ele>797.20001220703</ele>
        <time>2010-10-24T07:26:34Z</time>
      </trkpt>
      <trkpt lat="44.1641" lon="3.23885">
        <ele>798.79998779297</ele>
        <time>2010-10-24T07:26:43Z</time>
      </trkpt>
      <trkpt lat="44.16393" lon="3.23894">
        <ele>800.20001220703</ele>
        <time>2010-10-24T07:26:51Z</time>
      </trkpt>
      <trkpt lat="44.16375" lon="3.23909">
        <ele>801.59997558594</ele>
        <time>2010-10-24T07:27:00Z</time>
      </trkpt>
      <trkpt lat="44.1636" lon="3.23923">
        <ele>802.59997558594</ele>
        <time>2010-10-24T07:27:08Z</time>
      </trkpt>
      <trkpt lat="44.16342" lon="3.23927">
        <ele>804.20001220703</ele>
        <time>2010-10-24T07:27:15Z</time>
      </trkpt>
      <trkpt lat="44.16322" lon="3.23931">
        <ele>806.20001220703</ele>
        <time>2010-10-24T07:27:22Z</time>
      </trkpt>
      <trkpt lat="44.16305" lon="3.23942">
        <ele>808.59997558594</ele>
        <time>2010-10-24T07:27:30Z</time>
      </trkpt>
      <trkpt lat="44.16287" lon="3.2395">
        <ele>810.79998779297</ele>
        <time>2010-10-24T07:27:40Z</time>
      </trkpt>
      <trkpt lat="44.16279" lon="3.2395">
        <ele>811.79998779297</ele>
        <time>2010-10-24T07:27:45Z</time>
      </trkpt>
      <trkpt lat="44.16274" lon="3.23943">
        <ele>813.59997558594</ele>
        <time>2010-10-24T07:27:52Z</time>
      </trkpt>
      <trkpt lat="44.16275" lon="3.23941">
        <ele>814.20001220703</ele>
        <time>2010-10-24T07:27:55Z</time>
      </trkpt>
      <trkpt lat="44.16274" lon="3.23939">
        <ele>814.59997558594</ele>
        <time>2010-10-24T07:27:58Z</time>
      </trkpt>
      <trkpt lat="44.16267" lon="3.23922">
        <ele>817.59997558594</ele>
        <time>2010-10-24T07:28:15Z</time>
      </trkpt>
      <trkpt lat="44.16269" lon="3.2392">
        <ele>818</ele>
        <time>2010-10-24T07:28:17Z</time>
      </trkpt>
      <trkpt lat="44.16272" lon="3.23915">
        <ele>818.40002441406</ele>
        <time>2010-10-24T07:28:21Z</time>
      </trkpt>
      <trkpt lat="44.16278" lon="3.23898">
        <ele>819.40002441406</ele>
        <time>2010-10-24T07:28:32Z</time>
      </trkpt>
      <trkpt lat="44.16286" lon="3.23875">
        <ele>820.40002441406</ele>
        <time>2010-10-24T07:28:47Z</time>
      </trkpt>
      <trkpt lat="44.163" lon="3.23858">
        <ele>822</ele>
        <time>2010-10-24T07:29:01Z</time>
      </trkpt>
      <trkpt lat="44.16315" lon="3.23844">
        <ele>822.79998779297</ele>
        <time>2010-10-24T07:29:11Z</time>
      </trkpt>
      <trkpt lat="44.16319" lon="3.2384">
        <ele>823</ele>
        <time>2010-10-24T07:29:13Z</time>
      </trkpt>
      <trkpt lat="44.16323" lon="3.2382">
        <ele>823.40002441406</ele>
        <time>2010-10-24T07:29:19Z</time>
      </trkpt>
      <trkpt lat="44.16323" lon="3.23806">
        <ele>824</ele>
        <time>2010-10-24T07:29:24Z</time>
      </trkpt>
      <trkpt lat="44.1632" lon="3.23796">
        <ele>824.59997558594</ele>
        <time>2010-10-24T07:29:28Z</time>
      </trkpt>
      <trkpt lat="44.16317" lon="3.23792">
        <ele>825</ele>
        <time>2010-10-24T07:29:30Z</time>
      </trkpt>
      <trkpt lat="44.16304" lon="3.23784">
        <ele>827</ele>
        <time>2010-10-24T07:29:36Z</time>
      </trkpt>
      <trkpt lat="44.16297" lon="3.2378">
        <ele>828.79998779297</ele>
        <time>2010-10-24T07:29:40Z</time>
      </trkpt>
      <trkpt lat="44.16285" lon="3.23782">
        <ele>830.20001220703</ele>
        <time>2010-10-24T07:29:44Z</time>
      </trkpt>
      <trkpt lat="44.1627" lon="3.23801">
        <ele>833</ele>
        <time>2010-10-24T07:29:52Z</time>
      </trkpt>
      <trkpt lat="44.16256" lon="3.23816">
        <ele>834.79998779297</ele>
        <time>2010-10-24T07:29:59Z</time>
      </trkpt>
      <trkpt lat="44.16241" lon="3.23833">
        <ele>836.79998779297</ele>
        <time>2010-10-24T07:30:07Z</time>
      </trkpt>
      <trkpt lat="44.16227" lon="3.23849">
        <ele>839</ele>
        <time>2010-10-24T07:30:16Z</time>
      </trkpt>
      <trkpt lat="44.16211" lon="3.23864">
        <ele>841</ele>
        <time>2010-10-24T07:30:25Z</time>
      </trkpt>
      <trkpt lat="44.16199" lon="3.23884">
        <ele>841.79998779297</ele>
        <time>2010-10-24T07:30:32Z</time>
      </trkpt>
      <trkpt lat="44.16191" lon="3.23907">
        <ele>842.20001220703</ele>
        <time>2010-10-24T07:30:38Z</time>
      </trkpt>
      <trkpt lat="44.1618" lon="3.2393">
        <ele>842.79998779297</ele>
        <time>2010-10-24T07:30:45Z</time>
      </trkpt>
      <trkpt lat="44.16167" lon="3.23951">
        <ele>843.79998779297</ele>
        <time>2010-10-24T07:30:52Z</time>
      </trkpt>
      <trkpt lat="44.16153" lon="3.23972">
        <ele>845</ele>
        <time>2010-10-24T07:30:59Z</time>
      </trkpt>
      <trkpt lat="44.16138" lon="3.23987">
        <ele>846</ele>
        <time>2010-10-24T07:31:06Z</time>
      </trkpt>
      <trkpt lat="44.16126" lon="3.24006">
        <ele>846.79998779297</ele>
        <time>2010-10-24T07:31:13Z</time>
      </trkpt>
      <trkpt lat="44.16121" lon="3.24031">
        <ele>847.59997558594</ele>
        <time>2010-10-24T07:31:20Z</time>
      </trkpt>
      <trkpt lat="44.16106" lon="3.24049">
        <ele>848.20001220703</ele>
        <time>2010-10-24T07:31:27Z</time>
      </trkpt>
      <trkpt lat="44.1609" lon="3.24061">
        <ele>848.59997558594</ele>
        <time>2010-10-24T07:31:34Z</time>
      </trkpt>
      <trkpt lat="44.16084" lon="3.24077">
        <ele>849</ele>
        <time>2010-10-24T07:31:38Z</time>
      </trkpt>
      <trkpt lat="44.16081" lon="3.24084">
        <ele>849</ele>
        <time>2010-10-24T07:31:40Z</time>
      </trkpt>
      <trkpt lat="44.1607" lon="3.24105">
        <ele>849.20001220703</ele>
        <time>2010-10-24T07:31:47Z</time>
      </trkpt>
      <trkpt lat="44.16056" lon="3.24124">
        <ele>849.20001220703</ele>
        <time>2010-10-24T07:31:55Z</time>
      </trkpt>
      <trkpt lat="44.1604" lon="3.24135">
        <ele>849.79998779297</ele>
        <time>2010-10-24T07:32:03Z</time>
      </trkpt>
      <trkpt lat="44.16022" lon="3.24128">
        <ele>849.79998779297</ele>
        <time>2010-10-24T07:32:09Z</time>
      </trkpt>
      <trkpt lat="44.1601" lon="3.24124">
        <ele>849.79998779297</ele>
        <time>2010-10-24T07:32:13Z</time>
      </trkpt>
      <trkpt lat="44.16006" lon="3.24134">
        <ele>850.20001220703</ele>
        <time>2010-10-24T07:32:16Z</time>
      </trkpt>
      <trkpt lat="44.16006" lon="3.24143">
        <ele>850.20001220703</ele>
        <time>2010-10-24T07:32:18Z</time>
      </trkpt>
      <trkpt lat="44.16003" lon="3.24162">
        <ele>850.40002441406</ele>
        <time>2010-10-24T07:32:22Z</time>
      </trkpt>
      <trkpt lat="44.15989" lon="3.24172">
        <ele>850.20001220703</ele>
        <time>2010-10-24T07:32:28Z</time>
      </trkpt>
      <trkpt lat="44.15986" lon="3.2417">
        <ele>850.40002441406</ele>
        <time>2010-10-24T07:32:29Z</time>
      </trkpt>
      <trkpt lat="44.15969" lon="3.24161">
        <ele>850.20001220703</ele>
        <time>2010-10-24T07:32:38Z</time>
      </trkpt>
      <trkpt lat="44.15947" lon="3.2416">
        <ele>850</ele>
        <time>2010-10-24T07:32:49Z</time>
      </trkpt>
      <trkpt lat="44.15934" lon="3.24168">
        <ele>849.79998779297</ele>
        <time>2010-10-24T07:32:54Z</time>
      </trkpt>
      <trkpt lat="44.15931" lon="3.24173">
        <ele>849.79998779297</ele>
        <time>2010-10-24T07:32:56Z</time>
      </trkpt>
      <trkpt lat="44.15929" lon="3.24191">
        <ele>850</ele>
        <time>2010-10-24T07:33:03Z</time>
      </trkpt>
      <trkpt lat="44.15934" lon="3.24193">
        <ele>850</ele>
        <time>2010-10-24T07:33:05Z</time>
      </trkpt>
      <trkpt lat="44.15939" lon="3.24194">
        <ele>850</ele>
        <time>2010-10-24T07:33:07Z</time>
      </trkpt>
      <trkpt lat="44.15951" lon="3.24205">
        <ele>850.59997558594</ele>
        <time>2010-10-24T07:33:13Z</time>
      </trkpt>
      <trkpt lat="44.15942" lon="3.2422">
        <ele>851.20001220703</ele>
        <time>2010-10-24T07:33:19Z</time>
      </trkpt>
      <trkpt lat="44.15939" lon="3.24224">
        <ele>851.59997558594</ele>
        <time>2010-10-24T07:33:21Z</time>
      </trkpt>
      <trkpt lat="44.15925" lon="3.24242">
        <ele>853.40002441406</ele>
        <time>2010-10-24T07:33:29Z</time>
      </trkpt>
      <trkpt lat="44.15921" lon="3.24247">
        <ele>853.79998779297</ele>
        <time>2010-10-24T07:33:31Z</time>
      </trkpt>
      <trkpt lat="44.15912" lon="3.24263">
        <ele>855.59997558594</ele>
        <time>2010-10-24T07:33:37Z</time>
      </trkpt>
      <trkpt lat="44.15904" lon="3.2429">
        <ele>858.20001220703</ele>
        <time>2010-10-24T07:33:45Z</time>
      </trkpt>
      <trkpt lat="44.15892" lon="3.24311">
        <ele>860.59997558594</ele>
        <time>2010-10-24T07:33:52Z</time>
      </trkpt>
      <trkpt lat="44.15876" lon="3.2431">
        <ele>863.20001220703</ele>
        <time>2010-10-24T07:33:59Z</time>
      </trkpt>
      <trkpt lat="44.15873" lon="3.2431">
        <ele>863.59997558594</ele>
        <time>2010-10-24T07:34:00Z</time>
      </trkpt>
      <trkpt lat="44.15856" lon="3.24316">
        <ele>866</ele>
        <time>2010-10-24T07:34:08Z</time>
      </trkpt>
      <trkpt lat="44.15841" lon="3.24331">
        <ele>867.40002441406</ele>
        <time>2010-10-24T07:34:15Z</time>
      </trkpt>
      <trkpt lat="44.15824" lon="3.24339">
        <ele>868.40002441406</ele>
        <time>2010-10-24T07:34:22Z</time>
      </trkpt>
      <trkpt lat="44.15805" lon="3.24339">
        <ele>869.20001220703</ele>
        <time>2010-10-24T07:34:29Z</time>
      </trkpt>
      <trkpt lat="44.15787" lon="3.24336">
        <ele>870.20001220703</ele>
        <time>2010-10-24T07:34:37Z</time>
      </trkpt>
      <trkpt lat="44.1577" lon="3.24348">
        <ele>871.20001220703</ele>
        <time>2010-10-24T07:34:45Z</time>
      </trkpt>
      <trkpt lat="44.15752" lon="3.24352">
        <ele>873.59997558594</ele>
        <time>2010-10-24T07:34:58Z</time>
      </trkpt>
      <trkpt lat="44.15734" lon="3.24349">
        <ele>876</ele>
        <time>2010-10-24T07:35:11Z</time>
      </trkpt>
      <trkpt lat="44.1572" lon="3.24367">
        <ele>878</ele>
        <time>2010-10-24T07:35:21Z</time>
      </trkpt>
      <trkpt lat="44.15702" lon="3.24379">
        <ele>879.40002441406</ele>
        <time>2010-10-24T07:35:28Z</time>
      </trkpt>
      <trkpt lat="44.15683" lon="3.24391">
        <ele>880.79998779297</ele>
        <time>2010-10-24T07:35:35Z</time>
      </trkpt>
      <trkpt lat="44.15667" lon="3.24403">
        <ele>881.59997558594</ele>
        <time>2010-10-24T07:35:41Z</time>
      </trkpt>
      <trkpt lat="44.15651" lon="3.2442">
        <ele>882.20001220703</ele>
        <time>2010-10-24T07:35:48Z</time>
      </trkpt>
      <trkpt lat="44.15636" lon="3.24441">
        <ele>882.79998779297</ele>
        <time>2010-10-24T07:35:55Z</time>
      </trkpt>
      <trkpt lat="44.15622" lon="3.24455">
        <ele>883.40002441406</ele>
        <time>2010-10-24T07:36:01Z</time>
      </trkpt>
      <trkpt lat="44.15606" lon="3.24469">
        <ele>883.79998779297</ele>
        <time>2010-10-24T07:36:07Z</time>
      </trkpt>
      <trkpt lat="44.15591" lon="3.24484">
        <ele>883.79998779297</ele>
        <time>2010-10-24T07:36:13Z</time>
      </trkpt>
      <trkpt lat="44.15574" lon="3.245">
        <ele>883.79998779297</ele>
        <time>2010-10-24T07:36:20Z</time>
      </trkpt>
      <trkpt lat="44.15562" lon="3.2452">
        <ele>883.59997558594</ele>
        <time>2010-10-24T07:36:27Z</time>
      </trkpt>
      <trkpt lat="44.15552" lon="3.24541">
        <ele>883.59997558594</ele>
        <time>2010-10-24T07:36:34Z</time>
      </trkpt>
      <trkpt lat="44.15539" lon="3.24561">
        <ele>883.40002441406</ele>
        <time>2010-10-24T07:36:41Z</time>
      </trkpt>
      <trkpt lat="44.15526" lon="3.2458">
        <ele>883.40002441406</ele>
        <time>2010-10-24T07:36:48Z</time>
      </trkpt>
      <trkpt lat="44.15511" lon="3.24596">
        <ele>883.59997558594</ele>
        <time>2010-10-24T07:36:54Z</time>
      </trkpt>
      <trkpt lat="44.15499" lon="3.24619">
        <ele>883.79998779297</ele>
        <time>2010-10-24T07:37:01Z</time>
      </trkpt>
      <trkpt lat="44.15486" lon="3.2464">
        <ele>883.79998779297</ele>
        <time>2010-10-24T07:37:08Z</time>
      </trkpt>
      <trkpt lat="44.15475" lon="3.24663">
        <ele>884</ele>
        <time>2010-10-24T07:37:15Z</time>
      </trkpt>
      <trkpt lat="44.15471" lon="3.24687">
        <ele>884.20001220703</ele>
        <time>2010-10-24T07:37:21Z</time>
      </trkpt>
      <trkpt lat="44.15472" lon="3.24714">
        <ele>884</ele>
        <time>2010-10-24T07:37:27Z</time>
      </trkpt>
      <trkpt lat="44.15474" lon="3.24739">
        <ele>884</ele>
        <time>2010-10-24T07:37:33Z</time>
      </trkpt>
      <trkpt lat="44.15488" lon="3.2476">
        <ele>883.59997558594</ele>
        <time>2010-10-24T07:37:39Z</time>
      </trkpt>
      <trkpt lat="44.15496" lon="3.24784">
        <ele>883.40002441406</ele>
        <time>2010-10-24T07:37:45Z</time>
      </trkpt>
      <trkpt lat="44.15492" lon="3.24812">
        <ele>883.20001220703</ele>
        <time>2010-10-24T07:37:52Z</time>
      </trkpt>
      <trkpt lat="44.15491" lon="3.24837">
        <ele>883</ele>
        <time>2010-10-24T07:37:58Z</time>
      </trkpt>
      <trkpt lat="44.15496" lon="3.24865">
        <ele>882.79998779297</ele>
        <time>2010-10-24T07:38:05Z</time>
      </trkpt>
      <trkpt lat="44.15498" lon="3.24892">
        <ele>882.79998779297</ele>
        <time>2010-10-24T07:38:12Z</time>
      </trkpt>
      <trkpt lat="44.15492" lon="3.24909">
        <ele>882.79998779297</ele>
        <time>2010-10-24T07:38:17Z</time>
      </trkpt>
      <trkpt lat="44.15487" lon="3.24912">
        <ele>882.79998779297</ele>
        <time>2010-10-24T07:38:19Z</time>
      </trkpt>
      <trkpt lat="44.15469" lon="3.24924">
        <ele>883.20001220703</ele>
        <time>2010-10-24T07:38:27Z</time>
      </trkpt>
      <trkpt lat="44.15453" lon="3.24939">
        <ele>884</ele>
        <time>2010-10-24T07:38:35Z</time>
      </trkpt>
      <trkpt lat="44.15437" lon="3.24954">
        <ele>885.20001220703</ele>
        <time>2010-10-24T07:38:43Z</time>
      </trkpt>
      <trkpt lat="44.15418" lon="3.24951">
        <ele>886</ele>
        <time>2010-10-24T07:38:51Z</time>
      </trkpt>
      <trkpt lat="44.154" lon="3.24948">
        <ele>886.79998779297</ele>
        <time>2010-10-24T07:38:58Z</time>
      </trkpt>
      <trkpt lat="44.15384" lon="3.24962">
        <ele>887.59997558594</ele>
        <time>2010-10-24T07:39:06Z</time>
      </trkpt>
      <trkpt lat="44.15377" lon="3.24976">
        <ele>888.20001220703</ele>
        <time>2010-10-24T07:39:11Z</time>
      </trkpt>
      <trkpt lat="44.15377" lon="3.24987">
        <ele>888.79998779297</ele>
        <time>2010-10-24T07:39:14Z</time>
      </trkpt>
      <trkpt lat="44.15375" lon="3.25014">
        <ele>890.40002441406</ele>
        <time>2010-10-24T07:39:22Z</time>
      </trkpt>
      <trkpt lat="44.15371" lon="3.25038">
        <ele>891.59997558594</ele>
        <time>2010-10-24T07:39:29Z</time>
      </trkpt>
      <trkpt lat="44.15367" lon="3.25064">
        <ele>893.20001220703</ele>
        <time>2010-10-24T07:39:37Z</time>
      </trkpt>
      <trkpt lat="44.15359" lon="3.25091">
        <ele>894.20001220703</ele>
        <time>2010-10-24T07:39:45Z</time>
      </trkpt>
      <trkpt lat="44.15355" lon="3.25115">
        <ele>894.79998779297</ele>
        <time>2010-10-24T07:39:52Z</time>
      </trkpt>
      <trkpt lat="44.15353" lon="3.25144">
        <ele>895.79998779297</ele>
        <time>2010-10-24T07:39:59Z</time>
      </trkpt>
      <trkpt lat="44.15348" lon="3.25171">
        <ele>896.40002441406</ele>
        <time>2010-10-24T07:40:06Z</time>
      </trkpt>
      <trkpt lat="44.15343" lon="3.25199">
        <ele>897.20001220703</ele>
        <time>2010-10-24T07:40:13Z</time>
      </trkpt>
      <trkpt lat="44.1534" lon="3.25228">
        <ele>897.59997558594</ele>
        <time>2010-10-24T07:40:20Z</time>
      </trkpt>
      <trkpt lat="44.15337" lon="3.25256">
        <ele>898</ele>
        <time>2010-10-24T07:40:27Z</time>
      </trkpt>
      <trkpt lat="44.15334" lon="3.25285">
        <ele>898.40002441406</ele>
        <time>2010-10-24T07:40:34Z</time>
      </trkpt>
      <trkpt lat="44.15331" lon="3.25309">
        <ele>898.59997558594</ele>
        <time>2010-10-24T07:40:40Z</time>
      </trkpt>
      <trkpt lat="44.15326" lon="3.25338">
        <ele>898.79998779297</ele>
        <time>2010-10-24T07:40:47Z</time>
      </trkpt>
      <trkpt lat="44.15323" lon="3.25366">
        <ele>898.79998779297</ele>
        <time>2010-10-24T07:40:54Z</time>
      </trkpt>
      <trkpt lat="44.15322" lon="3.25395">
        <ele>898.59997558594</ele>
        <time>2010-10-24T07:41:01Z</time>
      </trkpt>
      <trkpt lat="44.15321" lon="3.25421">
        <ele>898.40002441406</ele>
        <time>2010-10-24T07:41:07Z</time>
      </trkpt>
      <trkpt lat="44.15324" lon="3.25446">
        <ele>898.20001220703</ele>
        <time>2010-10-24T07:41:13Z</time>
      </trkpt>
      <trkpt lat="44.15327" lon="3.2547">
        <ele>898</ele>
        <time>2010-10-24T07:41:19Z</time>
      </trkpt>
      <trkpt lat="44.15331" lon="3.25496">
        <ele>897.79998779297</ele>
        <time>2010-10-24T07:41:25Z</time>
      </trkpt>
      <trkpt lat="44.15334" lon="3.2552">
        <ele>897.40002441406</ele>
        <time>2010-10-24T07:41:31Z</time>
      </trkpt>
      <trkpt lat="44.15341" lon="3.25544">
        <ele>897.20001220703</ele>
        <time>2010-10-24T07:41:37Z</time>
      </trkpt>
      <trkpt lat="44.15351" lon="3.25569">
        <ele>896.79998779297</ele>
        <time>2010-10-24T07:41:44Z</time>
      </trkpt>
      <trkpt lat="44.15355" lon="3.25593">
        <ele>896.59997558594</ele>
        <time>2010-10-24T07:41:50Z</time>
      </trkpt>
      <trkpt lat="44.15355" lon="3.25621">
        <ele>896.20001220703</ele>
        <time>2010-10-24T07:41:57Z</time>
      </trkpt>
      <trkpt lat="44.15353" lon="3.25647">
        <ele>896</ele>
        <time>2010-10-24T07:42:03Z</time>
      </trkpt>
      <trkpt lat="44.1535" lon="3.25672">
        <ele>895.79998779297</ele>
        <time>2010-10-24T07:42:09Z</time>
      </trkpt>
      <trkpt lat="44.15347" lon="3.25696">
        <ele>895.40002441406</ele>
        <time>2010-10-24T07:42:15Z</time>
      </trkpt>
      <trkpt lat="44.15334" lon="3.25714">
        <ele>895</ele>
        <time>2010-10-24T07:42:21Z</time>
      </trkpt>
      <trkpt lat="44.15316" lon="3.25724">
        <ele>894.59997558594</ele>
        <time>2010-10-24T07:42:27Z</time>
      </trkpt>
      <trkpt lat="44.153" lon="3.25736">
        <ele>894.20001220703</ele>
        <time>2010-10-24T07:42:33Z</time>
      </trkpt>
      <trkpt lat="44.15289" lon="3.25756">
        <ele>893.59997558594</ele>
        <time>2010-10-24T07:42:39Z</time>
      </trkpt>
      <trkpt lat="44.15288" lon="3.25782">
        <ele>893.20001220703</ele>
        <time>2010-10-24T07:42:45Z</time>
      </trkpt>
      <trkpt lat="44.15291" lon="3.25808">
        <ele>892.59997558594</ele>
        <time>2010-10-24T07:42:51Z</time>
      </trkpt>
      <trkpt lat="44.15293" lon="3.25834">
        <ele>892</ele>
        <time>2010-10-24T07:42:57Z</time>
      </trkpt>
      <trkpt lat="44.15292" lon="3.2586">
        <ele>891.40002441406</ele>
        <time>2010-10-24T07:43:03Z</time>
      </trkpt>
      <trkpt lat="44.15289" lon="3.25887">
        <ele>890.59997558594</ele>
        <time>2010-10-24T07:43:09Z</time>
      </trkpt>
      <trkpt lat="44.15278" lon="3.25907">
        <ele>890</ele>
        <time>2010-10-24T07:43:15Z</time>
      </trkpt>
      <trkpt lat="44.15272" lon="3.25914">
        <ele>889.40002441406</ele>
        <time>2010-10-24T07:43:20Z</time>
      </trkpt>
      <trkpt lat="44.15263" lon="3.25908">
        <ele>888.40002441406</ele>
        <time>2010-10-24T07:43:26Z</time>
      </trkpt>
      <trkpt lat="44.15262" lon="3.25907">
        <ele>888.40002441406</ele>
        <time>2010-10-24T07:43:27Z</time>
      </trkpt>
      <trkpt lat="44.15259" lon="3.25905">
        <ele>888</ele>
        <time>2010-10-24T07:43:30Z</time>
      </trkpt>
      <trkpt lat="44.15255" lon="3.25908">
        <ele>878</ele>
        <time>2010-10-24T07:46:39Z</time>
      </trkpt>
      <trkpt lat="44.15257" lon="3.25907">
        <ele>879.40002441406</ele>
        <time>2010-10-24T07:49:04Z</time>
      </trkpt>
      <trkpt lat="44.15255" lon="3.25907">
        <ele>877.20001220703</ele>
        <time>2010-10-24T07:52:09Z</time>
      </trkpt>
      <trkpt lat="44.15266" lon="3.25907">
        <ele>871.79998779297</ele>
        <time>2010-10-24T07:53:34Z</time>
      </trkpt>
      <trkpt lat="44.15265" lon="3.25907">
        <ele>871.79998779297</ele>
        <time>2010-10-24T07:54:04Z</time>
      </trkpt>
      <trkpt lat="44.15266" lon="3.25902">
        <ele>872</ele>
        <time>2010-10-24T07:54:08Z</time>
      </trkpt>
      <trkpt lat="44.15265" lon="3.25902">
        <ele>872.20001220703</ele>
        <time>2010-10-24T07:54:09Z</time>
      </trkpt>
      <trkpt lat="44.15266" lon="3.25903">
        <ele>874</ele>
        <time>2010-10-24T07:54:20Z</time>
      </trkpt>
      <trkpt lat="44.15267" lon="3.259">
        <ele>874.20001220703</ele>
        <time>2010-10-24T07:54:22Z</time>
      </trkpt>
      <trkpt lat="44.15263" lon="3.25895">
        <ele>875</ele>
        <time>2010-10-24T07:54:28Z</time>
      </trkpt>
      <trkpt lat="44.15251" lon="3.25888">
        <ele>875.59997558594</ele>
        <time>2010-10-24T07:54:38Z</time>
      </trkpt>
      <trkpt lat="44.15234" lon="3.25879">
        <ele>876</ele>
        <time>2010-10-24T07:54:52Z</time>
      </trkpt>
      <trkpt lat="44.15217" lon="3.25865">
        <ele>876.59997558594</ele>
        <time>2010-10-24T07:55:06Z</time>
      </trkpt>
      <trkpt lat="44.152" lon="3.2585">
        <ele>877.20001220703</ele>
        <time>2010-10-24T07:55:15Z</time>
      </trkpt>
      <trkpt lat="44.15189" lon="3.2583">
        <ele>877.20001220703</ele>
        <time>2010-10-24T07:55:22Z</time>
      </trkpt>
      <trkpt lat="44.15177" lon="3.25808">
        <ele>877</ele>
        <time>2010-10-24T07:55:29Z</time>
      </trkpt>
      <trkpt lat="44.15172" lon="3.25782">
        <ele>876.59997558594</ele>
        <time>2010-10-24T07:55:36Z</time>
      </trkpt>
      <trkpt lat="44.15175" lon="3.25754">
        <ele>876</ele>
        <time>2010-10-24T07:55:43Z</time>
      </trkpt>
      <trkpt lat="44.15181" lon="3.25727">
        <ele>875.20001220703</ele>
        <time>2010-10-24T07:55:50Z</time>
      </trkpt>
      <trkpt lat="44.15182" lon="3.25702">
        <ele>874.59997558594</ele>
        <time>2010-10-24T07:55:57Z</time>
      </trkpt>
      <trkpt lat="44.15168" lon="3.25686">
        <ele>874.20001220703</ele>
        <time>2010-10-24T07:56:03Z</time>
      </trkpt>
      <trkpt lat="44.1515" lon="3.25679">
        <ele>874</ele>
        <time>2010-10-24T07:56:09Z</time>
      </trkpt>
      <trkpt lat="44.15131" lon="3.25674">
        <ele>873.59997558594</ele>
        <time>2010-10-24T07:56:15Z</time>
      </trkpt>
      <trkpt lat="44.15114" lon="3.25664">
        <ele>873</ele>
        <time>2010-10-24T07:56:21Z</time>
      </trkpt>
      <trkpt lat="44.15094" lon="3.25657">
        <ele>872.40002441406</ele>
        <time>2010-10-24T07:56:28Z</time>
      </trkpt>
      <trkpt lat="44.15075" lon="3.25654">
        <ele>871.79998779297</ele>
        <time>2010-10-24T07:56:34Z</time>
      </trkpt>
      <trkpt lat="44.15056" lon="3.25652">
        <ele>871.40002441406</ele>
        <time>2010-10-24T07:56:40Z</time>
      </trkpt>
      <trkpt lat="44.15037" lon="3.25645">
        <ele>870.79998779297</ele>
        <time>2010-10-24T07:56:46Z</time>
      </trkpt>
      <trkpt lat="44.1502" lon="3.25636">
        <ele>870.40002441406</ele>
        <time>2010-10-24T07:56:52Z</time>
      </trkpt>
      <trkpt lat="44.15003" lon="3.25625">
        <ele>869.79998779297</ele>
        <time>2010-10-24T07:56:58Z</time>
      </trkpt>
      <trkpt lat="44.14985" lon="3.25614">
        <ele>869.20001220703</ele>
        <time>2010-10-24T07:57:04Z</time>
      </trkpt>
      <trkpt lat="44.14967" lon="3.25605">
        <ele>868.79998779297</ele>
        <time>2010-10-24T07:57:10Z</time>
      </trkpt>
      <trkpt lat="44.14952" lon="3.25591">
        <ele>868.40002441406</ele>
        <time>2010-10-24T07:57:16Z</time>
      </trkpt>
      <trkpt lat="44.14939" lon="3.25573">
        <ele>867.79998779297</ele>
        <time>2010-10-24T07:57:22Z</time>
      </trkpt>
      <trkpt lat="44.14922" lon="3.25557">
        <ele>867.40002441406</ele>
        <time>2010-10-24T07:57:29Z</time>
      </trkpt>
      <trkpt lat="44.1491" lon="3.25539">
        <ele>867</ele>
        <time>2010-10-24T07:57:35Z</time>
      </trkpt>
      <trkpt lat="44.14899" lon="3.25518">
        <ele>866.59997558594</ele>
        <time>2010-10-24T07:57:41Z</time>
      </trkpt>
      <trkpt lat="44.14888" lon="3.25496">
        <ele>866.20001220703</ele>
        <time>2010-10-24T07:57:47Z</time>
      </trkpt>
      <trkpt lat="44.14875" lon="3.25478">
        <ele>866</ele>
        <time>2010-10-24T07:57:53Z</time>
      </trkpt>
      <trkpt lat="44.14858" lon="3.25475">
        <ele>865.79998779297</ele>
        <time>2010-10-24T07:57:59Z</time>
      </trkpt>
      <trkpt lat="44.1484" lon="3.25485">
        <ele>865.40002441406</ele>
        <time>2010-10-24T07:58:05Z</time>
      </trkpt>
      <trkpt lat="44.14822" lon="3.25494">
        <ele>864.79998779297</ele>
        <time>2010-10-24T07:58:11Z</time>
      </trkpt>
      <trkpt lat="44.14803" lon="3.25495">
        <ele>864</ele>
        <time>2010-10-24T07:58:17Z</time>
      </trkpt>
      <trkpt lat="44.14786" lon="3.25478">
        <ele>863</ele>
        <time>2010-10-24T07:58:23Z</time>
      </trkpt>
      <trkpt lat="44.14769" lon="3.25461">
        <ele>862</ele>
        <time>2010-10-24T07:58:29Z</time>
      </trkpt>
      <trkpt lat="44.14752" lon="3.25451">
        <ele>861</ele>
        <time>2010-10-24T07:58:35Z</time>
      </trkpt>
      <trkpt lat="44.14732" lon="3.25451">
        <ele>860.20001220703</ele>
        <time>2010-10-24T07:58:41Z</time>
      </trkpt>
      <trkpt lat="44.14713" lon="3.25454">
        <ele>859.20001220703</ele>
        <time>2010-10-24T07:58:47Z</time>
      </trkpt>
      <trkpt lat="44.14694" lon="3.25462">
        <ele>858.40002441406</ele>
        <time>2010-10-24T07:58:53Z</time>
      </trkpt>
      <trkpt lat="44.14674" lon="3.25466">
        <ele>857.59997558594</ele>
        <time>2010-10-24T07:58:59Z</time>
      </trkpt>
      <trkpt lat="44.14654" lon="3.25461">
        <ele>856.59997558594</ele>
        <time>2010-10-24T07:59:05Z</time>
      </trkpt>
      <trkpt lat="44.14635" lon="3.25455">
        <ele>855.59997558594</ele>
        <time>2010-10-24T07:59:11Z</time>
      </trkpt>
      <trkpt lat="44.14616" lon="3.25455">
        <ele>854.59997558594</ele>
        <time>2010-10-24T07:59:17Z</time>
      </trkpt>
      <trkpt lat="44.14596" lon="3.25455">
        <ele>853.59997558594</ele>
        <time>2010-10-24T07:59:23Z</time>
      </trkpt>
      <trkpt lat="44.14576" lon="3.25451">
        <ele>852.79998779297</ele>
        <time>2010-10-24T07:59:29Z</time>
      </trkpt>
      <trkpt lat="44.14557" lon="3.25446">
        <ele>852</ele>
        <time>2010-10-24T07:59:35Z</time>
      </trkpt>
      <trkpt lat="44.14538" lon="3.25449">
        <ele>851.20001220703</ele>
        <time>2010-10-24T07:59:41Z</time>
      </trkpt>
      <trkpt lat="44.14518" lon="3.25445">
        <ele>850.40002441406</ele>
        <time>2010-10-24T07:59:47Z</time>
      </trkpt>
      <trkpt lat="44.14499" lon="3.25435">
        <ele>849.40002441406</ele>
        <time>2010-10-24T07:59:53Z</time>
      </trkpt>
      <trkpt lat="44.14484" lon="3.25418">
        <ele>848.59997558594</ele>
        <time>2010-10-24T07:59:59Z</time>
      </trkpt>
      <trkpt lat="44.14466" lon="3.25407">
        <ele>847.59997558594</ele>
        <time>2010-10-24T08:00:05Z</time>
      </trkpt>
      <trkpt lat="44.14448" lon="3.25404">
        <ele>846.59997558594</ele>
        <time>2010-10-24T08:00:11Z</time>
      </trkpt>
      <trkpt lat="44.14429" lon="3.25403">
        <ele>845.79998779297</ele>
        <time>2010-10-24T08:00:17Z</time>
      </trkpt>
      <trkpt lat="44.14408" lon="3.25402">
        <ele>844.79998779297</ele>
        <time>2010-10-24T08:00:24Z</time>
      </trkpt>
      <trkpt lat="44.14389" lon="3.25402">
        <ele>844</ele>
        <time>2010-10-24T08:00:31Z</time>
      </trkpt>
      <trkpt lat="44.14368" lon="3.254">
        <ele>843</ele>
        <time>2010-10-24T08:00:38Z</time>
      </trkpt>
      <trkpt lat="44.1435" lon="3.25389">
        <ele>842.20001220703</ele>
        <time>2010-10-24T08:00:44Z</time>
      </trkpt>
      <trkpt lat="44.14333" lon="3.25376">
        <ele>841.40002441406</ele>
        <time>2010-10-24T08:00:50Z</time>
      </trkpt>
      <trkpt lat="44.14314" lon="3.25366">
        <ele>840.40002441406</ele>
        <time>2010-10-24T08:00:56Z</time>
      </trkpt>
      <trkpt lat="44.14294" lon="3.25364">
        <ele>839.40002441406</ele>
        <time>2010-10-24T08:01:02Z</time>
      </trkpt>
      <trkpt lat="44.14275" lon="3.25364">
        <ele>838.59997558594</ele>
        <time>2010-10-24T08:01:08Z</time>
      </trkpt>
      <trkpt lat="44.14254" lon="3.25363">
        <ele>837.59997558594</ele>
        <time>2010-10-24T08:01:14Z</time>
      </trkpt>
      <trkpt lat="44.14236" lon="3.25356">
        <ele>836.79998779297</ele>
        <time>2010-10-24T08:01:19Z</time>
      </trkpt>
      <trkpt lat="44.14215" lon="3.2535">
        <ele>835.79998779297</ele>
        <time>2010-10-24T08:01:25Z</time>
      </trkpt>
      <trkpt lat="44.14196" lon="3.25342">
        <ele>834.79998779297</ele>
        <time>2010-10-24T08:01:31Z</time>
      </trkpt>
      <trkpt lat="44.14177" lon="3.25332">
        <ele>833.79998779297</ele>
        <time>2010-10-24T08:01:37Z</time>
      </trkpt>
      <trkpt lat="44.14158" lon="3.25322">
        <ele>832.79998779297</ele>
        <time>2010-10-24T08:01:43Z</time>
      </trkpt>
      <trkpt lat="44.14139" lon="3.25312">
        <ele>831.59997558594</ele>
        <time>2010-10-24T08:01:49Z</time>
      </trkpt>
      <trkpt lat="44.14119" lon="3.25307">
        <ele>830.59997558594</ele>
        <time>2010-10-24T08:01:55Z</time>
      </trkpt>
      <trkpt lat="44.141" lon="3.25304">
        <ele>829.40002441406</ele>
        <time>2010-10-24T08:02:02Z</time>
      </trkpt>
      <trkpt lat="44.14079" lon="3.25302">
        <ele>828.20001220703</ele>
        <time>2010-10-24T08:02:07Z</time>
      </trkpt>
      <trkpt lat="44.14059" lon="3.25297">
        <ele>827.20001220703</ele>
        <time>2010-10-24T08:02:13Z</time>
      </trkpt>
      <trkpt lat="44.1404" lon="3.25293">
        <ele>826</ele>
        <time>2010-10-24T08:02:19Z</time>
      </trkpt>
      <trkpt lat="44.14022" lon="3.25287">
        <ele>825.20001220703</ele>
        <time>2010-10-24T08:02:25Z</time>
      </trkpt>
      <trkpt lat="44.14002" lon="3.25287">
        <ele>824.20001220703</ele>
        <time>2010-10-24T08:02:31Z</time>
      </trkpt>
      <trkpt lat="44.13983" lon="3.25288">
        <ele>823.20001220703</ele>
        <time>2010-10-24T08:02:37Z</time>
      </trkpt>
      <trkpt lat="44.13963" lon="3.25292">
        <ele>822.20001220703</ele>
        <time>2010-10-24T08:02:43Z</time>
      </trkpt>
      <trkpt lat="44.13943" lon="3.25296">
        <ele>821.20001220703</ele>
        <time>2010-10-24T08:02:49Z</time>
      </trkpt>
      <trkpt lat="44.13924" lon="3.25301">
        <ele>820.40002441406</ele>
        <time>2010-10-24T08:02:55Z</time>
      </trkpt>
      <trkpt lat="44.13905" lon="3.25305">
        <ele>819.40002441406</ele>
        <time>2010-10-24T08:03:01Z</time>
      </trkpt>
      <trkpt lat="44.13885" lon="3.2531">
        <ele>818.59997558594</ele>
        <time>2010-10-24T08:03:07Z</time>
      </trkpt>
      <trkpt lat="44.13865" lon="3.25317">
        <ele>817.59997558594</ele>
        <time>2010-10-24T08:03:13Z</time>
      </trkpt>
      <trkpt lat="44.13847" lon="3.25324">
        <ele>816.59997558594</ele>
        <time>2010-10-24T08:03:19Z</time>
      </trkpt>
      <trkpt lat="44.1384" lon="3.25327">
        <ele>816.40002441406</ele>
        <time>2010-10-24T08:03:21Z</time>
      </trkpt>
      <trkpt lat="44.13828" lon="3.2533">
        <ele>815.59997558594</ele>
        <time>2010-10-24T08:03:25Z</time>
      </trkpt>
      <trkpt lat="44.13808" lon="3.25335">
        <ele>814.59997558594</ele>
        <time>2010-10-24T08:03:31Z</time>
      </trkpt>
      <trkpt lat="44.13788" lon="3.25339">
        <ele>813.40002441406</ele>
        <time>2010-10-24T08:03:37Z</time>
      </trkpt>
      <trkpt lat="44.13769" lon="3.25341">
        <ele>812.20001220703</ele>
        <time>2010-10-24T08:03:43Z</time>
      </trkpt>
      <trkpt lat="44.13749" lon="3.25343">
        <ele>811</ele>
        <time>2010-10-24T08:03:49Z</time>
      </trkpt>
      <trkpt lat="44.1373" lon="3.25346">
        <ele>809.79998779297</ele>
        <time>2010-10-24T08:03:55Z</time>
      </trkpt>
      <trkpt lat="44.1371" lon="3.25343">
        <ele>808.40002441406</ele>
        <time>2010-10-24T08:04:02Z</time>
      </trkpt>
      <trkpt lat="44.13689" lon="3.2534">
        <ele>806.79998779297</ele>
        <time>2010-10-24T08:04:08Z</time>
      </trkpt>
      <trkpt lat="44.13669" lon="3.25341">
        <ele>805</ele>
        <time>2010-10-24T08:04:15Z</time>
      </trkpt>
      <trkpt lat="44.13649" lon="3.25345">
        <ele>803.40002441406</ele>
        <time>2010-10-24T08:04:21Z</time>
      </trkpt>
      <trkpt lat="44.13634" lon="3.25348">
        <ele>802</ele>
        <time>2010-10-24T08:04:26Z</time>
      </trkpt>
      <trkpt lat="44.13636" lon="3.25342">
        <ele>801</ele>
        <time>2010-10-24T08:04:28Z</time>
      </trkpt>
      <trkpt lat="44.13652" lon="3.25329">
        <ele>799</ele>
        <time>2010-10-24T08:04:33Z</time>
      </trkpt>
      <trkpt lat="44.13668" lon="3.25313">
        <ele>796.79998779297</ele>
        <time>2010-10-24T08:04:39Z</time>
      </trkpt>
      <trkpt lat="44.1368" lon="3.25293">
        <ele>794.59997558594</ele>
        <time>2010-10-24T08:04:45Z</time>
      </trkpt>
      <trkpt lat="44.13685" lon="3.25283">
        <ele>793.59997558594</ele>
        <time>2010-10-24T08:04:48Z</time>
      </trkpt>
      <trkpt lat="44.13685" lon="3.25269">
        <ele>792.40002441406</ele>
        <time>2010-10-24T08:04:52Z</time>
      </trkpt>
      <trkpt lat="44.13674" lon="3.25255">
        <ele>791.20001220703</ele>
        <time>2010-10-24T08:04:57Z</time>
      </trkpt>
      <trkpt lat="44.1367" lon="3.25253">
        <ele>791</ele>
        <time>2010-10-24T08:04:58Z</time>
      </trkpt>
      <trkpt lat="44.13654" lon="3.25243">
        <ele>789.79998779297</ele>
        <time>2010-10-24T08:05:04Z</time>
      </trkpt>
      <trkpt lat="44.13652" lon="3.2524">
        <ele>789.59997558594</ele>
        <time>2010-10-24T08:05:05Z</time>
      </trkpt>
      <trkpt lat="44.13643" lon="3.25226">
        <ele>789</ele>
        <time>2010-10-24T08:05:10Z</time>
      </trkpt>
      <trkpt lat="44.13641" lon="3.25224">
        <ele>789</ele>
        <time>2010-10-24T08:05:11Z</time>
      </trkpt>
      <trkpt lat="44.13633" lon="3.2522">
        <ele>788.40002441406</ele>
        <time>2010-10-24T08:05:16Z</time>
      </trkpt>
      <trkpt lat="44.13628" lon="3.25207">
        <ele>788</ele>
        <time>2010-10-24T08:05:21Z</time>
      </trkpt>
      <trkpt lat="44.13623" lon="3.25201">
        <ele>787.59997558594</ele>
        <time>2010-10-24T08:05:26Z</time>
      </trkpt>
      <trkpt lat="44.13619" lon="3.25186">
        <ele>787.20001220703</ele>
        <time>2010-10-24T08:05:31Z</time>
      </trkpt>
      <trkpt lat="44.13617" lon="3.25178">
        <ele>786.59997558594</ele>
        <time>2010-10-24T08:05:37Z</time>
      </trkpt>
      <trkpt lat="44.13617" lon="3.25176">
        <ele>786.59997558594</ele>
        <time>2010-10-24T08:05:39Z</time>
      </trkpt>
      <trkpt lat="44.1362" lon="3.25168">
        <ele>786.20001220703</ele>
        <time>2010-10-24T08:05:46Z</time>
      </trkpt>
      <trkpt lat="44.1362" lon="3.25165">
        <ele>786.20001220703</ele>
        <time>2010-10-24T08:05:48Z</time>
      </trkpt>
      <trkpt lat="44.1362" lon="3.25163">
        <ele>786</ele>
        <time>2010-10-24T08:05:50Z</time>
      </trkpt>
      <trkpt lat="44.13612" lon="3.25147">
        <ele>785.79998779297</ele>
        <time>2010-10-24T08:06:02Z</time>
      </trkpt>
      <trkpt lat="44.13608" lon="3.25144">
        <ele>786</ele>
        <time>2010-10-24T08:06:03Z</time>
      </trkpt>
      <trkpt lat="44.13604" lon="3.25141">
        <ele>786.20001220703</ele>
        <time>2010-10-24T08:06:05Z</time>
      </trkpt>
      <trkpt lat="44.136" lon="3.25137">
        <ele>786.79998779297</ele>
        <time>2010-10-24T08:06:07Z</time>
      </trkpt>
      <trkpt lat="44.13593" lon="3.25142">
        <ele>787</ele>
        <time>2010-10-24T08:06:10Z</time>
      </trkpt>
      <trkpt lat="44.13577" lon="3.25156">
        <ele>787.59997558594</ele>
        <time>2010-10-24T08:06:18Z</time>
      </trkpt>
      <trkpt lat="44.13571" lon="3.25159">
        <ele>787.40002441406</ele>
        <time>2010-10-24T08:06:21Z</time>
      </trkpt>
      <trkpt lat="44.13559" lon="3.25165">
        <ele>787.20001220703</ele>
        <time>2010-10-24T08:06:27Z</time>
      </trkpt>
      <trkpt lat="44.13557" lon="3.25166">
        <ele>787.20001220703</ele>
        <time>2010-10-24T08:06:28Z</time>
      </trkpt>
      <trkpt lat="44.13546" lon="3.25163">
        <ele>786.59997558594</ele>
        <time>2010-10-24T08:06:34Z</time>
      </trkpt>
      <trkpt lat="44.13544" lon="3.25164">
        <ele>786.40002441406</ele>
        <time>2010-10-24T08:06:35Z</time>
      </trkpt>
      <trkpt lat="44.13541" lon="3.25166">
        <ele>786.20001220703</ele>
        <time>2010-10-24T08:06:36Z</time>
      </trkpt>
      <trkpt lat="44.13532" lon="3.25174">
        <ele>785.59997558594</ele>
        <time>2010-10-24T08:06:40Z</time>
      </trkpt>
      <trkpt lat="44.13528" lon="3.25183">
        <ele>785.20001220703</ele>
        <time>2010-10-24T08:06:43Z</time>
      </trkpt>
      <trkpt lat="44.13526" lon="3.25186">
        <ele>785</ele>
        <time>2010-10-24T08:06:44Z</time>
      </trkpt>
      <trkpt lat="44.13522" lon="3.25195">
        <ele>784.59997558594</ele>
        <time>2010-10-24T08:06:47Z</time>
      </trkpt>
      <trkpt lat="44.13515" lon="3.25201">
        <ele>784</ele>
        <time>2010-10-24T08:06:50Z</time>
      </trkpt>
      <trkpt lat="44.13498" lon="3.25212">
        <ele>782.40002441406</ele>
        <time>2010-10-24T08:06:59Z</time>
      </trkpt>
      <trkpt lat="44.13489" lon="3.25196">
        <ele>781</ele>
        <time>2010-10-24T08:07:05Z</time>
      </trkpt>
      <trkpt lat="44.13479" lon="3.25179">
        <ele>779.79998779297</ele>
        <time>2010-10-24T08:07:10Z</time>
      </trkpt>
      <trkpt lat="44.13477" lon="3.25175">
        <ele>779.59997558594</ele>
        <time>2010-10-24T08:07:11Z</time>
      </trkpt>
      <trkpt lat="44.13461" lon="3.25159">
        <ele>778.79998779297</ele>
        <time>2010-10-24T08:07:17Z</time>
      </trkpt>
      <trkpt lat="44.13447" lon="3.25143">
        <ele>778</ele>
        <time>2010-10-24T08:07:23Z</time>
      </trkpt>
      <trkpt lat="44.13434" lon="3.25125">
        <ele>777.59997558594</ele>
        <time>2010-10-24T08:07:29Z</time>
      </trkpt>
      <trkpt lat="44.13422" lon="3.25104">
        <ele>777.20001220703</ele>
        <time>2010-10-24T08:07:35Z</time>
      </trkpt>
      <trkpt lat="44.13411" lon="3.25081">
        <ele>776.79998779297</ele>
        <time>2010-10-24T08:07:42Z</time>
      </trkpt>
      <trkpt lat="44.13405" lon="3.25055">
        <ele>776.40002441406</ele>
        <time>2010-10-24T08:07:47Z</time>
      </trkpt>
      <trkpt lat="44.13396" lon="3.2503">
        <ele>776</ele>
        <time>2010-10-24T08:07:54Z</time>
      </trkpt>
      <trkpt lat="44.13382" lon="3.25012">
        <ele>775.59997558594</ele>
        <time>2010-10-24T08:07:59Z</time>
      </trkpt>
      <trkpt lat="44.13365" lon="3.24996">
        <ele>775.20001220703</ele>
        <time>2010-10-24T08:08:05Z</time>
      </trkpt>
      <trkpt lat="44.1335" lon="3.2498">
        <ele>774.79998779297</ele>
        <time>2010-10-24T08:08:11Z</time>
      </trkpt>
      <trkpt lat="44.13338" lon="3.24959">
        <ele>774.20001220703</ele>
        <time>2010-10-24T08:08:17Z</time>
      </trkpt>
      <trkpt lat="44.13327" lon="3.24936">
        <ele>773.59997558594</ele>
        <time>2010-10-24T08:08:23Z</time>
      </trkpt>
      <trkpt lat="44.13316" lon="3.24912">
        <ele>773</ele>
        <time>2010-10-24T08:08:30Z</time>
      </trkpt>
      <trkpt lat="44.13301" lon="3.24894">
        <ele>772.40002441406</ele>
        <time>2010-10-24T08:08:36Z</time>
      </trkpt>
      <trkpt lat="44.13287" lon="3.24876">
        <ele>771.59997558594</ele>
        <time>2010-10-24T08:08:42Z</time>
      </trkpt>
      <trkpt lat="44.13271" lon="3.24859">
        <ele>771</ele>
        <time>2010-10-24T08:08:48Z</time>
      </trkpt>
      <trkpt lat="44.13255" lon="3.2484">
        <ele>770.20001220703</ele>
        <time>2010-10-24T08:08:54Z</time>
      </trkpt>
      <trkpt lat="44.1324" lon="3.24819">
        <ele>769.59997558594</ele>
        <time>2010-10-24T08:09:00Z</time>
      </trkpt>
      <trkpt lat="44.13227" lon="3.24796">
        <ele>768.79998779297</ele>
        <time>2010-10-24T08:09:06Z</time>
      </trkpt>
      <trkpt lat="44.13214" lon="3.24774">
        <ele>768</ele>
        <time>2010-10-24T08:09:12Z</time>
      </trkpt>
      <trkpt lat="44.132" lon="3.24755">
        <ele>767.20001220703</ele>
        <time>2010-10-24T08:09:18Z</time>
      </trkpt>
      <trkpt lat="44.13186" lon="3.24736">
        <ele>766.40002441406</ele>
        <time>2010-10-24T08:09:24Z</time>
      </trkpt>
      <trkpt lat="44.13172" lon="3.24718">
        <ele>765.59997558594</ele>
        <time>2010-10-24T08:09:30Z</time>
      </trkpt>
      <trkpt lat="44.13157" lon="3.247">
        <ele>765</ele>
        <time>2010-10-24T08:09:36Z</time>
      </trkpt>
      <trkpt lat="44.13145" lon="3.24679">
        <ele>764.40002441406</ele>
        <time>2010-10-24T08:09:42Z</time>
      </trkpt>
      <trkpt lat="44.13133" lon="3.24657">
        <ele>763.79998779297</ele>
        <time>2010-10-24T08:09:48Z</time>
      </trkpt>
      <trkpt lat="44.13119" lon="3.24638">
        <ele>763.40002441406</ele>
        <time>2010-10-24T08:09:54Z</time>
      </trkpt>
      <trkpt lat="44.13103" lon="3.24621">
        <ele>762.79998779297</ele>
        <time>2010-10-24T08:10:00Z</time>
      </trkpt>
      <trkpt lat="44.13086" lon="3.24608">
        <ele>762.20001220703</ele>
        <time>2010-10-24T08:10:06Z</time>
      </trkpt>
      <trkpt lat="44.13066" lon="3.24598">
        <ele>761.40002441406</ele>
        <time>2010-10-24T08:10:12Z</time>
      </trkpt>
      <trkpt lat="44.13051" lon="3.24579">
        <ele>760.79998779297</ele>
        <time>2010-10-24T08:10:18Z</time>
      </trkpt>
      <trkpt lat="44.13044" lon="3.24559">
        <ele>760</ele>
        <time>2010-10-24T08:10:23Z</time>
      </trkpt>
      <trkpt lat="44.13041" lon="3.24558">
        <ele>759.79998779297</ele>
        <time>2010-10-24T08:10:24Z</time>
      </trkpt>
      <trkpt lat="44.13026" lon="3.24566">
        <ele>758.79998779297</ele>
        <time>2010-10-24T08:10:30Z</time>
      </trkpt>
      <trkpt lat="44.13022" lon="3.24566">
        <ele>758.40002441406</ele>
        <time>2010-10-24T08:10:32Z</time>
      </trkpt>
      <trkpt lat="44.13014" lon="3.24565">
        <ele>757.40002441406</ele>
        <time>2010-10-24T08:10:37Z</time>
      </trkpt>
      <trkpt lat="44.13003" lon="3.24567">
        <ele>756.59997558594</ele>
        <time>2010-10-24T08:10:41Z</time>
      </trkpt>
      <trkpt lat="44.12986" lon="3.24568">
        <ele>754.79998779297</ele>
        <time>2010-10-24T08:10:48Z</time>
      </trkpt>
      <trkpt lat="44.12985" lon="3.24569">
        <ele>754.59997558594</ele>
        <time>2010-10-24T08:10:49Z</time>
      </trkpt>
      <trkpt lat="44.12984" lon="3.24569">
        <ele>754.40002441406</ele>
        <time>2010-10-24T08:10:50Z</time>
      </trkpt>
      <trkpt lat="44.12983" lon="3.24569">
        <ele>754</ele>
        <time>2010-10-24T08:10:51Z</time>
      </trkpt>
      <trkpt lat="44.12975" lon="3.24568">
        <ele>753.20001220703</ele>
        <time>2010-10-24T08:10:54Z</time>
      </trkpt>
      <trkpt lat="44.12968" lon="3.24574">
        <ele>752.40002441406</ele>
        <time>2010-10-24T08:10:57Z</time>
      </trkpt>
      <trkpt lat="44.12965" lon="3.24577">
        <ele>752.20001220703</ele>
        <time>2010-10-24T08:10:58Z</time>
      </trkpt>
      <trkpt lat="44.12954" lon="3.24596">
        <ele>750.79998779297</ele>
        <time>2010-10-24T08:11:03Z</time>
      </trkpt>
      <trkpt lat="44.12952" lon="3.24609">
        <ele>749.79998779297</ele>
        <time>2010-10-24T08:11:06Z</time>
      </trkpt>
      <trkpt lat="44.12956" lon="3.24622">
        <ele>749</ele>
        <time>2010-10-24T08:11:09Z</time>
      </trkpt>
      <trkpt lat="44.12965" lon="3.24636">
        <ele>747.79998779297</ele>
        <time>2010-10-24T08:11:13Z</time>
      </trkpt>
      <trkpt lat="44.12971" lon="3.24642">
        <ele>747.20001220703</ele>
        <time>2010-10-24T08:11:15Z</time>
      </trkpt>
      <trkpt lat="44.12981" lon="3.24659">
        <ele>745.40002441406</ele>
        <time>2010-10-24T08:11:21Z</time>
      </trkpt>
      <trkpt lat="44.12977" lon="3.24659">
        <ele>745</ele>
        <time>2010-10-24T08:11:22Z</time>
      </trkpt>
      <trkpt lat="44.12957" lon="3.2466">
        <ele>743.20001220703</ele>
        <time>2010-10-24T08:11:28Z</time>
      </trkpt>
      <trkpt lat="44.12936" lon="3.24654">
        <ele>741.20001220703</ele>
        <time>2010-10-24T08:11:33Z</time>
      </trkpt>
      <trkpt lat="44.12916" lon="3.24649">
        <ele>739.20001220703</ele>
        <time>2010-10-24T08:11:39Z</time>
      </trkpt>
      <trkpt lat="44.12895" lon="3.24646">
        <ele>737.20001220703</ele>
        <time>2010-10-24T08:11:45Z</time>
      </trkpt>
      <trkpt lat="44.12875" lon="3.24638">
        <ele>735.20001220703</ele>
        <time>2010-10-24T08:11:52Z</time>
      </trkpt>
      <trkpt lat="44.12873" lon="3.2463">
        <ele>734.40002441406</ele>
        <time>2010-10-24T08:11:54Z</time>
      </trkpt>
      <trkpt lat="44.1288" lon="3.24617">
        <ele>729.20001220703</ele>
        <time>2010-10-24T08:12:08Z</time>
      </trkpt>
      <trkpt lat="44.12893" lon="3.24596">
        <ele>726.79998779297</ele>
        <time>2010-10-24T08:12:14Z</time>
      </trkpt>
      <trkpt lat="44.12908" lon="3.24576">
        <ele>724.40002441406</ele>
        <time>2010-10-24T08:12:20Z</time>
      </trkpt>
      <trkpt lat="44.12914" lon="3.24559">
        <ele>722.59997558594</ele>
        <time>2010-10-24T08:12:24Z</time>
      </trkpt>
      <trkpt lat="44.12912" lon="3.2455">
        <ele>721.79998779297</ele>
        <time>2010-10-24T08:12:26Z</time>
      </trkpt>
      <trkpt lat="44.12917" lon="3.24528">
        <ele>719.40002441406</ele>
        <time>2010-10-24T08:12:32Z</time>
      </trkpt>
      <trkpt lat="44.12918" lon="3.24525">
        <ele>719</ele>
        <time>2010-10-24T08:12:33Z</time>
      </trkpt>
      <trkpt lat="44.12924" lon="3.24509">
        <ele>717.59997558594</ele>
        <time>2010-10-24T08:12:37Z</time>
      </trkpt>
      <trkpt lat="44.12923" lon="3.24504">
        <ele>716.79998779297</ele>
        <time>2010-10-24T08:12:39Z</time>
      </trkpt>
      <trkpt lat="44.12927" lon="3.245">
        <ele>715</ele>
        <time>2010-10-24T08:12:44Z</time>
      </trkpt>
      <trkpt lat="44.12929" lon="3.245">
        <ele>714.59997558594</ele>
        <time>2010-10-24T08:12:45Z</time>
      </trkpt>
      <trkpt lat="44.12927" lon="3.24493">
        <ele>712.40002441406</ele>
        <time>2010-10-24T08:12:51Z</time>
      </trkpt>
      <trkpt lat="44.12909" lon="3.24493">
        <ele>709.20001220703</ele>
        <time>2010-10-24T08:12:59Z</time>
      </trkpt>
      <trkpt lat="44.12889" lon="3.24496">
        <ele>706.79998779297</ele>
        <time>2010-10-24T08:13:06Z</time>
      </trkpt>
      <trkpt lat="44.12873" lon="3.24495">
        <ele>703.20001220703</ele>
        <time>2010-10-24T08:13:15Z</time>
      </trkpt>
      <trkpt lat="44.12877" lon="3.2449">
        <ele>702.40002441406</ele>
        <time>2010-10-24T08:13:17Z</time>
      </trkpt>
      <trkpt lat="44.12889" lon="3.24481">
        <ele>700.79998779297</ele>
        <time>2010-10-24T08:13:21Z</time>
      </trkpt>
      <trkpt lat="44.12908" lon="3.24477">
        <ele>698.20001220703</ele>
        <time>2010-10-24T08:13:27Z</time>
      </trkpt>
      <trkpt lat="44.12928" lon="3.24472">
        <ele>695.59997558594</ele>
        <time>2010-10-24T08:13:33Z</time>
      </trkpt>
      <trkpt lat="44.12947" lon="3.24461">
        <ele>693.20001220703</ele>
        <time>2010-10-24T08:13:39Z</time>
      </trkpt>
      <trkpt lat="44.12965" lon="3.24446">
        <ele>690.40002441406</ele>
        <time>2010-10-24T08:13:45Z</time>
      </trkpt>
      <trkpt lat="44.12982" lon="3.24429">
        <ele>687.79998779297</ele>
        <time>2010-10-24T08:13:51Z</time>
      </trkpt>
      <trkpt lat="44.12998" lon="3.24409">
        <ele>685.20001220703</ele>
        <time>2010-10-24T08:13:57Z</time>
      </trkpt>
      <trkpt lat="44.1301" lon="3.24387">
        <ele>683.20001220703</ele>
        <time>2010-10-24T08:14:03Z</time>
      </trkpt>
      <trkpt lat="44.13011" lon="3.24383">
        <ele>682.79998779297</ele>
        <time>2010-10-24T08:14:04Z</time>
      </trkpt>
      <trkpt lat="44.13002" lon="3.24372">
        <ele>681.20001220703</ele>
        <time>2010-10-24T08:14:09Z</time>
      </trkpt>
      <trkpt lat="44.12998" lon="3.24371">
        <ele>680.79998779297</ele>
        <time>2010-10-24T08:14:10Z</time>
      </trkpt>
      <trkpt lat="44.12977" lon="3.24367">
        <ele>678.79998779297</ele>
        <time>2010-10-24T08:14:16Z</time>
      </trkpt>
      <trkpt lat="44.12958" lon="3.24354">
        <ele>677</ele>
        <time>2010-10-24T08:14:22Z</time>
      </trkpt>
      <trkpt lat="44.12942" lon="3.24336">
        <ele>675.20001220703</ele>
        <time>2010-10-24T08:14:28Z</time>
      </trkpt>
      <trkpt lat="44.12926" lon="3.24316">
        <ele>673.59997558594</ele>
        <time>2010-10-24T08:14:34Z</time>
      </trkpt>
      <trkpt lat="44.12912" lon="3.24296">
        <ele>671.79998779297</ele>
        <time>2010-10-24T08:14:40Z</time>
      </trkpt>
      <trkpt lat="44.12907" lon="3.24268">
        <ele>670.20001220703</ele>
        <time>2010-10-24T08:14:46Z</time>
      </trkpt>
      <trkpt lat="44.12908" lon="3.24239">
        <ele>668.59997558594</ele>
        <time>2010-10-24T08:14:52Z</time>
      </trkpt>
      <trkpt lat="44.12914" lon="3.24213">
        <ele>666.79998779297</ele>
        <time>2010-10-24T08:14:57Z</time>
      </trkpt>
      <trkpt lat="44.12917" lon="3.24184">
        <ele>665.20001220703</ele>
        <time>2010-10-24T08:15:04Z</time>
      </trkpt>
      <trkpt lat="44.12922" lon="3.24157">
        <ele>663.59997558594</ele>
        <time>2010-10-24T08:15:10Z</time>
      </trkpt>
      <trkpt lat="44.12925" lon="3.24131">
        <ele>662</ele>
        <time>2010-10-24T08:15:16Z</time>
      </trkpt>
      <trkpt lat="44.12938" lon="3.24111">
        <ele>660.40002441406</ele>
        <time>2010-10-24T08:15:22Z</time>
      </trkpt>
      <trkpt lat="44.12944" lon="3.24099">
        <ele>658.79998779297</ele>
        <time>2010-10-24T08:15:28Z</time>
      </trkpt>
      <trkpt lat="44.12943" lon="3.24097">
        <ele>658.59997558594</ele>
        <time>2010-10-24T08:15:29Z</time>
      </trkpt>
      <trkpt lat="44.1293" lon="3.24089">
        <ele>657.79998779297</ele>
        <time>2010-10-24T08:15:34Z</time>
      </trkpt>
      <trkpt lat="44.12926" lon="3.24084">
        <ele>657.40002441406</ele>
        <time>2010-10-24T08:15:36Z</time>
      </trkpt>
      <trkpt lat="44.12911" lon="3.24068">
        <ele>656.40002441406</ele>
        <time>2010-10-24T08:15:42Z</time>
      </trkpt>
      <trkpt lat="44.12909" lon="3.24066">
        <ele>656.20001220703</ele>
        <time>2010-10-24T08:15:43Z</time>
      </trkpt>
      <trkpt lat="44.12898" lon="3.24071">
        <ele>655.40002441406</ele>
        <time>2010-10-24T08:15:47Z</time>
      </trkpt>
      <trkpt lat="44.12893" lon="3.24075">
        <ele>655</ele>
        <time>2010-10-24T08:15:49Z</time>
      </trkpt>
      <trkpt lat="44.12876" lon="3.2409">
        <ele>653.79998779297</ele>
        <time>2010-10-24T08:15:55Z</time>
      </trkpt>
      <trkpt lat="44.1286" lon="3.24101">
        <ele>652.59997558594</ele>
        <time>2010-10-24T08:16:01Z</time>
      </trkpt>
      <trkpt lat="44.12842" lon="3.24107">
        <ele>651.59997558594</ele>
        <time>2010-10-24T08:16:07Z</time>
      </trkpt>
      <trkpt lat="44.12823" lon="3.24116">
        <ele>650.59997558594</ele>
        <time>2010-10-24T08:16:13Z</time>
      </trkpt>
      <trkpt lat="44.12806" lon="3.24126">
        <ele>649.79998779297</ele>
        <time>2010-10-24T08:16:19Z</time>
      </trkpt>
      <trkpt lat="44.12786" lon="3.24129">
        <ele>648.79998779297</ele>
        <time>2010-10-24T08:16:28Z</time>
      </trkpt>
      <trkpt lat="44.12769" lon="3.2414">
        <ele>648.20001220703</ele>
        <time>2010-10-24T08:16:37Z</time>
      </trkpt>
      <trkpt lat="44.12757" lon="3.24143">
        <ele>647.79998779297</ele>
        <time>2010-10-24T08:16:44Z</time>
      </trkpt>
      <trkpt lat="44.12749" lon="3.24143">
        <ele>647.59997558594</ele>
        <time>2010-10-24T08:16:51Z</time>
      </trkpt>
      <trkpt lat="44.12748" lon="3.24143">
        <ele>647.59997558594</ele>
        <time>2010-10-24T08:16:52Z</time>
      </trkpt>
      <trkpt lat="44.12742" lon="3.24142">
        <ele>647.40002441406</ele>
        <time>2010-10-24T08:16:57Z</time>
      </trkpt>
      <trkpt lat="44.1274" lon="3.24138">
        <ele>647.20001220703</ele>
        <time>2010-10-24T08:17:02Z</time>
      </trkpt>
      <trkpt lat="44.12734" lon="3.24137">
        <ele>647.20001220703</ele>
        <time>2010-10-24T08:17:10Z</time>
      </trkpt>
      <trkpt lat="44.12731" lon="3.24136">
        <ele>647.20001220703</ele>
        <time>2010-10-24T08:17:13Z</time>
      </trkpt>
      <trkpt lat="44.12728" lon="3.2413">
        <ele>647.20001220703</ele>
        <time>2010-10-24T08:17:17Z</time>
      </trkpt>
      <trkpt lat="44.1272" lon="3.24121">
        <ele>647.40002441406</ele>
        <time>2010-10-24T08:17:25Z</time>
      </trkpt>
      <trkpt lat="44.12711" lon="3.24107">
        <ele>648.59997558594</ele>
        <time>2010-10-24T08:17:38Z</time>
      </trkpt>
      <trkpt lat="44.12712" lon="3.241">
        <ele>649</ele>
        <time>2010-10-24T08:17:43Z</time>
      </trkpt>
      <trkpt lat="44.12714" lon="3.2409">
        <ele>649.20001220703</ele>
        <time>2010-10-24T08:17:49Z</time>
      </trkpt>
      <trkpt lat="44.12714" lon="3.24081">
        <ele>649.40002441406</ele>
        <time>2010-10-24T08:17:54Z</time>
      </trkpt>
      <trkpt lat="44.12715" lon="3.24075">
        <ele>649.59997558594</ele>
        <time>2010-10-24T08:17:57Z</time>
      </trkpt>
      <trkpt lat="44.12718" lon="3.24049">
        <ele>649.59997558594</ele>
        <time>2010-10-24T08:18:07Z</time>
      </trkpt>
      <trkpt lat="44.12719" lon="3.24021">
        <ele>650.40002441406</ele>
        <time>2010-10-24T08:18:15Z</time>
      </trkpt>
      <trkpt lat="44.12718" lon="3.23998">
        <ele>651.59997558594</ele>
        <time>2010-10-24T08:18:23Z</time>
      </trkpt>
      <trkpt lat="44.12716" lon="3.23997">
        <ele>652</ele>
        <time>2010-10-24T08:18:24Z</time>
      </trkpt>
      <trkpt lat="44.12709" lon="3.2399">
        <ele>653.59997558594</ele>
        <time>2010-10-24T08:18:31Z</time>
      </trkpt>
      <trkpt lat="44.12701" lon="3.23981">
        <ele>657.20001220703</ele>
        <time>2010-10-24T08:18:43Z</time>
      </trkpt>
      <trkpt lat="44.12699" lon="3.2398">
        <ele>657.79998779297</ele>
        <time>2010-10-24T08:18:45Z</time>
      </trkpt>
      <trkpt lat="44.12698" lon="3.23979">
        <ele>658.20001220703</ele>
        <time>2010-10-24T08:18:47Z</time>
      </trkpt>
      <trkpt lat="44.12686" lon="3.23973">
        <ele>662.40002441406</ele>
        <time>2010-10-24T08:19:02Z</time>
      </trkpt>
      <trkpt lat="44.12684" lon="3.23972">
        <ele>662.79998779297</ele>
        <time>2010-10-24T08:19:04Z</time>
      </trkpt>
      <trkpt lat="44.12682" lon="3.23971">
        <ele>663.40002441406</ele>
        <time>2010-10-24T08:19:06Z</time>
      </trkpt>
      <trkpt lat="44.12666" lon="3.23965">
        <ele>668.40002441406</ele>
        <time>2010-10-24T08:19:22Z</time>
      </trkpt>
      <trkpt lat="44.12662" lon="3.23963">
        <ele>669.59997558594</ele>
        <time>2010-10-24T08:19:26Z</time>
      </trkpt>
      <trkpt lat="44.12651" lon="3.23958">
        <ele>673.20001220703</ele>
        <time>2010-10-24T08:19:38Z</time>
      </trkpt>
      <trkpt lat="44.12649" lon="3.23957">
        <ele>674</ele>
        <time>2010-10-24T08:19:41Z</time>
      </trkpt>
      <trkpt lat="44.12638" lon="3.23954">
        <ele>677.79998779297</ele>
        <time>2010-10-24T08:19:52Z</time>
      </trkpt>
      <trkpt lat="44.12631" lon="3.23954">
        <ele>679.40002441406</ele>
        <time>2010-10-24T08:19:57Z</time>
      </trkpt>
      <trkpt lat="44.1263" lon="3.23954">
        <ele>679.79998779297</ele>
        <time>2010-10-24T08:19:58Z</time>
      </trkpt>
      <trkpt lat="44.12612" lon="3.23948">
        <ele>682.59997558594</ele>
        <time>2010-10-24T08:20:08Z</time>
      </trkpt>
      <trkpt lat="44.12593" lon="3.23943">
        <ele>685.20001220703</ele>
        <time>2010-10-24T08:20:16Z</time>
      </trkpt>
      <trkpt lat="44.12575" lon="3.23937">
        <ele>688.40002441406</ele>
        <time>2010-10-24T08:20:27Z</time>
      </trkpt>
      <trkpt lat="44.12558" lon="3.23931">
        <ele>690.79998779297</ele>
        <time>2010-10-24T08:20:36Z</time>
      </trkpt>
      <trkpt lat="44.12539" lon="3.23939">
        <ele>692.40002441406</ele>
        <time>2010-10-24T08:20:44Z</time>
      </trkpt>
      <trkpt lat="44.12519" lon="3.23944">
        <ele>693.59997558594</ele>
        <time>2010-10-24T08:20:52Z</time>
      </trkpt>
      <trkpt lat="44.12501" lon="3.23935">
        <ele>696</ele>
        <time>2010-10-24T08:21:07Z</time>
      </trkpt>
      <trkpt lat="44.12497" lon="3.23911">
        <ele>697</ele>
        <time>2010-10-24T08:21:17Z</time>
      </trkpt>
      <trkpt lat="44.12499" lon="3.23902">
        <ele>697.40002441406</ele>
        <time>2010-10-24T08:21:20Z</time>
      </trkpt>
      <trkpt lat="44.12502" lon="3.23886">
        <ele>698.40002441406</ele>
        <time>2010-10-24T08:21:26Z</time>
      </trkpt>
      <trkpt lat="44.12505" lon="3.23877">
        <ele>699</ele>
        <time>2010-10-24T08:21:30Z</time>
      </trkpt>
      <trkpt lat="44.12508" lon="3.23873">
        <ele>700</ele>
        <time>2010-10-24T08:21:35Z</time>
      </trkpt>
      <trkpt lat="44.12511" lon="3.23871">
        <ele>700.79998779297</ele>
        <time>2010-10-24T08:21:39Z</time>
      </trkpt>
      <trkpt lat="44.12513" lon="3.23866">
        <ele>701.79998779297</ele>
        <time>2010-10-24T08:21:46Z</time>
      </trkpt>
      <trkpt lat="44.12521" lon="3.23842">
        <ele>704</ele>
        <time>2010-10-24T08:21:57Z</time>
      </trkpt>
      <trkpt lat="44.12523" lon="3.23837">
        <ele>704.40002441406</ele>
        <time>2010-10-24T08:22:00Z</time>
      </trkpt>
      <trkpt lat="44.12527" lon="3.23831">
        <ele>706.20001220703</ele>
        <time>2010-10-24T08:22:10Z</time>
      </trkpt>
      <trkpt lat="44.12532" lon="3.23822">
        <ele>706.79998779297</ele>
        <time>2010-10-24T08:22:14Z</time>
      </trkpt>
      <trkpt lat="44.12542" lon="3.23804">
        <ele>708.20001220703</ele>
        <time>2010-10-24T08:22:23Z</time>
      </trkpt>
      <trkpt lat="44.12543" lon="3.23803">
        <ele>708.40002441406</ele>
        <time>2010-10-24T08:22:24Z</time>
      </trkpt>
      <trkpt lat="44.12549" lon="3.23799">
        <ele>709.20001220703</ele>
        <time>2010-10-24T08:22:31Z</time>
      </trkpt>
      <trkpt lat="44.1255" lon="3.23796">
        <ele>709.79998779297</ele>
        <time>2010-10-24T08:22:35Z</time>
      </trkpt>
      <trkpt lat="44.12552" lon="3.23788">
        <ele>710.59997558594</ele>
        <time>2010-10-24T08:22:41Z</time>
      </trkpt>
      <trkpt lat="44.12553" lon="3.23783">
        <ele>711</ele>
        <time>2010-10-24T08:22:44Z</time>
      </trkpt>
      <trkpt lat="44.12555" lon="3.2378">
        <ele>711.40002441406</ele>
        <time>2010-10-24T08:22:47Z</time>
      </trkpt>
      <trkpt lat="44.12557" lon="3.23775">
        <ele>712.20001220703</ele>
        <time>2010-10-24T08:22:52Z</time>
      </trkpt>
      <trkpt lat="44.1256" lon="3.23761">
        <ele>713.79998779297</ele>
        <time>2010-10-24T08:23:01Z</time>
      </trkpt>
      <trkpt lat="44.12563" lon="3.23749">
        <ele>714.59997558594</ele>
        <time>2010-10-24T08:23:05Z</time>
      </trkpt>
      <trkpt lat="44.12567" lon="3.23738">
        <ele>716.79998779297</ele>
        <time>2010-10-24T08:23:15Z</time>
      </trkpt>
      <trkpt lat="44.12568" lon="3.23737">
        <ele>717</ele>
        <time>2010-10-24T08:23:16Z</time>
      </trkpt>
      <trkpt lat="44.12568" lon="3.23736">
        <ele>717.20001220703</ele>
        <time>2010-10-24T08:23:18Z</time>
      </trkpt>
      <trkpt lat="44.12569" lon="3.23736">
        <ele>717.79998779297</ele>
        <time>2010-10-24T08:23:20Z</time>
      </trkpt>
      <trkpt lat="44.12571" lon="3.23736">
        <ele>718.20001220703</ele>
        <time>2010-10-24T08:23:22Z</time>
      </trkpt>
      <trkpt lat="44.12572" lon="3.23727">
        <ele>719.79998779297</ele>
        <time>2010-10-24T08:23:29Z</time>
      </trkpt>
      <trkpt lat="44.12575" lon="3.23722">
        <ele>721.40002441406</ele>
        <time>2010-10-24T08:23:35Z</time>
      </trkpt>
      <trkpt lat="44.12577" lon="3.23718">
        <ele>723</ele>
        <time>2010-10-24T08:23:42Z</time>
      </trkpt>
      <trkpt lat="44.12578" lon="3.23717">
        <ele>723.20001220703</ele>
        <time>2010-10-24T08:23:43Z</time>
      </trkpt>
      <trkpt lat="44.12584" lon="3.23705">
        <ele>725.40002441406</ele>
        <time>2010-10-24T08:23:53Z</time>
      </trkpt>
      <trkpt lat="44.12587" lon="3.23697">
        <ele>726.79998779297</ele>
        <time>2010-10-24T08:23:59Z</time>
      </trkpt>
      <trkpt lat="44.12589" lon="3.23694">
        <ele>727.59997558594</ele>
        <time>2010-10-24T08:24:02Z</time>
      </trkpt>
      <trkpt lat="44.12593" lon="3.23686">
        <ele>729</ele>
        <time>2010-10-24T08:24:09Z</time>
      </trkpt>
      <trkpt lat="44.126" lon="3.23681">
        <ele>730.20001220703</ele>
        <time>2010-10-24T08:24:17Z</time>
      </trkpt>
      <trkpt lat="44.12607" lon="3.23681">
        <ele>731.40002441406</ele>
        <time>2010-10-24T08:24:27Z</time>
      </trkpt>
      <trkpt lat="44.12617" lon="3.23679">
        <ele>733.40002441406</ele>
        <time>2010-10-24T08:24:42Z</time>
      </trkpt>
      <trkpt lat="44.12621" lon="3.2368">
        <ele>734.20001220703</ele>
        <time>2010-10-24T08:24:46Z</time>
      </trkpt>
      <trkpt lat="44.12619" lon="3.23688">
        <ele>736.40002441406</ele>
        <time>2010-10-24T08:24:54Z</time>
      </trkpt>
      <trkpt lat="44.12622" lon="3.23695">
        <ele>739.79998779297</ele>
        <time>2010-10-24T08:25:07Z</time>
      </trkpt>
      <trkpt lat="44.12631" lon="3.2369">
        <ele>742</ele>
        <time>2010-10-24T08:25:17Z</time>
      </trkpt>
      <trkpt lat="44.12632" lon="3.23689">
        <ele>742.40002441406</ele>
        <time>2010-10-24T08:25:19Z</time>
      </trkpt>
      <trkpt lat="44.12637" lon="3.23686">
        <ele>743.20001220703</ele>
        <time>2010-10-24T08:25:23Z</time>
      </trkpt>
      <trkpt lat="44.12639" lon="3.23685">
        <ele>743.59997558594</ele>
        <time>2010-10-24T08:25:25Z</time>
      </trkpt>
      <trkpt lat="44.12643" lon="3.23684">
        <ele>744.59997558594</ele>
        <time>2010-10-24T08:25:30Z</time>
      </trkpt>
      <trkpt lat="44.12656" lon="3.23675">
        <ele>746.59997558594</ele>
        <time>2010-10-24T08:25:43Z</time>
      </trkpt>
      <trkpt lat="44.12657" lon="3.23674">
        <ele>746.79998779297</ele>
        <time>2010-10-24T08:25:44Z</time>
      </trkpt>
      <trkpt lat="44.12672" lon="3.23662">
        <ele>748.40002441406</ele>
        <time>2010-10-24T08:25:54Z</time>
      </trkpt>
      <trkpt lat="44.12677" lon="3.23661">
        <ele>748.79998779297</ele>
        <time>2010-10-24T08:25:56Z</time>
      </trkpt>
      <trkpt lat="44.12683" lon="3.23659">
        <ele>749.20001220703</ele>
        <time>2010-10-24T08:25:59Z</time>
      </trkpt>
      <trkpt lat="44.12691" lon="3.23655">
        <ele>750.40002441406</ele>
        <time>2010-10-24T08:26:04Z</time>
      </trkpt>
      <trkpt lat="44.12708" lon="3.23646">
        <ele>752.79998779297</ele>
        <time>2010-10-24T08:26:14Z</time>
      </trkpt>
      <trkpt lat="44.12712" lon="3.23643">
        <ele>753.20001220703</ele>
        <time>2010-10-24T08:26:16Z</time>
      </trkpt>
      <trkpt lat="44.12717" lon="3.23638">
        <ele>754</ele>
        <time>2010-10-24T08:26:20Z</time>
      </trkpt>
      <trkpt lat="44.12719" lon="3.23639">
        <ele>754.79998779297</ele>
        <time>2010-10-24T08:26:24Z</time>
      </trkpt>
      <trkpt lat="44.12724" lon="3.23634">
        <ele>756</ele>
        <time>2010-10-24T08:26:29Z</time>
      </trkpt>
      <trkpt lat="44.12725" lon="3.23633">
        <ele>756.20001220703</ele>
        <time>2010-10-24T08:26:30Z</time>
      </trkpt>
      <trkpt lat="44.1273" lon="3.23629">
        <ele>757.79998779297</ele>
        <time>2010-10-24T08:26:38Z</time>
      </trkpt>
      <trkpt lat="44.12733" lon="3.23629">
        <ele>759.20001220703</ele>
        <time>2010-10-24T08:26:43Z</time>
      </trkpt>
      <trkpt lat="44.12736" lon="3.23627">
        <ele>760.79998779297</ele>
        <time>2010-10-24T08:26:46Z</time>
      </trkpt>
      <trkpt lat="44.1274" lon="3.23621">
        <ele>766.79998779297</ele>
        <time>2010-10-24T08:26:58Z</time>
      </trkpt>
      <trkpt lat="44.1274" lon="3.2362">
        <ele>767.40002441406</ele>
        <time>2010-10-24T08:26:59Z</time>
      </trkpt>
      <trkpt lat="44.12744" lon="3.23621">
        <ele>769.20001220703</ele>
        <time>2010-10-24T08:27:03Z</time>
      </trkpt>
      <trkpt lat="44.12747" lon="3.2362">
        <ele>770.79998779297</ele>
        <time>2010-10-24T08:27:07Z</time>
      </trkpt>
      <trkpt lat="44.12749" lon="3.23619">
        <ele>772.20001220703</ele>
        <time>2010-10-24T08:27:11Z</time>
      </trkpt>
      <trkpt lat="44.12753" lon="3.23615">
        <ele>773.79998779297</ele>
        <time>2010-10-24T08:27:16Z</time>
      </trkpt>
      <trkpt lat="44.12753" lon="3.23612">
        <ele>774.59997558594</ele>
        <time>2010-10-24T08:27:19Z</time>
      </trkpt>
      <trkpt lat="44.12754" lon="3.23612">
        <ele>774.59997558594</ele>
        <time>2010-10-24T08:27:20Z</time>
      </trkpt>
      <trkpt lat="44.12762" lon="3.23607">
        <ele>777.20001220703</ele>
        <time>2010-10-24T08:27:33Z</time>
      </trkpt>
      <trkpt lat="44.1277" lon="3.23602">
        <ele>778.59997558594</ele>
        <time>2010-10-24T08:27:43Z</time>
      </trkpt>
      <trkpt lat="44.12772" lon="3.23603">
        <ele>779</ele>
        <time>2010-10-24T08:27:46Z</time>
      </trkpt>
      <trkpt lat="44.12782" lon="3.23599">
        <ele>780.79998779297</ele>
        <time>2010-10-24T08:28:00Z</time>
      </trkpt>
      <trkpt lat="44.12784" lon="3.23598">
        <ele>781.20001220703</ele>
        <time>2010-10-24T08:28:02Z</time>
      </trkpt>
      <trkpt lat="44.12787" lon="3.23597">
        <ele>782</ele>
        <time>2010-10-24T08:28:06Z</time>
      </trkpt>
      <trkpt lat="44.12792" lon="3.23592">
        <ele>783.40002441406</ele>
        <time>2010-10-24T08:28:12Z</time>
      </trkpt>
      <trkpt lat="44.12799" lon="3.23585">
        <ele>784.79998779297</ele>
        <time>2010-10-24T08:28:19Z</time>
      </trkpt>
      <trkpt lat="44.12802" lon="3.23583">
        <ele>785.59997558594</ele>
        <time>2010-10-24T08:28:22Z</time>
      </trkpt>
      <trkpt lat="44.12809" lon="3.23578">
        <ele>786.59997558594</ele>
        <time>2010-10-24T08:28:28Z</time>
      </trkpt>
      <trkpt lat="44.12813" lon="3.23572">
        <ele>787.20001220703</ele>
        <time>2010-10-24T08:28:32Z</time>
      </trkpt>
      <trkpt lat="44.12817" lon="3.23568">
        <ele>787.59997558594</ele>
        <time>2010-10-24T08:28:35Z</time>
      </trkpt>
      <trkpt lat="44.1283" lon="3.23558">
        <ele>788.59997558594</ele>
        <time>2010-10-24T08:28:42Z</time>
      </trkpt>
      <trkpt lat="44.12833" lon="3.23555">
        <ele>789</ele>
        <time>2010-10-24T08:28:44Z</time>
      </trkpt>
      <trkpt lat="44.12848" lon="3.2354">
        <ele>790.59997558594</ele>
        <time>2010-10-24T08:28:53Z</time>
      </trkpt>
      <trkpt lat="44.1286" lon="3.23528">
        <ele>791.79998779297</ele>
        <time>2010-10-24T08:28:59Z</time>
      </trkpt>
      <trkpt lat="44.12864" lon="3.23526">
        <ele>792.20001220703</ele>
        <time>2010-10-24T08:29:01Z</time>
      </trkpt>
      <trkpt lat="44.12868" lon="3.23525">
        <ele>792.59997558594</ele>
        <time>2010-10-24T08:29:03Z</time>
      </trkpt>
      <trkpt lat="44.12883" lon="3.23523">
        <ele>794.59997558594</ele>
        <time>2010-10-24T08:29:10Z</time>
      </trkpt>
      <trkpt lat="44.12892" lon="3.2352">
        <ele>795.79998779297</ele>
        <time>2010-10-24T08:29:14Z</time>
      </trkpt>
      <trkpt lat="44.129" lon="3.23516">
        <ele>797</ele>
        <time>2010-10-24T08:29:18Z</time>
      </trkpt>
      <trkpt lat="44.12914" lon="3.23513">
        <ele>798.59997558594</ele>
        <time>2010-10-24T08:29:24Z</time>
      </trkpt>
      <trkpt lat="44.12918" lon="3.23509">
        <ele>799.20001220703</ele>
        <time>2010-10-24T08:29:26Z</time>
      </trkpt>
      <trkpt lat="44.12923" lon="3.23502">
        <ele>800</ele>
        <time>2010-10-24T08:29:29Z</time>
      </trkpt>
      <trkpt lat="44.12931" lon="3.23492">
        <ele>801</ele>
        <time>2010-10-24T08:29:34Z</time>
      </trkpt>
      <trkpt lat="44.12934" lon="3.2349">
        <ele>801.20001220703</ele>
        <time>2010-10-24T08:29:35Z</time>
      </trkpt>
      <trkpt lat="44.12943" lon="3.23483">
        <ele>802.20001220703</ele>
        <time>2010-10-24T08:29:39Z</time>
      </trkpt>
      <trkpt lat="44.12946" lon="3.23478">
        <ele>802.59997558594</ele>
        <time>2010-10-24T08:29:41Z</time>
      </trkpt>
      <trkpt lat="44.12961" lon="3.23461">
        <ele>804.40002441406</ele>
        <time>2010-10-24T08:29:49Z</time>
      </trkpt>
      <trkpt lat="44.12975" lon="3.23444">
        <ele>806</ele>
        <time>2010-10-24T08:29:57Z</time>
      </trkpt>
      <trkpt lat="44.12987" lon="3.23424">
        <ele>807.79998779297</ele>
        <time>2010-10-24T08:30:05Z</time>
      </trkpt>
      <trkpt lat="44.12989" lon="3.23418">
        <ele>808.20001220703</ele>
        <time>2010-10-24T08:30:07Z</time>
      </trkpt>
      <trkpt lat="44.13002" lon="3.23407">
        <ele>809.40002441406</ele>
        <time>2010-10-24T08:30:14Z</time>
      </trkpt>
      <trkpt lat="44.13021" lon="3.23397">
        <ele>810.59997558594</ele>
        <time>2010-10-24T08:30:22Z</time>
      </trkpt>
      <trkpt lat="44.13039" lon="3.23395">
        <ele>812.20001220703</ele>
        <time>2010-10-24T08:30:30Z</time>
      </trkpt>
      <trkpt lat="44.13059" lon="3.23393">
        <ele>813.40002441406</ele>
        <time>2010-10-24T08:30:38Z</time>
      </trkpt>
      <trkpt lat="44.13077" lon="3.23386">
        <ele>814.79998779297</ele>
        <time>2010-10-24T08:30:45Z</time>
      </trkpt>
      <trkpt lat="44.13087" lon="3.23376">
        <ele>815.59997558594</ele>
        <time>2010-10-24T08:30:50Z</time>
      </trkpt>
      <trkpt lat="44.13089" lon="3.23369">
        <ele>815.79998779297</ele>
        <time>2010-10-24T08:30:52Z</time>
      </trkpt>
      <trkpt lat="44.13102" lon="3.23348">
        <ele>817</ele>
        <time>2010-10-24T08:30:59Z</time>
      </trkpt>
      <trkpt lat="44.13118" lon="3.2333">
        <ele>818.40002441406</ele>
        <time>2010-10-24T08:31:07Z</time>
      </trkpt>
      <trkpt lat="44.13134" lon="3.23312">
        <ele>820</ele>
        <time>2010-10-24T08:31:15Z</time>
      </trkpt>
      <trkpt lat="44.13147" lon="3.23294">
        <ele>821.20001220703</ele>
        <time>2010-10-24T08:31:22Z</time>
      </trkpt>
      <trkpt lat="44.13155" lon="3.23285">
        <ele>821.79998779297</ele>
        <time>2010-10-24T08:31:26Z</time>
      </trkpt>
      <trkpt lat="44.1316" lon="3.23278">
        <ele>822.20001220703</ele>
        <time>2010-10-24T08:31:29Z</time>
      </trkpt>
      <trkpt lat="44.13162" lon="3.2327">
        <ele>822.40002441406</ele>
        <time>2010-10-24T08:31:31Z</time>
      </trkpt>
      <trkpt lat="44.13164" lon="3.23252">
        <ele>823.20001220703</ele>
        <time>2010-10-24T08:31:36Z</time>
      </trkpt>
      <trkpt lat="44.13169" lon="3.23226">
        <ele>824.59997558594</ele>
        <time>2010-10-24T08:31:44Z</time>
      </trkpt>
      <trkpt lat="44.13177" lon="3.23201">
        <ele>826.40002441406</ele>
        <time>2010-10-24T08:31:53Z</time>
      </trkpt>
      <trkpt lat="44.13192" lon="3.23187">
        <ele>828.40002441406</ele>
        <time>2010-10-24T08:32:01Z</time>
      </trkpt>
      <trkpt lat="44.13192" lon="3.23185">
        <ele>828.59997558594</ele>
        <time>2010-10-24T08:32:02Z</time>
      </trkpt>
      <trkpt lat="44.13201" lon="3.23162">
        <ele>831.20001220703</ele>
        <time>2010-10-24T08:32:10Z</time>
      </trkpt>
      <trkpt lat="44.13211" lon="3.23139">
        <ele>833.59997558594</ele>
        <time>2010-10-24T08:32:18Z</time>
      </trkpt>
      <trkpt lat="44.13222" lon="3.23116">
        <ele>835.79998779297</ele>
        <time>2010-10-24T08:32:26Z</time>
      </trkpt>
      <trkpt lat="44.13232" lon="3.23096">
        <ele>837.20001220703</ele>
        <time>2010-10-24T08:32:33Z</time>
      </trkpt>
      <trkpt lat="44.1324" lon="3.23072">
        <ele>838.79998779297</ele>
        <time>2010-10-24T08:32:41Z</time>
      </trkpt>
      <trkpt lat="44.13243" lon="3.23046">
        <ele>840</ele>
        <time>2010-10-24T08:32:49Z</time>
      </trkpt>
      <trkpt lat="44.13246" lon="3.23021">
        <ele>840.79998779297</ele>
        <time>2010-10-24T08:32:56Z</time>
      </trkpt>
      <trkpt lat="44.13254" lon="3.22999">
        <ele>841.79998779297</ele>
        <time>2010-10-24T08:33:04Z</time>
      </trkpt>
      <trkpt lat="44.13263" lon="3.22978">
        <ele>842.59997558594</ele>
        <time>2010-10-24T08:33:11Z</time>
      </trkpt>
      <trkpt lat="44.13276" lon="3.22957">
        <ele>843.79998779297</ele>
        <time>2010-10-24T08:33:19Z</time>
      </trkpt>
      <trkpt lat="44.13282" lon="3.22945">
        <ele>844.59997558594</ele>
        <time>2010-10-24T08:33:23Z</time>
      </trkpt>
      <trkpt lat="44.13284" lon="3.22934">
        <ele>845</ele>
        <time>2010-10-24T08:33:26Z</time>
      </trkpt>
      <trkpt lat="44.13288" lon="3.22923">
        <ele>845.20001220703</ele>
        <time>2010-10-24T08:33:29Z</time>
      </trkpt>
      <trkpt lat="44.13292" lon="3.22911">
        <ele>845.40002441406</ele>
        <time>2010-10-24T08:33:32Z</time>
      </trkpt>
      <trkpt lat="44.13292" lon="3.22903">
        <ele>845.40002441406</ele>
        <time>2010-10-24T08:33:34Z</time>
      </trkpt>
      <trkpt lat="44.13285" lon="3.22897">
        <ele>845.59997558594</ele>
        <time>2010-10-24T08:33:38Z</time>
      </trkpt>
      <trkpt lat="44.13282" lon="3.22893">
        <ele>845.59997558594</ele>
        <time>2010-10-24T08:33:40Z</time>
      </trkpt>
      <trkpt lat="44.1328" lon="3.22877">
        <ele>845.59997558594</ele>
        <time>2010-10-24T08:33:44Z</time>
      </trkpt>
      <trkpt lat="44.1328" lon="3.22865">
        <ele>845.59997558594</ele>
        <time>2010-10-24T08:33:47Z</time>
      </trkpt>
      <trkpt lat="44.1328" lon="3.22838">
        <ele>845.40002441406</ele>
        <time>2010-10-24T08:33:54Z</time>
      </trkpt>
      <trkpt lat="44.13277" lon="3.22813">
        <ele>845.40002441406</ele>
        <time>2010-10-24T08:34:01Z</time>
      </trkpt>
      <trkpt lat="44.13282" lon="3.22787">
        <ele>845.40002441406</ele>
        <time>2010-10-24T08:34:08Z</time>
      </trkpt>
      <trkpt lat="44.13279" lon="3.22762">
        <ele>845.79998779297</ele>
        <time>2010-10-24T08:34:16Z</time>
      </trkpt>
      <trkpt lat="44.13295" lon="3.22746">
        <ele>845.79998779297</ele>
        <time>2010-10-24T08:34:24Z</time>
      </trkpt>
      <trkpt lat="44.13313" lon="3.22739">
        <ele>846.40002441406</ele>
        <time>2010-10-24T08:34:34Z</time>
      </trkpt>
      <trkpt lat="44.1332" lon="3.22729">
        <ele>847</ele>
        <time>2010-10-24T08:34:39Z</time>
      </trkpt>
      <trkpt lat="44.13326" lon="3.22726">
        <ele>847.20001220703</ele>
        <time>2010-10-24T08:34:42Z</time>
      </trkpt>
      <trkpt lat="44.13345" lon="3.2272">
        <ele>847.79998779297</ele>
        <time>2010-10-24T08:34:50Z</time>
      </trkpt>
      <trkpt lat="44.13363" lon="3.22713">
        <ele>848.59997558594</ele>
        <time>2010-10-24T08:34:58Z</time>
      </trkpt>
      <trkpt lat="44.13372" lon="3.22706">
        <ele>848.79998779297</ele>
        <time>2010-10-24T08:35:02Z</time>
      </trkpt>
      <trkpt lat="44.1338" lon="3.22702">
        <ele>849</ele>
        <time>2010-10-24T08:35:05Z</time>
      </trkpt>
      <trkpt lat="44.13398" lon="3.22691">
        <ele>849.79998779297</ele>
        <time>2010-10-24T08:35:13Z</time>
      </trkpt>
      <trkpt lat="44.13414" lon="3.22679">
        <ele>850.20001220703</ele>
        <time>2010-10-24T08:35:20Z</time>
      </trkpt>
      <trkpt lat="44.13432" lon="3.2268">
        <ele>850.79998779297</ele>
        <time>2010-10-24T08:35:27Z</time>
      </trkpt>
      <trkpt lat="44.1345" lon="3.22687">
        <ele>851.59997558594</ele>
        <time>2010-10-24T08:35:35Z</time>
      </trkpt>
      <trkpt lat="44.13464" lon="3.22688">
        <ele>852.20001220703</ele>
        <time>2010-10-24T08:35:41Z</time>
      </trkpt>
      <trkpt lat="44.13469" lon="3.22685">
        <ele>852.40002441406</ele>
        <time>2010-10-24T08:35:43Z</time>
      </trkpt>
      <trkpt lat="44.13488" lon="3.22682">
        <ele>852.59997558594</ele>
        <time>2010-10-24T08:35:50Z</time>
      </trkpt>
      <trkpt lat="44.13492" lon="3.22682">
        <ele>852.59997558594</ele>
        <time>2010-10-24T08:35:52Z</time>
      </trkpt>
      <trkpt lat="44.13506" lon="3.22682">
        <ele>852.59997558594</ele>
        <time>2010-10-24T08:35:59Z</time>
      </trkpt>
      <trkpt lat="44.1351" lon="3.22683">
        <ele>852.59997558594</ele>
        <time>2010-10-24T08:36:01Z</time>
      </trkpt>
      <trkpt lat="44.13525" lon="3.22689">
        <ele>852.59997558594</ele>
        <time>2010-10-24T08:36:07Z</time>
      </trkpt>
      <trkpt lat="44.13527" lon="3.22688">
        <ele>852.40002441406</ele>
        <time>2010-10-24T08:36:08Z</time>
      </trkpt>
      <trkpt lat="44.13539" lon="3.22675">
        <ele>852.20001220703</ele>
        <time>2010-10-24T08:36:14Z</time>
      </trkpt>
      <trkpt lat="44.1355" lon="3.22674">
        <ele>851.79998779297</ele>
        <time>2010-10-24T08:36:18Z</time>
      </trkpt>
      <trkpt lat="44.13558" lon="3.22673">
        <ele>851.59997558594</ele>
        <time>2010-10-24T08:36:21Z</time>
      </trkpt>
      <trkpt lat="44.13564" lon="3.22669">
        <ele>851.40002441406</ele>
        <time>2010-10-24T08:36:24Z</time>
      </trkpt>
      <trkpt lat="44.13569" lon="3.22654">
        <ele>850.79998779297</ele>
        <time>2010-10-24T08:36:30Z</time>
      </trkpt>
      <trkpt lat="44.13583" lon="3.22637">
        <ele>850</ele>
        <time>2010-10-24T08:36:37Z</time>
      </trkpt>
      <trkpt lat="44.13596" lon="3.22617">
        <ele>849.20001220703</ele>
        <time>2010-10-24T08:36:44Z</time>
      </trkpt>
      <trkpt lat="44.136" lon="3.22609">
        <ele>848.59997558594</ele>
        <time>2010-10-24T08:36:47Z</time>
      </trkpt>
      <trkpt lat="44.13607" lon="3.22598">
        <ele>847.79998779297</ele>
        <time>2010-10-24T08:36:53Z</time>
      </trkpt>
      <trkpt lat="44.13612" lon="3.22572">
        <ele>846.20001220703</ele>
        <time>2010-10-24T08:37:01Z</time>
      </trkpt>
      <trkpt lat="44.13623" lon="3.22553">
        <ele>844.40002441406</ele>
        <time>2010-10-24T08:37:08Z</time>
      </trkpt>
      <trkpt lat="44.13625" lon="3.22551">
        <ele>844.20001220703</ele>
        <time>2010-10-24T08:37:09Z</time>
      </trkpt>
      <trkpt lat="44.13636" lon="3.22535">
        <ele>842</ele>
        <time>2010-10-24T08:37:16Z</time>
      </trkpt>
      <trkpt lat="44.13639" lon="3.22531">
        <ele>841.40002441406</ele>
        <time>2010-10-24T08:37:18Z</time>
      </trkpt>
      <trkpt lat="44.13649" lon="3.22521">
        <ele>839.40002441406</ele>
        <time>2010-10-24T08:37:24Z</time>
      </trkpt>
      <trkpt lat="44.13651" lon="3.2252">
        <ele>839</ele>
        <time>2010-10-24T08:37:25Z</time>
      </trkpt>
      <trkpt lat="44.13655" lon="3.22515">
        <ele>838</ele>
        <time>2010-10-24T08:37:28Z</time>
      </trkpt>
      <trkpt lat="44.13664" lon="3.22502">
        <ele>835.59997558594</ele>
        <time>2010-10-24T08:37:34Z</time>
      </trkpt>
      <trkpt lat="44.13676" lon="3.2249">
        <ele>833</ele>
        <time>2010-10-24T08:37:41Z</time>
      </trkpt>
      <trkpt lat="44.1368" lon="3.22489">
        <ele>832.20001220703</ele>
        <time>2010-10-24T08:37:43Z</time>
      </trkpt>
      <trkpt lat="44.13694" lon="3.2248">
        <ele>829</ele>
        <time>2010-10-24T08:37:51Z</time>
      </trkpt>
      <trkpt lat="44.13693" lon="3.22476">
        <ele>828.59997558594</ele>
        <time>2010-10-24T08:37:52Z</time>
      </trkpt>
      <trkpt lat="44.13692" lon="3.22469">
        <ele>827.79998779297</ele>
        <time>2010-10-24T08:37:54Z</time>
      </trkpt>
      <trkpt lat="44.13696" lon="3.22454">
        <ele>826</ele>
        <time>2010-10-24T08:37:59Z</time>
      </trkpt>
      <trkpt lat="44.13704" lon="3.22434">
        <ele>822.59997558594</ele>
        <time>2010-10-24T08:38:07Z</time>
      </trkpt>
      <trkpt lat="44.13705" lon="3.22432">
        <ele>822.20001220703</ele>
        <time>2010-10-24T08:38:08Z</time>
      </trkpt>
      <trkpt lat="44.13709" lon="3.22424">
        <ele>821</ele>
        <time>2010-10-24T08:38:11Z</time>
      </trkpt>
      <trkpt lat="44.13716" lon="3.2241">
        <ele>818.40002441406</ele>
        <time>2010-10-24T08:38:17Z</time>
      </trkpt>
      <trkpt lat="44.13728" lon="3.22389">
        <ele>815.59997558594</ele>
        <time>2010-10-24T08:38:24Z</time>
      </trkpt>
      <trkpt lat="44.13729" lon="3.22386">
        <ele>815.20001220703</ele>
        <time>2010-10-24T08:38:25Z</time>
      </trkpt>
      <trkpt lat="44.1374" lon="3.22377">
        <ele>812.59997558594</ele>
        <time>2010-10-24T08:38:31Z</time>
      </trkpt>
      <trkpt lat="44.13744" lon="3.22374">
        <ele>811.59997558594</ele>
        <time>2010-10-24T08:38:33Z</time>
      </trkpt>
      <trkpt lat="44.13754" lon="3.22362">
        <ele>809.40002441406</ele>
        <time>2010-10-24T08:38:38Z</time>
      </trkpt>
      <trkpt lat="44.13754" lon="3.22354">
        <ele>808.40002441406</ele>
        <time>2010-10-24T08:38:40Z</time>
      </trkpt>
      <trkpt lat="44.13755" lon="3.22352">
        <ele>808</ele>
        <time>2010-10-24T08:38:41Z</time>
      </trkpt>
      <trkpt lat="44.13768" lon="3.22348">
        <ele>804</ele>
        <time>2010-10-24T08:38:50Z</time>
      </trkpt>
      <trkpt lat="44.13769" lon="3.22348">
        <ele>803.59997558594</ele>
        <time>2010-10-24T08:38:51Z</time>
      </trkpt>
      <trkpt lat="44.1377" lon="3.22348">
        <ele>803</ele>
        <time>2010-10-24T08:38:52Z</time>
      </trkpt>
      <trkpt lat="44.13784" lon="3.22344">
        <ele>795.79998779297</ele>
        <time>2010-10-24T08:39:08Z</time>
      </trkpt>
      <trkpt lat="44.13788" lon="3.22355">
        <ele>793</ele>
        <time>2010-10-24T08:39:14Z</time>
      </trkpt>
      <trkpt lat="44.13787" lon="3.22366">
        <ele>791.20001220703</ele>
        <time>2010-10-24T08:39:18Z</time>
      </trkpt>
      <trkpt lat="44.13788" lon="3.22367">
        <ele>790.59997558594</ele>
        <time>2010-10-24T08:39:19Z</time>
      </trkpt>
      <trkpt lat="44.13792" lon="3.22384">
        <ele>786.59997558594</ele>
        <time>2010-10-24T08:39:28Z</time>
      </trkpt>
      <trkpt lat="44.13791" lon="3.22388">
        <ele>785.59997558594</ele>
        <time>2010-10-24T08:39:30Z</time>
      </trkpt>
      <trkpt lat="44.13788" lon="3.22399">
        <ele>783.40002441406</ele>
        <time>2010-10-24T08:39:35Z</time>
      </trkpt>
      <trkpt lat="44.13791" lon="3.22401">
        <ele>782.40002441406</ele>
        <time>2010-10-24T08:39:37Z</time>
      </trkpt>
      <trkpt lat="44.13795" lon="3.22403">
        <ele>780.59997558594</ele>
        <time>2010-10-24T08:39:41Z</time>
      </trkpt>
      <trkpt lat="44.13796" lon="3.22404">
        <ele>780.20001220703</ele>
        <time>2010-10-24T08:39:42Z</time>
      </trkpt>
      <trkpt lat="44.13799" lon="3.22406">
        <ele>778.79998779297</ele>
        <time>2010-10-24T08:39:45Z</time>
      </trkpt>
      <trkpt lat="44.13804" lon="3.22405">
        <ele>776.40002441406</ele>
        <time>2010-10-24T08:39:50Z</time>
      </trkpt>
      <trkpt lat="44.13817" lon="3.22402">
        <ele>772.59997558594</ele>
        <time>2010-10-24T08:39:58Z</time>
      </trkpt>
      <trkpt lat="44.13819" lon="3.22403">
        <ele>772</ele>
        <time>2010-10-24T08:39:59Z</time>
      </trkpt>
      <trkpt lat="44.13828" lon="3.2241">
        <ele>768.59997558594</ele>
        <time>2010-10-24T08:40:06Z</time>
      </trkpt>
      <trkpt lat="44.13834" lon="3.2241">
        <ele>767.20001220703</ele>
        <time>2010-10-24T08:40:09Z</time>
      </trkpt>
      <trkpt lat="44.13844" lon="3.22401">
        <ele>763.59997558594</ele>
        <time>2010-10-24T08:40:16Z</time>
      </trkpt>
      <trkpt lat="44.13847" lon="3.22396">
        <ele>762.59997558594</ele>
        <time>2010-10-24T08:40:18Z</time>
      </trkpt>
      <trkpt lat="44.1385" lon="3.2239">
        <ele>761.59997558594</ele>
        <time>2010-10-24T08:40:20Z</time>
      </trkpt>
      <trkpt lat="44.13856" lon="3.22373">
        <ele>759.20001220703</ele>
        <time>2010-10-24T08:40:25Z</time>
      </trkpt>
      <trkpt lat="44.13857" lon="3.22371">
        <ele>758.79998779297</ele>
        <time>2010-10-24T08:40:26Z</time>
      </trkpt>
      <trkpt lat="44.13866" lon="3.22352">
        <ele>755.79998779297</ele>
        <time>2010-10-24T08:40:32Z</time>
      </trkpt>
      <trkpt lat="44.13867" lon="3.22349">
        <ele>755.20001220703</ele>
        <time>2010-10-24T08:40:33Z</time>
      </trkpt>
      <trkpt lat="44.13874" lon="3.22341">
        <ele>753.20001220703</ele>
        <time>2010-10-24T08:40:37Z</time>
      </trkpt>
      <trkpt lat="44.13881" lon="3.22337">
        <ele>751.40002441406</ele>
        <time>2010-10-24T08:40:40Z</time>
      </trkpt>
      <trkpt lat="44.1389" lon="3.22332">
        <ele>749.40002441406</ele>
        <time>2010-10-24T08:40:44Z</time>
      </trkpt>
      <trkpt lat="44.13898" lon="3.22324">
        <ele>747.79998779297</ele>
        <time>2010-10-24T08:40:47Z</time>
      </trkpt>
      <trkpt lat="44.13909" lon="3.22306">
        <ele>744.79998779297</ele>
        <time>2010-10-24T08:40:53Z</time>
      </trkpt>
      <trkpt lat="44.13912" lon="3.22303">
        <ele>744.40002441406</ele>
        <time>2010-10-24T08:40:54Z</time>
      </trkpt>
      <trkpt lat="44.13918" lon="3.22295">
        <ele>742.79998779297</ele>
        <time>2010-10-24T08:40:57Z</time>
      </trkpt>
      <trkpt lat="44.13926" lon="3.22284">
        <ele>740.79998779297</ele>
        <time>2010-10-24T08:41:01Z</time>
      </trkpt>
      <trkpt lat="44.13938" lon="3.22262">
        <ele>737.20001220703</ele>
        <time>2010-10-24T08:41:08Z</time>
      </trkpt>
      <trkpt lat="44.13946" lon="3.2225">
        <ele>734.59997558594</ele>
        <time>2010-10-24T08:41:13Z</time>
      </trkpt>
      <trkpt lat="44.13942" lon="3.22241">
        <ele>733</ele>
        <time>2010-10-24T08:41:16Z</time>
      </trkpt>
      <trkpt lat="44.13936" lon="3.22218">
        <ele>730</ele>
        <time>2010-10-24T08:41:22Z</time>
      </trkpt>
      <trkpt lat="44.13935" lon="3.22214">
        <ele>729.40002441406</ele>
        <time>2010-10-24T08:41:23Z</time>
      </trkpt>
      <trkpt lat="44.13929" lon="3.22195">
        <ele>727</ele>
        <time>2010-10-24T08:41:28Z</time>
      </trkpt>
      <trkpt lat="44.13922" lon="3.22168">
        <ele>723</ele>
        <time>2010-10-24T08:41:36Z</time>
      </trkpt>
      <trkpt lat="44.1392" lon="3.22151">
        <ele>720.59997558594</ele>
        <time>2010-10-24T08:41:41Z</time>
      </trkpt>
      <trkpt lat="44.13918" lon="3.22144">
        <ele>719.59997558594</ele>
        <time>2010-10-24T08:41:43Z</time>
      </trkpt>
      <trkpt lat="44.13908" lon="3.22118">
        <ele>716.40002441406</ele>
        <time>2010-10-24T08:41:50Z</time>
      </trkpt>
      <trkpt lat="44.13905" lon="3.22109">
        <ele>715</ele>
        <time>2010-10-24T08:41:53Z</time>
      </trkpt>
      <trkpt lat="44.13902" lon="3.22094">
        <ele>712.59997558594</ele>
        <time>2010-10-24T08:41:58Z</time>
      </trkpt>
      <trkpt lat="44.13898" lon="3.22082">
        <ele>711.20001220703</ele>
        <time>2010-10-24T08:42:01Z</time>
      </trkpt>
      <trkpt lat="44.13895" lon="3.22069">
        <ele>709.40002441406</ele>
        <time>2010-10-24T08:42:05Z</time>
      </trkpt>
      <trkpt lat="44.13887" lon="3.22044">
        <ele>705.59997558594</ele>
        <time>2010-10-24T08:42:13Z</time>
      </trkpt>
      <trkpt lat="44.1388" lon="3.2202">
        <ele>701.79998779297</ele>
        <time>2010-10-24T08:42:21Z</time>
      </trkpt>
      <trkpt lat="44.13876" lon="3.22007">
        <ele>699.40002441406</ele>
        <time>2010-10-24T08:42:26Z</time>
      </trkpt>
      <trkpt lat="44.13868" lon="3.22001">
        <ele>698</ele>
        <time>2010-10-24T08:42:29Z</time>
      </trkpt>
      <trkpt lat="44.13858" lon="3.21992">
        <ele>696</ele>
        <time>2010-10-24T08:42:33Z</time>
      </trkpt>
      <trkpt lat="44.13852" lon="3.21985">
        <ele>694.59997558594</ele>
        <time>2010-10-24T08:42:36Z</time>
      </trkpt>
      <trkpt lat="44.13836" lon="3.21969">
        <ele>691.40002441406</ele>
        <time>2010-10-24T08:42:43Z</time>
      </trkpt>
      <trkpt lat="44.13819" lon="3.21957">
        <ele>688</ele>
        <time>2010-10-24T08:42:50Z</time>
      </trkpt>
      <trkpt lat="44.13802" lon="3.21949">
        <ele>684.20001220703</ele>
        <time>2010-10-24T08:42:58Z</time>
      </trkpt>
      <trkpt lat="44.13783" lon="3.21957">
        <ele>680.20001220703</ele>
        <time>2010-10-24T08:43:06Z</time>
      </trkpt>
      <trkpt lat="44.13771" lon="3.21958">
        <ele>676</ele>
        <time>2010-10-24T08:43:14Z</time>
      </trkpt>
      <trkpt lat="44.13769" lon="3.21949">
        <ele>673.79998779297</ele>
        <time>2010-10-24T08:43:18Z</time>
      </trkpt>
      <trkpt lat="44.13768" lon="3.21944">
        <ele>672.20001220703</ele>
        <time>2010-10-24T08:43:21Z</time>
      </trkpt>
      <trkpt lat="44.13766" lon="3.21925">
        <ele>668</ele>
        <time>2010-10-24T08:43:28Z</time>
      </trkpt>
      <trkpt lat="44.13766" lon="3.21922">
        <ele>667.40002441406</ele>
        <time>2010-10-24T08:43:29Z</time>
      </trkpt>
      <trkpt lat="44.13766" lon="3.21919">
        <ele>666.79998779297</ele>
        <time>2010-10-24T08:43:30Z</time>
      </trkpt>
      <trkpt lat="44.13765" lon="3.21903">
        <ele>663.79998779297</ele>
        <time>2010-10-24T08:43:35Z</time>
      </trkpt>
      <trkpt lat="44.13765" lon="3.21897">
        <ele>662.59997558594</ele>
        <time>2010-10-24T08:43:37Z</time>
      </trkpt>
      <trkpt lat="44.13765" lon="3.21886">
        <ele>660.20001220703</ele>
        <time>2010-10-24T08:43:41Z</time>
      </trkpt>
      <trkpt lat="44.13762" lon="3.21871">
        <ele>656.59997558594</ele>
        <time>2010-10-24T08:43:47Z</time>
      </trkpt>
      <trkpt lat="44.13762" lon="3.21863">
        <ele>654.59997558594</ele>
        <time>2010-10-24T08:43:50Z</time>
      </trkpt>
      <trkpt lat="44.13769" lon="3.21848">
        <ele>652.20001220703</ele>
        <time>2010-10-24T08:43:54Z</time>
      </trkpt>
      <trkpt lat="44.13771" lon="3.21845">
        <ele>651.40002441406</ele>
        <time>2010-10-24T08:43:55Z</time>
      </trkpt>
      <trkpt lat="44.13777" lon="3.21824">
        <ele>648.40002441406</ele>
        <time>2010-10-24T08:44:00Z</time>
      </trkpt>
      <trkpt lat="44.13781" lon="3.21811">
        <ele>645.20001220703</ele>
        <time>2010-10-24T08:44:05Z</time>
      </trkpt>
      <trkpt lat="44.13775" lon="3.21821">
        <ele>643.40002441406</ele>
        <time>2010-10-24T08:44:08Z</time>
      </trkpt>
      <trkpt lat="44.13758" lon="3.21835">
        <ele>639.20001220703</ele>
        <time>2010-10-24T08:44:15Z</time>
      </trkpt>
      <trkpt lat="44.13741" lon="3.21844">
        <ele>635.79998779297</ele>
        <time>2010-10-24T08:44:21Z</time>
      </trkpt>
      <trkpt lat="44.13723" lon="3.21854">
        <ele>632.20001220703</ele>
        <time>2010-10-24T08:44:28Z</time>
      </trkpt>
      <trkpt lat="44.13705" lon="3.21853">
        <ele>629</ele>
        <time>2010-10-24T08:44:34Z</time>
      </trkpt>
      <trkpt lat="44.13687" lon="3.21847">
        <ele>626</ele>
        <time>2010-10-24T08:44:40Z</time>
      </trkpt>
      <trkpt lat="44.1367" lon="3.21839">
        <ele>621.79998779297</ele>
        <time>2010-10-24T08:44:48Z</time>
      </trkpt>
      <trkpt lat="44.13662" lon="3.2184">
        <ele>620.20001220703</ele>
        <time>2010-10-24T08:44:51Z</time>
      </trkpt>
      <trkpt lat="44.13652" lon="3.21838">
        <ele>618.59997558594</ele>
        <time>2010-10-24T08:44:54Z</time>
      </trkpt>
      <trkpt lat="44.13634" lon="3.21836">
        <ele>615.79998779297</ele>
        <time>2010-10-24T08:44:59Z</time>
      </trkpt>
      <trkpt lat="44.13613" lon="3.21836">
        <ele>612.40002441406</ele>
        <time>2010-10-24T08:45:05Z</time>
      </trkpt>
      <trkpt lat="44.13593" lon="3.21838">
        <ele>609.40002441406</ele>
        <time>2010-10-24T08:45:11Z</time>
      </trkpt>
      <trkpt lat="44.13571" lon="3.21838">
        <ele>606.40002441406</ele>
        <time>2010-10-24T08:45:17Z</time>
      </trkpt>
      <trkpt lat="44.13551" lon="3.21833">
        <ele>603.59997558594</ele>
        <time>2010-10-24T08:45:23Z</time>
      </trkpt>
      <trkpt lat="44.13535" lon="3.21827">
        <ele>601</ele>
        <time>2010-10-24T08:45:29Z</time>
      </trkpt>
      <trkpt lat="44.13535" lon="3.21823">
        <ele>600</ele>
        <time>2010-10-24T08:45:31Z</time>
      </trkpt>
      <trkpt lat="44.1353" lon="3.21806">
        <ele>596.79998779297</ele>
        <time>2010-10-24T08:45:38Z</time>
      </trkpt>
      <trkpt lat="44.13527" lon="3.21806">
        <ele>596.20001220703</ele>
        <time>2010-10-24T08:45:39Z</time>
      </trkpt>
      <trkpt lat="44.13508" lon="3.21807">
        <ele>593.40002441406</ele>
        <time>2010-10-24T08:45:45Z</time>
      </trkpt>
      <trkpt lat="44.13488" lon="3.21806">
        <ele>589.59997558594</ele>
        <time>2010-10-24T08:45:53Z</time>
      </trkpt>
      <trkpt lat="44.13469" lon="3.21806">
        <ele>586.59997558594</ele>
        <time>2010-10-24T08:45:59Z</time>
      </trkpt>
      <trkpt lat="44.13451" lon="3.21821">
        <ele>583.59997558594</ele>
        <time>2010-10-24T08:46:06Z</time>
      </trkpt>
      <trkpt lat="44.13443" lon="3.21829">
        <ele>582.20001220703</ele>
        <time>2010-10-24T08:46:09Z</time>
      </trkpt>
      <trkpt lat="44.13438" lon="3.21824">
        <ele>580.20001220703</ele>
        <time>2010-10-24T08:46:13Z</time>
      </trkpt>
      <trkpt lat="44.13437" lon="3.21821">
        <ele>578.20001220703</ele>
        <time>2010-10-24T08:46:17Z</time>
      </trkpt>
      <trkpt lat="44.13436" lon="3.21819">
        <ele>577.20001220703</ele>
        <time>2010-10-24T08:46:19Z</time>
      </trkpt>
      <trkpt lat="44.13433" lon="3.21822">
        <ele>576</ele>
        <time>2010-10-24T08:46:22Z</time>
      </trkpt>
      <trkpt lat="44.13423" lon="3.2183">
        <ele>574.79998779297</ele>
        <time>2010-10-24T08:46:26Z</time>
      </trkpt>
      <trkpt lat="44.1341" lon="3.21836">
        <ele>572.20001220703</ele>
        <time>2010-10-24T08:46:32Z</time>
      </trkpt>
      <trkpt lat="44.13405" lon="3.21839">
        <ele>571.59997558594</ele>
        <time>2010-10-24T08:46:34Z</time>
      </trkpt>
      <trkpt lat="44.13398" lon="3.21841">
        <ele>570.20001220703</ele>
        <time>2010-10-24T08:46:37Z</time>
      </trkpt>
      <trkpt lat="44.1339" lon="3.2184">
        <ele>568.20001220703</ele>
        <time>2010-10-24T08:46:42Z</time>
      </trkpt>
      <trkpt lat="44.13386" lon="3.21838">
        <ele>567</ele>
        <time>2010-10-24T08:46:45Z</time>
      </trkpt>
      <trkpt lat="44.13384" lon="3.21838">
        <ele>566.40002441406</ele>
        <time>2010-10-24T08:46:46Z</time>
      </trkpt>
      <trkpt lat="44.13375" lon="3.21846">
        <ele>564.20001220703</ele>
        <time>2010-10-24T08:46:51Z</time>
      </trkpt>
      <trkpt lat="44.13369" lon="3.21848">
        <ele>562.79998779297</ele>
        <time>2010-10-24T08:46:54Z</time>
      </trkpt>
      <trkpt lat="44.13364" lon="3.21853">
        <ele>561</ele>
        <time>2010-10-24T08:46:58Z</time>
      </trkpt>
      <trkpt lat="44.13353" lon="3.2186">
        <ele>557.59997558594</ele>
        <time>2010-10-24T08:47:05Z</time>
      </trkpt>
      <trkpt lat="44.13351" lon="3.21861">
        <ele>557.20001220703</ele>
        <time>2010-10-24T08:47:06Z</time>
      </trkpt>
      <trkpt lat="44.13344" lon="3.21866">
        <ele>554.40002441406</ele>
        <time>2010-10-24T08:47:12Z</time>
      </trkpt>
      <trkpt lat="44.13344" lon="3.21876">
        <ele>551.79998779297</ele>
        <time>2010-10-24T08:47:17Z</time>
      </trkpt>
      <trkpt lat="44.13344" lon="3.21878">
        <ele>551.40002441406</ele>
        <time>2010-10-24T08:47:18Z</time>
      </trkpt>
      <trkpt lat="44.13343" lon="3.21886">
        <ele>550</ele>
        <time>2010-10-24T08:47:21Z</time>
      </trkpt>
      <trkpt lat="44.13337" lon="3.21893">
        <ele>547.20001220703</ele>
        <time>2010-10-24T08:47:27Z</time>
      </trkpt>
      <trkpt lat="44.1333" lon="3.219">
        <ele>545</ele>
        <time>2010-10-24T08:47:32Z</time>
      </trkpt>
      <trkpt lat="44.1333" lon="3.21903">
        <ele>544.59997558594</ele>
        <time>2010-10-24T08:47:33Z</time>
      </trkpt>
      <trkpt lat="44.13326" lon="3.21913">
        <ele>543.40002441406</ele>
        <time>2010-10-24T08:47:36Z</time>
      </trkpt>
      <trkpt lat="44.13324" lon="3.21916">
        <ele>543</ele>
        <time>2010-10-24T08:47:37Z</time>
      </trkpt>
      <trkpt lat="44.13321" lon="3.21921">
        <ele>541.79998779297</ele>
        <time>2010-10-24T08:47:40Z</time>
      </trkpt>
      <trkpt lat="44.1331" lon="3.21923">
        <ele>539.59997558594</ele>
        <time>2010-10-24T08:47:47Z</time>
      </trkpt>
      <trkpt lat="44.13307" lon="3.21924">
        <ele>538.79998779297</ele>
        <time>2010-10-24T08:47:50Z</time>
      </trkpt>
      <trkpt lat="44.13306" lon="3.21925">
        <ele>538.40002441406</ele>
        <time>2010-10-24T08:47:52Z</time>
      </trkpt>
      <trkpt lat="44.13303" lon="3.21925">
        <ele>538</ele>
        <time>2010-10-24T08:47:54Z</time>
      </trkpt>
      <trkpt lat="44.13295" lon="3.21918">
        <ele>537.79998779297</ele>
        <time>2010-10-24T08:47:58Z</time>
      </trkpt>
      <trkpt lat="44.13285" lon="3.21919">
        <ele>537.20001220703</ele>
        <time>2010-10-24T08:48:03Z</time>
      </trkpt>
      <trkpt lat="44.13276" lon="3.21928">
        <ele>537</ele>
        <time>2010-10-24T08:48:07Z</time>
      </trkpt>
      <trkpt lat="44.13274" lon="3.21929">
        <ele>537</ele>
        <time>2010-10-24T08:48:08Z</time>
      </trkpt>
      <trkpt lat="44.13266" lon="3.21928">
        <ele>536.79998779297</ele>
        <time>2010-10-24T08:48:12Z</time>
      </trkpt>
      <trkpt lat="44.13262" lon="3.21928">
        <ele>536.40002441406</ele>
        <time>2010-10-24T08:48:15Z</time>
      </trkpt>
      <trkpt lat="44.13258" lon="3.21933">
        <ele>536.40002441406</ele>
        <time>2010-10-24T08:48:18Z</time>
      </trkpt>
      <trkpt lat="44.13239" lon="3.21931">
        <ele>535</ele>
        <time>2010-10-24T08:48:27Z</time>
      </trkpt>
      <trkpt lat="44.13235" lon="3.21932">
        <ele>535</ele>
        <time>2010-10-24T08:48:28Z</time>
      </trkpt>
      <trkpt lat="44.13234" lon="3.21933">
        <ele>534.79998779297</ele>
        <time>2010-10-24T08:48:29Z</time>
      </trkpt>
      <trkpt lat="44.13224" lon="3.21933">
        <ele>534</ele>
        <time>2010-10-24T08:48:33Z</time>
      </trkpt>
      <trkpt lat="44.13218" lon="3.21935">
        <ele>533.79998779297</ele>
        <time>2010-10-24T08:48:35Z</time>
      </trkpt>
      <trkpt lat="44.13212" lon="3.21935">
        <ele>533.40002441406</ele>
        <time>2010-10-24T08:48:38Z</time>
      </trkpt>
      <trkpt lat="44.13203" lon="3.21935">
        <ele>532.40002441406</ele>
        <time>2010-10-24T08:48:42Z</time>
      </trkpt>
      <trkpt lat="44.132" lon="3.21937">
        <ele>532</ele>
        <time>2010-10-24T08:48:44Z</time>
      </trkpt>
      <trkpt lat="44.13195" lon="3.21941">
        <ele>531.40002441406</ele>
        <time>2010-10-24T08:48:47Z</time>
      </trkpt>
      <trkpt lat="44.13185" lon="3.21942">
        <ele>530.20001220703</ele>
        <time>2010-10-24T08:48:52Z</time>
      </trkpt>
      <trkpt lat="44.13182" lon="3.21943">
        <ele>529.40002441406</ele>
        <time>2010-10-24T08:48:55Z</time>
      </trkpt>
      <trkpt lat="44.13171" lon="3.21959">
        <ele>527</ele>
        <time>2010-10-24T08:49:04Z</time>
      </trkpt>
      <trkpt lat="44.13169" lon="3.21961">
        <ele>526.79998779297</ele>
        <time>2010-10-24T08:49:05Z</time>
      </trkpt>
      <trkpt lat="44.13159" lon="3.21972">
        <ele>525.79998779297</ele>
        <time>2010-10-24T08:49:10Z</time>
      </trkpt>
      <trkpt lat="44.13156" lon="3.21977">
        <ele>525.59997558594</ele>
        <time>2010-10-24T08:49:12Z</time>
      </trkpt>
      <trkpt lat="44.13156" lon="3.21992">
        <ele>523</ele>
        <time>2010-10-24T08:49:20Z</time>
      </trkpt>
      <trkpt lat="44.13153" lon="3.21995">
        <ele>522.40002441406</ele>
        <time>2010-10-24T08:49:22Z</time>
      </trkpt>
      <trkpt lat="44.1315" lon="3.21996">
        <ele>521.59997558594</ele>
        <time>2010-10-24T08:49:24Z</time>
      </trkpt>
      <trkpt lat="44.13143" lon="3.21997">
        <ele>521</ele>
        <time>2010-10-24T08:49:26Z</time>
      </trkpt>
      <trkpt lat="44.13138" lon="3.21999">
        <ele>519.79998779297</ele>
        <time>2010-10-24T08:49:29Z</time>
      </trkpt>
      <trkpt lat="44.13133" lon="3.22004">
        <ele>518.79998779297</ele>
        <time>2010-10-24T08:49:32Z</time>
      </trkpt>
      <trkpt lat="44.13128" lon="3.22006">
        <ele>517.40002441406</ele>
        <time>2010-10-24T08:49:36Z</time>
      </trkpt>
      <trkpt lat="44.13128" lon="3.22006">
        <ele>517</ele>
        <time>2010-10-24T08:49:37Z</time>
      </trkpt>
      <trkpt lat="44.13123" lon="3.22006">
        <ele>516</ele>
        <time>2010-10-24T08:49:40Z</time>
      </trkpt>
      <trkpt lat="44.13116" lon="3.2201">
        <ele>514.79998779297</ele>
        <time>2010-10-24T08:49:44Z</time>
      </trkpt>
      <trkpt lat="44.13113" lon="3.22011">
        <ele>514.40002441406</ele>
        <time>2010-10-24T08:49:45Z</time>
      </trkpt>
      <trkpt lat="44.131" lon="3.22023">
        <ele>513.40002441406</ele>
        <time>2010-10-24T08:49:50Z</time>
      </trkpt>
      <trkpt lat="44.13091" lon="3.22034">
        <ele>512.79998779297</ele>
        <time>2010-10-24T08:49:54Z</time>
      </trkpt>
      <trkpt lat="44.13086" lon="3.2204">
        <ele>511.20001220703</ele>
        <time>2010-10-24T08:49:59Z</time>
      </trkpt>
      <trkpt lat="44.13083" lon="3.22039">
        <ele>510.39999389648</ele>
        <time>2010-10-24T08:50:02Z</time>
      </trkpt>
      <trkpt lat="44.13075" lon="3.22034">
        <ele>508.39999389648</ele>
        <time>2010-10-24T08:50:09Z</time>
      </trkpt>
      <trkpt lat="44.13071" lon="3.22038">
        <ele>507.39999389648</ele>
        <time>2010-10-24T08:50:12Z</time>
      </trkpt>
      <trkpt lat="44.13055" lon="3.22048">
        <ele>504.79998779297</ele>
        <time>2010-10-24T08:50:21Z</time>
      </trkpt>
      <trkpt lat="44.1305" lon="3.22057">
        <ele>503.60000610352</ele>
        <time>2010-10-24T08:50:25Z</time>
      </trkpt>
      <trkpt lat="44.13049" lon="3.22058">
        <ele>503.39999389648</ele>
        <time>2010-10-24T08:50:26Z</time>
      </trkpt>
      <trkpt lat="44.13042" lon="3.2206">
        <ele>502.39999389648</ele>
        <time>2010-10-24T08:50:30Z</time>
      </trkpt>
      <trkpt lat="44.1304" lon="3.22062">
        <ele>502.20001220703</ele>
        <time>2010-10-24T08:50:31Z</time>
      </trkpt>
      <trkpt lat="44.13038" lon="3.22062">
        <ele>501.79998779297</ele>
        <time>2010-10-24T08:50:32Z</time>
      </trkpt>
      <trkpt lat="44.13025" lon="3.22075">
        <ele>499.60000610352</ele>
        <time>2010-10-24T08:50:41Z</time>
      </trkpt>
      <trkpt lat="44.13022" lon="3.22078">
        <ele>499</ele>
        <time>2010-10-24T08:50:43Z</time>
      </trkpt>
      <trkpt lat="44.13018" lon="3.22078">
        <ele>498.20001220703</ele>
        <time>2010-10-24T08:50:46Z</time>
      </trkpt>
      <trkpt lat="44.13012" lon="3.22084">
        <ele>497</ele>
        <time>2010-10-24T08:50:51Z</time>
      </trkpt>
      <trkpt lat="44.1301" lon="3.22086">
        <ele>496.79998779297</ele>
        <time>2010-10-24T08:50:52Z</time>
      </trkpt>
      <trkpt lat="44.13008" lon="3.22088">
        <ele>496.60000610352</ele>
        <time>2010-10-24T08:50:53Z</time>
      </trkpt>
      <trkpt lat="44.13012" lon="3.22102">
        <ele>495.39999389648</ele>
        <time>2010-10-24T08:50:58Z</time>
      </trkpt>
      <trkpt lat="44.13011" lon="3.22104">
        <ele>495.20001220703</ele>
        <time>2010-10-24T08:50:59Z</time>
      </trkpt>
      <trkpt lat="44.13008" lon="3.22107">
        <ele>494.60000610352</ele>
        <time>2010-10-24T08:51:01Z</time>
      </trkpt>
      <trkpt lat="44.13002" lon="3.22129">
        <ele>492.39999389648</ele>
        <time>2010-10-24T08:51:09Z</time>
      </trkpt>
      <trkpt lat="44.12993" lon="3.22153">
        <ele>489.20001220703</ele>
        <time>2010-10-24T08:51:20Z</time>
      </trkpt>
      <trkpt lat="44.1299" lon="3.22159">
        <ele>488.39999389648</ele>
        <time>2010-10-24T08:51:23Z</time>
      </trkpt>
      <trkpt lat="44.12983" lon="3.2217">
        <ele>486</ele>
        <time>2010-10-24T08:51:32Z</time>
      </trkpt>
      <trkpt lat="44.12982" lon="3.22169">
        <ele>485.79998779297</ele>
        <time>2010-10-24T08:51:33Z</time>
      </trkpt>
      <trkpt lat="44.12967" lon="3.22173">
        <ele>483.79998779297</ele>
        <time>2010-10-24T08:51:42Z</time>
      </trkpt>
      <trkpt lat="44.12965" lon="3.22173">
        <ele>483.60000610352</ele>
        <time>2010-10-24T08:51:43Z</time>
      </trkpt>
      <trkpt lat="44.12959" lon="3.22172">
        <ele>483</ele>
        <time>2010-10-24T08:51:46Z</time>
      </trkpt>
      <trkpt lat="44.12956" lon="3.22171">
        <ele>482</ele>
        <time>2010-10-24T08:51:50Z</time>
      </trkpt>
      <trkpt lat="44.12954" lon="3.22171">
        <ele>481.60000610352</ele>
        <time>2010-10-24T08:51:51Z</time>
      </trkpt>
      <trkpt lat="44.12949" lon="3.22168">
        <ele>480.79998779297</ele>
        <time>2010-10-24T08:51:54Z</time>
      </trkpt>
      <trkpt lat="44.12947" lon="3.22167">
        <ele>480.60000610352</ele>
        <time>2010-10-24T08:51:55Z</time>
      </trkpt>
      <trkpt lat="44.12932" lon="3.22158">
        <ele>477.60000610352</ele>
        <time>2010-10-24T08:52:06Z</time>
      </trkpt>
      <trkpt lat="44.12916" lon="3.22152">
        <ele>475.60000610352</ele>
        <time>2010-10-24T08:52:14Z</time>
      </trkpt>
      <trkpt lat="44.12905" lon="3.2215">
        <ele>474.20001220703</ele>
        <time>2010-10-24T08:52:20Z</time>
      </trkpt>
      <trkpt lat="44.129" lon="3.22151">
        <ele>473.39999389648</ele>
        <time>2010-10-24T08:52:23Z</time>
      </trkpt>
      <trkpt lat="44.12899" lon="3.22151">
        <ele>473.20001220703</ele>
        <time>2010-10-24T08:52:24Z</time>
      </trkpt>
      <trkpt lat="44.12885" lon="3.22142">
        <ele>469.39999389648</ele>
        <time>2010-10-24T08:52:40Z</time>
      </trkpt>
      <trkpt lat="44.12883" lon="3.22143">
        <ele>469.20001220703</ele>
        <time>2010-10-24T08:52:41Z</time>
      </trkpt>
      <trkpt lat="44.12877" lon="3.2215">
        <ele>467.20001220703</ele>
        <time>2010-10-24T08:52:50Z</time>
      </trkpt>
      <trkpt lat="44.12866" lon="3.22148">
        <ele>465.79998779297</ele>
        <time>2010-10-24T08:52:56Z</time>
      </trkpt>
      <trkpt lat="44.12858" lon="3.22137">
        <ele>465.20001220703</ele>
        <time>2010-10-24T08:53:00Z</time>
      </trkpt>
      <trkpt lat="44.12854" lon="3.22128">
        <ele>464.79998779297</ele>
        <time>2010-10-24T08:53:03Z</time>
      </trkpt>
      <trkpt lat="44.12852" lon="3.22123">
        <ele>464.39999389648</ele>
        <time>2010-10-24T08:53:05Z</time>
      </trkpt>
      <trkpt lat="44.12851" lon="3.22122">
        <ele>464</ele>
        <time>2010-10-24T08:53:07Z</time>
      </trkpt>
      <trkpt lat="44.12844" lon="3.22124">
        <ele>463.39999389648</ele>
        <time>2010-10-24T08:53:11Z</time>
      </trkpt>
      <trkpt lat="44.12842" lon="3.22118">
        <ele>463</ele>
        <time>2010-10-24T08:53:13Z</time>
      </trkpt>
      <trkpt lat="44.12834" lon="3.22096">
        <ele>461</ele>
        <time>2010-10-24T08:53:23Z</time>
      </trkpt>
      <trkpt lat="44.12819" lon="3.22085">
        <ele>459.79998779297</ele>
        <time>2010-10-24T08:53:31Z</time>
      </trkpt>
      <trkpt lat="44.12816" lon="3.22085">
        <ele>459.79998779297</ele>
        <time>2010-10-24T08:53:32Z</time>
      </trkpt>
      <trkpt lat="44.12809" lon="3.22087">
        <ele>459.39999389648</ele>
        <time>2010-10-24T08:53:37Z</time>
      </trkpt>
      <trkpt lat="44.12803" lon="3.22093">
        <ele>459.20001220703</ele>
        <time>2010-10-24T08:53:42Z</time>
      </trkpt>
      <trkpt lat="44.128" lon="3.22098">
        <ele>459.20001220703</ele>
        <time>2010-10-24T08:53:44Z</time>
      </trkpt>
      <trkpt lat="44.1279" lon="3.22112">
        <ele>458.79998779297</ele>
        <time>2010-10-24T08:53:51Z</time>
      </trkpt>
      <trkpt lat="44.12786" lon="3.22114">
        <ele>458.79998779297</ele>
        <time>2010-10-24T08:53:53Z</time>
      </trkpt>
      <trkpt lat="44.12769" lon="3.22124">
        <ele>458.79998779297</ele>
        <time>2010-10-24T08:54:00Z</time>
      </trkpt>
      <trkpt lat="44.12764" lon="3.22128">
        <ele>458.39999389648</ele>
        <time>2010-10-24T08:54:04Z</time>
      </trkpt>
      <trkpt lat="44.12758" lon="3.22137">
        <ele>458</ele>
        <time>2010-10-24T08:54:09Z</time>
      </trkpt>
      <trkpt lat="44.12756" lon="3.2214">
        <ele>458</ele>
        <time>2010-10-24T08:54:10Z</time>
      </trkpt>
      <trkpt lat="44.12754" lon="3.22142">
        <ele>458</ele>
        <time>2010-10-24T08:54:11Z</time>
      </trkpt>
      <trkpt lat="44.1274" lon="3.2215">
        <ele>457</ele>
        <time>2010-10-24T08:54:18Z</time>
      </trkpt>
      <trkpt lat="44.12737" lon="3.22151">
        <ele>457</ele>
        <time>2010-10-24T08:54:19Z</time>
      </trkpt>
      <trkpt lat="44.12734" lon="3.22153">
        <ele>456.60000610352</ele>
        <time>2010-10-24T08:54:21Z</time>
      </trkpt>
      <trkpt lat="44.1272" lon="3.22161">
        <ele>455.20001220703</ele>
        <time>2010-10-24T08:54:28Z</time>
      </trkpt>
      <trkpt lat="44.12705" lon="3.22174">
        <ele>453.79998779297</ele>
        <time>2010-10-24T08:54:34Z</time>
      </trkpt>
      <trkpt lat="44.12693" lon="3.22194">
        <ele>452.20001220703</ele>
        <time>2010-10-24T08:54:40Z</time>
      </trkpt>
      <trkpt lat="44.12688" lon="3.22219">
        <ele>450.39999389648</ele>
        <time>2010-10-24T08:54:47Z</time>
      </trkpt>
      <trkpt lat="44.12685" lon="3.22237">
        <ele>448.60000610352</ele>
        <time>2010-10-24T08:54:53Z</time>
      </trkpt>
      <trkpt lat="44.12683" lon="3.22245">
        <ele>448</ele>
        <time>2010-10-24T08:54:55Z</time>
      </trkpt>
      <trkpt lat="44.12671" lon="3.22263">
        <ele>446.39999389648</ele>
        <time>2010-10-24T08:55:01Z</time>
      </trkpt>
      <trkpt lat="44.12666" lon="3.22266">
        <ele>445.79998779297</ele>
        <time>2010-10-24T08:55:03Z</time>
      </trkpt>
      <trkpt lat="44.12653" lon="3.22262">
        <ele>444.60000610352</ele>
        <time>2010-10-24T08:55:08Z</time>
      </trkpt>
      <trkpt lat="44.12634" lon="3.22263">
        <ele>442.79998779297</ele>
        <time>2010-10-24T08:55:15Z</time>
      </trkpt>
      <trkpt lat="44.12624" lon="3.22264">
        <ele>442</ele>
        <time>2010-10-24T08:55:19Z</time>
      </trkpt>
      <trkpt lat="44.12621" lon="3.22269">
        <ele>440.79998779297</ele>
        <time>2010-10-24T08:55:24Z</time>
      </trkpt>
      <trkpt lat="44.12624" lon="3.22275">
        <ele>439.79998779297</ele>
        <time>2010-10-24T08:55:29Z</time>
      </trkpt>
      <trkpt lat="44.12626" lon="3.22279">
        <ele>439.39999389648</ele>
        <time>2010-10-24T08:55:31Z</time>
      </trkpt>
      <trkpt lat="44.12629" lon="3.22296">
        <ele>438.60000610352</ele>
        <time>2010-10-24T08:55:36Z</time>
      </trkpt>
      <trkpt lat="44.12619" lon="3.22304">
        <ele>438.20001220703</ele>
        <time>2010-10-24T08:55:40Z</time>
      </trkpt>
      <trkpt lat="44.12613" lon="3.22308">
        <ele>437.79998779297</ele>
        <time>2010-10-24T08:55:43Z</time>
      </trkpt>
      <trkpt lat="44.12595" lon="3.22322">
        <ele>437</ele>
        <time>2010-10-24T08:55:51Z</time>
      </trkpt>
      <trkpt lat="44.1258" lon="3.22336">
        <ele>436.60000610352</ele>
        <time>2010-10-24T08:55:58Z</time>
      </trkpt>
      <trkpt lat="44.12564" lon="3.22342">
        <ele>436.20001220703</ele>
        <time>2010-10-24T08:56:06Z</time>
      </trkpt>
      <trkpt lat="44.1256" lon="3.22341">
        <ele>436.20001220703</ele>
        <time>2010-10-24T08:56:08Z</time>
      </trkpt>
      <trkpt lat="44.12543" lon="3.22353">
        <ele>436</ele>
        <time>2010-10-24T08:56:16Z</time>
      </trkpt>
      <trkpt lat="44.1254" lon="3.22372">
        <ele>435.79998779297</ele>
        <time>2010-10-24T08:56:22Z</time>
      </trkpt>
      <trkpt lat="44.12538" lon="3.22373">
        <ele>435.60000610352</ele>
        <time>2010-10-24T08:56:23Z</time>
      </trkpt>
      <trkpt lat="44.12532" lon="3.22361">
        <ele>435.39999389648</ele>
        <time>2010-10-24T08:56:27Z</time>
      </trkpt>
      <trkpt lat="44.12526" lon="3.22352">
        <ele>435.20001220703</ele>
        <time>2010-10-24T08:56:30Z</time>
      </trkpt>
      <trkpt lat="44.12515" lon="3.22332">
        <ele>434.60000610352</ele>
        <time>2010-10-24T08:56:36Z</time>
      </trkpt>
      <trkpt lat="44.12498" lon="3.2232">
        <ele>433.79998779297</ele>
        <time>2010-10-24T08:56:42Z</time>
      </trkpt>
      <trkpt lat="44.12481" lon="3.22307">
        <ele>433</ele>
        <time>2010-10-24T08:56:48Z</time>
      </trkpt>
      <trkpt lat="44.12467" lon="3.22288">
        <ele>431.79998779297</ele>
        <time>2010-10-24T08:56:55Z</time>
      </trkpt>
      <trkpt lat="44.12453" lon="3.22271">
        <ele>430.20001220703</ele>
        <time>2010-10-24T08:57:02Z</time>
      </trkpt>
      <trkpt lat="44.12442" lon="3.22273">
        <ele>428.79998779297</ele>
        <time>2010-10-24T08:57:07Z</time>
      </trkpt>
      <trkpt lat="44.12442" lon="3.22263">
        <ele>428</ele>
        <time>2010-10-24T08:57:10Z</time>
      </trkpt>
      <trkpt lat="44.12449" lon="3.22237">
        <ele>426.60000610352</ele>
        <time>2010-10-24T08:57:16Z</time>
      </trkpt>
      <trkpt lat="44.1245" lon="3.22233">
        <ele>426.39999389648</ele>
        <time>2010-10-24T08:57:17Z</time>
      </trkpt>
      <trkpt lat="44.12455" lon="3.22228">
        <ele>426</ele>
        <time>2010-10-24T08:57:19Z</time>
      </trkpt>
      <trkpt lat="44.12457" lon="3.22223">
        <ele>425.20001220703</ele>
        <time>2010-10-24T08:57:22Z</time>
      </trkpt>
      <trkpt lat="44.12453" lon="3.22218">
        <ele>424.60000610352</ele>
        <time>2010-10-24T08:57:24Z</time>
      </trkpt>
      <trkpt lat="44.12437" lon="3.22218">
        <ele>423.39999389648</ele>
        <time>2010-10-24T08:57:29Z</time>
      </trkpt>
      <trkpt lat="44.12434" lon="3.22221">
        <ele>423.20001220703</ele>
        <time>2010-10-24T08:57:30Z</time>
      </trkpt>
      <trkpt lat="44.12423" lon="3.22234">
        <ele>422.20001220703</ele>
        <time>2010-10-24T08:57:34Z</time>
      </trkpt>
      <trkpt lat="44.12414" lon="3.22257">
        <ele>421.39999389648</ele>
        <time>2010-10-24T08:57:40Z</time>
      </trkpt>
      <trkpt lat="44.12416" lon="3.22284">
        <ele>420.60000610352</ele>
        <time>2010-10-24T08:57:46Z</time>
      </trkpt>
      <trkpt lat="44.12417" lon="3.22308">
        <ele>419.20001220703</ele>
        <time>2010-10-24T08:57:52Z</time>
      </trkpt>
      <trkpt lat="44.1241" lon="3.22331">
        <ele>418</ele>
        <time>2010-10-24T08:57:58Z</time>
      </trkpt>
      <trkpt lat="44.12404" lon="3.22336">
        <ele>417.20001220703</ele>
        <time>2010-10-24T08:58:01Z</time>
      </trkpt>
      <trkpt lat="44.12394" lon="3.22326">
        <ele>416</ele>
        <time>2010-10-24T08:58:07Z</time>
      </trkpt>
      <trkpt lat="44.12391" lon="3.22322">
        <ele>415.60000610352</ele>
        <time>2010-10-24T08:58:09Z</time>
      </trkpt>
      <trkpt lat="44.12376" lon="3.22316">
        <ele>414.60000610352</ele>
        <time>2010-10-24T08:58:16Z</time>
      </trkpt>
      <trkpt lat="44.12368" lon="3.22313">
        <ele>414</ele>
        <time>2010-10-24T08:58:21Z</time>
      </trkpt>
      <trkpt lat="44.12357" lon="3.22305">
        <ele>413.20001220703</ele>
        <time>2010-10-24T08:58:29Z</time>
      </trkpt>
      <trkpt lat="44.12345" lon="3.22285">
        <ele>412.20001220703</ele>
        <time>2010-10-24T08:58:38Z</time>
      </trkpt>
      <trkpt lat="44.12329" lon="3.22267">
        <ele>411.39999389648</ele>
        <time>2010-10-24T08:58:45Z</time>
      </trkpt>
      <trkpt lat="44.12317" lon="3.22248">
        <ele>410.79998779297</ele>
        <time>2010-10-24T08:58:51Z</time>
      </trkpt>
      <trkpt lat="44.12307" lon="3.22227">
        <ele>410.39999389648</ele>
        <time>2010-10-24T08:58:57Z</time>
      </trkpt>
      <trkpt lat="44.12298" lon="3.22203">
        <ele>409.79998779297</ele>
        <time>2010-10-24T08:59:04Z</time>
      </trkpt>
      <trkpt lat="44.12299" lon="3.22198">
        <ele>409.60000610352</ele>
        <time>2010-10-24T08:59:06Z</time>
      </trkpt>
      <trkpt lat="44.12312" lon="3.22205">
        <ele>409</ele>
        <time>2010-10-24T08:59:13Z</time>
      </trkpt>
      <trkpt lat="44.12326" lon="3.22221">
        <ele>408.39999389648</ele>
        <time>2010-10-24T08:59:20Z</time>
      </trkpt>
      <trkpt lat="44.12331" lon="3.22224">
        <ele>408.20001220703</ele>
        <time>2010-10-24T08:59:25Z</time>
      </trkpt>
      <trkpt lat="44.12331" lon="3.22217">
        <ele>408</ele>
        <time>2010-10-24T08:59:29Z</time>
      </trkpt>
      <trkpt lat="44.12334" lon="3.22209">
        <ele>406.39999389648</ele>
        <time>2010-10-24T08:59:49Z</time>
      </trkpt>
      <trkpt lat="44.12337" lon="3.22215">
        <ele>403</ele>
        <time>2010-10-24T09:00:43Z</time>
      </trkpt>
      <trkpt lat="44.12338" lon="3.22217">
        <ele>402.39999389648</ele>
        <time>2010-10-24T09:00:52Z</time>
      </trkpt>
      <trkpt lat="44.12338" lon="3.22221">
        <ele>402.20001220703</ele>
        <time>2010-10-24T09:00:55Z</time>
      </trkpt>
      <trkpt lat="44.1234" lon="3.22225">
        <ele>402</ele>
        <time>2010-10-24T09:00:58Z</time>
      </trkpt>
      <trkpt lat="44.12344" lon="3.22231">
        <ele>401.39999389648</ele>
        <time>2010-10-24T09:01:07Z</time>
      </trkpt>
      <trkpt lat="44.12348" lon="3.22241">
        <ele>401.20001220703</ele>
        <time>2010-10-24T09:01:20Z</time>
      </trkpt>
      <trkpt lat="44.12355" lon="3.22257">
        <ele>401</ele>
        <time>2010-10-24T09:01:25Z</time>
      </trkpt>
      <trkpt lat="44.12357" lon="3.22263">
        <ele>401</ele>
        <time>2010-10-24T09:01:27Z</time>
      </trkpt>
      <trkpt lat="44.12359" lon="3.22264">
        <ele>401</ele>
        <time>2010-10-24T09:01:28Z</time>
      </trkpt>
      <trkpt lat="44.1237" lon="3.22277">
        <ele>400.20001220703</ele>
        <time>2010-10-24T09:01:45Z</time>
      </trkpt>
      <trkpt lat="44.12386" lon="3.2229">
        <ele>400.39999389648</ele>
        <time>2010-10-24T09:01:52Z</time>
      </trkpt>
      <trkpt lat="44.12405" lon="3.22285">
        <ele>400.79998779297</ele>
        <time>2010-10-24T09:02:00Z</time>
      </trkpt>
      <trkpt lat="44.12415" lon="3.22277">
        <ele>400.79998779297</ele>
        <time>2010-10-24T09:02:05Z</time>
      </trkpt>
      <trkpt lat="44.1241" lon="3.22269">
        <ele>400.79998779297</ele>
        <time>2010-10-24T09:02:08Z</time>
      </trkpt>
      <trkpt lat="44.12411" lon="3.22257">
        <ele>400.60000610352</ele>
        <time>2010-10-24T09:02:11Z</time>
      </trkpt>
      <trkpt lat="44.12416" lon="3.22241">
        <ele>400.60000610352</ele>
        <time>2010-10-24T09:02:14Z</time>
      </trkpt>
      <trkpt lat="44.12426" lon="3.22221">
        <ele>401.60000610352</ele>
        <time>2010-10-24T09:02:19Z</time>
      </trkpt>
      <trkpt lat="44.12426" lon="3.22212">
        <ele>402</ele>
        <time>2010-10-24T09:02:22Z</time>
      </trkpt>
      <trkpt lat="44.12414" lon="3.22206">
        <ele>403.79998779297</ele>
        <time>2010-10-24T09:02:32Z</time>
      </trkpt>
      <trkpt lat="44.12413" lon="3.22206">
        <ele>403.79998779297</ele>
        <time>2010-10-24T09:02:33Z</time>
      </trkpt>
      <trkpt lat="44.12413" lon="3.22205">
        <ele>404</ele>
        <time>2010-10-24T09:02:34Z</time>
      </trkpt>
      <trkpt lat="44.12402" lon="3.22198">
        <ele>404.79998779297</ele>
        <time>2010-10-24T09:02:46Z</time>
      </trkpt>
      <trkpt lat="44.12399" lon="3.22195">
        <ele>405.20001220703</ele>
        <time>2010-10-24T09:02:49Z</time>
      </trkpt>
      <trkpt lat="44.12394" lon="3.22189">
        <ele>406.20001220703</ele>
        <time>2010-10-24T09:02:54Z</time>
      </trkpt>
      <trkpt lat="44.12384" lon="3.22182">
        <ele>408.20001220703</ele>
        <time>2010-10-24T09:03:04Z</time>
      </trkpt>
      <trkpt lat="44.12376" lon="3.22174">
        <ele>409.20001220703</ele>
        <time>2010-10-24T09:03:09Z</time>
      </trkpt>
      <trkpt lat="44.1237" lon="3.22167">
        <ele>409.60000610352</ele>
        <time>2010-10-24T09:03:12Z</time>
      </trkpt>
      <trkpt lat="44.12361" lon="3.22151">
        <ele>411</ele>
        <time>2010-10-24T09:03:18Z</time>
      </trkpt>
      <trkpt lat="44.12363" lon="3.22147">
        <ele>411.20001220703</ele>
        <time>2010-10-24T09:03:20Z</time>
      </trkpt>
      <trkpt lat="44.12371" lon="3.22138">
        <ele>413</ele>
        <time>2010-10-24T09:03:27Z</time>
      </trkpt>
      <trkpt lat="44.12379" lon="3.22131">
        <ele>414.20001220703</ele>
        <time>2010-10-24T09:03:34Z</time>
      </trkpt>
      <trkpt lat="44.12383" lon="3.22126">
        <ele>415</ele>
        <time>2010-10-24T09:03:39Z</time>
      </trkpt>
      <trkpt lat="44.12382" lon="3.22123">
        <ele>415.20001220703</ele>
        <time>2010-10-24T09:03:42Z</time>
      </trkpt>
      <trkpt lat="44.12384" lon="3.22121">
        <ele>416.20001220703</ele>
        <time>2010-10-24T09:03:47Z</time>
      </trkpt>
      <trkpt lat="44.12385" lon="3.22121">
        <ele>416.20001220703</ele>
        <time>2010-10-24T09:03:48Z</time>
      </trkpt>
      <trkpt lat="44.12387" lon="3.22123">
        <ele>416.79998779297</ele>
        <time>2010-10-24T09:03:51Z</time>
      </trkpt>
      <trkpt lat="44.12397" lon="3.22106">
        <ele>421.39999389648</ele>
        <time>2010-10-24T09:04:09Z</time>
      </trkpt>
      <trkpt lat="44.12399" lon="3.22102">
        <ele>422.20001220703</ele>
        <time>2010-10-24T09:04:12Z</time>
      </trkpt>
      <trkpt lat="44.12399" lon="3.22098">
        <ele>423.39999389648</ele>
        <time>2010-10-24T09:04:16Z</time>
      </trkpt>
      <trkpt lat="44.12402" lon="3.22099">
        <ele>424.39999389648</ele>
        <time>2010-10-24T09:04:20Z</time>
      </trkpt>
      <trkpt lat="44.12403" lon="3.22099">
        <ele>425.20001220703</ele>
        <time>2010-10-24T09:04:22Z</time>
      </trkpt>
      <trkpt lat="44.12405" lon="3.22091">
        <ele>427.79998779297</ele>
        <time>2010-10-24T09:04:31Z</time>
      </trkpt>
      <trkpt lat="44.1241" lon="3.22078">
        <ele>431.39999389648</ele>
        <time>2010-10-24T09:04:43Z</time>
      </trkpt>
      <trkpt lat="44.12407" lon="3.2207">
        <ele>432.60000610352</ele>
        <time>2010-10-24T09:04:49Z</time>
      </trkpt>
      <trkpt lat="44.12404" lon="3.22069">
        <ele>432.79998779297</ele>
        <time>2010-10-24T09:04:51Z</time>
      </trkpt>
      <trkpt lat="44.12401" lon="3.22067">
        <ele>433</ele>
        <time>2010-10-24T09:04:53Z</time>
      </trkpt>
      <trkpt lat="44.12408" lon="3.22056">
        <ele>432.79998779297</ele>
        <time>2010-10-24T09:04:57Z</time>
      </trkpt>
      <trkpt lat="44.12413" lon="3.22049">
        <ele>433.20001220703</ele>
        <time>2010-10-24T09:05:02Z</time>
      </trkpt>
      <trkpt lat="44.12419" lon="3.22025">
        <ele>437.60000610352</ele>
        <time>2010-10-24T09:05:12Z</time>
      </trkpt>
      <trkpt lat="44.12418" lon="3.22023">
        <ele>438.60000610352</ele>
        <time>2010-10-24T09:05:14Z</time>
      </trkpt>
      <trkpt lat="44.12415" lon="3.2202">
        <ele>440</ele>
        <time>2010-10-24T09:05:18Z</time>
      </trkpt>
      <trkpt lat="44.12403" lon="3.22016">
        <ele>442.79998779297</ele>
        <time>2010-10-24T09:05:25Z</time>
      </trkpt>
      <trkpt lat="44.12388" lon="3.22003">
        <ele>446.20001220703</ele>
        <time>2010-10-24T09:05:33Z</time>
      </trkpt>
      <trkpt lat="44.12387" lon="3.22">
        <ele>446.60000610352</ele>
        <time>2010-10-24T09:05:34Z</time>
      </trkpt>
      <trkpt lat="44.12384" lon="3.21976">
        <ele>449</ele>
        <time>2010-10-24T09:05:41Z</time>
      </trkpt>
      <trkpt lat="44.12387" lon="3.2195">
        <ele>452.20001220703</ele>
        <time>2010-10-24T09:05:53Z</time>
      </trkpt>
      <trkpt lat="44.12389" lon="3.21945">
        <ele>453</ele>
        <time>2010-10-24T09:05:57Z</time>
      </trkpt>
      <trkpt lat="44.12388" lon="3.21932">
        <ele>455.39999389648</ele>
        <time>2010-10-24T09:06:05Z</time>
      </trkpt>
      <trkpt lat="44.12389" lon="3.21926">
        <ele>456.39999389648</ele>
        <time>2010-10-24T09:06:09Z</time>
      </trkpt>
      <trkpt lat="44.12389" lon="3.21924">
        <ele>456.79998779297</ele>
        <time>2010-10-24T09:06:10Z</time>
      </trkpt>
      <trkpt lat="44.12391" lon="3.21916">
        <ele>458.39999389648</ele>
        <time>2010-10-24T09:06:18Z</time>
      </trkpt>
      <trkpt lat="44.12389" lon="3.21906">
        <ele>459.79998779297</ele>
        <time>2010-10-24T09:06:25Z</time>
      </trkpt>
      <trkpt lat="44.12389" lon="3.219">
        <ele>461</ele>
        <time>2010-10-24T09:06:30Z</time>
      </trkpt>
      <trkpt lat="44.1239" lon="3.21895">
        <ele>461.60000610352</ele>
        <time>2010-10-24T09:06:33Z</time>
      </trkpt>
      <trkpt lat="44.12386" lon="3.21884">
        <ele>463.79998779297</ele>
        <time>2010-10-24T09:06:41Z</time>
      </trkpt>
      <trkpt lat="44.12383" lon="3.21876">
        <ele>465.39999389648</ele>
        <time>2010-10-24T09:06:47Z</time>
      </trkpt>
      <trkpt lat="44.12382" lon="3.21869">
        <ele>466.60000610352</ele>
        <time>2010-10-24T09:06:52Z</time>
      </trkpt>
      <trkpt lat="44.12382" lon="3.21851">
        <ele>468.79998779297</ele>
        <time>2010-10-24T09:07:03Z</time>
      </trkpt>
      <trkpt lat="44.1238" lon="3.21837">
        <ele>471</ele>
        <time>2010-10-24T09:07:12Z</time>
      </trkpt>
      <trkpt lat="44.1238" lon="3.21834">
        <ele>471.39999389648</ele>
        <time>2010-10-24T09:07:14Z</time>
      </trkpt>
      <trkpt lat="44.12378" lon="3.21826">
        <ele>472.79998779297</ele>
        <time>2010-10-24T09:07:20Z</time>
      </trkpt>
      <trkpt lat="44.12383" lon="3.21812">
        <ele>475.79998779297</ele>
        <time>2010-10-24T09:07:31Z</time>
      </trkpt>
      <trkpt lat="44.12385" lon="3.21804">
        <ele>477.20001220703</ele>
        <time>2010-10-24T09:07:36Z</time>
      </trkpt>
      <trkpt lat="44.12383" lon="3.21782">
        <ele>481.20001220703</ele>
        <time>2010-10-24T09:07:51Z</time>
      </trkpt>
      <trkpt lat="44.12381" lon="3.21779">
        <ele>481.60000610352</ele>
        <time>2010-10-24T09:07:53Z</time>
      </trkpt>
      <trkpt lat="44.12379" lon="3.21774">
        <ele>482.20001220703</ele>
        <time>2010-10-24T09:07:57Z</time>
      </trkpt>
      <trkpt lat="44.12376" lon="3.21764">
        <ele>483</ele>
        <time>2010-10-24T09:08:03Z</time>
      </trkpt>
      <trkpt lat="44.12374" lon="3.21756">
        <ele>484</ele>
        <time>2010-10-24T09:08:08Z</time>
      </trkpt>
      <trkpt lat="44.12372" lon="3.21753">
        <ele>484.79998779297</ele>
        <time>2010-10-24T09:08:11Z</time>
      </trkpt>
      <trkpt lat="44.12365" lon="3.21748">
        <ele>485.79998779297</ele>
        <time>2010-10-24T09:08:15Z</time>
      </trkpt>
      <trkpt lat="44.1236" lon="3.21745">
        <ele>486.39999389648</ele>
        <time>2010-10-24T09:08:17Z</time>
      </trkpt>
      <trkpt lat="44.12344" lon="3.21726">
        <ele>489</ele>
        <time>2010-10-24T09:08:25Z</time>
      </trkpt>
      <trkpt lat="44.12332" lon="3.21709">
        <ele>491.20001220703</ele>
        <time>2010-10-24T09:08:32Z</time>
      </trkpt>
      <trkpt lat="44.1232" lon="3.21695">
        <ele>492.79998779297</ele>
        <time>2010-10-24T09:08:39Z</time>
      </trkpt>
      <trkpt lat="44.12316" lon="3.21693">
        <ele>493.20001220703</ele>
        <time>2010-10-24T09:08:41Z</time>
      </trkpt>
      <trkpt lat="44.12298" lon="3.21688">
        <ele>494.60000610352</ele>
        <time>2010-10-24T09:08:49Z</time>
      </trkpt>
      <trkpt lat="44.1228" lon="3.2168">
        <ele>495.39999389648</ele>
        <time>2010-10-24T09:08:57Z</time>
      </trkpt>
      <trkpt lat="44.12263" lon="3.21668">
        <ele>495.79998779297</ele>
        <time>2010-10-24T09:09:05Z</time>
      </trkpt>
      <trkpt lat="44.12245" lon="3.21659">
        <ele>496.20001220703</ele>
        <time>2010-10-24T09:09:14Z</time>
      </trkpt>
      <trkpt lat="44.12241" lon="3.21655">
        <ele>496.39999389648</ele>
        <time>2010-10-24T09:09:16Z</time>
      </trkpt>
      <trkpt lat="44.12244" lon="3.21639">
        <ele>496.39999389648</ele>
        <time>2010-10-24T09:09:20Z</time>
      </trkpt>
      <trkpt lat="44.12245" lon="3.21636">
        <ele>496.39999389648</ele>
        <time>2010-10-24T09:09:21Z</time>
      </trkpt>
      <trkpt lat="44.12243" lon="3.21624">
        <ele>496.39999389648</ele>
        <time>2010-10-24T09:09:26Z</time>
      </trkpt>
      <trkpt lat="44.12239" lon="3.21614">
        <ele>496.60000610352</ele>
        <time>2010-10-24T09:09:31Z</time>
      </trkpt>
      <trkpt lat="44.12239" lon="3.21612">
        <ele>496.60000610352</ele>
        <time>2010-10-24T09:09:32Z</time>
      </trkpt>
      <trkpt lat="44.12238" lon="3.21606">
        <ele>496.79998779297</ele>
        <time>2010-10-24T09:09:35Z</time>
      </trkpt>
      <trkpt lat="44.12236" lon="3.21588">
        <ele>498.20001220703</ele>
        <time>2010-10-24T09:09:44Z</time>
      </trkpt>
      <trkpt lat="44.12229" lon="3.21568">
        <ele>499.39999389648</ele>
        <time>2010-10-24T09:09:52Z</time>
      </trkpt>
      <trkpt lat="44.1223" lon="3.21565">
        <ele>499.60000610352</ele>
        <time>2010-10-24T09:09:53Z</time>
      </trkpt>
      <trkpt lat="44.12228" lon="3.21556">
        <ele>500.20001220703</ele>
        <time>2010-10-24T09:09:57Z</time>
      </trkpt>
      <trkpt lat="44.12226" lon="3.21545">
        <ele>501</ele>
        <time>2010-10-24T09:10:03Z</time>
      </trkpt>
      <trkpt lat="44.12225" lon="3.21539">
        <ele>501.60000610352</ele>
        <time>2010-10-24T09:10:07Z</time>
      </trkpt>
      <trkpt lat="44.12222" lon="3.21519">
        <ele>503.20001220703</ele>
        <time>2010-10-24T09:10:20Z</time>
      </trkpt>
      <trkpt lat="44.12222" lon="3.21514">
        <ele>503.39999389648</ele>
        <time>2010-10-24T09:10:23Z</time>
      </trkpt>
      <trkpt lat="44.12221" lon="3.21509">
        <ele>503.60000610352</ele>
        <time>2010-10-24T09:10:25Z</time>
      </trkpt>
      <trkpt lat="44.12219" lon="3.2149">
        <ele>504.60000610352</ele>
        <time>2010-10-24T09:10:32Z</time>
      </trkpt>
      <trkpt lat="44.1222" lon="3.21465">
        <ele>506.20001220703</ele>
        <time>2010-10-24T09:10:41Z</time>
      </trkpt>
      <trkpt lat="44.12232" lon="3.21444">
        <ele>508.60000610352</ele>
        <time>2010-10-24T09:10:53Z</time>
      </trkpt>
      <trkpt lat="44.12243" lon="3.2143">
        <ele>510.39999389648</ele>
        <time>2010-10-24T09:11:04Z</time>
      </trkpt>
      <trkpt lat="44.12246" lon="3.21428">
        <ele>510.79998779297</ele>
        <time>2010-10-24T09:11:07Z</time>
      </trkpt>
      <trkpt lat="44.12247" lon="3.21427">
        <ele>511.20001220703</ele>
        <time>2010-10-24T09:11:08Z</time>
      </trkpt>
      <trkpt lat="44.12262" lon="3.21415">
        <ele>514.40002441406</ele>
        <time>2010-10-24T09:11:23Z</time>
      </trkpt>
      <trkpt lat="44.12279" lon="3.21406">
        <ele>518</ele>
        <time>2010-10-24T09:11:40Z</time>
      </trkpt>
      <trkpt lat="44.12285" lon="3.21403">
        <ele>519.40002441406</ele>
        <time>2010-10-24T09:11:46Z</time>
      </trkpt>
      <trkpt lat="44.12294" lon="3.21398">
        <ele>521.20001220703</ele>
        <time>2010-10-24T09:11:54Z</time>
      </trkpt>
      <trkpt lat="44.12296" lon="3.21398">
        <ele>521.40002441406</ele>
        <time>2010-10-24T09:11:55Z</time>
      </trkpt>
      <trkpt lat="44.123" lon="3.21397">
        <ele>522.40002441406</ele>
        <time>2010-10-24T09:11:59Z</time>
      </trkpt>
      <trkpt lat="44.12305" lon="3.21396">
        <ele>523.20001220703</ele>
        <time>2010-10-24T09:12:03Z</time>
      </trkpt>
      <trkpt lat="44.12312" lon="3.21392">
        <ele>524.79998779297</ele>
        <time>2010-10-24T09:12:10Z</time>
      </trkpt>
      <trkpt lat="44.12313" lon="3.21391">
        <ele>525.40002441406</ele>
        <time>2010-10-24T09:12:13Z</time>
      </trkpt>
      <trkpt lat="44.12332" lon="3.21388">
        <ele>527.40002441406</ele>
        <time>2010-10-24T09:12:25Z</time>
      </trkpt>
      <trkpt lat="44.12335" lon="3.21386">
        <ele>527.79998779297</ele>
        <time>2010-10-24T09:12:27Z</time>
      </trkpt>
      <trkpt lat="44.12347" lon="3.21376">
        <ele>529.40002441406</ele>
        <time>2010-10-24T09:12:33Z</time>
      </trkpt>
      <trkpt lat="44.12362" lon="3.21361">
        <ele>531.20001220703</ele>
        <time>2010-10-24T09:12:40Z</time>
      </trkpt>
      <trkpt lat="44.12363" lon="3.21359">
        <ele>531.40002441406</ele>
        <time>2010-10-24T09:12:41Z</time>
      </trkpt>
      <trkpt lat="44.12369" lon="3.21356">
        <ele>531.40002441406</ele>
        <time>2010-10-24T09:12:44Z</time>
      </trkpt>
      <trkpt lat="44.12376" lon="3.21345">
        <ele>531.79998779297</ele>
        <time>2010-10-24T09:12:50Z</time>
      </trkpt>
      <trkpt lat="44.12376" lon="3.21342">
        <ele>531.79998779297</ele>
        <time>2010-10-24T09:12:51Z</time>
      </trkpt>
      <trkpt lat="44.12389" lon="3.21327">
        <ele>532.59997558594</ele>
        <time>2010-10-24T09:12:58Z</time>
      </trkpt>
      <trkpt lat="44.12394" lon="3.21325">
        <ele>532.79998779297</ele>
        <time>2010-10-24T09:13:00Z</time>
      </trkpt>
      <trkpt lat="44.12406" lon="3.21318">
        <ele>533.20001220703</ele>
        <time>2010-10-24T09:13:05Z</time>
      </trkpt>
      <trkpt lat="44.12424" lon="3.21314">
        <ele>533.79998779297</ele>
        <time>2010-10-24T09:13:13Z</time>
      </trkpt>
      <trkpt lat="44.12442" lon="3.21309">
        <ele>534.40002441406</ele>
        <time>2010-10-24T09:13:21Z</time>
      </trkpt>
      <trkpt lat="44.12461" lon="3.21309">
        <ele>534.40002441406</ele>
        <time>2010-10-24T09:13:29Z</time>
      </trkpt>
      <trkpt lat="44.1248" lon="3.21307">
        <ele>535</ele>
        <time>2010-10-24T09:13:37Z</time>
      </trkpt>
      <trkpt lat="44.12499" lon="3.2131">
        <ele>536.20001220703</ele>
        <time>2010-10-24T09:13:47Z</time>
      </trkpt>
      <trkpt lat="44.12518" lon="3.21306">
        <ele>537</ele>
        <time>2010-10-24T09:13:56Z</time>
      </trkpt>
      <trkpt lat="44.12534" lon="3.21291">
        <ele>536.79998779297</ele>
        <time>2010-10-24T09:14:04Z</time>
      </trkpt>
      <trkpt lat="44.12552" lon="3.21284">
        <ele>537</ele>
        <time>2010-10-24T09:14:12Z</time>
      </trkpt>
      <trkpt lat="44.12554" lon="3.21283">
        <ele>537.20001220703</ele>
        <time>2010-10-24T09:14:13Z</time>
      </trkpt>
      <trkpt lat="44.1256" lon="3.21276">
        <ele>538</ele>
        <time>2010-10-24T09:14:17Z</time>
      </trkpt>
      <trkpt lat="44.12566" lon="3.21266">
        <ele>539.40002441406</ele>
        <time>2010-10-24T09:14:21Z</time>
      </trkpt>
      <trkpt lat="44.12583" lon="3.21259">
        <ele>542.40002441406</ele>
        <time>2010-10-24T09:14:31Z</time>
      </trkpt>
      <trkpt lat="44.12587" lon="3.21258">
        <ele>543.20001220703</ele>
        <time>2010-10-24T09:14:34Z</time>
      </trkpt>
      <trkpt lat="44.12589" lon="3.21258">
        <ele>543.40002441406</ele>
        <time>2010-10-24T09:14:37Z</time>
      </trkpt>
      <trkpt lat="44.12596" lon="3.21255">
        <ele>544</ele>
        <time>2010-10-24T09:14:41Z</time>
      </trkpt>
      <trkpt lat="44.12601" lon="3.21253">
        <ele>544.20001220703</ele>
        <time>2010-10-24T09:14:44Z</time>
      </trkpt>
      <trkpt lat="44.12603" lon="3.21252">
        <ele>544.40002441406</ele>
        <time>2010-10-24T09:14:45Z</time>
      </trkpt>
      <trkpt lat="44.12608" lon="3.21248">
        <ele>544.59997558594</ele>
        <time>2010-10-24T09:14:49Z</time>
      </trkpt>
      <trkpt lat="44.12616" lon="3.21246">
        <ele>545</ele>
        <time>2010-10-24T09:14:57Z</time>
      </trkpt>
      <trkpt lat="44.12617" lon="3.21247">
        <ele>545</ele>
        <time>2010-10-24T09:14:59Z</time>
      </trkpt>
      <trkpt lat="44.12634" lon="3.2125">
        <ele>547.40002441406</ele>
        <time>2010-10-24T09:15:16Z</time>
      </trkpt>
      <trkpt lat="44.12652" lon="3.21247">
        <ele>550.20001220703</ele>
        <time>2010-10-24T09:15:31Z</time>
      </trkpt>
      <trkpt lat="44.12663" lon="3.21245">
        <ele>552</ele>
        <time>2010-10-24T09:15:38Z</time>
      </trkpt>
      <trkpt lat="44.1267" lon="3.21243">
        <ele>552.79998779297</ele>
        <time>2010-10-24T09:15:42Z</time>
      </trkpt>
      <trkpt lat="44.12671" lon="3.21242">
        <ele>553.20001220703</ele>
        <time>2010-10-24T09:15:43Z</time>
      </trkpt>
      <trkpt lat="44.12677" lon="3.21239">
        <ele>554.59997558594</ele>
        <time>2010-10-24T09:15:49Z</time>
      </trkpt>
      <trkpt lat="44.12682" lon="3.21236">
        <ele>555.59997558594</ele>
        <time>2010-10-24T09:15:53Z</time>
      </trkpt>
      <trkpt lat="44.12685" lon="3.21231">
        <ele>556.20001220703</ele>
        <time>2010-10-24T09:15:55Z</time>
      </trkpt>
      <trkpt lat="44.12689" lon="3.21225">
        <ele>557.40002441406</ele>
        <time>2010-10-24T09:15:58Z</time>
      </trkpt>
      <trkpt lat="44.12697" lon="3.21219">
        <ele>558.59997558594</ele>
        <time>2010-10-24T09:16:02Z</time>
      </trkpt>
      <trkpt lat="44.127" lon="3.21218">
        <ele>559.20001220703</ele>
        <time>2010-10-24T09:16:04Z</time>
      </trkpt>
      <trkpt lat="44.12708" lon="3.21219">
        <ele>561.59997558594</ele>
        <time>2010-10-24T09:16:12Z</time>
      </trkpt>
      <trkpt lat="44.12713" lon="3.21214">
        <ele>563.79998779297</ele>
        <time>2010-10-24T09:16:18Z</time>
      </trkpt>
      <trkpt lat="44.12714" lon="3.21214">
        <ele>563.79998779297</ele>
        <time>2010-10-24T09:16:19Z</time>
      </trkpt>
      <trkpt lat="44.12712" lon="3.21214">
        <ele>564.40002441406</ele>
        <time>2010-10-24T09:16:21Z</time>
      </trkpt>
      <trkpt lat="44.12711" lon="3.21211">
        <ele>565.20001220703</ele>
        <time>2010-10-24T09:16:23Z</time>
      </trkpt>
      <trkpt lat="44.1271" lon="3.21207">
        <ele>565.79998779297</ele>
        <time>2010-10-24T09:16:25Z</time>
      </trkpt>
      <trkpt lat="44.12709" lon="3.21202">
        <ele>566.59997558594</ele>
        <time>2010-10-24T09:16:28Z</time>
      </trkpt>
      <trkpt lat="44.12697" lon="3.21198">
        <ele>569.20001220703</ele>
        <time>2010-10-24T09:16:35Z</time>
      </trkpt>
      <trkpt lat="44.12692" lon="3.21189">
        <ele>571.59997558594</ele>
        <time>2010-10-24T09:16:42Z</time>
      </trkpt>
      <trkpt lat="44.12688" lon="3.21179">
        <ele>573.79998779297</ele>
        <time>2010-10-24T09:16:50Z</time>
      </trkpt>
      <trkpt lat="44.12686" lon="3.21177">
        <ele>574.40002441406</ele>
        <time>2010-10-24T09:16:52Z</time>
      </trkpt>
      <trkpt lat="44.12672" lon="3.21163">
        <ele>577.79998779297</ele>
        <time>2010-10-24T09:17:05Z</time>
      </trkpt>
      <trkpt lat="44.12669" lon="3.21159">
        <ele>578.59997558594</ele>
        <time>2010-10-24T09:17:08Z</time>
      </trkpt>
      <trkpt lat="44.12666" lon="3.21156">
        <ele>579</ele>
        <time>2010-10-24T09:17:11Z</time>
      </trkpt>
      <trkpt lat="44.12664" lon="3.21153">
        <ele>580</ele>
        <time>2010-10-24T09:17:15Z</time>
      </trkpt>
      <trkpt lat="44.12663" lon="3.21152">
        <ele>580.20001220703</ele>
        <time>2010-10-24T09:17:16Z</time>
      </trkpt>
      <trkpt lat="44.12658" lon="3.21145">
        <ele>580.79998779297</ele>
        <time>2010-10-24T09:17:19Z</time>
      </trkpt>
      <trkpt lat="44.12653" lon="3.21122">
        <ele>582.59997558594</ele>
        <time>2010-10-24T09:17:28Z</time>
      </trkpt>
      <trkpt lat="44.12655" lon="3.21116">
        <ele>583.20001220703</ele>
        <time>2010-10-24T09:17:30Z</time>
      </trkpt>
      <trkpt lat="44.12658" lon="3.21111">
        <ele>583.79998779297</ele>
        <time>2010-10-24T09:17:33Z</time>
      </trkpt>
      <trkpt lat="44.12659" lon="3.21096">
        <ele>585.20001220703</ele>
        <time>2010-10-24T09:17:39Z</time>
      </trkpt>
      <trkpt lat="44.12661" lon="3.21078">
        <ele>586.59997558594</ele>
        <time>2010-10-24T09:17:45Z</time>
      </trkpt>
      <trkpt lat="44.12662" lon="3.21069">
        <ele>587.20001220703</ele>
        <time>2010-10-24T09:17:48Z</time>
      </trkpt>
      <trkpt lat="44.12661" lon="3.21059">
        <ele>587.59997558594</ele>
        <time>2010-10-24T09:17:51Z</time>
      </trkpt>
      <trkpt lat="44.12661" lon="3.21043">
        <ele>588.40002441406</ele>
        <time>2010-10-24T09:17:56Z</time>
      </trkpt>
      <trkpt lat="44.1266" lon="3.21036">
        <ele>588.79998779297</ele>
        <time>2010-10-24T09:17:58Z</time>
      </trkpt>
      <trkpt lat="44.12657" lon="3.21018">
        <ele>589</ele>
        <time>2010-10-24T09:18:03Z</time>
      </trkpt>
      <trkpt lat="44.12658" lon="3.21016">
        <ele>589.20001220703</ele>
        <time>2010-10-24T09:18:04Z</time>
      </trkpt>
      <trkpt lat="44.12647" lon="3.21003">
        <ele>590.20001220703</ele>
        <time>2010-10-24T09:18:11Z</time>
      </trkpt>
      <trkpt lat="44.12649" lon="3.21">
        <ele>590.59997558594</ele>
        <time>2010-10-24T09:18:15Z</time>
      </trkpt>
      <trkpt lat="44.12632" lon="3.20996">
        <ele>590.40002441406</ele>
        <time>2010-10-24T09:18:22Z</time>
      </trkpt>
      <trkpt lat="44.12629" lon="3.20991">
        <ele>590.20001220703</ele>
        <time>2010-10-24T09:18:25Z</time>
      </trkpt>
      <trkpt lat="44.12624" lon="3.20981">
        <ele>590</ele>
        <time>2010-10-24T09:18:29Z</time>
      </trkpt>
      <trkpt lat="44.12619" lon="3.20978">
        <ele>590</ele>
        <time>2010-10-24T09:18:31Z</time>
      </trkpt>
      <trkpt lat="44.1261" lon="3.20973">
        <ele>589.79998779297</ele>
        <time>2010-10-24T09:18:35Z</time>
      </trkpt>
      <trkpt lat="44.12601" lon="3.2097">
        <ele>589.59997558594</ele>
        <time>2010-10-24T09:18:38Z</time>
      </trkpt>
      <trkpt lat="44.12592" lon="3.20965">
        <ele>589.40002441406</ele>
        <time>2010-10-24T09:18:42Z</time>
      </trkpt>
      <trkpt lat="44.12586" lon="3.20961">
        <ele>589</ele>
        <time>2010-10-24T09:18:45Z</time>
      </trkpt>
      <trkpt lat="44.12584" lon="3.20961">
        <ele>589</ele>
        <time>2010-10-24T09:18:46Z</time>
      </trkpt>
      <trkpt lat="44.12576" lon="3.2096">
        <ele>588.79998779297</ele>
        <time>2010-10-24T09:18:49Z</time>
      </trkpt>
      <trkpt lat="44.12564" lon="3.20954">
        <ele>588.59997558594</ele>
        <time>2010-10-24T09:18:53Z</time>
      </trkpt>
      <trkpt lat="44.1255" lon="3.20946">
        <ele>588</ele>
        <time>2010-10-24T09:18:59Z</time>
      </trkpt>
      <trkpt lat="44.12546" lon="3.20942">
        <ele>587.79998779297</ele>
        <time>2010-10-24T09:19:01Z</time>
      </trkpt>
      <trkpt lat="44.12533" lon="3.20939">
        <ele>588.20001220703</ele>
        <time>2010-10-24T09:19:07Z</time>
      </trkpt>
      <trkpt lat="44.12529" lon="3.20933">
        <ele>588</ele>
        <time>2010-10-24T09:19:09Z</time>
      </trkpt>
      <trkpt lat="44.12528" lon="3.2093">
        <ele>588</ele>
        <time>2010-10-24T09:19:10Z</time>
      </trkpt>
      <trkpt lat="44.12526" lon="3.20908">
        <ele>588.40002441406</ele>
        <time>2010-10-24T09:19:19Z</time>
      </trkpt>
      <trkpt lat="44.12527" lon="3.20903">
        <ele>588.40002441406</ele>
        <time>2010-10-24T09:19:21Z</time>
      </trkpt>
      <trkpt lat="44.1253" lon="3.20897">
        <ele>588.59997558594</ele>
        <time>2010-10-24T09:19:24Z</time>
      </trkpt>
      <trkpt lat="44.12529" lon="3.20896">
        <ele>588.79998779297</ele>
        <time>2010-10-24T09:19:25Z</time>
      </trkpt>
      <trkpt lat="44.12535" lon="3.20886">
        <ele>592.20001220703</ele>
        <time>2010-10-24T09:19:36Z</time>
      </trkpt>
      <trkpt lat="44.12535" lon="3.20883">
        <ele>593.59997558594</ele>
        <time>2010-10-24T09:19:39Z</time>
      </trkpt>
      <trkpt lat="44.12535" lon="3.20876">
        <ele>596</ele>
        <time>2010-10-24T09:19:45Z</time>
      </trkpt>
      <trkpt lat="44.12536" lon="3.20872">
        <ele>597.40002441406</ele>
        <time>2010-10-24T09:19:47Z</time>
      </trkpt>
      <trkpt lat="44.12535" lon="3.20862">
        <ele>601.20001220703</ele>
        <time>2010-10-24T09:19:53Z</time>
      </trkpt>
      <trkpt lat="44.12535" lon="3.2086">
        <ele>603.79998779297</ele>
        <time>2010-10-24T09:19:58Z</time>
      </trkpt>
      <trkpt lat="44.12533" lon="3.20857">
        <ele>605</ele>
        <time>2010-10-24T09:20:01Z</time>
      </trkpt>
      <trkpt lat="44.12537" lon="3.20853">
        <ele>608</ele>
        <time>2010-10-24T09:20:09Z</time>
      </trkpt>
      <trkpt lat="44.12537" lon="3.20851">
        <ele>609</ele>
        <time>2010-10-24T09:20:12Z</time>
      </trkpt>
      <trkpt lat="44.12542" lon="3.20845">
        <ele>608.40002441406</ele>
        <time>2010-10-24T09:20:14Z</time>
      </trkpt>
      <trkpt lat="44.1254" lon="3.20833">
        <ele>608.40002441406</ele>
        <time>2010-10-24T09:20:22Z</time>
      </trkpt>
      <trkpt lat="44.12537" lon="3.20828">
        <ele>608.20001220703</ele>
        <time>2010-10-24T09:20:26Z</time>
      </trkpt>
      <trkpt lat="44.12535" lon="3.20824">
        <ele>608.20001220703</ele>
        <time>2010-10-24T09:20:29Z</time>
      </trkpt>
      <trkpt lat="44.12534" lon="3.20809">
        <ele>608.20001220703</ele>
        <time>2010-10-24T09:20:35Z</time>
      </trkpt>
      <trkpt lat="44.12533" lon="3.20805">
        <ele>608.20001220703</ele>
        <time>2010-10-24T09:20:36Z</time>
      </trkpt>
      <trkpt lat="44.12532" lon="3.20778">
        <ele>608.59997558594</ele>
        <time>2010-10-24T09:20:44Z</time>
      </trkpt>
      <trkpt lat="44.12523" lon="3.20753">
        <ele>609.20001220703</ele>
        <time>2010-10-24T09:20:51Z</time>
      </trkpt>
      <trkpt lat="44.1252" lon="3.20738">
        <ele>609.59997558594</ele>
        <time>2010-10-24T09:20:55Z</time>
      </trkpt>
      <trkpt lat="44.12518" lon="3.20726">
        <ele>610</ele>
        <time>2010-10-24T09:20:58Z</time>
      </trkpt>
      <trkpt lat="44.1252" lon="3.20701">
        <ele>609.79998779297</ele>
        <time>2010-10-24T09:21:05Z</time>
      </trkpt>
      <trkpt lat="44.12526" lon="3.20676">
        <ele>610.20001220703</ele>
        <time>2010-10-24T09:21:12Z</time>
      </trkpt>
      <trkpt lat="44.12526" lon="3.20672">
        <ele>610.20001220703</ele>
        <time>2010-10-24T09:21:13Z</time>
      </trkpt>
      <trkpt lat="44.12528" lon="3.20657">
        <ele>610.40002441406</ele>
        <time>2010-10-24T09:21:17Z</time>
      </trkpt>
      <trkpt lat="44.12529" lon="3.2065">
        <ele>610.40002441406</ele>
        <time>2010-10-24T09:21:19Z</time>
      </trkpt>
      <trkpt lat="44.12531" lon="3.20625">
        <ele>610.20001220703</ele>
        <time>2010-10-24T09:21:26Z</time>
      </trkpt>
      <trkpt lat="44.1254" lon="3.20603">
        <ele>610.20001220703</ele>
        <time>2010-10-24T09:21:32Z</time>
      </trkpt>
      <trkpt lat="44.1254" lon="3.20578">
        <ele>610</ele>
        <time>2010-10-24T09:21:39Z</time>
      </trkpt>
      <trkpt lat="44.12534" lon="3.20563">
        <ele>610</ele>
        <time>2010-10-24T09:21:45Z</time>
      </trkpt>
      <trkpt lat="44.12531" lon="3.20554">
        <ele>610</ele>
        <time>2010-10-24T09:21:48Z</time>
      </trkpt>
      <trkpt lat="44.1253" lon="3.20549">
        <ele>609.79998779297</ele>
        <time>2010-10-24T09:21:50Z</time>
      </trkpt>
      <trkpt lat="44.12529" lon="3.20543">
        <ele>609.79998779297</ele>
        <time>2010-10-24T09:21:53Z</time>
      </trkpt>
      <trkpt lat="44.12527" lon="3.20535">
        <ele>609.79998779297</ele>
        <time>2010-10-24T09:21:59Z</time>
      </trkpt>
      <trkpt lat="44.12524" lon="3.20529">
        <ele>610</ele>
        <time>2010-10-24T09:22:03Z</time>
      </trkpt>
      <trkpt lat="44.12522" lon="3.20522">
        <ele>610.40002441406</ele>
        <time>2010-10-24T09:22:08Z</time>
      </trkpt>
      <trkpt lat="44.1252" lon="3.20511">
        <ele>611.40002441406</ele>
        <time>2010-10-24T09:22:16Z</time>
      </trkpt>
      <trkpt lat="44.12523" lon="3.20505">
        <ele>612</ele>
        <time>2010-10-24T09:22:19Z</time>
      </trkpt>
      <trkpt lat="44.1253" lon="3.20497">
        <ele>612.40002441406</ele>
        <time>2010-10-24T09:22:26Z</time>
      </trkpt>
      <trkpt lat="44.12536" lon="3.20486">
        <ele>613.20001220703</ele>
        <time>2010-10-24T09:22:30Z</time>
      </trkpt>
      <trkpt lat="44.12551" lon="3.20471">
        <ele>614.79998779297</ele>
        <time>2010-10-24T09:22:40Z</time>
      </trkpt>
      <trkpt lat="44.12563" lon="3.20452">
        <ele>615.40002441406</ele>
        <time>2010-10-24T09:22:49Z</time>
      </trkpt>
      <trkpt lat="44.12566" lon="3.2044">
        <ele>615.40002441406</ele>
        <time>2010-10-24T09:22:56Z</time>
      </trkpt>
      <trkpt lat="44.12566" lon="3.20425">
        <ele>615.40002441406</ele>
        <time>2010-10-24T09:23:02Z</time>
      </trkpt>
      <trkpt lat="44.12574" lon="3.20401">
        <ele>615.59997558594</ele>
        <time>2010-10-24T09:23:16Z</time>
      </trkpt>
      <trkpt lat="44.12584" lon="3.20384">
        <ele>616</ele>
        <time>2010-10-24T09:23:27Z</time>
      </trkpt>
      <trkpt lat="44.12585" lon="3.2038">
        <ele>616.20001220703</ele>
        <time>2010-10-24T09:23:28Z</time>
      </trkpt>
      <trkpt lat="44.12588" lon="3.20374">
        <ele>616.79998779297</ele>
        <time>2010-10-24T09:23:31Z</time>
      </trkpt>
      <trkpt lat="44.12592" lon="3.2037">
        <ele>617</ele>
        <time>2010-10-24T09:23:35Z</time>
      </trkpt>
      <trkpt lat="44.12593" lon="3.20357">
        <ele>617.79998779297</ele>
        <time>2010-10-24T09:23:39Z</time>
      </trkpt>
      <trkpt lat="44.12593" lon="3.20353">
        <ele>617.79998779297</ele>
        <time>2010-10-24T09:23:41Z</time>
      </trkpt>
      <trkpt lat="44.12595" lon="3.20332">
        <ele>618.59997558594</ele>
        <time>2010-10-24T09:23:50Z</time>
      </trkpt>
      <trkpt lat="44.12597" lon="3.20326">
        <ele>618.79998779297</ele>
        <time>2010-10-24T09:23:53Z</time>
      </trkpt>
      <trkpt lat="44.12598" lon="3.20322">
        <ele>619.20001220703</ele>
        <time>2010-10-24T09:23:55Z</time>
      </trkpt>
      <trkpt lat="44.12599" lon="3.20315">
        <ele>619.20001220703</ele>
        <time>2010-10-24T09:23:59Z</time>
      </trkpt>
      <trkpt lat="44.12603" lon="3.20307">
        <ele>619.79998779297</ele>
        <time>2010-10-24T09:24:03Z</time>
      </trkpt>
      <trkpt lat="44.12604" lon="3.20304">
        <ele>620</ele>
        <time>2010-10-24T09:24:05Z</time>
      </trkpt>
      <trkpt lat="44.12605" lon="3.20281">
        <ele>621</ele>
        <time>2010-10-24T09:24:11Z</time>
      </trkpt>
      <trkpt lat="44.12606" lon="3.20271">
        <ele>621.59997558594</ele>
        <time>2010-10-24T09:24:14Z</time>
      </trkpt>
      <trkpt lat="44.12607" lon="3.20256">
        <ele>623</ele>
        <time>2010-10-24T09:24:19Z</time>
      </trkpt>
      <trkpt lat="44.12608" lon="3.20253">
        <ele>623.20001220703</ele>
        <time>2010-10-24T09:24:20Z</time>
      </trkpt>
      <trkpt lat="44.12612" lon="3.20234">
        <ele>625</ele>
        <time>2010-10-24T09:24:26Z</time>
      </trkpt>
      <trkpt lat="44.12614" lon="3.20232">
        <ele>625.40002441406</ele>
        <time>2010-10-24T09:24:27Z</time>
      </trkpt>
      <trkpt lat="44.12631" lon="3.20229">
        <ele>626.40002441406</ele>
        <time>2010-10-24T09:24:34Z</time>
      </trkpt>
      <trkpt lat="44.12639" lon="3.20232">
        <ele>626.79998779297</ele>
        <time>2010-10-24T09:24:38Z</time>
      </trkpt>
      <trkpt lat="44.12643" lon="3.20237">
        <ele>627.59997558594</ele>
        <time>2010-10-24T09:24:42Z</time>
      </trkpt>
      <trkpt lat="44.12647" lon="3.20239">
        <ele>628.59997558594</ele>
        <time>2010-10-24T09:24:46Z</time>
      </trkpt>
      <trkpt lat="44.12648" lon="3.20239">
        <ele>628.79998779297</ele>
        <time>2010-10-24T09:24:47Z</time>
      </trkpt>
      <trkpt lat="44.12667" lon="3.20237">
        <ele>631.20001220703</ele>
        <time>2010-10-24T09:24:55Z</time>
      </trkpt>
      <trkpt lat="44.12688" lon="3.20236">
        <ele>632.59997558594</ele>
        <time>2010-10-24T09:25:03Z</time>
      </trkpt>
      <trkpt lat="44.12708" lon="3.20237">
        <ele>634.59997558594</ele>
        <time>2010-10-24T09:25:15Z</time>
      </trkpt>
      <trkpt lat="44.12725" lon="3.20241">
        <ele>637.40002441406</ele>
        <time>2010-10-24T09:25:31Z</time>
      </trkpt>
      <trkpt lat="44.12726" lon="3.20241">
        <ele>637.59997558594</ele>
        <time>2010-10-24T09:25:32Z</time>
      </trkpt>
      <trkpt lat="44.12736" lon="3.20241">
        <ele>639.20001220703</ele>
        <time>2010-10-24T09:25:38Z</time>
      </trkpt>
      <trkpt lat="44.12742" lon="3.20243">
        <ele>640.20001220703</ele>
        <time>2010-10-24T09:25:41Z</time>
      </trkpt>
      <trkpt lat="44.12744" lon="3.20245">
        <ele>640.40002441406</ele>
        <time>2010-10-24T09:25:42Z</time>
      </trkpt>
      <trkpt lat="44.12757" lon="3.20253">
        <ele>643.20001220703</ele>
        <time>2010-10-24T09:25:50Z</time>
      </trkpt>
      <trkpt lat="44.1276" lon="3.20253">
        <ele>643.79998779297</ele>
        <time>2010-10-24T09:25:51Z</time>
      </trkpt>
      <trkpt lat="44.12766" lon="3.20256">
        <ele>645.79998779297</ele>
        <time>2010-10-24T09:25:55Z</time>
      </trkpt>
      <trkpt lat="44.12767" lon="3.20257">
        <ele>646.20001220703</ele>
        <time>2010-10-24T09:25:56Z</time>
      </trkpt>
      <trkpt lat="44.12777" lon="3.20258">
        <ele>647.79998779297</ele>
        <time>2010-10-24T09:26:00Z</time>
      </trkpt>
      <trkpt lat="44.12778" lon="3.20258">
        <ele>648.40002441406</ele>
        <time>2010-10-24T09:26:01Z</time>
      </trkpt>
      <trkpt lat="44.12788" lon="3.20249">
        <ele>650.59997558594</ele>
        <time>2010-10-24T09:26:06Z</time>
      </trkpt>
      <trkpt lat="44.12794" lon="3.20243">
        <ele>651.40002441406</ele>
        <time>2010-10-24T09:26:09Z</time>
      </trkpt>
      <trkpt lat="44.12796" lon="3.20242">
        <ele>651.59997558594</ele>
        <time>2010-10-24T09:26:10Z</time>
      </trkpt>
      <trkpt lat="44.12804" lon="3.20238">
        <ele>652.59997558594</ele>
        <time>2010-10-24T09:26:14Z</time>
      </trkpt>
      <trkpt lat="44.12808" lon="3.20229">
        <ele>653.20001220703</ele>
        <time>2010-10-24T09:26:18Z</time>
      </trkpt>
      <trkpt lat="44.1281" lon="3.20224">
        <ele>653.59997558594</ele>
        <time>2010-10-24T09:26:20Z</time>
      </trkpt>
      <trkpt lat="44.12817" lon="3.20208">
        <ele>654.40002441406</ele>
        <time>2010-10-24T09:26:27Z</time>
      </trkpt>
      <trkpt lat="44.1283" lon="3.2019">
        <ele>655.20001220703</ele>
        <time>2010-10-24T09:26:36Z</time>
      </trkpt>
      <trkpt lat="44.12837" lon="3.20184">
        <ele>655.59997558594</ele>
        <time>2010-10-24T09:26:40Z</time>
      </trkpt>
      <trkpt lat="44.12838" lon="3.20183">
        <ele>655.59997558594</ele>
        <time>2010-10-24T09:26:41Z</time>
      </trkpt>
      <trkpt lat="44.12844" lon="3.20173">
        <ele>656</ele>
        <time>2010-10-24T09:26:46Z</time>
      </trkpt>
      <trkpt lat="44.12849" lon="3.20158">
        <ele>656.20001220703</ele>
        <time>2010-10-24T09:26:52Z</time>
      </trkpt>
      <trkpt lat="44.12852" lon="3.20152">
        <ele>656.59997558594</ele>
        <time>2010-10-24T09:26:56Z</time>
      </trkpt>
      <trkpt lat="44.12852" lon="3.20151">
        <ele>656.79998779297</ele>
        <time>2010-10-24T09:26:57Z</time>
      </trkpt>
      <trkpt lat="44.12854" lon="3.2015">
        <ele>656.79998779297</ele>
        <time>2010-10-24T09:26:58Z</time>
      </trkpt>
      <trkpt lat="44.12861" lon="3.20146">
        <ele>657.20001220703</ele>
        <time>2010-10-24T09:27:02Z</time>
      </trkpt>
      <trkpt lat="44.12869" lon="3.20137">
        <ele>657.79998779297</ele>
        <time>2010-10-24T09:27:06Z</time>
      </trkpt>
      <trkpt lat="44.12885" lon="3.20125">
        <ele>659.20001220703</ele>
        <time>2010-10-24T09:27:15Z</time>
      </trkpt>
      <trkpt lat="44.12893" lon="3.20126">
        <ele>660</ele>
        <time>2010-10-24T09:27:19Z</time>
      </trkpt>
      <trkpt lat="44.12901" lon="3.20122">
        <ele>660.59997558594</ele>
        <time>2010-10-24T09:27:23Z</time>
      </trkpt>
      <trkpt lat="44.12902" lon="3.20124">
        <ele>660.59997558594</ele>
        <time>2010-10-24T09:27:24Z</time>
      </trkpt>
      <trkpt lat="44.12918" lon="3.20133">
        <ele>662.40002441406</ele>
        <time>2010-10-24T09:27:33Z</time>
      </trkpt>
      <trkpt lat="44.12937" lon="3.20142">
        <ele>664.59997558594</ele>
        <time>2010-10-24T09:27:42Z</time>
      </trkpt>
      <trkpt lat="44.12944" lon="3.20147">
        <ele>666.40002441406</ele>
        <time>2010-10-24T09:27:47Z</time>
      </trkpt>
      <trkpt lat="44.12954" lon="3.20142">
        <ele>668</ele>
        <time>2010-10-24T09:27:52Z</time>
      </trkpt>
      <trkpt lat="44.12972" lon="3.20132">
        <ele>670</ele>
        <time>2010-10-24T09:28:00Z</time>
      </trkpt>
      <trkpt lat="44.12983" lon="3.2012">
        <ele>672</ele>
        <time>2010-10-24T09:28:07Z</time>
      </trkpt>
      <trkpt lat="44.12988" lon="3.2012">
        <ele>672.59997558594</ele>
        <time>2010-10-24T09:28:11Z</time>
      </trkpt>
      <trkpt lat="44.13005" lon="3.20112">
        <ele>674.40002441406</ele>
        <time>2010-10-24T09:28:19Z</time>
      </trkpt>
      <trkpt lat="44.1301" lon="3.20112">
        <ele>674.40002441406</ele>
        <time>2010-10-24T09:28:21Z</time>
      </trkpt>
      <trkpt lat="44.13023" lon="3.20107">
        <ele>674.40002441406</ele>
        <time>2010-10-24T09:28:27Z</time>
      </trkpt>
      <trkpt lat="44.13037" lon="3.20104">
        <ele>674</ele>
        <time>2010-10-24T09:28:34Z</time>
      </trkpt>
      <trkpt lat="44.13041" lon="3.20101">
        <ele>673.79998779297</ele>
        <time>2010-10-24T09:28:36Z</time>
      </trkpt>
      <trkpt lat="44.13052" lon="3.20085">
        <ele>672.59997558594</ele>
        <time>2010-10-24T09:28:46Z</time>
      </trkpt>
      <trkpt lat="44.13052" lon="3.20082">
        <ele>672.59997558594</ele>
        <time>2010-10-24T09:28:47Z</time>
      </trkpt>
      <trkpt lat="44.13065" lon="3.20081">
        <ele>671.59997558594</ele>
        <time>2010-10-24T09:28:53Z</time>
      </trkpt>
      <trkpt lat="44.13067" lon="3.20084">
        <ele>671.40002441406</ele>
        <time>2010-10-24T09:28:54Z</time>
      </trkpt>
      <trkpt lat="44.13069" lon="3.20085">
        <ele>671.20001220703</ele>
        <time>2010-10-24T09:28:55Z</time>
      </trkpt>
      <trkpt lat="44.13077" lon="3.20073">
        <ele>670</ele>
        <time>2010-10-24T09:29:01Z</time>
      </trkpt>
      <trkpt lat="44.13077" lon="3.20059">
        <ele>669.20001220703</ele>
        <time>2010-10-24T09:29:06Z</time>
      </trkpt>
      <trkpt lat="44.1307" lon="3.20051">
        <ele>668.79998779297</ele>
        <time>2010-10-24T09:29:09Z</time>
      </trkpt>
      <trkpt lat="44.13063" lon="3.20038">
        <ele>668.40002441406</ele>
        <time>2010-10-24T09:29:13Z</time>
      </trkpt>
      <trkpt lat="44.13062" lon="3.20032">
        <ele>668</ele>
        <time>2010-10-24T09:29:16Z</time>
      </trkpt>
      <trkpt lat="44.1306" lon="3.20027">
        <ele>667.79998779297</ele>
        <time>2010-10-24T09:29:18Z</time>
      </trkpt>
      <trkpt lat="44.1305" lon="3.20003">
        <ele>667</ele>
        <time>2010-10-24T09:29:27Z</time>
      </trkpt>
      <trkpt lat="44.1304" lon="3.19982">
        <ele>666.20001220703</ele>
        <time>2010-10-24T09:29:34Z</time>
      </trkpt>
      <trkpt lat="44.13031" lon="3.19959">
        <ele>665.59997558594</ele>
        <time>2010-10-24T09:29:42Z</time>
      </trkpt>
      <trkpt lat="44.13028" lon="3.19934">
        <ele>664.59997558594</ele>
        <time>2010-10-24T09:29:50Z</time>
      </trkpt>
      <trkpt lat="44.13032" lon="3.19923">
        <ele>663.79998779297</ele>
        <time>2010-10-24T09:29:55Z</time>
      </trkpt>
      <trkpt lat="44.13028" lon="3.19908">
        <ele>662.79998779297</ele>
        <time>2010-10-24T09:30:01Z</time>
      </trkpt>
      <trkpt lat="44.13027" lon="3.19897">
        <ele>662</ele>
        <time>2010-10-24T09:30:05Z</time>
      </trkpt>
      <trkpt lat="44.13025" lon="3.19882">
        <ele>661</ele>
        <time>2010-10-24T09:30:10Z</time>
      </trkpt>
      <trkpt lat="44.13019" lon="3.19868">
        <ele>659.79998779297</ele>
        <time>2010-10-24T09:30:15Z</time>
      </trkpt>
      <trkpt lat="44.13012" lon="3.19866">
        <ele>658.79998779297</ele>
        <time>2010-10-24T09:30:19Z</time>
      </trkpt>
      <trkpt lat="44.13" lon="3.19865">
        <ele>657.20001220703</ele>
        <time>2010-10-24T09:30:25Z</time>
      </trkpt>
      <trkpt lat="44.12999" lon="3.19865">
        <ele>657</ele>
        <time>2010-10-24T09:30:26Z</time>
      </trkpt>
      <trkpt lat="44.12995" lon="3.19864">
        <ele>656.40002441406</ele>
        <time>2010-10-24T09:30:28Z</time>
      </trkpt>
      <trkpt lat="44.12987" lon="3.19857">
        <ele>655.20001220703</ele>
        <time>2010-10-24T09:30:32Z</time>
      </trkpt>
      <trkpt lat="44.1298" lon="3.19852">
        <ele>653.59997558594</ele>
        <time>2010-10-24T09:30:37Z</time>
      </trkpt>
      <trkpt lat="44.1297" lon="3.19847">
        <ele>652.59997558594</ele>
        <time>2010-10-24T09:30:41Z</time>
      </trkpt>
      <trkpt lat="44.12968" lon="3.19846">
        <ele>652.20001220703</ele>
        <time>2010-10-24T09:30:42Z</time>
      </trkpt>
      <trkpt lat="44.12962" lon="3.19844">
        <ele>651.79998779297</ele>
        <time>2010-10-24T09:30:44Z</time>
      </trkpt>
      <trkpt lat="44.12958" lon="3.1984">
        <ele>651.20001220703</ele>
        <time>2010-10-24T09:30:46Z</time>
      </trkpt>
      <trkpt lat="44.12953" lon="3.19831">
        <ele>650.20001220703</ele>
        <time>2010-10-24T09:30:50Z</time>
      </trkpt>
      <trkpt lat="44.12948" lon="3.19825">
        <ele>649.59997558594</ele>
        <time>2010-10-24T09:30:53Z</time>
      </trkpt>
      <trkpt lat="44.12943" lon="3.1982">
        <ele>648.79998779297</ele>
        <time>2010-10-24T09:30:56Z</time>
      </trkpt>
      <trkpt lat="44.12934" lon="3.1981">
        <ele>647.79998779297</ele>
        <time>2010-10-24T09:31:02Z</time>
      </trkpt>
      <trkpt lat="44.12928" lon="3.1981">
        <ele>647.40002441406</ele>
        <time>2010-10-24T09:31:04Z</time>
      </trkpt>
      <trkpt lat="44.12915" lon="3.19806">
        <ele>646.40002441406</ele>
        <time>2010-10-24T09:31:09Z</time>
      </trkpt>
      <trkpt lat="44.12905" lon="3.19799">
        <ele>645.59997558594</ele>
        <time>2010-10-24T09:31:14Z</time>
      </trkpt>
      <trkpt lat="44.12901" lon="3.1979">
        <ele>644.40002441406</ele>
        <time>2010-10-24T09:31:20Z</time>
      </trkpt>
      <trkpt lat="44.12886" lon="3.19771">
        <ele>643.40002441406</ele>
        <time>2010-10-24T09:31:28Z</time>
      </trkpt>
      <trkpt lat="44.12881" lon="3.19762">
        <ele>642.79998779297</ele>
        <time>2010-10-24T09:31:32Z</time>
      </trkpt>
      <trkpt lat="44.12875" lon="3.19752">
        <ele>642.40002441406</ele>
        <time>2010-10-24T09:31:36Z</time>
      </trkpt>
      <trkpt lat="44.12866" lon="3.19736">
        <ele>641.40002441406</ele>
        <time>2010-10-24T09:31:45Z</time>
      </trkpt>
      <trkpt lat="44.12863" lon="3.19732">
        <ele>640.79998779297</ele>
        <time>2010-10-24T09:31:50Z</time>
      </trkpt>
      <trkpt lat="44.12853" lon="3.1972">
        <ele>640</ele>
        <time>2010-10-24T09:32:02Z</time>
      </trkpt>
      <trkpt lat="44.12852" lon="3.19718">
        <ele>639.79998779297</ele>
        <time>2010-10-24T09:32:05Z</time>
      </trkpt>
      <trkpt lat="44.1285" lon="3.19717">
        <ele>639.79998779297</ele>
        <time>2010-10-24T09:32:07Z</time>
      </trkpt>
      <trkpt lat="44.12849" lon="3.1971">
        <ele>639.59997558594</ele>
        <time>2010-10-24T09:32:12Z</time>
      </trkpt>
      <trkpt lat="44.1284" lon="3.19698">
        <ele>639.20001220703</ele>
        <time>2010-10-24T09:32:28Z</time>
      </trkpt>
      <trkpt lat="44.12836" lon="3.19695">
        <ele>639.20001220703</ele>
        <time>2010-10-24T09:32:30Z</time>
      </trkpt>
      <trkpt lat="44.1284" lon="3.1968">
        <ele>639.40002441406</ele>
        <time>2010-10-24T09:32:38Z</time>
      </trkpt>
      <trkpt lat="44.12853" lon="3.1968">
        <ele>639.79998779297</ele>
        <time>2010-10-24T09:32:44Z</time>
      </trkpt>
      <trkpt lat="44.12857" lon="3.19682">
        <ele>639.79998779297</ele>
        <time>2010-10-24T09:32:46Z</time>
      </trkpt>
      <trkpt lat="44.12872" lon="3.19679">
        <ele>640.79998779297</ele>
        <time>2010-10-24T09:32:53Z</time>
      </trkpt>
      <trkpt lat="44.12877" lon="3.19678">
        <ele>641.20001220703</ele>
        <time>2010-10-24T09:32:55Z</time>
      </trkpt>
      <trkpt lat="44.12885" lon="3.19677">
        <ele>642</ele>
        <time>2010-10-24T09:32:59Z</time>
      </trkpt>
      <trkpt lat="44.12886" lon="3.19677">
        <ele>642.40002441406</ele>
        <time>2010-10-24T09:33:01Z</time>
      </trkpt>
      <trkpt lat="44.12889" lon="3.19674">
        <ele>643.59997558594</ele>
        <time>2010-10-24T09:33:05Z</time>
      </trkpt>
      <trkpt lat="44.1289" lon="3.19671">
        <ele>644.40002441406</ele>
        <time>2010-10-24T09:33:07Z</time>
      </trkpt>
      <trkpt lat="44.12894" lon="3.19667">
        <ele>645.20001220703</ele>
        <time>2010-10-24T09:33:10Z</time>
      </trkpt>
      <trkpt lat="44.12902" lon="3.19663">
        <ele>646</ele>
        <time>2010-10-24T09:33:16Z</time>
      </trkpt>
      <trkpt lat="44.12909" lon="3.19656">
        <ele>646.20001220703</ele>
        <time>2010-10-24T09:33:22Z</time>
      </trkpt>
      <trkpt lat="44.1291" lon="3.19655">
        <ele>646.20001220703</ele>
        <time>2010-10-24T09:33:23Z</time>
      </trkpt>
      <trkpt lat="44.12926" lon="3.19643">
        <ele>646.20001220703</ele>
        <time>2010-10-24T09:33:32Z</time>
      </trkpt>
      <trkpt lat="44.12934" lon="3.19636">
        <ele>646</ele>
        <time>2010-10-24T09:33:37Z</time>
      </trkpt>
      <trkpt lat="44.12943" lon="3.19635">
        <ele>645.79998779297</ele>
        <time>2010-10-24T09:33:41Z</time>
      </trkpt>
      <trkpt lat="44.12961" lon="3.19632">
        <ele>645</ele>
        <time>2010-10-24T09:33:49Z</time>
      </trkpt>
      <trkpt lat="44.12962" lon="3.19632">
        <ele>645</ele>
        <time>2010-10-24T09:33:50Z</time>
      </trkpt>
      <trkpt lat="44.12965" lon="3.19632">
        <ele>644.79998779297</ele>
        <time>2010-10-24T09:33:52Z</time>
      </trkpt>
      <trkpt lat="44.1298" lon="3.19628">
        <ele>643.79998779297</ele>
        <time>2010-10-24T09:33:59Z</time>
      </trkpt>
      <trkpt lat="44.12984" lon="3.19627">
        <ele>643.59997558594</ele>
        <time>2010-10-24T09:34:01Z</time>
      </trkpt>
      <trkpt lat="44.12997" lon="3.19623">
        <ele>642.79998779297</ele>
        <time>2010-10-24T09:34:08Z</time>
      </trkpt>
      <trkpt lat="44.13007" lon="3.19606">
        <ele>642</ele>
        <time>2010-10-24T09:34:16Z</time>
      </trkpt>
      <trkpt lat="44.13005" lon="3.19606">
        <ele>642</ele>
        <time>2010-10-24T09:34:17Z</time>
      </trkpt>
      <trkpt lat="44.12999" lon="3.19603">
        <ele>641.79998779297</ele>
        <time>2010-10-24T09:34:20Z</time>
      </trkpt>
      <trkpt lat="44.12989" lon="3.196">
        <ele>641.79998779297</ele>
        <time>2010-10-24T09:34:24Z</time>
      </trkpt>
      <trkpt lat="44.12985" lon="3.19599">
        <ele>641.59997558594</ele>
        <time>2010-10-24T09:34:26Z</time>
      </trkpt>
      <trkpt lat="44.12975" lon="3.19599">
        <ele>641.40002441406</ele>
        <time>2010-10-24T09:34:31Z</time>
      </trkpt>
      <trkpt lat="44.1297" lon="3.19608">
        <ele>641.40002441406</ele>
        <time>2010-10-24T09:34:35Z</time>
      </trkpt>
      <trkpt lat="44.12963" lon="3.19596">
        <ele>640.59997558594</ele>
        <time>2010-10-24T09:34:41Z</time>
      </trkpt>
      <trkpt lat="44.12956" lon="3.1959">
        <ele>640.20001220703</ele>
        <time>2010-10-24T09:34:45Z</time>
      </trkpt>
      <trkpt lat="44.12939" lon="3.19586">
        <ele>639.59997558594</ele>
        <time>2010-10-24T09:34:51Z</time>
      </trkpt>
      <trkpt lat="44.12929" lon="3.19578">
        <ele>639.20001220703</ele>
        <time>2010-10-24T09:34:55Z</time>
      </trkpt>
      <trkpt lat="44.12927" lon="3.19581">
        <ele>638.59997558594</ele>
        <time>2010-10-24T09:35:00Z</time>
      </trkpt>
      <trkpt lat="44.12927" lon="3.19583">
        <ele>638.40002441406</ele>
        <time>2010-10-24T09:35:01Z</time>
      </trkpt>
      <trkpt lat="44.12926" lon="3.19586">
        <ele>638.20001220703</ele>
        <time>2010-10-24T09:35:02Z</time>
      </trkpt>
      <trkpt lat="44.12915" lon="3.19602">
        <ele>637</ele>
        <time>2010-10-24T09:35:10Z</time>
      </trkpt>
      <trkpt lat="44.12911" lon="3.19605">
        <ele>636.59997558594</ele>
        <time>2010-10-24T09:35:12Z</time>
      </trkpt>
      <trkpt lat="44.12906" lon="3.19608">
        <ele>636.20001220703</ele>
        <time>2010-10-24T09:35:15Z</time>
      </trkpt>
      <trkpt lat="44.12897" lon="3.19603">
        <ele>635.20001220703</ele>
        <time>2010-10-24T09:35:20Z</time>
      </trkpt>
      <trkpt lat="44.12891" lon="3.19598">
        <ele>634</ele>
        <time>2010-10-24T09:35:25Z</time>
      </trkpt>
      <trkpt lat="44.12895" lon="3.19588">
        <ele>632.40002441406</ele>
        <time>2010-10-24T09:35:31Z</time>
      </trkpt>
      <trkpt lat="44.12895" lon="3.19587">
        <ele>632.20001220703</ele>
        <time>2010-10-24T09:35:32Z</time>
      </trkpt>
      <trkpt lat="44.12884" lon="3.19586">
        <ele>630.79998779297</ele>
        <time>2010-10-24T09:35:37Z</time>
      </trkpt>
      <trkpt lat="44.12878" lon="3.19587">
        <ele>630.20001220703</ele>
        <time>2010-10-24T09:35:39Z</time>
      </trkpt>
      <trkpt lat="44.12866" lon="3.19587">
        <ele>628.40002441406</ele>
        <time>2010-10-24T09:35:45Z</time>
      </trkpt>
      <trkpt lat="44.1286" lon="3.19585">
        <ele>627.40002441406</ele>
        <time>2010-10-24T09:35:48Z</time>
      </trkpt>
      <trkpt lat="44.12841" lon="3.19586">
        <ele>624.59997558594</ele>
        <time>2010-10-24T09:35:57Z</time>
      </trkpt>
      <trkpt lat="44.12836" lon="3.19585">
        <ele>623.40002441406</ele>
        <time>2010-10-24T09:36:00Z</time>
      </trkpt>
      <trkpt lat="44.1283" lon="3.19586">
        <ele>622.40002441406</ele>
        <time>2010-10-24T09:36:03Z</time>
      </trkpt>
      <trkpt lat="44.12822" lon="3.19585">
        <ele>620.79998779297</ele>
        <time>2010-10-24T09:36:07Z</time>
      </trkpt>
      <trkpt lat="44.12805" lon="3.19582">
        <ele>617.79998779297</ele>
        <time>2010-10-24T09:36:15Z</time>
      </trkpt>
      <trkpt lat="44.12804" lon="3.19581">
        <ele>617.40002441406</ele>
        <time>2010-10-24T09:36:16Z</time>
      </trkpt>
      <trkpt lat="44.128" lon="3.19577">
        <ele>616</ele>
        <time>2010-10-24T09:36:19Z</time>
      </trkpt>
      <trkpt lat="44.12797" lon="3.19562">
        <ele>612.59997558594</ele>
        <time>2010-10-24T09:36:27Z</time>
      </trkpt>
      <trkpt lat="44.12783" lon="3.19562">
        <ele>610.20001220703</ele>
        <time>2010-10-24T09:36:32Z</time>
      </trkpt>
      <trkpt lat="44.12779" lon="3.19561">
        <ele>609.40002441406</ele>
        <time>2010-10-24T09:36:34Z</time>
      </trkpt>
      <trkpt lat="44.12771" lon="3.19556">
        <ele>607.59997558594</ele>
        <time>2010-10-24T09:36:38Z</time>
      </trkpt>
      <trkpt lat="44.12762" lon="3.19552">
        <ele>605.79998779297</ele>
        <time>2010-10-24T09:36:42Z</time>
      </trkpt>
      <trkpt lat="44.12745" lon="3.19541">
        <ele>600.20001220703</ele>
        <time>2010-10-24T09:36:54Z</time>
      </trkpt>
      <trkpt lat="44.12731" lon="3.19534">
        <ele>597.40002441406</ele>
        <time>2010-10-24T09:37:00Z</time>
      </trkpt>
      <trkpt lat="44.12726" lon="3.19532">
        <ele>596.40002441406</ele>
        <time>2010-10-24T09:37:02Z</time>
      </trkpt>
      <trkpt lat="44.12712" lon="3.19516">
        <ele>592.59997558594</ele>
        <time>2010-10-24T09:37:10Z</time>
      </trkpt>
      <trkpt lat="44.12698" lon="3.19503">
        <ele>587.40002441406</ele>
        <time>2010-10-24T09:37:20Z</time>
      </trkpt>
      <trkpt lat="44.12684" lon="3.19503">
        <ele>584.79998779297</ele>
        <time>2010-10-24T09:37:25Z</time>
      </trkpt>
      <trkpt lat="44.12679" lon="3.19503">
        <ele>583.79998779297</ele>
        <time>2010-10-24T09:37:27Z</time>
      </trkpt>
      <trkpt lat="44.12659" lon="3.19505">
        <ele>580.40002441406</ele>
        <time>2010-10-24T09:37:34Z</time>
      </trkpt>
      <trkpt lat="44.1264" lon="3.19507">
        <ele>576.79998779297</ele>
        <time>2010-10-24T09:37:42Z</time>
      </trkpt>
      <trkpt lat="44.1262" lon="3.19504">
        <ele>573</ele>
        <time>2010-10-24T09:37:50Z</time>
      </trkpt>
      <trkpt lat="44.12608" lon="3.19503">
        <ele>569.20001220703</ele>
        <time>2010-10-24T09:37:57Z</time>
      </trkpt>
      <trkpt lat="44.12601" lon="3.19507">
        <ele>567</ele>
        <time>2010-10-24T09:38:01Z</time>
      </trkpt>
      <trkpt lat="44.12596" lon="3.1951">
        <ele>565.59997558594</ele>
        <time>2010-10-24T09:38:04Z</time>
      </trkpt>
      <trkpt lat="44.12592" lon="3.19511">
        <ele>564.40002441406</ele>
        <time>2010-10-24T09:38:06Z</time>
      </trkpt>
      <trkpt lat="44.12583" lon="3.19512">
        <ele>562.40002441406</ele>
        <time>2010-10-24T09:38:10Z</time>
      </trkpt>
      <trkpt lat="44.12574" lon="3.19532">
        <ele>559.20001220703</ele>
        <time>2010-10-24T09:38:16Z</time>
      </trkpt>
      <trkpt lat="44.12571" lon="3.19545">
        <ele>557.79998779297</ele>
        <time>2010-10-24T09:38:19Z</time>
      </trkpt>
      <trkpt lat="44.12568" lon="3.19557">
        <ele>556.40002441406</ele>
        <time>2010-10-24T09:38:22Z</time>
      </trkpt>
      <trkpt lat="44.12555" lon="3.19579">
        <ele>552.79998779297</ele>
        <time>2010-10-24T09:38:29Z</time>
      </trkpt>
      <trkpt lat="44.12542" lon="3.19602">
        <ele>549</ele>
        <time>2010-10-24T09:38:37Z</time>
      </trkpt>
      <trkpt lat="44.12542" lon="3.19603">
        <ele>548.59997558594</ele>
        <time>2010-10-24T09:38:38Z</time>
      </trkpt>
      <trkpt lat="44.12547" lon="3.19587">
        <ele>545.20001220703</ele>
        <time>2010-10-24T09:38:45Z</time>
      </trkpt>
      <trkpt lat="44.12548" lon="3.19583">
        <ele>544.79998779297</ele>
        <time>2010-10-24T09:38:46Z</time>
      </trkpt>
      <trkpt lat="44.12558" lon="3.19559">
        <ele>541</ele>
        <time>2010-10-24T09:38:55Z</time>
      </trkpt>
      <trkpt lat="44.12558" lon="3.19535">
        <ele>539</ele>
        <time>2010-10-24T09:39:01Z</time>
      </trkpt>
      <trkpt lat="44.12558" lon="3.19506">
        <ele>536.79998779297</ele>
        <time>2010-10-24T09:39:08Z</time>
      </trkpt>
      <trkpt lat="44.12561" lon="3.19499">
        <ele>536.20001220703</ele>
        <time>2010-10-24T09:39:10Z</time>
      </trkpt>
      <trkpt lat="44.1257" lon="3.19493">
        <ele>534.79998779297</ele>
        <time>2010-10-24T09:39:15Z</time>
      </trkpt>
      <trkpt lat="44.12571" lon="3.19495">
        <ele>533.40002441406</ele>
        <time>2010-10-24T09:39:21Z</time>
      </trkpt>
      <trkpt lat="44.12568" lon="3.19496">
        <ele>532.79998779297</ele>
        <time>2010-10-24T09:39:23Z</time>
      </trkpt>
      <trkpt lat="44.12556" lon="3.195">
        <ele>530.40002441406</ele>
        <time>2010-10-24T09:39:34Z</time>
      </trkpt>
      <trkpt lat="44.12552" lon="3.19506">
        <ele>529.59997558594</ele>
        <time>2010-10-24T09:39:37Z</time>
      </trkpt>
      <trkpt lat="44.12539" lon="3.19525">
        <ele>528.20001220703</ele>
        <time>2010-10-24T09:39:44Z</time>
      </trkpt>
      <trkpt lat="44.12522" lon="3.19541">
        <ele>526.79998779297</ele>
        <time>2010-10-24T09:39:51Z</time>
      </trkpt>
      <trkpt lat="44.12519" lon="3.19542">
        <ele>526.59997558594</ele>
        <time>2010-10-24T09:39:52Z</time>
      </trkpt>
      <trkpt lat="44.12504" lon="3.19541">
        <ele>525.59997558594</ele>
        <time>2010-10-24T09:39:57Z</time>
      </trkpt>
      <trkpt lat="44.12485" lon="3.19532">
        <ele>524.20001220703</ele>
        <time>2010-10-24T09:40:04Z</time>
      </trkpt>
      <trkpt lat="44.12466" lon="3.19528">
        <ele>522.79998779297</ele>
        <time>2010-10-24T09:40:12Z</time>
      </trkpt>
      <trkpt lat="44.12447" lon="3.19529">
        <ele>521.40002441406</ele>
        <time>2010-10-24T09:40:20Z</time>
      </trkpt>
      <trkpt lat="44.12429" lon="3.1953">
        <ele>520</ele>
        <time>2010-10-24T09:40:28Z</time>
      </trkpt>
      <trkpt lat="44.12412" lon="3.19523">
        <ele>519</ele>
        <time>2010-10-24T09:40:35Z</time>
      </trkpt>
      <trkpt lat="44.12408" lon="3.19521">
        <ele>518.79998779297</ele>
        <time>2010-10-24T09:40:37Z</time>
      </trkpt>
      <trkpt lat="44.12399" lon="3.19513">
        <ele>518.40002441406</ele>
        <time>2010-10-24T09:40:41Z</time>
      </trkpt>
      <trkpt lat="44.12395" lon="3.19509">
        <ele>518</ele>
        <time>2010-10-24T09:40:43Z</time>
      </trkpt>
      <trkpt lat="44.12384" lon="3.19489">
        <ele>517</ele>
        <time>2010-10-24T09:40:51Z</time>
      </trkpt>
      <trkpt lat="44.12378" lon="3.19469">
        <ele>516.20001220703</ele>
        <time>2010-10-24T09:40:58Z</time>
      </trkpt>
      <trkpt lat="44.12377" lon="3.19463">
        <ele>516</ele>
        <time>2010-10-24T09:41:00Z</time>
      </trkpt>
      <trkpt lat="44.12376" lon="3.19455">
        <ele>515.59997558594</ele>
        <time>2010-10-24T09:41:03Z</time>
      </trkpt>
      <trkpt lat="44.12376" lon="3.19443">
        <ele>515.20001220703</ele>
        <time>2010-10-24T09:41:07Z</time>
      </trkpt>
      <trkpt lat="44.12375" lon="3.19437">
        <ele>515</ele>
        <time>2010-10-24T09:41:09Z</time>
      </trkpt>
      <trkpt lat="44.12374" lon="3.19434">
        <ele>515</ele>
        <time>2010-10-24T09:41:10Z</time>
      </trkpt>
      <trkpt lat="44.12374" lon="3.19429">
        <ele>514.79998779297</ele>
        <time>2010-10-24T09:41:12Z</time>
      </trkpt>
      <trkpt lat="44.12372" lon="3.19411">
        <ele>514</ele>
        <time>2010-10-24T09:41:20Z</time>
      </trkpt>
      <trkpt lat="44.12371" lon="3.19406">
        <ele>513.79998779297</ele>
        <time>2010-10-24T09:41:23Z</time>
      </trkpt>
      <trkpt lat="44.12371" lon="3.194">
        <ele>513.40002441406</ele>
        <time>2010-10-24T09:41:29Z</time>
      </trkpt>
      <trkpt lat="44.1237" lon="3.19395">
        <ele>513.20001220703</ele>
        <time>2010-10-24T09:41:33Z</time>
      </trkpt>
      <trkpt lat="44.1237" lon="3.19393">
        <ele>513.20001220703</ele>
        <time>2010-10-24T09:41:34Z</time>
      </trkpt>
      <trkpt lat="44.12369" lon="3.19387">
        <ele>513</ele>
        <time>2010-10-24T09:41:38Z</time>
      </trkpt>
      <trkpt lat="44.12369" lon="3.19382">
        <ele>512.79998779297</ele>
        <time>2010-10-24T09:41:41Z</time>
      </trkpt>
      <trkpt lat="44.12372" lon="3.19373">
        <ele>512.40002441406</ele>
        <time>2010-10-24T09:41:49Z</time>
      </trkpt>
      <trkpt lat="44.12371" lon="3.19361">
        <ele>512.20001220703</ele>
        <time>2010-10-24T09:41:58Z</time>
      </trkpt>
      <trkpt lat="44.12371" lon="3.19358">
        <ele>512.20001220703</ele>
        <time>2010-10-24T09:42:00Z</time>
      </trkpt>
      <trkpt lat="44.12366" lon="3.19348">
        <ele>512.20001220703</ele>
        <time>2010-10-24T09:42:04Z</time>
      </trkpt>
      <trkpt lat="44.12364" lon="3.1934">
        <ele>512.20001220703</ele>
        <time>2010-10-24T09:42:07Z</time>
      </trkpt>
      <trkpt lat="44.12365" lon="3.19327">
        <ele>512.20001220703</ele>
        <time>2010-10-24T09:42:14Z</time>
      </trkpt>
      <trkpt lat="44.12367" lon="3.19324">
        <ele>512.40002441406</ele>
        <time>2010-10-24T09:42:19Z</time>
      </trkpt>
      <trkpt lat="44.12373" lon="3.19319">
        <ele>514</ele>
        <time>2010-10-24T09:42:31Z</time>
      </trkpt>
      <trkpt lat="44.12383" lon="3.19299">
        <ele>519.40002441406</ele>
        <time>2010-10-24T09:43:00Z</time>
      </trkpt>
      <trkpt lat="44.12384" lon="3.19298">
        <ele>519.59997558594</ele>
        <time>2010-10-24T09:43:01Z</time>
      </trkpt>
      <trkpt lat="44.12382" lon="3.19286">
        <ele>520.59997558594</ele>
        <time>2010-10-24T09:43:08Z</time>
      </trkpt>
      <trkpt lat="44.12381" lon="3.19279">
        <ele>521</ele>
        <time>2010-10-24T09:43:12Z</time>
      </trkpt>
      <trkpt lat="44.12381" lon="3.19278">
        <ele>521.20001220703</ele>
        <time>2010-10-24T09:43:13Z</time>
      </trkpt>
      <trkpt lat="44.12381" lon="3.19275">
        <ele>521.40002441406</ele>
        <time>2010-10-24T09:43:15Z</time>
      </trkpt>
      <trkpt lat="44.12379" lon="3.19264">
        <ele>521.79998779297</ele>
        <time>2010-10-24T09:43:19Z</time>
      </trkpt>
      <trkpt lat="44.12378" lon="3.19253">
        <ele>522.40002441406</ele>
        <time>2010-10-24T09:43:23Z</time>
      </trkpt>
      <trkpt lat="44.12388" lon="3.19233">
        <ele>522.79998779297</ele>
        <time>2010-10-24T09:43:31Z</time>
      </trkpt>
      <trkpt lat="44.12402" lon="3.19213">
        <ele>522.40002441406</ele>
        <time>2010-10-24T09:43:40Z</time>
      </trkpt>
      <trkpt lat="44.12402" lon="3.19209">
        <ele>522.40002441406</ele>
        <time>2010-10-24T09:43:42Z</time>
      </trkpt>
      <trkpt lat="44.12411" lon="3.19198">
        <ele>522.20001220703</ele>
        <time>2010-10-24T09:43:49Z</time>
      </trkpt>
      <trkpt lat="44.12419" lon="3.19193">
        <ele>522</ele>
        <time>2010-10-24T09:43:52Z</time>
      </trkpt>
      <trkpt lat="44.1243" lon="3.19186">
        <ele>521.59997558594</ele>
        <time>2010-10-24T09:43:57Z</time>
      </trkpt>
      <trkpt lat="44.12431" lon="3.19183">
        <ele>521.40002441406</ele>
        <time>2010-10-24T09:43:59Z</time>
      </trkpt>
      <trkpt lat="44.12426" lon="3.19173">
        <ele>520.59997558594</ele>
        <time>2010-10-24T09:44:06Z</time>
      </trkpt>
      <trkpt lat="44.1243" lon="3.19168">
        <ele>520.40002441406</ele>
        <time>2010-10-24T09:44:08Z</time>
      </trkpt>
      <trkpt lat="44.12432" lon="3.19167">
        <ele>520.20001220703</ele>
        <time>2010-10-24T09:44:09Z</time>
      </trkpt>
      <trkpt lat="44.12443" lon="3.19165">
        <ele>519.40002441406</ele>
        <time>2010-10-24T09:44:15Z</time>
      </trkpt>
      <trkpt lat="44.12447" lon="3.19161">
        <ele>519</ele>
        <time>2010-10-24T09:44:17Z</time>
      </trkpt>
      <trkpt lat="44.12458" lon="3.19147">
        <ele>517.79998779297</ele>
        <time>2010-10-24T09:44:24Z</time>
      </trkpt>
      <trkpt lat="44.12473" lon="3.19129">
        <ele>515.59997558594</ele>
        <time>2010-10-24T09:44:33Z</time>
      </trkpt>
      <trkpt lat="44.12484" lon="3.19108">
        <ele>513.79998779297</ele>
        <time>2010-10-24T09:44:40Z</time>
      </trkpt>
      <trkpt lat="44.12485" lon="3.19105">
        <ele>513.20001220703</ele>
        <time>2010-10-24T09:44:42Z</time>
      </trkpt>
      <trkpt lat="44.12482" lon="3.19106">
        <ele>512.59997558594</ele>
        <time>2010-10-24T09:44:44Z</time>
      </trkpt>
      <trkpt lat="44.12483" lon="3.191">
        <ele>511.20001220703</ele>
        <time>2010-10-24T09:44:48Z</time>
      </trkpt>
      <trkpt lat="44.12485" lon="3.19096">
        <ele>510.60000610352</ele>
        <time>2010-10-24T09:44:50Z</time>
      </trkpt>
      <trkpt lat="44.1248" lon="3.19095">
        <ele>509.60000610352</ele>
        <time>2010-10-24T09:44:53Z</time>
      </trkpt>
      <trkpt lat="44.12468" lon="3.19097">
        <ele>508.39999389648</ele>
        <time>2010-10-24T09:44:57Z</time>
      </trkpt>
      <trkpt lat="44.12463" lon="3.19096">
        <ele>507.79998779297</ele>
        <time>2010-10-24T09:44:59Z</time>
      </trkpt>
      <trkpt lat="44.12444" lon="3.19095">
        <ele>505</ele>
        <time>2010-10-24T09:45:07Z</time>
      </trkpt>
      <trkpt lat="44.12424" lon="3.19096">
        <ele>502.20001220703</ele>
        <time>2010-10-24T09:45:15Z</time>
      </trkpt>
      <trkpt lat="44.12423" lon="3.19096">
        <ele>501.79998779297</ele>
        <time>2010-10-24T09:45:16Z</time>
      </trkpt>
      <trkpt lat="44.12423" lon="3.19094">
        <ele>501</ele>
        <time>2010-10-24T09:45:18Z</time>
      </trkpt>
      <trkpt lat="44.12434" lon="3.19082">
        <ele>498</ele>
        <time>2010-10-24T09:45:25Z</time>
      </trkpt>
      <trkpt lat="44.12433" lon="3.19081">
        <ele>497.60000610352</ele>
        <time>2010-10-24T09:45:26Z</time>
      </trkpt>
      <trkpt lat="44.12426" lon="3.1908">
        <ele>495.79998779297</ele>
        <time>2010-10-24T09:45:30Z</time>
      </trkpt>
      <trkpt lat="44.12423" lon="3.19079">
        <ele>493.79998779297</ele>
        <time>2010-10-24T09:45:34Z</time>
      </trkpt>
      <trkpt lat="44.12426" lon="3.19073">
        <ele>492.39999389648</ele>
        <time>2010-10-24T09:45:37Z</time>
      </trkpt>
      <trkpt lat="44.12427" lon="3.19072">
        <ele>492</ele>
        <time>2010-10-24T09:45:38Z</time>
      </trkpt>
      <trkpt lat="44.12428" lon="3.19072">
        <ele>491.60000610352</ele>
        <time>2010-10-24T09:45:39Z</time>
      </trkpt>
      <trkpt lat="44.12444" lon="3.19066">
        <ele>487.20001220703</ele>
        <time>2010-10-24T09:45:49Z</time>
      </trkpt>
      <trkpt lat="44.12461" lon="3.19063">
        <ele>484.60000610352</ele>
        <time>2010-10-24T09:45:56Z</time>
      </trkpt>
      <trkpt lat="44.12468" lon="3.19056">
        <ele>482.60000610352</ele>
        <time>2010-10-24T09:46:02Z</time>
      </trkpt>
      <trkpt lat="44.12473" lon="3.19052">
        <ele>480.79998779297</ele>
        <time>2010-10-24T09:46:09Z</time>
      </trkpt>
      <trkpt lat="44.12476" lon="3.19047">
        <ele>480</ele>
        <time>2010-10-24T09:46:12Z</time>
      </trkpt>
      <trkpt lat="44.12477" lon="3.19047">
        <ele>479.79998779297</ele>
        <time>2010-10-24T09:46:13Z</time>
      </trkpt>
      <trkpt lat="44.12483" lon="3.19044">
        <ele>478.79998779297</ele>
        <time>2010-10-24T09:46:18Z</time>
      </trkpt>
      <trkpt lat="44.12494" lon="3.19037">
        <ele>477.39999389648</ele>
        <time>2010-10-24T09:46:27Z</time>
      </trkpt>
      <trkpt lat="44.12497" lon="3.19035">
        <ele>477.20001220703</ele>
        <time>2010-10-24T09:46:29Z</time>
      </trkpt>
      <trkpt lat="44.125" lon="3.19033">
        <ele>477</ele>
        <time>2010-10-24T09:46:33Z</time>
      </trkpt>
      <trkpt lat="44.12506" lon="3.19024">
        <ele>476.79998779297</ele>
        <time>2010-10-24T09:46:38Z</time>
      </trkpt>
      <trkpt lat="44.12506" lon="3.19023">
        <ele>476.79998779297</ele>
        <time>2010-10-24T09:46:39Z</time>
      </trkpt>
      <trkpt lat="44.12507" lon="3.1902">
        <ele>476.79998779297</ele>
        <time>2010-10-24T09:46:40Z</time>
      </trkpt>
      <trkpt lat="44.12514" lon="3.19021">
        <ele>476.20001220703</ele>
        <time>2010-10-24T09:46:44Z</time>
      </trkpt>
      <trkpt lat="44.12511" lon="3.19022">
        <ele>475.20001220703</ele>
        <time>2010-10-24T09:47:02Z</time>
      </trkpt>
      <trkpt lat="44.1251" lon="3.19023">
        <ele>475</ele>
        <time>2010-10-24T09:47:05Z</time>
      </trkpt>
      <trkpt lat="44.12508" lon="3.19024">
        <ele>475</ele>
        <time>2010-10-24T09:47:08Z</time>
      </trkpt>
      <trkpt lat="44.12508" lon="3.19032">
        <ele>475.60000610352</ele>
        <time>2010-10-24T09:47:16Z</time>
      </trkpt>
      <trkpt lat="44.12533" lon="3.19039">
        <ele>478.60000610352</ele>
        <time>2010-10-24T09:47:53Z</time>
      </trkpt>
      <trkpt lat="44.12539" lon="3.19036">
        <ele>479.20001220703</ele>
        <time>2010-10-24T09:47:58Z</time>
      </trkpt>
      <trkpt lat="44.12543" lon="3.1904">
        <ele>479.39999389648</ele>
        <time>2010-10-24T09:48:00Z</time>
      </trkpt>
      <trkpt lat="44.12557" lon="3.19047">
        <ele>483</ele>
        <time>2010-10-24T09:48:28Z</time>
      </trkpt>
      <trkpt lat="44.12559" lon="3.19049">
        <ele>484.39999389648</ele>
        <time>2010-10-24T09:48:31Z</time>
      </trkpt>
      <trkpt lat="44.12562" lon="3.19053">
        <ele>487.20001220703</ele>
        <time>2010-10-24T09:48:37Z</time>
      </trkpt>
      <trkpt lat="44.1257" lon="3.19063">
        <ele>490.60000610352</ele>
        <time>2010-10-24T09:48:44Z</time>
      </trkpt>
      <trkpt lat="44.12571" lon="3.19063">
        <ele>491</ele>
        <time>2010-10-24T09:48:45Z</time>
      </trkpt>
      <trkpt lat="44.12589" lon="3.19064">
        <ele>493.39999389648</ele>
        <time>2010-10-24T09:48:55Z</time>
      </trkpt>
      <trkpt lat="44.1259" lon="3.19064">
        <ele>493.39999389648</ele>
        <time>2010-10-24T09:48:56Z</time>
      </trkpt>
      <trkpt lat="44.12595" lon="3.19065">
        <ele>493.20001220703</ele>
        <time>2010-10-24T09:49:00Z</time>
      </trkpt>
      <trkpt lat="44.12604" lon="3.19058">
        <ele>493.20001220703</ele>
        <time>2010-10-24T09:49:13Z</time>
      </trkpt>
      <trkpt lat="44.12607" lon="3.19056">
        <ele>493.20001220703</ele>
        <time>2010-10-24T09:49:17Z</time>
      </trkpt>
      <trkpt lat="44.12625" lon="3.19056">
        <ele>493.20001220703</ele>
        <time>2010-10-24T09:49:37Z</time>
      </trkpt>
      <trkpt lat="44.12638" lon="3.19058">
        <ele>494.60000610352</ele>
        <time>2010-10-24T09:50:00Z</time>
      </trkpt>
      <trkpt lat="44.12642" lon="3.19058">
        <ele>495</ele>
        <time>2010-10-24T09:50:02Z</time>
      </trkpt>
      <trkpt lat="44.12644" lon="3.19058">
        <ele>495</ele>
        <time>2010-10-24T09:50:04Z</time>
      </trkpt>
      <trkpt lat="44.12643" lon="3.19057">
        <ele>495.39999389648</ele>
        <time>2010-10-24T09:50:06Z</time>
      </trkpt>
      <trkpt lat="44.12643" lon="3.19048">
        <ele>496.39999389648</ele>
        <time>2010-10-24T09:50:13Z</time>
      </trkpt>
      <trkpt lat="44.12641" lon="3.19044">
        <ele>497.39999389648</ele>
        <time>2010-10-24T09:50:15Z</time>
      </trkpt>
      <trkpt lat="44.12638" lon="3.19038">
        <ele>499</ele>
        <time>2010-10-24T09:50:21Z</time>
      </trkpt>
      <trkpt lat="44.1264" lon="3.1903">
        <ele>501.60000610352</ele>
        <time>2010-10-24T09:50:31Z</time>
      </trkpt>
      <trkpt lat="44.12645" lon="3.19022">
        <ele>503.39999389648</ele>
        <time>2010-10-24T09:50:40Z</time>
      </trkpt>
      <trkpt lat="44.12644" lon="3.19008">
        <ele>506</ele>
        <time>2010-10-24T09:50:49Z</time>
      </trkpt>
      <trkpt lat="44.12643" lon="3.19003">
        <ele>507.20001220703</ele>
        <time>2010-10-24T09:50:51Z</time>
      </trkpt>
      <trkpt lat="44.12635" lon="3.18987">
        <ele>508.20001220703</ele>
        <time>2010-10-24T09:51:12Z</time>
      </trkpt>
      <trkpt lat="44.12637" lon="3.18983">
        <ele>508.20001220703</ele>
        <time>2010-10-24T09:51:15Z</time>
      </trkpt>
      <trkpt lat="44.12639" lon="3.18984">
        <ele>508.20001220703</ele>
        <time>2010-10-24T09:51:18Z</time>
      </trkpt>
      <trkpt lat="44.12651" lon="3.18982">
        <ele>508.60000610352</ele>
        <time>2010-10-24T09:51:26Z</time>
      </trkpt>
      <trkpt lat="44.12653" lon="3.18983">
        <ele>508.60000610352</ele>
        <time>2010-10-24T09:51:27Z</time>
      </trkpt>
      <trkpt lat="44.12656" lon="3.1898">
        <ele>508.60000610352</ele>
        <time>2010-10-24T09:51:30Z</time>
      </trkpt>
      <trkpt lat="44.12669" lon="3.1898">
        <ele>510.39999389648</ele>
        <time>2010-10-24T09:51:48Z</time>
      </trkpt>
      <trkpt lat="44.12671" lon="3.18983">
        <ele>510.39999389648</ele>
        <time>2010-10-24T09:51:50Z</time>
      </trkpt>
      <trkpt lat="44.12678" lon="3.18986">
        <ele>511.60000610352</ele>
        <time>2010-10-24T09:51:58Z</time>
      </trkpt>
      <trkpt lat="44.1269" lon="3.18992">
        <ele>513.59997558594</ele>
        <time>2010-10-24T09:52:10Z</time>
      </trkpt>
      <trkpt lat="44.12701" lon="3.18993">
        <ele>517</ele>
        <time>2010-10-24T09:52:25Z</time>
      </trkpt>
      <trkpt lat="44.12702" lon="3.18993">
        <ele>517.40002441406</ele>
        <time>2010-10-24T09:52:27Z</time>
      </trkpt>
      <trkpt lat="44.12711" lon="3.1899">
        <ele>520.20001220703</ele>
        <time>2010-10-24T09:52:37Z</time>
      </trkpt>
      <trkpt lat="44.12725" lon="3.18988">
        <ele>523.79998779297</ele>
        <time>2010-10-24T09:52:53Z</time>
      </trkpt>
      <trkpt lat="44.12731" lon="3.18987">
        <ele>525</ele>
        <time>2010-10-24T09:52:59Z</time>
      </trkpt>
      <trkpt lat="44.12732" lon="3.18986">
        <ele>525.20001220703</ele>
        <time>2010-10-24T09:53:00Z</time>
      </trkpt>
      <trkpt lat="44.12744" lon="3.18982">
        <ele>527.20001220703</ele>
        <time>2010-10-24T09:53:12Z</time>
      </trkpt>
      <trkpt lat="44.12748" lon="3.18983">
        <ele>528.20001220703</ele>
        <time>2010-10-24T09:53:17Z</time>
      </trkpt>
      <trkpt lat="44.12751" lon="3.18983">
        <ele>528.79998779297</ele>
        <time>2010-10-24T09:53:21Z</time>
      </trkpt>
      <trkpt lat="44.12753" lon="3.18983">
        <ele>529.40002441406</ele>
        <time>2010-10-24T09:53:23Z</time>
      </trkpt>
      <trkpt lat="44.12766" lon="3.1898">
        <ele>531.79998779297</ele>
        <time>2010-10-24T09:53:34Z</time>
      </trkpt>
      <trkpt lat="44.12767" lon="3.1898">
        <ele>531.79998779297</ele>
        <time>2010-10-24T09:53:35Z</time>
      </trkpt>
      <trkpt lat="44.12782" lon="3.18971">
        <ele>533.79998779297</ele>
        <time>2010-10-24T09:53:46Z</time>
      </trkpt>
      <trkpt lat="44.12783" lon="3.1897">
        <ele>533.79998779297</ele>
        <time>2010-10-24T09:53:47Z</time>
      </trkpt>
      <trkpt lat="44.12788" lon="3.18968">
        <ele>534.59997558594</ele>
        <time>2010-10-24T09:53:50Z</time>
      </trkpt>
      <trkpt lat="44.12794" lon="3.18967">
        <ele>535.40002441406</ele>
        <time>2010-10-24T09:53:54Z</time>
      </trkpt>
      <trkpt lat="44.12801" lon="3.18966">
        <ele>536.40002441406</ele>
        <time>2010-10-24T09:53:59Z</time>
      </trkpt>
      <trkpt lat="44.12804" lon="3.18962">
        <ele>536.40002441406</ele>
        <time>2010-10-24T09:54:02Z</time>
      </trkpt>
      <trkpt lat="44.12812" lon="3.18952">
        <ele>538.40002441406</ele>
        <time>2010-10-24T09:54:12Z</time>
      </trkpt>
      <trkpt lat="44.12816" lon="3.18951">
        <ele>539</ele>
        <time>2010-10-24T09:54:15Z</time>
      </trkpt>
      <trkpt lat="44.12818" lon="3.18948">
        <ele>539.40002441406</ele>
        <time>2010-10-24T09:54:18Z</time>
      </trkpt>
      <trkpt lat="44.12825" lon="3.18938">
        <ele>541.79998779297</ele>
        <time>2010-10-24T09:54:28Z</time>
      </trkpt>
      <trkpt lat="44.12831" lon="3.18937">
        <ele>542.59997558594</ele>
        <time>2010-10-24T09:54:31Z</time>
      </trkpt>
      <trkpt lat="44.12848" lon="3.18929">
        <ele>546.40002441406</ele>
        <time>2010-10-24T09:54:52Z</time>
      </trkpt>
      <trkpt lat="44.12856" lon="3.18926">
        <ele>549.59997558594</ele>
        <time>2010-10-24T09:55:03Z</time>
      </trkpt>
      <trkpt lat="44.12865" lon="3.18924">
        <ele>551.20001220703</ele>
        <time>2010-10-24T09:55:12Z</time>
      </trkpt>
      <trkpt lat="44.1287" lon="3.18924">
        <ele>552.20001220703</ele>
        <time>2010-10-24T09:55:17Z</time>
      </trkpt>
      <trkpt lat="44.12872" lon="3.18925">
        <ele>552.79998779297</ele>
        <time>2010-10-24T09:55:19Z</time>
      </trkpt>
      <trkpt lat="44.12884" lon="3.18929">
        <ele>555.79998779297</ele>
        <time>2010-10-24T09:55:33Z</time>
      </trkpt>
      <trkpt lat="44.12902" lon="3.18927">
        <ele>561.59997558594</ele>
        <time>2010-10-24T09:55:54Z</time>
      </trkpt>
      <trkpt lat="44.12906" lon="3.18924">
        <ele>564</ele>
        <time>2010-10-24T09:56:00Z</time>
      </trkpt>
      <trkpt lat="44.12911" lon="3.18919">
        <ele>567.79998779297</ele>
        <time>2010-10-24T09:56:13Z</time>
      </trkpt>
      <trkpt lat="44.12915" lon="3.1891">
        <ele>572.59997558594</ele>
        <time>2010-10-24T09:56:26Z</time>
      </trkpt>
      <trkpt lat="44.1293" lon="3.18897">
        <ele>597.20001220703</ele>
        <time>2010-10-24T09:57:12Z</time>
      </trkpt>
      <trkpt lat="44.12933" lon="3.18894">
        <ele>598.40002441406</ele>
        <time>2010-10-24T09:57:18Z</time>
      </trkpt>
      <trkpt lat="44.12944" lon="3.18897">
        <ele>599.20001220703</ele>
        <time>2010-10-24T09:57:34Z</time>
      </trkpt>
      <trkpt lat="44.12947" lon="3.18899">
        <ele>599</ele>
        <time>2010-10-24T09:57:36Z</time>
      </trkpt>
      <trkpt lat="44.12955" lon="3.18874">
        <ele>598.40002441406</ele>
        <time>2010-10-24T09:58:13Z</time>
      </trkpt>
      <trkpt lat="44.12964" lon="3.1886">
        <ele>605.79998779297</ele>
        <time>2010-10-24T09:58:56Z</time>
      </trkpt>
      <trkpt lat="44.12965" lon="3.1886">
        <ele>606.20001220703</ele>
        <time>2010-10-24T09:58:57Z</time>
      </trkpt>
      <trkpt lat="44.12967" lon="3.1886">
        <ele>606.59997558594</ele>
        <time>2010-10-24T09:58:59Z</time>
      </trkpt>
      <trkpt lat="44.1298" lon="3.18851">
        <ele>615.59997558594</ele>
        <time>2010-10-24T09:59:37Z</time>
      </trkpt>
      <trkpt lat="44.12992" lon="3.18856">
        <ele>624.20001220703</ele>
        <time>2010-10-24T10:00:10Z</time>
      </trkpt>
      <trkpt lat="44.13008" lon="3.18857">
        <ele>634.59997558594</ele>
        <time>2010-10-24T10:00:53Z</time>
      </trkpt>
      <trkpt lat="44.13013" lon="3.18855">
        <ele>636.40002441406</ele>
        <time>2010-10-24T10:01:01Z</time>
      </trkpt>
      <trkpt lat="44.13017" lon="3.18855">
        <ele>637.59997558594</ele>
        <time>2010-10-24T10:01:06Z</time>
      </trkpt>
      <trkpt lat="44.13021" lon="3.18856">
        <ele>638.40002441406</ele>
        <time>2010-10-24T10:01:09Z</time>
      </trkpt>
      <trkpt lat="44.13026" lon="3.18859">
        <ele>639.59997558594</ele>
        <time>2010-10-24T10:01:14Z</time>
      </trkpt>
      <trkpt lat="44.13028" lon="3.18859">
        <ele>640</ele>
        <time>2010-10-24T10:01:16Z</time>
      </trkpt>
      <trkpt lat="44.13033" lon="3.18863">
        <ele>642.20001220703</ele>
        <time>2010-10-24T10:01:24Z</time>
      </trkpt>
      <trkpt lat="44.13042" lon="3.18871">
        <ele>644.40002441406</ele>
        <time>2010-10-24T10:01:33Z</time>
      </trkpt>
      <trkpt lat="44.13044" lon="3.18873">
        <ele>644.79998779297</ele>
        <time>2010-10-24T10:01:35Z</time>
      </trkpt>
      <trkpt lat="44.13046" lon="3.18876">
        <ele>645.40002441406</ele>
        <time>2010-10-24T10:01:38Z</time>
      </trkpt>
      <trkpt lat="44.13051" lon="3.18884">
        <ele>647.59997558594</ele>
        <time>2010-10-24T10:01:48Z</time>
      </trkpt>
      <trkpt lat="44.13055" lon="3.18891">
        <ele>649</ele>
        <time>2010-10-24T10:01:55Z</time>
      </trkpt>
      <trkpt lat="44.13055" lon="3.18893">
        <ele>649.20001220703</ele>
        <time>2010-10-24T10:01:56Z</time>
      </trkpt>
      <trkpt lat="44.13055" lon="3.18894">
        <ele>649.40002441406</ele>
        <time>2010-10-24T10:01:57Z</time>
      </trkpt>
      <trkpt lat="44.13056" lon="3.18901">
        <ele>650.40002441406</ele>
        <time>2010-10-24T10:02:02Z</time>
      </trkpt>
      <trkpt lat="44.1306" lon="3.18916">
        <ele>654</ele>
        <time>2010-10-24T10:02:14Z</time>
      </trkpt>
      <trkpt lat="44.13062" lon="3.18921">
        <ele>655.20001220703</ele>
        <time>2010-10-24T10:02:18Z</time>
      </trkpt>
      <trkpt lat="44.13063" lon="3.18924">
        <ele>661.79998779297</ele>
        <time>2010-10-24T10:02:36Z</time>
      </trkpt>
      <trkpt lat="44.13063" lon="3.1891">
        <ele>663.20001220703</ele>
        <time>2010-10-24T10:02:41Z</time>
      </trkpt>
      <trkpt lat="44.13065" lon="3.18905">
        <ele>663.40002441406</ele>
        <time>2010-10-24T10:02:43Z</time>
      </trkpt>
      <trkpt lat="44.13066" lon="3.18892">
        <ele>663.59997558594</ele>
        <time>2010-10-24T10:02:49Z</time>
      </trkpt>
      <trkpt lat="44.13065" lon="3.18885">
        <ele>664</ele>
        <time>2010-10-24T10:02:54Z</time>
      </trkpt>
      <trkpt lat="44.13063" lon="3.18883">
        <ele>664.20001220703</ele>
        <time>2010-10-24T10:02:56Z</time>
      </trkpt>
      <trkpt lat="44.13057" lon="3.1887">
        <ele>665</ele>
        <time>2010-10-24T10:03:03Z</time>
      </trkpt>
      <trkpt lat="44.13055" lon="3.18869">
        <ele>665.20001220703</ele>
        <time>2010-10-24T10:03:04Z</time>
      </trkpt>
      <trkpt lat="44.13053" lon="3.18867">
        <ele>665.40002441406</ele>
        <time>2010-10-24T10:03:05Z</time>
      </trkpt>
      <trkpt lat="44.13038" lon="3.18851">
        <ele>666.40002441406</ele>
        <time>2010-10-24T10:03:16Z</time>
      </trkpt>
      <trkpt lat="44.13032" lon="3.18848">
        <ele>666.79998779297</ele>
        <time>2010-10-24T10:03:20Z</time>
      </trkpt>
      <trkpt lat="44.13025" lon="3.18836">
        <ele>666.79998779297</ele>
        <time>2010-10-24T10:03:29Z</time>
      </trkpt>
      <trkpt lat="44.13023" lon="3.18834">
        <ele>667</ele>
        <time>2010-10-24T10:03:31Z</time>
      </trkpt>
      <trkpt lat="44.1302" lon="3.18827">
        <ele>666.79998779297</ele>
        <time>2010-10-24T10:03:36Z</time>
      </trkpt>
      <trkpt lat="44.1302" lon="3.18825">
        <ele>666.79998779297</ele>
        <time>2010-10-24T10:03:38Z</time>
      </trkpt>
      <trkpt lat="44.13014" lon="3.1882">
        <ele>666.79998779297</ele>
        <time>2010-10-24T10:03:41Z</time>
      </trkpt>
      <trkpt lat="44.13013" lon="3.18816">
        <ele>666.79998779297</ele>
        <time>2010-10-24T10:03:42Z</time>
      </trkpt>
      <trkpt lat="44.13012" lon="3.18815">
        <ele>666.79998779297</ele>
        <time>2010-10-24T10:03:44Z</time>
      </trkpt>
      <trkpt lat="44.13007" lon="3.18808">
        <ele>666.79998779297</ele>
        <time>2010-10-24T10:03:48Z</time>
      </trkpt>
      <trkpt lat="44.13003" lon="3.18808">
        <ele>667</ele>
        <time>2010-10-24T10:03:50Z</time>
      </trkpt>
      <trkpt lat="44.13" lon="3.18808">
        <ele>667.20001220703</ele>
        <time>2010-10-24T10:03:52Z</time>
      </trkpt>
      <trkpt lat="44.12984" lon="3.18796">
        <ele>666.79998779297</ele>
        <time>2010-10-24T10:04:02Z</time>
      </trkpt>
      <trkpt lat="44.12984" lon="3.18794">
        <ele>666.79998779297</ele>
        <time>2010-10-24T10:04:04Z</time>
      </trkpt>
      <trkpt lat="44.12982" lon="3.18791">
        <ele>666.59997558594</ele>
        <time>2010-10-24T10:04:07Z</time>
      </trkpt>
      <trkpt lat="44.12981" lon="3.1879">
        <ele>666.59997558594</ele>
        <time>2010-10-24T10:04:09Z</time>
      </trkpt>
      <trkpt lat="44.12973" lon="3.18781">
        <ele>666.20001220703</ele>
        <time>2010-10-24T10:04:20Z</time>
      </trkpt>
      <trkpt lat="44.1297" lon="3.1878">
        <ele>666</ele>
        <time>2010-10-24T10:04:23Z</time>
      </trkpt>
      <trkpt lat="44.12968" lon="3.18781">
        <ele>665.79998779297</ele>
        <time>2010-10-24T10:04:24Z</time>
      </trkpt>
      <trkpt lat="44.12966" lon="3.1878">
        <ele>665.40002441406</ele>
        <time>2010-10-24T10:04:29Z</time>
      </trkpt>
      <trkpt lat="44.12958" lon="3.18774">
        <ele>664.40002441406</ele>
        <time>2010-10-24T10:04:37Z</time>
      </trkpt>
      <trkpt lat="44.12956" lon="3.18774">
        <ele>664.20001220703</ele>
        <time>2010-10-24T10:04:39Z</time>
      </trkpt>
      <trkpt lat="44.12955" lon="3.18773">
        <ele>663.40002441406</ele>
        <time>2010-10-24T10:04:48Z</time>
      </trkpt>
      <trkpt lat="44.12951" lon="3.18774">
        <ele>663</ele>
        <time>2010-10-24T10:04:52Z</time>
      </trkpt>
      <trkpt lat="44.12941" lon="3.18773">
        <ele>662.40002441406</ele>
        <time>2010-10-24T10:05:00Z</time>
      </trkpt>
      <trkpt lat="44.12938" lon="3.1877">
        <ele>662</ele>
        <time>2010-10-24T10:05:03Z</time>
      </trkpt>
      <trkpt lat="44.12934" lon="3.18768">
        <ele>661.59997558594</ele>
        <time>2010-10-24T10:05:06Z</time>
      </trkpt>
      <trkpt lat="44.1293" lon="3.18765">
        <ele>661.20001220703</ele>
        <time>2010-10-24T10:05:10Z</time>
      </trkpt>
      <trkpt lat="44.12927" lon="3.1876">
        <ele>660.79998779297</ele>
        <time>2010-10-24T10:05:14Z</time>
      </trkpt>
      <trkpt lat="44.12923" lon="3.18756">
        <ele>660.59997558594</ele>
        <time>2010-10-24T10:05:17Z</time>
      </trkpt>
      <trkpt lat="44.12921" lon="3.18755">
        <ele>660.40002441406</ele>
        <time>2010-10-24T10:05:19Z</time>
      </trkpt>
      <trkpt lat="44.1292" lon="3.18748">
        <ele>660.20001220703</ele>
        <time>2010-10-24T10:05:22Z</time>
      </trkpt>
      <trkpt lat="44.12917" lon="3.18746">
        <ele>660</ele>
        <time>2010-10-24T10:05:25Z</time>
      </trkpt>
      <trkpt lat="44.12914" lon="3.18746">
        <ele>659.79998779297</ele>
        <time>2010-10-24T10:05:28Z</time>
      </trkpt>
      <trkpt lat="44.12911" lon="3.18747">
        <ele>659.59997558594</ele>
        <time>2010-10-24T10:05:33Z</time>
      </trkpt>
      <trkpt lat="44.12908" lon="3.18751">
        <ele>659.40002441406</ele>
        <time>2010-10-24T10:05:36Z</time>
      </trkpt>
      <trkpt lat="44.12903" lon="3.18753">
        <ele>659.20001220703</ele>
        <time>2010-10-24T10:05:41Z</time>
      </trkpt>
      <trkpt lat="44.12901" lon="3.18753">
        <ele>659</ele>
        <time>2010-10-24T10:05:45Z</time>
      </trkpt>
      <trkpt lat="44.12889" lon="3.18756">
        <ele>658.40002441406</ele>
        <time>2010-10-24T10:05:56Z</time>
      </trkpt>
      <trkpt lat="44.12883" lon="3.18757">
        <ele>658.20001220703</ele>
        <time>2010-10-24T10:06:02Z</time>
      </trkpt>
      <trkpt lat="44.1287" lon="3.18758">
        <ele>657.59997558594</ele>
        <time>2010-10-24T10:06:12Z</time>
      </trkpt>
      <trkpt lat="44.12869" lon="3.18757">
        <ele>657.59997558594</ele>
        <time>2010-10-24T10:06:13Z</time>
      </trkpt>
      <trkpt lat="44.12867" lon="3.18757">
        <ele>657.40002441406</ele>
        <time>2010-10-24T10:06:16Z</time>
      </trkpt>
      <trkpt lat="44.12855" lon="3.18763">
        <ele>657</ele>
        <time>2010-10-24T10:06:23Z</time>
      </trkpt>
      <trkpt lat="44.12852" lon="3.18763">
        <ele>657</ele>
        <time>2010-10-24T10:06:26Z</time>
      </trkpt>
      <trkpt lat="44.12848" lon="3.18763">
        <ele>656.79998779297</ele>
        <time>2010-10-24T10:06:30Z</time>
      </trkpt>
      <trkpt lat="44.12848" lon="3.18762">
        <ele>656.79998779297</ele>
        <time>2010-10-24T10:06:31Z</time>
      </trkpt>
      <trkpt lat="44.12833" lon="3.18759">
        <ele>656.59997558594</ele>
        <time>2010-10-24T10:06:40Z</time>
      </trkpt>
      <trkpt lat="44.12831" lon="3.18758">
        <ele>656.40002441406</ele>
        <time>2010-10-24T10:06:41Z</time>
      </trkpt>
      <trkpt lat="44.12819" lon="3.18751">
        <ele>656</ele>
        <time>2010-10-24T10:06:51Z</time>
      </trkpt>
      <trkpt lat="44.12817" lon="3.18751">
        <ele>655.79998779297</ele>
        <time>2010-10-24T10:06:55Z</time>
      </trkpt>
      <trkpt lat="44.12813" lon="3.18748">
        <ele>655.79998779297</ele>
        <time>2010-10-24T10:06:58Z</time>
      </trkpt>
      <trkpt lat="44.12807" lon="3.18748">
        <ele>655.59997558594</ele>
        <time>2010-10-24T10:07:03Z</time>
      </trkpt>
      <trkpt lat="44.12806" lon="3.18747">
        <ele>655.40002441406</ele>
        <time>2010-10-24T10:07:05Z</time>
      </trkpt>
      <trkpt lat="44.12799" lon="3.18741">
        <ele>655.20001220703</ele>
        <time>2010-10-24T10:07:11Z</time>
      </trkpt>
      <trkpt lat="44.12798" lon="3.18741">
        <ele>655.20001220703</ele>
        <time>2010-10-24T10:07:14Z</time>
      </trkpt>
      <trkpt lat="44.12793" lon="3.18742">
        <ele>655.20001220703</ele>
        <time>2010-10-24T10:07:17Z</time>
      </trkpt>
      <trkpt lat="44.12788" lon="3.18744">
        <ele>655</ele>
        <time>2010-10-24T10:07:22Z</time>
      </trkpt>
      <trkpt lat="44.12787" lon="3.18745">
        <ele>654.79998779297</ele>
        <time>2010-10-24T10:07:23Z</time>
      </trkpt>
      <trkpt lat="44.12781" lon="3.18743">
        <ele>654.59997558594</ele>
        <time>2010-10-24T10:07:27Z</time>
      </trkpt>
      <trkpt lat="44.12778" lon="3.18742">
        <ele>654.59997558594</ele>
        <time>2010-10-24T10:07:30Z</time>
      </trkpt>
      <trkpt lat="44.12764" lon="3.18739">
        <ele>654</ele>
        <time>2010-10-24T10:07:44Z</time>
      </trkpt>
      <trkpt lat="44.12762" lon="3.1874">
        <ele>654</ele>
        <time>2010-10-24T10:07:47Z</time>
      </trkpt>
      <trkpt lat="44.12761" lon="3.18741">
        <ele>654</ele>
        <time>2010-10-24T10:07:48Z</time>
      </trkpt>
      <trkpt lat="44.12759" lon="3.18744">
        <ele>654</ele>
        <time>2010-10-24T10:07:52Z</time>
      </trkpt>
      <trkpt lat="44.12759" lon="3.18744">
        <ele>653.79998779297</ele>
        <time>2010-10-24T10:07:53Z</time>
      </trkpt>
      <trkpt lat="44.12751" lon="3.18745">
        <ele>653.59997558594</ele>
        <time>2010-10-24T10:08:00Z</time>
      </trkpt>
      <trkpt lat="44.12748" lon="3.18744">
        <ele>653.59997558594</ele>
        <time>2010-10-24T10:08:02Z</time>
      </trkpt>
      <trkpt lat="44.12746" lon="3.18744">
        <ele>653.40002441406</ele>
        <time>2010-10-24T10:08:04Z</time>
      </trkpt>
      <trkpt lat="44.1274" lon="3.18741">
        <ele>652.79998779297</ele>
        <time>2010-10-24T10:08:11Z</time>
      </trkpt>
      <trkpt lat="44.12739" lon="3.18742">
        <ele>652.79998779297</ele>
        <time>2010-10-24T10:08:12Z</time>
      </trkpt>
      <trkpt lat="44.12734" lon="3.18736">
        <ele>651.79998779297</ele>
        <time>2010-10-24T10:08:20Z</time>
      </trkpt>
      <trkpt lat="44.12733" lon="3.18735">
        <ele>651.59997558594</ele>
        <time>2010-10-24T10:08:21Z</time>
      </trkpt>
      <trkpt lat="44.12716" lon="3.18724">
        <ele>650.59997558594</ele>
        <time>2010-10-24T10:08:34Z</time>
      </trkpt>
      <trkpt lat="44.12709" lon="3.18714">
        <ele>650.40002441406</ele>
        <time>2010-10-24T10:08:42Z</time>
      </trkpt>
      <trkpt lat="44.12709" lon="3.18713">
        <ele>650.40002441406</ele>
        <time>2010-10-24T10:08:43Z</time>
      </trkpt>
      <trkpt lat="44.12706" lon="3.18703">
        <ele>650.79998779297</ele>
        <time>2010-10-24T10:08:49Z</time>
      </trkpt>
      <trkpt lat="44.12699" lon="3.18701">
        <ele>651.59997558594</ele>
        <time>2010-10-24T10:08:56Z</time>
      </trkpt>
      <trkpt lat="44.12697" lon="3.18701">
        <ele>651.79998779297</ele>
        <time>2010-10-24T10:08:58Z</time>
      </trkpt>
      <trkpt lat="44.12688" lon="3.18698">
        <ele>653</ele>
        <time>2010-10-24T10:09:06Z</time>
      </trkpt>
      <trkpt lat="44.12683" lon="3.18685">
        <ele>653.40002441406</ele>
        <time>2010-10-24T10:09:15Z</time>
      </trkpt>
      <trkpt lat="44.12675" lon="3.18685">
        <ele>653.40002441406</ele>
        <time>2010-10-24T10:09:21Z</time>
      </trkpt>
      <trkpt lat="44.12667" lon="3.18685">
        <ele>653.20001220703</ele>
        <time>2010-10-24T10:09:28Z</time>
      </trkpt>
      <trkpt lat="44.12663" lon="3.18683">
        <ele>653.20001220703</ele>
        <time>2010-10-24T10:09:32Z</time>
      </trkpt>
      <trkpt lat="44.1266" lon="3.1868">
        <ele>653</ele>
        <time>2010-10-24T10:09:36Z</time>
      </trkpt>
      <trkpt lat="44.12658" lon="3.18679">
        <ele>652.79998779297</ele>
        <time>2010-10-24T10:09:39Z</time>
      </trkpt>
      <trkpt lat="44.12657" lon="3.18678">
        <ele>652.59997558594</ele>
        <time>2010-10-24T10:09:40Z</time>
      </trkpt>
      <trkpt lat="44.12656" lon="3.18678">
        <ele>652.59997558594</ele>
        <time>2010-10-24T10:09:42Z</time>
      </trkpt>
      <trkpt lat="44.12651" lon="3.18678">
        <ele>652.20001220703</ele>
        <time>2010-10-24T10:09:47Z</time>
      </trkpt>
      <trkpt lat="44.12646" lon="3.18678">
        <ele>652</ele>
        <time>2010-10-24T10:09:51Z</time>
      </trkpt>
      <trkpt lat="44.12642" lon="3.18676">
        <ele>651.79998779297</ele>
        <time>2010-10-24T10:09:56Z</time>
      </trkpt>
      <trkpt lat="44.12639" lon="3.18676">
        <ele>651.59997558594</ele>
        <time>2010-10-24T10:09:59Z</time>
      </trkpt>
      <trkpt lat="44.12637" lon="3.18676">
        <ele>651.40002441406</ele>
        <time>2010-10-24T10:10:02Z</time>
      </trkpt>
      <trkpt lat="44.1263" lon="3.18676">
        <ele>651</ele>
        <time>2010-10-24T10:10:09Z</time>
      </trkpt>
      <trkpt lat="44.12622" lon="3.18675">
        <ele>650.59997558594</ele>
        <time>2010-10-24T10:10:16Z</time>
      </trkpt>
      <trkpt lat="44.12622" lon="3.18675">
        <ele>650.59997558594</ele>
        <time>2010-10-24T10:10:17Z</time>
      </trkpt>
      <trkpt lat="44.12621" lon="3.18675">
        <ele>650.40002441406</ele>
        <time>2010-10-24T10:10:19Z</time>
      </trkpt>
      <trkpt lat="44.1262" lon="3.18675">
        <ele>650.40002441406</ele>
        <time>2010-10-24T10:10:20Z</time>
      </trkpt>
      <trkpt lat="44.12619" lon="3.18675">
        <ele>650.40002441406</ele>
        <time>2010-10-24T10:10:21Z</time>
      </trkpt>
      <trkpt lat="44.12606" lon="3.1868">
        <ele>650</ele>
        <time>2010-10-24T10:10:33Z</time>
      </trkpt>
      <trkpt lat="44.12602" lon="3.18685">
        <ele>650</ele>
        <time>2010-10-24T10:10:37Z</time>
      </trkpt>
      <trkpt lat="44.12596" lon="3.1869">
        <ele>649.79998779297</ele>
        <time>2010-10-24T10:10:43Z</time>
      </trkpt>
      <trkpt lat="44.12585" lon="3.18696">
        <ele>649.79998779297</ele>
        <time>2010-10-24T10:10:52Z</time>
      </trkpt>
      <trkpt lat="44.12565" lon="3.18698">
        <ele>649.59997558594</ele>
        <time>2010-10-24T10:11:02Z</time>
      </trkpt>
      <trkpt lat="44.1256" lon="3.18697">
        <ele>649.40002441406</ele>
        <time>2010-10-24T10:11:08Z</time>
      </trkpt>
      <trkpt lat="44.12556" lon="3.18695">
        <ele>649.40002441406</ele>
        <time>2010-10-24T10:11:12Z</time>
      </trkpt>
      <trkpt lat="44.12553" lon="3.18694">
        <ele>649.20001220703</ele>
        <time>2010-10-24T10:11:15Z</time>
      </trkpt>
      <trkpt lat="44.12547" lon="3.18692">
        <ele>649</ele>
        <time>2010-10-24T10:11:21Z</time>
      </trkpt>
      <trkpt lat="44.12542" lon="3.18689">
        <ele>649</ele>
        <time>2010-10-24T10:11:26Z</time>
      </trkpt>
      <trkpt lat="44.1254" lon="3.18688">
        <ele>648.79998779297</ele>
        <time>2010-10-24T10:11:27Z</time>
      </trkpt>
      <trkpt lat="44.12535" lon="3.18686">
        <ele>648.79998779297</ele>
        <time>2010-10-24T10:11:31Z</time>
      </trkpt>
      <trkpt lat="44.12532" lon="3.18684">
        <ele>648.79998779297</ele>
        <time>2010-10-24T10:11:34Z</time>
      </trkpt>
      <trkpt lat="44.12529" lon="3.18683">
        <ele>648.79998779297</ele>
        <time>2010-10-24T10:11:36Z</time>
      </trkpt>
      <trkpt lat="44.12521" lon="3.18681">
        <ele>649</ele>
        <time>2010-10-24T10:11:41Z</time>
      </trkpt>
      <trkpt lat="44.12519" lon="3.18676">
        <ele>649.40002441406</ele>
        <time>2010-10-24T10:11:48Z</time>
      </trkpt>
      <trkpt lat="44.12519" lon="3.18668">
        <ele>649.59997558594</ele>
        <time>2010-10-24T10:11:52Z</time>
      </trkpt>
      <trkpt lat="44.12516" lon="3.18659">
        <ele>649.79998779297</ele>
        <time>2010-10-24T10:11:58Z</time>
      </trkpt>
      <trkpt lat="44.12513" lon="3.18651">
        <ele>650</ele>
        <time>2010-10-24T10:12:02Z</time>
      </trkpt>
      <trkpt lat="44.12508" lon="3.18646">
        <ele>650.40002441406</ele>
        <time>2010-10-24T10:12:05Z</time>
      </trkpt>
      <trkpt lat="44.12504" lon="3.18637">
        <ele>651.40002441406</ele>
        <time>2010-10-24T10:12:11Z</time>
      </trkpt>
      <trkpt lat="44.12498" lon="3.1863">
        <ele>652.40002441406</ele>
        <time>2010-10-24T10:12:16Z</time>
      </trkpt>
      <trkpt lat="44.12496" lon="3.18627">
        <ele>652.79998779297</ele>
        <time>2010-10-24T10:12:18Z</time>
      </trkpt>
      <trkpt lat="44.12491" lon="3.18623">
        <ele>653.79998779297</ele>
        <time>2010-10-24T10:12:22Z</time>
      </trkpt>
      <trkpt lat="44.1249" lon="3.18622">
        <ele>654</ele>
        <time>2010-10-24T10:12:23Z</time>
      </trkpt>
      <trkpt lat="44.12491" lon="3.1862">
        <ele>654.40002441406</ele>
        <time>2010-10-24T10:12:25Z</time>
      </trkpt>
      <trkpt lat="44.12482" lon="3.18611">
        <ele>656.20001220703</ele>
        <time>2010-10-24T10:12:31Z</time>
      </trkpt>
      <trkpt lat="44.12477" lon="3.18608">
        <ele>657</ele>
        <time>2010-10-24T10:12:34Z</time>
      </trkpt>
      <trkpt lat="44.12466" lon="3.18599">
        <ele>658</ele>
        <time>2010-10-24T10:12:41Z</time>
      </trkpt>
      <trkpt lat="44.12457" lon="3.18581">
        <ele>657.79998779297</ele>
        <time>2010-10-24T10:12:48Z</time>
      </trkpt>
      <trkpt lat="44.12455" lon="3.18578">
        <ele>657.79998779297</ele>
        <time>2010-10-24T10:12:50Z</time>
      </trkpt>
      <trkpt lat="44.12453" lon="3.18577">
        <ele>657.79998779297</ele>
        <time>2010-10-24T10:12:51Z</time>
      </trkpt>
      <trkpt lat="44.12445" lon="3.18572">
        <ele>657.40002441406</ele>
        <time>2010-10-24T10:12:56Z</time>
      </trkpt>
      <trkpt lat="44.12443" lon="3.18563">
        <ele>657</ele>
        <time>2010-10-24T10:13:00Z</time>
      </trkpt>
      <trkpt lat="44.12443" lon="3.18557">
        <ele>656.79998779297</ele>
        <time>2010-10-24T10:13:03Z</time>
      </trkpt>
      <trkpt lat="44.12446" lon="3.18549">
        <ele>656.59997558594</ele>
        <time>2010-10-24T10:13:05Z</time>
      </trkpt>
      <trkpt lat="44.12449" lon="3.18539">
        <ele>656.20001220703</ele>
        <time>2010-10-24T10:13:09Z</time>
      </trkpt>
      <trkpt lat="44.12461" lon="3.18518">
        <ele>655</ele>
        <time>2010-10-24T10:13:19Z</time>
      </trkpt>
      <trkpt lat="44.12466" lon="3.18506">
        <ele>654.59997558594</ele>
        <time>2010-10-24T10:13:26Z</time>
      </trkpt>
      <trkpt lat="44.12469" lon="3.18505">
        <ele>654.40002441406</ele>
        <time>2010-10-24T10:13:28Z</time>
      </trkpt>
      <trkpt lat="44.12473" lon="3.185">
        <ele>654</ele>
        <time>2010-10-24T10:13:35Z</time>
      </trkpt>
      <trkpt lat="44.12476" lon="3.1848">
        <ele>653.79998779297</ele>
        <time>2010-10-24T10:13:44Z</time>
      </trkpt>
      <trkpt lat="44.12476" lon="3.18478">
        <ele>654</ele>
        <time>2010-10-24T10:13:45Z</time>
      </trkpt>
      <trkpt lat="44.12476" lon="3.18476">
        <ele>654</ele>
        <time>2010-10-24T10:13:46Z</time>
      </trkpt>
      <trkpt lat="44.12481" lon="3.18452">
        <ele>656.59997558594</ele>
        <time>2010-10-24T10:14:00Z</time>
      </trkpt>
      <trkpt lat="44.12484" lon="3.18453">
        <ele>657</ele>
        <time>2010-10-24T10:14:04Z</time>
      </trkpt>
      <trkpt lat="44.12486" lon="3.18451">
        <ele>657.59997558594</ele>
        <time>2010-10-24T10:14:07Z</time>
      </trkpt>
      <trkpt lat="44.12486" lon="3.18447">
        <ele>658.40002441406</ele>
        <time>2010-10-24T10:14:10Z</time>
      </trkpt>
      <trkpt lat="44.12492" lon="3.18448">
        <ele>659.40002441406</ele>
        <time>2010-10-24T10:14:17Z</time>
      </trkpt>
      <trkpt lat="44.12484" lon="3.18456">
        <ele>679.79998779297</ele>
        <time>2010-10-24T10:14:51Z</time>
      </trkpt>
      <trkpt lat="44.12483" lon="3.18459">
        <ele>682</ele>
        <time>2010-10-24T10:14:53Z</time>
      </trkpt>
      <trkpt lat="44.12507" lon="3.18462">
        <ele>718.40002441406</ele>
        <time>2010-10-24T10:15:33Z</time>
      </trkpt>
      <trkpt lat="44.12511" lon="3.18463">
        <ele>718.20001220703</ele>
        <time>2010-10-24T10:15:36Z</time>
      </trkpt>
      <trkpt lat="44.12512" lon="3.18463">
        <ele>718.20001220703</ele>
        <time>2010-10-24T10:15:37Z</time>
      </trkpt>
      <trkpt lat="44.12525" lon="3.18467">
        <ele>716.40002441406</ele>
        <time>2010-10-24T10:15:49Z</time>
      </trkpt>
      <trkpt lat="44.12531" lon="3.18471">
        <ele>715</ele>
        <time>2010-10-24T10:15:55Z</time>
      </trkpt>
      <trkpt lat="44.12529" lon="3.18466">
        <ele>714.20001220703</ele>
        <time>2010-10-24T10:16:04Z</time>
      </trkpt>
      <trkpt lat="44.1254" lon="3.18466">
        <ele>726.40002441406</ele>
        <time>2010-10-24T10:16:44Z</time>
      </trkpt>
      <trkpt lat="44.1254" lon="3.18467">
        <ele>727.40002441406</ele>
        <time>2010-10-24T10:16:45Z</time>
      </trkpt>
      <trkpt lat="44.12556" lon="3.18476">
        <ele>729.20001220703</ele>
        <time>2010-10-24T10:17:04Z</time>
      </trkpt>
      <trkpt lat="44.12562" lon="3.18487">
        <ele>728.59997558594</ele>
        <time>2010-10-24T10:17:14Z</time>
      </trkpt>
      <trkpt lat="44.12572" lon="3.18489">
        <ele>730.40002441406</ele>
        <time>2010-10-24T10:17:35Z</time>
      </trkpt>
      <trkpt lat="44.1258" lon="3.18487">
        <ele>730</ele>
        <time>2010-10-24T10:17:43Z</time>
      </trkpt>
      <trkpt lat="44.12584" lon="3.18487">
        <ele>730</ele>
        <time>2010-10-24T10:17:50Z</time>
      </trkpt>
      <trkpt lat="44.12593" lon="3.18491">
        <ele>729.79998779297</ele>
        <time>2010-10-24T10:18:01Z</time>
      </trkpt>
      <trkpt lat="44.12595" lon="3.18493">
        <ele>729.79998779297</ele>
        <time>2010-10-24T10:18:07Z</time>
      </trkpt>
      <trkpt lat="44.12603" lon="3.18492">
        <ele>741.20001220703</ele>
        <time>2010-10-24T10:18:38Z</time>
      </trkpt>
      <trkpt lat="44.12606" lon="3.18495">
        <ele>742.59997558594</ele>
        <time>2010-10-24T10:18:42Z</time>
      </trkpt>
      <trkpt lat="44.12606" lon="3.18498">
        <ele>743.40002441406</ele>
        <time>2010-10-24T10:18:44Z</time>
      </trkpt>
      <trkpt lat="44.12611" lon="3.1851">
        <ele>746.40002441406</ele>
        <time>2010-10-24T10:18:58Z</time>
      </trkpt>
      <trkpt lat="44.12619" lon="3.18513">
        <ele>746.20001220703</ele>
        <time>2010-10-24T10:19:08Z</time>
      </trkpt>
      <trkpt lat="44.12621" lon="3.18513">
        <ele>746.20001220703</ele>
        <time>2010-10-24T10:19:09Z</time>
      </trkpt>
      <trkpt lat="44.12622" lon="3.18508">
        <ele>747.40002441406</ele>
        <time>2010-10-24T10:19:17Z</time>
      </trkpt>
      <trkpt lat="44.1262" lon="3.18502">
        <ele>748.59997558594</ele>
        <time>2010-10-24T10:19:20Z</time>
      </trkpt>
      <trkpt lat="44.12625" lon="3.18499">
        <ele>772.79998779297</ele>
        <time>2010-10-24T10:19:54Z</time>
      </trkpt>
      <trkpt lat="44.12628" lon="3.18505">
        <ele>776.59997558594</ele>
        <time>2010-10-24T10:20:02Z</time>
      </trkpt>
      <trkpt lat="44.12634" lon="3.18506">
        <ele>777.79998779297</ele>
        <time>2010-10-24T10:20:07Z</time>
      </trkpt>
      <trkpt lat="44.12648" lon="3.18501">
        <ele>777</ele>
        <time>2010-10-24T10:20:23Z</time>
      </trkpt>
      <trkpt lat="44.12661" lon="3.18516">
        <ele>772.59997558594</ele>
        <time>2010-10-24T10:21:06Z</time>
      </trkpt>
      <trkpt lat="44.12678" lon="3.1852">
        <ele>773</ele>
        <time>2010-10-24T10:21:42Z</time>
      </trkpt>
      <trkpt lat="44.12689" lon="3.18514">
        <ele>780</ele>
        <time>2010-10-24T10:22:38Z</time>
      </trkpt>
      <trkpt lat="44.12703" lon="3.18502">
        <ele>781.79998779297</ele>
        <time>2010-10-24T10:23:04Z</time>
      </trkpt>
      <trkpt lat="44.12711" lon="3.18479">
        <ele>783.20001220703</ele>
        <time>2010-10-24T10:23:26Z</time>
      </trkpt>
      <trkpt lat="44.12717" lon="3.18476">
        <ele>783.59997558594</ele>
        <time>2010-10-24T10:23:30Z</time>
      </trkpt>
      <trkpt lat="44.12725" lon="3.18469">
        <ele>784.40002441406</ele>
        <time>2010-10-24T10:23:37Z</time>
      </trkpt>
      <trkpt lat="44.12726" lon="3.18464">
        <ele>784.59997558594</ele>
        <time>2010-10-24T10:23:39Z</time>
      </trkpt>
      <trkpt lat="44.1273" lon="3.18453">
        <ele>784.40002441406</ele>
        <time>2010-10-24T10:23:43Z</time>
      </trkpt>
      <trkpt lat="44.12734" lon="3.18443">
        <ele>784.40002441406</ele>
        <time>2010-10-24T10:23:47Z</time>
      </trkpt>
      <trkpt lat="44.12735" lon="3.18441">
        <ele>784.40002441406</ele>
        <time>2010-10-24T10:23:48Z</time>
      </trkpt>
      <trkpt lat="44.12739" lon="3.18433">
        <ele>784.20001220703</ele>
        <time>2010-10-24T10:23:52Z</time>
      </trkpt>
      <trkpt lat="44.12743" lon="3.18419">
        <ele>784.20001220703</ele>
        <time>2010-10-24T10:23:56Z</time>
      </trkpt>
      <trkpt lat="44.12746" lon="3.18408">
        <ele>784.20001220703</ele>
        <time>2010-10-24T10:24:00Z</time>
      </trkpt>
      <trkpt lat="44.12749" lon="3.18404">
        <ele>784.40002441406</ele>
        <time>2010-10-24T10:24:05Z</time>
      </trkpt>
      <trkpt lat="44.12753" lon="3.18397">
        <ele>784.40002441406</ele>
        <time>2010-10-24T10:24:11Z</time>
      </trkpt>
      <trkpt lat="44.12754" lon="3.18397">
        <ele>784.59997558594</ele>
        <time>2010-10-24T10:24:12Z</time>
      </trkpt>
      <trkpt lat="44.12759" lon="3.18389">
        <ele>785.40002441406</ele>
        <time>2010-10-24T10:24:22Z</time>
      </trkpt>
      <trkpt lat="44.12761" lon="3.18384">
        <ele>785.59997558594</ele>
        <time>2010-10-24T10:24:25Z</time>
      </trkpt>
      <trkpt lat="44.12763" lon="3.1838">
        <ele>786</ele>
        <time>2010-10-24T10:24:29Z</time>
      </trkpt>
      <trkpt lat="44.12765" lon="3.18378">
        <ele>786.59997558594</ele>
        <time>2010-10-24T10:24:32Z</time>
      </trkpt>
      <trkpt lat="44.12765" lon="3.18377">
        <ele>786.79998779297</ele>
        <time>2010-10-24T10:24:33Z</time>
      </trkpt>
      <trkpt lat="44.12766" lon="3.18374">
        <ele>787.40002441406</ele>
        <time>2010-10-24T10:24:36Z</time>
      </trkpt>
      <trkpt lat="44.12776" lon="3.18352">
        <ele>789.20001220703</ele>
        <time>2010-10-24T10:24:47Z</time>
      </trkpt>
      <trkpt lat="44.12778" lon="3.18336">
        <ele>790.79998779297</ele>
        <time>2010-10-24T10:24:54Z</time>
      </trkpt>
      <trkpt lat="44.1278" lon="3.18326">
        <ele>792</ele>
        <time>2010-10-24T10:24:58Z</time>
      </trkpt>
      <trkpt lat="44.1278" lon="3.18323">
        <ele>792.40002441406</ele>
        <time>2010-10-24T10:24:59Z</time>
      </trkpt>
      <trkpt lat="44.12781" lon="3.18303">
        <ele>794.79998779297</ele>
        <time>2010-10-24T10:25:06Z</time>
      </trkpt>
      <trkpt lat="44.12782" lon="3.18301">
        <ele>795</ele>
        <time>2010-10-24T10:25:07Z</time>
      </trkpt>
      <trkpt lat="44.12784" lon="3.18279">
        <ele>798.59997558594</ele>
        <time>2010-10-24T10:25:16Z</time>
      </trkpt>
      <trkpt lat="44.12784" lon="3.18276">
        <ele>798.79998779297</ele>
        <time>2010-10-24T10:25:17Z</time>
      </trkpt>
      <trkpt lat="44.12786" lon="3.18258">
        <ele>801.59997558594</ele>
        <time>2010-10-24T10:25:29Z</time>
      </trkpt>
      <trkpt lat="44.12788" lon="3.18254">
        <ele>802.20001220703</ele>
        <time>2010-10-24T10:25:33Z</time>
      </trkpt>
      <trkpt lat="44.12789" lon="3.18252">
        <ele>802.40002441406</ele>
        <time>2010-10-24T10:25:35Z</time>
      </trkpt>
      <trkpt lat="44.12791" lon="3.18239">
        <ele>805.20001220703</ele>
        <time>2010-10-24T10:25:45Z</time>
      </trkpt>
      <trkpt lat="44.12795" lon="3.18229">
        <ele>807.20001220703</ele>
        <time>2010-10-24T10:25:51Z</time>
      </trkpt>
      <trkpt lat="44.12796" lon="3.18224">
        <ele>809</ele>
        <time>2010-10-24T10:25:57Z</time>
      </trkpt>
      <trkpt lat="44.12799" lon="3.18215">
        <ele>811.20001220703</ele>
        <time>2010-10-24T10:26:05Z</time>
      </trkpt>
      <trkpt lat="44.12801" lon="3.18211">
        <ele>812.20001220703</ele>
        <time>2010-10-24T10:26:08Z</time>
      </trkpt>
      <trkpt lat="44.12803" lon="3.18204">
        <ele>813.40002441406</ele>
        <time>2010-10-24T10:26:12Z</time>
      </trkpt>
      <trkpt lat="44.12806" lon="3.18198">
        <ele>814.20001220703</ele>
        <time>2010-10-24T10:26:15Z</time>
      </trkpt>
      <trkpt lat="44.12811" lon="3.18187">
        <ele>815.40002441406</ele>
        <time>2010-10-24T10:26:20Z</time>
      </trkpt>
      <trkpt lat="44.12814" lon="3.18183">
        <ele>816.20001220703</ele>
        <time>2010-10-24T10:26:22Z</time>
      </trkpt>
      <trkpt lat="44.12822" lon="3.18172">
        <ele>817.59997558594</ele>
        <time>2010-10-24T10:26:27Z</time>
      </trkpt>
      <trkpt lat="44.12823" lon="3.18169">
        <ele>817.79998779297</ele>
        <time>2010-10-24T10:26:28Z</time>
      </trkpt>
      <trkpt lat="44.12826" lon="3.18165">
        <ele>818.20001220703</ele>
        <time>2010-10-24T10:26:30Z</time>
      </trkpt>
      <trkpt lat="44.12835" lon="3.18141">
        <ele>820.40002441406</ele>
        <time>2010-10-24T10:26:39Z</time>
      </trkpt>
      <trkpt lat="44.12836" lon="3.18135">
        <ele>820.79998779297</ele>
        <time>2010-10-24T10:26:41Z</time>
      </trkpt>
      <trkpt lat="44.12843" lon="3.18121">
        <ele>822.59997558594</ele>
        <time>2010-10-24T10:26:50Z</time>
      </trkpt>
      <trkpt lat="44.12844" lon="3.1812">
        <ele>822.79998779297</ele>
        <time>2010-10-24T10:26:51Z</time>
      </trkpt>
      <trkpt lat="44.12845" lon="3.18119">
        <ele>822.79998779297</ele>
        <time>2010-10-24T10:26:52Z</time>
      </trkpt>
      <trkpt lat="44.12851" lon="3.18114">
        <ele>823.59997558594</ele>
        <time>2010-10-24T10:26:57Z</time>
      </trkpt>
      <trkpt lat="44.12854" lon="3.1811">
        <ele>824</ele>
        <time>2010-10-24T10:27:01Z</time>
      </trkpt>
      <trkpt lat="44.12855" lon="3.18109">
        <ele>824.40002441406</ele>
        <time>2010-10-24T10:27:03Z</time>
      </trkpt>
      <trkpt lat="44.1286" lon="3.18104">
        <ele>825.20001220703</ele>
        <time>2010-10-24T10:27:10Z</time>
      </trkpt>
      <trkpt lat="44.12864" lon="3.18102">
        <ele>825.59997558594</ele>
        <time>2010-10-24T10:27:12Z</time>
      </trkpt>
      <trkpt lat="44.12877" lon="3.18096">
        <ele>826.40002441406</ele>
        <time>2010-10-24T10:27:17Z</time>
      </trkpt>
      <trkpt lat="44.12883" lon="3.18089">
        <ele>827</ele>
        <time>2010-10-24T10:27:20Z</time>
      </trkpt>
      <trkpt lat="44.12882" lon="3.18073">
        <ele>827.79998779297</ele>
        <time>2010-10-24T10:27:24Z</time>
      </trkpt>
      <trkpt lat="44.12882" lon="3.18048">
        <ele>829</ele>
        <time>2010-10-24T10:27:30Z</time>
      </trkpt>
      <trkpt lat="44.12886" lon="3.18019">
        <ele>830.20001220703</ele>
        <time>2010-10-24T10:27:37Z</time>
      </trkpt>
      <trkpt lat="44.12893" lon="3.17996">
        <ele>831</ele>
        <time>2010-10-24T10:27:43Z</time>
      </trkpt>
      <trkpt lat="44.12898" lon="3.17988">
        <ele>831.40002441406</ele>
        <time>2010-10-24T10:27:46Z</time>
      </trkpt>
      <trkpt lat="44.12905" lon="3.17976">
        <ele>831.40002441406</ele>
        <time>2010-10-24T10:27:50Z</time>
      </trkpt>
      <trkpt lat="44.12917" lon="3.17953">
        <ele>831.59997558594</ele>
        <time>2010-10-24T10:27:57Z</time>
      </trkpt>
      <trkpt lat="44.12929" lon="3.17931">
        <ele>831.40002441406</ele>
        <time>2010-10-24T10:28:04Z</time>
      </trkpt>
      <trkpt lat="44.12933" lon="3.17906">
        <ele>831.40002441406</ele>
        <time>2010-10-24T10:28:10Z</time>
      </trkpt>
      <trkpt lat="44.1293" lon="3.1788">
        <ele>831</ele>
        <time>2010-10-24T10:28:16Z</time>
      </trkpt>
      <trkpt lat="44.12922" lon="3.17857">
        <ele>830.79998779297</ele>
        <time>2010-10-24T10:28:22Z</time>
      </trkpt>
      <trkpt lat="44.12913" lon="3.17835">
        <ele>830.20001220703</ele>
        <time>2010-10-24T10:28:29Z</time>
      </trkpt>
      <trkpt lat="44.1291" lon="3.17808">
        <ele>829.79998779297</ele>
        <time>2010-10-24T10:28:36Z</time>
      </trkpt>
      <trkpt lat="44.12906" lon="3.17783">
        <ele>829.20001220703</ele>
        <time>2010-10-24T10:28:43Z</time>
      </trkpt>
      <trkpt lat="44.12903" lon="3.17757">
        <ele>828.79998779297</ele>
        <time>2010-10-24T10:28:50Z</time>
      </trkpt>
      <trkpt lat="44.12909" lon="3.17731">
        <ele>828.20001220703</ele>
        <time>2010-10-24T10:28:58Z</time>
      </trkpt>
      <trkpt lat="44.12922" lon="3.17709">
        <ele>827.79998779297</ele>
        <time>2010-10-24T10:29:06Z</time>
      </trkpt>
      <trkpt lat="44.12931" lon="3.17687">
        <ele>827.40002441406</ele>
        <time>2010-10-24T10:29:13Z</time>
      </trkpt>
      <trkpt lat="44.12936" lon="3.1766">
        <ele>827.20001220703</ele>
        <time>2010-10-24T10:29:20Z</time>
      </trkpt>
      <trkpt lat="44.12944" lon="3.17635">
        <ele>827</ele>
        <time>2010-10-24T10:29:27Z</time>
      </trkpt>
      <trkpt lat="44.12951" lon="3.1761">
        <ele>826.79998779297</ele>
        <time>2010-10-24T10:29:34Z</time>
      </trkpt>
      <trkpt lat="44.1296" lon="3.17585">
        <ele>826.40002441406</ele>
        <time>2010-10-24T10:29:42Z</time>
      </trkpt>
      <trkpt lat="44.12975" lon="3.17566">
        <ele>826.20001220703</ele>
        <time>2010-10-24T10:29:50Z</time>
      </trkpt>
      <trkpt lat="44.12977" lon="3.17563">
        <ele>826</ele>
        <time>2010-10-24T10:29:51Z</time>
      </trkpt>
      <trkpt lat="44.12985" lon="3.17556">
        <ele>826</ele>
        <time>2010-10-24T10:29:55Z</time>
      </trkpt>
      <trkpt lat="44.1299" lon="3.17552">
        <ele>825.79998779297</ele>
        <time>2010-10-24T10:29:57Z</time>
      </trkpt>
      <trkpt lat="44.13007" lon="3.17541">
        <ele>826</ele>
        <time>2010-10-24T10:30:05Z</time>
      </trkpt>
      <trkpt lat="44.13025" lon="3.17528">
        <ele>826</ele>
        <time>2010-10-24T10:30:13Z</time>
      </trkpt>
      <trkpt lat="44.13041" lon="3.17514">
        <ele>826</ele>
        <time>2010-10-24T10:30:21Z</time>
      </trkpt>
      <trkpt lat="44.13058" lon="3.17503">
        <ele>826.20001220703</ele>
        <time>2010-10-24T10:30:29Z</time>
      </trkpt>
      <trkpt lat="44.13074" lon="3.17489">
        <ele>826.59997558594</ele>
        <time>2010-10-24T10:30:37Z</time>
      </trkpt>
      <trkpt lat="44.13091" lon="3.17473">
        <ele>827.40002441406</ele>
        <time>2010-10-24T10:30:46Z</time>
      </trkpt>
      <trkpt lat="44.13101" lon="3.17452">
        <ele>828</ele>
        <time>2010-10-24T10:30:55Z</time>
      </trkpt>
      <trkpt lat="44.13108" lon="3.17426">
        <ele>829.40002441406</ele>
        <time>2010-10-24T10:31:04Z</time>
      </trkpt>
      <trkpt lat="44.13118" lon="3.17405">
        <ele>830.59997558594</ele>
        <time>2010-10-24T10:31:12Z</time>
      </trkpt>
      <trkpt lat="44.13132" lon="3.17386">
        <ele>831.59997558594</ele>
        <time>2010-10-24T10:31:20Z</time>
      </trkpt>
      <trkpt lat="44.13148" lon="3.17374">
        <ele>832</ele>
        <time>2010-10-24T10:31:27Z</time>
      </trkpt>
      <trkpt lat="44.13165" lon="3.17365">
        <ele>831.79998779297</ele>
        <time>2010-10-24T10:31:34Z</time>
      </trkpt>
      <trkpt lat="44.13184" lon="3.17354">
        <ele>831.79998779297</ele>
        <time>2010-10-24T10:31:41Z</time>
      </trkpt>
      <trkpt lat="44.132" lon="3.17339">
        <ele>831.40002441406</ele>
        <time>2010-10-24T10:31:48Z</time>
      </trkpt>
      <trkpt lat="44.13215" lon="3.17322">
        <ele>831.20001220703</ele>
        <time>2010-10-24T10:31:55Z</time>
      </trkpt>
      <trkpt lat="44.13232" lon="3.1731">
        <ele>831</ele>
        <time>2010-10-24T10:32:02Z</time>
      </trkpt>
      <trkpt lat="44.1325" lon="3.17304">
        <ele>830.79998779297</ele>
        <time>2010-10-24T10:32:09Z</time>
      </trkpt>
      <trkpt lat="44.1327" lon="3.17309">
        <ele>830.40002441406</ele>
        <time>2010-10-24T10:32:17Z</time>
      </trkpt>
      <trkpt lat="44.13288" lon="3.17313">
        <ele>830.20001220703</ele>
        <time>2010-10-24T10:32:25Z</time>
      </trkpt>
      <trkpt lat="44.13303" lon="3.17299">
        <ele>830.20001220703</ele>
        <time>2010-10-24T10:32:32Z</time>
      </trkpt>
      <trkpt lat="44.13321" lon="3.17287">
        <ele>830.40002441406</ele>
        <time>2010-10-24T10:32:40Z</time>
      </trkpt>
      <trkpt lat="44.13326" lon="3.17282">
        <ele>830.40002441406</ele>
        <time>2010-10-24T10:32:43Z</time>
      </trkpt>
      <trkpt lat="44.13335" lon="3.17272">
        <ele>830.40002441406</ele>
        <time>2010-10-24T10:32:48Z</time>
      </trkpt>
      <trkpt lat="44.13337" lon="3.1727">
        <ele>830.40002441406</ele>
        <time>2010-10-24T10:32:49Z</time>
      </trkpt>
      <trkpt lat="44.13353" lon="3.17257">
        <ele>830.59997558594</ele>
        <time>2010-10-24T10:32:57Z</time>
      </trkpt>
      <trkpt lat="44.1337" lon="3.17246">
        <ele>830.79998779297</ele>
        <time>2010-10-24T10:33:06Z</time>
      </trkpt>
      <trkpt lat="44.13388" lon="3.17237">
        <ele>831.20001220703</ele>
        <time>2010-10-24T10:33:15Z</time>
      </trkpt>
      <trkpt lat="44.13406" lon="3.17224">
        <ele>831.79998779297</ele>
        <time>2010-10-24T10:33:24Z</time>
      </trkpt>
      <trkpt lat="44.13409" lon="3.17215">
        <ele>832</ele>
        <time>2010-10-24T10:33:28Z</time>
      </trkpt>
      <trkpt lat="44.13409" lon="3.172">
        <ele>832.59997558594</ele>
        <time>2010-10-24T10:33:33Z</time>
      </trkpt>
      <trkpt lat="44.13409" lon="3.17196">
        <ele>832.79998779297</ele>
        <time>2010-10-24T10:33:34Z</time>
      </trkpt>
      <trkpt lat="44.1341" lon="3.17182">
        <ele>833.59997558594</ele>
        <time>2010-10-24T10:33:39Z</time>
      </trkpt>
      <trkpt lat="44.13412" lon="3.17173">
        <ele>834</ele>
        <time>2010-10-24T10:33:42Z</time>
      </trkpt>
      <trkpt lat="44.13413" lon="3.17167">
        <ele>834.40002441406</ele>
        <time>2010-10-24T10:33:44Z</time>
      </trkpt>
      <trkpt lat="44.13416" lon="3.17146">
        <ele>835.59997558594</ele>
        <time>2010-10-24T10:33:51Z</time>
      </trkpt>
      <trkpt lat="44.13417" lon="3.17119">
        <ele>837.79998779297</ele>
        <time>2010-10-24T10:34:00Z</time>
      </trkpt>
      <trkpt lat="44.13411" lon="3.17092">
        <ele>840</ele>
        <time>2010-10-24T10:34:08Z</time>
      </trkpt>
      <trkpt lat="44.13399" lon="3.17074">
        <ele>841.79998779297</ele>
        <time>2010-10-24T10:34:16Z</time>
      </trkpt>
      <trkpt lat="44.13385" lon="3.17056">
        <ele>842.59997558594</ele>
        <time>2010-10-24T10:34:25Z</time>
      </trkpt>
      <trkpt lat="44.13381" lon="3.17049">
        <ele>842.79998779297</ele>
        <time>2010-10-24T10:34:28Z</time>
      </trkpt>
      <trkpt lat="44.13375" lon="3.17037">
        <ele>843</ele>
        <time>2010-10-24T10:34:32Z</time>
      </trkpt>
      <trkpt lat="44.13374" lon="3.17034">
        <ele>842.79998779297</ele>
        <time>2010-10-24T10:34:33Z</time>
      </trkpt>
      <trkpt lat="44.13365" lon="3.17008">
        <ele>842.79998779297</ele>
        <time>2010-10-24T10:34:40Z</time>
      </trkpt>
      <trkpt lat="44.13359" lon="3.16983">
        <ele>842.40002441406</ele>
        <time>2010-10-24T10:34:47Z</time>
      </trkpt>
      <trkpt lat="44.13358" lon="3.1698">
        <ele>842.40002441406</ele>
        <time>2010-10-24T10:34:48Z</time>
      </trkpt>
      <trkpt lat="44.13348" lon="3.16965">
        <ele>842</ele>
        <time>2010-10-24T10:34:54Z</time>
      </trkpt>
      <trkpt lat="44.13345" lon="3.16963">
        <ele>842</ele>
        <time>2010-10-24T10:34:55Z</time>
      </trkpt>
      <trkpt lat="44.13337" lon="3.16953">
        <ele>841.79998779297</ele>
        <time>2010-10-24T10:35:00Z</time>
      </trkpt>
      <trkpt lat="44.13335" lon="3.16943">
        <ele>841.59997558594</ele>
        <time>2010-10-24T10:35:03Z</time>
      </trkpt>
      <trkpt lat="44.13337" lon="3.16916">
        <ele>841.20001220703</ele>
        <time>2010-10-24T10:35:11Z</time>
      </trkpt>
      <trkpt lat="44.13337" lon="3.16898">
        <ele>841.40002441406</ele>
        <time>2010-10-24T10:35:17Z</time>
      </trkpt>
      <trkpt lat="44.13337" lon="3.16888">
        <ele>841.59997558594</ele>
        <time>2010-10-24T10:35:20Z</time>
      </trkpt>
      <trkpt lat="44.13339" lon="3.1686">
        <ele>843</ele>
        <time>2010-10-24T10:35:28Z</time>
      </trkpt>
      <trkpt lat="44.13344" lon="3.16833">
        <ele>844.20001220703</ele>
        <time>2010-10-24T10:35:36Z</time>
      </trkpt>
      <trkpt lat="44.13341" lon="3.16806">
        <ele>844.79998779297</ele>
        <time>2010-10-24T10:35:43Z</time>
      </trkpt>
      <trkpt lat="44.13336" lon="3.1678">
        <ele>844.79998779297</ele>
        <time>2010-10-24T10:35:51Z</time>
      </trkpt>
      <trkpt lat="44.13329" lon="3.16754">
        <ele>844.59997558594</ele>
        <time>2010-10-24T10:35:59Z</time>
      </trkpt>
      <trkpt lat="44.13317" lon="3.16732">
        <ele>844.40002441406</ele>
        <time>2010-10-24T10:36:06Z</time>
      </trkpt>
      <trkpt lat="44.13301" lon="3.16716">
        <ele>844.20001220703</ele>
        <time>2010-10-24T10:36:13Z</time>
      </trkpt>
      <trkpt lat="44.13292" lon="3.16695">
        <ele>844.20001220703</ele>
        <time>2010-10-24T10:36:20Z</time>
      </trkpt>
      <trkpt lat="44.13282" lon="3.1667">
        <ele>844</ele>
        <time>2010-10-24T10:36:28Z</time>
      </trkpt>
      <trkpt lat="44.13269" lon="3.16648">
        <ele>844.20001220703</ele>
        <time>2010-10-24T10:36:36Z</time>
      </trkpt>
      <trkpt lat="44.1325" lon="3.16644">
        <ele>844.20001220703</ele>
        <time>2010-10-24T10:36:43Z</time>
      </trkpt>
      <trkpt lat="44.13232" lon="3.16635">
        <ele>844.20001220703</ele>
        <time>2010-10-24T10:36:50Z</time>
      </trkpt>
      <trkpt lat="44.13216" lon="3.16622">
        <ele>844</ele>
        <time>2010-10-24T10:36:57Z</time>
      </trkpt>
      <trkpt lat="44.13201" lon="3.16609">
        <ele>844.20001220703</ele>
        <time>2010-10-24T10:37:04Z</time>
      </trkpt>
      <trkpt lat="44.13184" lon="3.16593">
        <ele>844</ele>
        <time>2010-10-24T10:37:12Z</time>
      </trkpt>
      <trkpt lat="44.13167" lon="3.16584">
        <ele>843.79998779297</ele>
        <time>2010-10-24T10:37:19Z</time>
      </trkpt>
      <trkpt lat="44.13149" lon="3.16576">
        <ele>843.59997558594</ele>
        <time>2010-10-24T10:37:26Z</time>
      </trkpt>
      <trkpt lat="44.13132" lon="3.16566">
        <ele>843.40002441406</ele>
        <time>2010-10-24T10:37:32Z</time>
      </trkpt>
      <trkpt lat="44.13116" lon="3.16549">
        <ele>843</ele>
        <time>2010-10-24T10:37:39Z</time>
      </trkpt>
      <trkpt lat="44.13099" lon="3.16536">
        <ele>842.40002441406</ele>
        <time>2010-10-24T10:37:46Z</time>
      </trkpt>
      <trkpt lat="44.13091" lon="3.16527">
        <ele>842.20001220703</ele>
        <time>2010-10-24T10:37:50Z</time>
      </trkpt>
      <trkpt lat="44.13092" lon="3.16515">
        <ele>842</ele>
        <time>2010-10-24T10:37:53Z</time>
      </trkpt>
      <trkpt lat="44.13094" lon="3.1649">
        <ele>841.59997558594</ele>
        <time>2010-10-24T10:38:00Z</time>
      </trkpt>
      <trkpt lat="44.13094" lon="3.16465">
        <ele>841.40002441406</ele>
        <time>2010-10-24T10:38:07Z</time>
      </trkpt>
      <trkpt lat="44.13096" lon="3.16438">
        <ele>841.40002441406</ele>
        <time>2010-10-24T10:38:15Z</time>
      </trkpt>
      <trkpt lat="44.13098" lon="3.16422">
        <ele>841.40002441406</ele>
        <time>2010-10-24T10:38:20Z</time>
      </trkpt>
      <trkpt lat="44.13101" lon="3.16412">
        <ele>841.40002441406</ele>
        <time>2010-10-24T10:38:23Z</time>
      </trkpt>
      <trkpt lat="44.13103" lon="3.16406">
        <ele>841.40002441406</ele>
        <time>2010-10-24T10:38:25Z</time>
      </trkpt>
      <trkpt lat="44.13112" lon="3.16391">
        <ele>841.40002441406</ele>
        <time>2010-10-24T10:38:31Z</time>
      </trkpt>
      <trkpt lat="44.1312" lon="3.16366">
        <ele>842</ele>
        <time>2010-10-24T10:38:40Z</time>
      </trkpt>
      <trkpt lat="44.13115" lon="3.16341">
        <ele>843.40002441406</ele>
        <time>2010-10-24T10:38:48Z</time>
      </trkpt>
      <trkpt lat="44.13109" lon="3.16315">
        <ele>844.40002441406</ele>
        <time>2010-10-24T10:38:56Z</time>
      </trkpt>
      <trkpt lat="44.13105" lon="3.1629">
        <ele>845</ele>
        <time>2010-10-24T10:39:03Z</time>
      </trkpt>
      <trkpt lat="44.13105" lon="3.16287">
        <ele>845.20001220703</ele>
        <time>2010-10-24T10:39:04Z</time>
      </trkpt>
      <trkpt lat="44.13102" lon="3.16261">
        <ele>846.20001220703</ele>
        <time>2010-10-24T10:39:13Z</time>
      </trkpt>
      <trkpt lat="44.131" lon="3.16235">
        <ele>846.79998779297</ele>
        <time>2010-10-24T10:39:21Z</time>
      </trkpt>
      <trkpt lat="44.13096" lon="3.16209">
        <ele>847.40002441406</ele>
        <time>2010-10-24T10:39:28Z</time>
      </trkpt>
      <trkpt lat="44.13095" lon="3.16183">
        <ele>848.20001220703</ele>
        <time>2010-10-24T10:39:35Z</time>
      </trkpt>
      <trkpt lat="44.13097" lon="3.16156">
        <ele>848.79998779297</ele>
        <time>2010-10-24T10:39:42Z</time>
      </trkpt>
      <trkpt lat="44.13098" lon="3.16129">
        <ele>849.20001220703</ele>
        <time>2010-10-24T10:39:49Z</time>
      </trkpt>
      <trkpt lat="44.13101" lon="3.16102">
        <ele>849.79998779297</ele>
        <time>2010-10-24T10:39:56Z</time>
      </trkpt>
      <trkpt lat="44.131" lon="3.16076">
        <ele>850</ele>
        <time>2010-10-24T10:40:03Z</time>
      </trkpt>
      <trkpt lat="44.131" lon="3.16048">
        <ele>850</ele>
        <time>2010-10-24T10:40:10Z</time>
      </trkpt>
      <trkpt lat="44.131" lon="3.16021">
        <ele>850</ele>
        <time>2010-10-24T10:40:17Z</time>
      </trkpt>
      <trkpt lat="44.13102" lon="3.15995">
        <ele>850</ele>
        <time>2010-10-24T10:40:24Z</time>
      </trkpt>
      <trkpt lat="44.13102" lon="3.15969">
        <ele>849.79998779297</ele>
        <time>2010-10-24T10:40:31Z</time>
      </trkpt>
      <trkpt lat="44.13104" lon="3.15942">
        <ele>849.40002441406</ele>
        <time>2010-10-24T10:40:38Z</time>
      </trkpt>
      <trkpt lat="44.13106" lon="3.15916">
        <ele>849.20001220703</ele>
        <time>2010-10-24T10:40:45Z</time>
      </trkpt>
      <trkpt lat="44.13102" lon="3.15889">
        <ele>849</ele>
        <time>2010-10-24T10:40:52Z</time>
      </trkpt>
      <trkpt lat="44.13094" lon="3.15864">
        <ele>848.59997558594</ele>
        <time>2010-10-24T10:40:59Z</time>
      </trkpt>
      <trkpt lat="44.13083" lon="3.1584">
        <ele>848.59997558594</ele>
        <time>2010-10-24T10:41:06Z</time>
      </trkpt>
      <trkpt lat="44.13072" lon="3.15819">
        <ele>848.40002441406</ele>
        <time>2010-10-24T10:41:13Z</time>
      </trkpt>
      <trkpt lat="44.13062" lon="3.15794">
        <ele>849</ele>
        <time>2010-10-24T10:41:20Z</time>
      </trkpt>
      <trkpt lat="44.13052" lon="3.15773">
        <ele>849.59997558594</ele>
        <time>2010-10-24T10:41:26Z</time>
      </trkpt>
      <trkpt lat="44.13043" lon="3.15747">
        <ele>850.79998779297</ele>
        <time>2010-10-24T10:41:33Z</time>
      </trkpt>
      <trkpt lat="44.13031" lon="3.15725">
        <ele>851.59997558594</ele>
        <time>2010-10-24T10:41:40Z</time>
      </trkpt>
      <trkpt lat="44.13021" lon="3.15704">
        <ele>851.79998779297</ele>
        <time>2010-10-24T10:41:47Z</time>
      </trkpt>
      <trkpt lat="44.13012" lon="3.15681">
        <ele>851.59997558594</ele>
        <time>2010-10-24T10:41:54Z</time>
      </trkpt>
      <trkpt lat="44.13002" lon="3.15656">
        <ele>851.20001220703</ele>
        <time>2010-10-24T10:42:01Z</time>
      </trkpt>
      <trkpt lat="44.12993" lon="3.1563">
        <ele>851.20001220703</ele>
        <time>2010-10-24T10:42:08Z</time>
      </trkpt>
      <trkpt lat="44.12982" lon="3.15607">
        <ele>851</ele>
        <time>2010-10-24T10:42:15Z</time>
      </trkpt>
      <trkpt lat="44.1297" lon="3.15586">
        <ele>851</ele>
        <time>2010-10-24T10:42:22Z</time>
      </trkpt>
      <trkpt lat="44.12959" lon="3.15563">
        <ele>851</ele>
        <time>2010-10-24T10:42:29Z</time>
      </trkpt>
      <trkpt lat="44.12949" lon="3.15542">
        <ele>850.79998779297</ele>
        <time>2010-10-24T10:42:36Z</time>
      </trkpt>
      <trkpt lat="44.12938" lon="3.1552">
        <ele>850.79998779297</ele>
        <time>2010-10-24T10:42:43Z</time>
      </trkpt>
      <trkpt lat="44.1293" lon="3.15496">
        <ele>850.79998779297</ele>
        <time>2010-10-24T10:42:50Z</time>
      </trkpt>
      <trkpt lat="44.1292" lon="3.15473">
        <ele>850.40002441406</ele>
        <time>2010-10-24T10:42:57Z</time>
      </trkpt>
      <trkpt lat="44.1291" lon="3.15451">
        <ele>850.40002441406</ele>
        <time>2010-10-24T10:43:04Z</time>
      </trkpt>
      <trkpt lat="44.12899" lon="3.15428">
        <ele>850.79998779297</ele>
        <time>2010-10-24T10:43:12Z</time>
      </trkpt>
      <trkpt lat="44.12886" lon="3.15409">
        <ele>850.79998779297</ele>
        <time>2010-10-24T10:43:19Z</time>
      </trkpt>
      <trkpt lat="44.12872" lon="3.15391">
        <ele>851.20001220703</ele>
        <time>2010-10-24T10:43:26Z</time>
      </trkpt>
      <trkpt lat="44.12861" lon="3.1537">
        <ele>851.40002441406</ele>
        <time>2010-10-24T10:43:33Z</time>
      </trkpt>
      <trkpt lat="44.12848" lon="3.15349">
        <ele>851.20001220703</ele>
        <time>2010-10-24T10:43:40Z</time>
      </trkpt>
      <trkpt lat="44.12834" lon="3.15332">
        <ele>851.40002441406</ele>
        <time>2010-10-24T10:43:47Z</time>
      </trkpt>
      <trkpt lat="44.12823" lon="3.15311">
        <ele>851.20001220703</ele>
        <time>2010-10-24T10:43:54Z</time>
      </trkpt>
      <trkpt lat="44.12813" lon="3.15288">
        <ele>851.20001220703</ele>
        <time>2010-10-24T10:44:01Z</time>
      </trkpt>
      <trkpt lat="44.12801" lon="3.15267">
        <ele>851.40002441406</ele>
        <time>2010-10-24T10:44:08Z</time>
      </trkpt>
      <trkpt lat="44.12786" lon="3.15247">
        <ele>852.20001220703</ele>
        <time>2010-10-24T10:44:16Z</time>
      </trkpt>
      <trkpt lat="44.12769" lon="3.15232">
        <ele>852.79998779297</ele>
        <time>2010-10-24T10:44:24Z</time>
      </trkpt>
      <trkpt lat="44.12753" lon="3.15221">
        <ele>853</ele>
        <time>2010-10-24T10:44:32Z</time>
      </trkpt>
      <trkpt lat="44.12737" lon="3.15226">
        <ele>852.79998779297</ele>
        <time>2010-10-24T10:44:40Z</time>
      </trkpt>
      <trkpt lat="44.12735" lon="3.15226">
        <ele>853</ele>
        <time>2010-10-24T10:44:41Z</time>
      </trkpt>
      <trkpt lat="44.12731" lon="3.15221">
        <ele>852.79998779297</ele>
        <time>2010-10-24T10:44:44Z</time>
      </trkpt>
      <trkpt lat="44.1273" lon="3.15214">
        <ele>852.79998779297</ele>
        <time>2010-10-24T10:44:46Z</time>
      </trkpt>
      <trkpt lat="44.12731" lon="3.15201">
        <ele>852.79998779297</ele>
        <time>2010-10-24T10:44:50Z</time>
      </trkpt>
      <trkpt lat="44.12723" lon="3.1519">
        <ele>852.59997558594</ele>
        <time>2010-10-24T10:44:54Z</time>
      </trkpt>
      <trkpt lat="44.12716" lon="3.15183">
        <ele>852.59997558594</ele>
        <time>2010-10-24T10:44:57Z</time>
      </trkpt>
      <trkpt lat="44.127" lon="3.15172">
        <ele>852.40002441406</ele>
        <time>2010-10-24T10:45:04Z</time>
      </trkpt>
      <trkpt lat="44.12691" lon="3.15159">
        <ele>852.20001220703</ele>
        <time>2010-10-24T10:45:09Z</time>
      </trkpt>
      <trkpt lat="44.12687" lon="3.15155">
        <ele>852</ele>
        <time>2010-10-24T10:45:11Z</time>
      </trkpt>
      <trkpt lat="44.12672" lon="3.15139">
        <ele>851.59997558594</ele>
        <time>2010-10-24T10:45:18Z</time>
      </trkpt>
      <trkpt lat="44.12657" lon="3.15123">
        <ele>850.79998779297</ele>
        <time>2010-10-24T10:45:25Z</time>
      </trkpt>
      <trkpt lat="44.12655" lon="3.1512">
        <ele>850.79998779297</ele>
        <time>2010-10-24T10:45:26Z</time>
      </trkpt>
      <trkpt lat="44.1265" lon="3.15109">
        <ele>850.40002441406</ele>
        <time>2010-10-24T10:45:30Z</time>
      </trkpt>
      <trkpt lat="44.12645" lon="3.15103">
        <ele>850.20001220703</ele>
        <time>2010-10-24T10:45:32Z</time>
      </trkpt>
      <trkpt lat="44.1264" lon="3.15096">
        <ele>850</ele>
        <time>2010-10-24T10:45:35Z</time>
      </trkpt>
      <trkpt lat="44.1263" lon="3.15086">
        <ele>849.79998779297</ele>
        <time>2010-10-24T10:45:39Z</time>
      </trkpt>
      <trkpt lat="44.12622" lon="3.15063">
        <ele>849</ele>
        <time>2010-10-24T10:45:46Z</time>
      </trkpt>
      <trkpt lat="44.12625" lon="3.15053">
        <ele>848.79998779297</ele>
        <time>2010-10-24T10:45:49Z</time>
      </trkpt>
      <trkpt lat="44.12629" lon="3.15037">
        <ele>848.40002441406</ele>
        <time>2010-10-24T10:45:54Z</time>
      </trkpt>
      <trkpt lat="44.12638" lon="3.15013">
        <ele>847.79998779297</ele>
        <time>2010-10-24T10:46:01Z</time>
      </trkpt>
      <trkpt lat="44.12645" lon="3.14998">
        <ele>847.59997558594</ele>
        <time>2010-10-24T10:46:06Z</time>
      </trkpt>
      <trkpt lat="44.12646" lon="3.14991">
        <ele>847.40002441406</ele>
        <time>2010-10-24T10:46:08Z</time>
      </trkpt>
      <trkpt lat="44.12648" lon="3.14984">
        <ele>847.40002441406</ele>
        <time>2010-10-24T10:46:10Z</time>
      </trkpt>
      <trkpt lat="44.12653" lon="3.14964">
        <ele>847.20001220703</ele>
        <time>2010-10-24T10:46:15Z</time>
      </trkpt>
      <trkpt lat="44.12657" lon="3.14937">
        <ele>847</ele>
        <time>2010-10-24T10:46:22Z</time>
      </trkpt>
      <trkpt lat="44.12657" lon="3.14911">
        <ele>847</ele>
        <time>2010-10-24T10:46:29Z</time>
      </trkpt>
      <trkpt lat="44.12655" lon="3.14885">
        <ele>847</ele>
        <time>2010-10-24T10:46:36Z</time>
      </trkpt>
      <trkpt lat="44.12654" lon="3.14858">
        <ele>847.20001220703</ele>
        <time>2010-10-24T10:46:43Z</time>
      </trkpt>
      <trkpt lat="44.12656" lon="3.14831">
        <ele>847.79998779297</ele>
        <time>2010-10-24T10:46:52Z</time>
      </trkpt>
      <trkpt lat="44.12656" lon="3.14827">
        <ele>847.79998779297</ele>
        <time>2010-10-24T10:46:54Z</time>
      </trkpt>
      <trkpt lat="44.12656" lon="3.14815">
        <ele>847.79998779297</ele>
        <time>2010-10-24T10:47:00Z</time>
      </trkpt>
      <trkpt lat="44.12654" lon="3.14806">
        <ele>848.20001220703</ele>
        <time>2010-10-24T10:47:04Z</time>
      </trkpt>
      <trkpt lat="44.12646" lon="3.14783">
        <ele>848.40002441406</ele>
        <time>2010-10-24T10:47:11Z</time>
      </trkpt>
      <trkpt lat="44.12643" lon="3.14755">
        <ele>848.59997558594</ele>
        <time>2010-10-24T10:47:18Z</time>
      </trkpt>
      <trkpt lat="44.12634" lon="3.14731">
        <ele>848.40002441406</ele>
        <time>2010-10-24T10:47:25Z</time>
      </trkpt>
      <trkpt lat="44.12618" lon="3.14715">
        <ele>848</ele>
        <time>2010-10-24T10:47:32Z</time>
      </trkpt>
      <trkpt lat="44.12606" lon="3.14695">
        <ele>847.59997558594</ele>
        <time>2010-10-24T10:47:38Z</time>
      </trkpt>
      <trkpt lat="44.12597" lon="3.1467">
        <ele>846.79998779297</ele>
        <time>2010-10-24T10:47:45Z</time>
      </trkpt>
      <trkpt lat="44.12593" lon="3.14644">
        <ele>846.20001220703</ele>
        <time>2010-10-24T10:47:52Z</time>
      </trkpt>
      <trkpt lat="44.12587" lon="3.14619">
        <ele>845.79998779297</ele>
        <time>2010-10-24T10:47:59Z</time>
      </trkpt>
      <trkpt lat="44.12573" lon="3.14603">
        <ele>845.59997558594</ele>
        <time>2010-10-24T10:48:06Z</time>
      </trkpt>
      <trkpt lat="44.12554" lon="3.14603">
        <ele>845.59997558594</ele>
        <time>2010-10-24T10:48:12Z</time>
      </trkpt>
      <trkpt lat="44.12545" lon="3.14606">
        <ele>845.40002441406</ele>
        <time>2010-10-24T10:48:16Z</time>
      </trkpt>
      <trkpt lat="44.12538" lon="3.14612">
        <ele>844.40002441406</ele>
        <time>2010-10-24T10:48:44Z</time>
      </trkpt>
      <trkpt lat="44.12528" lon="3.14616">
        <ele>844</ele>
        <time>2010-10-24T10:48:49Z</time>
      </trkpt>
      <trkpt lat="44.12521" lon="3.14623">
        <ele>843.79998779297</ele>
        <time>2010-10-24T10:48:52Z</time>
      </trkpt>
      <trkpt lat="44.12513" lon="3.14622">
        <ele>843.59997558594</ele>
        <time>2010-10-24T10:48:55Z</time>
      </trkpt>
      <trkpt lat="44.12501" lon="3.14618">
        <ele>843</ele>
        <time>2010-10-24T10:48:59Z</time>
      </trkpt>
      <trkpt lat="44.12485" lon="3.14604">
        <ele>842.20001220703</ele>
        <time>2010-10-24T10:49:05Z</time>
      </trkpt>
      <trkpt lat="44.12467" lon="3.14594">
        <ele>841.20001220703</ele>
        <time>2010-10-24T10:49:12Z</time>
      </trkpt>
      <trkpt lat="44.12447" lon="3.14596">
        <ele>840.20001220703</ele>
        <time>2010-10-24T10:49:19Z</time>
      </trkpt>
      <trkpt lat="44.12445" lon="3.14596">
        <ele>840.20001220703</ele>
        <time>2010-10-24T10:49:20Z</time>
      </trkpt>
      <trkpt lat="44.12446" lon="3.14587">
        <ele>839.59997558594</ele>
        <time>2010-10-24T10:49:25Z</time>
      </trkpt>
      <trkpt lat="44.12447" lon="3.14585">
        <ele>839.59997558594</ele>
        <time>2010-10-24T10:49:26Z</time>
      </trkpt>
      <trkpt lat="44.12451" lon="3.14574">
        <ele>839.20001220703</ele>
        <time>2010-10-24T10:49:30Z</time>
      </trkpt>
      <trkpt lat="44.12453" lon="3.14563">
        <ele>838.59997558594</ele>
        <time>2010-10-24T10:49:34Z</time>
      </trkpt>
      <trkpt lat="44.12455" lon="3.14554">
        <ele>838.40002441406</ele>
        <time>2010-10-24T10:49:37Z</time>
      </trkpt>
      <trkpt lat="44.12457" lon="3.14551">
        <ele>838.20001220703</ele>
        <time>2010-10-24T10:49:38Z</time>
      </trkpt>
      <trkpt lat="44.12468" lon="3.14532">
        <ele>837.40002441406</ele>
        <time>2010-10-24T10:49:46Z</time>
      </trkpt>
      <trkpt lat="44.12471" lon="3.1453">
        <ele>837.20001220703</ele>
        <time>2010-10-24T10:49:47Z</time>
      </trkpt>
      <trkpt lat="44.12481" lon="3.14524">
        <ele>837</ele>
        <time>2010-10-24T10:49:52Z</time>
      </trkpt>
      <trkpt lat="44.12487" lon="3.14521">
        <ele>836.79998779297</ele>
        <time>2010-10-24T10:49:55Z</time>
      </trkpt>
      <trkpt lat="44.12489" lon="3.1452">
        <ele>836.59997558594</ele>
        <time>2010-10-24T10:49:56Z</time>
      </trkpt>
      <trkpt lat="44.12495" lon="3.14499">
        <ele>836.20001220703</ele>
        <time>2010-10-24T10:50:04Z</time>
      </trkpt>
      <trkpt lat="44.12495" lon="3.14495">
        <ele>836</ele>
        <time>2010-10-24T10:50:05Z</time>
      </trkpt>
      <trkpt lat="44.12497" lon="3.14486">
        <ele>835.79998779297</ele>
        <time>2010-10-24T10:50:08Z</time>
      </trkpt>
      <trkpt lat="44.12505" lon="3.14478">
        <ele>835.59997558594</ele>
        <time>2010-10-24T10:50:12Z</time>
      </trkpt>
      <trkpt lat="44.12514" lon="3.14463">
        <ele>835</ele>
        <time>2010-10-24T10:50:17Z</time>
      </trkpt>
      <trkpt lat="44.12514" lon="3.14457">
        <ele>835</ele>
        <time>2010-10-24T10:50:19Z</time>
      </trkpt>
      <trkpt lat="44.12517" lon="3.14432">
        <ele>834.40002441406</ele>
        <time>2010-10-24T10:50:26Z</time>
      </trkpt>
      <trkpt lat="44.12521" lon="3.14406">
        <ele>833.79998779297</ele>
        <time>2010-10-24T10:50:33Z</time>
      </trkpt>
      <trkpt lat="44.12524" lon="3.14392">
        <ele>833.59997558594</ele>
        <time>2010-10-24T10:50:37Z</time>
      </trkpt>
      <trkpt lat="44.12524" lon="3.14381">
        <ele>833.20001220703</ele>
        <time>2010-10-24T10:50:41Z</time>
      </trkpt>
      <trkpt lat="44.12518" lon="3.14355">
        <ele>832</ele>
        <time>2010-10-24T10:50:50Z</time>
      </trkpt>
      <trkpt lat="44.12518" lon="3.14351">
        <ele>831.79998779297</ele>
        <time>2010-10-24T10:50:51Z</time>
      </trkpt>
      <trkpt lat="44.12518" lon="3.14348">
        <ele>831.79998779297</ele>
        <time>2010-10-24T10:50:53Z</time>
      </trkpt>
      <trkpt lat="44.12519" lon="3.14331">
        <ele>830</ele>
        <time>2010-10-24T10:51:03Z</time>
      </trkpt>
      <trkpt lat="44.12518" lon="3.14329">
        <ele>829.79998779297</ele>
        <time>2010-10-24T10:51:04Z</time>
      </trkpt>
      <trkpt lat="44.12518" lon="3.14305">
        <ele>828.59997558594</ele>
        <time>2010-10-24T10:51:12Z</time>
      </trkpt>
      <trkpt lat="44.12522" lon="3.14281">
        <ele>827.20001220703</ele>
        <time>2010-10-24T10:51:20Z</time>
      </trkpt>
      <trkpt lat="44.12521" lon="3.14278">
        <ele>827</ele>
        <time>2010-10-24T10:51:21Z</time>
      </trkpt>
      <trkpt lat="44.12519" lon="3.14266">
        <ele>826.40002441406</ele>
        <time>2010-10-24T10:51:26Z</time>
      </trkpt>
      <trkpt lat="44.12519" lon="3.14264">
        <ele>826.20001220703</ele>
        <time>2010-10-24T10:51:27Z</time>
      </trkpt>
      <trkpt lat="44.1251" lon="3.14258">
        <ele>825.79998779297</ele>
        <time>2010-10-24T10:51:31Z</time>
      </trkpt>
      <trkpt lat="44.12508" lon="3.14255">
        <ele>825.40002441406</ele>
        <time>2010-10-24T10:51:32Z</time>
      </trkpt>
      <trkpt lat="44.12506" lon="3.14255">
        <ele>825.40002441406</ele>
        <time>2010-10-24T10:51:33Z</time>
      </trkpt>
      <trkpt lat="44.12492" lon="3.14251">
        <ele>824.59997558594</ele>
        <time>2010-10-24T10:51:38Z</time>
      </trkpt>
      <trkpt lat="44.12487" lon="3.1425">
        <ele>824.59997558594</ele>
        <time>2010-10-24T10:51:40Z</time>
      </trkpt>
      <trkpt lat="44.12474" lon="3.14242">
        <ele>823.59997558594</ele>
        <time>2010-10-24T10:51:46Z</time>
      </trkpt>
      <trkpt lat="44.1246" lon="3.14221">
        <ele>822.79998779297</ele>
        <time>2010-10-24T10:51:53Z</time>
      </trkpt>
      <trkpt lat="44.12449" lon="3.14204">
        <ele>822</ele>
        <time>2010-10-24T10:51:58Z</time>
      </trkpt>
      <trkpt lat="44.12447" lon="3.14201">
        <ele>821.79998779297</ele>
        <time>2010-10-24T10:51:59Z</time>
      </trkpt>
      <trkpt lat="44.12448" lon="3.14198">
        <ele>821.59997558594</ele>
        <time>2010-10-24T10:52:00Z</time>
      </trkpt>
      <trkpt lat="44.12449" lon="3.14173">
        <ele>820.20001220703</ele>
        <time>2010-10-24T10:52:07Z</time>
      </trkpt>
      <trkpt lat="44.12457" lon="3.14147">
        <ele>818.79998779297</ele>
        <time>2010-10-24T10:52:14Z</time>
      </trkpt>
      <trkpt lat="44.1246" lon="3.1413">
        <ele>817.59997558594</ele>
        <time>2010-10-24T10:52:19Z</time>
      </trkpt>
      <trkpt lat="44.12465" lon="3.14121">
        <ele>816.79998779297</ele>
        <time>2010-10-24T10:52:22Z</time>
      </trkpt>
      <trkpt lat="44.12468" lon="3.14096">
        <ele>815.40002441406</ele>
        <time>2010-10-24T10:52:28Z</time>
      </trkpt>
      <trkpt lat="44.12472" lon="3.1408">
        <ele>814.40002441406</ele>
        <time>2010-10-24T10:52:32Z</time>
      </trkpt>
      <trkpt lat="44.12478" lon="3.14073">
        <ele>813.59997558594</ele>
        <time>2010-10-24T10:52:35Z</time>
      </trkpt>
      <trkpt lat="44.12489" lon="3.14052">
        <ele>812</ele>
        <time>2010-10-24T10:52:41Z</time>
      </trkpt>
      <trkpt lat="44.12491" lon="3.14046">
        <ele>811.59997558594</ele>
        <time>2010-10-24T10:52:43Z</time>
      </trkpt>
      <trkpt lat="44.12489" lon="3.14029">
        <ele>810.40002441406</ele>
        <time>2010-10-24T10:52:48Z</time>
      </trkpt>
      <trkpt lat="44.12473" lon="3.14037">
        <ele>808.59997558594</ele>
        <time>2010-10-24T10:52:54Z</time>
      </trkpt>
      <trkpt lat="44.12466" lon="3.14039">
        <ele>808</ele>
        <time>2010-10-24T10:52:56Z</time>
      </trkpt>
      <trkpt lat="44.12453" lon="3.14041">
        <ele>807</ele>
        <time>2010-10-24T10:53:00Z</time>
      </trkpt>
      <trkpt lat="44.1244" lon="3.14036">
        <ele>805.40002441406</ele>
        <time>2010-10-24T10:53:05Z</time>
      </trkpt>
      <trkpt lat="44.1244" lon="3.14029">
        <ele>804.59997558594</ele>
        <time>2010-10-24T10:53:08Z</time>
      </trkpt>
      <trkpt lat="44.12423" lon="3.14019">
        <ele>801.20001220703</ele>
        <time>2010-10-24T10:53:19Z</time>
      </trkpt>
      <trkpt lat="44.12411" lon="3.14031">
        <ele>799.20001220703</ele>
        <time>2010-10-24T10:53:25Z</time>
      </trkpt>
      <trkpt lat="44.12408" lon="3.14032">
        <ele>798.59997558594</ele>
        <time>2010-10-24T10:53:27Z</time>
      </trkpt>
      <trkpt lat="44.12404" lon="3.1403">
        <ele>798</ele>
        <time>2010-10-24T10:53:29Z</time>
      </trkpt>
      <trkpt lat="44.12403" lon="3.14024">
        <ele>797</ele>
        <time>2010-10-24T10:53:32Z</time>
      </trkpt>
      <trkpt lat="44.12395" lon="3.14025">
        <ele>794.20001220703</ele>
        <time>2010-10-24T10:53:40Z</time>
      </trkpt>
      <trkpt lat="44.12393" lon="3.14025">
        <ele>793.40002441406</ele>
        <time>2010-10-24T10:53:42Z</time>
      </trkpt>
      <trkpt lat="44.12381" lon="3.14014">
        <ele>789.59997558594</ele>
        <time>2010-10-24T10:53:53Z</time>
      </trkpt>
      <trkpt lat="44.12365" lon="3.14014">
        <ele>785.40002441406</ele>
        <time>2010-10-24T10:54:04Z</time>
      </trkpt>
      <trkpt lat="44.12363" lon="3.14014">
        <ele>785</ele>
        <time>2010-10-24T10:54:05Z</time>
      </trkpt>
      <trkpt lat="44.12362" lon="3.14012">
        <ele>784.59997558594</ele>
        <time>2010-10-24T10:54:06Z</time>
      </trkpt>
      <trkpt lat="44.12363" lon="3.13998">
        <ele>782.79998779297</ele>
        <time>2010-10-24T10:54:11Z</time>
      </trkpt>
      <trkpt lat="44.12363" lon="3.13996">
        <ele>782.40002441406</ele>
        <time>2010-10-24T10:54:12Z</time>
      </trkpt>
      <trkpt lat="44.1236" lon="3.13995">
        <ele>781.20001220703</ele>
        <time>2010-10-24T10:54:16Z</time>
      </trkpt>
      <trkpt lat="44.12356" lon="3.13997">
        <ele>780.59997558594</ele>
        <time>2010-10-24T10:54:18Z</time>
      </trkpt>
      <trkpt lat="44.12341" lon="3.13996">
        <ele>778.59997558594</ele>
        <time>2010-10-24T10:54:26Z</time>
      </trkpt>
      <trkpt lat="44.12332" lon="3.13994">
        <ele>777.40002441406</ele>
        <time>2010-10-24T10:54:31Z</time>
      </trkpt>
      <trkpt lat="44.12322" lon="3.13996">
        <ele>776.40002441406</ele>
        <time>2010-10-24T10:54:36Z</time>
      </trkpt>
      <trkpt lat="44.12321" lon="3.13995">
        <ele>776.20001220703</ele>
        <time>2010-10-24T10:54:37Z</time>
      </trkpt>
      <trkpt lat="44.12317" lon="3.13992">
        <ele>775.40002441406</ele>
        <time>2010-10-24T10:54:41Z</time>
      </trkpt>
      <trkpt lat="44.12315" lon="3.13992">
        <ele>775</ele>
        <time>2010-10-24T10:54:42Z</time>
      </trkpt>
      <trkpt lat="44.1231" lon="3.13992">
        <ele>773.59997558594</ele>
        <time>2010-10-24T10:54:49Z</time>
      </trkpt>
      <trkpt lat="44.12304" lon="3.1399">
        <ele>772.59997558594</ele>
        <time>2010-10-24T10:54:53Z</time>
      </trkpt>
      <trkpt lat="44.1229" lon="3.13987">
        <ele>771.20001220703</ele>
        <time>2010-10-24T10:54:59Z</time>
      </trkpt>
      <trkpt lat="44.12284" lon="3.13991">
        <ele>770.59997558594</ele>
        <time>2010-10-24T10:55:02Z</time>
      </trkpt>
      <trkpt lat="44.12279" lon="3.13995">
        <ele>769.59997558594</ele>
        <time>2010-10-24T10:55:06Z</time>
      </trkpt>
      <trkpt lat="44.12278" lon="3.13995">
        <ele>769.20001220703</ele>
        <time>2010-10-24T10:55:08Z</time>
      </trkpt>
      <trkpt lat="44.1227" lon="3.14">
        <ele>768</ele>
        <time>2010-10-24T10:55:15Z</time>
      </trkpt>
      <trkpt lat="44.12269" lon="3.14">
        <ele>767.79998779297</ele>
        <time>2010-10-24T10:55:16Z</time>
      </trkpt>
      <trkpt lat="44.12269" lon="3.13999">
        <ele>767.79998779297</ele>
        <time>2010-10-24T10:55:17Z</time>
      </trkpt>
      <trkpt lat="44.12269" lon="3.13995">
        <ele>767</ele>
        <time>2010-10-24T10:55:21Z</time>
      </trkpt>
      <trkpt lat="44.12268" lon="3.13993">
        <ele>766.79998779297</ele>
        <time>2010-10-24T10:55:23Z</time>
      </trkpt>
      <trkpt lat="44.12275" lon="3.13978">
        <ele>764.40002441406</ele>
        <time>2010-10-24T10:55:45Z</time>
      </trkpt>
      <trkpt lat="44.12274" lon="3.13977">
        <ele>764.20001220703</ele>
        <time>2010-10-24T10:55:49Z</time>
      </trkpt>
      <trkpt lat="44.12282" lon="3.13956">
        <ele>764.20001220703</ele>
        <time>2010-10-24T10:56:19Z</time>
      </trkpt>
      <trkpt lat="44.12281" lon="3.13949">
        <ele>764.40002441406</ele>
        <time>2010-10-24T10:56:28Z</time>
      </trkpt>
      <trkpt lat="44.12273" lon="3.13949">
        <ele>764.59997558594</ele>
        <time>2010-10-24T10:56:40Z</time>
      </trkpt>
      <trkpt lat="44.12268" lon="3.1395">
        <ele>765.20001220703</ele>
        <time>2010-10-24T10:56:49Z</time>
      </trkpt>
      <trkpt lat="44.12254" lon="3.13954">
        <ele>766.20001220703</ele>
        <time>2010-10-24T10:56:57Z</time>
      </trkpt>
      <trkpt lat="44.1225" lon="3.13954">
        <ele>766.40002441406</ele>
        <time>2010-10-24T10:56:59Z</time>
      </trkpt>
      <trkpt lat="44.12232" lon="3.13947">
        <ele>767.59997558594</ele>
        <time>2010-10-24T10:57:11Z</time>
      </trkpt>
      <trkpt lat="44.12231" lon="3.13947">
        <ele>767.59997558594</ele>
        <time>2010-10-24T10:57:12Z</time>
      </trkpt>
      <trkpt lat="44.12223" lon="3.13946">
        <ele>768.40002441406</ele>
        <time>2010-10-24T10:57:19Z</time>
      </trkpt>
      <trkpt lat="44.12222" lon="3.13944">
        <ele>768.59997558594</ele>
        <time>2010-10-24T10:57:22Z</time>
      </trkpt>
      <trkpt lat="44.12216" lon="3.13938">
        <ele>769.20001220703</ele>
        <time>2010-10-24T10:57:27Z</time>
      </trkpt>
      <trkpt lat="44.12201" lon="3.13934">
        <ele>770.40002441406</ele>
        <time>2010-10-24T10:57:38Z</time>
      </trkpt>
      <trkpt lat="44.122" lon="3.1393">
        <ele>771</ele>
        <time>2010-10-24T10:57:41Z</time>
      </trkpt>
      <trkpt lat="44.12197" lon="3.13924">
        <ele>771.79998779297</ele>
        <time>2010-10-24T10:57:46Z</time>
      </trkpt>
      <trkpt lat="44.1219" lon="3.13912">
        <ele>774.20001220703</ele>
        <time>2010-10-24T10:57:56Z</time>
      </trkpt>
      <trkpt lat="44.12189" lon="3.13911">
        <ele>774.20001220703</ele>
        <time>2010-10-24T10:57:57Z</time>
      </trkpt>
      <trkpt lat="44.12182" lon="3.13903">
        <ele>775.79998779297</ele>
        <time>2010-10-24T10:58:03Z</time>
      </trkpt>
      <trkpt lat="44.12173" lon="3.13904">
        <ele>776.20001220703</ele>
        <time>2010-10-24T10:58:07Z</time>
      </trkpt>
      <trkpt lat="44.1216" lon="3.13904">
        <ele>776.79998779297</ele>
        <time>2010-10-24T10:58:12Z</time>
      </trkpt>
      <trkpt lat="44.12153" lon="3.13906">
        <ele>776.79998779297</ele>
        <time>2010-10-24T10:58:15Z</time>
      </trkpt>
      <trkpt lat="44.12137" lon="3.13905">
        <ele>776.59997558594</ele>
        <time>2010-10-24T10:58:21Z</time>
      </trkpt>
      <trkpt lat="44.12134" lon="3.13904">
        <ele>776.59997558594</ele>
        <time>2010-10-24T10:58:22Z</time>
      </trkpt>
      <trkpt lat="44.12115" lon="3.13899">
        <ele>776.59997558594</ele>
        <time>2010-10-24T10:58:30Z</time>
      </trkpt>
      <trkpt lat="44.12095" lon="3.13903">
        <ele>776</ele>
        <time>2010-10-24T10:58:38Z</time>
      </trkpt>
      <trkpt lat="44.12091" lon="3.13899">
        <ele>775.79998779297</ele>
        <time>2010-10-24T10:58:40Z</time>
      </trkpt>
      <trkpt lat="44.12084" lon="3.13888">
        <ele>775.79998779297</ele>
        <time>2010-10-24T10:58:45Z</time>
      </trkpt>
      <trkpt lat="44.12081" lon="3.13885">
        <ele>775.79998779297</ele>
        <time>2010-10-24T10:58:47Z</time>
      </trkpt>
      <trkpt lat="44.12077" lon="3.1388">
        <ele>775.79998779297</ele>
        <time>2010-10-24T10:58:49Z</time>
      </trkpt>
      <trkpt lat="44.12068" lon="3.13866">
        <ele>776.40002441406</ele>
        <time>2010-10-24T10:58:55Z</time>
      </trkpt>
      <trkpt lat="44.12068" lon="3.13863">
        <ele>776.40002441406</ele>
        <time>2010-10-24T10:58:56Z</time>
      </trkpt>
      <trkpt lat="44.12072" lon="3.1384">
        <ele>778</ele>
        <time>2010-10-24T10:59:04Z</time>
      </trkpt>
      <trkpt lat="44.12065" lon="3.13815">
        <ele>780.40002441406</ele>
        <time>2010-10-24T10:59:13Z</time>
      </trkpt>
      <trkpt lat="44.12062" lon="3.13806">
        <ele>781.40002441406</ele>
        <time>2010-10-24T10:59:16Z</time>
      </trkpt>
      <trkpt lat="44.12059" lon="3.13791">
        <ele>783.20001220703</ele>
        <time>2010-10-24T10:59:23Z</time>
      </trkpt>
      <trkpt lat="44.12058" lon="3.13778">
        <ele>784.79998779297</ele>
        <time>2010-10-24T10:59:30Z</time>
      </trkpt>
      <trkpt lat="44.12056" lon="3.13772">
        <ele>785.59997558594</ele>
        <time>2010-10-24T10:59:34Z</time>
      </trkpt>
      <trkpt lat="44.12053" lon="3.13769">
        <ele>786</ele>
        <time>2010-10-24T10:59:36Z</time>
      </trkpt>
      <trkpt lat="44.12043" lon="3.13747">
        <ele>787.40002441406</ele>
        <time>2010-10-24T10:59:49Z</time>
      </trkpt>
      <trkpt lat="44.12034" lon="3.13723">
        <ele>790.20001220703</ele>
        <time>2010-10-24T11:00:04Z</time>
      </trkpt>
      <trkpt lat="44.12023" lon="3.13701">
        <ele>791.79998779297</ele>
        <time>2010-10-24T11:00:18Z</time>
      </trkpt>
      <trkpt lat="44.12011" lon="3.13681">
        <ele>792.79998779297</ele>
        <time>2010-10-24T11:00:26Z</time>
      </trkpt>
      <trkpt lat="44.12003" lon="3.13656">
        <ele>793.59997558594</ele>
        <time>2010-10-24T11:00:34Z</time>
      </trkpt>
      <trkpt lat="44.11996" lon="3.13631">
        <ele>794.79998779297</ele>
        <time>2010-10-24T11:00:43Z</time>
      </trkpt>
      <trkpt lat="44.11989" lon="3.13607">
        <ele>796.40002441406</ele>
        <time>2010-10-24T11:00:53Z</time>
      </trkpt>
      <trkpt lat="44.11989" lon="3.136">
        <ele>797.20001220703</ele>
        <time>2010-10-24T11:00:58Z</time>
      </trkpt>
      <trkpt lat="44.1199" lon="3.13588">
        <ele>797.40002441406</ele>
        <time>2010-10-24T11:01:06Z</time>
      </trkpt>
      <trkpt lat="44.11991" lon="3.13586">
        <ele>797.59997558594</ele>
        <time>2010-10-24T11:01:07Z</time>
      </trkpt>
      <trkpt lat="44.11991" lon="3.13582">
        <ele>797.79998779297</ele>
        <time>2010-10-24T11:01:10Z</time>
      </trkpt>
      <trkpt lat="44.11992" lon="3.13578">
        <ele>798.40002441406</ele>
        <time>2010-10-24T11:01:13Z</time>
      </trkpt>
      <trkpt lat="44.11992" lon="3.13556">
        <ele>800.59997558594</ele>
        <time>2010-10-24T11:01:26Z</time>
      </trkpt>
      <trkpt lat="44.11993" lon="3.13555">
        <ele>800.79998779297</ele>
        <time>2010-10-24T11:01:27Z</time>
      </trkpt>
      <trkpt lat="44.11993" lon="3.13541">
        <ele>802.20001220703</ele>
        <time>2010-10-24T11:01:35Z</time>
      </trkpt>
      <trkpt lat="44.11989" lon="3.13534">
        <ele>802.79998779297</ele>
        <time>2010-10-24T11:01:40Z</time>
      </trkpt>
      <trkpt lat="44.11986" lon="3.1353">
        <ele>803.59997558594</ele>
        <time>2010-10-24T11:01:44Z</time>
      </trkpt>
      <trkpt lat="44.11982" lon="3.13518">
        <ele>804.59997558594</ele>
        <time>2010-10-24T11:01:53Z</time>
      </trkpt>
      <trkpt lat="44.11982" lon="3.13515">
        <ele>804.79998779297</ele>
        <time>2010-10-24T11:01:54Z</time>
      </trkpt>
      <trkpt lat="44.11981" lon="3.13512">
        <ele>805</ele>
        <time>2010-10-24T11:01:56Z</time>
      </trkpt>
      <trkpt lat="44.11978" lon="3.13501">
        <ele>806.59997558594</ele>
        <time>2010-10-24T11:02:04Z</time>
      </trkpt>
      <trkpt lat="44.11972" lon="3.1349">
        <ele>808.59997558594</ele>
        <time>2010-10-24T11:02:12Z</time>
      </trkpt>
      <trkpt lat="44.11971" lon="3.13489">
        <ele>808.79998779297</ele>
        <time>2010-10-24T11:02:13Z</time>
      </trkpt>
      <trkpt lat="44.11962" lon="3.13469">
        <ele>811.20001220703</ele>
        <time>2010-10-24T11:02:27Z</time>
      </trkpt>
      <trkpt lat="44.1195" lon="3.13451">
        <ele>813.40002441406</ele>
        <time>2010-10-24T11:02:42Z</time>
      </trkpt>
      <trkpt lat="44.11935" lon="3.13451">
        <ele>813.59997558594</ele>
        <time>2010-10-24T11:02:48Z</time>
      </trkpt>
      <trkpt lat="44.1193" lon="3.1345">
        <ele>813.79998779297</ele>
        <time>2010-10-24T11:02:50Z</time>
      </trkpt>
      <trkpt lat="44.11923" lon="3.13448">
        <ele>813.79998779297</ele>
        <time>2010-10-24T11:02:53Z</time>
      </trkpt>
      <trkpt lat="44.11916" lon="3.13441">
        <ele>814.20001220703</ele>
        <time>2010-10-24T11:02:57Z</time>
      </trkpt>
      <trkpt lat="44.11915" lon="3.13436">
        <ele>814.40002441406</ele>
        <time>2010-10-24T11:02:59Z</time>
      </trkpt>
      <trkpt lat="44.11913" lon="3.13433">
        <ele>814.59997558594</ele>
        <time>2010-10-24T11:03:01Z</time>
      </trkpt>
      <trkpt lat="44.11909" lon="3.13423">
        <ele>816.20001220703</ele>
        <time>2010-10-24T11:03:08Z</time>
      </trkpt>
      <trkpt lat="44.11908" lon="3.13418">
        <ele>816.79998779297</ele>
        <time>2010-10-24T11:03:11Z</time>
      </trkpt>
      <trkpt lat="44.11908" lon="3.13413">
        <ele>817.59997558594</ele>
        <time>2010-10-24T11:03:14Z</time>
      </trkpt>
      <trkpt lat="44.11908" lon="3.13409">
        <ele>818.20001220703</ele>
        <time>2010-10-24T11:03:16Z</time>
      </trkpt>
      <trkpt lat="44.11904" lon="3.13406">
        <ele>819</ele>
        <time>2010-10-24T11:03:20Z</time>
      </trkpt>
      <trkpt lat="44.11902" lon="3.13399">
        <ele>820</ele>
        <time>2010-10-24T11:03:24Z</time>
      </trkpt>
      <trkpt lat="44.11896" lon="3.13393">
        <ele>820.40002441406</ele>
        <time>2010-10-24T11:03:28Z</time>
      </trkpt>
      <trkpt lat="44.11888" lon="3.13383">
        <ele>821.20001220703</ele>
        <time>2010-10-24T11:03:36Z</time>
      </trkpt>
      <trkpt lat="44.11882" lon="3.1338">
        <ele>821.79998779297</ele>
        <time>2010-10-24T11:03:40Z</time>
      </trkpt>
      <trkpt lat="44.1188" lon="3.13379">
        <ele>822</ele>
        <time>2010-10-24T11:03:41Z</time>
      </trkpt>
      <trkpt lat="44.11865" lon="3.13362">
        <ele>824</ele>
        <time>2010-10-24T11:03:50Z</time>
      </trkpt>
      <trkpt lat="44.11858" lon="3.13354">
        <ele>824.59997558594</ele>
        <time>2010-10-24T11:03:53Z</time>
      </trkpt>
      <trkpt lat="44.11849" lon="3.13345">
        <ele>825.20001220703</ele>
        <time>2010-10-24T11:03:57Z</time>
      </trkpt>
      <trkpt lat="44.11831" lon="3.13335">
        <ele>826</ele>
        <time>2010-10-24T11:04:04Z</time>
      </trkpt>
      <trkpt lat="44.1181" lon="3.13336">
        <ele>826.40002441406</ele>
        <time>2010-10-24T11:04:11Z</time>
      </trkpt>
      <trkpt lat="44.11792" lon="3.13327">
        <ele>826.79998779297</ele>
        <time>2010-10-24T11:04:18Z</time>
      </trkpt>
      <trkpt lat="44.11777" lon="3.13312">
        <ele>827</ele>
        <time>2010-10-24T11:04:26Z</time>
      </trkpt>
      <trkpt lat="44.11774" lon="3.13312">
        <ele>827</ele>
        <time>2010-10-24T11:04:27Z</time>
      </trkpt>
      <trkpt lat="44.11758" lon="3.13309">
        <ele>827</ele>
        <time>2010-10-24T11:04:33Z</time>
      </trkpt>
      <trkpt lat="44.11742" lon="3.13299">
        <ele>826.59997558594</ele>
        <time>2010-10-24T11:04:40Z</time>
      </trkpt>
      <trkpt lat="44.11732" lon="3.13279">
        <ele>826</ele>
        <time>2010-10-24T11:04:46Z</time>
      </trkpt>
      <trkpt lat="44.11732" lon="3.13276">
        <ele>826</ele>
        <time>2010-10-24T11:04:47Z</time>
      </trkpt>
      <trkpt lat="44.11728" lon="3.13248">
        <ele>825.40002441406</ele>
        <time>2010-10-24T11:04:54Z</time>
      </trkpt>
      <trkpt lat="44.11722" lon="3.13222">
        <ele>824.79998779297</ele>
        <time>2010-10-24T11:05:01Z</time>
      </trkpt>
      <trkpt lat="44.11722" lon="3.13207">
        <ele>824.59997558594</ele>
        <time>2010-10-24T11:05:05Z</time>
      </trkpt>
      <trkpt lat="44.11721" lon="3.13197">
        <ele>824.40002441406</ele>
        <time>2010-10-24T11:05:08Z</time>
      </trkpt>
      <trkpt lat="44.1172" lon="3.13189">
        <ele>824.20001220703</ele>
        <time>2010-10-24T11:05:10Z</time>
      </trkpt>
      <trkpt lat="44.11719" lon="3.13169">
        <ele>824</ele>
        <time>2010-10-24T11:05:15Z</time>
      </trkpt>
      <trkpt lat="44.11724" lon="3.13142">
        <ele>823.59997558594</ele>
        <time>2010-10-24T11:05:22Z</time>
      </trkpt>
      <trkpt lat="44.11736" lon="3.13119">
        <ele>822.79998779297</ele>
        <time>2010-10-24T11:05:31Z</time>
      </trkpt>
      <trkpt lat="44.11737" lon="3.13116">
        <ele>822.59997558594</ele>
        <time>2010-10-24T11:05:32Z</time>
      </trkpt>
      <trkpt lat="44.11742" lon="3.13106">
        <ele>822.20001220703</ele>
        <time>2010-10-24T11:05:36Z</time>
      </trkpt>
      <trkpt lat="44.11743" lon="3.13095">
        <ele>821.79998779297</ele>
        <time>2010-10-24T11:05:39Z</time>
      </trkpt>
      <trkpt lat="44.11744" lon="3.1308">
        <ele>821.20001220703</ele>
        <time>2010-10-24T11:05:43Z</time>
      </trkpt>
      <trkpt lat="44.11747" lon="3.1307">
        <ele>820.79998779297</ele>
        <time>2010-10-24T11:05:47Z</time>
      </trkpt>
      <trkpt lat="44.11749" lon="3.13062">
        <ele>820.59997558594</ele>
        <time>2010-10-24T11:05:49Z</time>
      </trkpt>
      <trkpt lat="44.11758" lon="3.13046">
        <ele>819.79998779297</ele>
        <time>2010-10-24T11:05:54Z</time>
      </trkpt>
      <trkpt lat="44.11769" lon="3.13025">
        <ele>819.40002441406</ele>
        <time>2010-10-24T11:06:01Z</time>
      </trkpt>
      <trkpt lat="44.11771" lon="3.13022">
        <ele>819.20001220703</ele>
        <time>2010-10-24T11:06:02Z</time>
      </trkpt>
      <trkpt lat="44.11779" lon="3.13007">
        <ele>819</ele>
        <time>2010-10-24T11:06:07Z</time>
      </trkpt>
      <trkpt lat="44.11781" lon="3.13004">
        <ele>819.20001220703</ele>
        <time>2010-10-24T11:06:08Z</time>
      </trkpt>
      <trkpt lat="44.11787" lon="3.12995">
        <ele>819</ele>
        <time>2010-10-24T11:06:12Z</time>
      </trkpt>
      <trkpt lat="44.11794" lon="3.12985">
        <ele>818.79998779297</ele>
        <time>2010-10-24T11:06:16Z</time>
      </trkpt>
      <trkpt lat="44.11807" lon="3.12967">
        <ele>818.59997558594</ele>
        <time>2010-10-24T11:06:23Z</time>
      </trkpt>
      <trkpt lat="44.11824" lon="3.12953">
        <ele>818.40002441406</ele>
        <time>2010-10-24T11:06:30Z</time>
      </trkpt>
      <trkpt lat="44.11832" lon="3.12947">
        <ele>818.40002441406</ele>
        <time>2010-10-24T11:06:34Z</time>
      </trkpt>
      <trkpt lat="44.11838" lon="3.12936">
        <ele>818.20001220703</ele>
        <time>2010-10-24T11:06:38Z</time>
      </trkpt>
      <trkpt lat="44.11838" lon="3.12932">
        <ele>818.20001220703</ele>
        <time>2010-10-24T11:06:39Z</time>
      </trkpt>
      <trkpt lat="44.1184" lon="3.12927">
        <ele>818.40002441406</ele>
        <time>2010-10-24T11:06:41Z</time>
      </trkpt>
      <trkpt lat="44.1184" lon="3.12919">
        <ele>818.40002441406</ele>
        <time>2010-10-24T11:06:44Z</time>
      </trkpt>
      <trkpt lat="44.11842" lon="3.12917">
        <ele>818.40002441406</ele>
        <time>2010-10-24T11:06:48Z</time>
      </trkpt>
      <trkpt lat="44.11843" lon="3.12916">
        <ele>818.40002441406</ele>
        <time>2010-10-24T11:06:49Z</time>
      </trkpt>
      <trkpt lat="44.11845" lon="3.12914">
        <ele>818.59997558594</ele>
        <time>2010-10-24T11:06:51Z</time>
      </trkpt>
      <trkpt lat="44.1185" lon="3.12905">
        <ele>819</ele>
        <time>2010-10-24T11:06:58Z</time>
      </trkpt>
      <trkpt lat="44.11851" lon="3.12902">
        <ele>819.20001220703</ele>
        <time>2010-10-24T11:07:00Z</time>
      </trkpt>
      <trkpt lat="44.11855" lon="3.12894">
        <ele>820.20001220703</ele>
        <time>2010-10-24T11:07:06Z</time>
      </trkpt>
      <trkpt lat="44.11857" lon="3.12893">
        <ele>820.79998779297</ele>
        <time>2010-10-24T11:07:09Z</time>
      </trkpt>
      <trkpt lat="44.11862" lon="3.12874">
        <ele>823.20001220703</ele>
        <time>2010-10-24T11:07:22Z</time>
      </trkpt>
      <trkpt lat="44.11863" lon="3.12872">
        <ele>823.40002441406</ele>
        <time>2010-10-24T11:07:23Z</time>
      </trkpt>
      <trkpt lat="44.11864" lon="3.1286">
        <ele>823.79998779297</ele>
        <time>2010-10-24T11:07:27Z</time>
      </trkpt>
      <trkpt lat="44.11862" lon="3.12852">
        <ele>824</ele>
        <time>2010-10-24T11:07:31Z</time>
      </trkpt>
      <trkpt lat="44.11863" lon="3.12846">
        <ele>825.20001220703</ele>
        <time>2010-10-24T11:07:35Z</time>
      </trkpt>
      <trkpt lat="44.11861" lon="3.12825">
        <ele>827.79998779297</ele>
        <time>2010-10-24T11:07:48Z</time>
      </trkpt>
      <trkpt lat="44.11861" lon="3.12819">
        <ele>828.59997558594</ele>
        <time>2010-10-24T11:07:52Z</time>
      </trkpt>
      <trkpt lat="44.11859" lon="3.12801">
        <ele>829.40002441406</ele>
        <time>2010-10-24T11:08:01Z</time>
      </trkpt>
      <trkpt lat="44.11859" lon="3.12795">
        <ele>829.59997558594</ele>
        <time>2010-10-24T11:08:04Z</time>
      </trkpt>
      <trkpt lat="44.11856" lon="3.12793">
        <ele>829.59997558594</ele>
        <time>2010-10-24T11:08:06Z</time>
      </trkpt>
      <trkpt lat="44.11847" lon="3.12783">
        <ele>829.79998779297</ele>
        <time>2010-10-24T11:08:11Z</time>
      </trkpt>
      <trkpt lat="44.11843" lon="3.12776">
        <ele>829.59997558594</ele>
        <time>2010-10-24T11:08:13Z</time>
      </trkpt>
      <trkpt lat="44.11837" lon="3.12763">
        <ele>829.59997558594</ele>
        <time>2010-10-24T11:08:18Z</time>
      </trkpt>
      <trkpt lat="44.11829" lon="3.12758">
        <ele>829.40002441406</ele>
        <time>2010-10-24T11:08:21Z</time>
      </trkpt>
      <trkpt lat="44.11816" lon="3.12737">
        <ele>829</ele>
        <time>2010-10-24T11:08:28Z</time>
      </trkpt>
      <trkpt lat="44.11806" lon="3.12717">
        <ele>828.79998779297</ele>
        <time>2010-10-24T11:08:34Z</time>
      </trkpt>
      <trkpt lat="44.11794" lon="3.12697">
        <ele>828.20001220703</ele>
        <time>2010-10-24T11:08:41Z</time>
      </trkpt>
      <trkpt lat="44.11788" lon="3.1267">
        <ele>827.59997558594</ele>
        <time>2010-10-24T11:08:48Z</time>
      </trkpt>
      <trkpt lat="44.11778" lon="3.12647">
        <ele>827.20001220703</ele>
        <time>2010-10-24T11:08:55Z</time>
      </trkpt>
      <trkpt lat="44.11763" lon="3.12628">
        <ele>826.59997558594</ele>
        <time>2010-10-24T11:09:02Z</time>
      </trkpt>
      <trkpt lat="44.11756" lon="3.12604">
        <ele>826</ele>
        <time>2010-10-24T11:09:09Z</time>
      </trkpt>
      <trkpt lat="44.1175" lon="3.12583">
        <ele>825.59997558594</ele>
        <time>2010-10-24T11:09:16Z</time>
      </trkpt>
      <trkpt lat="44.1175" lon="3.12581">
        <ele>825.59997558594</ele>
        <time>2010-10-24T11:09:17Z</time>
      </trkpt>
      <trkpt lat="44.11749" lon="3.12575">
        <ele>825.59997558594</ele>
        <time>2010-10-24T11:09:19Z</time>
      </trkpt>
      <trkpt lat="44.11745" lon="3.12559">
        <ele>825.40002441406</ele>
        <time>2010-10-24T11:09:24Z</time>
      </trkpt>
      <trkpt lat="44.11745" lon="3.12555">
        <ele>825.40002441406</ele>
        <time>2010-10-24T11:09:26Z</time>
      </trkpt>
      <trkpt lat="44.11744" lon="3.12554">
        <ele>825.40002441406</ele>
        <time>2010-10-24T11:09:27Z</time>
      </trkpt>
      <trkpt lat="44.11735" lon="3.12536">
        <ele>825.40002441406</ele>
        <time>2010-10-24T11:09:38Z</time>
      </trkpt>
      <trkpt lat="44.11734" lon="3.12532">
        <ele>825.40002441406</ele>
        <time>2010-10-24T11:09:40Z</time>
      </trkpt>
      <trkpt lat="44.11735" lon="3.1252">
        <ele>825.59997558594</ele>
        <time>2010-10-24T11:09:47Z</time>
      </trkpt>
      <trkpt lat="44.11736" lon="3.1251">
        <ele>825.59997558594</ele>
        <time>2010-10-24T11:09:52Z</time>
      </trkpt>
      <trkpt lat="44.11737" lon="3.12498">
        <ele>825.59997558594</ele>
        <time>2010-10-24T11:09:58Z</time>
      </trkpt>
      <trkpt lat="44.11743" lon="3.12489">
        <ele>825.59997558594</ele>
        <time>2010-10-24T11:10:04Z</time>
      </trkpt>
      <trkpt lat="44.11756" lon="3.1247">
        <ele>825.79998779297</ele>
        <time>2010-10-24T11:10:17Z</time>
      </trkpt>
      <trkpt lat="44.11761" lon="3.1246">
        <ele>826</ele>
        <time>2010-10-24T11:10:21Z</time>
      </trkpt>
      <trkpt lat="44.1176" lon="3.12447">
        <ele>826.20001220703</ele>
        <time>2010-10-24T11:10:25Z</time>
      </trkpt>
      <trkpt lat="44.11754" lon="3.12443">
        <ele>826.40002441406</ele>
        <time>2010-10-24T11:10:28Z</time>
      </trkpt>
      <trkpt lat="44.11742" lon="3.12438">
        <ele>826.79998779297</ele>
        <time>2010-10-24T11:10:33Z</time>
      </trkpt>
      <trkpt lat="44.11737" lon="3.12436">
        <ele>826.79998779297</ele>
        <time>2010-10-24T11:10:35Z</time>
      </trkpt>
      <trkpt lat="44.11726" lon="3.12425">
        <ele>827.20001220703</ele>
        <time>2010-10-24T11:10:41Z</time>
      </trkpt>
      <trkpt lat="44.11721" lon="3.12419">
        <ele>827.40002441406</ele>
        <time>2010-10-24T11:10:44Z</time>
      </trkpt>
      <trkpt lat="44.11713" lon="3.12407">
        <ele>828</ele>
        <time>2010-10-24T11:10:49Z</time>
      </trkpt>
      <trkpt lat="44.11699" lon="3.1239">
        <ele>829.20001220703</ele>
        <time>2010-10-24T11:10:57Z</time>
      </trkpt>
      <trkpt lat="44.11685" lon="3.12372">
        <ele>830.40002441406</ele>
        <time>2010-10-24T11:11:05Z</time>
      </trkpt>
      <trkpt lat="44.11676" lon="3.1235">
        <ele>831.79998779297</ele>
        <time>2010-10-24T11:11:12Z</time>
      </trkpt>
      <trkpt lat="44.1167" lon="3.12325">
        <ele>833.20001220703</ele>
        <time>2010-10-24T11:11:20Z</time>
      </trkpt>
      <trkpt lat="44.11669" lon="3.12322">
        <ele>833.59997558594</ele>
        <time>2010-10-24T11:11:21Z</time>
      </trkpt>
      <trkpt lat="44.1166" lon="3.12313">
        <ele>834</ele>
        <time>2010-10-24T11:11:25Z</time>
      </trkpt>
      <trkpt lat="44.11656" lon="3.12307">
        <ele>834.40002441406</ele>
        <time>2010-10-24T11:11:27Z</time>
      </trkpt>
      <trkpt lat="44.1165" lon="3.12281">
        <ele>834.59997558594</ele>
        <time>2010-10-24T11:11:34Z</time>
      </trkpt>
      <trkpt lat="44.11646" lon="3.12254">
        <ele>834.59997558594</ele>
        <time>2010-10-24T11:11:41Z</time>
      </trkpt>
      <trkpt lat="44.11647" lon="3.12228">
        <ele>834.59997558594</ele>
        <time>2010-10-24T11:11:47Z</time>
      </trkpt>
      <trkpt lat="44.1165" lon="3.12202">
        <ele>834.59997558594</ele>
        <time>2010-10-24T11:11:53Z</time>
      </trkpt>
      <trkpt lat="44.11655" lon="3.12178">
        <ele>834.59997558594</ele>
        <time>2010-10-24T11:11:59Z</time>
      </trkpt>
      <trkpt lat="44.11664" lon="3.12154">
        <ele>834.59997558594</ele>
        <time>2010-10-24T11:12:06Z</time>
      </trkpt>
      <trkpt lat="44.11674" lon="3.12131">
        <ele>834.79998779297</ele>
        <time>2010-10-24T11:12:13Z</time>
      </trkpt>
      <trkpt lat="44.11683" lon="3.12107">
        <ele>834.79998779297</ele>
        <time>2010-10-24T11:12:21Z</time>
      </trkpt>
      <trkpt lat="44.11684" lon="3.12096">
        <ele>834.79998779297</ele>
        <time>2010-10-24T11:12:24Z</time>
      </trkpt>
      <trkpt lat="44.11682" lon="3.12081">
        <ele>834.79998779297</ele>
        <time>2010-10-24T11:12:28Z</time>
      </trkpt>
      <trkpt lat="44.11674" lon="3.12057">
        <ele>834.79998779297</ele>
        <time>2010-10-24T11:12:35Z</time>
      </trkpt>
      <trkpt lat="44.11667" lon="3.12042">
        <ele>834.59997558594</ele>
        <time>2010-10-24T11:12:40Z</time>
      </trkpt>
      <trkpt lat="44.11662" lon="3.12034">
        <ele>834.79998779297</ele>
        <time>2010-10-24T11:12:43Z</time>
      </trkpt>
      <trkpt lat="44.11645" lon="3.12023">
        <ele>834.79998779297</ele>
        <time>2010-10-24T11:12:51Z</time>
      </trkpt>
      <trkpt lat="44.11627" lon="3.12014">
        <ele>834.59997558594</ele>
        <time>2010-10-24T11:13:02Z</time>
      </trkpt>
      <trkpt lat="44.11609" lon="3.12005">
        <ele>833.79998779297</ele>
        <time>2010-10-24T11:13:15Z</time>
      </trkpt>
      <trkpt lat="44.11597" lon="3.12001">
        <ele>833.20001220703</ele>
        <time>2010-10-24T11:13:22Z</time>
      </trkpt>
      <trkpt lat="44.11592" lon="3.12">
        <ele>832.79998779297</ele>
        <time>2010-10-24T11:13:26Z</time>
      </trkpt>
      <trkpt lat="44.11591" lon="3.11999">
        <ele>832.79998779297</ele>
        <time>2010-10-24T11:13:27Z</time>
      </trkpt>
      <trkpt lat="44.11581" lon="3.11998">
        <ele>832.59997558594</ele>
        <time>2010-10-24T11:13:32Z</time>
      </trkpt>
      <trkpt lat="44.11573" lon="3.12003">
        <ele>832.20001220703</ele>
        <time>2010-10-24T11:13:36Z</time>
      </trkpt>
      <trkpt lat="44.11555" lon="3.12018">
        <ele>831.79998779297</ele>
        <time>2010-10-24T11:13:43Z</time>
      </trkpt>
      <trkpt lat="44.11538" lon="3.12032">
        <ele>831.40002441406</ele>
        <time>2010-10-24T11:13:50Z</time>
      </trkpt>
      <trkpt lat="44.11519" lon="3.12043">
        <ele>830.79998779297</ele>
        <time>2010-10-24T11:13:57Z</time>
      </trkpt>
      <trkpt lat="44.11501" lon="3.1205">
        <ele>830.20001220703</ele>
        <time>2010-10-24T11:14:03Z</time>
      </trkpt>
      <trkpt lat="44.11484" lon="3.12064">
        <ele>829.59997558594</ele>
        <time>2010-10-24T11:14:09Z</time>
      </trkpt>
      <trkpt lat="44.11469" lon="3.12074">
        <ele>829</ele>
        <time>2010-10-24T11:14:15Z</time>
      </trkpt>
      <trkpt lat="44.11467" lon="3.12076">
        <ele>828.79998779297</ele>
        <time>2010-10-24T11:14:16Z</time>
      </trkpt>
      <trkpt lat="44.11459" lon="3.1208">
        <ele>828.40002441406</ele>
        <time>2010-10-24T11:14:19Z</time>
      </trkpt>
      <trkpt lat="44.11448" lon="3.12085">
        <ele>827.79998779297</ele>
        <time>2010-10-24T11:14:24Z</time>
      </trkpt>
      <trkpt lat="44.11437" lon="3.1209">
        <ele>827</ele>
        <time>2010-10-24T11:14:29Z</time>
      </trkpt>
      <trkpt lat="44.1143" lon="3.12094">
        <ele>826.59997558594</ele>
        <time>2010-10-24T11:14:32Z</time>
      </trkpt>
      <trkpt lat="44.11411" lon="3.12096">
        <ele>825.40002441406</ele>
        <time>2010-10-24T11:14:40Z</time>
      </trkpt>
      <trkpt lat="44.11393" lon="3.12101">
        <ele>824.20001220703</ele>
        <time>2010-10-24T11:14:47Z</time>
      </trkpt>
      <trkpt lat="44.11373" lon="3.12098">
        <ele>822.79998779297</ele>
        <time>2010-10-24T11:14:56Z</time>
      </trkpt>
      <trkpt lat="44.11354" lon="3.121">
        <ele>821.59997558594</ele>
        <time>2010-10-24T11:15:04Z</time>
      </trkpt>
      <trkpt lat="44.11335" lon="3.12092">
        <ele>820.20001220703</ele>
        <time>2010-10-24T11:15:11Z</time>
      </trkpt>
      <trkpt lat="44.1132" lon="3.12092">
        <ele>819</ele>
        <time>2010-10-24T11:15:18Z</time>
      </trkpt>
      <trkpt lat="44.11317" lon="3.1209">
        <ele>818.59997558594</ele>
        <time>2010-10-24T11:15:20Z</time>
      </trkpt>
      <trkpt lat="44.11306" lon="3.12085">
        <ele>817.20001220703</ele>
        <time>2010-10-24T11:15:27Z</time>
      </trkpt>
      <trkpt lat="44.113" lon="3.12079">
        <ele>816</ele>
        <time>2010-10-24T11:15:32Z</time>
      </trkpt>
      <trkpt lat="44.11295" lon="3.12076">
        <ele>815</ele>
        <time>2010-10-24T11:15:37Z</time>
      </trkpt>
      <trkpt lat="44.11295" lon="3.12077">
        <ele>814.79998779297</ele>
        <time>2010-10-24T11:15:38Z</time>
      </trkpt>
      <trkpt lat="44.11288" lon="3.12068">
        <ele>813.59997558594</ele>
        <time>2010-10-24T11:15:44Z</time>
      </trkpt>
      <trkpt lat="44.11286" lon="3.12066">
        <ele>813.20001220703</ele>
        <time>2010-10-24T11:15:46Z</time>
      </trkpt>
      <trkpt lat="44.11284" lon="3.12065">
        <ele>812.79998779297</ele>
        <time>2010-10-24T11:15:48Z</time>
      </trkpt>
      <trkpt lat="44.11276" lon="3.12064">
        <ele>810.59997558594</ele>
        <time>2010-10-24T11:15:58Z</time>
      </trkpt>
      <trkpt lat="44.11267" lon="3.12066">
        <ele>809.40002441406</ele>
        <time>2010-10-24T11:16:03Z</time>
      </trkpt>
      <trkpt lat="44.11248" lon="3.12072">
        <ele>807</ele>
        <time>2010-10-24T11:16:13Z</time>
      </trkpt>
      <trkpt lat="44.1123" lon="3.12073">
        <ele>805.40002441406</ele>
        <time>2010-10-24T11:16:20Z</time>
      </trkpt>
      <trkpt lat="44.11211" lon="3.12071">
        <ele>803.79998779297</ele>
        <time>2010-10-24T11:16:27Z</time>
      </trkpt>
      <trkpt lat="44.1119" lon="3.1207">
        <ele>802.40002441406</ele>
        <time>2010-10-24T11:16:34Z</time>
      </trkpt>
      <trkpt lat="44.11171" lon="3.12064">
        <ele>801</ele>
        <time>2010-10-24T11:16:41Z</time>
      </trkpt>
      <trkpt lat="44.11157" lon="3.12045">
        <ele>799.59997558594</ele>
        <time>2010-10-24T11:16:48Z</time>
      </trkpt>
      <trkpt lat="44.1114" lon="3.12035">
        <ele>798.40002441406</ele>
        <time>2010-10-24T11:16:55Z</time>
      </trkpt>
      <trkpt lat="44.11121" lon="3.1203">
        <ele>797.40002441406</ele>
        <time>2010-10-24T11:17:02Z</time>
      </trkpt>
      <trkpt lat="44.11104" lon="3.1202">
        <ele>796.59997558594</ele>
        <time>2010-10-24T11:17:09Z</time>
      </trkpt>
      <trkpt lat="44.11088" lon="3.12006">
        <ele>796</ele>
        <time>2010-10-24T11:17:16Z</time>
      </trkpt>
      <trkpt lat="44.11073" lon="3.11991">
        <ele>795</ele>
        <time>2010-10-24T11:17:26Z</time>
      </trkpt>
      <trkpt lat="44.11059" lon="3.11975">
        <ele>794.20001220703</ele>
        <time>2010-10-24T11:17:39Z</time>
      </trkpt>
      <trkpt lat="44.11044" lon="3.11958">
        <ele>793.20001220703</ele>
        <time>2010-10-24T11:17:51Z</time>
      </trkpt>
      <trkpt lat="44.11029" lon="3.11939">
        <ele>793</ele>
        <time>2010-10-24T11:17:59Z</time>
      </trkpt>
      <trkpt lat="44.1102" lon="3.11932">
        <ele>792.59997558594</ele>
        <time>2010-10-24T11:18:04Z</time>
      </trkpt>
      <trkpt lat="44.11014" lon="3.11941">
        <ele>792.20001220703</ele>
        <time>2010-10-24T11:18:08Z</time>
      </trkpt>
      <trkpt lat="44.11001" lon="3.1196">
        <ele>791.20001220703</ele>
        <time>2010-10-24T11:18:17Z</time>
      </trkpt>
      <trkpt lat="44.10998" lon="3.11965">
        <ele>791</ele>
        <time>2010-10-24T11:18:19Z</time>
      </trkpt>
      <trkpt lat="44.1099" lon="3.11975">
        <ele>790.20001220703</ele>
        <time>2010-10-24T11:18:24Z</time>
      </trkpt>
      <trkpt lat="44.10987" lon="3.11976">
        <ele>790</ele>
        <time>2010-10-24T11:18:25Z</time>
      </trkpt>
      <trkpt lat="44.10979" lon="3.11983">
        <ele>789.40002441406</ele>
        <time>2010-10-24T11:18:29Z</time>
      </trkpt>
      <trkpt lat="44.10973" lon="3.11991">
        <ele>788.59997558594</ele>
        <time>2010-10-24T11:18:33Z</time>
      </trkpt>
      <trkpt lat="44.10968" lon="3.11992">
        <ele>788.20001220703</ele>
        <time>2010-10-24T11:18:35Z</time>
      </trkpt>
      <trkpt lat="44.10955" lon="3.11992">
        <ele>787.20001220703</ele>
        <time>2010-10-24T11:18:40Z</time>
      </trkpt>
      <trkpt lat="44.10954" lon="3.11993">
        <ele>786.79998779297</ele>
        <time>2010-10-24T11:18:41Z</time>
      </trkpt>
      <trkpt lat="44.10949" lon="3.12002">
        <ele>785.59997558594</ele>
        <time>2010-10-24T11:18:47Z</time>
      </trkpt>
      <trkpt lat="44.10948" lon="3.12008">
        <ele>784.79998779297</ele>
        <time>2010-10-24T11:18:50Z</time>
      </trkpt>
      <trkpt lat="44.10943" lon="3.12007">
        <ele>784.20001220703</ele>
        <time>2010-10-24T11:18:53Z</time>
      </trkpt>
      <trkpt lat="44.10929" lon="3.12013">
        <ele>781.59997558594</ele>
        <time>2010-10-24T11:19:04Z</time>
      </trkpt>
      <trkpt lat="44.10926" lon="3.12014">
        <ele>781</ele>
        <time>2010-10-24T11:19:06Z</time>
      </trkpt>
      <trkpt lat="44.10921" lon="3.12015">
        <ele>780</ele>
        <time>2010-10-24T11:19:10Z</time>
      </trkpt>
      <trkpt lat="44.10913" lon="3.1202">
        <ele>778.59997558594</ele>
        <time>2010-10-24T11:19:15Z</time>
      </trkpt>
      <trkpt lat="44.10899" lon="3.12033">
        <ele>775.40002441406</ele>
        <time>2010-10-24T11:19:25Z</time>
      </trkpt>
      <trkpt lat="44.10898" lon="3.12034">
        <ele>775.20001220703</ele>
        <time>2010-10-24T11:19:26Z</time>
      </trkpt>
      <trkpt lat="44.10886" lon="3.12041">
        <ele>772.59997558594</ele>
        <time>2010-10-24T11:19:33Z</time>
      </trkpt>
      <trkpt lat="44.10884" lon="3.1204">
        <ele>772.20001220703</ele>
        <time>2010-10-24T11:19:34Z</time>
      </trkpt>
      <trkpt lat="44.10882" lon="3.12039">
        <ele>772</ele>
        <time>2010-10-24T11:19:35Z</time>
      </trkpt>
      <trkpt lat="44.10864" lon="3.12048">
        <ele>767.79998779297</ele>
        <time>2010-10-24T11:19:46Z</time>
      </trkpt>
      <trkpt lat="44.1085" lon="3.12046">
        <ele>765.20001220703</ele>
        <time>2010-10-24T11:19:53Z</time>
      </trkpt>
      <trkpt lat="44.10847" lon="3.12051">
        <ele>764.20001220703</ele>
        <time>2010-10-24T11:19:56Z</time>
      </trkpt>
      <trkpt lat="44.10836" lon="3.12058">
        <ele>761</ele>
        <time>2010-10-24T11:20:04Z</time>
      </trkpt>
      <trkpt lat="44.10835" lon="3.1206">
        <ele>760.59997558594</ele>
        <time>2010-10-24T11:20:05Z</time>
      </trkpt>
      <trkpt lat="44.10834" lon="3.12063">
        <ele>759.79998779297</ele>
        <time>2010-10-24T11:20:07Z</time>
      </trkpt>
      <trkpt lat="44.10833" lon="3.12064">
        <ele>759.40002441406</ele>
        <time>2010-10-24T11:20:08Z</time>
      </trkpt>
      <trkpt lat="44.10828" lon="3.12066">
        <ele>758</ele>
        <time>2010-10-24T11:20:11Z</time>
      </trkpt>
      <trkpt lat="44.10816" lon="3.12067">
        <ele>755.20001220703</ele>
        <time>2010-10-24T11:20:18Z</time>
      </trkpt>
      <trkpt lat="44.10803" lon="3.12082">
        <ele>748.59997558594</ele>
        <time>2010-10-24T11:20:34Z</time>
      </trkpt>
      <trkpt lat="44.10803" lon="3.12083">
        <ele>747.79998779297</ele>
        <time>2010-10-24T11:20:36Z</time>
      </trkpt>
      <trkpt lat="44.10796" lon="3.12083">
        <ele>745.40002441406</ele>
        <time>2010-10-24T11:20:42Z</time>
      </trkpt>
      <trkpt lat="44.10789" lon="3.12073">
        <ele>744</ele>
        <time>2010-10-24T11:20:46Z</time>
      </trkpt>
      <trkpt lat="44.10787" lon="3.12067">
        <ele>742.20001220703</ele>
        <time>2010-10-24T11:20:51Z</time>
      </trkpt>
      <trkpt lat="44.10784" lon="3.12068">
        <ele>739</ele>
        <time>2010-10-24T11:21:01Z</time>
      </trkpt>
      <trkpt lat="44.1078" lon="3.1208">
        <ele>736.79998779297</ele>
        <time>2010-10-24T11:21:07Z</time>
      </trkpt>
      <trkpt lat="44.10768" lon="3.12094">
        <ele>733.20001220703</ele>
        <time>2010-10-24T11:21:17Z</time>
      </trkpt>
      <trkpt lat="44.10767" lon="3.12097">
        <ele>732.79998779297</ele>
        <time>2010-10-24T11:21:18Z</time>
      </trkpt>
      <trkpt lat="44.10765" lon="3.12124">
        <ele>730</ele>
        <time>2010-10-24T11:21:25Z</time>
      </trkpt>
      <trkpt lat="44.10757" lon="3.12148">
        <ele>725.79998779297</ele>
        <time>2010-10-24T11:21:35Z</time>
      </trkpt>
      <trkpt lat="44.10752" lon="3.12172">
        <ele>722</ele>
        <time>2010-10-24T11:21:44Z</time>
      </trkpt>
      <trkpt lat="44.10752" lon="3.12174">
        <ele>721.59997558594</ele>
        <time>2010-10-24T11:21:45Z</time>
      </trkpt>
      <trkpt lat="44.10737" lon="3.12182">
        <ele>716.20001220703</ele>
        <time>2010-10-24T11:21:56Z</time>
      </trkpt>
      <trkpt lat="44.10728" lon="3.12183">
        <ele>714</ele>
        <time>2010-10-24T11:22:00Z</time>
      </trkpt>
      <trkpt lat="44.10721" lon="3.12181">
        <ele>710.79998779297</ele>
        <time>2010-10-24T11:22:06Z</time>
      </trkpt>
      <trkpt lat="44.10719" lon="3.12181">
        <ele>709.79998779297</ele>
        <time>2010-10-24T11:22:08Z</time>
      </trkpt>
      <trkpt lat="44.10711" lon="3.12181">
        <ele>706</ele>
        <time>2010-10-24T11:22:15Z</time>
      </trkpt>
      <trkpt lat="44.10709" lon="3.12181">
        <ele>705.59997558594</ele>
        <time>2010-10-24T11:22:16Z</time>
      </trkpt>
      <trkpt lat="44.107" lon="3.12186">
        <ele>703.40002441406</ele>
        <time>2010-10-24T11:22:20Z</time>
      </trkpt>
      <trkpt lat="44.10688" lon="3.12199">
        <ele>700.59997558594</ele>
        <time>2010-10-24T11:22:25Z</time>
      </trkpt>
      <trkpt lat="44.10685" lon="3.12202">
        <ele>700</ele>
        <time>2010-10-24T11:22:26Z</time>
      </trkpt>
      <trkpt lat="44.10677" lon="3.12224">
        <ele>697</ele>
        <time>2010-10-24T11:22:32Z</time>
      </trkpt>
      <trkpt lat="44.10683" lon="3.12242">
        <ele>694.59997558594</ele>
        <time>2010-10-24T11:22:37Z</time>
      </trkpt>
      <trkpt lat="44.10687" lon="3.12248">
        <ele>693.79998779297</ele>
        <time>2010-10-24T11:22:39Z</time>
      </trkpt>
      <trkpt lat="44.10695" lon="3.12274">
        <ele>690.79998779297</ele>
        <time>2010-10-24T11:22:46Z</time>
      </trkpt>
      <trkpt lat="44.10696" lon="3.12302">
        <ele>688</ele>
        <time>2010-10-24T11:22:53Z</time>
      </trkpt>
      <trkpt lat="44.10695" lon="3.1233">
        <ele>685.59997558594</ele>
        <time>2010-10-24T11:23:00Z</time>
      </trkpt>
      <trkpt lat="44.10698" lon="3.12358">
        <ele>683.20001220703</ele>
        <time>2010-10-24T11:23:07Z</time>
      </trkpt>
      <trkpt lat="44.10705" lon="3.12381">
        <ele>681.20001220703</ele>
        <time>2010-10-24T11:23:13Z</time>
      </trkpt>
      <trkpt lat="44.10715" lon="3.12406">
        <ele>679.20001220703</ele>
        <time>2010-10-24T11:23:20Z</time>
      </trkpt>
      <trkpt lat="44.10729" lon="3.12424">
        <ele>677.40002441406</ele>
        <time>2010-10-24T11:23:27Z</time>
      </trkpt>
      <trkpt lat="44.10743" lon="3.1244">
        <ele>675.59997558594</ele>
        <time>2010-10-24T11:23:34Z</time>
      </trkpt>
      <trkpt lat="44.10745" lon="3.12443">
        <ele>675.40002441406</ele>
        <time>2010-10-24T11:23:35Z</time>
      </trkpt>
      <trkpt lat="44.10744" lon="3.12459">
        <ele>673.79998779297</ele>
        <time>2010-10-24T11:23:40Z</time>
      </trkpt>
      <trkpt lat="44.10744" lon="3.12464">
        <ele>673</ele>
        <time>2010-10-24T11:23:42Z</time>
      </trkpt>
      <trkpt lat="44.10744" lon="3.12472">
        <ele>672.20001220703</ele>
        <time>2010-10-24T11:23:45Z</time>
      </trkpt>
      <trkpt lat="44.10737" lon="3.12482">
        <ele>669</ele>
        <time>2010-10-24T11:23:54Z</time>
      </trkpt>
      <trkpt lat="44.10738" lon="3.12483">
        <ele>668.59997558594</ele>
        <time>2010-10-24T11:23:55Z</time>
      </trkpt>
      <trkpt lat="44.10738" lon="3.12485">
        <ele>668.20001220703</ele>
        <time>2010-10-24T11:23:56Z</time>
      </trkpt>
      <trkpt lat="44.10732" lon="3.12492">
        <ele>665.40002441406</ele>
        <time>2010-10-24T11:24:03Z</time>
      </trkpt>
      <trkpt lat="44.10733" lon="3.12503">
        <ele>663.40002441406</ele>
        <time>2010-10-24T11:24:08Z</time>
      </trkpt>
      <trkpt lat="44.10739" lon="3.12517">
        <ele>660.20001220703</ele>
        <time>2010-10-24T11:24:16Z</time>
      </trkpt>
      <trkpt lat="44.1074" lon="3.12525">
        <ele>658.79998779297</ele>
        <time>2010-10-24T11:24:19Z</time>
      </trkpt>
      <trkpt lat="44.1074" lon="3.12528">
        <ele>658.40002441406</ele>
        <time>2010-10-24T11:24:20Z</time>
      </trkpt>
      <trkpt lat="44.10725" lon="3.12524">
        <ele>654.20001220703</ele>
        <time>2010-10-24T11:24:29Z</time>
      </trkpt>
      <trkpt lat="44.10719" lon="3.12519">
        <ele>652.20001220703</ele>
        <time>2010-10-24T11:24:33Z</time>
      </trkpt>
      <trkpt lat="44.10709" lon="3.12514">
        <ele>649</ele>
        <time>2010-10-24T11:24:39Z</time>
      </trkpt>
      <trkpt lat="44.10703" lon="3.12516">
        <ele>642.59997558594</ele>
        <time>2010-10-24T11:24:51Z</time>
      </trkpt>
      <trkpt lat="44.107" lon="3.12517">
        <ele>641</ele>
        <time>2010-10-24T11:24:54Z</time>
      </trkpt>
      <trkpt lat="44.10699" lon="3.12519">
        <ele>640</ele>
        <time>2010-10-24T11:24:56Z</time>
      </trkpt>
      <trkpt lat="44.10699" lon="3.12522">
        <ele>638.59997558594</ele>
        <time>2010-10-24T11:24:59Z</time>
      </trkpt>
      <trkpt lat="44.10696" lon="3.12527">
        <ele>636.79998779297</ele>
        <time>2010-10-24T11:25:03Z</time>
      </trkpt>
      <trkpt lat="44.10695" lon="3.12527">
        <ele>636.20001220703</ele>
        <time>2010-10-24T11:25:04Z</time>
      </trkpt>
      <trkpt lat="44.10686" lon="3.12523">
        <ele>632.20001220703</ele>
        <time>2010-10-24T11:25:12Z</time>
      </trkpt>
      <trkpt lat="44.10685" lon="3.12523">
        <ele>631.59997558594</ele>
        <time>2010-10-24T11:25:13Z</time>
      </trkpt>
      <trkpt lat="44.10679" lon="3.12524">
        <ele>629.40002441406</ele>
        <time>2010-10-24T11:25:17Z</time>
      </trkpt>
      <trkpt lat="44.10676" lon="3.12522">
        <ele>628.20001220703</ele>
        <time>2010-10-24T11:25:19Z</time>
      </trkpt>
      <trkpt lat="44.10672" lon="3.12521">
        <ele>626.59997558594</ele>
        <time>2010-10-24T11:25:22Z</time>
      </trkpt>
      <trkpt lat="44.10665" lon="3.12523">
        <ele>624.20001220703</ele>
        <time>2010-10-24T11:25:26Z</time>
      </trkpt>
      <trkpt lat="44.10661" lon="3.12521">
        <ele>623</ele>
        <time>2010-10-24T11:25:28Z</time>
      </trkpt>
      <trkpt lat="44.10653" lon="3.12513">
        <ele>619.59997558594</ele>
        <time>2010-10-24T11:25:34Z</time>
      </trkpt>
      <trkpt lat="44.10651" lon="3.12512">
        <ele>618.40002441406</ele>
        <time>2010-10-24T11:25:36Z</time>
      </trkpt>
      <trkpt lat="44.10646" lon="3.1251">
        <ele>615.79998779297</ele>
        <time>2010-10-24T11:25:41Z</time>
      </trkpt>
      <trkpt lat="44.10645" lon="3.12513">
        <ele>613.20001220703</ele>
        <time>2010-10-24T11:25:46Z</time>
      </trkpt>
      <trkpt lat="44.10643" lon="3.12513">
        <ele>612.59997558594</ele>
        <time>2010-10-24T11:25:47Z</time>
      </trkpt>
      <trkpt lat="44.10633" lon="3.1251">
        <ele>608</ele>
        <time>2010-10-24T11:25:56Z</time>
      </trkpt>
      <trkpt lat="44.10631" lon="3.1251">
        <ele>607</ele>
        <time>2010-10-24T11:25:58Z</time>
      </trkpt>
      <trkpt lat="44.10627" lon="3.12509">
        <ele>605.40002441406</ele>
        <time>2010-10-24T11:26:01Z</time>
      </trkpt>
      <trkpt lat="44.10624" lon="3.12507">
        <ele>604.20001220703</ele>
        <time>2010-10-24T11:26:03Z</time>
      </trkpt>
      <trkpt lat="44.10619" lon="3.12502">
        <ele>602.79998779297</ele>
        <time>2010-10-24T11:26:06Z</time>
      </trkpt>
      <trkpt lat="44.10612" lon="3.12492">
        <ele>600.79998779297</ele>
        <time>2010-10-24T11:26:10Z</time>
      </trkpt>
      <trkpt lat="44.10606" lon="3.12482">
        <ele>597.40002441406</ele>
        <time>2010-10-24T11:26:17Z</time>
      </trkpt>
      <trkpt lat="44.10598" lon="3.12481">
        <ele>595</ele>
        <time>2010-10-24T11:26:22Z</time>
      </trkpt>
      <trkpt lat="44.10593" lon="3.12472">
        <ele>593.59997558594</ele>
        <time>2010-10-24T11:26:25Z</time>
      </trkpt>
      <trkpt lat="44.10589" lon="3.12466">
        <ele>592.20001220703</ele>
        <time>2010-10-24T11:26:28Z</time>
      </trkpt>
      <trkpt lat="44.10585" lon="3.12463">
        <ele>590.59997558594</ele>
        <time>2010-10-24T11:26:31Z</time>
      </trkpt>
      <trkpt lat="44.10584" lon="3.12461">
        <ele>590.20001220703</ele>
        <time>2010-10-24T11:26:32Z</time>
      </trkpt>
      <trkpt lat="44.10582" lon="3.12459">
        <ele>589.20001220703</ele>
        <time>2010-10-24T11:26:34Z</time>
      </trkpt>
      <trkpt lat="44.10577" lon="3.12457">
        <ele>587.20001220703</ele>
        <time>2010-10-24T11:26:38Z</time>
      </trkpt>
      <trkpt lat="44.1057" lon="3.12448">
        <ele>584.79998779297</ele>
        <time>2010-10-24T11:26:43Z</time>
      </trkpt>
      <trkpt lat="44.10566" lon="3.1244">
        <ele>583</ele>
        <time>2010-10-24T11:26:47Z</time>
      </trkpt>
      <trkpt lat="44.10563" lon="3.12433">
        <ele>581.59997558594</ele>
        <time>2010-10-24T11:26:50Z</time>
      </trkpt>
      <trkpt lat="44.10559" lon="3.12428">
        <ele>580</ele>
        <time>2010-10-24T11:26:53Z</time>
      </trkpt>
      <trkpt lat="44.10556" lon="3.12424">
        <ele>579</ele>
        <time>2010-10-24T11:26:55Z</time>
      </trkpt>
      <trkpt lat="44.10548" lon="3.12416">
        <ele>575.59997558594</ele>
        <time>2010-10-24T11:27:02Z</time>
      </trkpt>
      <trkpt lat="44.10545" lon="3.12412">
        <ele>573.79998779297</ele>
        <time>2010-10-24T11:27:06Z</time>
      </trkpt>
      <trkpt lat="44.10543" lon="3.1241">
        <ele>572.79998779297</ele>
        <time>2010-10-24T11:27:08Z</time>
      </trkpt>
      <trkpt lat="44.10538" lon="3.12412">
        <ele>570.20001220703</ele>
        <time>2010-10-24T11:27:13Z</time>
      </trkpt>
      <trkpt lat="44.10532" lon="3.12411">
        <ele>567.40002441406</ele>
        <time>2010-10-24T11:27:18Z</time>
      </trkpt>
      <trkpt lat="44.1053" lon="3.12405">
        <ele>566.40002441406</ele>
        <time>2010-10-24T11:27:20Z</time>
      </trkpt>
      <trkpt lat="44.10528" lon="3.12397">
        <ele>564.79998779297</ele>
        <time>2010-10-24T11:27:23Z</time>
      </trkpt>
      <trkpt lat="44.10523" lon="3.1241">
        <ele>561</ele>
        <time>2010-10-24T11:27:30Z</time>
      </trkpt>
      <trkpt lat="44.1052" lon="3.12422">
        <ele>559.40002441406</ele>
        <time>2010-10-24T11:27:33Z</time>
      </trkpt>
      <trkpt lat="44.10518" lon="3.12434">
        <ele>557.79998779297</ele>
        <time>2010-10-24T11:27:36Z</time>
      </trkpt>
      <trkpt lat="44.10516" lon="3.1246">
        <ele>554.59997558594</ele>
        <time>2010-10-24T11:27:42Z</time>
      </trkpt>
      <trkpt lat="44.10515" lon="3.12485">
        <ele>551</ele>
        <time>2010-10-24T11:27:49Z</time>
      </trkpt>
      <trkpt lat="44.1051" lon="3.1251">
        <ele>546</ele>
        <time>2010-10-24T11:27:59Z</time>
      </trkpt>
      <trkpt lat="44.105" lon="3.12532">
        <ele>540.40002441406</ele>
        <time>2010-10-24T11:28:10Z</time>
      </trkpt>
      <trkpt lat="44.10498" lon="3.12542">
        <ele>538.20001220703</ele>
        <time>2010-10-24T11:28:14Z</time>
      </trkpt>
      <trkpt lat="44.10496" lon="3.12558">
        <ele>536.20001220703</ele>
        <time>2010-10-24T11:28:18Z</time>
      </trkpt>
      <trkpt lat="44.10494" lon="3.12566">
        <ele>534.59997558594</ele>
        <time>2010-10-24T11:28:21Z</time>
      </trkpt>
      <trkpt lat="44.1049" lon="3.12573">
        <ele>532.59997558594</ele>
        <time>2010-10-24T11:28:25Z</time>
      </trkpt>
      <trkpt lat="44.10484" lon="3.12576">
        <ele>530.59997558594</ele>
        <time>2010-10-24T11:28:29Z</time>
      </trkpt>
      <trkpt lat="44.10483" lon="3.12577">
        <ele>530</ele>
        <time>2010-10-24T11:28:30Z</time>
      </trkpt>
      <trkpt lat="44.10479" lon="3.12586">
        <ele>527.79998779297</ele>
        <time>2010-10-24T11:28:34Z</time>
      </trkpt>
      <trkpt lat="44.10476" lon="3.12591">
        <ele>526.20001220703</ele>
        <time>2010-10-24T11:28:37Z</time>
      </trkpt>
      <trkpt lat="44.10472" lon="3.12595">
        <ele>524.59997558594</ele>
        <time>2010-10-24T11:28:40Z</time>
      </trkpt>
      <trkpt lat="44.10468" lon="3.12606">
        <ele>521.79998779297</ele>
        <time>2010-10-24T11:28:45Z</time>
      </trkpt>
      <trkpt lat="44.10462" lon="3.12619">
        <ele>519.59997558594</ele>
        <time>2010-10-24T11:28:49Z</time>
      </trkpt>
      <trkpt lat="44.10458" lon="3.12643">
        <ele>516</ele>
        <time>2010-10-24T11:28:56Z</time>
      </trkpt>
      <trkpt lat="44.10455" lon="3.12668">
        <ele>512.40002441406</ele>
        <time>2010-10-24T11:29:03Z</time>
      </trkpt>
      <trkpt lat="44.10452" lon="3.12681">
        <ele>509.79998779297</ele>
        <time>2010-10-24T11:29:08Z</time>
      </trkpt>
      <trkpt lat="44.10444" lon="3.12681">
        <ele>507</ele>
        <time>2010-10-24T11:29:13Z</time>
      </trkpt>
      <trkpt lat="44.10435" lon="3.12683">
        <ele>504.20001220703</ele>
        <time>2010-10-24T11:29:18Z</time>
      </trkpt>
      <trkpt lat="44.10425" lon="3.12681">
        <ele>502</ele>
        <time>2010-10-24T11:29:22Z</time>
      </trkpt>
      <trkpt lat="44.10411" lon="3.12666">
        <ele>498.20001220703</ele>
        <time>2010-10-24T11:29:29Z</time>
      </trkpt>
      <trkpt lat="44.1041" lon="3.12664">
        <ele>497.60000610352</ele>
        <time>2010-10-24T11:29:30Z</time>
      </trkpt>
      <trkpt lat="44.10406" lon="3.12664">
        <ele>496.39999389648</ele>
        <time>2010-10-24T11:29:32Z</time>
      </trkpt>
      <trkpt lat="44.10403" lon="3.12664">
        <ele>495.20001220703</ele>
        <time>2010-10-24T11:29:34Z</time>
      </trkpt>
      <trkpt lat="44.10393" lon="3.12654">
        <ele>491.79998779297</ele>
        <time>2010-10-24T11:29:40Z</time>
      </trkpt>
      <trkpt lat="44.10391" lon="3.12652">
        <ele>491.20001220703</ele>
        <time>2010-10-24T11:29:41Z</time>
      </trkpt>
      <trkpt lat="44.10389" lon="3.12647">
        <ele>490.20001220703</ele>
        <time>2010-10-24T11:29:43Z</time>
      </trkpt>
      <trkpt lat="44.10383" lon="3.12641">
        <ele>487.39999389648</ele>
        <time>2010-10-24T11:29:48Z</time>
      </trkpt>
      <trkpt lat="44.1038" lon="3.12635">
        <ele>485.60000610352</ele>
        <time>2010-10-24T11:29:51Z</time>
      </trkpt>
      <trkpt lat="44.10378" lon="3.12633">
        <ele>484.39999389648</ele>
        <time>2010-10-24T11:29:53Z</time>
      </trkpt>
      <trkpt lat="44.10363" lon="3.12642">
        <ele>479.79998779297</ele>
        <time>2010-10-24T11:30:01Z</time>
      </trkpt>
      <trkpt lat="44.10353" lon="3.12665">
        <ele>475.79998779297</ele>
        <time>2010-10-24T11:30:08Z</time>
      </trkpt>
      <trkpt lat="44.10344" lon="3.12687">
        <ele>472</ele>
        <time>2010-10-24T11:30:15Z</time>
      </trkpt>
      <trkpt lat="44.10333" lon="3.12707">
        <ele>467.60000610352</ele>
        <time>2010-10-24T11:30:23Z</time>
      </trkpt>
      <trkpt lat="44.10319" lon="3.12724">
        <ele>463.20001220703</ele>
        <time>2010-10-24T11:30:31Z</time>
      </trkpt>
      <trkpt lat="44.10308" lon="3.12744">
        <ele>458.79998779297</ele>
        <time>2010-10-24T11:30:39Z</time>
      </trkpt>
      <trkpt lat="44.10303" lon="3.12767">
        <ele>455</ele>
        <time>2010-10-24T11:30:46Z</time>
      </trkpt>
      <trkpt lat="44.10308" lon="3.12794">
        <ele>451.39999389648</ele>
        <time>2010-10-24T11:30:53Z</time>
      </trkpt>
      <trkpt lat="44.10315" lon="3.12818">
        <ele>447.79998779297</ele>
        <time>2010-10-24T11:31:00Z</time>
      </trkpt>
      <trkpt lat="44.10325" lon="3.12842">
        <ele>444.39999389648</ele>
        <time>2010-10-24T11:31:07Z</time>
      </trkpt>
      <trkpt lat="44.10336" lon="3.12858">
        <ele>441.79998779297</ele>
        <time>2010-10-24T11:31:13Z</time>
      </trkpt>
      <trkpt lat="44.10337" lon="3.12861">
        <ele>441.39999389648</ele>
        <time>2010-10-24T11:31:14Z</time>
      </trkpt>
      <trkpt lat="44.10345" lon="3.12881">
        <ele>439</ele>
        <time>2010-10-24T11:31:20Z</time>
      </trkpt>
      <trkpt lat="44.10344" lon="3.12884">
        <ele>438.60000610352</ele>
        <time>2010-10-24T11:31:21Z</time>
      </trkpt>
      <trkpt lat="44.10332" lon="3.129">
        <ele>436.20001220703</ele>
        <time>2010-10-24T11:31:27Z</time>
      </trkpt>
      <trkpt lat="44.10329" lon="3.12902">
        <ele>435.79998779297</ele>
        <time>2010-10-24T11:31:28Z</time>
      </trkpt>
      <trkpt lat="44.10312" lon="3.12909">
        <ele>433</ele>
        <time>2010-10-24T11:31:35Z</time>
      </trkpt>
      <trkpt lat="44.10294" lon="3.129">
        <ele>430.20001220703</ele>
        <time>2010-10-24T11:31:42Z</time>
      </trkpt>
      <trkpt lat="44.10277" lon="3.12891">
        <ele>427</ele>
        <time>2010-10-24T11:31:50Z</time>
      </trkpt>
      <trkpt lat="44.10257" lon="3.12887">
        <ele>423.60000610352</ele>
        <time>2010-10-24T11:31:58Z</time>
      </trkpt>
      <trkpt lat="44.10238" lon="3.12881">
        <ele>420.20001220703</ele>
        <time>2010-10-24T11:32:06Z</time>
      </trkpt>
      <trkpt lat="44.10218" lon="3.12876">
        <ele>417</ele>
        <time>2010-10-24T11:32:14Z</time>
      </trkpt>
      <trkpt lat="44.10211" lon="3.12864">
        <ele>415.39999389648</ele>
        <time>2010-10-24T11:32:18Z</time>
      </trkpt>
      <trkpt lat="44.10207" lon="3.12855">
        <ele>414.20001220703</ele>
        <time>2010-10-24T11:32:21Z</time>
      </trkpt>
      <trkpt lat="44.10199" lon="3.12831">
        <ele>411.39999389648</ele>
        <time>2010-10-24T11:32:28Z</time>
      </trkpt>
      <trkpt lat="44.10195" lon="3.12807">
        <ele>409</ele>
        <time>2010-10-24T11:32:35Z</time>
      </trkpt>
      <trkpt lat="44.10189" lon="3.1278">
        <ele>406.60000610352</ele>
        <time>2010-10-24T11:32:42Z</time>
      </trkpt>
      <trkpt lat="44.10184" lon="3.12753">
        <ele>404.60000610352</ele>
        <time>2010-10-24T11:32:49Z</time>
      </trkpt>
      <trkpt lat="44.10183" lon="3.12727">
        <ele>402.79998779297</ele>
        <time>2010-10-24T11:32:56Z</time>
      </trkpt>
      <trkpt lat="44.10183" lon="3.12712">
        <ele>401.79998779297</ele>
        <time>2010-10-24T11:33:00Z</time>
      </trkpt>
      <trkpt lat="44.10188" lon="3.12705">
        <ele>401</ele>
        <time>2010-10-24T11:33:03Z</time>
      </trkpt>
      <trkpt lat="44.10197" lon="3.1268">
        <ele>399.20001220703</ele>
        <time>2010-10-24T11:33:11Z</time>
      </trkpt>
      <trkpt lat="44.10199" lon="3.12678">
        <ele>399</ele>
        <time>2010-10-24T11:33:12Z</time>
      </trkpt>
      <trkpt lat="44.10209" lon="3.12682">
        <ele>397.79998779297</ele>
        <time>2010-10-24T11:33:18Z</time>
      </trkpt>
      <trkpt lat="44.10213" lon="3.12687">
        <ele>396.60000610352</ele>
        <time>2010-10-24T11:33:24Z</time>
      </trkpt>
      <trkpt lat="44.10215" lon="3.1269">
        <ele>396</ele>
        <time>2010-10-24T11:33:28Z</time>
      </trkpt>
      <trkpt lat="44.10216" lon="3.12691">
        <ele>395.60000610352</ele>
        <time>2010-10-24T11:33:30Z</time>
      </trkpt>
      <trkpt lat="44.10217" lon="3.12698">
        <ele>387.79998779297</ele>
        <time>2010-10-24T11:34:51Z</time>
      </trkpt>
      <trkpt lat="44.10215" lon="3.12696">
        <ele>378.79998779297</ele>
        <time>2010-10-24T11:39:39Z</time>
      </trkpt>
      <trkpt lat="44.10202" lon="3.12683">
        <ele>378.60000610352</ele>
        <time>2010-10-24T11:39:59Z</time>
      </trkpt>
      <trkpt lat="44.10196" lon="3.12703">
        <ele>378</ele>
        <time>2010-10-24T11:40:11Z</time>
      </trkpt>
      <trkpt lat="44.10194" lon="3.12707">
        <ele>378</ele>
        <time>2010-10-24T11:40:14Z</time>
      </trkpt>
      <trkpt lat="44.10192" lon="3.12709">
        <ele>377.79998779297</ele>
        <time>2010-10-24T11:40:16Z</time>
      </trkpt>
      <trkpt lat="44.10194" lon="3.12716">
        <ele>377.60000610352</ele>
        <time>2010-10-24T11:40:23Z</time>
      </trkpt>
      <trkpt lat="44.10203" lon="3.1272">
        <ele>377.60000610352</ele>
        <time>2010-10-24T11:40:30Z</time>
      </trkpt>
      <trkpt lat="44.10207" lon="3.12722">
        <ele>377.79998779297</ele>
        <time>2010-10-24T11:40:35Z</time>
      </trkpt>
      <trkpt lat="44.10221" lon="3.12727">
        <ele>378.79998779297</ele>
        <time>2010-10-24T11:40:46Z</time>
      </trkpt>
      <trkpt lat="44.10223" lon="3.12729">
        <ele>379.20001220703</ele>
        <time>2010-10-24T11:40:48Z</time>
      </trkpt>
      <trkpt lat="44.10238" lon="3.12736">
        <ele>381.20001220703</ele>
        <time>2010-10-24T11:41:01Z</time>
      </trkpt>
      <trkpt lat="44.10253" lon="3.12727">
        <ele>384</ele>
        <time>2010-10-24T11:41:17Z</time>
      </trkpt>
      <trkpt lat="44.10264" lon="3.12705">
        <ele>386.39999389648</ele>
        <time>2010-10-24T11:41:29Z</time>
      </trkpt>
      <trkpt lat="44.1028" lon="3.1269">
        <ele>388.39999389648</ele>
        <time>2010-10-24T11:41:38Z</time>
      </trkpt>
      <trkpt lat="44.10289" lon="3.12685">
        <ele>389.60000610352</ele>
        <time>2010-10-24T11:41:45Z</time>
      </trkpt>
      <trkpt lat="44.10297" lon="3.1268">
        <ele>391.20001220703</ele>
        <time>2010-10-24T11:41:55Z</time>
      </trkpt>
      <trkpt lat="44.10309" lon="3.12676">
        <ele>395</ele>
        <time>2010-10-24T11:42:09Z</time>
      </trkpt>
      <trkpt lat="44.1031" lon="3.12678">
        <ele>395.60000610352</ele>
        <time>2010-10-24T11:42:12Z</time>
      </trkpt>
      <trkpt lat="44.10311" lon="3.12682">
        <ele>396.20001220703</ele>
        <time>2010-10-24T11:42:15Z</time>
      </trkpt>
      <trkpt lat="44.10311" lon="3.12688">
        <ele>397.39999389648</ele>
        <time>2010-10-24T11:42:20Z</time>
      </trkpt>
      <trkpt lat="44.10313" lon="3.12699">
        <ele>398.79998779297</ele>
        <time>2010-10-24T11:42:28Z</time>
      </trkpt>
      <trkpt lat="44.10314" lon="3.127">
        <ele>399</ele>
        <time>2010-10-24T11:42:29Z</time>
      </trkpt>
      <trkpt lat="44.10318" lon="3.12698">
        <ele>399.79998779297</ele>
        <time>2010-10-24T11:42:34Z</time>
      </trkpt>
      <trkpt lat="44.1032" lon="3.12693">
        <ele>400.39999389648</ele>
        <time>2010-10-24T11:42:37Z</time>
      </trkpt>
      <trkpt lat="44.10329" lon="3.12677">
        <ele>402.20001220703</ele>
        <time>2010-10-24T11:42:48Z</time>
      </trkpt>
      <trkpt lat="44.10341" lon="3.12658">
        <ele>405.39999389648</ele>
        <time>2010-10-24T11:43:05Z</time>
      </trkpt>
      <trkpt lat="44.10351" lon="3.12637">
        <ele>407.79998779297</ele>
        <time>2010-10-24T11:43:20Z</time>
      </trkpt>
      <trkpt lat="44.10358" lon="3.12613">
        <ele>409.20001220703</ele>
        <time>2010-10-24T11:43:31Z</time>
      </trkpt>
      <trkpt lat="44.10365" lon="3.12596">
        <ele>410.20001220703</ele>
        <time>2010-10-24T11:43:41Z</time>
      </trkpt>
      <trkpt lat="44.10368" lon="3.126">
        <ele>410.60000610352</ele>
        <time>2010-10-24T11:43:45Z</time>
      </trkpt>
      <trkpt lat="44.10369" lon="3.12604">
        <ele>410.79998779297</ele>
        <time>2010-10-24T11:43:50Z</time>
      </trkpt>
      <trkpt lat="44.10369" lon="3.12605">
        <ele>411</ele>
        <time>2010-10-24T11:43:51Z</time>
      </trkpt>
      <trkpt lat="44.10374" lon="3.12614">
        <ele>414.60000610352</ele>
        <time>2010-10-24T11:44:12Z</time>
      </trkpt>
      <trkpt lat="44.10384" lon="3.12592">
        <ele>417.20001220703</ele>
        <time>2010-10-24T11:44:24Z</time>
      </trkpt>
      <trkpt lat="44.10392" lon="3.1257">
        <ele>420.20001220703</ele>
        <time>2010-10-24T11:44:35Z</time>
      </trkpt>
      <trkpt lat="44.104" lon="3.12547">
        <ele>423</ele>
        <time>2010-10-24T11:44:49Z</time>
      </trkpt>
      <trkpt lat="44.10406" lon="3.12523">
        <ele>424.79998779297</ele>
        <time>2010-10-24T11:45:03Z</time>
      </trkpt>
      <trkpt lat="44.10415" lon="3.12501">
        <ele>426.60000610352</ele>
        <time>2010-10-24T11:45:20Z</time>
      </trkpt>
      <trkpt lat="44.10419" lon="3.12482">
        <ele>427.79998779297</ele>
        <time>2010-10-24T11:45:31Z</time>
      </trkpt>
      <trkpt lat="44.10421" lon="3.12476">
        <ele>428.60000610352</ele>
        <time>2010-10-24T11:45:35Z</time>
      </trkpt>
      <trkpt lat="44.10424" lon="3.12458">
        <ele>431.20001220703</ele>
        <time>2010-10-24T11:45:46Z</time>
      </trkpt>
      <trkpt lat="44.10426" lon="3.12453">
        <ele>432</ele>
        <time>2010-10-24T11:45:50Z</time>
      </trkpt>
      <trkpt lat="44.10429" lon="3.12443">
        <ele>433.60000610352</ele>
        <time>2010-10-24T11:45:57Z</time>
      </trkpt>
      <trkpt lat="44.1043" lon="3.12438">
        <ele>434.39999389648</ele>
        <time>2010-10-24T11:46:01Z</time>
      </trkpt>
      <trkpt lat="44.10433" lon="3.1243">
        <ele>436</ele>
        <time>2010-10-24T11:46:09Z</time>
      </trkpt>
      <trkpt lat="44.1044" lon="3.12406">
        <ele>438.60000610352</ele>
        <time>2010-10-24T11:46:25Z</time>
      </trkpt>
      <trkpt lat="44.10447" lon="3.12382">
        <ele>441.79998779297</ele>
        <time>2010-10-24T11:46:41Z</time>
      </trkpt>
      <trkpt lat="44.10451" lon="3.12371">
        <ele>443.39999389648</ele>
        <time>2010-10-24T11:46:49Z</time>
      </trkpt>
      <trkpt lat="44.10454" lon="3.12359">
        <ele>445.79998779297</ele>
        <time>2010-10-24T11:46:58Z</time>
      </trkpt>
      <trkpt lat="44.10455" lon="3.12357">
        <ele>446</ele>
        <time>2010-10-24T11:46:59Z</time>
      </trkpt>
      <trkpt lat="44.10458" lon="3.12333">
        <ele>450.60000610352</ele>
        <time>2010-10-24T11:47:16Z</time>
      </trkpt>
      <trkpt lat="44.10462" lon="3.12306">
        <ele>453.60000610352</ele>
        <time>2010-10-24T11:47:25Z</time>
      </trkpt>
      <trkpt lat="44.1047" lon="3.12282">
        <ele>458</ele>
        <time>2010-10-24T11:47:39Z</time>
      </trkpt>
      <trkpt lat="44.10472" lon="3.12276">
        <ele>459.20001220703</ele>
        <time>2010-10-24T11:47:43Z</time>
      </trkpt>
      <trkpt lat="44.1048" lon="3.12261">
        <ele>461.39999389648</ele>
        <time>2010-10-24T11:47:55Z</time>
      </trkpt>
      <trkpt lat="44.10484" lon="3.12238">
        <ele>463.39999389648</ele>
        <time>2010-10-24T11:48:09Z</time>
      </trkpt>
      <trkpt lat="44.10488" lon="3.12213">
        <ele>464.60000610352</ele>
        <time>2010-10-24T11:48:23Z</time>
      </trkpt>
      <trkpt lat="44.10487" lon="3.12203">
        <ele>465.39999389648</ele>
        <time>2010-10-24T11:48:28Z</time>
      </trkpt>
      <trkpt lat="44.10488" lon="3.12195">
        <ele>466</ele>
        <time>2010-10-24T11:48:32Z</time>
      </trkpt>
      <trkpt lat="44.10489" lon="3.12188">
        <ele>466.60000610352</ele>
        <time>2010-10-24T11:48:36Z</time>
      </trkpt>
      <trkpt lat="44.10489" lon="3.12187">
        <ele>466.79998779297</ele>
        <time>2010-10-24T11:48:37Z</time>
      </trkpt>
      <trkpt lat="44.1049" lon="3.12162">
        <ele>468.60000610352</ele>
        <time>2010-10-24T11:48:50Z</time>
      </trkpt>
      <trkpt lat="44.1049" lon="3.12136">
        <ele>469.79998779297</ele>
        <time>2010-10-24T11:48:59Z</time>
      </trkpt>
      <trkpt lat="44.10492" lon="3.12116">
        <ele>471.60000610352</ele>
        <time>2010-10-24T11:49:08Z</time>
      </trkpt>
      <trkpt lat="44.10493" lon="3.1211">
        <ele>472</ele>
        <time>2010-10-24T11:49:13Z</time>
      </trkpt>
      <trkpt lat="44.10495" lon="3.12109">
        <ele>472.20001220703</ele>
        <time>2010-10-24T11:49:15Z</time>
      </trkpt>
      <trkpt lat="44.10497" lon="3.12105">
        <ele>472.60000610352</ele>
        <time>2010-10-24T11:49:18Z</time>
      </trkpt>
      <trkpt lat="44.10503" lon="3.1209">
        <ele>474.60000610352</ele>
        <time>2010-10-24T11:49:35Z</time>
      </trkpt>
      <trkpt lat="44.10503" lon="3.12089">
        <ele>474.79998779297</ele>
        <time>2010-10-24T11:49:36Z</time>
      </trkpt>
      <trkpt lat="44.10503" lon="3.12085">
        <ele>475.60000610352</ele>
        <time>2010-10-24T11:49:39Z</time>
      </trkpt>
      <trkpt lat="44.105" lon="3.12065">
        <ele>478.20001220703</ele>
        <time>2010-10-24T11:49:52Z</time>
      </trkpt>
      <trkpt lat="44.105" lon="3.1206">
        <ele>479</ele>
        <time>2010-10-24T11:49:55Z</time>
      </trkpt>
      <trkpt lat="44.105" lon="3.12048">
        <ele>481</ele>
        <time>2010-10-24T11:50:04Z</time>
      </trkpt>
      <trkpt lat="44.10499" lon="3.12039">
        <ele>482</ele>
        <time>2010-10-24T11:50:09Z</time>
      </trkpt>
      <trkpt lat="44.10498" lon="3.12024">
        <ele>483.39999389648</ele>
        <time>2010-10-24T11:50:17Z</time>
      </trkpt>
      <trkpt lat="44.105" lon="3.12017">
        <ele>484.39999389648</ele>
        <time>2010-10-24T11:50:22Z</time>
      </trkpt>
      <trkpt lat="44.105" lon="3.12015">
        <ele>484.60000610352</ele>
        <time>2010-10-24T11:50:23Z</time>
      </trkpt>
      <trkpt lat="44.10505" lon="3.12009">
        <ele>485.60000610352</ele>
        <time>2010-10-24T11:50:28Z</time>
      </trkpt>
      <trkpt lat="44.10506" lon="3.12008">
        <ele>485.79998779297</ele>
        <time>2010-10-24T11:50:30Z</time>
      </trkpt>
      <trkpt lat="44.10513" lon="3.12004">
        <ele>487.20001220703</ele>
        <time>2010-10-24T11:50:37Z</time>
      </trkpt>
      <trkpt lat="44.10514" lon="3.12">
        <ele>487.39999389648</ele>
        <time>2010-10-24T11:50:41Z</time>
      </trkpt>
      <trkpt lat="44.10516" lon="3.11989">
        <ele>488.39999389648</ele>
        <time>2010-10-24T11:50:48Z</time>
      </trkpt>
      <trkpt lat="44.10516" lon="3.11986">
        <ele>488.60000610352</ele>
        <time>2010-10-24T11:50:51Z</time>
      </trkpt>
      <trkpt lat="44.10511" lon="3.11976">
        <ele>490.39999389648</ele>
        <time>2010-10-24T11:50:58Z</time>
      </trkpt>
      <trkpt lat="44.10509" lon="3.11969">
        <ele>492</ele>
        <time>2010-10-24T11:51:04Z</time>
      </trkpt>
      <trkpt lat="44.10509" lon="3.11956">
        <ele>497.60000610352</ele>
        <time>2010-10-24T11:51:24Z</time>
      </trkpt>
      <trkpt lat="44.10509" lon="3.11933">
        <ele>507.39999389648</ele>
        <time>2010-10-24T11:51:56Z</time>
      </trkpt>
      <trkpt lat="44.10512" lon="3.11912">
        <ele>516.79998779297</ele>
        <time>2010-10-24T11:52:28Z</time>
      </trkpt>
      <trkpt lat="44.10511" lon="3.11887">
        <ele>523.40002441406</ele>
        <time>2010-10-24T11:52:52Z</time>
      </trkpt>
      <trkpt lat="44.10511" lon="3.11886">
        <ele>523.59997558594</ele>
        <time>2010-10-24T11:52:53Z</time>
      </trkpt>
      <trkpt lat="44.10514" lon="3.11862">
        <ele>529</ele>
        <time>2010-10-24T11:53:13Z</time>
      </trkpt>
      <trkpt lat="44.10511" lon="3.11837">
        <ele>532</ele>
        <time>2010-10-24T11:53:28Z</time>
      </trkpt>
      <trkpt lat="44.1051" lon="3.11826">
        <ele>533</ele>
        <time>2010-10-24T11:53:35Z</time>
      </trkpt>
      <trkpt lat="44.10519" lon="3.11819">
        <ele>533.79998779297</ele>
        <time>2010-10-24T11:53:43Z</time>
      </trkpt>
      <trkpt lat="44.10519" lon="3.11795">
        <ele>535</ele>
        <time>2010-10-24T11:53:57Z</time>
      </trkpt>
      <trkpt lat="44.10514" lon="3.11787">
        <ele>535.79998779297</ele>
        <time>2010-10-24T11:54:04Z</time>
      </trkpt>
      <trkpt lat="44.10512" lon="3.11777">
        <ele>536.59997558594</ele>
        <time>2010-10-24T11:54:11Z</time>
      </trkpt>
      <trkpt lat="44.10511" lon="3.11774">
        <ele>536.79998779297</ele>
        <time>2010-10-24T11:54:13Z</time>
      </trkpt>
      <trkpt lat="44.10511" lon="3.1177">
        <ele>537</ele>
        <time>2010-10-24T11:54:15Z</time>
      </trkpt>
      <trkpt lat="44.10506" lon="3.11752">
        <ele>538.59997558594</ele>
        <time>2010-10-24T11:54:28Z</time>
      </trkpt>
      <trkpt lat="44.10508" lon="3.1175">
        <ele>538.59997558594</ele>
        <time>2010-10-24T11:54:30Z</time>
      </trkpt>
      <trkpt lat="44.10511" lon="3.11746">
        <ele>538.79998779297</ele>
        <time>2010-10-24T11:54:33Z</time>
      </trkpt>
      <trkpt lat="44.10514" lon="3.11731">
        <ele>539</ele>
        <time>2010-10-24T11:54:44Z</time>
      </trkpt>
      <trkpt lat="44.10516" lon="3.11726">
        <ele>539</ele>
        <time>2010-10-24T11:54:48Z</time>
      </trkpt>
      <trkpt lat="44.10507" lon="3.11711">
        <ele>539.40002441406</ele>
        <time>2010-10-24T11:54:58Z</time>
      </trkpt>
      <trkpt lat="44.10507" lon="3.1171">
        <ele>539.40002441406</ele>
        <time>2010-10-24T11:54:59Z</time>
      </trkpt>
      <trkpt lat="44.10505" lon="3.11704">
        <ele>539.59997558594</ele>
        <time>2010-10-24T11:55:03Z</time>
      </trkpt>
      <trkpt lat="44.10495" lon="3.1169">
        <ele>541</ele>
        <time>2010-10-24T11:55:16Z</time>
      </trkpt>
      <trkpt lat="44.10494" lon="3.11689">
        <ele>541.20001220703</ele>
        <time>2010-10-24T11:55:17Z</time>
      </trkpt>
      <trkpt lat="44.10489" lon="3.1168">
        <ele>542.20001220703</ele>
        <time>2010-10-24T11:55:23Z</time>
      </trkpt>
      <trkpt lat="44.1049" lon="3.11676">
        <ele>542.79998779297</ele>
        <time>2010-10-24T11:55:26Z</time>
      </trkpt>
      <trkpt lat="44.10494" lon="3.1167">
        <ele>543.59997558594</ele>
        <time>2010-10-24T11:55:32Z</time>
      </trkpt>
      <trkpt lat="44.10492" lon="3.11645">
        <ele>544.79998779297</ele>
        <time>2010-10-24T11:55:43Z</time>
      </trkpt>
      <trkpt lat="44.1049" lon="3.1164">
        <ele>545.20001220703</ele>
        <time>2010-10-24T11:55:45Z</time>
      </trkpt>
      <trkpt lat="44.10489" lon="3.11635">
        <ele>545.59997558594</ele>
        <time>2010-10-24T11:55:48Z</time>
      </trkpt>
      <trkpt lat="44.10487" lon="3.1162">
        <ele>547</ele>
        <time>2010-10-24T11:55:58Z</time>
      </trkpt>
      <trkpt lat="44.10479" lon="3.11599">
        <ele>548.20001220703</ele>
        <time>2010-10-24T11:56:11Z</time>
      </trkpt>
      <trkpt lat="44.10479" lon="3.11597">
        <ele>548.20001220703</ele>
        <time>2010-10-24T11:56:12Z</time>
      </trkpt>
      <trkpt lat="44.10479" lon="3.11585">
        <ele>549.40002441406</ele>
        <time>2010-10-24T11:56:20Z</time>
      </trkpt>
      <trkpt lat="44.10479" lon="3.11573">
        <ele>550.79998779297</ele>
        <time>2010-10-24T11:56:28Z</time>
      </trkpt>
      <trkpt lat="44.10479" lon="3.11571">
        <ele>551</ele>
        <time>2010-10-24T11:56:29Z</time>
      </trkpt>
      <trkpt lat="44.10479" lon="3.1157">
        <ele>551.20001220703</ele>
        <time>2010-10-24T11:56:30Z</time>
      </trkpt>
      <trkpt lat="44.10479" lon="3.11546">
        <ele>554</ele>
        <time>2010-10-24T11:56:44Z</time>
      </trkpt>
      <trkpt lat="44.10481" lon="3.11541">
        <ele>554.59997558594</ele>
        <time>2010-10-24T11:56:47Z</time>
      </trkpt>
      <trkpt lat="44.10482" lon="3.11536">
        <ele>555.20001220703</ele>
        <time>2010-10-24T11:56:51Z</time>
      </trkpt>
      <trkpt lat="44.10484" lon="3.11536">
        <ele>555.79998779297</ele>
        <time>2010-10-24T11:56:54Z</time>
      </trkpt>
      <trkpt lat="44.10486" lon="3.11531">
        <ele>556.59997558594</ele>
        <time>2010-10-24T11:56:59Z</time>
      </trkpt>
      <trkpt lat="44.10489" lon="3.11526">
        <ele>557.20001220703</ele>
        <time>2010-10-24T11:57:04Z</time>
      </trkpt>
      <trkpt lat="44.10492" lon="3.11521">
        <ele>558</ele>
        <time>2010-10-24T11:57:11Z</time>
      </trkpt>
      <trkpt lat="44.10499" lon="3.11506">
        <ele>562.20001220703</ele>
        <time>2010-10-24T11:57:34Z</time>
      </trkpt>
      <trkpt lat="44.105" lon="3.115">
        <ele>562.79998779297</ele>
        <time>2010-10-24T11:57:38Z</time>
      </trkpt>
      <trkpt lat="44.10502" lon="3.11488">
        <ele>564.40002441406</ele>
        <time>2010-10-24T11:57:48Z</time>
      </trkpt>
      <trkpt lat="44.10502" lon="3.11487">
        <ele>564.59997558594</ele>
        <time>2010-10-24T11:57:49Z</time>
      </trkpt>
      <trkpt lat="44.10504" lon="3.11482">
        <ele>565.59997558594</ele>
        <time>2010-10-24T11:57:56Z</time>
      </trkpt>
      <trkpt lat="44.10506" lon="3.11475">
        <ele>566.40002441406</ele>
        <time>2010-10-24T11:58:02Z</time>
      </trkpt>
      <trkpt lat="44.10511" lon="3.11459">
        <ele>568.40002441406</ele>
        <time>2010-10-24T11:58:16Z</time>
      </trkpt>
      <trkpt lat="44.10514" lon="3.11453">
        <ele>569.20001220703</ele>
        <time>2010-10-24T11:58:21Z</time>
      </trkpt>
      <trkpt lat="44.10516" lon="3.11449">
        <ele>570</ele>
        <time>2010-10-24T11:58:25Z</time>
      </trkpt>
      <trkpt lat="44.10518" lon="3.11442">
        <ele>570.59997558594</ele>
        <time>2010-10-24T11:58:29Z</time>
      </trkpt>
      <trkpt lat="44.1052" lon="3.11436">
        <ele>571</ele>
        <time>2010-10-24T11:58:32Z</time>
      </trkpt>
      <trkpt lat="44.10521" lon="3.11434">
        <ele>571</ele>
        <time>2010-10-24T11:58:33Z</time>
      </trkpt>
      <trkpt lat="44.10525" lon="3.1143">
        <ele>572.20001220703</ele>
        <time>2010-10-24T11:58:38Z</time>
      </trkpt>
      <trkpt lat="44.10525" lon="3.1143">
        <ele>572.40002441406</ele>
        <time>2010-10-24T11:58:39Z</time>
      </trkpt>
      <trkpt lat="44.10527" lon="3.11424">
        <ele>573</ele>
        <time>2010-10-24T11:58:43Z</time>
      </trkpt>
      <trkpt lat="44.1053" lon="3.11414">
        <ele>573.59997558594</ele>
        <time>2010-10-24T11:58:49Z</time>
      </trkpt>
      <trkpt lat="44.10531" lon="3.11412">
        <ele>573.59997558594</ele>
        <time>2010-10-24T11:58:50Z</time>
      </trkpt>
      <trkpt lat="44.10541" lon="3.11399">
        <ele>573.79998779297</ele>
        <time>2010-10-24T11:58:59Z</time>
      </trkpt>
      <trkpt lat="44.10542" lon="3.11395">
        <ele>573.79998779297</ele>
        <time>2010-10-24T11:59:02Z</time>
      </trkpt>
      <trkpt lat="44.10543" lon="3.1139">
        <ele>573.59997558594</ele>
        <time>2010-10-24T11:59:05Z</time>
      </trkpt>
      <trkpt lat="44.10544" lon="3.11386">
        <ele>573.40002441406</ele>
        <time>2010-10-24T11:59:07Z</time>
      </trkpt>
      <trkpt lat="44.10543" lon="3.11383">
        <ele>573.40002441406</ele>
        <time>2010-10-24T11:59:09Z</time>
      </trkpt>
      <trkpt lat="44.10549" lon="3.11377">
        <ele>573.20001220703</ele>
        <time>2010-10-24T11:59:13Z</time>
      </trkpt>
      <trkpt lat="44.10551" lon="3.11375">
        <ele>573</ele>
        <time>2010-10-24T11:59:14Z</time>
      </trkpt>
      <trkpt lat="44.10557" lon="3.1137">
        <ele>572.79998779297</ele>
        <time>2010-10-24T11:59:18Z</time>
      </trkpt>
      <trkpt lat="44.10562" lon="3.11361">
        <ele>572.59997558594</ele>
        <time>2010-10-24T11:59:22Z</time>
      </trkpt>
      <trkpt lat="44.10563" lon="3.11356">
        <ele>572.59997558594</ele>
        <time>2010-10-24T11:59:24Z</time>
      </trkpt>
      <trkpt lat="44.10567" lon="3.11347">
        <ele>572.40002441406</ele>
        <time>2010-10-24T11:59:28Z</time>
      </trkpt>
      <trkpt lat="44.10573" lon="3.11333">
        <ele>571.79998779297</ele>
        <time>2010-10-24T11:59:35Z</time>
      </trkpt>
      <trkpt lat="44.10574" lon="3.11331">
        <ele>571.79998779297</ele>
        <time>2010-10-24T11:59:36Z</time>
      </trkpt>
      <trkpt lat="44.1058" lon="3.11319">
        <ele>571.20001220703</ele>
        <time>2010-10-24T11:59:42Z</time>
      </trkpt>
      <trkpt lat="44.10586" lon="3.11315">
        <ele>571</ele>
        <time>2010-10-24T11:59:45Z</time>
      </trkpt>
      <trkpt lat="44.10598" lon="3.11308">
        <ele>570.40002441406</ele>
        <time>2010-10-24T11:59:52Z</time>
      </trkpt>
      <trkpt lat="44.10601" lon="3.11301">
        <ele>570.20001220703</ele>
        <time>2010-10-24T11:59:55Z</time>
      </trkpt>
      <trkpt lat="44.10616" lon="3.11287">
        <ele>569.59997558594</ele>
        <time>2010-10-24T12:00:07Z</time>
      </trkpt>
      <trkpt lat="44.10619" lon="3.11288">
        <ele>569.20001220703</ele>
        <time>2010-10-24T12:00:09Z</time>
      </trkpt>
      <trkpt lat="44.10622" lon="3.11282">
        <ele>568.59997558594</ele>
        <time>2010-10-24T12:00:14Z</time>
      </trkpt>
      <trkpt lat="44.10624" lon="3.11271">
        <ele>567</ele>
        <time>2010-10-24T12:00:22Z</time>
      </trkpt>
      <trkpt lat="44.10624" lon="3.1127">
        <ele>566.79998779297</ele>
        <time>2010-10-24T12:00:23Z</time>
      </trkpt>
      <trkpt lat="44.10624" lon="3.11268">
        <ele>566.59997558594</ele>
        <time>2010-10-24T12:00:24Z</time>
      </trkpt>
      <trkpt lat="44.10624" lon="3.11259">
        <ele>565.40002441406</ele>
        <time>2010-10-24T12:00:29Z</time>
      </trkpt>
      <trkpt lat="44.10628" lon="3.11255">
        <ele>564.59997558594</ele>
        <time>2010-10-24T12:00:32Z</time>
      </trkpt>
      <trkpt lat="44.1063" lon="3.11253">
        <ele>563.59997558594</ele>
        <time>2010-10-24T12:00:37Z</time>
      </trkpt>
      <trkpt lat="44.10632" lon="3.11251">
        <ele>563.20001220703</ele>
        <time>2010-10-24T12:00:40Z</time>
      </trkpt>
      <trkpt lat="44.10634" lon="3.11252">
        <ele>562.79998779297</ele>
        <time>2010-10-24T12:00:42Z</time>
      </trkpt>
      <trkpt lat="44.10639" lon="3.11252">
        <ele>561.79998779297</ele>
        <time>2010-10-24T12:00:47Z</time>
      </trkpt>
      <trkpt lat="44.10651" lon="3.11249">
        <ele>559.79998779297</ele>
        <time>2010-10-24T12:01:02Z</time>
      </trkpt>
      <trkpt lat="44.10652" lon="3.11248">
        <ele>559.59997558594</ele>
        <time>2010-10-24T12:01:04Z</time>
      </trkpt>
      <trkpt lat="44.10655" lon="3.11248">
        <ele>559.20001220703</ele>
        <time>2010-10-24T12:01:07Z</time>
      </trkpt>
      <trkpt lat="44.10666" lon="3.11245">
        <ele>558.20001220703</ele>
        <time>2010-10-24T12:01:17Z</time>
      </trkpt>
      <trkpt lat="44.10668" lon="3.11245">
        <ele>557.79998779297</ele>
        <time>2010-10-24T12:01:20Z</time>
      </trkpt>
      <trkpt lat="44.10678" lon="3.1124">
        <ele>556.40002441406</ele>
        <time>2010-10-24T12:01:34Z</time>
      </trkpt>
      <trkpt lat="44.10686" lon="3.11236">
        <ele>555.79998779297</ele>
        <time>2010-10-24T12:01:45Z</time>
      </trkpt>
      <trkpt lat="44.10704" lon="3.11238">
        <ele>557.40002441406</ele>
        <time>2010-10-24T12:02:11Z</time>
      </trkpt>
      <trkpt lat="44.1072" lon="3.11239">
        <ele>566</ele>
        <time>2010-10-24T12:02:42Z</time>
      </trkpt>
      <trkpt lat="44.10721" lon="3.11239">
        <ele>566</ele>
        <time>2010-10-24T12:02:43Z</time>
      </trkpt>
      <trkpt lat="44.10725" lon="3.1124">
        <ele>566.40002441406</ele>
        <time>2010-10-24T12:02:47Z</time>
      </trkpt>
      <trkpt lat="44.1074" lon="3.11236">
        <ele>571</ele>
        <time>2010-10-24T12:03:10Z</time>
      </trkpt>
      <trkpt lat="44.10751" lon="3.1124">
        <ele>577.59997558594</ele>
        <time>2010-10-24T12:03:31Z</time>
      </trkpt>
      <trkpt lat="44.10757" lon="3.11243">
        <ele>579.59997558594</ele>
        <time>2010-10-24T12:03:37Z</time>
      </trkpt>
      <trkpt lat="44.10773" lon="3.11239">
        <ele>588.59997558594</ele>
        <time>2010-10-24T12:04:03Z</time>
      </trkpt>
      <trkpt lat="44.10791" lon="3.11244">
        <ele>592.40002441406</ele>
        <time>2010-10-24T12:04:27Z</time>
      </trkpt>
      <trkpt lat="44.10809" lon="3.11238">
        <ele>598.40002441406</ele>
        <time>2010-10-24T12:04:55Z</time>
      </trkpt>
      <trkpt lat="44.10809" lon="3.11237">
        <ele>598.40002441406</ele>
        <time>2010-10-24T12:04:56Z</time>
      </trkpt>
      <trkpt lat="44.10809" lon="3.11232">
        <ele>599.40002441406</ele>
        <time>2010-10-24T12:04:59Z</time>
      </trkpt>
      <trkpt lat="44.10812" lon="3.11231">
        <ele>601.20001220703</ele>
        <time>2010-10-24T12:05:04Z</time>
      </trkpt>
      <trkpt lat="44.10818" lon="3.11232">
        <ele>605.40002441406</ele>
        <time>2010-10-24T12:05:15Z</time>
      </trkpt>
      <trkpt lat="44.10826" lon="3.11238">
        <ele>610.20001220703</ele>
        <time>2010-10-24T12:05:26Z</time>
      </trkpt>
      <trkpt lat="44.10846" lon="3.11251">
        <ele>615.40002441406</ele>
        <time>2010-10-24T12:05:57Z</time>
      </trkpt>
      <trkpt lat="44.10855" lon="3.11247">
        <ele>619.20001220703</ele>
        <time>2010-10-24T12:06:15Z</time>
      </trkpt>
      <trkpt lat="44.1086" lon="3.11245">
        <ele>621</ele>
        <time>2010-10-24T12:06:27Z</time>
      </trkpt>
      <trkpt lat="44.10867" lon="3.11253">
        <ele>622.59997558594</ele>
        <time>2010-10-24T12:06:36Z</time>
      </trkpt>
      <trkpt lat="44.10854" lon="3.11263">
        <ele>645.79998779297</ele>
        <time>2010-10-24T12:07:03Z</time>
      </trkpt>
      <trkpt lat="44.10866" lon="3.11254">
        <ele>665.59997558594</ele>
        <time>2010-10-24T12:07:18Z</time>
      </trkpt>
      <trkpt lat="44.10868" lon="3.11253">
        <ele>668.20001220703</ele>
        <time>2010-10-24T12:07:20Z</time>
      </trkpt>
      <trkpt lat="44.10873" lon="3.11251">
        <ele>679.79998779297</ele>
        <time>2010-10-24T12:07:30Z</time>
      </trkpt>
      <trkpt lat="44.10881" lon="3.11256">
        <ele>681</ele>
        <time>2010-10-24T12:07:33Z</time>
      </trkpt>
      <trkpt lat="44.10887" lon="3.11265">
        <ele>686</ele>
        <time>2010-10-24T12:07:57Z</time>
      </trkpt>
      <trkpt lat="44.10885" lon="3.11265">
        <ele>689.20001220703</ele>
        <time>2010-10-24T12:08:01Z</time>
      </trkpt>
      <trkpt lat="44.10905" lon="3.11281">
        <ele>708.40002441406</ele>
        <time>2010-10-24T12:08:51Z</time>
      </trkpt>
      <trkpt lat="44.1091" lon="3.11282">
        <ele>712.20001220703</ele>
        <time>2010-10-24T12:09:20Z</time>
      </trkpt>
      <trkpt lat="44.10915" lon="3.11267">
        <ele>719.59997558594</ele>
        <time>2010-10-24T12:09:36Z</time>
      </trkpt>
      <trkpt lat="44.10934" lon="3.11284">
        <ele>716.59997558594</ele>
        <time>2010-10-24T12:09:54Z</time>
      </trkpt>
      <trkpt lat="44.10941" lon="3.11279">
        <ele>712.79998779297</ele>
        <time>2010-10-24T12:10:04Z</time>
      </trkpt>
      <trkpt lat="44.10958" lon="3.1127">
        <ele>704.59997558594</ele>
        <time>2010-10-24T12:10:33Z</time>
      </trkpt>
      <trkpt lat="44.10973" lon="3.11269">
        <ele>700.59997558594</ele>
        <time>2010-10-24T12:10:56Z</time>
      </trkpt>
      <trkpt lat="44.10975" lon="3.11267">
        <ele>700.40002441406</ele>
        <time>2010-10-24T12:10:58Z</time>
      </trkpt>
      <trkpt lat="44.10978" lon="3.11263">
        <ele>699.79998779297</ele>
        <time>2010-10-24T12:11:02Z</time>
      </trkpt>
      <trkpt lat="44.10986" lon="3.11255">
        <ele>698.59997558594</ele>
        <time>2010-10-24T12:11:14Z</time>
      </trkpt>
      <trkpt lat="44.1099" lon="3.11252">
        <ele>698.40002441406</ele>
        <time>2010-10-24T12:11:19Z</time>
      </trkpt>
      <trkpt lat="44.10991" lon="3.11249">
        <ele>698.40002441406</ele>
        <time>2010-10-24T12:11:23Z</time>
      </trkpt>
      <trkpt lat="44.10998" lon="3.11247">
        <ele>698.79998779297</ele>
        <time>2010-10-24T12:11:32Z</time>
      </trkpt>
      <trkpt lat="44.11002" lon="3.11242">
        <ele>698.59997558594</ele>
        <time>2010-10-24T12:11:37Z</time>
      </trkpt>
      <trkpt lat="44.11008" lon="3.11242">
        <ele>699</ele>
        <time>2010-10-24T12:11:44Z</time>
      </trkpt>
      <trkpt lat="44.1101" lon="3.11241">
        <ele>699.20001220703</ele>
        <time>2010-10-24T12:11:46Z</time>
      </trkpt>
      <trkpt lat="44.11017" lon="3.11238">
        <ele>700</ele>
        <time>2010-10-24T12:11:54Z</time>
      </trkpt>
      <trkpt lat="44.1102" lon="3.11235">
        <ele>700.40002441406</ele>
        <time>2010-10-24T12:11:59Z</time>
      </trkpt>
      <trkpt lat="44.11024" lon="3.11232">
        <ele>700.79998779297</ele>
        <time>2010-10-24T12:12:04Z</time>
      </trkpt>
      <trkpt lat="44.11026" lon="3.1123">
        <ele>701</ele>
        <time>2010-10-24T12:12:07Z</time>
      </trkpt>
      <trkpt lat="44.11027" lon="3.11229">
        <ele>701</ele>
        <time>2010-10-24T12:12:08Z</time>
      </trkpt>
      <trkpt lat="44.11029" lon="3.11227">
        <ele>700.79998779297</ele>
        <time>2010-10-24T12:12:10Z</time>
      </trkpt>
      <trkpt lat="44.11031" lon="3.11224">
        <ele>701</ele>
        <time>2010-10-24T12:12:13Z</time>
      </trkpt>
      <trkpt lat="44.11036" lon="3.11223">
        <ele>700.79998779297</ele>
        <time>2010-10-24T12:12:17Z</time>
      </trkpt>
      <trkpt lat="44.11039" lon="3.11222">
        <ele>700.79998779297</ele>
        <time>2010-10-24T12:12:20Z</time>
      </trkpt>
      <trkpt lat="44.11046" lon="3.11219">
        <ele>700.59997558594</ele>
        <time>2010-10-24T12:12:26Z</time>
      </trkpt>
      <trkpt lat="44.11047" lon="3.11218">
        <ele>700.59997558594</ele>
        <time>2010-10-24T12:12:28Z</time>
      </trkpt>
      <trkpt lat="44.1106" lon="3.11217">
        <ele>700.59997558594</ele>
        <time>2010-10-24T12:12:37Z</time>
      </trkpt>
      <trkpt lat="44.11061" lon="3.11211">
        <ele>700.79998779297</ele>
        <time>2010-10-24T12:12:42Z</time>
      </trkpt>
      <trkpt lat="44.11061" lon="3.11202">
        <ele>703.20001220703</ele>
        <time>2010-10-24T12:12:50Z</time>
      </trkpt>
      <trkpt lat="44.11062" lon="3.11198">
        <ele>704.20001220703</ele>
        <time>2010-10-24T12:12:54Z</time>
      </trkpt>
      <trkpt lat="44.11064" lon="3.11197">
        <ele>705.40002441406</ele>
        <time>2010-10-24T12:12:57Z</time>
      </trkpt>
      <trkpt lat="44.11066" lon="3.11195">
        <ele>707.40002441406</ele>
        <time>2010-10-24T12:13:01Z</time>
      </trkpt>
      <trkpt lat="44.11069" lon="3.11193">
        <ele>708.59997558594</ele>
        <time>2010-10-24T12:13:04Z</time>
      </trkpt>
      <trkpt lat="44.11072" lon="3.1119">
        <ele>710.40002441406</ele>
        <time>2010-10-24T12:13:08Z</time>
      </trkpt>
      <trkpt lat="44.11077" lon="3.11182">
        <ele>715</ele>
        <time>2010-10-24T12:13:18Z</time>
      </trkpt>
      <trkpt lat="44.11082" lon="3.11183">
        <ele>716</ele>
        <time>2010-10-24T12:13:21Z</time>
      </trkpt>
      <trkpt lat="44.11088" lon="3.11184">
        <ele>716.59997558594</ele>
        <time>2010-10-24T12:13:24Z</time>
      </trkpt>
      <trkpt lat="44.11091" lon="3.11182">
        <ele>717</ele>
        <time>2010-10-24T12:13:27Z</time>
      </trkpt>
      <trkpt lat="44.11093" lon="3.11178">
        <ele>717.20001220703</ele>
        <time>2010-10-24T12:13:30Z</time>
      </trkpt>
      <trkpt lat="44.11095" lon="3.11174">
        <ele>717.20001220703</ele>
        <time>2010-10-24T12:13:35Z</time>
      </trkpt>
      <trkpt lat="44.11097" lon="3.11175">
        <ele>718</ele>
        <time>2010-10-24T12:13:37Z</time>
      </trkpt>
      <trkpt lat="44.11102" lon="3.11174">
        <ele>720</ele>
        <time>2010-10-24T12:13:44Z</time>
      </trkpt>
      <trkpt lat="44.1111" lon="3.11176">
        <ele>721.79998779297</ele>
        <time>2010-10-24T12:13:51Z</time>
      </trkpt>
      <trkpt lat="44.11113" lon="3.11173">
        <ele>724.79998779297</ele>
        <time>2010-10-24T12:13:59Z</time>
      </trkpt>
      <trkpt lat="44.11121" lon="3.11174">
        <ele>728</ele>
        <time>2010-10-24T12:14:09Z</time>
      </trkpt>
      <trkpt lat="44.11123" lon="3.11173">
        <ele>728.40002441406</ele>
        <time>2010-10-24T12:14:11Z</time>
      </trkpt>
      <trkpt lat="44.11124" lon="3.11172">
        <ele>728.79998779297</ele>
        <time>2010-10-24T12:14:12Z</time>
      </trkpt>
      <trkpt lat="44.11127" lon="3.11172">
        <ele>729</ele>
        <time>2010-10-24T12:14:15Z</time>
      </trkpt>
      <trkpt lat="44.11134" lon="3.11176">
        <ele>728.79998779297</ele>
        <time>2010-10-24T12:14:20Z</time>
      </trkpt>
      <trkpt lat="44.11142" lon="3.11176">
        <ele>728.79998779297</ele>
        <time>2010-10-24T12:14:30Z</time>
      </trkpt>
      <trkpt lat="44.11155" lon="3.11187">
        <ele>732.79998779297</ele>
        <time>2010-10-24T12:14:49Z</time>
      </trkpt>
      <trkpt lat="44.11159" lon="3.1119">
        <ele>733.40002441406</ele>
        <time>2010-10-24T12:14:55Z</time>
      </trkpt>
      <trkpt lat="44.11163" lon="3.11194">
        <ele>736</ele>
        <time>2010-10-24T12:15:04Z</time>
      </trkpt>
      <trkpt lat="44.11164" lon="3.11193">
        <ele>738.20001220703</ele>
        <time>2010-10-24T12:15:09Z</time>
      </trkpt>
      <trkpt lat="44.11176" lon="3.11194">
        <ele>743.40002441406</ele>
        <time>2010-10-24T12:15:22Z</time>
      </trkpt>
      <trkpt lat="44.11177" lon="3.11195">
        <ele>744</ele>
        <time>2010-10-24T12:15:23Z</time>
      </trkpt>
      <trkpt lat="44.1118" lon="3.11195">
        <ele>744.40002441406</ele>
        <time>2010-10-24T12:15:25Z</time>
      </trkpt>
      <trkpt lat="44.11186" lon="3.11197">
        <ele>745.79998779297</ele>
        <time>2010-10-24T12:15:31Z</time>
      </trkpt>
      <trkpt lat="44.11189" lon="3.112">
        <ele>746.40002441406</ele>
        <time>2010-10-24T12:15:35Z</time>
      </trkpt>
      <trkpt lat="44.11195" lon="3.11205">
        <ele>747.40002441406</ele>
        <time>2010-10-24T12:15:43Z</time>
      </trkpt>
      <trkpt lat="44.11201" lon="3.11206">
        <ele>747.79998779297</ele>
        <time>2010-10-24T12:15:48Z</time>
      </trkpt>
      <trkpt lat="44.11211" lon="3.11209">
        <ele>748.20001220703</ele>
        <time>2010-10-24T12:16:00Z</time>
      </trkpt>
      <trkpt lat="44.11214" lon="3.11211">
        <ele>748.40002441406</ele>
        <time>2010-10-24T12:16:03Z</time>
      </trkpt>
      <trkpt lat="44.11219" lon="3.11215">
        <ele>748.40002441406</ele>
        <time>2010-10-24T12:16:06Z</time>
      </trkpt>
      <trkpt lat="44.1122" lon="3.11215">
        <ele>748.40002441406</ele>
        <time>2010-10-24T12:16:07Z</time>
      </trkpt>
      <trkpt lat="44.11219" lon="3.11215">
        <ele>749.20001220703</ele>
        <time>2010-10-24T12:16:12Z</time>
      </trkpt>
      <trkpt lat="44.11222" lon="3.11219">
        <ele>749.40002441406</ele>
        <time>2010-10-24T12:16:16Z</time>
      </trkpt>
      <trkpt lat="44.11228" lon="3.11226">
        <ele>750.20001220703</ele>
        <time>2010-10-24T12:16:24Z</time>
      </trkpt>
      <trkpt lat="44.11231" lon="3.11227">
        <ele>750.59997558594</ele>
        <time>2010-10-24T12:16:28Z</time>
      </trkpt>
      <trkpt lat="44.11243" lon="3.11232">
        <ele>750.40002441406</ele>
        <time>2010-10-24T12:16:37Z</time>
      </trkpt>
      <trkpt lat="44.11245" lon="3.11233">
        <ele>750.40002441406</ele>
        <time>2010-10-24T12:16:40Z</time>
      </trkpt>
      <trkpt lat="44.11252" lon="3.11233">
        <ele>751</ele>
        <time>2010-10-24T12:16:48Z</time>
      </trkpt>
      <trkpt lat="44.11258" lon="3.11232">
        <ele>752.59997558594</ele>
        <time>2010-10-24T12:16:54Z</time>
      </trkpt>
      <trkpt lat="44.1126" lon="3.11234">
        <ele>753.40002441406</ele>
        <time>2010-10-24T12:16:57Z</time>
      </trkpt>
      <trkpt lat="44.11264" lon="3.11236">
        <ele>754.20001220703</ele>
        <time>2010-10-24T12:17:01Z</time>
      </trkpt>
      <trkpt lat="44.11268" lon="3.11236">
        <ele>754.79998779297</ele>
        <time>2010-10-24T12:17:05Z</time>
      </trkpt>
      <trkpt lat="44.11278" lon="3.11238">
        <ele>758</ele>
        <time>2010-10-24T12:17:16Z</time>
      </trkpt>
      <trkpt lat="44.11283" lon="3.11239">
        <ele>759.40002441406</ele>
        <time>2010-10-24T12:17:20Z</time>
      </trkpt>
      <trkpt lat="44.11288" lon="3.11239">
        <ele>760.59997558594</ele>
        <time>2010-10-24T12:17:24Z</time>
      </trkpt>
      <trkpt lat="44.11296" lon="3.11236">
        <ele>762.79998779297</ele>
        <time>2010-10-24T12:17:31Z</time>
      </trkpt>
      <trkpt lat="44.11297" lon="3.11234">
        <ele>763.59997558594</ele>
        <time>2010-10-24T12:17:33Z</time>
      </trkpt>
      <trkpt lat="44.11303" lon="3.11237">
        <ele>764.79998779297</ele>
        <time>2010-10-24T12:17:37Z</time>
      </trkpt>
      <trkpt lat="44.11315" lon="3.11238">
        <ele>765.59997558594</ele>
        <time>2010-10-24T12:17:44Z</time>
      </trkpt>
      <trkpt lat="44.11319" lon="3.11238">
        <ele>766.40002441406</ele>
        <time>2010-10-24T12:17:49Z</time>
      </trkpt>
      <trkpt lat="44.11322" lon="3.11238">
        <ele>766.79998779297</ele>
        <time>2010-10-24T12:17:51Z</time>
      </trkpt>
      <trkpt lat="44.11338" lon="3.11237">
        <ele>766.40002441406</ele>
        <time>2010-10-24T12:18:04Z</time>
      </trkpt>
      <trkpt lat="44.1134" lon="3.11236">
        <ele>766.40002441406</ele>
        <time>2010-10-24T12:18:06Z</time>
      </trkpt>
      <trkpt lat="44.11353" lon="3.11234">
        <ele>767.40002441406</ele>
        <time>2010-10-24T12:18:18Z</time>
      </trkpt>
      <trkpt lat="44.11358" lon="3.11235">
        <ele>767.40002441406</ele>
        <time>2010-10-24T12:18:23Z</time>
      </trkpt>
      <trkpt lat="44.11377" lon="3.11226">
        <ele>772</ele>
        <time>2010-10-24T12:18:41Z</time>
      </trkpt>
      <trkpt lat="44.11385" lon="3.11222">
        <ele>773.40002441406</ele>
        <time>2010-10-24T12:18:47Z</time>
      </trkpt>
      <trkpt lat="44.1139" lon="3.11219">
        <ele>773.79998779297</ele>
        <time>2010-10-24T12:18:52Z</time>
      </trkpt>
      <trkpt lat="44.11393" lon="3.11217">
        <ele>774.20001220703</ele>
        <time>2010-10-24T12:18:54Z</time>
      </trkpt>
      <trkpt lat="44.11395" lon="3.11216">
        <ele>774.20001220703</ele>
        <time>2010-10-24T12:18:56Z</time>
      </trkpt>
      <trkpt lat="44.11407" lon="3.11211">
        <ele>775.59997558594</ele>
        <time>2010-10-24T12:19:07Z</time>
      </trkpt>
      <trkpt lat="44.11409" lon="3.11209">
        <ele>775.79998779297</ele>
        <time>2010-10-24T12:19:09Z</time>
      </trkpt>
      <trkpt lat="44.11411" lon="3.11205">
        <ele>776.59997558594</ele>
        <time>2010-10-24T12:19:12Z</time>
      </trkpt>
      <trkpt lat="44.11412" lon="3.11204">
        <ele>777</ele>
        <time>2010-10-24T12:19:13Z</time>
      </trkpt>
      <trkpt lat="44.11415" lon="3.11201">
        <ele>777.59997558594</ele>
        <time>2010-10-24T12:19:16Z</time>
      </trkpt>
      <trkpt lat="44.11428" lon="3.11197">
        <ele>780.59997558594</ele>
        <time>2010-10-24T12:19:26Z</time>
      </trkpt>
      <trkpt lat="44.11429" lon="3.11199">
        <ele>782</ele>
        <time>2010-10-24T12:19:29Z</time>
      </trkpt>
      <trkpt lat="44.11438" lon="3.11201">
        <ele>785.40002441406</ele>
        <time>2010-10-24T12:19:38Z</time>
      </trkpt>
      <trkpt lat="44.11443" lon="3.11202">
        <ele>786.79998779297</ele>
        <time>2010-10-24T12:19:42Z</time>
      </trkpt>
      <trkpt lat="44.11448" lon="3.11203">
        <ele>787.59997558594</ele>
        <time>2010-10-24T12:19:45Z</time>
      </trkpt>
      <trkpt lat="44.1145" lon="3.11201">
        <ele>788.40002441406</ele>
        <time>2010-10-24T12:19:47Z</time>
      </trkpt>
      <trkpt lat="44.11452" lon="3.11198">
        <ele>789.59997558594</ele>
        <time>2010-10-24T12:19:50Z</time>
      </trkpt>
      <trkpt lat="44.11461" lon="3.11195">
        <ele>792</ele>
        <time>2010-10-24T12:19:55Z</time>
      </trkpt>
      <trkpt lat="44.11462" lon="3.11194">
        <ele>792.40002441406</ele>
        <time>2010-10-24T12:19:56Z</time>
      </trkpt>
      <trkpt lat="44.11467" lon="3.11191">
        <ele>794.20001220703</ele>
        <time>2010-10-24T12:20:00Z</time>
      </trkpt>
      <trkpt lat="44.11475" lon="3.11178">
        <ele>797</ele>
        <time>2010-10-24T12:20:07Z</time>
      </trkpt>
      <trkpt lat="44.11477" lon="3.11174">
        <ele>797.79998779297</ele>
        <time>2010-10-24T12:20:09Z</time>
      </trkpt>
      <trkpt lat="44.11479" lon="3.11169">
        <ele>798.20001220703</ele>
        <time>2010-10-24T12:20:11Z</time>
      </trkpt>
      <trkpt lat="44.11485" lon="3.11158">
        <ele>799.20001220703</ele>
        <time>2010-10-24T12:20:16Z</time>
      </trkpt>
      <trkpt lat="44.11492" lon="3.11149">
        <ele>799.59997558594</ele>
        <time>2010-10-24T12:20:20Z</time>
      </trkpt>
      <trkpt lat="44.11495" lon="3.11144">
        <ele>799.40002441406</ele>
        <time>2010-10-24T12:20:22Z</time>
      </trkpt>
      <trkpt lat="44.11497" lon="3.11133">
        <ele>799.79998779297</ele>
        <time>2010-10-24T12:20:27Z</time>
      </trkpt>
      <trkpt lat="44.11497" lon="3.11131">
        <ele>799.79998779297</ele>
        <time>2010-10-24T12:20:28Z</time>
      </trkpt>
      <trkpt lat="44.11497" lon="3.11121">
        <ele>799.79998779297</ele>
        <time>2010-10-24T12:20:32Z</time>
      </trkpt>
      <trkpt lat="44.11496" lon="3.11119">
        <ele>799.79998779297</ele>
        <time>2010-10-24T12:20:33Z</time>
      </trkpt>
      <trkpt lat="44.11484" lon="3.11104">
        <ele>799.79998779297</ele>
        <time>2010-10-24T12:20:42Z</time>
      </trkpt>
      <trkpt lat="44.11481" lon="3.11103">
        <ele>799.59997558594</ele>
        <time>2010-10-24T12:20:44Z</time>
      </trkpt>
      <trkpt lat="44.11467" lon="3.11111">
        <ele>799.20001220703</ele>
        <time>2010-10-24T12:20:54Z</time>
      </trkpt>
      <trkpt lat="44.11451" lon="3.11124">
        <ele>798.40002441406</ele>
        <time>2010-10-24T12:21:03Z</time>
      </trkpt>
      <trkpt lat="44.11434" lon="3.11128">
        <ele>797.79998779297</ele>
        <time>2010-10-24T12:21:11Z</time>
      </trkpt>
      <trkpt lat="44.11432" lon="3.11129">
        <ele>797.79998779297</ele>
        <time>2010-10-24T12:21:12Z</time>
      </trkpt>
      <trkpt lat="44.11412" lon="3.11136">
        <ele>797.40002441406</ele>
        <time>2010-10-24T12:21:26Z</time>
      </trkpt>
      <trkpt lat="44.11402" lon="3.11134">
        <ele>797.79998779297</ele>
        <time>2010-10-24T12:21:40Z</time>
      </trkpt>
      <trkpt lat="44.11395" lon="3.11134">
        <ele>798</ele>
        <time>2010-10-24T12:21:44Z</time>
      </trkpt>
      <trkpt lat="44.1139" lon="3.11134">
        <ele>797.79998779297</ele>
        <time>2010-10-24T12:21:47Z</time>
      </trkpt>
      <trkpt lat="44.11381" lon="3.11132">
        <ele>797.79998779297</ele>
        <time>2010-10-24T12:21:52Z</time>
      </trkpt>
      <trkpt lat="44.11377" lon="3.1113">
        <ele>798</ele>
        <time>2010-10-24T12:21:55Z</time>
      </trkpt>
      <trkpt lat="44.11375" lon="3.11129">
        <ele>798</ele>
        <time>2010-10-24T12:21:56Z</time>
      </trkpt>
      <trkpt lat="44.11358" lon="3.11125">
        <ele>797.79998779297</ele>
        <time>2010-10-24T12:22:04Z</time>
      </trkpt>
      <trkpt lat="44.1134" lon="3.11118">
        <ele>798.40002441406</ele>
        <time>2010-10-24T12:22:14Z</time>
      </trkpt>
      <trkpt lat="44.11324" lon="3.11106">
        <ele>798.79998779297</ele>
        <time>2010-10-24T12:22:23Z</time>
      </trkpt>
      <trkpt lat="44.11308" lon="3.11096">
        <ele>799.59997558594</ele>
        <time>2010-10-24T12:22:32Z</time>
      </trkpt>
      <trkpt lat="44.11298" lon="3.1109">
        <ele>800</ele>
        <time>2010-10-24T12:22:37Z</time>
      </trkpt>
      <trkpt lat="44.1129" lon="3.11084">
        <ele>800.40002441406</ele>
        <time>2010-10-24T12:22:41Z</time>
      </trkpt>
      <trkpt lat="44.11274" lon="3.11072">
        <ele>801.40002441406</ele>
        <time>2010-10-24T12:22:50Z</time>
      </trkpt>
      <trkpt lat="44.11257" lon="3.11058">
        <ele>802.79998779297</ele>
        <time>2010-10-24T12:23:00Z</time>
      </trkpt>
      <trkpt lat="44.11244" lon="3.1104">
        <ele>802.79998779297</ele>
        <time>2010-10-24T12:23:09Z</time>
      </trkpt>
      <trkpt lat="44.11229" lon="3.11027">
        <ele>802.79998779297</ele>
        <time>2010-10-24T12:23:17Z</time>
      </trkpt>
      <trkpt lat="44.11212" lon="3.11013">
        <ele>802.59997558594</ele>
        <time>2010-10-24T12:23:25Z</time>
      </trkpt>
      <trkpt lat="44.11195" lon="3.11">
        <ele>802.20001220703</ele>
        <time>2010-10-24T12:23:34Z</time>
      </trkpt>
      <trkpt lat="44.11186" lon="3.10987">
        <ele>802</ele>
        <time>2010-10-24T12:23:41Z</time>
      </trkpt>
      <trkpt lat="44.11186" lon="3.1098">
        <ele>802</ele>
        <time>2010-10-24T12:23:48Z</time>
      </trkpt>
      <trkpt lat="44.11172" lon="3.10965">
        <ele>802.79998779297</ele>
        <time>2010-10-24T12:24:00Z</time>
      </trkpt>
      <trkpt lat="44.11155" lon="3.10957">
        <ele>804</ele>
        <time>2010-10-24T12:24:10Z</time>
      </trkpt>
      <trkpt lat="44.11137" lon="3.10952">
        <ele>804</ele>
        <time>2010-10-24T12:24:19Z</time>
      </trkpt>
      <trkpt lat="44.11118" lon="3.10946">
        <ele>804</ele>
        <time>2010-10-24T12:24:27Z</time>
      </trkpt>
      <trkpt lat="44.111" lon="3.10937">
        <ele>803.79998779297</ele>
        <time>2010-10-24T12:24:35Z</time>
      </trkpt>
      <trkpt lat="44.11087" lon="3.10918">
        <ele>803.79998779297</ele>
        <time>2010-10-24T12:24:51Z</time>
      </trkpt>
      <trkpt lat="44.11084" lon="3.10898">
        <ele>804</ele>
        <time>2010-10-24T12:25:02Z</time>
      </trkpt>
      <trkpt lat="44.1108" lon="3.10885">
        <ele>803.79998779297</ele>
        <time>2010-10-24T12:25:14Z</time>
      </trkpt>
      <trkpt lat="44.11074" lon="3.10874">
        <ele>803.59997558594</ele>
        <time>2010-10-24T12:25:20Z</time>
      </trkpt>
      <trkpt lat="44.1107" lon="3.10861">
        <ele>804.59997558594</ele>
        <time>2010-10-24T12:25:26Z</time>
      </trkpt>
      <trkpt lat="44.11069" lon="3.10849">
        <ele>805.20001220703</ele>
        <time>2010-10-24T12:25:32Z</time>
      </trkpt>
      <trkpt lat="44.11069" lon="3.10845">
        <ele>805.40002441406</ele>
        <time>2010-10-24T12:25:34Z</time>
      </trkpt>
      <trkpt lat="44.11069" lon="3.10824">
        <ele>807.20001220703</ele>
        <time>2010-10-24T12:25:45Z</time>
      </trkpt>
      <trkpt lat="44.11071" lon="3.1081">
        <ele>808.20001220703</ele>
        <time>2010-10-24T12:25:52Z</time>
      </trkpt>
      <trkpt lat="44.11066" lon="3.10801">
        <ele>809.59997558594</ele>
        <time>2010-10-24T12:25:56Z</time>
      </trkpt>
      <trkpt lat="44.11065" lon="3.10799">
        <ele>810</ele>
        <time>2010-10-24T12:25:57Z</time>
      </trkpt>
      <trkpt lat="44.11068" lon="3.10781">
        <ele>812.59997558594</ele>
        <time>2010-10-24T12:26:08Z</time>
      </trkpt>
      <trkpt lat="44.11071" lon="3.1077">
        <ele>813.79998779297</ele>
        <time>2010-10-24T12:26:15Z</time>
      </trkpt>
      <trkpt lat="44.11075" lon="3.10767">
        <ele>813.79998779297</ele>
        <time>2010-10-24T12:26:18Z</time>
      </trkpt>
      <trkpt lat="44.11079" lon="3.10761">
        <ele>814</ele>
        <time>2010-10-24T12:26:23Z</time>
      </trkpt>
      <trkpt lat="44.11068" lon="3.1076">
        <ele>814</ele>
        <time>2010-10-24T12:26:32Z</time>
      </trkpt>
      <trkpt lat="44.11068" lon="3.10755">
        <ele>814</ele>
        <time>2010-10-24T12:26:35Z</time>
      </trkpt>
      <trkpt lat="44.11069" lon="3.10754">
        <ele>814</ele>
        <time>2010-10-24T12:26:36Z</time>
      </trkpt>
      <trkpt lat="44.11069" lon="3.10749">
        <ele>814.20001220703</ele>
        <time>2010-10-24T12:26:39Z</time>
      </trkpt>
      <trkpt lat="44.11062" lon="3.10739">
        <ele>816</ele>
        <time>2010-10-24T12:26:44Z</time>
      </trkpt>
      <trkpt lat="44.11059" lon="3.10734">
        <ele>817.20001220703</ele>
        <time>2010-10-24T12:26:47Z</time>
      </trkpt>
      <trkpt lat="44.11058" lon="3.10716">
        <ele>819.59997558594</ele>
        <time>2010-10-24T12:27:02Z</time>
      </trkpt>
      <trkpt lat="44.11059" lon="3.10715">
        <ele>819.40002441406</ele>
        <time>2010-10-24T12:27:03Z</time>
      </trkpt>
      <trkpt lat="44.11059" lon="3.10711">
        <ele>819.79998779297</ele>
        <time>2010-10-24T12:27:06Z</time>
      </trkpt>
      <trkpt lat="44.11057" lon="3.10708">
        <ele>820.40002441406</ele>
        <time>2010-10-24T12:27:09Z</time>
      </trkpt>
      <trkpt lat="44.11058" lon="3.10703">
        <ele>820.40002441406</ele>
        <time>2010-10-24T12:27:13Z</time>
      </trkpt>
      <trkpt lat="44.11059" lon="3.107">
        <ele>820.79998779297</ele>
        <time>2010-10-24T12:27:15Z</time>
      </trkpt>
      <trkpt lat="44.11057" lon="3.1069">
        <ele>822.40002441406</ele>
        <time>2010-10-24T12:27:22Z</time>
      </trkpt>
      <trkpt lat="44.11057" lon="3.10689">
        <ele>822.59997558594</ele>
        <time>2010-10-24T12:27:23Z</time>
      </trkpt>
      <trkpt lat="44.11048" lon="3.10677">
        <ele>825</ele>
        <time>2010-10-24T12:27:35Z</time>
      </trkpt>
      <trkpt lat="44.11044" lon="3.10678">
        <ele>825.20001220703</ele>
        <time>2010-10-24T12:27:37Z</time>
      </trkpt>
      <trkpt lat="44.11026" lon="3.10681">
        <ele>826.20001220703</ele>
        <time>2010-10-24T12:27:45Z</time>
      </trkpt>
      <trkpt lat="44.11008" lon="3.10669">
        <ele>827.40002441406</ele>
        <time>2010-10-24T12:27:54Z</time>
      </trkpt>
      <trkpt lat="44.10992" lon="3.10658">
        <ele>828.79998779297</ele>
        <time>2010-10-24T12:28:03Z</time>
      </trkpt>
      <trkpt lat="44.10986" lon="3.10655">
        <ele>829.20001220703</ele>
        <time>2010-10-24T12:28:06Z</time>
      </trkpt>
      <trkpt lat="44.10982" lon="3.10642">
        <ele>829.59997558594</ele>
        <time>2010-10-24T12:28:10Z</time>
      </trkpt>
      <trkpt lat="44.10982" lon="3.10639">
        <ele>829.79998779297</ele>
        <time>2010-10-24T12:28:11Z</time>
      </trkpt>
      <trkpt lat="44.10981" lon="3.10625">
        <ele>830</ele>
        <time>2010-10-24T12:28:17Z</time>
      </trkpt>
      <trkpt lat="44.10981" lon="3.10614">
        <ele>830.40002441406</ele>
        <time>2010-10-24T12:28:24Z</time>
      </trkpt>
      <trkpt lat="44.10981" lon="3.10611">
        <ele>830.59997558594</ele>
        <time>2010-10-24T12:28:26Z</time>
      </trkpt>
      <trkpt lat="44.10985" lon="3.10605">
        <ele>831.20001220703</ele>
        <time>2010-10-24T12:28:33Z</time>
      </trkpt>
      <trkpt lat="44.10989" lon="3.10604">
        <ele>833.59997558594</ele>
        <time>2010-10-24T12:28:45Z</time>
      </trkpt>
      <trkpt lat="44.10989" lon="3.106">
        <ele>834</ele>
        <time>2010-10-24T12:28:47Z</time>
      </trkpt>
      <trkpt lat="44.10989" lon="3.10596">
        <ele>834.40002441406</ele>
        <time>2010-10-24T12:28:49Z</time>
      </trkpt>
      <trkpt lat="44.10988" lon="3.10586">
        <ele>835.59997558594</ele>
        <time>2010-10-24T12:28:55Z</time>
      </trkpt>
      <trkpt lat="44.10988" lon="3.10575">
        <ele>836.59997558594</ele>
        <time>2010-10-24T12:29:02Z</time>
      </trkpt>
      <trkpt lat="44.10987" lon="3.10566">
        <ele>837.59997558594</ele>
        <time>2010-10-24T12:29:08Z</time>
      </trkpt>
      <trkpt lat="44.10989" lon="3.1056">
        <ele>838.40002441406</ele>
        <time>2010-10-24T12:29:15Z</time>
      </trkpt>
      <trkpt lat="44.10992" lon="3.10552">
        <ele>841.40002441406</ele>
        <time>2010-10-24T12:29:34Z</time>
      </trkpt>
      <trkpt lat="44.10996" lon="3.10549">
        <ele>842.20001220703</ele>
        <time>2010-10-24T12:29:38Z</time>
      </trkpt>
      <trkpt lat="44.10999" lon="3.1054">
        <ele>842.79998779297</ele>
        <time>2010-10-24T12:29:45Z</time>
      </trkpt>
      <trkpt lat="44.10998" lon="3.10539">
        <ele>843</ele>
        <time>2010-10-24T12:29:46Z</time>
      </trkpt>
      <trkpt lat="44.10998" lon="3.1053">
        <ele>842.79998779297</ele>
        <time>2010-10-24T12:29:53Z</time>
      </trkpt>
      <trkpt lat="44.10996" lon="3.10521">
        <ele>843</ele>
        <time>2010-10-24T12:29:58Z</time>
      </trkpt>
      <trkpt lat="44.10998" lon="3.10505">
        <ele>843.59997558594</ele>
        <time>2010-10-24T12:30:08Z</time>
      </trkpt>
      <trkpt lat="44.10999" lon="3.1048">
        <ele>844.59997558594</ele>
        <time>2010-10-24T12:30:23Z</time>
      </trkpt>
      <trkpt lat="44.11005" lon="3.10457">
        <ele>844.79998779297</ele>
        <time>2010-10-24T12:30:37Z</time>
      </trkpt>
      <trkpt lat="44.11014" lon="3.10434">
        <ele>844.59997558594</ele>
        <time>2010-10-24T12:30:51Z</time>
      </trkpt>
      <trkpt lat="44.11024" lon="3.10411">
        <ele>844.59997558594</ele>
        <time>2010-10-24T12:31:05Z</time>
      </trkpt>
      <trkpt lat="44.11027" lon="3.10405">
        <ele>844.59997558594</ele>
        <time>2010-10-24T12:31:09Z</time>
      </trkpt>
      <trkpt lat="44.1103" lon="3.104">
        <ele>844.59997558594</ele>
        <time>2010-10-24T12:31:13Z</time>
      </trkpt>
      <trkpt lat="44.11034" lon="3.10392">
        <ele>844.59997558594</ele>
        <time>2010-10-24T12:31:19Z</time>
      </trkpt>
      <trkpt lat="44.11034" lon="3.10391">
        <ele>844.59997558594</ele>
        <time>2010-10-24T12:31:20Z</time>
      </trkpt>
      <trkpt lat="44.11036" lon="3.1039">
        <ele>844.59997558594</ele>
        <time>2010-10-24T12:31:21Z</time>
      </trkpt>
      <trkpt lat="44.11045" lon="3.10379">
        <ele>844.40002441406</ele>
        <time>2010-10-24T12:31:31Z</time>
      </trkpt>
      <trkpt lat="44.1105" lon="3.10377">
        <ele>844.40002441406</ele>
        <time>2010-10-24T12:31:35Z</time>
      </trkpt>
      <trkpt lat="44.11053" lon="3.10375">
        <ele>844.40002441406</ele>
        <time>2010-10-24T12:31:38Z</time>
      </trkpt>
      <trkpt lat="44.11058" lon="3.10371">
        <ele>844.59997558594</ele>
        <time>2010-10-24T12:31:43Z</time>
      </trkpt>
      <trkpt lat="44.11063" lon="3.10372">
        <ele>844.59997558594</ele>
        <time>2010-10-24T12:31:47Z</time>
      </trkpt>
      <trkpt lat="44.11065" lon="3.10374">
        <ele>844.79998779297</ele>
        <time>2010-10-24T12:31:49Z</time>
      </trkpt>
      <trkpt lat="44.11066" lon="3.10374">
        <ele>844.59997558594</ele>
        <time>2010-10-24T12:31:51Z</time>
      </trkpt>
      <trkpt lat="44.11069" lon="3.10374">
        <ele>844.59997558594</ele>
        <time>2010-10-24T12:31:54Z</time>
      </trkpt>
      <trkpt lat="44.11069" lon="3.10373">
        <ele>844.79998779297</ele>
        <time>2010-10-24T12:31:55Z</time>
      </trkpt>
      <trkpt lat="44.11073" lon="3.10373">
        <ele>844.59997558594</ele>
        <time>2010-10-24T12:31:58Z</time>
      </trkpt>
      <trkpt lat="44.11079" lon="3.10372">
        <ele>844.40002441406</ele>
        <time>2010-10-24T12:32:07Z</time>
      </trkpt>
      <trkpt lat="44.11088" lon="3.1037">
        <ele>844.79998779297</ele>
        <time>2010-10-24T12:32:24Z</time>
      </trkpt>
      <trkpt lat="44.11092" lon="3.10374">
        <ele>845.20001220703</ele>
        <time>2010-10-24T12:32:29Z</time>
      </trkpt>
      <trkpt lat="44.11105" lon="3.10381">
        <ele>845.59997558594</ele>
        <time>2010-10-24T12:32:36Z</time>
      </trkpt>
      <trkpt lat="44.1112" lon="3.10389">
        <ele>846.20001220703</ele>
        <time>2010-10-24T12:32:45Z</time>
      </trkpt>
      <trkpt lat="44.11121" lon="3.10392">
        <ele>846.20001220703</ele>
        <time>2010-10-24T12:32:46Z</time>
      </trkpt>
      <trkpt lat="44.11126" lon="3.10402">
        <ele>846.40002441406</ele>
        <time>2010-10-24T12:32:51Z</time>
      </trkpt>
      <trkpt lat="44.11128" lon="3.10403">
        <ele>846.40002441406</ele>
        <time>2010-10-24T12:32:53Z</time>
      </trkpt>
      <trkpt lat="44.11133" lon="3.10409">
        <ele>846.40002441406</ele>
        <time>2010-10-24T12:32:56Z</time>
      </trkpt>
      <trkpt lat="44.11146" lon="3.10432">
        <ele>846.20001220703</ele>
        <time>2010-10-24T12:33:04Z</time>
      </trkpt>
      <trkpt lat="44.1116" lon="3.10451">
        <ele>846</ele>
        <time>2010-10-24T12:33:10Z</time>
      </trkpt>
      <trkpt lat="44.11166" lon="3.10453">
        <ele>845.79998779297</ele>
        <time>2010-10-24T12:33:12Z</time>
      </trkpt>
      <trkpt lat="44.11177" lon="3.10442">
        <ele>845.20001220703</ele>
        <time>2010-10-24T12:33:19Z</time>
      </trkpt>
      <trkpt lat="44.11178" lon="3.10439">
        <ele>845</ele>
        <time>2010-10-24T12:33:21Z</time>
      </trkpt>
      <trkpt lat="44.11189" lon="3.10428">
        <ele>844</ele>
        <time>2010-10-24T12:33:29Z</time>
      </trkpt>
      <trkpt lat="44.1119" lon="3.10428">
        <ele>844</ele>
        <time>2010-10-24T12:33:30Z</time>
      </trkpt>
      <trkpt lat="44.11192" lon="3.10428">
        <ele>843.79998779297</ele>
        <time>2010-10-24T12:33:31Z</time>
      </trkpt>
      <trkpt lat="44.11208" lon="3.10421">
        <ele>843</ele>
        <time>2010-10-24T12:33:39Z</time>
      </trkpt>
      <trkpt lat="44.11212" lon="3.10417">
        <ele>842.79998779297</ele>
        <time>2010-10-24T12:33:41Z</time>
      </trkpt>
      <trkpt lat="44.11226" lon="3.10406">
        <ele>841.79998779297</ele>
        <time>2010-10-24T12:33:48Z</time>
      </trkpt>
      <trkpt lat="44.11235" lon="3.104">
        <ele>841</ele>
        <time>2010-10-24T12:33:52Z</time>
      </trkpt>
      <trkpt lat="44.11243" lon="3.10396">
        <ele>840.20001220703</ele>
        <time>2010-10-24T12:33:56Z</time>
      </trkpt>
      <trkpt lat="44.11246" lon="3.10394">
        <ele>839.59997558594</ele>
        <time>2010-10-24T12:33:59Z</time>
      </trkpt>
      <trkpt lat="44.1125" lon="3.10383">
        <ele>836.59997558594</ele>
        <time>2010-10-24T12:34:10Z</time>
      </trkpt>
      <trkpt lat="44.11253" lon="3.10381">
        <ele>835.79998779297</ele>
        <time>2010-10-24T12:34:13Z</time>
      </trkpt>
      <trkpt lat="44.11255" lon="3.1038">
        <ele>835.40002441406</ele>
        <time>2010-10-24T12:34:14Z</time>
      </trkpt>
      <trkpt lat="44.11257" lon="3.10364">
        <ele>831.40002441406</ele>
        <time>2010-10-24T12:34:32Z</time>
      </trkpt>
      <trkpt lat="44.1126" lon="3.10357">
        <ele>830.20001220703</ele>
        <time>2010-10-24T12:34:38Z</time>
      </trkpt>
      <trkpt lat="44.11261" lon="3.10354">
        <ele>829.20001220703</ele>
        <time>2010-10-24T12:34:44Z</time>
      </trkpt>
      <trkpt lat="44.1126" lon="3.10352">
        <ele>828.79998779297</ele>
        <time>2010-10-24T12:34:46Z</time>
      </trkpt>
      <trkpt lat="44.11266" lon="3.10345">
        <ele>826.79998779297</ele>
        <time>2010-10-24T12:34:58Z</time>
      </trkpt>
      <trkpt lat="44.11272" lon="3.10339">
        <ele>825.20001220703</ele>
        <time>2010-10-24T12:35:05Z</time>
      </trkpt>
      <trkpt lat="44.11275" lon="3.10339">
        <ele>824.79998779297</ele>
        <time>2010-10-24T12:35:07Z</time>
      </trkpt>
      <trkpt lat="44.11277" lon="3.10339">
        <ele>823.40002441406</ele>
        <time>2010-10-24T12:35:11Z</time>
      </trkpt>
      <trkpt lat="44.11277" lon="3.10336">
        <ele>822.20001220703</ele>
        <time>2010-10-24T12:35:15Z</time>
      </trkpt>
      <trkpt lat="44.11279" lon="3.10335">
        <ele>821.40002441406</ele>
        <time>2010-10-24T12:35:17Z</time>
      </trkpt>
      <trkpt lat="44.11282" lon="3.10334">
        <ele>820.40002441406</ele>
        <time>2010-10-24T12:35:19Z</time>
      </trkpt>
      <trkpt lat="44.11282" lon="3.1033">
        <ele>819.40002441406</ele>
        <time>2010-10-24T12:35:22Z</time>
      </trkpt>
      <trkpt lat="44.11279" lon="3.10324">
        <ele>818</ele>
        <time>2010-10-24T12:35:26Z</time>
      </trkpt>
      <trkpt lat="44.1128" lon="3.1032">
        <ele>816.79998779297</ele>
        <time>2010-10-24T12:35:29Z</time>
      </trkpt>
      <trkpt lat="44.1128" lon="3.10314">
        <ele>816</ele>
        <time>2010-10-24T12:35:31Z</time>
      </trkpt>
      <trkpt lat="44.11277" lon="3.10311">
        <ele>814.79998779297</ele>
        <time>2010-10-24T12:35:35Z</time>
      </trkpt>
      <trkpt lat="44.11273" lon="3.10299">
        <ele>810.79998779297</ele>
        <time>2010-10-24T12:35:49Z</time>
      </trkpt>
      <trkpt lat="44.11273" lon="3.10294">
        <ele>809.59997558594</ele>
        <time>2010-10-24T12:35:53Z</time>
      </trkpt>
      <trkpt lat="44.11276" lon="3.10291">
        <ele>808.20001220703</ele>
        <time>2010-10-24T12:35:58Z</time>
      </trkpt>
      <trkpt lat="44.11278" lon="3.10279">
        <ele>802.40002441406</ele>
        <time>2010-10-24T12:36:16Z</time>
      </trkpt>
      <trkpt lat="44.11283" lon="3.10275">
        <ele>799.40002441406</ele>
        <time>2010-10-24T12:36:24Z</time>
      </trkpt>
      <trkpt lat="44.11281" lon="3.10269">
        <ele>797.79998779297</ele>
        <time>2010-10-24T12:36:29Z</time>
      </trkpt>
      <trkpt lat="44.11279" lon="3.10265">
        <ele>797</ele>
        <time>2010-10-24T12:36:31Z</time>
      </trkpt>
      <trkpt lat="44.1128" lon="3.10263">
        <ele>796</ele>
        <time>2010-10-24T12:36:34Z</time>
      </trkpt>
      <trkpt lat="44.11282" lon="3.10258">
        <ele>793.79998779297</ele>
        <time>2010-10-24T12:36:40Z</time>
      </trkpt>
      <trkpt lat="44.11279" lon="3.10252">
        <ele>792.40002441406</ele>
        <time>2010-10-24T12:36:44Z</time>
      </trkpt>
      <trkpt lat="44.11279" lon="3.10251">
        <ele>792</ele>
        <time>2010-10-24T12:36:45Z</time>
      </trkpt>
      <trkpt lat="44.11276" lon="3.10243">
        <ele>790.20001220703</ele>
        <time>2010-10-24T12:36:50Z</time>
      </trkpt>
      <trkpt lat="44.11278" lon="3.1024">
        <ele>789.40002441406</ele>
        <time>2010-10-24T12:36:52Z</time>
      </trkpt>
      <trkpt lat="44.11292" lon="3.10236">
        <ele>785.79998779297</ele>
        <time>2010-10-24T12:37:01Z</time>
      </trkpt>
      <trkpt lat="44.11292" lon="3.10229">
        <ele>784.20001220703</ele>
        <time>2010-10-24T12:37:05Z</time>
      </trkpt>
      <trkpt lat="44.11298" lon="3.10221">
        <ele>781.59997558594</ele>
        <time>2010-10-24T12:37:11Z</time>
      </trkpt>
      <trkpt lat="44.113" lon="3.10207">
        <ele>777.79998779297</ele>
        <time>2010-10-24T12:37:20Z</time>
      </trkpt>
      <trkpt lat="44.11301" lon="3.10201">
        <ele>775.40002441406</ele>
        <time>2010-10-24T12:37:25Z</time>
      </trkpt>
      <trkpt lat="44.11303" lon="3.10196">
        <ele>773.40002441406</ele>
        <time>2010-10-24T12:37:30Z</time>
      </trkpt>
      <trkpt lat="44.11303" lon="3.10193">
        <ele>772.59997558594</ele>
        <time>2010-10-24T12:37:32Z</time>
      </trkpt>
      <trkpt lat="44.11314" lon="3.10187">
        <ele>770</ele>
        <time>2010-10-24T12:37:38Z</time>
      </trkpt>
      <trkpt lat="44.11317" lon="3.10187">
        <ele>769.20001220703</ele>
        <time>2010-10-24T12:37:40Z</time>
      </trkpt>
      <trkpt lat="44.11335" lon="3.10175">
        <ele>762.59997558594</ele>
        <time>2010-10-24T12:37:57Z</time>
      </trkpt>
      <trkpt lat="44.11353" lon="3.10168">
        <ele>756.20001220703</ele>
        <time>2010-10-24T12:38:14Z</time>
      </trkpt>
      <trkpt lat="44.11373" lon="3.10146">
        <ele>753.40002441406</ele>
        <time>2010-10-24T12:40:37Z</time>
      </trkpt>
      <trkpt lat="44.11372" lon="3.10147">
        <ele>751.59997558594</ele>
        <time>2010-10-24T12:40:41Z</time>
      </trkpt>
      <trkpt lat="44.11372" lon="3.1015">
        <ele>749.59997558594</ele>
        <time>2010-10-24T12:40:45Z</time>
      </trkpt>
      <trkpt lat="44.11374" lon="3.10156">
        <ele>741.40002441406</ele>
        <time>2010-10-24T12:41:03Z</time>
      </trkpt>
      <trkpt lat="44.11378" lon="3.10158">
        <ele>739</ele>
        <time>2010-10-24T12:41:10Z</time>
      </trkpt>
      <trkpt lat="44.11381" lon="3.10161">
        <ele>738.20001220703</ele>
        <time>2010-10-24T12:41:12Z</time>
      </trkpt>
      <trkpt lat="44.11386" lon="3.10166">
        <ele>736.79998779297</ele>
        <time>2010-10-24T12:41:16Z</time>
      </trkpt>
      <trkpt lat="44.11395" lon="3.10177">
        <ele>733.59997558594</ele>
        <time>2010-10-24T12:41:25Z</time>
      </trkpt>
      <trkpt lat="44.11402" lon="3.1018">
        <ele>731.59997558594</ele>
        <time>2010-10-24T12:41:31Z</time>
      </trkpt>
      <trkpt lat="44.11412" lon="3.10184">
        <ele>727.20001220703</ele>
        <time>2010-10-24T12:41:46Z</time>
      </trkpt>
      <trkpt lat="44.11432" lon="3.10188">
        <ele>726.20001220703</ele>
        <time>2010-10-24T12:41:50Z</time>
      </trkpt>
      <trkpt lat="44.1145" lon="3.10193">
        <ele>725.20001220703</ele>
        <time>2010-10-24T12:41:54Z</time>
      </trkpt>
      <trkpt lat="44.1146" lon="3.10196">
        <ele>724.79998779297</ele>
        <time>2010-10-24T12:41:56Z</time>
      </trkpt>
      <trkpt lat="44.1147" lon="3.10199">
        <ele>724.20001220703</ele>
        <time>2010-10-24T12:41:58Z</time>
      </trkpt>
      <trkpt lat="44.11489" lon="3.10204">
        <ele>723.40002441406</ele>
        <time>2010-10-24T12:42:02Z</time>
      </trkpt>
      <trkpt lat="44.11508" lon="3.10209">
        <ele>722.40002441406</ele>
        <time>2010-10-24T12:42:06Z</time>
      </trkpt>
      <trkpt lat="44.11527" lon="3.10215">
        <ele>721.59997558594</ele>
        <time>2010-10-24T12:42:10Z</time>
      </trkpt>
      <trkpt lat="44.11547" lon="3.1022">
        <ele>720.79998779297</ele>
        <time>2010-10-24T12:42:14Z</time>
      </trkpt>
      <trkpt lat="44.11566" lon="3.10225">
        <ele>720</ele>
        <time>2010-10-24T12:42:18Z</time>
      </trkpt>
      <trkpt lat="44.11585" lon="3.10231">
        <ele>719.20001220703</ele>
        <time>2010-10-24T12:42:22Z</time>
      </trkpt>
      <trkpt lat="44.11604" lon="3.10236">
        <ele>718.59997558594</ele>
        <time>2010-10-24T12:42:26Z</time>
      </trkpt>
      <trkpt lat="44.11494" lon="3.10216">
        <ele>718.59997558594</ele>
        <time>2010-10-24T12:43:30Z</time>
      </trkpt>
      <trkpt lat="44.11501" lon="3.10215">
        <ele>718.59997558594</ele>
        <time>2010-10-24T12:43:31Z</time>
      </trkpt>
      <trkpt lat="44.11517" lon="3.10216">
        <ele>718.20001220703</ele>
        <time>2010-10-24T12:43:34Z</time>
      </trkpt>
      <trkpt lat="44.11519" lon="3.10218">
        <ele>718.20001220703</ele>
        <time>2010-10-24T12:43:35Z</time>
      </trkpt>
      <trkpt lat="44.1152" lon="3.1022">
        <ele>718</ele>
        <time>2010-10-24T12:43:38Z</time>
      </trkpt>
      <trkpt lat="44.11533" lon="3.1022">
        <ele>717.59997558594</ele>
        <time>2010-10-24T12:43:41Z</time>
      </trkpt>
      <trkpt lat="44.11553" lon="3.10222">
        <ele>717.40002441406</ele>
        <time>2010-10-24T12:43:44Z</time>
      </trkpt>
      <trkpt lat="44.11555" lon="3.10222">
        <ele>717.20001220703</ele>
        <time>2010-10-24T12:43:45Z</time>
      </trkpt>
      <trkpt lat="44.11563" lon="3.10223">
        <ele>717</ele>
        <time>2010-10-24T12:43:47Z</time>
      </trkpt>
      <trkpt lat="44.11569" lon="3.10221">
        <ele>716.40002441406</ele>
        <time>2010-10-24T12:43:52Z</time>
      </trkpt>
      <trkpt lat="44.11567" lon="3.10222">
        <ele>714.79998779297</ele>
        <time>2010-10-24T12:44:03Z</time>
      </trkpt>
      <trkpt lat="44.11562" lon="3.10229">
        <ele>713.79998779297</ele>
        <time>2010-10-24T12:44:09Z</time>
      </trkpt>
      <trkpt lat="44.11575" lon="3.10235">
        <ele>712.40002441406</ele>
        <time>2010-10-24T12:44:16Z</time>
      </trkpt>
      <trkpt lat="44.11579" lon="3.10234">
        <ele>712.20001220703</ele>
        <time>2010-10-24T12:44:17Z</time>
      </trkpt>
      <trkpt lat="44.11514" lon="3.10235">
        <ele>711</ele>
        <time>2010-10-24T12:44:21Z</time>
      </trkpt>
      <trkpt lat="44.11508" lon="3.10234">
        <ele>709.79998779297</ele>
        <time>2010-10-24T12:44:25Z</time>
      </trkpt>
      <trkpt lat="44.11522" lon="3.10235">
        <ele>707.20001220703</ele>
        <time>2010-10-24T12:44:33Z</time>
      </trkpt>
      <trkpt lat="44.11524" lon="3.10235">
        <ele>706.79998779297</ele>
        <time>2010-10-24T12:44:34Z</time>
      </trkpt>
      <trkpt lat="44.11542" lon="3.10235">
        <ele>705</ele>
        <time>2010-10-24T12:44:40Z</time>
      </trkpt>
      <trkpt lat="44.11561" lon="3.10233">
        <ele>704</ele>
        <time>2010-10-24T12:44:43Z</time>
      </trkpt>
      <trkpt lat="44.11578" lon="3.10231">
        <ele>702.79998779297</ele>
        <time>2010-10-24T12:44:47Z</time>
      </trkpt>
      <trkpt lat="44.11584" lon="3.10233">
        <ele>701.79998779297</ele>
        <time>2010-10-24T12:44:50Z</time>
      </trkpt>
      <trkpt lat="44.11548" lon="3.1023">
        <ele>696.59997558594</ele>
        <time>2010-10-24T12:45:04Z</time>
      </trkpt>
      <trkpt lat="44.11549" lon="3.10226">
        <ele>695.20001220703</ele>
        <time>2010-10-24T12:45:07Z</time>
      </trkpt>
      <trkpt lat="44.11548" lon="3.10223">
        <ele>694.40002441406</ele>
        <time>2010-10-24T12:45:09Z</time>
      </trkpt>
      <trkpt lat="44.11546" lon="3.10211">
        <ele>690.59997558594</ele>
        <time>2010-10-24T12:45:18Z</time>
      </trkpt>
      <trkpt lat="44.11547" lon="3.1021">
        <ele>689</ele>
        <time>2010-10-24T12:45:22Z</time>
      </trkpt>
      <trkpt lat="44.1155" lon="3.10203">
        <ele>685</ele>
        <time>2010-10-24T12:45:32Z</time>
      </trkpt>
      <trkpt lat="44.11549" lon="3.10201">
        <ele>684.59997558594</ele>
        <time>2010-10-24T12:45:33Z</time>
      </trkpt>
      <trkpt lat="44.11545" lon="3.10195">
        <ele>683.59997558594</ele>
        <time>2010-10-24T12:45:36Z</time>
      </trkpt>
      <trkpt lat="44.11544" lon="3.10189">
        <ele>682.40002441406</ele>
        <time>2010-10-24T12:45:39Z</time>
      </trkpt>
      <trkpt lat="44.11541" lon="3.10178">
        <ele>680.20001220703</ele>
        <time>2010-10-24T12:45:45Z</time>
      </trkpt>
      <trkpt lat="44.11541" lon="3.10177">
        <ele>680</ele>
        <time>2010-10-24T12:45:46Z</time>
      </trkpt>
      <trkpt lat="44.11543" lon="3.10175">
        <ele>678.79998779297</ele>
        <time>2010-10-24T12:45:49Z</time>
      </trkpt>
      <trkpt lat="44.11541" lon="3.10165">
        <ele>674.20001220703</ele>
        <time>2010-10-24T12:46:01Z</time>
      </trkpt>
      <trkpt lat="44.1154" lon="3.10163">
        <ele>672.40002441406</ele>
        <time>2010-10-24T12:46:06Z</time>
      </trkpt>
      <trkpt lat="44.11543" lon="3.10164">
        <ele>670.79998779297</ele>
        <time>2010-10-24T12:46:10Z</time>
      </trkpt>
      <trkpt lat="44.11546" lon="3.10162">
        <ele>669.20001220703</ele>
        <time>2010-10-24T12:46:14Z</time>
      </trkpt>
      <trkpt lat="44.1155" lon="3.10159">
        <ele>667.40002441406</ele>
        <time>2010-10-24T12:46:19Z</time>
      </trkpt>
      <trkpt lat="44.11554" lon="3.10152">
        <ele>663.59997558594</ele>
        <time>2010-10-24T12:46:29Z</time>
      </trkpt>
      <trkpt lat="44.11555" lon="3.10142">
        <ele>659.40002441406</ele>
        <time>2010-10-24T12:46:40Z</time>
      </trkpt>
      <trkpt lat="44.11554" lon="3.10135">
        <ele>657.79998779297</ele>
        <time>2010-10-24T12:46:44Z</time>
      </trkpt>
      <trkpt lat="44.11551" lon="3.10126">
        <ele>656</ele>
        <time>2010-10-24T12:46:49Z</time>
      </trkpt>
      <trkpt lat="44.11549" lon="3.10124">
        <ele>655.40002441406</ele>
        <time>2010-10-24T12:46:51Z</time>
      </trkpt>
      <trkpt lat="44.11545" lon="3.10121">
        <ele>653.79998779297</ele>
        <time>2010-10-24T12:46:56Z</time>
      </trkpt>
      <trkpt lat="44.11544" lon="3.10121">
        <ele>653.40002441406</ele>
        <time>2010-10-24T12:46:57Z</time>
      </trkpt>
      <trkpt lat="44.11544" lon="3.10119">
        <ele>652.40002441406</ele>
        <time>2010-10-24T12:47:00Z</time>
      </trkpt>
      <trkpt lat="44.11544" lon="3.10106">
        <ele>649.20001220703</ele>
        <time>2010-10-24T12:47:10Z</time>
      </trkpt>
      <trkpt lat="44.11542" lon="3.10101">
        <ele>647.79998779297</ele>
        <time>2010-10-24T12:47:14Z</time>
      </trkpt>
      <trkpt lat="44.11543" lon="3.10097">
        <ele>646.40002441406</ele>
        <time>2010-10-24T12:47:18Z</time>
      </trkpt>
      <trkpt lat="44.11531" lon="3.10089">
        <ele>641.79998779297</ele>
        <time>2010-10-24T12:47:33Z</time>
      </trkpt>
      <trkpt lat="44.11526" lon="3.10087">
        <ele>639.79998779297</ele>
        <time>2010-10-24T12:47:40Z</time>
      </trkpt>
      <trkpt lat="44.11525" lon="3.10086">
        <ele>639.40002441406</ele>
        <time>2010-10-24T12:47:41Z</time>
      </trkpt>
      <trkpt lat="44.11516" lon="3.1008">
        <ele>638</ele>
        <time>2010-10-24T12:47:47Z</time>
      </trkpt>
      <trkpt lat="44.1151" lon="3.10077">
        <ele>636.20001220703</ele>
        <time>2010-10-24T12:47:54Z</time>
      </trkpt>
      <trkpt lat="44.11495" lon="3.10061">
        <ele>631.59997558594</ele>
        <time>2010-10-24T12:48:18Z</time>
      </trkpt>
      <trkpt lat="44.11489" lon="3.10047">
        <ele>630.40002441406</ele>
        <time>2010-10-24T12:48:27Z</time>
      </trkpt>
      <trkpt lat="44.11485" lon="3.10041">
        <ele>629.59997558594</ele>
        <time>2010-10-24T12:48:34Z</time>
      </trkpt>
      <trkpt lat="44.11485" lon="3.1004">
        <ele>629.40002441406</ele>
        <time>2010-10-24T12:48:36Z</time>
      </trkpt>
      <trkpt lat="44.11485" lon="3.10036">
        <ele>629</ele>
        <time>2010-10-24T12:48:41Z</time>
      </trkpt>
      <trkpt lat="44.11481" lon="3.10032">
        <ele>628.79998779297</ele>
        <time>2010-10-24T12:48:45Z</time>
      </trkpt>
      <trkpt lat="44.11477" lon="3.10023">
        <ele>627.59997558594</ele>
        <time>2010-10-24T12:48:59Z</time>
      </trkpt>
      <trkpt lat="44.11475" lon="3.10022">
        <ele>627.59997558594</ele>
        <time>2010-10-24T12:49:00Z</time>
      </trkpt>
      <trkpt lat="44.11469" lon="3.10014">
        <ele>627</ele>
        <time>2010-10-24T12:49:09Z</time>
      </trkpt>
      <trkpt lat="44.11462" lon="3.10007">
        <ele>626.20001220703</ele>
        <time>2010-10-24T12:49:16Z</time>
      </trkpt>
      <trkpt lat="44.11461" lon="3.10006">
        <ele>626.20001220703</ele>
        <time>2010-10-24T12:49:17Z</time>
      </trkpt>
      <trkpt lat="44.11461" lon="3.10005">
        <ele>626</ele>
        <time>2010-10-24T12:49:18Z</time>
      </trkpt>
      <trkpt lat="44.11457" lon="3.09992">
        <ele>625.40002441406</ele>
        <time>2010-10-24T12:49:27Z</time>
      </trkpt>
      <trkpt lat="44.11455" lon="3.09984">
        <ele>624.79998779297</ele>
        <time>2010-10-24T12:49:33Z</time>
      </trkpt>
      <trkpt lat="44.11452" lon="3.09982">
        <ele>624.59997558594</ele>
        <time>2010-10-24T12:49:35Z</time>
      </trkpt>
      <trkpt lat="44.11446" lon="3.09969">
        <ele>623.79998779297</ele>
        <time>2010-10-24T12:49:42Z</time>
      </trkpt>
      <trkpt lat="44.11444" lon="3.09964">
        <ele>623.40002441406</ele>
        <time>2010-10-24T12:49:44Z</time>
      </trkpt>
      <trkpt lat="44.11443" lon="3.09961">
        <ele>623.20001220703</ele>
        <time>2010-10-24T12:49:46Z</time>
      </trkpt>
      <trkpt lat="44.11442" lon="3.09961">
        <ele>623</ele>
        <time>2010-10-24T12:49:47Z</time>
      </trkpt>
      <trkpt lat="44.1144" lon="3.09951">
        <ele>622</ele>
        <time>2010-10-24T12:49:52Z</time>
      </trkpt>
      <trkpt lat="44.11436" lon="3.09943">
        <ele>621.40002441406</ele>
        <time>2010-10-24T12:49:56Z</time>
      </trkpt>
      <trkpt lat="44.11436" lon="3.0994">
        <ele>621.20001220703</ele>
        <time>2010-10-24T12:49:57Z</time>
      </trkpt>
      <trkpt lat="44.11437" lon="3.09932">
        <ele>620.59997558594</ele>
        <time>2010-10-24T12:50:01Z</time>
      </trkpt>
      <trkpt lat="44.11438" lon="3.09928">
        <ele>620.40002441406</ele>
        <time>2010-10-24T12:50:03Z</time>
      </trkpt>
      <trkpt lat="44.11443" lon="3.09924">
        <ele>619.40002441406</ele>
        <time>2010-10-24T12:50:08Z</time>
      </trkpt>
      <trkpt lat="44.11448" lon="3.09928">
        <ele>618.59997558594</ele>
        <time>2010-10-24T12:50:12Z</time>
      </trkpt>
      <trkpt lat="44.11449" lon="3.0993">
        <ele>617.79998779297</ele>
        <time>2010-10-24T12:50:16Z</time>
      </trkpt>
      <trkpt lat="44.11451" lon="3.0993">
        <ele>617.20001220703</ele>
        <time>2010-10-24T12:50:19Z</time>
      </trkpt>
      <trkpt lat="44.11453" lon="3.09923">
        <ele>616.20001220703</ele>
        <time>2010-10-24T12:50:23Z</time>
      </trkpt>
      <trkpt lat="44.11457" lon="3.0992">
        <ele>614.40002441406</ele>
        <time>2010-10-24T12:50:31Z</time>
      </trkpt>
      <trkpt lat="44.11461" lon="3.09923">
        <ele>613.59997558594</ele>
        <time>2010-10-24T12:50:35Z</time>
      </trkpt>
      <trkpt lat="44.11462" lon="3.09923">
        <ele>612.79998779297</ele>
        <time>2010-10-24T12:50:38Z</time>
      </trkpt>
      <trkpt lat="44.11464" lon="3.09922">
        <ele>612.59997558594</ele>
        <time>2010-10-24T12:50:39Z</time>
      </trkpt>
      <trkpt lat="44.11466" lon="3.09922">
        <ele>612</ele>
        <time>2010-10-24T12:50:41Z</time>
      </trkpt>
      <trkpt lat="44.11473" lon="3.09925">
        <ele>608.79998779297</ele>
        <time>2010-10-24T12:50:52Z</time>
      </trkpt>
      <trkpt lat="44.11476" lon="3.09915">
        <ele>607.20001220703</ele>
        <time>2010-10-24T12:50:57Z</time>
      </trkpt>
      <trkpt lat="44.11476" lon="3.09907">
        <ele>606.59997558594</ele>
        <time>2010-10-24T12:50:59Z</time>
      </trkpt>
      <trkpt lat="44.1148" lon="3.09891">
        <ele>605.40002441406</ele>
        <time>2010-10-24T12:51:03Z</time>
      </trkpt>
      <trkpt lat="44.11487" lon="3.09869">
        <ele>602.79998779297</ele>
        <time>2010-10-24T12:51:11Z</time>
      </trkpt>
      <trkpt lat="44.11496" lon="3.09872">
        <ele>601.40002441406</ele>
        <time>2010-10-24T12:51:16Z</time>
      </trkpt>
      <trkpt lat="44.11498" lon="3.09871">
        <ele>598.79998779297</ele>
        <time>2010-10-24T12:51:24Z</time>
      </trkpt>
      <trkpt lat="44.11502" lon="3.09863">
        <ele>597.79998779297</ele>
        <time>2010-10-24T12:51:27Z</time>
      </trkpt>
      <trkpt lat="44.11502" lon="3.0986">
        <ele>597.40002441406</ele>
        <time>2010-10-24T12:51:28Z</time>
      </trkpt>
      <trkpt lat="44.11507" lon="3.0984">
        <ele>595.20001220703</ele>
        <time>2010-10-24T12:51:35Z</time>
      </trkpt>
      <trkpt lat="44.1151" lon="3.09814">
        <ele>592.59997558594</ele>
        <time>2010-10-24T12:51:43Z</time>
      </trkpt>
      <trkpt lat="44.11507" lon="3.09793">
        <ele>591</ele>
        <time>2010-10-24T12:51:49Z</time>
      </trkpt>
      <trkpt lat="44.11507" lon="3.09789">
        <ele>590.59997558594</ele>
        <time>2010-10-24T12:51:50Z</time>
      </trkpt>
      <trkpt lat="44.11509" lon="3.09775">
        <ele>589</ele>
        <time>2010-10-24T12:51:55Z</time>
      </trkpt>
      <trkpt lat="44.1151" lon="3.09763">
        <ele>587.79998779297</ele>
        <time>2010-10-24T12:51:59Z</time>
      </trkpt>
      <trkpt lat="44.11509" lon="3.09745">
        <ele>585.79998779297</ele>
        <time>2010-10-24T12:52:05Z</time>
      </trkpt>
      <trkpt lat="44.11507" lon="3.09736">
        <ele>585</ele>
        <time>2010-10-24T12:52:08Z</time>
      </trkpt>
      <trkpt lat="44.11507" lon="3.0973">
        <ele>583.79998779297</ele>
        <time>2010-10-24T12:52:11Z</time>
      </trkpt>
      <trkpt lat="44.11508" lon="3.0972">
        <ele>582.59997558594</ele>
        <time>2010-10-24T12:52:15Z</time>
      </trkpt>
      <trkpt lat="44.11509" lon="3.09711">
        <ele>581.59997558594</ele>
        <time>2010-10-24T12:52:18Z</time>
      </trkpt>
      <trkpt lat="44.1151" lon="3.09686">
        <ele>578</ele>
        <time>2010-10-24T12:52:28Z</time>
      </trkpt>
      <trkpt lat="44.11506" lon="3.09662">
        <ele>575</ele>
        <time>2010-10-24T12:52:36Z</time>
      </trkpt>
      <trkpt lat="44.11498" lon="3.09636">
        <ele>572.20001220703</ele>
        <time>2010-10-24T12:52:44Z</time>
      </trkpt>
      <trkpt lat="44.11493" lon="3.09611">
        <ele>569.20001220703</ele>
        <time>2010-10-24T12:52:53Z</time>
      </trkpt>
      <trkpt lat="44.11485" lon="3.09613">
        <ele>567.59997558594</ele>
        <time>2010-10-24T12:52:58Z</time>
      </trkpt>
      <trkpt lat="44.11476" lon="3.09617">
        <ele>566.20001220703</ele>
        <time>2010-10-24T12:53:02Z</time>
      </trkpt>
      <trkpt lat="44.11458" lon="3.09618">
        <ele>561</ele>
        <time>2010-10-24T12:53:20Z</time>
      </trkpt>
      <trkpt lat="44.1144" lon="3.09621">
        <ele>558.79998779297</ele>
        <time>2010-10-24T12:53:28Z</time>
      </trkpt>
      <trkpt lat="44.11422" lon="3.09618">
        <ele>557</ele>
        <time>2010-10-24T12:53:35Z</time>
      </trkpt>
      <trkpt lat="44.11402" lon="3.09611">
        <ele>555</ele>
        <time>2010-10-24T12:53:43Z</time>
      </trkpt>
      <trkpt lat="44.11385" lon="3.09601">
        <ele>553.20001220703</ele>
        <time>2010-10-24T12:53:50Z</time>
      </trkpt>
      <trkpt lat="44.11368" lon="3.09588">
        <ele>551.79998779297</ele>
        <time>2010-10-24T12:53:57Z</time>
      </trkpt>
      <trkpt lat="44.11351" lon="3.09576">
        <ele>550.40002441406</ele>
        <time>2010-10-24T12:54:04Z</time>
      </trkpt>
      <trkpt lat="44.11347" lon="3.09577">
        <ele>550</ele>
        <time>2010-10-24T12:54:06Z</time>
      </trkpt>
      <trkpt lat="44.11343" lon="3.09585">
        <ele>549.20001220703</ele>
        <time>2010-10-24T12:54:10Z</time>
      </trkpt>
      <trkpt lat="44.11337" lon="3.09591">
        <ele>548.40002441406</ele>
        <time>2010-10-24T12:54:14Z</time>
      </trkpt>
      <trkpt lat="44.11333" lon="3.09594">
        <ele>548</ele>
        <time>2010-10-24T12:54:16Z</time>
      </trkpt>
      <trkpt lat="44.11322" lon="3.09581">
        <ele>546.79998779297</ele>
        <time>2010-10-24T12:54:24Z</time>
      </trkpt>
      <trkpt lat="44.11315" lon="3.0957">
        <ele>546.20001220703</ele>
        <time>2010-10-24T12:54:28Z</time>
      </trkpt>
      <trkpt lat="44.11311" lon="3.09561">
        <ele>545.79998779297</ele>
        <time>2010-10-24T12:54:31Z</time>
      </trkpt>
      <trkpt lat="44.11301" lon="3.0954">
        <ele>544.79998779297</ele>
        <time>2010-10-24T12:54:38Z</time>
      </trkpt>
      <trkpt lat="44.11287" lon="3.09524">
        <ele>543.59997558594</ele>
        <time>2010-10-24T12:54:45Z</time>
      </trkpt>
      <trkpt lat="44.1127" lon="3.09509">
        <ele>542</ele>
        <time>2010-10-24T12:54:53Z</time>
      </trkpt>
      <trkpt lat="44.11254" lon="3.09493">
        <ele>540.59997558594</ele>
        <time>2010-10-24T12:55:00Z</time>
      </trkpt>
      <trkpt lat="44.11237" lon="3.09477">
        <ele>539.40002441406</ele>
        <time>2010-10-24T12:55:07Z</time>
      </trkpt>
      <trkpt lat="44.1122" lon="3.09463">
        <ele>537.79998779297</ele>
        <time>2010-10-24T12:55:14Z</time>
      </trkpt>
      <trkpt lat="44.11201" lon="3.09452">
        <ele>536</ele>
        <time>2010-10-24T12:55:22Z</time>
      </trkpt>
      <trkpt lat="44.11182" lon="3.09442">
        <ele>533.79998779297</ele>
        <time>2010-10-24T12:55:30Z</time>
      </trkpt>
      <trkpt lat="44.11164" lon="3.09434">
        <ele>531.79998779297</ele>
        <time>2010-10-24T12:55:37Z</time>
      </trkpt>
      <trkpt lat="44.11147" lon="3.09424">
        <ele>529.59997558594</ele>
        <time>2010-10-24T12:55:44Z</time>
      </trkpt>
      <trkpt lat="44.11129" lon="3.0941">
        <ele>527.59997558594</ele>
        <time>2010-10-24T12:55:51Z</time>
      </trkpt>
      <trkpt lat="44.11111" lon="3.09398">
        <ele>525.59997558594</ele>
        <time>2010-10-24T12:55:58Z</time>
      </trkpt>
      <trkpt lat="44.11093" lon="3.09396">
        <ele>523.59997558594</ele>
        <time>2010-10-24T12:56:05Z</time>
      </trkpt>
      <trkpt lat="44.11073" lon="3.0939">
        <ele>521.40002441406</ele>
        <time>2010-10-24T12:56:12Z</time>
      </trkpt>
      <trkpt lat="44.11055" lon="3.0938">
        <ele>519.20001220703</ele>
        <time>2010-10-24T12:56:19Z</time>
      </trkpt>
      <trkpt lat="44.11036" lon="3.09371">
        <ele>517</ele>
        <time>2010-10-24T12:56:26Z</time>
      </trkpt>
      <trkpt lat="44.11018" lon="3.09365">
        <ele>515.59997558594</ele>
        <time>2010-10-24T12:56:32Z</time>
      </trkpt>
      <trkpt lat="44.11001" lon="3.09353">
        <ele>513.79998779297</ele>
        <time>2010-10-24T12:56:39Z</time>
      </trkpt>
      <trkpt lat="44.10982" lon="3.09341">
        <ele>511.60000610352</ele>
        <time>2010-10-24T12:56:47Z</time>
      </trkpt>
      <trkpt lat="44.10966" lon="3.09328">
        <ele>509.79998779297</ele>
        <time>2010-10-24T12:56:54Z</time>
      </trkpt>
      <trkpt lat="44.10955" lon="3.09309">
        <ele>507.79998779297</ele>
        <time>2010-10-24T12:57:01Z</time>
      </trkpt>
      <trkpt lat="44.10954" lon="3.09306">
        <ele>507.60000610352</ele>
        <time>2010-10-24T12:57:02Z</time>
      </trkpt>
      <trkpt lat="44.10942" lon="3.09291">
        <ele>505.79998779297</ele>
        <time>2010-10-24T12:57:09Z</time>
      </trkpt>
      <trkpt lat="44.10936" lon="3.09265">
        <ele>503.60000610352</ele>
        <time>2010-10-24T12:57:16Z</time>
      </trkpt>
      <trkpt lat="44.10931" lon="3.09238">
        <ele>501.39999389648</ele>
        <time>2010-10-24T12:57:23Z</time>
      </trkpt>
      <trkpt lat="44.10926" lon="3.09212">
        <ele>499.20001220703</ele>
        <time>2010-10-24T12:57:30Z</time>
      </trkpt>
      <trkpt lat="44.10918" lon="3.09188">
        <ele>497</ele>
        <time>2010-10-24T12:57:37Z</time>
      </trkpt>
      <trkpt lat="44.10902" lon="3.09175">
        <ele>494.79998779297</ele>
        <time>2010-10-24T12:57:44Z</time>
      </trkpt>
      <trkpt lat="44.10885" lon="3.09166">
        <ele>492</ele>
        <time>2010-10-24T12:57:52Z</time>
      </trkpt>
      <trkpt lat="44.10866" lon="3.09157">
        <ele>489</ele>
        <time>2010-10-24T12:58:00Z</time>
      </trkpt>
      <trkpt lat="44.10858" lon="3.0915">
        <ele>487.39999389648</ele>
        <time>2010-10-24T12:58:04Z</time>
      </trkpt>
      <trkpt lat="44.10859" lon="3.09139">
        <ele>486</ele>
        <time>2010-10-24T12:58:08Z</time>
      </trkpt>
      <trkpt lat="44.1086" lon="3.09137">
        <ele>485.60000610352</ele>
        <time>2010-10-24T12:58:09Z</time>
      </trkpt>
      <trkpt lat="44.10869" lon="3.09125">
        <ele>483.39999389648</ele>
        <time>2010-10-24T12:58:14Z</time>
      </trkpt>
      <trkpt lat="44.10873" lon="3.09123">
        <ele>482.20001220703</ele>
        <time>2010-10-24T12:58:17Z</time>
      </trkpt>
      <trkpt lat="44.10874" lon="3.09118">
        <ele>481.20001220703</ele>
        <time>2010-10-24T12:58:19Z</time>
      </trkpt>
      <trkpt lat="44.10871" lon="3.09105">
        <ele>479.79998779297</ele>
        <time>2010-10-24T12:58:23Z</time>
      </trkpt>
      <trkpt lat="44.10867" lon="3.09103">
        <ele>478.79998779297</ele>
        <time>2010-10-24T12:58:25Z</time>
      </trkpt>
      <trkpt lat="44.10859" lon="3.09101">
        <ele>477.79998779297</ele>
        <time>2010-10-24T12:58:28Z</time>
      </trkpt>
      <trkpt lat="44.10854" lon="3.091">
        <ele>477</ele>
        <time>2010-10-24T12:58:30Z</time>
      </trkpt>
      <trkpt lat="44.10847" lon="3.09096">
        <ele>476</ele>
        <time>2010-10-24T12:58:33Z</time>
      </trkpt>
      <trkpt lat="44.10832" lon="3.0908">
        <ele>472.79998779297</ele>
        <time>2010-10-24T12:58:41Z</time>
      </trkpt>
      <trkpt lat="44.10817" lon="3.09066">
        <ele>470.20001220703</ele>
        <time>2010-10-24T12:58:48Z</time>
      </trkpt>
      <trkpt lat="44.10801" lon="3.09054">
        <ele>467.39999389648</ele>
        <time>2010-10-24T12:58:55Z</time>
      </trkpt>
      <trkpt lat="44.10783" lon="3.09042">
        <ele>464.79998779297</ele>
        <time>2010-10-24T12:59:02Z</time>
      </trkpt>
      <trkpt lat="44.10767" lon="3.09031">
        <ele>462.39999389648</ele>
        <time>2010-10-24T12:59:08Z</time>
      </trkpt>
      <trkpt lat="44.10749" lon="3.09021">
        <ele>460.20001220703</ele>
        <time>2010-10-24T12:59:14Z</time>
      </trkpt>
      <trkpt lat="44.10732" lon="3.0901">
        <ele>457.39999389648</ele>
        <time>2010-10-24T12:59:21Z</time>
      </trkpt>
      <trkpt lat="44.10715" lon="3.08998">
        <ele>454.60000610352</ele>
        <time>2010-10-24T12:59:28Z</time>
      </trkpt>
      <trkpt lat="44.10697" lon="3.08988">
        <ele>451.39999389648</ele>
        <time>2010-10-24T12:59:36Z</time>
      </trkpt>
      <trkpt lat="44.10682" lon="3.08971">
        <ele>447.60000610352</ele>
        <time>2010-10-24T12:59:45Z</time>
      </trkpt>
      <trkpt lat="44.10666" lon="3.08954">
        <ele>444</ele>
        <time>2010-10-24T12:59:54Z</time>
      </trkpt>
      <trkpt lat="44.10648" lon="3.08947">
        <ele>440</ele>
        <time>2010-10-24T13:00:04Z</time>
      </trkpt>
      <trkpt lat="44.1063" lon="3.08955">
        <ele>435</ele>
        <time>2010-10-24T13:00:15Z</time>
      </trkpt>
      <trkpt lat="44.10611" lon="3.08954">
        <ele>430.20001220703</ele>
        <time>2010-10-24T13:00:25Z</time>
      </trkpt>
      <trkpt lat="44.10595" lon="3.08961">
        <ele>426.39999389648</ele>
        <time>2010-10-24T13:00:33Z</time>
      </trkpt>
      <trkpt lat="44.10578" lon="3.0897">
        <ele>422.60000610352</ele>
        <time>2010-10-24T13:00:41Z</time>
      </trkpt>
      <trkpt lat="44.1056" lon="3.08968">
        <ele>418.60000610352</ele>
        <time>2010-10-24T13:00:49Z</time>
      </trkpt>
      <trkpt lat="44.10556" lon="3.08964">
        <ele>417.79998779297</ele>
        <time>2010-10-24T13:00:51Z</time>
      </trkpt>
      <trkpt lat="44.10551" lon="3.08946">
        <ele>415.39999389648</ele>
        <time>2010-10-24T13:00:56Z</time>
      </trkpt>
      <trkpt lat="44.10542" lon="3.0892">
        <ele>412.20001220703</ele>
        <time>2010-10-24T13:01:04Z</time>
      </trkpt>
      <trkpt lat="44.1053" lon="3.08901">
        <ele>410</ele>
        <time>2010-10-24T13:01:10Z</time>
      </trkpt>
      <trkpt lat="44.10519" lon="3.0888">
        <ele>407.39999389648</ele>
        <time>2010-10-24T13:01:17Z</time>
      </trkpt>
      <trkpt lat="44.10504" lon="3.08864">
        <ele>405.20001220703</ele>
        <time>2010-10-24T13:01:24Z</time>
      </trkpt>
      <trkpt lat="44.10497" lon="3.08863">
        <ele>404.39999389648</ele>
        <time>2010-10-24T13:01:27Z</time>
      </trkpt>
      <trkpt lat="44.10487" lon="3.08855">
        <ele>402.79998779297</ele>
        <time>2010-10-24T13:01:32Z</time>
      </trkpt>
      <trkpt lat="44.10484" lon="3.08856">
        <ele>402.60000610352</ele>
        <time>2010-10-24T13:01:33Z</time>
      </trkpt>
      <trkpt lat="44.10468" lon="3.08857">
        <ele>400.79998779297</ele>
        <time>2010-10-24T13:01:39Z</time>
      </trkpt>
      <trkpt lat="44.10449" lon="3.08859">
        <ele>398.79998779297</ele>
        <time>2010-10-24T13:01:46Z</time>
      </trkpt>
      <trkpt lat="44.10431" lon="3.08859">
        <ele>397</ele>
        <time>2010-10-24T13:01:53Z</time>
      </trkpt>
      <trkpt lat="44.10412" lon="3.08859">
        <ele>395.20001220703</ele>
        <time>2010-10-24T13:02:00Z</time>
      </trkpt>
      <trkpt lat="44.10393" lon="3.0886">
        <ele>393.39999389648</ele>
        <time>2010-10-24T13:02:07Z</time>
      </trkpt>
      <trkpt lat="44.10372" lon="3.08861">
        <ele>392</ele>
        <time>2010-10-24T13:02:14Z</time>
      </trkpt>
      <trkpt lat="44.10353" lon="3.08856">
        <ele>390.79998779297</ele>
        <time>2010-10-24T13:02:21Z</time>
      </trkpt>
      <trkpt lat="44.10337" lon="3.08842">
        <ele>389.39999389648</ele>
        <time>2010-10-24T13:02:28Z</time>
      </trkpt>
      <trkpt lat="44.10322" lon="3.08823">
        <ele>388</ele>
        <time>2010-10-24T13:02:35Z</time>
      </trkpt>
      <trkpt lat="44.1031" lon="3.08801">
        <ele>387</ele>
        <time>2010-10-24T13:02:42Z</time>
      </trkpt>
      <trkpt lat="44.10297" lon="3.08779">
        <ele>386</ele>
        <time>2010-10-24T13:02:49Z</time>
      </trkpt>
      <trkpt lat="44.10292" lon="3.08773">
        <ele>385.60000610352</ele>
        <time>2010-10-24T13:02:52Z</time>
      </trkpt>
      <trkpt lat="44.10279" lon="3.08773">
        <ele>384.79998779297</ele>
        <time>2010-10-24T13:02:57Z</time>
      </trkpt>
      <trkpt lat="44.10265" lon="3.0877">
        <ele>384</ele>
        <time>2010-10-24T13:03:03Z</time>
      </trkpt>
      <trkpt lat="44.10261" lon="3.08765">
        <ele>383.79998779297</ele>
        <time>2010-10-24T13:03:05Z</time>
      </trkpt>
      <trkpt lat="44.10245" lon="3.0875">
        <ele>383</ele>
        <time>2010-10-24T13:03:12Z</time>
      </trkpt>
      <trkpt lat="44.10229" lon="3.08735">
        <ele>382.39999389648</ele>
        <time>2010-10-24T13:03:19Z</time>
      </trkpt>
      <trkpt lat="44.10213" lon="3.08722">
        <ele>381.79998779297</ele>
        <time>2010-10-24T13:03:26Z</time>
      </trkpt>
      <trkpt lat="44.102" lon="3.08703">
        <ele>381.39999389648</ele>
        <time>2010-10-24T13:03:33Z</time>
      </trkpt>
      <trkpt lat="44.10195" lon="3.08678">
        <ele>381.20001220703</ele>
        <time>2010-10-24T13:03:40Z</time>
      </trkpt>
      <trkpt lat="44.10192" lon="3.08652">
        <ele>381</ele>
        <time>2010-10-24T13:03:47Z</time>
      </trkpt>
      <trkpt lat="44.10188" lon="3.08625">
        <ele>381</ele>
        <time>2010-10-24T13:03:54Z</time>
      </trkpt>
      <trkpt lat="44.10188" lon="3.08598">
        <ele>380.79998779297</ele>
        <time>2010-10-24T13:04:01Z</time>
      </trkpt>
      <trkpt lat="44.10202" lon="3.08578">
        <ele>380.60000610352</ele>
        <time>2010-10-24T13:04:08Z</time>
      </trkpt>
      <trkpt lat="44.10219" lon="3.0857">
        <ele>380.20001220703</ele>
        <time>2010-10-24T13:04:14Z</time>
      </trkpt>
      <trkpt lat="44.10238" lon="3.0856">
        <ele>379.60000610352</ele>
        <time>2010-10-24T13:04:21Z</time>
      </trkpt>
      <trkpt lat="44.10246" lon="3.08559">
        <ele>379.20001220703</ele>
        <time>2010-10-24T13:04:25Z</time>
      </trkpt>
      <trkpt lat="44.10247" lon="3.08566">
        <ele>378.39999389648</ele>
        <time>2010-10-24T13:04:31Z</time>
      </trkpt>
      <trkpt lat="44.10245" lon="3.08572">
        <ele>378.20001220703</ele>
        <time>2010-10-24T13:04:33Z</time>
      </trkpt>
      <trkpt lat="44.1023" lon="3.08583">
        <ele>377.20001220703</ele>
        <time>2010-10-24T13:04:39Z</time>
      </trkpt>
      <trkpt lat="44.10228" lon="3.08585">
        <ele>377</ele>
        <time>2010-10-24T13:04:40Z</time>
      </trkpt>
      <trkpt lat="44.10209" lon="3.08598">
        <ele>375.79998779297</ele>
        <time>2010-10-24T13:04:47Z</time>
      </trkpt>
      <trkpt lat="44.10193" lon="3.08612">
        <ele>374.39999389648</ele>
        <time>2010-10-24T13:04:59Z</time>
      </trkpt>
      <trkpt lat="44.10174" lon="3.08618">
        <ele>373.60000610352</ele>
        <time>2010-10-24T13:05:05Z</time>
      </trkpt>
      <trkpt lat="44.10155" lon="3.08626">
        <ele>372.60000610352</ele>
        <time>2010-10-24T13:05:12Z</time>
      </trkpt>
      <trkpt lat="44.10137" lon="3.08635">
        <ele>371.79998779297</ele>
        <time>2010-10-24T13:05:19Z</time>
      </trkpt>
      <trkpt lat="44.10118" lon="3.08642">
        <ele>370.79998779297</ele>
        <time>2010-10-24T13:05:26Z</time>
      </trkpt>
      <trkpt lat="44.101" lon="3.08651">
        <ele>370.20001220703</ele>
        <time>2010-10-24T13:05:33Z</time>
      </trkpt>
      <trkpt lat="44.10082" lon="3.08661">
        <ele>369.60000610352</ele>
        <time>2010-10-24T13:05:40Z</time>
      </trkpt>
      <trkpt lat="44.10065" lon="3.08669">
        <ele>369</ele>
        <time>2010-10-24T13:05:47Z</time>
      </trkpt>
      <trkpt lat="44.10047" lon="3.08679">
        <ele>368.60000610352</ele>
        <time>2010-10-24T13:05:54Z</time>
      </trkpt>
      <trkpt lat="44.1003" lon="3.08689">
        <ele>368</ele>
        <time>2010-10-24T13:06:01Z</time>
      </trkpt>
      <trkpt lat="44.10013" lon="3.08699">
        <ele>367.60000610352</ele>
        <time>2010-10-24T13:06:08Z</time>
      </trkpt>
      <trkpt lat="44.09994" lon="3.08706">
        <ele>367.20001220703</ele>
        <time>2010-10-24T13:06:16Z</time>
      </trkpt>
      <trkpt lat="44.09975" lon="3.08714">
        <ele>367</ele>
        <time>2010-10-24T13:06:24Z</time>
      </trkpt>
      <trkpt lat="44.09957" lon="3.08723">
        <ele>366.60000610352</ele>
        <time>2010-10-24T13:06:32Z</time>
      </trkpt>
      <trkpt lat="44.09943" lon="3.0873">
        <ele>366.20001220703</ele>
        <time>2010-10-24T13:06:38Z</time>
      </trkpt>
      <trkpt lat="44.09939" lon="3.08729">
        <ele>366.20001220703</ele>
        <time>2010-10-24T13:06:40Z</time>
      </trkpt>
      <trkpt lat="44.09938" lon="3.08728">
        <ele>366.39999389648</ele>
        <time>2010-10-24T13:06:41Z</time>
      </trkpt>
      <trkpt lat="44.09937" lon="3.0871">
        <ele>366</ele>
        <time>2010-10-24T13:06:47Z</time>
      </trkpt>
      <trkpt lat="44.09943" lon="3.08706">
        <ele>366</ele>
        <time>2010-10-24T13:06:48Z</time>
      </trkpt>
      <trkpt lat="44.09961" lon="3.08694">
        <ele>366</ele>
        <time>2010-10-24T13:06:54Z</time>
      </trkpt>
      <trkpt lat="44.09965" lon="3.08693">
        <ele>366</ele>
        <time>2010-10-24T13:06:56Z</time>
      </trkpt>
      <trkpt lat="44.09978" lon="3.08683">
        <ele>366</ele>
        <time>2010-10-24T13:07:02Z</time>
      </trkpt>
      <trkpt lat="44.09993" lon="3.08668">
        <ele>366</ele>
        <time>2010-10-24T13:07:08Z</time>
      </trkpt>
      <trkpt lat="44.10012" lon="3.08658">
        <ele>366</ele>
        <time>2010-10-24T13:07:15Z</time>
      </trkpt>
      <trkpt lat="44.10029" lon="3.08646">
        <ele>365.79998779297</ele>
        <time>2010-10-24T13:07:22Z</time>
      </trkpt>
      <trkpt lat="44.10045" lon="3.08635">
        <ele>365.60000610352</ele>
        <time>2010-10-24T13:07:29Z</time>
      </trkpt>
      <trkpt lat="44.10046" lon="3.08632">
        <ele>365.60000610352</ele>
        <time>2010-10-24T13:07:30Z</time>
      </trkpt>
      <trkpt lat="44.10043" lon="3.08607">
        <ele>365.60000610352</ele>
        <time>2010-10-24T13:07:36Z</time>
      </trkpt>
      <trkpt lat="44.1004" lon="3.08582">
        <ele>365.79998779297</ele>
        <time>2010-10-24T13:07:42Z</time>
      </trkpt>
      <trkpt lat="44.1004" lon="3.08557">
        <ele>366</ele>
        <time>2010-10-24T13:07:49Z</time>
      </trkpt>
      <trkpt lat="44.10038" lon="3.08532">
        <ele>366.39999389648</ele>
        <time>2010-10-24T13:07:56Z</time>
      </trkpt>
      <trkpt lat="44.10033" lon="3.08509">
        <ele>366.79998779297</ele>
        <time>2010-10-24T13:08:02Z</time>
      </trkpt>
      <trkpt lat="44.10028" lon="3.08483">
        <ele>367.39999389648</ele>
        <time>2010-10-24T13:08:09Z</time>
      </trkpt>
      <trkpt lat="44.10026" lon="3.08458">
        <ele>367.79998779297</ele>
        <time>2010-10-24T13:08:16Z</time>
      </trkpt>
      <trkpt lat="44.10031" lon="3.08432">
        <ele>367.79998779297</ele>
        <time>2010-10-24T13:08:24Z</time>
      </trkpt>
      <trkpt lat="44.1003" lon="3.08415">
        <ele>368</ele>
        <time>2010-10-24T13:08:31Z</time>
      </trkpt>
      <trkpt lat="44.10029" lon="3.08412">
        <ele>368</ele>
        <time>2010-10-24T13:08:34Z</time>
      </trkpt>
      <trkpt lat="44.10029" lon="3.08407">
        <ele>368</ele>
        <time>2010-10-24T13:08:39Z</time>
      </trkpt>
      <trkpt lat="44.10029" lon="3.08404">
        <ele>368</ele>
        <time>2010-10-24T13:08:42Z</time>
      </trkpt>
      <trkpt lat="44.10029" lon="3.084">
        <ele>368.20001220703</ele>
        <time>2010-10-24T13:08:45Z</time>
      </trkpt>
    </trkseg>
  </trk>
</gpx>